<?xml version="1.0" encoding="UTF-8" standalone="no" ?>
<gpx xmlns="http://www.topografix.com/GPX/1/1" xmlns:xsi="http://www.w3.org/2001/XMLSchema-instance" xsi:schemaLocation="http://www.topografix.com/GPX/1/1 http://www.topografix.com/GPX/1/1/gpx.xsd" version="1.1" creator="VisuGPX - https://www.visugpx.com">
  <metadata>
    <name>Vosges - Pyrénées 71. De La Vaquerie-et-Saint-Martin-de-Castries à Lodève</name>
    <desc><![CDATA[Trace AlpineQuest 18/05/2026 07:51:45]]></desc>
  </metadata>
  <trk>
    <name><![CDATA[visugpx_clL1L5HVbN_1]]></name>
    <desc><![CDATA[]]></desc>
    <extensions>
      <line xmlns="http://www.topografix.com/GPX/gpx_style/0/2">
        <color>0000FF</color>
        <width>4</width>
      </line>
    </extensions>
    <trkseg>
      <trkpt lat="43.79103" lon="3.45757">
        <ele>636.7</ele>
        <time>2026-05-18T05:51:45Z</time>
      </trkpt>
      <trkpt lat="43.79109" lon="3.45762">
        <ele>636</ele>
        <time>2026-05-18T05:51:50Z</time>
      </trkpt>
      <trkpt lat="43.7911" lon="3.4577">
        <ele>635.9</ele>
        <time>2026-05-18T05:51:55Z</time>
      </trkpt>
      <trkpt lat="43.79111" lon="3.45777">
        <ele>635.8</ele>
        <time>2026-05-18T05:52:00Z</time>
      </trkpt>
      <trkpt lat="43.79113" lon="3.45784">
        <ele>635.6</ele>
        <time>2026-05-18T05:52:05Z</time>
      </trkpt>
      <trkpt lat="43.79113" lon="3.4579">
        <ele>635.6</ele>
        <time>2026-05-18T05:52:10Z</time>
      </trkpt>
      <trkpt lat="43.79114" lon="3.4579">
        <ele>635.4</ele>
        <time>2026-05-18T05:52:15Z</time>
      </trkpt>
      <trkpt lat="43.79114" lon="3.4579">
        <ele>635.4</ele>
        <time>2026-05-18T05:52:20Z</time>
      </trkpt>
      <trkpt lat="43.79114" lon="3.4579">
        <ele>635.4</ele>
        <time>2026-05-18T05:52:25Z</time>
      </trkpt>
      <trkpt lat="43.79114" lon="3.4579">
        <ele>635.4</ele>
        <time>2026-05-18T05:52:30Z</time>
      </trkpt>
      <trkpt lat="43.79114" lon="3.4579">
        <ele>635.4</ele>
        <time>2026-05-18T05:52:35Z</time>
      </trkpt>
      <trkpt lat="43.79111" lon="3.45787">
        <ele>635.8</ele>
        <time>2026-05-18T05:52:40Z</time>
      </trkpt>
      <trkpt lat="43.79106" lon="3.45786">
        <ele>636.5</ele>
        <time>2026-05-18T05:52:45Z</time>
      </trkpt>
      <trkpt lat="43.79104" lon="3.4579">
        <ele>636.8</ele>
        <time>2026-05-18T05:52:50Z</time>
      </trkpt>
      <trkpt lat="43.79102" lon="3.45799">
        <ele>637.1</ele>
        <time>2026-05-18T05:52:55Z</time>
      </trkpt>
      <trkpt lat="43.791" lon="3.4581">
        <ele>637.4</ele>
        <time>2026-05-18T05:53:00Z</time>
      </trkpt>
      <trkpt lat="43.79099" lon="3.45817">
        <ele>637.6</ele>
        <time>2026-05-18T05:53:05Z</time>
      </trkpt>
      <trkpt lat="43.79098" lon="3.45823">
        <ele>637.8</ele>
        <time>2026-05-18T05:53:10Z</time>
      </trkpt>
      <trkpt lat="43.79096" lon="3.45827">
        <ele>638.1</ele>
        <time>2026-05-18T05:53:15Z</time>
      </trkpt>
      <trkpt lat="43.79096" lon="3.45833">
        <ele>638.2</ele>
        <time>2026-05-18T05:53:20Z</time>
      </trkpt>
      <trkpt lat="43.79096" lon="3.4584">
        <ele>637.8</ele>
        <time>2026-05-18T05:53:25Z</time>
      </trkpt>
      <trkpt lat="43.79098" lon="3.45849">
        <ele>637</ele>
        <time>2026-05-18T05:53:30Z</time>
      </trkpt>
      <trkpt lat="43.79101" lon="3.45856">
        <ele>636.2</ele>
        <time>2026-05-18T05:53:35Z</time>
      </trkpt>
      <trkpt lat="43.79104" lon="3.45867">
        <ele>635.2</ele>
        <time>2026-05-18T05:53:40Z</time>
      </trkpt>
      <trkpt lat="43.79105" lon="3.45874">
        <ele>634.7</ele>
        <time>2026-05-18T05:53:45Z</time>
      </trkpt>
      <trkpt lat="43.79108" lon="3.45879">
        <ele>634.1</ele>
        <time>2026-05-18T05:53:50Z</time>
      </trkpt>
      <trkpt lat="43.79111" lon="3.45889">
        <ele>633.3</ele>
        <time>2026-05-18T05:53:55Z</time>
      </trkpt>
      <trkpt lat="43.79113" lon="3.45894">
        <ele>632.9</ele>
        <time>2026-05-18T05:54:00Z</time>
      </trkpt>
      <trkpt lat="43.79117" lon="3.45904">
        <ele>632.1</ele>
        <time>2026-05-18T05:54:05Z</time>
      </trkpt>
      <trkpt lat="43.79119" lon="3.4591">
        <ele>631.7</ele>
        <time>2026-05-18T05:54:10Z</time>
      </trkpt>
      <trkpt lat="43.7912" lon="3.45915">
        <ele>631.4</ele>
        <time>2026-05-18T05:54:15Z</time>
      </trkpt>
      <trkpt lat="43.79119" lon="3.45919">
        <ele>631.5</ele>
        <time>2026-05-18T05:54:20Z</time>
      </trkpt>
      <trkpt lat="43.79119" lon="3.45919">
        <ele>631.5</ele>
        <time>2026-05-18T05:54:25Z</time>
      </trkpt>
      <trkpt lat="43.79116" lon="3.45918">
        <ele>631.7</ele>
        <time>2026-05-18T05:54:30Z</time>
      </trkpt>
      <trkpt lat="43.79112" lon="3.45922">
        <ele>632.1</ele>
        <time>2026-05-18T05:54:35Z</time>
      </trkpt>
      <trkpt lat="43.7911" lon="3.45924">
        <ele>632.3</ele>
        <time>2026-05-18T05:54:40Z</time>
      </trkpt>
      <trkpt lat="43.79105" lon="3.45927">
        <ele>632.7</ele>
        <time>2026-05-18T05:54:45Z</time>
      </trkpt>
      <trkpt lat="43.79098" lon="3.45932">
        <ele>633.2</ele>
        <time>2026-05-18T05:54:50Z</time>
      </trkpt>
      <trkpt lat="43.79091" lon="3.45936">
        <ele>633.6</ele>
        <time>2026-05-18T05:54:55Z</time>
      </trkpt>
      <trkpt lat="43.79085" lon="3.45937">
        <ele>633.9</ele>
        <time>2026-05-18T05:55:00Z</time>
      </trkpt>
      <trkpt lat="43.7908" lon="3.45939">
        <ele>634.3</ele>
        <time>2026-05-18T05:55:05Z</time>
      </trkpt>
      <trkpt lat="43.79078" lon="3.4594">
        <ele>634.4</ele>
        <time>2026-05-18T05:55:10Z</time>
      </trkpt>
      <trkpt lat="43.79078" lon="3.45942">
        <ele>634.4</ele>
        <time>2026-05-18T05:55:15Z</time>
      </trkpt>
      <trkpt lat="43.79075" lon="3.45944">
        <ele>634.6</ele>
        <time>2026-05-18T05:55:20Z</time>
      </trkpt>
      <trkpt lat="43.7907" lon="3.45953">
        <ele>634.9</ele>
        <time>2026-05-18T05:55:25Z</time>
      </trkpt>
      <trkpt lat="43.79063" lon="3.45956">
        <ele>635.4</ele>
        <time>2026-05-18T05:55:30Z</time>
      </trkpt>
      <trkpt lat="43.79057" lon="3.4596">
        <ele>635.7</ele>
        <time>2026-05-18T05:55:35Z</time>
      </trkpt>
      <trkpt lat="43.79051" lon="3.45966">
        <ele>636</ele>
        <time>2026-05-18T05:55:40Z</time>
      </trkpt>
      <trkpt lat="43.79046" lon="3.45969">
        <ele>636.2</ele>
        <time>2026-05-18T05:55:45Z</time>
      </trkpt>
      <trkpt lat="43.79044" lon="3.45974">
        <ele>636.2</ele>
        <time>2026-05-18T05:55:50Z</time>
      </trkpt>
      <trkpt lat="43.79041" lon="3.45977">
        <ele>636.2</ele>
        <time>2026-05-18T05:55:55Z</time>
      </trkpt>
      <trkpt lat="43.79039" lon="3.45983">
        <ele>636.1</ele>
        <time>2026-05-18T05:56:00Z</time>
      </trkpt>
      <trkpt lat="43.79035" lon="3.4599">
        <ele>636.1</ele>
        <time>2026-05-18T05:56:05Z</time>
      </trkpt>
      <trkpt lat="43.79028" lon="3.45997">
        <ele>636.1</ele>
        <time>2026-05-18T05:56:10Z</time>
      </trkpt>
      <trkpt lat="43.7902" lon="3.46001">
        <ele>636.3</ele>
        <time>2026-05-18T05:56:15Z</time>
      </trkpt>
      <trkpt lat="43.79014" lon="3.46006">
        <ele>636.6</ele>
        <time>2026-05-18T05:56:20Z</time>
      </trkpt>
      <trkpt lat="43.7901" lon="3.46008">
        <ele>636.8</ele>
        <time>2026-05-18T05:56:25Z</time>
      </trkpt>
      <trkpt lat="43.79005" lon="3.4601">
        <ele>637.1</ele>
        <time>2026-05-18T05:56:30Z</time>
      </trkpt>
      <trkpt lat="43.78998" lon="3.46011">
        <ele>637.4</ele>
        <time>2026-05-18T05:56:35Z</time>
      </trkpt>
      <trkpt lat="43.78994" lon="3.46009">
        <ele>637.6</ele>
        <time>2026-05-18T05:56:40Z</time>
      </trkpt>
      <trkpt lat="43.78989" lon="3.46007">
        <ele>637.9</ele>
        <time>2026-05-18T05:56:45Z</time>
      </trkpt>
      <trkpt lat="43.78986" lon="3.46011">
        <ele>638.2</ele>
        <time>2026-05-18T05:56:50Z</time>
      </trkpt>
      <trkpt lat="43.78986" lon="3.46014">
        <ele>638.3</ele>
        <time>2026-05-18T05:56:55Z</time>
      </trkpt>
      <trkpt lat="43.78987" lon="3.46016">
        <ele>638.2</ele>
        <time>2026-05-18T05:57:00Z</time>
      </trkpt>
      <trkpt lat="43.78991" lon="3.46014">
        <ele>637.9</ele>
        <time>2026-05-18T05:57:05Z</time>
      </trkpt>
      <trkpt lat="43.78993" lon="3.46013">
        <ele>637.8</ele>
        <time>2026-05-18T05:57:10Z</time>
      </trkpt>
      <trkpt lat="43.7899" lon="3.46002">
        <ele>637.8</ele>
        <time>2026-05-18T05:57:15Z</time>
      </trkpt>
      <trkpt lat="43.78986" lon="3.45994">
        <ele>638.3</ele>
        <time>2026-05-18T05:57:20Z</time>
      </trkpt>
      <trkpt lat="43.78982" lon="3.45987">
        <ele>638.8</ele>
        <time>2026-05-18T05:57:25Z</time>
      </trkpt>
      <trkpt lat="43.7898" lon="3.45981">
        <ele>639.2</ele>
        <time>2026-05-18T05:57:30Z</time>
      </trkpt>
      <trkpt lat="43.78977" lon="3.45979">
        <ele>639.4</ele>
        <time>2026-05-18T05:57:35Z</time>
      </trkpt>
      <trkpt lat="43.7898" lon="3.45972">
        <ele>639.6</ele>
        <time>2026-05-18T05:57:40Z</time>
      </trkpt>
      <trkpt lat="43.78985" lon="3.45963">
        <ele>639.7</ele>
        <time>2026-05-18T05:57:45Z</time>
      </trkpt>
      <trkpt lat="43.78992" lon="3.45959">
        <ele>639.7</ele>
        <time>2026-05-18T05:57:50Z</time>
      </trkpt>
      <trkpt lat="43.78996" lon="3.45957">
        <ele>639.7</ele>
        <time>2026-05-18T05:57:55Z</time>
      </trkpt>
      <trkpt lat="43.78996" lon="3.45956">
        <ele>639.8</ele>
        <time>2026-05-18T05:58:00Z</time>
      </trkpt>
      <trkpt lat="43.78991" lon="3.45959">
        <ele>639.7</ele>
        <time>2026-05-18T05:58:05Z</time>
      </trkpt>
      <trkpt lat="43.78984" lon="3.45964">
        <ele>639.7</ele>
        <time>2026-05-18T05:58:10Z</time>
      </trkpt>
      <trkpt lat="43.78979" lon="3.45971">
        <ele>639.6</ele>
        <time>2026-05-18T05:58:15Z</time>
      </trkpt>
      <trkpt lat="43.78975" lon="3.45977">
        <ele>639.6</ele>
        <time>2026-05-18T05:58:20Z</time>
      </trkpt>
      <trkpt lat="43.7897" lon="3.45983">
        <ele>639.7</ele>
        <time>2026-05-18T05:58:25Z</time>
      </trkpt>
      <trkpt lat="43.78966" lon="3.4599">
        <ele>639.7</ele>
        <time>2026-05-18T05:58:30Z</time>
      </trkpt>
      <trkpt lat="43.78962" lon="3.45997">
        <ele>639.8</ele>
        <time>2026-05-18T05:58:35Z</time>
      </trkpt>
      <trkpt lat="43.78956" lon="3.46002">
        <ele>640.2</ele>
        <time>2026-05-18T05:58:40Z</time>
      </trkpt>
      <trkpt lat="43.78949" lon="3.46004">
        <ele>640.7</ele>
        <time>2026-05-18T05:58:45Z</time>
      </trkpt>
      <trkpt lat="43.78946" lon="3.46004">
        <ele>640.9</ele>
        <time>2026-05-18T05:58:50Z</time>
      </trkpt>
      <trkpt lat="43.78943" lon="3.4601">
        <ele>641.1</ele>
        <time>2026-05-18T05:58:55Z</time>
      </trkpt>
      <trkpt lat="43.78946" lon="3.46013">
        <ele>640.9</ele>
        <time>2026-05-18T05:59:00Z</time>
      </trkpt>
      <trkpt lat="43.78947" lon="3.46015">
        <ele>640.8</ele>
        <time>2026-05-18T05:59:05Z</time>
      </trkpt>
      <trkpt lat="43.78947" lon="3.46016">
        <ele>640.8</ele>
        <time>2026-05-18T05:59:10Z</time>
      </trkpt>
      <trkpt lat="43.78943" lon="3.46021">
        <ele>641.1</ele>
        <time>2026-05-18T05:59:15Z</time>
      </trkpt>
      <trkpt lat="43.7894" lon="3.46026">
        <ele>641.3</ele>
        <time>2026-05-18T05:59:20Z</time>
      </trkpt>
      <trkpt lat="43.78935" lon="3.46028">
        <ele>641.6</ele>
        <time>2026-05-18T05:59:25Z</time>
      </trkpt>
      <trkpt lat="43.78935" lon="3.46028">
        <ele>641.6</ele>
        <time>2026-05-18T05:59:30Z</time>
      </trkpt>
      <trkpt lat="43.78935" lon="3.46028">
        <ele>641.6</ele>
        <time>2026-05-18T05:59:35Z</time>
      </trkpt>
      <trkpt lat="43.78935" lon="3.46028">
        <ele>641.6</ele>
        <time>2026-05-18T05:59:40Z</time>
      </trkpt>
      <trkpt lat="43.78932" lon="3.46025">
        <ele>641.8</ele>
        <time>2026-05-18T05:59:45Z</time>
      </trkpt>
      <trkpt lat="43.78924" lon="3.46026">
        <ele>642.2</ele>
        <time>2026-05-18T05:59:50Z</time>
      </trkpt>
      <trkpt lat="43.78918" lon="3.46028">
        <ele>642.6</ele>
        <time>2026-05-18T05:59:55Z</time>
      </trkpt>
      <trkpt lat="43.78913" lon="3.46027">
        <ele>643.3</ele>
        <time>2026-05-18T06:00:00Z</time>
      </trkpt>
      <trkpt lat="43.78911" lon="3.46029">
        <ele>643.6</ele>
        <time>2026-05-18T06:00:05Z</time>
      </trkpt>
      <trkpt lat="43.7891" lon="3.46032">
        <ele>643.7</ele>
        <time>2026-05-18T06:00:10Z</time>
      </trkpt>
      <trkpt lat="43.78906" lon="3.46035">
        <ele>644.4</ele>
        <time>2026-05-18T06:00:15Z</time>
      </trkpt>
      <trkpt lat="43.789" lon="3.46038">
        <ele>645.4</ele>
        <time>2026-05-18T06:00:20Z</time>
      </trkpt>
      <trkpt lat="43.78897" lon="3.46038">
        <ele>645.9</ele>
        <time>2026-05-18T06:00:25Z</time>
      </trkpt>
      <trkpt lat="43.78893" lon="3.46041">
        <ele>646.6</ele>
        <time>2026-05-18T06:00:30Z</time>
      </trkpt>
      <trkpt lat="43.78887" lon="3.46044">
        <ele>647.7</ele>
        <time>2026-05-18T06:00:35Z</time>
      </trkpt>
      <trkpt lat="43.78884" lon="3.46048">
        <ele>648.2</ele>
        <time>2026-05-18T06:00:40Z</time>
      </trkpt>
      <trkpt lat="43.78887" lon="3.46042">
        <ele>647.7</ele>
        <time>2026-05-18T06:00:45Z</time>
      </trkpt>
      <trkpt lat="43.7889" lon="3.46036">
        <ele>647.1</ele>
        <time>2026-05-18T06:00:50Z</time>
      </trkpt>
      <trkpt lat="43.78889" lon="3.46033">
        <ele>647.3</ele>
        <time>2026-05-18T06:00:55Z</time>
      </trkpt>
      <trkpt lat="43.78885" lon="3.46031">
        <ele>648</ele>
        <time>2026-05-18T06:01:00Z</time>
      </trkpt>
      <trkpt lat="43.78883" lon="3.46022">
        <ele>648.3</ele>
        <time>2026-05-18T06:01:05Z</time>
      </trkpt>
      <trkpt lat="43.78882" lon="3.46019">
        <ele>648.5</ele>
        <time>2026-05-18T06:01:10Z</time>
      </trkpt>
      <trkpt lat="43.78875" lon="3.46017">
        <ele>649.6</ele>
        <time>2026-05-18T06:01:15Z</time>
      </trkpt>
      <trkpt lat="43.78872" lon="3.46015">
        <ele>650.1</ele>
        <time>2026-05-18T06:01:20Z</time>
      </trkpt>
      <trkpt lat="43.78872" lon="3.46015">
        <ele>650.1</ele>
        <time>2026-05-18T06:01:25Z</time>
      </trkpt>
      <trkpt lat="43.78872" lon="3.46015">
        <ele>650.1</ele>
        <time>2026-05-18T06:01:30Z</time>
      </trkpt>
      <trkpt lat="43.78874" lon="3.46019">
        <ele>649.8</ele>
        <time>2026-05-18T06:01:35Z</time>
      </trkpt>
      <trkpt lat="43.78877" lon="3.46021">
        <ele>649.3</ele>
        <time>2026-05-18T06:01:40Z</time>
      </trkpt>
      <trkpt lat="43.78882" lon="3.46023">
        <ele>648.5</ele>
        <time>2026-05-18T06:01:45Z</time>
      </trkpt>
      <trkpt lat="43.78886" lon="3.46027">
        <ele>647.8</ele>
        <time>2026-05-18T06:01:51Z</time>
      </trkpt>
      <trkpt lat="43.78891" lon="3.46031">
        <ele>647</ele>
        <time>2026-05-18T06:01:56Z</time>
      </trkpt>
      <trkpt lat="43.78895" lon="3.46034">
        <ele>646.3</ele>
        <time>2026-05-18T06:02:01Z</time>
      </trkpt>
      <trkpt lat="43.78892" lon="3.4604">
        <ele>646.8</ele>
        <time>2026-05-18T06:02:06Z</time>
      </trkpt>
      <trkpt lat="43.7889" lon="3.46048">
        <ele>647.1</ele>
        <time>2026-05-18T06:02:11Z</time>
      </trkpt>
      <trkpt lat="43.78888" lon="3.46052">
        <ele>647.5</ele>
        <time>2026-05-18T06:02:16Z</time>
      </trkpt>
      <trkpt lat="43.78886" lon="3.46052">
        <ele>647.8</ele>
        <time>2026-05-18T06:02:21Z</time>
      </trkpt>
      <trkpt lat="43.78886" lon="3.46052">
        <ele>647.8</ele>
        <time>2026-05-18T06:02:26Z</time>
      </trkpt>
      <trkpt lat="43.78886" lon="3.46052">
        <ele>647.8</ele>
        <time>2026-05-18T06:02:31Z</time>
      </trkpt>
      <trkpt lat="43.78886" lon="3.46052">
        <ele>647.8</ele>
        <time>2026-05-18T06:02:36Z</time>
      </trkpt>
      <trkpt lat="43.78886" lon="3.46052">
        <ele>647.8</ele>
        <time>2026-05-18T06:02:41Z</time>
      </trkpt>
      <trkpt lat="43.78886" lon="3.46052">
        <ele>647.8</ele>
        <time>2026-05-18T06:02:46Z</time>
      </trkpt>
      <trkpt lat="43.78886" lon="3.46052">
        <ele>647.8</ele>
        <time>2026-05-18T06:02:51Z</time>
      </trkpt>
      <trkpt lat="43.78886" lon="3.46052">
        <ele>647.8</ele>
        <time>2026-05-18T06:02:56Z</time>
      </trkpt>
      <trkpt lat="43.78886" lon="3.46052">
        <ele>647.8</ele>
        <time>2026-05-18T06:03:01Z</time>
      </trkpt>
      <trkpt lat="43.78886" lon="3.46052">
        <ele>647.8</ele>
        <time>2026-05-18T06:03:06Z</time>
      </trkpt>
      <trkpt lat="43.78886" lon="3.46052">
        <ele>647.8</ele>
        <time>2026-05-18T06:03:11Z</time>
      </trkpt>
      <trkpt lat="43.78886" lon="3.46052">
        <ele>647.8</ele>
        <time>2026-05-18T06:03:16Z</time>
      </trkpt>
      <trkpt lat="43.78886" lon="3.46052">
        <ele>647.8</ele>
        <time>2026-05-18T06:03:21Z</time>
      </trkpt>
      <trkpt lat="43.78886" lon="3.46052">
        <ele>647.8</ele>
        <time>2026-05-18T06:03:26Z</time>
      </trkpt>
      <trkpt lat="43.78886" lon="3.46052">
        <ele>647.8</ele>
        <time>2026-05-18T06:03:31Z</time>
      </trkpt>
      <trkpt lat="43.78886" lon="3.46052">
        <ele>647.8</ele>
        <time>2026-05-18T06:03:36Z</time>
      </trkpt>
      <trkpt lat="43.78886" lon="3.46052">
        <ele>647.8</ele>
        <time>2026-05-18T06:03:41Z</time>
      </trkpt>
      <trkpt lat="43.78886" lon="3.46052">
        <ele>647.8</ele>
        <time>2026-05-18T06:03:46Z</time>
      </trkpt>
      <trkpt lat="43.78886" lon="3.46052">
        <ele>647.8</ele>
        <time>2026-05-18T06:03:51Z</time>
      </trkpt>
      <trkpt lat="43.78886" lon="3.46052">
        <ele>647.8</ele>
        <time>2026-05-18T06:03:56Z</time>
      </trkpt>
      <trkpt lat="43.78886" lon="3.46052">
        <ele>647.8</ele>
        <time>2026-05-18T06:04:01Z</time>
      </trkpt>
      <trkpt lat="43.78886" lon="3.46052">
        <ele>647.8</ele>
        <time>2026-05-18T06:04:06Z</time>
      </trkpt>
      <trkpt lat="43.78888" lon="3.46048">
        <ele>647.5</ele>
        <time>2026-05-18T06:04:11Z</time>
      </trkpt>
      <trkpt lat="43.7889" lon="3.46042">
        <ele>647.1</ele>
        <time>2026-05-18T06:04:16Z</time>
      </trkpt>
      <trkpt lat="43.7889" lon="3.46037">
        <ele>647.1</ele>
        <time>2026-05-18T06:04:21Z</time>
      </trkpt>
      <trkpt lat="43.78889" lon="3.46031">
        <ele>647.3</ele>
        <time>2026-05-18T06:04:26Z</time>
      </trkpt>
      <trkpt lat="43.78884" lon="3.46026">
        <ele>648.2</ele>
        <time>2026-05-18T06:04:31Z</time>
      </trkpt>
      <trkpt lat="43.7888" lon="3.46026">
        <ele>648.8</ele>
        <time>2026-05-18T06:04:36Z</time>
      </trkpt>
      <trkpt lat="43.78877" lon="3.46023">
        <ele>649.3</ele>
        <time>2026-05-18T06:04:41Z</time>
      </trkpt>
      <trkpt lat="43.78871" lon="3.46018">
        <ele>650.3</ele>
        <time>2026-05-18T06:04:46Z</time>
      </trkpt>
      <trkpt lat="43.78866" lon="3.46015">
        <ele>651.1</ele>
        <time>2026-05-18T06:04:51Z</time>
      </trkpt>
      <trkpt lat="43.78863" lon="3.46014">
        <ele>651.5</ele>
        <time>2026-05-18T06:04:56Z</time>
      </trkpt>
      <trkpt lat="43.78858" lon="3.46012">
        <ele>652.3</ele>
        <time>2026-05-18T06:05:01Z</time>
      </trkpt>
      <trkpt lat="43.78853" lon="3.4601">
        <ele>653.1</ele>
        <time>2026-05-18T06:05:06Z</time>
      </trkpt>
      <trkpt lat="43.7885" lon="3.4601">
        <ele>653.6</ele>
        <time>2026-05-18T06:05:11Z</time>
      </trkpt>
      <trkpt lat="43.78847" lon="3.46009">
        <ele>654</ele>
        <time>2026-05-18T06:05:16Z</time>
      </trkpt>
      <trkpt lat="43.78843" lon="3.46007">
        <ele>654.6</ele>
        <time>2026-05-18T06:05:21Z</time>
      </trkpt>
      <trkpt lat="43.78838" lon="3.46004">
        <ele>655.4</ele>
        <time>2026-05-18T06:05:26Z</time>
      </trkpt>
      <trkpt lat="43.78834" lon="3.46">
        <ele>655.9</ele>
        <time>2026-05-18T06:05:31Z</time>
      </trkpt>
      <trkpt lat="43.78831" lon="3.45998">
        <ele>656.5</ele>
        <time>2026-05-18T06:05:36Z</time>
      </trkpt>
      <trkpt lat="43.7883" lon="3.45997">
        <ele>656.7</ele>
        <time>2026-05-18T06:05:41Z</time>
      </trkpt>
      <trkpt lat="43.7883" lon="3.45997">
        <ele>656.7</ele>
        <time>2026-05-18T06:05:46Z</time>
      </trkpt>
      <trkpt lat="43.7883" lon="3.45997">
        <ele>656.7</ele>
        <time>2026-05-18T06:05:51Z</time>
      </trkpt>
      <trkpt lat="43.7883" lon="3.45997">
        <ele>656.7</ele>
        <time>2026-05-18T06:05:56Z</time>
      </trkpt>
      <trkpt lat="43.7883" lon="3.45997">
        <ele>656.7</ele>
        <time>2026-05-18T06:06:01Z</time>
      </trkpt>
      <trkpt lat="43.7883" lon="3.45997">
        <ele>656.7</ele>
        <time>2026-05-18T06:06:06Z</time>
      </trkpt>
      <trkpt lat="43.7883" lon="3.45997">
        <ele>656.7</ele>
        <time>2026-05-18T06:06:11Z</time>
      </trkpt>
      <trkpt lat="43.7883" lon="3.45997">
        <ele>656.7</ele>
        <time>2026-05-18T06:06:16Z</time>
      </trkpt>
      <trkpt lat="43.7883" lon="3.45997">
        <ele>656.7</ele>
        <time>2026-05-18T06:06:21Z</time>
      </trkpt>
      <trkpt lat="43.7883" lon="3.45997">
        <ele>656.7</ele>
        <time>2026-05-18T06:06:26Z</time>
      </trkpt>
      <trkpt lat="43.7883" lon="3.45997">
        <ele>656.7</ele>
        <time>2026-05-18T06:06:31Z</time>
      </trkpt>
      <trkpt lat="43.7883" lon="3.45997">
        <ele>656.7</ele>
        <time>2026-05-18T06:06:36Z</time>
      </trkpt>
      <trkpt lat="43.7883" lon="3.45997">
        <ele>656.7</ele>
        <time>2026-05-18T06:06:41Z</time>
      </trkpt>
      <trkpt lat="43.7883" lon="3.45997">
        <ele>656.7</ele>
        <time>2026-05-18T06:06:46Z</time>
      </trkpt>
      <trkpt lat="43.7883" lon="3.45997">
        <ele>656.7</ele>
        <time>2026-05-18T06:06:51Z</time>
      </trkpt>
      <trkpt lat="43.7883" lon="3.45997">
        <ele>656.7</ele>
        <time>2026-05-18T06:06:56Z</time>
      </trkpt>
      <trkpt lat="43.7883" lon="3.45997">
        <ele>656.7</ele>
        <time>2026-05-18T06:07:01Z</time>
      </trkpt>
      <trkpt lat="43.78824" lon="3.45993">
        <ele>658</ele>
        <time>2026-05-18T06:07:06Z</time>
      </trkpt>
      <trkpt lat="43.78821" lon="3.45991">
        <ele>658.6</ele>
        <time>2026-05-18T06:07:11Z</time>
      </trkpt>
      <trkpt lat="43.78816" lon="3.45989">
        <ele>659.7</ele>
        <time>2026-05-18T06:07:16Z</time>
      </trkpt>
      <trkpt lat="43.78812" lon="3.45986">
        <ele>660.5</ele>
        <time>2026-05-18T06:07:21Z</time>
      </trkpt>
      <trkpt lat="43.78809" lon="3.45985">
        <ele>661.2</ele>
        <time>2026-05-18T06:07:26Z</time>
      </trkpt>
      <trkpt lat="43.78804" lon="3.45983">
        <ele>662.3</ele>
        <time>2026-05-18T06:07:31Z</time>
      </trkpt>
      <trkpt lat="43.78799" lon="3.45983">
        <ele>663.4</ele>
        <time>2026-05-18T06:07:36Z</time>
      </trkpt>
      <trkpt lat="43.78794" lon="3.45981">
        <ele>664.5</ele>
        <time>2026-05-18T06:07:41Z</time>
      </trkpt>
      <trkpt lat="43.78789" lon="3.45974">
        <ele>665.5</ele>
        <time>2026-05-18T06:07:46Z</time>
      </trkpt>
      <trkpt lat="43.78785" lon="3.45965">
        <ele>666.2</ele>
        <time>2026-05-18T06:07:51Z</time>
      </trkpt>
      <trkpt lat="43.78784" lon="3.45957">
        <ele>666.2</ele>
        <time>2026-05-18T06:07:56Z</time>
      </trkpt>
      <trkpt lat="43.78781" lon="3.4595">
        <ele>666.7</ele>
        <time>2026-05-18T06:08:01Z</time>
      </trkpt>
      <trkpt lat="43.7878" lon="3.45941">
        <ele>666.7</ele>
        <time>2026-05-18T06:08:06Z</time>
      </trkpt>
      <trkpt lat="43.78779" lon="3.45933">
        <ele>666.8</ele>
        <time>2026-05-18T06:08:11Z</time>
      </trkpt>
      <trkpt lat="43.78777" lon="3.45925">
        <ele>667</ele>
        <time>2026-05-18T06:08:16Z</time>
      </trkpt>
      <trkpt lat="43.78773" lon="3.45918">
        <ele>667.8</ele>
        <time>2026-05-18T06:08:21Z</time>
      </trkpt>
      <trkpt lat="43.78772" lon="3.45915">
        <ele>668</ele>
        <time>2026-05-18T06:08:26Z</time>
      </trkpt>
      <trkpt lat="43.7877" lon="3.45916">
        <ele>668.5</ele>
        <time>2026-05-18T06:08:31Z</time>
      </trkpt>
      <trkpt lat="43.7877" lon="3.45916">
        <ele>668.5</ele>
        <time>2026-05-18T06:08:36Z</time>
      </trkpt>
      <trkpt lat="43.7877" lon="3.45916">
        <ele>668.5</ele>
        <time>2026-05-18T06:08:41Z</time>
      </trkpt>
      <trkpt lat="43.7877" lon="3.45916">
        <ele>668.5</ele>
        <time>2026-05-18T06:08:46Z</time>
      </trkpt>
      <trkpt lat="43.7877" lon="3.45916">
        <ele>668.5</ele>
        <time>2026-05-18T06:08:51Z</time>
      </trkpt>
      <trkpt lat="43.7877" lon="3.45916">
        <ele>668.5</ele>
        <time>2026-05-18T06:08:56Z</time>
      </trkpt>
      <trkpt lat="43.7877" lon="3.45916">
        <ele>668.5</ele>
        <time>2026-05-18T06:09:01Z</time>
      </trkpt>
      <trkpt lat="43.7877" lon="3.45916">
        <ele>668.5</ele>
        <time>2026-05-18T06:09:06Z</time>
      </trkpt>
      <trkpt lat="43.7877" lon="3.45916">
        <ele>668.5</ele>
        <time>2026-05-18T06:09:11Z</time>
      </trkpt>
      <trkpt lat="43.7877" lon="3.45916">
        <ele>668.5</ele>
        <time>2026-05-18T06:09:16Z</time>
      </trkpt>
      <trkpt lat="43.78766" lon="3.45908">
        <ele>669.5</ele>
        <time>2026-05-18T06:09:21Z</time>
      </trkpt>
      <trkpt lat="43.78762" lon="3.45899">
        <ele>670.6</ele>
        <time>2026-05-18T06:09:26Z</time>
      </trkpt>
      <trkpt lat="43.78759" lon="3.45893">
        <ele>671.5</ele>
        <time>2026-05-18T06:09:31Z</time>
      </trkpt>
      <trkpt lat="43.78755" lon="3.45885">
        <ele>672.6</ele>
        <time>2026-05-18T06:09:36Z</time>
      </trkpt>
      <trkpt lat="43.78753" lon="3.45879">
        <ele>673.2</ele>
        <time>2026-05-18T06:09:41Z</time>
      </trkpt>
      <trkpt lat="43.78753" lon="3.45873">
        <ele>673.3</ele>
        <time>2026-05-18T06:09:46Z</time>
      </trkpt>
      <trkpt lat="43.78752" lon="3.45866">
        <ele>673.7</ele>
        <time>2026-05-18T06:09:51Z</time>
      </trkpt>
      <trkpt lat="43.78751" lon="3.4586">
        <ele>674.1</ele>
        <time>2026-05-18T06:09:56Z</time>
      </trkpt>
      <trkpt lat="43.7875" lon="3.45856">
        <ele>674.5</ele>
        <time>2026-05-18T06:10:01Z</time>
      </trkpt>
      <trkpt lat="43.78748" lon="3.45851">
        <ele>675.3</ele>
        <time>2026-05-18T06:10:06Z</time>
      </trkpt>
      <trkpt lat="43.78746" lon="3.45846">
        <ele>676.1</ele>
        <time>2026-05-18T06:10:11Z</time>
      </trkpt>
      <trkpt lat="43.78743" lon="3.45842">
        <ele>677.2</ele>
        <time>2026-05-18T06:10:16Z</time>
      </trkpt>
      <trkpt lat="43.78739" lon="3.45836">
        <ele>678.8</ele>
        <time>2026-05-18T06:10:21Z</time>
      </trkpt>
      <trkpt lat="43.78735" lon="3.4583">
        <ele>679.9</ele>
        <time>2026-05-18T06:10:26Z</time>
      </trkpt>
      <trkpt lat="43.78732" lon="3.45822">
        <ele>680.3</ele>
        <time>2026-05-18T06:10:31Z</time>
      </trkpt>
      <trkpt lat="43.78731" lon="3.45817">
        <ele>680.2</ele>
        <time>2026-05-18T06:10:36Z</time>
      </trkpt>
      <trkpt lat="43.7873" lon="3.45811">
        <ele>680</ele>
        <time>2026-05-18T06:10:41Z</time>
      </trkpt>
      <trkpt lat="43.78725" lon="3.45803">
        <ele>680.9</ele>
        <time>2026-05-18T06:10:46Z</time>
      </trkpt>
      <trkpt lat="43.78721" lon="3.45794">
        <ele>681.5</ele>
        <time>2026-05-18T06:10:51Z</time>
      </trkpt>
      <trkpt lat="43.7872" lon="3.45786">
        <ele>681.1</ele>
        <time>2026-05-18T06:10:56Z</time>
      </trkpt>
      <trkpt lat="43.78718" lon="3.45779">
        <ele>681.1</ele>
        <time>2026-05-18T06:11:01Z</time>
      </trkpt>
      <trkpt lat="43.78718" lon="3.45769">
        <ele>680.1</ele>
        <time>2026-05-18T06:11:06Z</time>
      </trkpt>
      <trkpt lat="43.78717" lon="3.4576">
        <ele>679.6</ele>
        <time>2026-05-18T06:11:11Z</time>
      </trkpt>
      <trkpt lat="43.78715" lon="3.45751">
        <ele>679.4</ele>
        <time>2026-05-18T06:11:16Z</time>
      </trkpt>
      <trkpt lat="43.78712" lon="3.45743">
        <ele>679.4</ele>
        <time>2026-05-18T06:11:21Z</time>
      </trkpt>
      <trkpt lat="43.78707" lon="3.45735">
        <ele>679.9</ele>
        <time>2026-05-18T06:11:26Z</time>
      </trkpt>
      <trkpt lat="43.78705" lon="3.4573">
        <ele>679.8</ele>
        <time>2026-05-18T06:11:31Z</time>
      </trkpt>
      <trkpt lat="43.78704" lon="3.45724">
        <ele>679.3</ele>
        <time>2026-05-18T06:11:36Z</time>
      </trkpt>
      <trkpt lat="43.78702" lon="3.45719">
        <ele>679.2</ele>
        <time>2026-05-18T06:11:41Z</time>
      </trkpt>
      <trkpt lat="43.78697" lon="3.45714">
        <ele>679.8</ele>
        <time>2026-05-18T06:11:46Z</time>
      </trkpt>
      <trkpt lat="43.78694" lon="3.45711">
        <ele>680.2</ele>
        <time>2026-05-18T06:11:51Z</time>
      </trkpt>
      <trkpt lat="43.78694" lon="3.45711">
        <ele>680.2</ele>
        <time>2026-05-18T06:11:56Z</time>
      </trkpt>
      <trkpt lat="43.78694" lon="3.45711">
        <ele>680.2</ele>
        <time>2026-05-18T06:12:01Z</time>
      </trkpt>
      <trkpt lat="43.78694" lon="3.45711">
        <ele>680.2</ele>
        <time>2026-05-18T06:12:06Z</time>
      </trkpt>
      <trkpt lat="43.78684" lon="3.45707">
        <ele>682.2</ele>
        <time>2026-05-18T06:12:11Z</time>
      </trkpt>
      <trkpt lat="43.78681" lon="3.45706">
        <ele>682.8</ele>
        <time>2026-05-18T06:12:16Z</time>
      </trkpt>
      <trkpt lat="43.7868" lon="3.45702">
        <ele>682.4</ele>
        <time>2026-05-18T06:12:21Z</time>
      </trkpt>
      <trkpt lat="43.78678" lon="3.45696">
        <ele>681.8</ele>
        <time>2026-05-18T06:12:26Z</time>
      </trkpt>
      <trkpt lat="43.78675" lon="3.4569">
        <ele>681.5</ele>
        <time>2026-05-18T06:12:31Z</time>
      </trkpt>
      <trkpt lat="43.78672" lon="3.45684">
        <ele>681.1</ele>
        <time>2026-05-18T06:12:36Z</time>
      </trkpt>
      <trkpt lat="43.7867" lon="3.45681">
        <ele>681</ele>
        <time>2026-05-18T06:12:41Z</time>
      </trkpt>
      <trkpt lat="43.78666" lon="3.45676">
        <ele>680.9</ele>
        <time>2026-05-18T06:12:46Z</time>
      </trkpt>
      <trkpt lat="43.78662" lon="3.45672">
        <ele>681</ele>
        <time>2026-05-18T06:12:51Z</time>
      </trkpt>
      <trkpt lat="43.78659" lon="3.4567">
        <ele>681.2</ele>
        <time>2026-05-18T06:12:56Z</time>
      </trkpt>
      <trkpt lat="43.78656" lon="3.45666">
        <ele>681.1</ele>
        <time>2026-05-18T06:13:01Z</time>
      </trkpt>
      <trkpt lat="43.7865" lon="3.45662">
        <ele>682.1</ele>
        <time>2026-05-18T06:13:06Z</time>
      </trkpt>
      <trkpt lat="43.78647" lon="3.45662">
        <ele>682.7</ele>
        <time>2026-05-18T06:13:11Z</time>
      </trkpt>
      <trkpt lat="43.78641" lon="3.4566">
        <ele>683.7</ele>
        <time>2026-05-18T06:13:16Z</time>
      </trkpt>
      <trkpt lat="43.7864" lon="3.4566">
        <ele>683.9</ele>
        <time>2026-05-18T06:13:21Z</time>
      </trkpt>
      <trkpt lat="43.7864" lon="3.4566">
        <ele>683.9</ele>
        <time>2026-05-18T06:13:26Z</time>
      </trkpt>
      <trkpt lat="43.7864" lon="3.4566">
        <ele>683.9</ele>
        <time>2026-05-18T06:13:31Z</time>
      </trkpt>
      <trkpt lat="43.7864" lon="3.4566">
        <ele>683.9</ele>
        <time>2026-05-18T06:13:36Z</time>
      </trkpt>
      <trkpt lat="43.7864" lon="3.4566">
        <ele>683.9</ele>
        <time>2026-05-18T06:13:41Z</time>
      </trkpt>
      <trkpt lat="43.78639" lon="3.45655">
        <ele>683.8</ele>
        <time>2026-05-18T06:13:46Z</time>
      </trkpt>
      <trkpt lat="43.78632" lon="3.45653">
        <ele>684.9</ele>
        <time>2026-05-18T06:13:51Z</time>
      </trkpt>
      <trkpt lat="43.78626" lon="3.45652">
        <ele>686</ele>
        <time>2026-05-18T06:13:56Z</time>
      </trkpt>
      <trkpt lat="43.7862" lon="3.45651">
        <ele>687</ele>
        <time>2026-05-18T06:14:01Z</time>
      </trkpt>
      <trkpt lat="43.78617" lon="3.4565">
        <ele>687.5</ele>
        <time>2026-05-18T06:14:06Z</time>
      </trkpt>
      <trkpt lat="43.78615" lon="3.45649">
        <ele>687.8</ele>
        <time>2026-05-18T06:14:11Z</time>
      </trkpt>
      <trkpt lat="43.78611" lon="3.45652">
        <ele>688.8</ele>
        <time>2026-05-18T06:14:16Z</time>
      </trkpt>
      <trkpt lat="43.78609" lon="3.45653">
        <ele>689.3</ele>
        <time>2026-05-18T06:14:21Z</time>
      </trkpt>
      <trkpt lat="43.78609" lon="3.45654">
        <ele>689.4</ele>
        <time>2026-05-18T06:14:26Z</time>
      </trkpt>
      <trkpt lat="43.78602" lon="3.45659">
        <ele>691.3</ele>
        <time>2026-05-18T06:14:31Z</time>
      </trkpt>
      <trkpt lat="43.78599" lon="3.4566">
        <ele>692</ele>
        <time>2026-05-18T06:14:36Z</time>
      </trkpt>
      <trkpt lat="43.78598" lon="3.45662">
        <ele>692.5</ele>
        <time>2026-05-18T06:14:41Z</time>
      </trkpt>
      <trkpt lat="43.78601" lon="3.45667">
        <ele>692.5</ele>
        <time>2026-05-18T06:14:46Z</time>
      </trkpt>
      <trkpt lat="43.78603" lon="3.45668">
        <ele>692.3</ele>
        <time>2026-05-18T06:14:51Z</time>
      </trkpt>
      <trkpt lat="43.78603" lon="3.45668">
        <ele>692.3</ele>
        <time>2026-05-18T06:14:56Z</time>
      </trkpt>
      <trkpt lat="43.78603" lon="3.45668">
        <ele>692.3</ele>
        <time>2026-05-18T06:15:01Z</time>
      </trkpt>
      <trkpt lat="43.78603" lon="3.45668">
        <ele>692.3</ele>
        <time>2026-05-18T06:15:06Z</time>
      </trkpt>
      <trkpt lat="43.78603" lon="3.45668">
        <ele>692.3</ele>
        <time>2026-05-18T06:15:11Z</time>
      </trkpt>
      <trkpt lat="43.78603" lon="3.45668">
        <ele>692.3</ele>
        <time>2026-05-18T06:15:16Z</time>
      </trkpt>
      <trkpt lat="43.78603" lon="3.45668">
        <ele>692.3</ele>
        <time>2026-05-18T06:15:21Z</time>
      </trkpt>
      <trkpt lat="43.78603" lon="3.45668">
        <ele>692.3</ele>
        <time>2026-05-18T06:15:26Z</time>
      </trkpt>
      <trkpt lat="43.78603" lon="3.45668">
        <ele>692.3</ele>
        <time>2026-05-18T06:15:31Z</time>
      </trkpt>
      <trkpt lat="43.78603" lon="3.45668">
        <ele>692.3</ele>
        <time>2026-05-18T06:15:36Z</time>
      </trkpt>
      <trkpt lat="43.78603" lon="3.45668">
        <ele>692.3</ele>
        <time>2026-05-18T06:15:41Z</time>
      </trkpt>
      <trkpt lat="43.78603" lon="3.45668">
        <ele>692.3</ele>
        <time>2026-05-18T06:15:46Z</time>
      </trkpt>
      <trkpt lat="43.78603" lon="3.45668">
        <ele>692.3</ele>
        <time>2026-05-18T06:15:51Z</time>
      </trkpt>
      <trkpt lat="43.78603" lon="3.45668">
        <ele>692.3</ele>
        <time>2026-05-18T06:15:56Z</time>
      </trkpt>
      <trkpt lat="43.78603" lon="3.45668">
        <ele>692.3</ele>
        <time>2026-05-18T06:16:01Z</time>
      </trkpt>
      <trkpt lat="43.78603" lon="3.45668">
        <ele>692.3</ele>
        <time>2026-05-18T06:16:06Z</time>
      </trkpt>
      <trkpt lat="43.78603" lon="3.45668">
        <ele>692.3</ele>
        <time>2026-05-18T06:16:11Z</time>
      </trkpt>
      <trkpt lat="43.78603" lon="3.45668">
        <ele>692.3</ele>
        <time>2026-05-18T06:16:16Z</time>
      </trkpt>
      <trkpt lat="43.78603" lon="3.45668">
        <ele>692.3</ele>
        <time>2026-05-18T06:16:21Z</time>
      </trkpt>
      <trkpt lat="43.78603" lon="3.45668">
        <ele>692.3</ele>
        <time>2026-05-18T06:16:26Z</time>
      </trkpt>
      <trkpt lat="43.78603" lon="3.45668">
        <ele>692.3</ele>
        <time>2026-05-18T06:16:31Z</time>
      </trkpt>
      <trkpt lat="43.78603" lon="3.45668">
        <ele>692.3</ele>
        <time>2026-05-18T06:16:36Z</time>
      </trkpt>
      <trkpt lat="43.78603" lon="3.45668">
        <ele>692.3</ele>
        <time>2026-05-18T06:16:41Z</time>
      </trkpt>
      <trkpt lat="43.78603" lon="3.45668">
        <ele>692.3</ele>
        <time>2026-05-18T06:16:46Z</time>
      </trkpt>
      <trkpt lat="43.78603" lon="3.45668">
        <ele>692.3</ele>
        <time>2026-05-18T06:16:51Z</time>
      </trkpt>
      <trkpt lat="43.78603" lon="3.45668">
        <ele>692.3</ele>
        <time>2026-05-18T06:16:56Z</time>
      </trkpt>
      <trkpt lat="43.78603" lon="3.45668">
        <ele>692.3</ele>
        <time>2026-05-18T06:17:01Z</time>
      </trkpt>
      <trkpt lat="43.78603" lon="3.45668">
        <ele>692.3</ele>
        <time>2026-05-18T06:17:06Z</time>
      </trkpt>
      <trkpt lat="43.78603" lon="3.45668">
        <ele>692.3</ele>
        <time>2026-05-18T06:17:11Z</time>
      </trkpt>
      <trkpt lat="43.78603" lon="3.45668">
        <ele>692.3</ele>
        <time>2026-05-18T06:17:16Z</time>
      </trkpt>
      <trkpt lat="43.78603" lon="3.45668">
        <ele>692.3</ele>
        <time>2026-05-18T06:17:21Z</time>
      </trkpt>
      <trkpt lat="43.78603" lon="3.45668">
        <ele>692.3</ele>
        <time>2026-05-18T06:17:26Z</time>
      </trkpt>
      <trkpt lat="43.78603" lon="3.45668">
        <ele>692.3</ele>
        <time>2026-05-18T06:17:31Z</time>
      </trkpt>
      <trkpt lat="43.78603" lon="3.45668">
        <ele>692.3</ele>
        <time>2026-05-18T06:17:36Z</time>
      </trkpt>
      <trkpt lat="43.78603" lon="3.45668">
        <ele>692.3</ele>
        <time>2026-05-18T06:17:41Z</time>
      </trkpt>
      <trkpt lat="43.78603" lon="3.45668">
        <ele>692.3</ele>
        <time>2026-05-18T06:17:46Z</time>
      </trkpt>
      <trkpt lat="43.78603" lon="3.45668">
        <ele>692.3</ele>
        <time>2026-05-18T06:17:51Z</time>
      </trkpt>
      <trkpt lat="43.78603" lon="3.45668">
        <ele>692.3</ele>
        <time>2026-05-18T06:17:56Z</time>
      </trkpt>
      <trkpt lat="43.78603" lon="3.45668">
        <ele>692.3</ele>
        <time>2026-05-18T06:18:01Z</time>
      </trkpt>
      <trkpt lat="43.78603" lon="3.45668">
        <ele>692.3</ele>
        <time>2026-05-18T06:18:06Z</time>
      </trkpt>
      <trkpt lat="43.78603" lon="3.45668">
        <ele>692.3</ele>
        <time>2026-05-18T06:18:11Z</time>
      </trkpt>
      <trkpt lat="43.78603" lon="3.45668">
        <ele>692.3</ele>
        <time>2026-05-18T06:18:16Z</time>
      </trkpt>
      <trkpt lat="43.78603" lon="3.45668">
        <ele>692.3</ele>
        <time>2026-05-18T06:18:21Z</time>
      </trkpt>
      <trkpt lat="43.78603" lon="3.45668">
        <ele>692.3</ele>
        <time>2026-05-18T06:18:26Z</time>
      </trkpt>
      <trkpt lat="43.78603" lon="3.45668">
        <ele>692.3</ele>
        <time>2026-05-18T06:18:31Z</time>
      </trkpt>
      <trkpt lat="43.78603" lon="3.45668">
        <ele>692.3</ele>
        <time>2026-05-18T06:18:36Z</time>
      </trkpt>
      <trkpt lat="43.78603" lon="3.45668">
        <ele>692.3</ele>
        <time>2026-05-18T06:18:41Z</time>
      </trkpt>
      <trkpt lat="43.78593" lon="3.45657">
        <ele>692.8</ele>
        <time>2026-05-18T06:18:46Z</time>
      </trkpt>
      <trkpt lat="43.78585" lon="3.45656">
        <ele>694.3</ele>
        <time>2026-05-18T06:18:51Z</time>
      </trkpt>
      <trkpt lat="43.78581" lon="3.45658">
        <ele>695.3</ele>
        <time>2026-05-18T06:18:56Z</time>
      </trkpt>
      <trkpt lat="43.78578" lon="3.45659">
        <ele>696.1</ele>
        <time>2026-05-18T06:19:01Z</time>
      </trkpt>
      <trkpt lat="43.78577" lon="3.45659">
        <ele>696.3</ele>
        <time>2026-05-18T06:19:06Z</time>
      </trkpt>
      <trkpt lat="43.78573" lon="3.45659">
        <ele>697.1</ele>
        <time>2026-05-18T06:19:11Z</time>
      </trkpt>
      <trkpt lat="43.78572" lon="3.45659">
        <ele>697.3</ele>
        <time>2026-05-18T06:19:16Z</time>
      </trkpt>
      <trkpt lat="43.78565" lon="3.45658">
        <ele>698.6</ele>
        <time>2026-05-18T06:19:21Z</time>
      </trkpt>
      <trkpt lat="43.78559" lon="3.45657">
        <ele>699.7</ele>
        <time>2026-05-18T06:19:26Z</time>
      </trkpt>
      <trkpt lat="43.78555" lon="3.45658">
        <ele>700.6</ele>
        <time>2026-05-18T06:19:31Z</time>
      </trkpt>
      <trkpt lat="43.78553" lon="3.45661">
        <ele>701.4</ele>
        <time>2026-05-18T06:19:36Z</time>
      </trkpt>
      <trkpt lat="43.78552" lon="3.45661">
        <ele>701.6</ele>
        <time>2026-05-18T06:19:41Z</time>
      </trkpt>
      <trkpt lat="43.78552" lon="3.45661">
        <ele>701.6</ele>
        <time>2026-05-18T06:19:46Z</time>
      </trkpt>
      <trkpt lat="43.78542" lon="3.4566">
        <ele>703.5</ele>
        <time>2026-05-18T06:19:51Z</time>
      </trkpt>
      <trkpt lat="43.78539" lon="3.45662">
        <ele>704.4</ele>
        <time>2026-05-18T06:19:56Z</time>
      </trkpt>
      <trkpt lat="43.78536" lon="3.45659">
        <ele>704.6</ele>
        <time>2026-05-18T06:20:01Z</time>
      </trkpt>
      <trkpt lat="43.78529" lon="3.45657">
        <ele>705.7</ele>
        <time>2026-05-18T06:20:06Z</time>
      </trkpt>
      <trkpt lat="43.78527" lon="3.45656">
        <ele>706</ele>
        <time>2026-05-18T06:20:11Z</time>
      </trkpt>
      <trkpt lat="43.78525" lon="3.45654">
        <ele>706.1</ele>
        <time>2026-05-18T06:20:16Z</time>
      </trkpt>
      <trkpt lat="43.78523" lon="3.45654">
        <ele>706.5</ele>
        <time>2026-05-18T06:20:21Z</time>
      </trkpt>
      <trkpt lat="43.78523" lon="3.45654">
        <ele>706.5</ele>
        <time>2026-05-18T06:20:26Z</time>
      </trkpt>
      <trkpt lat="43.78523" lon="3.45654">
        <ele>706.5</ele>
        <time>2026-05-18T06:20:31Z</time>
      </trkpt>
      <trkpt lat="43.78511" lon="3.4565">
        <ele>708.4</ele>
        <time>2026-05-18T06:20:36Z</time>
      </trkpt>
      <trkpt lat="43.78511" lon="3.4565">
        <ele>708.4</ele>
        <time>2026-05-18T06:20:41Z</time>
      </trkpt>
      <trkpt lat="43.78511" lon="3.4565">
        <ele>708.4</ele>
        <time>2026-05-18T06:20:46Z</time>
      </trkpt>
      <trkpt lat="43.78502" lon="3.45649">
        <ele>710.1</ele>
        <time>2026-05-18T06:20:51Z</time>
      </trkpt>
      <trkpt lat="43.78498" lon="3.45648">
        <ele>710.7</ele>
        <time>2026-05-18T06:20:56Z</time>
      </trkpt>
      <trkpt lat="43.78494" lon="3.45648">
        <ele>711.6</ele>
        <time>2026-05-18T06:21:01Z</time>
      </trkpt>
      <trkpt lat="43.7849" lon="3.45648">
        <ele>712.5</ele>
        <time>2026-05-18T06:21:06Z</time>
      </trkpt>
      <trkpt lat="43.78487" lon="3.45645">
        <ele>712.7</ele>
        <time>2026-05-18T06:21:11Z</time>
      </trkpt>
      <trkpt lat="43.78485" lon="3.45644">
        <ele>713</ele>
        <time>2026-05-18T06:21:16Z</time>
      </trkpt>
      <trkpt lat="43.78485" lon="3.45644">
        <ele>713</ele>
        <time>2026-05-18T06:21:21Z</time>
      </trkpt>
      <trkpt lat="43.78485" lon="3.45644">
        <ele>713</ele>
        <time>2026-05-18T06:21:26Z</time>
      </trkpt>
      <trkpt lat="43.78485" lon="3.45644">
        <ele>713</ele>
        <time>2026-05-18T06:21:31Z</time>
      </trkpt>
      <trkpt lat="43.78474" lon="3.45648">
        <ele>716</ele>
        <time>2026-05-18T06:21:36Z</time>
      </trkpt>
      <trkpt lat="43.78474" lon="3.45648">
        <ele>716</ele>
        <time>2026-05-18T06:21:41Z</time>
      </trkpt>
      <trkpt lat="43.78474" lon="3.45648">
        <ele>716</ele>
        <time>2026-05-18T06:21:46Z</time>
      </trkpt>
      <trkpt lat="43.7847" lon="3.45648">
        <ele>716.9</ele>
        <time>2026-05-18T06:21:51Z</time>
      </trkpt>
      <trkpt lat="43.78468" lon="3.45648">
        <ele>717.3</ele>
        <time>2026-05-18T06:21:56Z</time>
      </trkpt>
      <trkpt lat="43.78466" lon="3.45647">
        <ele>717.6</ele>
        <time>2026-05-18T06:22:01Z</time>
      </trkpt>
      <trkpt lat="43.78461" lon="3.45644">
        <ele>718.3</ele>
        <time>2026-05-18T06:22:06Z</time>
      </trkpt>
      <trkpt lat="43.78457" lon="3.45643">
        <ele>719</ele>
        <time>2026-05-18T06:22:11Z</time>
      </trkpt>
      <trkpt lat="43.78453" lon="3.45644">
        <ele>720</ele>
        <time>2026-05-18T06:22:16Z</time>
      </trkpt>
      <trkpt lat="43.78449" lon="3.45644">
        <ele>720.9</ele>
        <time>2026-05-18T06:22:21Z</time>
      </trkpt>
      <trkpt lat="43.78447" lon="3.45643">
        <ele>721.2</ele>
        <time>2026-05-18T06:22:26Z</time>
      </trkpt>
      <trkpt lat="43.78445" lon="3.45641">
        <ele>721.4</ele>
        <time>2026-05-18T06:22:31Z</time>
      </trkpt>
      <trkpt lat="43.78443" lon="3.45641">
        <ele>721.8</ele>
        <time>2026-05-18T06:22:36Z</time>
      </trkpt>
      <trkpt lat="43.78438" lon="3.45642">
        <ele>723.1</ele>
        <time>2026-05-18T06:22:41Z</time>
      </trkpt>
      <trkpt lat="43.78433" lon="3.4564">
        <ele>723.9</ele>
        <time>2026-05-18T06:22:46Z</time>
      </trkpt>
      <trkpt lat="43.78429" lon="3.45638">
        <ele>724.5</ele>
        <time>2026-05-18T06:22:51Z</time>
      </trkpt>
      <trkpt lat="43.78424" lon="3.45638">
        <ele>725.6</ele>
        <time>2026-05-18T06:22:56Z</time>
      </trkpt>
      <trkpt lat="43.7842" lon="3.45639">
        <ele>726.6</ele>
        <time>2026-05-18T06:23:01Z</time>
      </trkpt>
      <trkpt lat="43.78415" lon="3.45637">
        <ele>727.4</ele>
        <time>2026-05-18T06:23:06Z</time>
      </trkpt>
      <trkpt lat="43.78412" lon="3.45637">
        <ele>727.9</ele>
        <time>2026-05-18T06:23:11Z</time>
      </trkpt>
      <trkpt lat="43.7841" lon="3.45638">
        <ele>728.4</ele>
        <time>2026-05-18T06:23:16Z</time>
      </trkpt>
      <trkpt lat="43.7841" lon="3.45638">
        <ele>728.4</ele>
        <time>2026-05-18T06:23:21Z</time>
      </trkpt>
      <trkpt lat="43.7841" lon="3.45638">
        <ele>728.4</ele>
        <time>2026-05-18T06:23:26Z</time>
      </trkpt>
      <trkpt lat="43.7841" lon="3.45638">
        <ele>728.4</ele>
        <time>2026-05-18T06:23:31Z</time>
      </trkpt>
      <trkpt lat="43.78399" lon="3.45641">
        <ele>730.7</ele>
        <time>2026-05-18T06:23:36Z</time>
      </trkpt>
      <trkpt lat="43.78398" lon="3.45641">
        <ele>730.9</ele>
        <time>2026-05-18T06:23:41Z</time>
      </trkpt>
      <trkpt lat="43.78398" lon="3.45641">
        <ele>730.9</ele>
        <time>2026-05-18T06:23:46Z</time>
      </trkpt>
      <trkpt lat="43.78398" lon="3.45641">
        <ele>730.9</ele>
        <time>2026-05-18T06:23:51Z</time>
      </trkpt>
      <trkpt lat="43.78389" lon="3.45639">
        <ele>732.3</ele>
        <time>2026-05-18T06:23:56Z</time>
      </trkpt>
      <trkpt lat="43.78385" lon="3.45639">
        <ele>733</ele>
        <time>2026-05-18T06:24:01Z</time>
      </trkpt>
      <trkpt lat="43.78381" lon="3.45638">
        <ele>733.7</ele>
        <time>2026-05-18T06:24:06Z</time>
      </trkpt>
      <trkpt lat="43.78378" lon="3.45638">
        <ele>734.2</ele>
        <time>2026-05-18T06:24:11Z</time>
      </trkpt>
      <trkpt lat="43.78374" lon="3.45639">
        <ele>735</ele>
        <time>2026-05-18T06:24:16Z</time>
      </trkpt>
      <trkpt lat="43.78371" lon="3.45639">
        <ele>735.6</ele>
        <time>2026-05-18T06:24:21Z</time>
      </trkpt>
      <trkpt lat="43.78368" lon="3.45639">
        <ele>736.1</ele>
        <time>2026-05-18T06:24:26Z</time>
      </trkpt>
      <trkpt lat="43.78365" lon="3.45638">
        <ele>736.6</ele>
        <time>2026-05-18T06:24:31Z</time>
      </trkpt>
      <trkpt lat="43.78361" lon="3.45637">
        <ele>737.3</ele>
        <time>2026-05-18T06:24:36Z</time>
      </trkpt>
      <trkpt lat="43.78357" lon="3.45636">
        <ele>738</ele>
        <time>2026-05-18T06:24:41Z</time>
      </trkpt>
      <trkpt lat="43.78354" lon="3.45635">
        <ele>738.5</ele>
        <time>2026-05-18T06:24:46Z</time>
      </trkpt>
      <trkpt lat="43.7835" lon="3.45633">
        <ele>739.2</ele>
        <time>2026-05-18T06:24:51Z</time>
      </trkpt>
      <trkpt lat="43.78346" lon="3.45634">
        <ele>740</ele>
        <time>2026-05-18T06:24:56Z</time>
      </trkpt>
      <trkpt lat="43.78343" lon="3.45634">
        <ele>740.6</ele>
        <time>2026-05-18T06:25:01Z</time>
      </trkpt>
      <trkpt lat="43.78339" lon="3.45635">
        <ele>741.3</ele>
        <time>2026-05-18T06:25:06Z</time>
      </trkpt>
      <trkpt lat="43.78336" lon="3.45633">
        <ele>741.9</ele>
        <time>2026-05-18T06:25:11Z</time>
      </trkpt>
      <trkpt lat="43.78333" lon="3.45633">
        <ele>742.4</ele>
        <time>2026-05-18T06:25:16Z</time>
      </trkpt>
      <trkpt lat="43.7833" lon="3.45632">
        <ele>742.4</ele>
        <time>2026-05-18T06:25:21Z</time>
      </trkpt>
      <trkpt lat="43.78328" lon="3.45632">
        <ele>742.5</ele>
        <time>2026-05-18T06:25:26Z</time>
      </trkpt>
      <trkpt lat="43.78324" lon="3.45629">
        <ele>742.6</ele>
        <time>2026-05-18T06:25:31Z</time>
      </trkpt>
      <trkpt lat="43.78322" lon="3.45628">
        <ele>742.7</ele>
        <time>2026-05-18T06:25:36Z</time>
      </trkpt>
      <trkpt lat="43.78319" lon="3.45627">
        <ele>742.8</ele>
        <time>2026-05-18T06:25:41Z</time>
      </trkpt>
      <trkpt lat="43.78315" lon="3.45626">
        <ele>742.9</ele>
        <time>2026-05-18T06:25:46Z</time>
      </trkpt>
      <trkpt lat="43.78313" lon="3.45625">
        <ele>743</ele>
        <time>2026-05-18T06:25:51Z</time>
      </trkpt>
      <trkpt lat="43.78309" lon="3.45624">
        <ele>743.2</ele>
        <time>2026-05-18T06:25:56Z</time>
      </trkpt>
      <trkpt lat="43.78304" lon="3.45623">
        <ele>743.4</ele>
        <time>2026-05-18T06:26:01Z</time>
      </trkpt>
      <trkpt lat="43.783" lon="3.45625">
        <ele>743.3</ele>
        <time>2026-05-18T06:26:06Z</time>
      </trkpt>
      <trkpt lat="43.78296" lon="3.45625">
        <ele>743.4</ele>
        <time>2026-05-18T06:26:11Z</time>
      </trkpt>
      <trkpt lat="43.78291" lon="3.45622">
        <ele>743.8</ele>
        <time>2026-05-18T06:26:16Z</time>
      </trkpt>
      <trkpt lat="43.78286" lon="3.45621">
        <ele>744.1</ele>
        <time>2026-05-18T06:26:21Z</time>
      </trkpt>
      <trkpt lat="43.78282" lon="3.45618">
        <ele>744.6</ele>
        <time>2026-05-18T06:26:26Z</time>
      </trkpt>
      <trkpt lat="43.78279" lon="3.45618">
        <ele>744.8</ele>
        <time>2026-05-18T06:26:31Z</time>
      </trkpt>
      <trkpt lat="43.78276" lon="3.45619">
        <ele>744.7</ele>
        <time>2026-05-18T06:26:36Z</time>
      </trkpt>
      <trkpt lat="43.78273" lon="3.45617">
        <ele>745.2</ele>
        <time>2026-05-18T06:26:41Z</time>
      </trkpt>
      <trkpt lat="43.78269" lon="3.45615">
        <ele>745.6</ele>
        <time>2026-05-18T06:26:46Z</time>
      </trkpt>
      <trkpt lat="43.78266" lon="3.45616">
        <ele>745.6</ele>
        <time>2026-05-18T06:26:51Z</time>
      </trkpt>
      <trkpt lat="43.78264" lon="3.45614">
        <ele>746.1</ele>
        <time>2026-05-18T06:26:56Z</time>
      </trkpt>
      <trkpt lat="43.78262" lon="3.45612">
        <ele>746.5</ele>
        <time>2026-05-18T06:27:01Z</time>
      </trkpt>
      <trkpt lat="43.78259" lon="3.45607">
        <ele>747.6</ele>
        <time>2026-05-18T06:27:06Z</time>
      </trkpt>
      <trkpt lat="43.78254" lon="3.45605">
        <ele>748.3</ele>
        <time>2026-05-18T06:27:11Z</time>
      </trkpt>
      <trkpt lat="43.78251" lon="3.45603">
        <ele>748.9</ele>
        <time>2026-05-18T06:27:16Z</time>
      </trkpt>
      <trkpt lat="43.78248" lon="3.45602">
        <ele>749</ele>
        <time>2026-05-18T06:27:21Z</time>
      </trkpt>
      <trkpt lat="43.78245" lon="3.45601">
        <ele>748.8</ele>
        <time>2026-05-18T06:27:26Z</time>
      </trkpt>
      <trkpt lat="43.78244" lon="3.456">
        <ele>748.9</ele>
        <time>2026-05-18T06:27:31Z</time>
      </trkpt>
      <trkpt lat="43.78244" lon="3.456">
        <ele>748.9</ele>
        <time>2026-05-18T06:27:36Z</time>
      </trkpt>
      <trkpt lat="43.78237" lon="3.45601">
        <ele>747.9</ele>
        <time>2026-05-18T06:27:41Z</time>
      </trkpt>
      <trkpt lat="43.78235" lon="3.45602">
        <ele>747.5</ele>
        <time>2026-05-18T06:27:46Z</time>
      </trkpt>
      <trkpt lat="43.78232" lon="3.456">
        <ele>747.6</ele>
        <time>2026-05-18T06:27:51Z</time>
      </trkpt>
      <trkpt lat="43.78231" lon="3.45599">
        <ele>747.7</ele>
        <time>2026-05-18T06:27:56Z</time>
      </trkpt>
      <trkpt lat="43.78231" lon="3.45599">
        <ele>747.7</ele>
        <time>2026-05-18T06:28:01Z</time>
      </trkpt>
      <trkpt lat="43.78231" lon="3.45599">
        <ele>747.7</ele>
        <time>2026-05-18T06:28:06Z</time>
      </trkpt>
      <trkpt lat="43.78223" lon="3.45592">
        <ele>748.4</ele>
        <time>2026-05-18T06:28:11Z</time>
      </trkpt>
      <trkpt lat="43.78221" lon="3.45588">
        <ele>749.1</ele>
        <time>2026-05-18T06:28:16Z</time>
      </trkpt>
      <trkpt lat="43.78219" lon="3.45585">
        <ele>749.6</ele>
        <time>2026-05-18T06:28:21Z</time>
      </trkpt>
      <trkpt lat="43.78215" lon="3.45584">
        <ele>749.5</ele>
        <time>2026-05-18T06:28:26Z</time>
      </trkpt>
      <trkpt lat="43.78212" lon="3.45582">
        <ele>749.6</ele>
        <time>2026-05-18T06:28:31Z</time>
      </trkpt>
      <trkpt lat="43.78209" lon="3.45581">
        <ele>749.6</ele>
        <time>2026-05-18T06:28:36Z</time>
      </trkpt>
      <trkpt lat="43.78206" lon="3.45579">
        <ele>749.7</ele>
        <time>2026-05-18T06:28:41Z</time>
      </trkpt>
      <trkpt lat="43.78206" lon="3.45578">
        <ele>749.9</ele>
        <time>2026-05-18T06:28:46Z</time>
      </trkpt>
      <trkpt lat="43.78203" lon="3.45575">
        <ele>750.3</ele>
        <time>2026-05-18T06:28:51Z</time>
      </trkpt>
      <trkpt lat="43.78201" lon="3.45573">
        <ele>750.6</ele>
        <time>2026-05-18T06:28:56Z</time>
      </trkpt>
      <trkpt lat="43.78199" lon="3.45572">
        <ele>750.7</ele>
        <time>2026-05-18T06:29:01Z</time>
      </trkpt>
      <trkpt lat="43.78196" lon="3.4557">
        <ele>750.9</ele>
        <time>2026-05-18T06:29:06Z</time>
      </trkpt>
      <trkpt lat="43.78193" lon="3.45569">
        <ele>750.9</ele>
        <time>2026-05-18T06:29:11Z</time>
      </trkpt>
      <trkpt lat="43.7819" lon="3.45566">
        <ele>751.4</ele>
        <time>2026-05-18T06:29:16Z</time>
      </trkpt>
      <trkpt lat="43.78185" lon="3.45564">
        <ele>751.5</ele>
        <time>2026-05-18T06:29:21Z</time>
      </trkpt>
      <trkpt lat="43.78181" lon="3.4556">
        <ele>752.2</ele>
        <time>2026-05-18T06:29:26Z</time>
      </trkpt>
      <trkpt lat="43.78179" lon="3.45554">
        <ele>753.5</ele>
        <time>2026-05-18T06:29:31Z</time>
      </trkpt>
      <trkpt lat="43.78175" lon="3.45548">
        <ele>754.8</ele>
        <time>2026-05-18T06:29:36Z</time>
      </trkpt>
      <trkpt lat="43.78173" lon="3.45544">
        <ele>755.7</ele>
        <time>2026-05-18T06:29:41Z</time>
      </trkpt>
      <trkpt lat="43.7817" lon="3.4554">
        <ele>756.6</ele>
        <time>2026-05-18T06:29:46Z</time>
      </trkpt>
      <trkpt lat="43.78167" lon="3.45535">
        <ele>757.8</ele>
        <time>2026-05-18T06:29:51Z</time>
      </trkpt>
      <trkpt lat="43.78163" lon="3.4553">
        <ele>759.5</ele>
        <time>2026-05-18T06:29:56Z</time>
      </trkpt>
      <trkpt lat="43.78159" lon="3.45528">
        <ele>760.4</ele>
        <time>2026-05-18T06:30:01Z</time>
      </trkpt>
      <trkpt lat="43.78155" lon="3.45523">
        <ele>762.1</ele>
        <time>2026-05-18T06:30:06Z</time>
      </trkpt>
      <trkpt lat="43.78149" lon="3.45524">
        <ele>762.4</ele>
        <time>2026-05-18T06:30:11Z</time>
      </trkpt>
      <trkpt lat="43.78144" lon="3.45527">
        <ele>762.2</ele>
        <time>2026-05-18T06:30:16Z</time>
      </trkpt>
      <trkpt lat="43.78138" lon="3.45528">
        <ele>762.6</ele>
        <time>2026-05-18T06:30:21Z</time>
      </trkpt>
      <trkpt lat="43.78132" lon="3.45527">
        <ele>763.4</ele>
        <time>2026-05-18T06:30:26Z</time>
      </trkpt>
      <trkpt lat="43.78126" lon="3.45527">
        <ele>764.1</ele>
        <time>2026-05-18T06:30:31Z</time>
      </trkpt>
      <trkpt lat="43.7812" lon="3.45527">
        <ele>764.7</ele>
        <time>2026-05-18T06:30:36Z</time>
      </trkpt>
      <trkpt lat="43.78114" lon="3.45526">
        <ele>765.5</ele>
        <time>2026-05-18T06:30:41Z</time>
      </trkpt>
      <trkpt lat="43.78109" lon="3.45524">
        <ele>766.4</ele>
        <time>2026-05-18T06:30:46Z</time>
      </trkpt>
      <trkpt lat="43.78104" lon="3.45522">
        <ele>767.3</ele>
        <time>2026-05-18T06:30:51Z</time>
      </trkpt>
      <trkpt lat="43.78101" lon="3.45519">
        <ele>768.1</ele>
        <time>2026-05-18T06:30:56Z</time>
      </trkpt>
      <trkpt lat="43.78095" lon="3.45517">
        <ele>769.1</ele>
        <time>2026-05-18T06:31:01Z</time>
      </trkpt>
      <trkpt lat="43.78091" lon="3.45514">
        <ele>770</ele>
        <time>2026-05-18T06:31:06Z</time>
      </trkpt>
      <trkpt lat="43.78087" lon="3.45511">
        <ele>770.8</ele>
        <time>2026-05-18T06:31:11Z</time>
      </trkpt>
      <trkpt lat="43.78084" lon="3.45507">
        <ele>771.8</ele>
        <time>2026-05-18T06:31:16Z</time>
      </trkpt>
      <trkpt lat="43.78082" lon="3.45504">
        <ele>772.6</ele>
        <time>2026-05-18T06:31:21Z</time>
      </trkpt>
      <trkpt lat="43.78076" lon="3.45501">
        <ele>774.2</ele>
        <time>2026-05-18T06:31:26Z</time>
      </trkpt>
      <trkpt lat="43.7807" lon="3.45498">
        <ele>775.8</ele>
        <time>2026-05-18T06:31:31Z</time>
      </trkpt>
      <trkpt lat="43.78065" lon="3.45496">
        <ele>777</ele>
        <time>2026-05-18T06:31:36Z</time>
      </trkpt>
      <trkpt lat="43.7806" lon="3.45491">
        <ele>778.6</ele>
        <time>2026-05-18T06:31:41Z</time>
      </trkpt>
      <trkpt lat="43.78056" lon="3.45487">
        <ele>779.7</ele>
        <time>2026-05-18T06:31:46Z</time>
      </trkpt>
      <trkpt lat="43.78052" lon="3.45485">
        <ele>780.6</ele>
        <time>2026-05-18T06:31:51Z</time>
      </trkpt>
      <trkpt lat="43.78048" lon="3.45482">
        <ele>781.6</ele>
        <time>2026-05-18T06:31:56Z</time>
      </trkpt>
      <trkpt lat="43.78042" lon="3.45479">
        <ele>782.8</ele>
        <time>2026-05-18T06:32:01Z</time>
      </trkpt>
      <trkpt lat="43.78035" lon="3.45477">
        <ele>784.1</ele>
        <time>2026-05-18T06:32:06Z</time>
      </trkpt>
      <trkpt lat="43.78028" lon="3.45477">
        <ele>785.2</ele>
        <time>2026-05-18T06:32:11Z</time>
      </trkpt>
      <trkpt lat="43.78023" lon="3.4548">
        <ele>785.8</ele>
        <time>2026-05-18T06:32:16Z</time>
      </trkpt>
      <trkpt lat="43.78019" lon="3.4548">
        <ele>786.4</ele>
        <time>2026-05-18T06:32:21Z</time>
      </trkpt>
      <trkpt lat="43.78016" lon="3.45482">
        <ele>786.8</ele>
        <time>2026-05-18T06:32:26Z</time>
      </trkpt>
      <trkpt lat="43.78011" lon="3.45482">
        <ele>787.6</ele>
        <time>2026-05-18T06:32:31Z</time>
      </trkpt>
      <trkpt lat="43.78008" lon="3.45482">
        <ele>788.1</ele>
        <time>2026-05-18T06:32:36Z</time>
      </trkpt>
      <trkpt lat="43.78004" lon="3.45483">
        <ele>788.7</ele>
        <time>2026-05-18T06:32:41Z</time>
      </trkpt>
      <trkpt lat="43.77999" lon="3.45485">
        <ele>789.4</ele>
        <time>2026-05-18T06:32:46Z</time>
      </trkpt>
      <trkpt lat="43.77994" lon="3.45489">
        <ele>789.2</ele>
        <time>2026-05-18T06:32:51Z</time>
      </trkpt>
      <trkpt lat="43.77991" lon="3.45492">
        <ele>789.2</ele>
        <time>2026-05-18T06:32:56Z</time>
      </trkpt>
      <trkpt lat="43.77988" lon="3.45491">
        <ele>789.2</ele>
        <time>2026-05-18T06:33:01Z</time>
      </trkpt>
      <trkpt lat="43.77984" lon="3.45494">
        <ele>789.1</ele>
        <time>2026-05-18T06:33:06Z</time>
      </trkpt>
      <trkpt lat="43.77977" lon="3.45497">
        <ele>789</ele>
        <time>2026-05-18T06:33:11Z</time>
      </trkpt>
      <trkpt lat="43.77972" lon="3.455">
        <ele>789</ele>
        <time>2026-05-18T06:33:16Z</time>
      </trkpt>
      <trkpt lat="43.77966" lon="3.45503">
        <ele>788.9</ele>
        <time>2026-05-18T06:33:21Z</time>
      </trkpt>
      <trkpt lat="43.77961" lon="3.45507">
        <ele>788.8</ele>
        <time>2026-05-18T06:33:26Z</time>
      </trkpt>
      <trkpt lat="43.77956" lon="3.45512">
        <ele>788.7</ele>
        <time>2026-05-18T06:33:31Z</time>
      </trkpt>
      <trkpt lat="43.77952" lon="3.45515">
        <ele>788.7</ele>
        <time>2026-05-18T06:33:36Z</time>
      </trkpt>
      <trkpt lat="43.77947" lon="3.45517">
        <ele>788.7</ele>
        <time>2026-05-18T06:33:41Z</time>
      </trkpt>
      <trkpt lat="43.77943" lon="3.4552">
        <ele>788.8</ele>
        <time>2026-05-18T06:33:46Z</time>
      </trkpt>
      <trkpt lat="43.77939" lon="3.45522">
        <ele>788.9</ele>
        <time>2026-05-18T06:33:51Z</time>
      </trkpt>
      <trkpt lat="43.77935" lon="3.45525">
        <ele>789</ele>
        <time>2026-05-18T06:33:56Z</time>
      </trkpt>
      <trkpt lat="43.77931" lon="3.45528">
        <ele>789.2</ele>
        <time>2026-05-18T06:34:01Z</time>
      </trkpt>
      <trkpt lat="43.77927" lon="3.4553">
        <ele>789.3</ele>
        <time>2026-05-18T06:34:06Z</time>
      </trkpt>
      <trkpt lat="43.77927" lon="3.4553">
        <ele>789.3</ele>
        <time>2026-05-18T06:34:11Z</time>
      </trkpt>
      <trkpt lat="43.77927" lon="3.4553">
        <ele>789.3</ele>
        <time>2026-05-18T06:34:16Z</time>
      </trkpt>
      <trkpt lat="43.77927" lon="3.4553">
        <ele>789.3</ele>
        <time>2026-05-18T06:34:21Z</time>
      </trkpt>
      <trkpt lat="43.77918" lon="3.45534">
        <ele>789.8</ele>
        <time>2026-05-18T06:34:26Z</time>
      </trkpt>
      <trkpt lat="43.77914" lon="3.45535">
        <ele>789.7</ele>
        <time>2026-05-18T06:34:31Z</time>
      </trkpt>
      <trkpt lat="43.77912" lon="3.45537">
        <ele>789.7</ele>
        <time>2026-05-18T06:34:36Z</time>
      </trkpt>
      <trkpt lat="43.7791" lon="3.45541">
        <ele>789.7</ele>
        <time>2026-05-18T06:34:41Z</time>
      </trkpt>
      <trkpt lat="43.77908" lon="3.45545">
        <ele>789.8</ele>
        <time>2026-05-18T06:34:46Z</time>
      </trkpt>
      <trkpt lat="43.77906" lon="3.45548">
        <ele>789.8</ele>
        <time>2026-05-18T06:34:51Z</time>
      </trkpt>
      <trkpt lat="43.77906" lon="3.45548">
        <ele>789.8</ele>
        <time>2026-05-18T06:34:56Z</time>
      </trkpt>
      <trkpt lat="43.77906" lon="3.45548">
        <ele>789.8</ele>
        <time>2026-05-18T06:35:01Z</time>
      </trkpt>
      <trkpt lat="43.77906" lon="3.45548">
        <ele>789.8</ele>
        <time>2026-05-18T06:35:06Z</time>
      </trkpt>
      <trkpt lat="43.77906" lon="3.45548">
        <ele>789.8</ele>
        <time>2026-05-18T06:35:11Z</time>
      </trkpt>
      <trkpt lat="43.77903" lon="3.45552">
        <ele>789.8</ele>
        <time>2026-05-18T06:35:16Z</time>
      </trkpt>
      <trkpt lat="43.77899" lon="3.45555">
        <ele>789.8</ele>
        <time>2026-05-18T06:35:21Z</time>
      </trkpt>
      <trkpt lat="43.77896" lon="3.45558">
        <ele>789.7</ele>
        <time>2026-05-18T06:35:26Z</time>
      </trkpt>
      <trkpt lat="43.77892" lon="3.45558">
        <ele>789.6</ele>
        <time>2026-05-18T06:35:31Z</time>
      </trkpt>
      <trkpt lat="43.77892" lon="3.45559">
        <ele>789.7</ele>
        <time>2026-05-18T06:35:36Z</time>
      </trkpt>
      <trkpt lat="43.77891" lon="3.45558">
        <ele>789.6</ele>
        <time>2026-05-18T06:35:41Z</time>
      </trkpt>
      <trkpt lat="43.7789" lon="3.45556">
        <ele>789.5</ele>
        <time>2026-05-18T06:35:46Z</time>
      </trkpt>
      <trkpt lat="43.7789" lon="3.45556">
        <ele>789.5</ele>
        <time>2026-05-18T06:35:51Z</time>
      </trkpt>
      <trkpt lat="43.7789" lon="3.45556">
        <ele>789.5</ele>
        <time>2026-05-18T06:35:56Z</time>
      </trkpt>
      <trkpt lat="43.7789" lon="3.45556">
        <ele>789.5</ele>
        <time>2026-05-18T06:36:01Z</time>
      </trkpt>
      <trkpt lat="43.7789" lon="3.45556">
        <ele>789.5</ele>
        <time>2026-05-18T06:36:06Z</time>
      </trkpt>
      <trkpt lat="43.7789" lon="3.45556">
        <ele>789.5</ele>
        <time>2026-05-18T06:36:11Z</time>
      </trkpt>
      <trkpt lat="43.77889" lon="3.4555">
        <ele>789.3</ele>
        <time>2026-05-18T06:36:16Z</time>
      </trkpt>
      <trkpt lat="43.77889" lon="3.4554">
        <ele>789</ele>
        <time>2026-05-18T06:36:21Z</time>
      </trkpt>
      <trkpt lat="43.77887" lon="3.45531">
        <ele>788.6</ele>
        <time>2026-05-18T06:36:26Z</time>
      </trkpt>
      <trkpt lat="43.77886" lon="3.45522">
        <ele>788.3</ele>
        <time>2026-05-18T06:36:31Z</time>
      </trkpt>
      <trkpt lat="43.77886" lon="3.45513">
        <ele>788</ele>
        <time>2026-05-18T06:36:36Z</time>
      </trkpt>
      <trkpt lat="43.77887" lon="3.45503">
        <ele>787.7</ele>
        <time>2026-05-18T06:36:41Z</time>
      </trkpt>
      <trkpt lat="43.77889" lon="3.45495">
        <ele>787.6</ele>
        <time>2026-05-18T06:36:46Z</time>
      </trkpt>
      <trkpt lat="43.7789" lon="3.45494">
        <ele>787.6</ele>
        <time>2026-05-18T06:36:51Z</time>
      </trkpt>
      <trkpt lat="43.7789" lon="3.45494">
        <ele>787.6</ele>
        <time>2026-05-18T06:36:56Z</time>
      </trkpt>
      <trkpt lat="43.7789" lon="3.45494">
        <ele>787.6</ele>
        <time>2026-05-18T06:37:01Z</time>
      </trkpt>
      <trkpt lat="43.7789" lon="3.45494">
        <ele>787.6</ele>
        <time>2026-05-18T06:37:06Z</time>
      </trkpt>
      <trkpt lat="43.7789" lon="3.45494">
        <ele>787.6</ele>
        <time>2026-05-18T06:37:11Z</time>
      </trkpt>
      <trkpt lat="43.7789" lon="3.45494">
        <ele>787.6</ele>
        <time>2026-05-18T06:37:16Z</time>
      </trkpt>
      <trkpt lat="43.7789" lon="3.45494">
        <ele>787.6</ele>
        <time>2026-05-18T06:37:21Z</time>
      </trkpt>
      <trkpt lat="43.7789" lon="3.45494">
        <ele>787.6</ele>
        <time>2026-05-18T06:37:26Z</time>
      </trkpt>
      <trkpt lat="43.7789" lon="3.45494">
        <ele>787.6</ele>
        <time>2026-05-18T06:37:31Z</time>
      </trkpt>
      <trkpt lat="43.7789" lon="3.45494">
        <ele>787.6</ele>
        <time>2026-05-18T06:37:36Z</time>
      </trkpt>
      <trkpt lat="43.7789" lon="3.45494">
        <ele>787.6</ele>
        <time>2026-05-18T06:37:41Z</time>
      </trkpt>
      <trkpt lat="43.7789" lon="3.45494">
        <ele>787.6</ele>
        <time>2026-05-18T06:37:46Z</time>
      </trkpt>
      <trkpt lat="43.7789" lon="3.45494">
        <ele>787.6</ele>
        <time>2026-05-18T06:37:51Z</time>
      </trkpt>
      <trkpt lat="43.77893" lon="3.45488">
        <ele>787.7</ele>
        <time>2026-05-18T06:37:56Z</time>
      </trkpt>
      <trkpt lat="43.77894" lon="3.45486">
        <ele>787.7</ele>
        <time>2026-05-18T06:38:01Z</time>
      </trkpt>
      <trkpt lat="43.77895" lon="3.45477">
        <ele>787.6</ele>
        <time>2026-05-18T06:38:06Z</time>
      </trkpt>
      <trkpt lat="43.77897" lon="3.45476">
        <ele>787.7</ele>
        <time>2026-05-18T06:38:11Z</time>
      </trkpt>
      <trkpt lat="43.77897" lon="3.45476">
        <ele>787.7</ele>
        <time>2026-05-18T06:38:16Z</time>
      </trkpt>
      <trkpt lat="43.77897" lon="3.45475">
        <ele>787.7</ele>
        <time>2026-05-18T06:38:21Z</time>
      </trkpt>
      <trkpt lat="43.779" lon="3.45465">
        <ele>787.7</ele>
        <time>2026-05-18T06:38:26Z</time>
      </trkpt>
      <trkpt lat="43.77904" lon="3.45458">
        <ele>787.8</ele>
        <time>2026-05-18T06:38:31Z</time>
      </trkpt>
      <trkpt lat="43.77907" lon="3.45451">
        <ele>787.9</ele>
        <time>2026-05-18T06:38:36Z</time>
      </trkpt>
      <trkpt lat="43.7791" lon="3.45443">
        <ele>787.9</ele>
        <time>2026-05-18T06:38:41Z</time>
      </trkpt>
      <trkpt lat="43.77914" lon="3.45437">
        <ele>788.1</ele>
        <time>2026-05-18T06:38:46Z</time>
      </trkpt>
      <trkpt lat="43.77915" lon="3.45435">
        <ele>788.1</ele>
        <time>2026-05-18T06:38:51Z</time>
      </trkpt>
      <trkpt lat="43.77916" lon="3.45435">
        <ele>788.2</ele>
        <time>2026-05-18T06:38:56Z</time>
      </trkpt>
      <trkpt lat="43.77916" lon="3.45435">
        <ele>788.2</ele>
        <time>2026-05-18T06:39:01Z</time>
      </trkpt>
      <trkpt lat="43.77921" lon="3.45427">
        <ele>788.3</ele>
        <time>2026-05-18T06:39:06Z</time>
      </trkpt>
      <trkpt lat="43.77925" lon="3.4542">
        <ele>788.3</ele>
        <time>2026-05-18T06:39:11Z</time>
      </trkpt>
      <trkpt lat="43.77929" lon="3.45414">
        <ele>788.4</ele>
        <time>2026-05-18T06:39:16Z</time>
      </trkpt>
      <trkpt lat="43.77934" lon="3.45407">
        <ele>788.3</ele>
        <time>2026-05-18T06:39:21Z</time>
      </trkpt>
      <trkpt lat="43.7794" lon="3.45401">
        <ele>788.4</ele>
        <time>2026-05-18T06:39:26Z</time>
      </trkpt>
      <trkpt lat="43.77945" lon="3.45394">
        <ele>788.5</ele>
        <time>2026-05-18T06:39:31Z</time>
      </trkpt>
      <trkpt lat="43.7795" lon="3.45387">
        <ele>788.6</ele>
        <time>2026-05-18T06:39:36Z</time>
      </trkpt>
      <trkpt lat="43.77954" lon="3.4538">
        <ele>788.6</ele>
        <time>2026-05-18T06:39:41Z</time>
      </trkpt>
      <trkpt lat="43.7796" lon="3.45374">
        <ele>788.8</ele>
        <time>2026-05-18T06:39:46Z</time>
      </trkpt>
      <trkpt lat="43.77965" lon="3.45367">
        <ele>789</ele>
        <time>2026-05-18T06:39:51Z</time>
      </trkpt>
      <trkpt lat="43.77968" lon="3.45359">
        <ele>789.1</ele>
        <time>2026-05-18T06:39:56Z</time>
      </trkpt>
      <trkpt lat="43.77972" lon="3.45351">
        <ele>789.2</ele>
        <time>2026-05-18T06:40:01Z</time>
      </trkpt>
      <trkpt lat="43.77975" lon="3.45342">
        <ele>789.3</ele>
        <time>2026-05-18T06:40:06Z</time>
      </trkpt>
      <trkpt lat="43.77979" lon="3.45334">
        <ele>789.5</ele>
        <time>2026-05-18T06:40:11Z</time>
      </trkpt>
      <trkpt lat="43.77982" lon="3.45325">
        <ele>789.2</ele>
        <time>2026-05-18T06:40:16Z</time>
      </trkpt>
      <trkpt lat="43.77985" lon="3.45317">
        <ele>788.9</ele>
        <time>2026-05-18T06:40:21Z</time>
      </trkpt>
      <trkpt lat="43.77987" lon="3.45309">
        <ele>788.6</ele>
        <time>2026-05-18T06:40:26Z</time>
      </trkpt>
      <trkpt lat="43.77989" lon="3.45303">
        <ele>788.3</ele>
        <time>2026-05-18T06:40:31Z</time>
      </trkpt>
      <trkpt lat="43.77985" lon="3.45298">
        <ele>787.7</ele>
        <time>2026-05-18T06:40:36Z</time>
      </trkpt>
      <trkpt lat="43.77982" lon="3.45291">
        <ele>787.1</ele>
        <time>2026-05-18T06:40:41Z</time>
      </trkpt>
      <trkpt lat="43.77981" lon="3.45285">
        <ele>786.6</ele>
        <time>2026-05-18T06:40:46Z</time>
      </trkpt>
      <trkpt lat="43.77977" lon="3.45281">
        <ele>786</ele>
        <time>2026-05-18T06:40:51Z</time>
      </trkpt>
      <trkpt lat="43.77974" lon="3.45275">
        <ele>785.4</ele>
        <time>2026-05-18T06:40:56Z</time>
      </trkpt>
      <trkpt lat="43.77969" lon="3.4527">
        <ele>784.7</ele>
        <time>2026-05-18T06:41:01Z</time>
      </trkpt>
      <trkpt lat="43.77966" lon="3.45267">
        <ele>784.2</ele>
        <time>2026-05-18T06:41:06Z</time>
      </trkpt>
      <trkpt lat="43.77964" lon="3.45259">
        <ele>783.6</ele>
        <time>2026-05-18T06:41:11Z</time>
      </trkpt>
      <trkpt lat="43.77959" lon="3.45253">
        <ele>782.8</ele>
        <time>2026-05-18T06:41:16Z</time>
      </trkpt>
      <trkpt lat="43.77954" lon="3.45249">
        <ele>782.1</ele>
        <time>2026-05-18T06:41:21Z</time>
      </trkpt>
      <trkpt lat="43.77953" lon="3.45246">
        <ele>781.9</ele>
        <time>2026-05-18T06:41:26Z</time>
      </trkpt>
      <trkpt lat="43.77952" lon="3.45245">
        <ele>781.8</ele>
        <time>2026-05-18T06:41:31Z</time>
      </trkpt>
      <trkpt lat="43.77945" lon="3.45242">
        <ele>781.1</ele>
        <time>2026-05-18T06:41:36Z</time>
      </trkpt>
      <trkpt lat="43.77939" lon="3.45238">
        <ele>780.4</ele>
        <time>2026-05-18T06:41:41Z</time>
      </trkpt>
      <trkpt lat="43.77933" lon="3.45236">
        <ele>779.8</ele>
        <time>2026-05-18T06:41:46Z</time>
      </trkpt>
      <trkpt lat="43.77927" lon="3.45234">
        <ele>779.1</ele>
        <time>2026-05-18T06:41:51Z</time>
      </trkpt>
      <trkpt lat="43.77923" lon="3.45234">
        <ele>778.8</ele>
        <time>2026-05-18T06:41:56Z</time>
      </trkpt>
      <trkpt lat="43.77922" lon="3.45232">
        <ele>778.6</ele>
        <time>2026-05-18T06:42:01Z</time>
      </trkpt>
      <trkpt lat="43.77918" lon="3.45229">
        <ele>778.1</ele>
        <time>2026-05-18T06:42:06Z</time>
      </trkpt>
      <trkpt lat="43.77911" lon="3.45224">
        <ele>777.5</ele>
        <time>2026-05-18T06:42:11Z</time>
      </trkpt>
      <trkpt lat="43.77908" lon="3.45221">
        <ele>777.2</ele>
        <time>2026-05-18T06:42:16Z</time>
      </trkpt>
      <trkpt lat="43.77905" lon="3.4522">
        <ele>777</ele>
        <time>2026-05-18T06:42:21Z</time>
      </trkpt>
      <trkpt lat="43.77902" lon="3.45217">
        <ele>776.7</ele>
        <time>2026-05-18T06:42:26Z</time>
      </trkpt>
      <trkpt lat="43.77897" lon="3.45214">
        <ele>776.3</ele>
        <time>2026-05-18T06:42:31Z</time>
      </trkpt>
      <trkpt lat="43.77891" lon="3.4521">
        <ele>775.8</ele>
        <time>2026-05-18T06:42:36Z</time>
      </trkpt>
      <trkpt lat="43.77886" lon="3.45206">
        <ele>775.4</ele>
        <time>2026-05-18T06:42:41Z</time>
      </trkpt>
      <trkpt lat="43.77883" lon="3.45203">
        <ele>775.1</ele>
        <time>2026-05-18T06:42:46Z</time>
      </trkpt>
      <trkpt lat="43.77879" lon="3.45196">
        <ele>774.6</ele>
        <time>2026-05-18T06:42:51Z</time>
      </trkpt>
      <trkpt lat="43.77876" lon="3.4519">
        <ele>774.2</ele>
        <time>2026-05-18T06:42:56Z</time>
      </trkpt>
      <trkpt lat="43.77873" lon="3.45181">
        <ele>773.6</ele>
        <time>2026-05-18T06:43:01Z</time>
      </trkpt>
      <trkpt lat="43.77868" lon="3.45171">
        <ele>772.9</ele>
        <time>2026-05-18T06:43:06Z</time>
      </trkpt>
      <trkpt lat="43.77865" lon="3.45163">
        <ele>772.8</ele>
        <time>2026-05-18T06:43:11Z</time>
      </trkpt>
      <trkpt lat="43.77861" lon="3.45155">
        <ele>773.2</ele>
        <time>2026-05-18T06:43:16Z</time>
      </trkpt>
      <trkpt lat="43.77856" lon="3.4515">
        <ele>773.4</ele>
        <time>2026-05-18T06:43:21Z</time>
      </trkpt>
      <trkpt lat="43.77852" lon="3.45145">
        <ele>773.6</ele>
        <time>2026-05-18T06:43:26Z</time>
      </trkpt>
      <trkpt lat="43.77847" lon="3.45137">
        <ele>774</ele>
        <time>2026-05-18T06:43:31Z</time>
      </trkpt>
      <trkpt lat="43.77842" lon="3.45128">
        <ele>774.6</ele>
        <time>2026-05-18T06:43:36Z</time>
      </trkpt>
      <trkpt lat="43.77836" lon="3.45122">
        <ele>774.8</ele>
        <time>2026-05-18T06:43:41Z</time>
      </trkpt>
      <trkpt lat="43.7783" lon="3.45117">
        <ele>775</ele>
        <time>2026-05-18T06:43:46Z</time>
      </trkpt>
      <trkpt lat="43.77824" lon="3.45113">
        <ele>774.9</ele>
        <time>2026-05-18T06:43:51Z</time>
      </trkpt>
      <trkpt lat="43.77819" lon="3.45107">
        <ele>775</ele>
        <time>2026-05-18T06:43:56Z</time>
      </trkpt>
      <trkpt lat="43.77816" lon="3.45097">
        <ele>775.5</ele>
        <time>2026-05-18T06:44:01Z</time>
      </trkpt>
      <trkpt lat="43.77812" lon="3.45093">
        <ele>775.5</ele>
        <time>2026-05-18T06:44:06Z</time>
      </trkpt>
      <trkpt lat="43.77806" lon="3.4509">
        <ele>775.2</ele>
        <time>2026-05-18T06:44:11Z</time>
      </trkpt>
      <trkpt lat="43.77802" lon="3.45088">
        <ele>775.1</ele>
        <time>2026-05-18T06:44:16Z</time>
      </trkpt>
      <trkpt lat="43.77798" lon="3.45085">
        <ele>774.9</ele>
        <time>2026-05-18T06:44:21Z</time>
      </trkpt>
      <trkpt lat="43.77794" lon="3.45082">
        <ele>774.8</ele>
        <time>2026-05-18T06:44:26Z</time>
      </trkpt>
      <trkpt lat="43.7779" lon="3.45078">
        <ele>774.7</ele>
        <time>2026-05-18T06:44:31Z</time>
      </trkpt>
      <trkpt lat="43.77786" lon="3.45075">
        <ele>774.5</ele>
        <time>2026-05-18T06:44:36Z</time>
      </trkpt>
      <trkpt lat="43.77783" lon="3.45071">
        <ele>774.5</ele>
        <time>2026-05-18T06:44:41Z</time>
      </trkpt>
      <trkpt lat="43.77779" lon="3.45067">
        <ele>774.5</ele>
        <time>2026-05-18T06:44:46Z</time>
      </trkpt>
      <trkpt lat="43.77775" lon="3.45065">
        <ele>774.3</ele>
        <time>2026-05-18T06:44:51Z</time>
      </trkpt>
      <trkpt lat="43.7777" lon="3.45064">
        <ele>774</ele>
        <time>2026-05-18T06:44:56Z</time>
      </trkpt>
      <trkpt lat="43.77765" lon="3.45061">
        <ele>773.8</ele>
        <time>2026-05-18T06:45:01Z</time>
      </trkpt>
      <trkpt lat="43.77758" lon="3.45058">
        <ele>773.4</ele>
        <time>2026-05-18T06:45:06Z</time>
      </trkpt>
      <trkpt lat="43.77752" lon="3.45055">
        <ele>773.2</ele>
        <time>2026-05-18T06:45:11Z</time>
      </trkpt>
      <trkpt lat="43.77746" lon="3.45051">
        <ele>773.1</ele>
        <time>2026-05-18T06:45:16Z</time>
      </trkpt>
      <trkpt lat="43.77741" lon="3.45044">
        <ele>773.3</ele>
        <time>2026-05-18T06:45:21Z</time>
      </trkpt>
      <trkpt lat="43.77737" lon="3.45038">
        <ele>773.5</ele>
        <time>2026-05-18T06:45:26Z</time>
      </trkpt>
      <trkpt lat="43.77732" lon="3.4503">
        <ele>773.8</ele>
        <time>2026-05-18T06:45:31Z</time>
      </trkpt>
      <trkpt lat="43.7773" lon="3.45023">
        <ele>774.1</ele>
        <time>2026-05-18T06:45:36Z</time>
      </trkpt>
      <trkpt lat="43.77728" lon="3.45014">
        <ele>774.7</ele>
        <time>2026-05-18T06:45:41Z</time>
      </trkpt>
      <trkpt lat="43.77728" lon="3.45005">
        <ele>775.3</ele>
        <time>2026-05-18T06:45:46Z</time>
      </trkpt>
      <trkpt lat="43.7773" lon="3.45">
        <ele>775.8</ele>
        <time>2026-05-18T06:45:51Z</time>
      </trkpt>
      <trkpt lat="43.77732" lon="3.44994">
        <ele>776.2</ele>
        <time>2026-05-18T06:45:56Z</time>
      </trkpt>
      <trkpt lat="43.77736" lon="3.44988">
        <ele>776.7</ele>
        <time>2026-05-18T06:46:01Z</time>
      </trkpt>
      <trkpt lat="43.77739" lon="3.44981">
        <ele>777.3</ele>
        <time>2026-05-18T06:46:06Z</time>
      </trkpt>
      <trkpt lat="43.77739" lon="3.44975">
        <ele>777.5</ele>
        <time>2026-05-18T06:46:11Z</time>
      </trkpt>
      <trkpt lat="43.7774" lon="3.44972">
        <ele>777.7</ele>
        <time>2026-05-18T06:46:16Z</time>
      </trkpt>
      <trkpt lat="43.7774" lon="3.44971">
        <ele>777.8</ele>
        <time>2026-05-18T06:46:21Z</time>
      </trkpt>
      <trkpt lat="43.7774" lon="3.44971">
        <ele>777.8</ele>
        <time>2026-05-18T06:46:26Z</time>
      </trkpt>
      <trkpt lat="43.77739" lon="3.44963">
        <ele>778.1</ele>
        <time>2026-05-18T06:46:31Z</time>
      </trkpt>
      <trkpt lat="43.77735" lon="3.44958">
        <ele>778.1</ele>
        <time>2026-05-18T06:46:36Z</time>
      </trkpt>
      <trkpt lat="43.77732" lon="3.44952">
        <ele>778.2</ele>
        <time>2026-05-18T06:46:41Z</time>
      </trkpt>
      <trkpt lat="43.77729" lon="3.44946">
        <ele>778.3</ele>
        <time>2026-05-18T06:46:46Z</time>
      </trkpt>
      <trkpt lat="43.77726" lon="3.44938">
        <ele>778.5</ele>
        <time>2026-05-18T06:46:51Z</time>
      </trkpt>
      <trkpt lat="43.77722" lon="3.44931">
        <ele>778.6</ele>
        <time>2026-05-18T06:46:56Z</time>
      </trkpt>
      <trkpt lat="43.77718" lon="3.44925">
        <ele>778.7</ele>
        <time>2026-05-18T06:47:01Z</time>
      </trkpt>
      <trkpt lat="43.77715" lon="3.44918">
        <ele>778.8</ele>
        <time>2026-05-18T06:47:06Z</time>
      </trkpt>
      <trkpt lat="43.77714" lon="3.44911">
        <ele>778.9</ele>
        <time>2026-05-18T06:47:11Z</time>
      </trkpt>
      <trkpt lat="43.77712" lon="3.44905">
        <ele>778.9</ele>
        <time>2026-05-18T06:47:16Z</time>
      </trkpt>
      <trkpt lat="43.7771" lon="3.44898">
        <ele>778.9</ele>
        <time>2026-05-18T06:47:21Z</time>
      </trkpt>
      <trkpt lat="43.77709" lon="3.44892">
        <ele>779</ele>
        <time>2026-05-18T06:47:26Z</time>
      </trkpt>
      <trkpt lat="43.77706" lon="3.44881">
        <ele>779</ele>
        <time>2026-05-18T06:47:31Z</time>
      </trkpt>
      <trkpt lat="43.77701" lon="3.44874">
        <ele>778.9</ele>
        <time>2026-05-18T06:47:36Z</time>
      </trkpt>
      <trkpt lat="43.77696" lon="3.44871">
        <ele>778.7</ele>
        <time>2026-05-18T06:47:41Z</time>
      </trkpt>
      <trkpt lat="43.7769" lon="3.44867">
        <ele>778.4</ele>
        <time>2026-05-18T06:47:46Z</time>
      </trkpt>
      <trkpt lat="43.77684" lon="3.44863">
        <ele>778.2</ele>
        <time>2026-05-18T06:47:51Z</time>
      </trkpt>
      <trkpt lat="43.77681" lon="3.44856">
        <ele>778.2</ele>
        <time>2026-05-18T06:47:56Z</time>
      </trkpt>
      <trkpt lat="43.77676" lon="3.4485">
        <ele>778.1</ele>
        <time>2026-05-18T06:48:01Z</time>
      </trkpt>
      <trkpt lat="43.7767" lon="3.44843">
        <ele>777.9</ele>
        <time>2026-05-18T06:48:06Z</time>
      </trkpt>
      <trkpt lat="43.77668" lon="3.44835">
        <ele>778</ele>
        <time>2026-05-18T06:48:11Z</time>
      </trkpt>
      <trkpt lat="43.77667" lon="3.44824">
        <ele>778</ele>
        <time>2026-05-18T06:48:16Z</time>
      </trkpt>
      <trkpt lat="43.77666" lon="3.44815">
        <ele>778</ele>
        <time>2026-05-18T06:48:21Z</time>
      </trkpt>
      <trkpt lat="43.77664" lon="3.44806">
        <ele>777.9</ele>
        <time>2026-05-18T06:48:26Z</time>
      </trkpt>
      <trkpt lat="43.77662" lon="3.44798">
        <ele>777.8</ele>
        <time>2026-05-18T06:48:31Z</time>
      </trkpt>
      <trkpt lat="43.77662" lon="3.44789">
        <ele>777.8</ele>
        <time>2026-05-18T06:48:36Z</time>
      </trkpt>
      <trkpt lat="43.77661" lon="3.44781">
        <ele>777.7</ele>
        <time>2026-05-18T06:48:41Z</time>
      </trkpt>
      <trkpt lat="43.77661" lon="3.44772">
        <ele>777.8</ele>
        <time>2026-05-18T06:48:46Z</time>
      </trkpt>
      <trkpt lat="43.77661" lon="3.44763">
        <ele>777.8</ele>
        <time>2026-05-18T06:48:51Z</time>
      </trkpt>
      <trkpt lat="43.7766" lon="3.44756">
        <ele>777.7</ele>
        <time>2026-05-18T06:48:56Z</time>
      </trkpt>
      <trkpt lat="43.77655" lon="3.44751">
        <ele>777.6</ele>
        <time>2026-05-18T06:49:01Z</time>
      </trkpt>
      <trkpt lat="43.77649" lon="3.44746">
        <ele>777.3</ele>
        <time>2026-05-18T06:49:06Z</time>
      </trkpt>
      <trkpt lat="43.77644" lon="3.4474">
        <ele>777.1</ele>
        <time>2026-05-18T06:49:11Z</time>
      </trkpt>
      <trkpt lat="43.77637" lon="3.44736">
        <ele>776.8</ele>
        <time>2026-05-18T06:49:16Z</time>
      </trkpt>
      <trkpt lat="43.77631" lon="3.44731">
        <ele>776.5</ele>
        <time>2026-05-18T06:49:21Z</time>
      </trkpt>
      <trkpt lat="43.77625" lon="3.44724">
        <ele>776.2</ele>
        <time>2026-05-18T06:49:26Z</time>
      </trkpt>
      <trkpt lat="43.7762" lon="3.44716">
        <ele>775.9</ele>
        <time>2026-05-18T06:49:31Z</time>
      </trkpt>
      <trkpt lat="43.77616" lon="3.44709">
        <ele>775.7</ele>
        <time>2026-05-18T06:49:36Z</time>
      </trkpt>
      <trkpt lat="43.77613" lon="3.44701">
        <ele>775.5</ele>
        <time>2026-05-18T06:49:41Z</time>
      </trkpt>
      <trkpt lat="43.77609" lon="3.44695">
        <ele>775.3</ele>
        <time>2026-05-18T06:49:46Z</time>
      </trkpt>
      <trkpt lat="43.77605" lon="3.44687">
        <ele>775</ele>
        <time>2026-05-18T06:49:51Z</time>
      </trkpt>
      <trkpt lat="43.77601" lon="3.44678">
        <ele>774.8</ele>
        <time>2026-05-18T06:49:56Z</time>
      </trkpt>
      <trkpt lat="43.77597" lon="3.4467">
        <ele>774.5</ele>
        <time>2026-05-18T06:50:01Z</time>
      </trkpt>
      <trkpt lat="43.77594" lon="3.44661">
        <ele>774.3</ele>
        <time>2026-05-18T06:50:06Z</time>
      </trkpt>
      <trkpt lat="43.7759" lon="3.44654">
        <ele>774</ele>
        <time>2026-05-18T06:50:11Z</time>
      </trkpt>
      <trkpt lat="43.7759" lon="3.44646">
        <ele>773.8</ele>
        <time>2026-05-18T06:50:16Z</time>
      </trkpt>
      <trkpt lat="43.7759" lon="3.44635">
        <ele>773.5</ele>
        <time>2026-05-18T06:50:21Z</time>
      </trkpt>
      <trkpt lat="43.77588" lon="3.44626">
        <ele>773.2</ele>
        <time>2026-05-18T06:50:26Z</time>
      </trkpt>
      <trkpt lat="43.77589" lon="3.44617">
        <ele>773.1</ele>
        <time>2026-05-18T06:50:31Z</time>
      </trkpt>
      <trkpt lat="43.77588" lon="3.44612">
        <ele>772.9</ele>
        <time>2026-05-18T06:50:36Z</time>
      </trkpt>
      <trkpt lat="43.77588" lon="3.44612">
        <ele>772.9</ele>
        <time>2026-05-18T06:50:41Z</time>
      </trkpt>
      <trkpt lat="43.77588" lon="3.44612">
        <ele>772.9</ele>
        <time>2026-05-18T06:50:46Z</time>
      </trkpt>
      <trkpt lat="43.77587" lon="3.44604">
        <ele>772.7</ele>
        <time>2026-05-18T06:50:51Z</time>
      </trkpt>
      <trkpt lat="43.77587" lon="3.44594">
        <ele>772.5</ele>
        <time>2026-05-18T06:50:56Z</time>
      </trkpt>
      <trkpt lat="43.77587" lon="3.44585">
        <ele>772.3</ele>
        <time>2026-05-18T06:51:01Z</time>
      </trkpt>
      <trkpt lat="43.77587" lon="3.44574">
        <ele>772.1</ele>
        <time>2026-05-18T06:51:06Z</time>
      </trkpt>
      <trkpt lat="43.77586" lon="3.44564">
        <ele>771.9</ele>
        <time>2026-05-18T06:51:11Z</time>
      </trkpt>
      <trkpt lat="43.77587" lon="3.44555">
        <ele>771.9</ele>
        <time>2026-05-18T06:51:16Z</time>
      </trkpt>
      <trkpt lat="43.77588" lon="3.44545">
        <ele>771.9</ele>
        <time>2026-05-18T06:51:21Z</time>
      </trkpt>
      <trkpt lat="43.77589" lon="3.44535">
        <ele>771.8</ele>
        <time>2026-05-18T06:51:26Z</time>
      </trkpt>
      <trkpt lat="43.7759" lon="3.44525">
        <ele>771.8</ele>
        <time>2026-05-18T06:51:31Z</time>
      </trkpt>
      <trkpt lat="43.77591" lon="3.44516">
        <ele>771.8</ele>
        <time>2026-05-18T06:51:36Z</time>
      </trkpt>
      <trkpt lat="43.77591" lon="3.44506">
        <ele>771.7</ele>
        <time>2026-05-18T06:51:41Z</time>
      </trkpt>
      <trkpt lat="43.77591" lon="3.44496">
        <ele>771.7</ele>
        <time>2026-05-18T06:51:46Z</time>
      </trkpt>
      <trkpt lat="43.77591" lon="3.44486">
        <ele>771.8</ele>
        <time>2026-05-18T06:51:51Z</time>
      </trkpt>
      <trkpt lat="43.77592" lon="3.44477">
        <ele>772</ele>
        <time>2026-05-18T06:51:56Z</time>
      </trkpt>
      <trkpt lat="43.77593" lon="3.44467">
        <ele>772.2</ele>
        <time>2026-05-18T06:52:01Z</time>
      </trkpt>
      <trkpt lat="43.77592" lon="3.44457">
        <ele>772.2</ele>
        <time>2026-05-18T06:52:06Z</time>
      </trkpt>
      <trkpt lat="43.77591" lon="3.44447">
        <ele>772.2</ele>
        <time>2026-05-18T06:52:11Z</time>
      </trkpt>
      <trkpt lat="43.77591" lon="3.44439">
        <ele>772.3</ele>
        <time>2026-05-18T06:52:16Z</time>
      </trkpt>
      <trkpt lat="43.77592" lon="3.44429">
        <ele>772.5</ele>
        <time>2026-05-18T06:52:21Z</time>
      </trkpt>
      <trkpt lat="43.77593" lon="3.44419">
        <ele>772.7</ele>
        <time>2026-05-18T06:52:26Z</time>
      </trkpt>
      <trkpt lat="43.77595" lon="3.4441">
        <ele>772.7</ele>
        <time>2026-05-18T06:52:31Z</time>
      </trkpt>
      <trkpt lat="43.77594" lon="3.444">
        <ele>772.4</ele>
        <time>2026-05-18T06:52:36Z</time>
      </trkpt>
      <trkpt lat="43.77593" lon="3.44391">
        <ele>772.1</ele>
        <time>2026-05-18T06:52:41Z</time>
      </trkpt>
      <trkpt lat="43.77593" lon="3.44382">
        <ele>771.9</ele>
        <time>2026-05-18T06:52:46Z</time>
      </trkpt>
      <trkpt lat="43.77593" lon="3.44373">
        <ele>771.6</ele>
        <time>2026-05-18T06:52:51Z</time>
      </trkpt>
      <trkpt lat="43.77592" lon="3.44362">
        <ele>771.3</ele>
        <time>2026-05-18T06:52:56Z</time>
      </trkpt>
      <trkpt lat="43.77594" lon="3.44351">
        <ele>771.2</ele>
        <time>2026-05-18T06:53:01Z</time>
      </trkpt>
      <trkpt lat="43.77594" lon="3.44343">
        <ele>771</ele>
        <time>2026-05-18T06:53:06Z</time>
      </trkpt>
      <trkpt lat="43.77593" lon="3.44334">
        <ele>770.7</ele>
        <time>2026-05-18T06:53:11Z</time>
      </trkpt>
      <trkpt lat="43.77589" lon="3.44328">
        <ele>770.3</ele>
        <time>2026-05-18T06:53:16Z</time>
      </trkpt>
      <trkpt lat="43.77587" lon="3.44317">
        <ele>769.9</ele>
        <time>2026-05-18T06:53:21Z</time>
      </trkpt>
      <trkpt lat="43.77587" lon="3.44306">
        <ele>769.6</ele>
        <time>2026-05-18T06:53:26Z</time>
      </trkpt>
      <trkpt lat="43.7759" lon="3.44297">
        <ele>769.6</ele>
        <time>2026-05-18T06:53:31Z</time>
      </trkpt>
      <trkpt lat="43.77592" lon="3.44287">
        <ele>769.6</ele>
        <time>2026-05-18T06:53:36Z</time>
      </trkpt>
      <trkpt lat="43.77593" lon="3.44277">
        <ele>769.4</ele>
        <time>2026-05-18T06:53:41Z</time>
      </trkpt>
      <trkpt lat="43.77591" lon="3.44267">
        <ele>769</ele>
        <time>2026-05-18T06:53:46Z</time>
      </trkpt>
      <trkpt lat="43.77589" lon="3.44257">
        <ele>768.6</ele>
        <time>2026-05-18T06:53:51Z</time>
      </trkpt>
      <trkpt lat="43.77585" lon="3.4425">
        <ele>768.1</ele>
        <time>2026-05-18T06:53:56Z</time>
      </trkpt>
      <trkpt lat="43.77582" lon="3.44241">
        <ele>768</ele>
        <time>2026-05-18T06:54:01Z</time>
      </trkpt>
      <trkpt lat="43.77577" lon="3.44234">
        <ele>768</ele>
        <time>2026-05-18T06:54:06Z</time>
      </trkpt>
      <trkpt lat="43.77573" lon="3.44225">
        <ele>768</ele>
        <time>2026-05-18T06:54:11Z</time>
      </trkpt>
      <trkpt lat="43.77572" lon="3.44217">
        <ele>767.9</ele>
        <time>2026-05-18T06:54:16Z</time>
      </trkpt>
      <trkpt lat="43.77571" lon="3.44215">
        <ele>767.9</ele>
        <time>2026-05-18T06:54:21Z</time>
      </trkpt>
      <trkpt lat="43.7757" lon="3.44209">
        <ele>767.8</ele>
        <time>2026-05-18T06:54:26Z</time>
      </trkpt>
      <trkpt lat="43.77568" lon="3.44202">
        <ele>767.6</ele>
        <time>2026-05-18T06:54:31Z</time>
      </trkpt>
      <trkpt lat="43.77568" lon="3.44201">
        <ele>767.6</ele>
        <time>2026-05-18T06:54:36Z</time>
      </trkpt>
      <trkpt lat="43.77566" lon="3.44197">
        <ele>767.5</ele>
        <time>2026-05-18T06:54:41Z</time>
      </trkpt>
      <trkpt lat="43.77564" lon="3.44189">
        <ele>767.3</ele>
        <time>2026-05-18T06:54:46Z</time>
      </trkpt>
      <trkpt lat="43.77562" lon="3.44182">
        <ele>767</ele>
        <time>2026-05-18T06:54:51Z</time>
      </trkpt>
      <trkpt lat="43.77559" lon="3.44174">
        <ele>766.7</ele>
        <time>2026-05-18T06:54:56Z</time>
      </trkpt>
      <trkpt lat="43.77558" lon="3.44165">
        <ele>766.5</ele>
        <time>2026-05-18T06:55:01Z</time>
      </trkpt>
      <trkpt lat="43.77553" lon="3.44156">
        <ele>766.3</ele>
        <time>2026-05-18T06:55:06Z</time>
      </trkpt>
      <trkpt lat="43.77551" lon="3.44148">
        <ele>766.2</ele>
        <time>2026-05-18T06:55:11Z</time>
      </trkpt>
      <trkpt lat="43.77548" lon="3.4414">
        <ele>766</ele>
        <time>2026-05-18T06:55:16Z</time>
      </trkpt>
      <trkpt lat="43.77546" lon="3.44132">
        <ele>765.9</ele>
        <time>2026-05-18T06:55:21Z</time>
      </trkpt>
      <trkpt lat="43.77543" lon="3.4412">
        <ele>765.6</ele>
        <time>2026-05-18T06:55:26Z</time>
      </trkpt>
      <trkpt lat="43.77539" lon="3.4411">
        <ele>765.2</ele>
        <time>2026-05-18T06:55:31Z</time>
      </trkpt>
      <trkpt lat="43.77535" lon="3.44103">
        <ele>764.7</ele>
        <time>2026-05-18T06:55:36Z</time>
      </trkpt>
      <trkpt lat="43.77531" lon="3.44096">
        <ele>764.2</ele>
        <time>2026-05-18T06:55:41Z</time>
      </trkpt>
      <trkpt lat="43.77528" lon="3.44088">
        <ele>763.8</ele>
        <time>2026-05-18T06:55:46Z</time>
      </trkpt>
      <trkpt lat="43.77521" lon="3.44082">
        <ele>762.8</ele>
        <time>2026-05-18T06:55:51Z</time>
      </trkpt>
      <trkpt lat="43.77515" lon="3.44074">
        <ele>762.1</ele>
        <time>2026-05-18T06:55:56Z</time>
      </trkpt>
      <trkpt lat="43.77509" lon="3.44069">
        <ele>761.3</ele>
        <time>2026-05-18T06:56:01Z</time>
      </trkpt>
      <trkpt lat="43.77503" lon="3.44064">
        <ele>760.4</ele>
        <time>2026-05-18T06:56:06Z</time>
      </trkpt>
      <trkpt lat="43.77497" lon="3.44059">
        <ele>759.9</ele>
        <time>2026-05-18T06:56:11Z</time>
      </trkpt>
      <trkpt lat="43.77492" lon="3.44054">
        <ele>759.8</ele>
        <time>2026-05-18T06:56:16Z</time>
      </trkpt>
      <trkpt lat="43.77487" lon="3.44046">
        <ele>759.7</ele>
        <time>2026-05-18T06:56:21Z</time>
      </trkpt>
      <trkpt lat="43.7748" lon="3.44038">
        <ele>759.3</ele>
        <time>2026-05-18T06:56:26Z</time>
      </trkpt>
      <trkpt lat="43.77475" lon="3.44031">
        <ele>759.1</ele>
        <time>2026-05-18T06:56:31Z</time>
      </trkpt>
      <trkpt lat="43.7747" lon="3.44023">
        <ele>758.7</ele>
        <time>2026-05-18T06:56:36Z</time>
      </trkpt>
      <trkpt lat="43.77466" lon="3.44014">
        <ele>758.3</ele>
        <time>2026-05-18T06:56:41Z</time>
      </trkpt>
      <trkpt lat="43.77464" lon="3.44006">
        <ele>758</ele>
        <time>2026-05-18T06:56:46Z</time>
      </trkpt>
      <trkpt lat="43.77461" lon="3.43996">
        <ele>757.5</ele>
        <time>2026-05-18T06:56:51Z</time>
      </trkpt>
      <trkpt lat="43.77458" lon="3.43987">
        <ele>756.9</ele>
        <time>2026-05-18T06:56:56Z</time>
      </trkpt>
      <trkpt lat="43.77457" lon="3.43978">
        <ele>756.3</ele>
        <time>2026-05-18T06:57:01Z</time>
      </trkpt>
      <trkpt lat="43.77457" lon="3.43969">
        <ele>755.9</ele>
        <time>2026-05-18T06:57:06Z</time>
      </trkpt>
      <trkpt lat="43.77457" lon="3.4396">
        <ele>755.5</ele>
        <time>2026-05-18T06:57:11Z</time>
      </trkpt>
      <trkpt lat="43.77456" lon="3.43957">
        <ele>755.2</ele>
        <time>2026-05-18T06:57:16Z</time>
      </trkpt>
      <trkpt lat="43.77456" lon="3.43957">
        <ele>755.2</ele>
        <time>2026-05-18T06:57:21Z</time>
      </trkpt>
      <trkpt lat="43.77456" lon="3.43957">
        <ele>755.2</ele>
        <time>2026-05-18T06:57:26Z</time>
      </trkpt>
      <trkpt lat="43.77456" lon="3.43957">
        <ele>755.2</ele>
        <time>2026-05-18T06:57:31Z</time>
      </trkpt>
      <trkpt lat="43.77456" lon="3.43957">
        <ele>755.2</ele>
        <time>2026-05-18T06:57:36Z</time>
      </trkpt>
      <trkpt lat="43.77456" lon="3.43957">
        <ele>755.2</ele>
        <time>2026-05-18T06:57:41Z</time>
      </trkpt>
      <trkpt lat="43.77456" lon="3.43957">
        <ele>755.2</ele>
        <time>2026-05-18T06:57:46Z</time>
      </trkpt>
      <trkpt lat="43.77456" lon="3.43957">
        <ele>755.2</ele>
        <time>2026-05-18T06:57:51Z</time>
      </trkpt>
      <trkpt lat="43.77456" lon="3.43957">
        <ele>755.2</ele>
        <time>2026-05-18T06:57:56Z</time>
      </trkpt>
      <trkpt lat="43.77456" lon="3.43957">
        <ele>755.2</ele>
        <time>2026-05-18T06:58:01Z</time>
      </trkpt>
      <trkpt lat="43.77456" lon="3.43957">
        <ele>755.2</ele>
        <time>2026-05-18T06:58:06Z</time>
      </trkpt>
      <trkpt lat="43.77456" lon="3.43957">
        <ele>755.2</ele>
        <time>2026-05-18T06:58:11Z</time>
      </trkpt>
      <trkpt lat="43.77456" lon="3.43957">
        <ele>755.2</ele>
        <time>2026-05-18T06:58:16Z</time>
      </trkpt>
      <trkpt lat="43.77458" lon="3.43946">
        <ele>754.9</ele>
        <time>2026-05-18T06:58:21Z</time>
      </trkpt>
      <trkpt lat="43.77459" lon="3.43943">
        <ele>754.8</ele>
        <time>2026-05-18T06:58:26Z</time>
      </trkpt>
      <trkpt lat="43.7746" lon="3.43932">
        <ele>754.4</ele>
        <time>2026-05-18T06:58:31Z</time>
      </trkpt>
      <trkpt lat="43.77463" lon="3.43922">
        <ele>754.2</ele>
        <time>2026-05-18T06:58:36Z</time>
      </trkpt>
      <trkpt lat="43.77465" lon="3.43914">
        <ele>754</ele>
        <time>2026-05-18T06:58:41Z</time>
      </trkpt>
      <trkpt lat="43.77468" lon="3.43906">
        <ele>753.8</ele>
        <time>2026-05-18T06:58:46Z</time>
      </trkpt>
      <trkpt lat="43.7747" lon="3.43897">
        <ele>753.3</ele>
        <time>2026-05-18T06:58:51Z</time>
      </trkpt>
      <trkpt lat="43.77474" lon="3.43889">
        <ele>753.2</ele>
        <time>2026-05-18T06:58:56Z</time>
      </trkpt>
      <trkpt lat="43.77477" lon="3.4388">
        <ele>753</ele>
        <time>2026-05-18T06:59:01Z</time>
      </trkpt>
      <trkpt lat="43.77479" lon="3.43872">
        <ele>752.6</ele>
        <time>2026-05-18T06:59:06Z</time>
      </trkpt>
      <trkpt lat="43.77482" lon="3.43863">
        <ele>752.4</ele>
        <time>2026-05-18T06:59:11Z</time>
      </trkpt>
      <trkpt lat="43.77484" lon="3.43858">
        <ele>752.3</ele>
        <time>2026-05-18T06:59:16Z</time>
      </trkpt>
      <trkpt lat="43.77484" lon="3.43857">
        <ele>752.3</ele>
        <time>2026-05-18T06:59:21Z</time>
      </trkpt>
      <trkpt lat="43.77487" lon="3.4385">
        <ele>752.2</ele>
        <time>2026-05-18T06:59:26Z</time>
      </trkpt>
      <trkpt lat="43.7749" lon="3.43841">
        <ele>752.1</ele>
        <time>2026-05-18T06:59:31Z</time>
      </trkpt>
      <trkpt lat="43.77494" lon="3.43832">
        <ele>752.1</ele>
        <time>2026-05-18T06:59:36Z</time>
      </trkpt>
      <trkpt lat="43.77498" lon="3.43824">
        <ele>752.2</ele>
        <time>2026-05-18T06:59:41Z</time>
      </trkpt>
      <trkpt lat="43.775" lon="3.43819">
        <ele>752.1</ele>
        <time>2026-05-18T06:59:46Z</time>
      </trkpt>
      <trkpt lat="43.775" lon="3.43817">
        <ele>752</ele>
        <time>2026-05-18T06:59:51Z</time>
      </trkpt>
      <trkpt lat="43.775" lon="3.43816">
        <ele>752</ele>
        <time>2026-05-18T06:59:56Z</time>
      </trkpt>
      <trkpt lat="43.775" lon="3.43816">
        <ele>752</ele>
        <time>2026-05-18T07:00:01Z</time>
      </trkpt>
      <trkpt lat="43.775" lon="3.43816">
        <ele>752</ele>
        <time>2026-05-18T07:00:06Z</time>
      </trkpt>
      <trkpt lat="43.775" lon="3.43816">
        <ele>752</ele>
        <time>2026-05-18T07:00:11Z</time>
      </trkpt>
      <trkpt lat="43.77501" lon="3.43818">
        <ele>752.2</ele>
        <time>2026-05-18T07:00:16Z</time>
      </trkpt>
      <trkpt lat="43.77509" lon="3.43812">
        <ele>753</ele>
        <time>2026-05-18T07:00:21Z</time>
      </trkpt>
      <trkpt lat="43.77516" lon="3.43808">
        <ele>753.6</ele>
        <time>2026-05-18T07:00:26Z</time>
      </trkpt>
      <trkpt lat="43.77523" lon="3.43804">
        <ele>754.2</ele>
        <time>2026-05-18T07:00:31Z</time>
      </trkpt>
      <trkpt lat="43.77531" lon="3.438">
        <ele>754.9</ele>
        <time>2026-05-18T07:00:36Z</time>
      </trkpt>
      <trkpt lat="43.77537" lon="3.43796">
        <ele>755.3</ele>
        <time>2026-05-18T07:00:41Z</time>
      </trkpt>
      <trkpt lat="43.77545" lon="3.43792">
        <ele>755.9</ele>
        <time>2026-05-18T07:00:46Z</time>
      </trkpt>
      <trkpt lat="43.7755" lon="3.43788">
        <ele>756.1</ele>
        <time>2026-05-18T07:00:51Z</time>
      </trkpt>
      <trkpt lat="43.77557" lon="3.43779">
        <ele>756</ele>
        <time>2026-05-18T07:00:56Z</time>
      </trkpt>
      <trkpt lat="43.77562" lon="3.43771">
        <ele>755.6</ele>
        <time>2026-05-18T07:01:01Z</time>
      </trkpt>
      <trkpt lat="43.77567" lon="3.43763">
        <ele>755.2</ele>
        <time>2026-05-18T07:01:06Z</time>
      </trkpt>
      <trkpt lat="43.77572" lon="3.43755">
        <ele>754.7</ele>
        <time>2026-05-18T07:01:11Z</time>
      </trkpt>
      <trkpt lat="43.77576" lon="3.43747">
        <ele>754.3</ele>
        <time>2026-05-18T07:01:16Z</time>
      </trkpt>
      <trkpt lat="43.7758" lon="3.43738">
        <ele>754.5</ele>
        <time>2026-05-18T07:01:21Z</time>
      </trkpt>
      <trkpt lat="43.77585" lon="3.43731">
        <ele>754.7</ele>
        <time>2026-05-18T07:01:26Z</time>
      </trkpt>
      <trkpt lat="43.7759" lon="3.43723">
        <ele>755.1</ele>
        <time>2026-05-18T07:01:31Z</time>
      </trkpt>
      <trkpt lat="43.77595" lon="3.43716">
        <ele>755.5</ele>
        <time>2026-05-18T07:01:36Z</time>
      </trkpt>
      <trkpt lat="43.776" lon="3.43706">
        <ele>755.7</ele>
        <time>2026-05-18T07:01:41Z</time>
      </trkpt>
      <trkpt lat="43.77603" lon="3.43697">
        <ele>755.7</ele>
        <time>2026-05-18T07:01:46Z</time>
      </trkpt>
      <trkpt lat="43.77608" lon="3.43689">
        <ele>755.9</ele>
        <time>2026-05-18T07:01:51Z</time>
      </trkpt>
      <trkpt lat="43.77614" lon="3.4368">
        <ele>756.1</ele>
        <time>2026-05-18T07:01:56Z</time>
      </trkpt>
      <trkpt lat="43.77619" lon="3.43672">
        <ele>756.2</ele>
        <time>2026-05-18T07:02:01Z</time>
      </trkpt>
      <trkpt lat="43.77624" lon="3.43664">
        <ele>756.5</ele>
        <time>2026-05-18T07:02:06Z</time>
      </trkpt>
      <trkpt lat="43.77629" lon="3.43656">
        <ele>757.3</ele>
        <time>2026-05-18T07:02:11Z</time>
      </trkpt>
      <trkpt lat="43.77634" lon="3.43649">
        <ele>758</ele>
        <time>2026-05-18T07:02:16Z</time>
      </trkpt>
      <trkpt lat="43.77639" lon="3.43642">
        <ele>758.7</ele>
        <time>2026-05-18T07:02:21Z</time>
      </trkpt>
      <trkpt lat="43.77644" lon="3.43634">
        <ele>759.3</ele>
        <time>2026-05-18T07:02:26Z</time>
      </trkpt>
      <trkpt lat="43.77648" lon="3.43624">
        <ele>759.9</ele>
        <time>2026-05-18T07:02:31Z</time>
      </trkpt>
      <trkpt lat="43.77648" lon="3.43615">
        <ele>760.2</ele>
        <time>2026-05-18T07:02:36Z</time>
      </trkpt>
      <trkpt lat="43.77644" lon="3.43606">
        <ele>760.3</ele>
        <time>2026-05-18T07:02:41Z</time>
      </trkpt>
      <trkpt lat="43.77638" lon="3.43604">
        <ele>760.1</ele>
        <time>2026-05-18T07:02:46Z</time>
      </trkpt>
      <trkpt lat="43.77631" lon="3.43603">
        <ele>759.8</ele>
        <time>2026-05-18T07:02:51Z</time>
      </trkpt>
      <trkpt lat="43.77624" lon="3.43605">
        <ele>759.4</ele>
        <time>2026-05-18T07:02:56Z</time>
      </trkpt>
      <trkpt lat="43.77617" lon="3.43606">
        <ele>759</ele>
        <time>2026-05-18T07:03:01Z</time>
      </trkpt>
      <trkpt lat="43.77611" lon="3.43606">
        <ele>758.7</ele>
        <time>2026-05-18T07:03:06Z</time>
      </trkpt>
      <trkpt lat="43.77603" lon="3.43608">
        <ele>758.2</ele>
        <time>2026-05-18T07:03:11Z</time>
      </trkpt>
      <trkpt lat="43.77596" lon="3.43608">
        <ele>757.9</ele>
        <time>2026-05-18T07:03:16Z</time>
      </trkpt>
      <trkpt lat="43.77588" lon="3.4361">
        <ele>757.3</ele>
        <time>2026-05-18T07:03:21Z</time>
      </trkpt>
      <trkpt lat="43.77585" lon="3.4361">
        <ele>757.2</ele>
        <time>2026-05-18T07:03:26Z</time>
      </trkpt>
      <trkpt lat="43.77581" lon="3.43608">
        <ele>757.2</ele>
        <time>2026-05-18T07:03:31Z</time>
      </trkpt>
      <trkpt lat="43.77573" lon="3.43606">
        <ele>757.3</ele>
        <time>2026-05-18T07:03:36Z</time>
      </trkpt>
      <trkpt lat="43.77566" lon="3.43603">
        <ele>757.4</ele>
        <time>2026-05-18T07:03:41Z</time>
      </trkpt>
      <trkpt lat="43.7756" lon="3.436">
        <ele>757.6</ele>
        <time>2026-05-18T07:03:46Z</time>
      </trkpt>
      <trkpt lat="43.77554" lon="3.43594">
        <ele>758.1</ele>
        <time>2026-05-18T07:03:51Z</time>
      </trkpt>
      <trkpt lat="43.77548" lon="3.43589">
        <ele>758.5</ele>
        <time>2026-05-18T07:03:56Z</time>
      </trkpt>
      <trkpt lat="43.77542" lon="3.43583">
        <ele>759</ele>
        <time>2026-05-18T07:04:01Z</time>
      </trkpt>
      <trkpt lat="43.77535" lon="3.43578">
        <ele>759.2</ele>
        <time>2026-05-18T07:04:06Z</time>
      </trkpt>
      <trkpt lat="43.77529" lon="3.43573">
        <ele>759.5</ele>
        <time>2026-05-18T07:04:11Z</time>
      </trkpt>
      <trkpt lat="43.77521" lon="3.43573">
        <ele>759.5</ele>
        <time>2026-05-18T07:04:16Z</time>
      </trkpt>
      <trkpt lat="43.77512" lon="3.43572">
        <ele>759.5</ele>
        <time>2026-05-18T07:04:21Z</time>
      </trkpt>
      <trkpt lat="43.77505" lon="3.43572">
        <ele>759.5</ele>
        <time>2026-05-18T07:04:26Z</time>
      </trkpt>
      <trkpt lat="43.77498" lon="3.43575">
        <ele>759.2</ele>
        <time>2026-05-18T07:04:31Z</time>
      </trkpt>
      <trkpt lat="43.77491" lon="3.43577">
        <ele>758.5</ele>
        <time>2026-05-18T07:04:36Z</time>
      </trkpt>
      <trkpt lat="43.77484" lon="3.43579">
        <ele>757.9</ele>
        <time>2026-05-18T07:04:41Z</time>
      </trkpt>
      <trkpt lat="43.77478" lon="3.43582">
        <ele>757.2</ele>
        <time>2026-05-18T07:04:46Z</time>
      </trkpt>
      <trkpt lat="43.77471" lon="3.43583">
        <ele>756.6</ele>
        <time>2026-05-18T07:04:51Z</time>
      </trkpt>
      <trkpt lat="43.77463" lon="3.43582">
        <ele>755.9</ele>
        <time>2026-05-18T07:04:56Z</time>
      </trkpt>
      <trkpt lat="43.77456" lon="3.4358">
        <ele>755.4</ele>
        <time>2026-05-18T07:05:01Z</time>
      </trkpt>
      <trkpt lat="43.77449" lon="3.43576">
        <ele>755</ele>
        <time>2026-05-18T07:05:06Z</time>
      </trkpt>
      <trkpt lat="43.77443" lon="3.43571">
        <ele>754.7</ele>
        <time>2026-05-18T07:05:11Z</time>
      </trkpt>
      <trkpt lat="43.77437" lon="3.43565">
        <ele>754.4</ele>
        <time>2026-05-18T07:05:16Z</time>
      </trkpt>
      <trkpt lat="43.77432" lon="3.43558">
        <ele>754.3</ele>
        <time>2026-05-18T07:05:21Z</time>
      </trkpt>
      <trkpt lat="43.77426" lon="3.43551">
        <ele>754</ele>
        <time>2026-05-18T07:05:26Z</time>
      </trkpt>
      <trkpt lat="43.7742" lon="3.43544">
        <ele>753.7</ele>
        <time>2026-05-18T07:05:31Z</time>
      </trkpt>
      <trkpt lat="43.77414" lon="3.43536">
        <ele>753.4</ele>
        <time>2026-05-18T07:05:36Z</time>
      </trkpt>
      <trkpt lat="43.77409" lon="3.43527">
        <ele>753</ele>
        <time>2026-05-18T07:05:41Z</time>
      </trkpt>
      <trkpt lat="43.77404" lon="3.43519">
        <ele>752.7</ele>
        <time>2026-05-18T07:05:46Z</time>
      </trkpt>
      <trkpt lat="43.77399" lon="3.43511">
        <ele>752.4</ele>
        <time>2026-05-18T07:05:51Z</time>
      </trkpt>
      <trkpt lat="43.77394" lon="3.43504">
        <ele>752.1</ele>
        <time>2026-05-18T07:05:56Z</time>
      </trkpt>
      <trkpt lat="43.77392" lon="3.43502">
        <ele>752</ele>
        <time>2026-05-18T07:06:01Z</time>
      </trkpt>
      <trkpt lat="43.77391" lon="3.435">
        <ele>751.9</ele>
        <time>2026-05-18T07:06:06Z</time>
      </trkpt>
      <trkpt lat="43.77388" lon="3.43493">
        <ele>752.1</ele>
        <time>2026-05-18T07:06:11Z</time>
      </trkpt>
      <trkpt lat="43.77385" lon="3.43488">
        <ele>752.1</ele>
        <time>2026-05-18T07:06:16Z</time>
      </trkpt>
      <trkpt lat="43.77382" lon="3.43482">
        <ele>752.2</ele>
        <time>2026-05-18T07:06:21Z</time>
      </trkpt>
      <trkpt lat="43.77377" lon="3.43475">
        <ele>752.2</ele>
        <time>2026-05-18T07:06:26Z</time>
      </trkpt>
      <trkpt lat="43.77374" lon="3.43468">
        <ele>752.4</ele>
        <time>2026-05-18T07:06:31Z</time>
      </trkpt>
      <trkpt lat="43.77369" lon="3.43462">
        <ele>752.3</ele>
        <time>2026-05-18T07:06:36Z</time>
      </trkpt>
      <trkpt lat="43.77364" lon="3.43457">
        <ele>752.2</ele>
        <time>2026-05-18T07:06:41Z</time>
      </trkpt>
      <trkpt lat="43.77361" lon="3.43451">
        <ele>752.4</ele>
        <time>2026-05-18T07:06:46Z</time>
      </trkpt>
      <trkpt lat="43.77355" lon="3.43447">
        <ele>752.2</ele>
        <time>2026-05-18T07:06:51Z</time>
      </trkpt>
      <trkpt lat="43.77351" lon="3.43445">
        <ele>752</ele>
        <time>2026-05-18T07:06:56Z</time>
      </trkpt>
      <trkpt lat="43.77351" lon="3.43444">
        <ele>752.1</ele>
        <time>2026-05-18T07:07:01Z</time>
      </trkpt>
      <trkpt lat="43.7735" lon="3.43443">
        <ele>752.1</ele>
        <time>2026-05-18T07:07:06Z</time>
      </trkpt>
      <trkpt lat="43.7735" lon="3.43443">
        <ele>752.1</ele>
        <time>2026-05-18T07:07:11Z</time>
      </trkpt>
      <trkpt lat="43.7735" lon="3.43443">
        <ele>752.1</ele>
        <time>2026-05-18T07:07:16Z</time>
      </trkpt>
      <trkpt lat="43.7735" lon="3.43443">
        <ele>752.1</ele>
        <time>2026-05-18T07:07:21Z</time>
      </trkpt>
      <trkpt lat="43.7735" lon="3.43443">
        <ele>752.1</ele>
        <time>2026-05-18T07:07:26Z</time>
      </trkpt>
      <trkpt lat="43.7735" lon="3.43443">
        <ele>752.1</ele>
        <time>2026-05-18T07:07:31Z</time>
      </trkpt>
      <trkpt lat="43.77346" lon="3.43441">
        <ele>751.9</ele>
        <time>2026-05-18T07:07:36Z</time>
      </trkpt>
      <trkpt lat="43.77341" lon="3.43439">
        <ele>751.6</ele>
        <time>2026-05-18T07:07:41Z</time>
      </trkpt>
      <trkpt lat="43.77337" lon="3.43436">
        <ele>751.5</ele>
        <time>2026-05-18T07:07:46Z</time>
      </trkpt>
      <trkpt lat="43.77334" lon="3.43431">
        <ele>751.7</ele>
        <time>2026-05-18T07:07:51Z</time>
      </trkpt>
      <trkpt lat="43.77331" lon="3.43424">
        <ele>752</ele>
        <time>2026-05-18T07:07:56Z</time>
      </trkpt>
      <trkpt lat="43.77326" lon="3.43418">
        <ele>752.1</ele>
        <time>2026-05-18T07:08:01Z</time>
      </trkpt>
      <trkpt lat="43.77323" lon="3.43413">
        <ele>752.1</ele>
        <time>2026-05-18T07:08:06Z</time>
      </trkpt>
      <trkpt lat="43.7732" lon="3.43409">
        <ele>751.9</ele>
        <time>2026-05-18T07:08:11Z</time>
      </trkpt>
      <trkpt lat="43.77317" lon="3.43407">
        <ele>751.7</ele>
        <time>2026-05-18T07:08:16Z</time>
      </trkpt>
      <trkpt lat="43.77317" lon="3.43407">
        <ele>751.7</ele>
        <time>2026-05-18T07:08:21Z</time>
      </trkpt>
      <trkpt lat="43.77317" lon="3.43407">
        <ele>751.7</ele>
        <time>2026-05-18T07:08:26Z</time>
      </trkpt>
      <trkpt lat="43.77317" lon="3.43407">
        <ele>751.7</ele>
        <time>2026-05-18T07:08:31Z</time>
      </trkpt>
      <trkpt lat="43.77317" lon="3.43407">
        <ele>751.7</ele>
        <time>2026-05-18T07:08:36Z</time>
      </trkpt>
      <trkpt lat="43.77315" lon="3.43402">
        <ele>751.8</ele>
        <time>2026-05-18T07:08:41Z</time>
      </trkpt>
      <trkpt lat="43.77311" lon="3.43396">
        <ele>751.6</ele>
        <time>2026-05-18T07:08:46Z</time>
      </trkpt>
      <trkpt lat="43.77308" lon="3.4339">
        <ele>751.6</ele>
        <time>2026-05-18T07:08:51Z</time>
      </trkpt>
      <trkpt lat="43.77304" lon="3.43386">
        <ele>751.4</ele>
        <time>2026-05-18T07:08:56Z</time>
      </trkpt>
      <trkpt lat="43.773" lon="3.43382">
        <ele>751.2</ele>
        <time>2026-05-18T07:09:01Z</time>
      </trkpt>
      <trkpt lat="43.77299" lon="3.43376">
        <ele>751.4</ele>
        <time>2026-05-18T07:09:06Z</time>
      </trkpt>
      <trkpt lat="43.77298" lon="3.43375">
        <ele>751.4</ele>
        <time>2026-05-18T07:09:11Z</time>
      </trkpt>
      <trkpt lat="43.77298" lon="3.43375">
        <ele>751.4</ele>
        <time>2026-05-18T07:09:16Z</time>
      </trkpt>
      <trkpt lat="43.77297" lon="3.43369">
        <ele>751.6</ele>
        <time>2026-05-18T07:09:21Z</time>
      </trkpt>
      <trkpt lat="43.77295" lon="3.43363">
        <ele>751.7</ele>
        <time>2026-05-18T07:09:26Z</time>
      </trkpt>
      <trkpt lat="43.77291" lon="3.43357">
        <ele>751.7</ele>
        <time>2026-05-18T07:09:31Z</time>
      </trkpt>
      <trkpt lat="43.77284" lon="3.43351">
        <ele>751.3</ele>
        <time>2026-05-18T07:09:36Z</time>
      </trkpt>
      <trkpt lat="43.7728" lon="3.43343">
        <ele>751.3</ele>
        <time>2026-05-18T07:09:41Z</time>
      </trkpt>
      <trkpt lat="43.77278" lon="3.43336">
        <ele>751.5</ele>
        <time>2026-05-18T07:09:46Z</time>
      </trkpt>
      <trkpt lat="43.77273" lon="3.43329">
        <ele>751</ele>
        <time>2026-05-18T07:09:51Z</time>
      </trkpt>
      <trkpt lat="43.77269" lon="3.43318">
        <ele>750.1</ele>
        <time>2026-05-18T07:09:56Z</time>
      </trkpt>
      <trkpt lat="43.77265" lon="3.43309">
        <ele>749.3</ele>
        <time>2026-05-18T07:10:01Z</time>
      </trkpt>
      <trkpt lat="43.77261" lon="3.43298">
        <ele>748.4</ele>
        <time>2026-05-18T07:10:06Z</time>
      </trkpt>
      <trkpt lat="43.77259" lon="3.43291">
        <ele>747.9</ele>
        <time>2026-05-18T07:10:11Z</time>
      </trkpt>
      <trkpt lat="43.77258" lon="3.43281">
        <ele>747.3</ele>
        <time>2026-05-18T07:10:16Z</time>
      </trkpt>
      <trkpt lat="43.77258" lon="3.43272">
        <ele>746.9</ele>
        <time>2026-05-18T07:10:21Z</time>
      </trkpt>
      <trkpt lat="43.77257" lon="3.43262">
        <ele>746.3</ele>
        <time>2026-05-18T07:10:26Z</time>
      </trkpt>
      <trkpt lat="43.77256" lon="3.43251">
        <ele>745.7</ele>
        <time>2026-05-18T07:10:31Z</time>
      </trkpt>
      <trkpt lat="43.77255" lon="3.4324">
        <ele>744.6</ele>
        <time>2026-05-18T07:10:36Z</time>
      </trkpt>
      <trkpt lat="43.77255" lon="3.43229">
        <ele>743.6</ele>
        <time>2026-05-18T07:10:41Z</time>
      </trkpt>
      <trkpt lat="43.77256" lon="3.43219">
        <ele>742.7</ele>
        <time>2026-05-18T07:10:46Z</time>
      </trkpt>
      <trkpt lat="43.77258" lon="3.43208">
        <ele>741.9</ele>
        <time>2026-05-18T07:10:51Z</time>
      </trkpt>
      <trkpt lat="43.77263" lon="3.43199">
        <ele>741.7</ele>
        <time>2026-05-18T07:10:56Z</time>
      </trkpt>
      <trkpt lat="43.77268" lon="3.43193">
        <ele>741.8</ele>
        <time>2026-05-18T07:11:01Z</time>
      </trkpt>
      <trkpt lat="43.77274" lon="3.43186">
        <ele>741.9</ele>
        <time>2026-05-18T07:11:06Z</time>
      </trkpt>
      <trkpt lat="43.77282" lon="3.43181">
        <ele>742.5</ele>
        <time>2026-05-18T07:11:11Z</time>
      </trkpt>
      <trkpt lat="43.77287" lon="3.43178">
        <ele>742.9</ele>
        <time>2026-05-18T07:11:16Z</time>
      </trkpt>
      <trkpt lat="43.77294" lon="3.43177">
        <ele>743.7</ele>
        <time>2026-05-18T07:11:21Z</time>
      </trkpt>
      <trkpt lat="43.77301" lon="3.43175">
        <ele>744.4</ele>
        <time>2026-05-18T07:11:26Z</time>
      </trkpt>
      <trkpt lat="43.77309" lon="3.43172">
        <ele>745.2</ele>
        <time>2026-05-18T07:11:31Z</time>
      </trkpt>
      <trkpt lat="43.77316" lon="3.43168">
        <ele>745.8</ele>
        <time>2026-05-18T07:11:36Z</time>
      </trkpt>
      <trkpt lat="43.77323" lon="3.43162">
        <ele>746.1</ele>
        <time>2026-05-18T07:11:41Z</time>
      </trkpt>
      <trkpt lat="43.77328" lon="3.43153">
        <ele>745.7</ele>
        <time>2026-05-18T07:11:46Z</time>
      </trkpt>
      <trkpt lat="43.77333" lon="3.43145">
        <ele>745.4</ele>
        <time>2026-05-18T07:11:51Z</time>
      </trkpt>
      <trkpt lat="43.77338" lon="3.43138">
        <ele>744.8</ele>
        <time>2026-05-18T07:11:56Z</time>
      </trkpt>
      <trkpt lat="43.77343" lon="3.4313">
        <ele>744</ele>
        <time>2026-05-18T07:12:01Z</time>
      </trkpt>
      <trkpt lat="43.77348" lon="3.4312">
        <ele>743</ele>
        <time>2026-05-18T07:12:06Z</time>
      </trkpt>
      <trkpt lat="43.77353" lon="3.43111">
        <ele>742.1</ele>
        <time>2026-05-18T07:12:11Z</time>
      </trkpt>
      <trkpt lat="43.77358" lon="3.43104">
        <ele>741.4</ele>
        <time>2026-05-18T07:12:16Z</time>
      </trkpt>
      <trkpt lat="43.77363" lon="3.43097">
        <ele>740.8</ele>
        <time>2026-05-18T07:12:21Z</time>
      </trkpt>
      <trkpt lat="43.77368" lon="3.43089">
        <ele>740</ele>
        <time>2026-05-18T07:12:26Z</time>
      </trkpt>
      <trkpt lat="43.77371" lon="3.43082">
        <ele>739.3</ele>
        <time>2026-05-18T07:12:31Z</time>
      </trkpt>
      <trkpt lat="43.77374" lon="3.43075">
        <ele>738.8</ele>
        <time>2026-05-18T07:12:36Z</time>
      </trkpt>
      <trkpt lat="43.77374" lon="3.43073">
        <ele>738.7</ele>
        <time>2026-05-18T07:12:41Z</time>
      </trkpt>
      <trkpt lat="43.77374" lon="3.43073">
        <ele>738.7</ele>
        <time>2026-05-18T07:12:46Z</time>
      </trkpt>
      <trkpt lat="43.77374" lon="3.43073">
        <ele>738.7</ele>
        <time>2026-05-18T07:12:51Z</time>
      </trkpt>
      <trkpt lat="43.77375" lon="3.43075">
        <ele>738.9</ele>
        <time>2026-05-18T07:12:56Z</time>
      </trkpt>
      <trkpt lat="43.7738" lon="3.43069">
        <ele>738.6</ele>
        <time>2026-05-18T07:13:01Z</time>
      </trkpt>
      <trkpt lat="43.77381" lon="3.43067">
        <ele>738.4</ele>
        <time>2026-05-18T07:13:06Z</time>
      </trkpt>
      <trkpt lat="43.77384" lon="3.43062">
        <ele>738.1</ele>
        <time>2026-05-18T07:13:11Z</time>
      </trkpt>
      <trkpt lat="43.77389" lon="3.43057">
        <ele>737.9</ele>
        <time>2026-05-18T07:13:16Z</time>
      </trkpt>
      <trkpt lat="43.77396" lon="3.4305">
        <ele>737.6</ele>
        <time>2026-05-18T07:13:21Z</time>
      </trkpt>
      <trkpt lat="43.77401" lon="3.43043">
        <ele>737.1</ele>
        <time>2026-05-18T07:13:26Z</time>
      </trkpt>
      <trkpt lat="43.77406" lon="3.43036">
        <ele>736.7</ele>
        <time>2026-05-18T07:13:31Z</time>
      </trkpt>
      <trkpt lat="43.77411" lon="3.43028">
        <ele>736.2</ele>
        <time>2026-05-18T07:13:36Z</time>
      </trkpt>
      <trkpt lat="43.77416" lon="3.4302">
        <ele>735.7</ele>
        <time>2026-05-18T07:13:41Z</time>
      </trkpt>
      <trkpt lat="43.77421" lon="3.43011">
        <ele>735.2</ele>
        <time>2026-05-18T07:13:46Z</time>
      </trkpt>
      <trkpt lat="43.77426" lon="3.43002">
        <ele>734.7</ele>
        <time>2026-05-18T07:13:51Z</time>
      </trkpt>
      <trkpt lat="43.77428" lon="3.42992">
        <ele>734.3</ele>
        <time>2026-05-18T07:13:56Z</time>
      </trkpt>
      <trkpt lat="43.7743" lon="3.42983">
        <ele>733.9</ele>
        <time>2026-05-18T07:14:01Z</time>
      </trkpt>
      <trkpt lat="43.77433" lon="3.42972">
        <ele>733.5</ele>
        <time>2026-05-18T07:14:06Z</time>
      </trkpt>
      <trkpt lat="43.77435" lon="3.42962">
        <ele>733.1</ele>
        <time>2026-05-18T07:14:11Z</time>
      </trkpt>
      <trkpt lat="43.77438" lon="3.42952">
        <ele>732.7</ele>
        <time>2026-05-18T07:14:16Z</time>
      </trkpt>
      <trkpt lat="43.77441" lon="3.42947">
        <ele>732.5</ele>
        <time>2026-05-18T07:14:21Z</time>
      </trkpt>
      <trkpt lat="43.7744" lon="3.42945">
        <ele>732.4</ele>
        <time>2026-05-18T07:14:26Z</time>
      </trkpt>
      <trkpt lat="43.77439" lon="3.42945">
        <ele>732.3</ele>
        <time>2026-05-18T07:14:31Z</time>
      </trkpt>
      <trkpt lat="43.77439" lon="3.42945">
        <ele>732.3</ele>
        <time>2026-05-18T07:14:36Z</time>
      </trkpt>
      <trkpt lat="43.77439" lon="3.42945">
        <ele>732.3</ele>
        <time>2026-05-18T07:14:41Z</time>
      </trkpt>
      <trkpt lat="43.77439" lon="3.42945">
        <ele>732.3</ele>
        <time>2026-05-18T07:14:46Z</time>
      </trkpt>
      <trkpt lat="43.77439" lon="3.42945">
        <ele>732.3</ele>
        <time>2026-05-18T07:14:51Z</time>
      </trkpt>
      <trkpt lat="43.77439" lon="3.42945">
        <ele>732.3</ele>
        <time>2026-05-18T07:14:56Z</time>
      </trkpt>
      <trkpt lat="43.77439" lon="3.42945">
        <ele>732.3</ele>
        <time>2026-05-18T07:15:01Z</time>
      </trkpt>
      <trkpt lat="43.77439" lon="3.42945">
        <ele>732.3</ele>
        <time>2026-05-18T07:15:06Z</time>
      </trkpt>
      <trkpt lat="43.77439" lon="3.42945">
        <ele>732.3</ele>
        <time>2026-05-18T07:15:11Z</time>
      </trkpt>
      <trkpt lat="43.77439" lon="3.42945">
        <ele>732.3</ele>
        <time>2026-05-18T07:15:16Z</time>
      </trkpt>
      <trkpt lat="43.77439" lon="3.42945">
        <ele>732.3</ele>
        <time>2026-05-18T07:15:21Z</time>
      </trkpt>
      <trkpt lat="43.77439" lon="3.42945">
        <ele>732.3</ele>
        <time>2026-05-18T07:15:26Z</time>
      </trkpt>
      <trkpt lat="43.77439" lon="3.42945">
        <ele>732.3</ele>
        <time>2026-05-18T07:15:31Z</time>
      </trkpt>
      <trkpt lat="43.77439" lon="3.42945">
        <ele>732.3</ele>
        <time>2026-05-18T07:15:36Z</time>
      </trkpt>
      <trkpt lat="43.77439" lon="3.42945">
        <ele>732.3</ele>
        <time>2026-05-18T07:15:41Z</time>
      </trkpt>
      <trkpt lat="43.77439" lon="3.42945">
        <ele>732.3</ele>
        <time>2026-05-18T07:15:46Z</time>
      </trkpt>
      <trkpt lat="43.77439" lon="3.42945">
        <ele>732.3</ele>
        <time>2026-05-18T07:15:51Z</time>
      </trkpt>
      <trkpt lat="43.77439" lon="3.42945">
        <ele>732.3</ele>
        <time>2026-05-18T07:15:56Z</time>
      </trkpt>
      <trkpt lat="43.77439" lon="3.42945">
        <ele>732.3</ele>
        <time>2026-05-18T07:16:01Z</time>
      </trkpt>
      <trkpt lat="43.77439" lon="3.42945">
        <ele>732.3</ele>
        <time>2026-05-18T07:16:06Z</time>
      </trkpt>
      <trkpt lat="43.77439" lon="3.42945">
        <ele>732.3</ele>
        <time>2026-05-18T07:16:11Z</time>
      </trkpt>
      <trkpt lat="43.77439" lon="3.42945">
        <ele>732.3</ele>
        <time>2026-05-18T07:16:16Z</time>
      </trkpt>
      <trkpt lat="43.77439" lon="3.42945">
        <ele>732.3</ele>
        <time>2026-05-18T07:16:21Z</time>
      </trkpt>
      <trkpt lat="43.77439" lon="3.42945">
        <ele>732.3</ele>
        <time>2026-05-18T07:16:26Z</time>
      </trkpt>
      <trkpt lat="43.77439" lon="3.42945">
        <ele>732.3</ele>
        <time>2026-05-18T07:16:31Z</time>
      </trkpt>
      <trkpt lat="43.77439" lon="3.42945">
        <ele>732.3</ele>
        <time>2026-05-18T07:16:36Z</time>
      </trkpt>
      <trkpt lat="43.77439" lon="3.42945">
        <ele>732.3</ele>
        <time>2026-05-18T07:16:41Z</time>
      </trkpt>
      <trkpt lat="43.77439" lon="3.42945">
        <ele>732.3</ele>
        <time>2026-05-18T07:16:46Z</time>
      </trkpt>
      <trkpt lat="43.77439" lon="3.42945">
        <ele>732.3</ele>
        <time>2026-05-18T07:16:51Z</time>
      </trkpt>
      <trkpt lat="43.77439" lon="3.42945">
        <ele>732.3</ele>
        <time>2026-05-18T07:16:56Z</time>
      </trkpt>
      <trkpt lat="43.77439" lon="3.42945">
        <ele>732.3</ele>
        <time>2026-05-18T07:17:01Z</time>
      </trkpt>
      <trkpt lat="43.77439" lon="3.42945">
        <ele>732.3</ele>
        <time>2026-05-18T07:17:06Z</time>
      </trkpt>
      <trkpt lat="43.77439" lon="3.42945">
        <ele>732.3</ele>
        <time>2026-05-18T07:17:11Z</time>
      </trkpt>
      <trkpt lat="43.77439" lon="3.42945">
        <ele>732.3</ele>
        <time>2026-05-18T07:17:16Z</time>
      </trkpt>
      <trkpt lat="43.77439" lon="3.42945">
        <ele>732.3</ele>
        <time>2026-05-18T07:17:21Z</time>
      </trkpt>
      <trkpt lat="43.77439" lon="3.42945">
        <ele>732.3</ele>
        <time>2026-05-18T07:17:26Z</time>
      </trkpt>
      <trkpt lat="43.77439" lon="3.42945">
        <ele>732.3</ele>
        <time>2026-05-18T07:17:31Z</time>
      </trkpt>
      <trkpt lat="43.77439" lon="3.42945">
        <ele>732.3</ele>
        <time>2026-05-18T07:17:36Z</time>
      </trkpt>
      <trkpt lat="43.77439" lon="3.42945">
        <ele>732.3</ele>
        <time>2026-05-18T07:17:41Z</time>
      </trkpt>
      <trkpt lat="43.77439" lon="3.42945">
        <ele>732.3</ele>
        <time>2026-05-18T07:17:46Z</time>
      </trkpt>
      <trkpt lat="43.77439" lon="3.42945">
        <ele>732.3</ele>
        <time>2026-05-18T07:17:51Z</time>
      </trkpt>
      <trkpt lat="43.77439" lon="3.42945">
        <ele>732.3</ele>
        <time>2026-05-18T07:17:56Z</time>
      </trkpt>
      <trkpt lat="43.77439" lon="3.42945">
        <ele>732.3</ele>
        <time>2026-05-18T07:18:01Z</time>
      </trkpt>
      <trkpt lat="43.77439" lon="3.42945">
        <ele>732.3</ele>
        <time>2026-05-18T07:18:06Z</time>
      </trkpt>
      <trkpt lat="43.77439" lon="3.42945">
        <ele>732.3</ele>
        <time>2026-05-18T07:18:11Z</time>
      </trkpt>
      <trkpt lat="43.77439" lon="3.42945">
        <ele>732.3</ele>
        <time>2026-05-18T07:18:16Z</time>
      </trkpt>
      <trkpt lat="43.77439" lon="3.42945">
        <ele>732.3</ele>
        <time>2026-05-18T07:18:21Z</time>
      </trkpt>
      <trkpt lat="43.77439" lon="3.42945">
        <ele>732.3</ele>
        <time>2026-05-18T07:18:26Z</time>
      </trkpt>
      <trkpt lat="43.77439" lon="3.42945">
        <ele>732.3</ele>
        <time>2026-05-18T07:18:31Z</time>
      </trkpt>
      <trkpt lat="43.77439" lon="3.42945">
        <ele>732.3</ele>
        <time>2026-05-18T07:18:36Z</time>
      </trkpt>
      <trkpt lat="43.77439" lon="3.42945">
        <ele>732.3</ele>
        <time>2026-05-18T07:18:41Z</time>
      </trkpt>
      <trkpt lat="43.77439" lon="3.42945">
        <ele>732.3</ele>
        <time>2026-05-18T07:18:46Z</time>
      </trkpt>
      <trkpt lat="43.77439" lon="3.42945">
        <ele>732.3</ele>
        <time>2026-05-18T07:18:51Z</time>
      </trkpt>
      <trkpt lat="43.77439" lon="3.42945">
        <ele>732.3</ele>
        <time>2026-05-18T07:18:56Z</time>
      </trkpt>
      <trkpt lat="43.77439" lon="3.42945">
        <ele>732.3</ele>
        <time>2026-05-18T07:19:01Z</time>
      </trkpt>
      <trkpt lat="43.77439" lon="3.42945">
        <ele>732.3</ele>
        <time>2026-05-18T07:19:06Z</time>
      </trkpt>
      <trkpt lat="43.77439" lon="3.42945">
        <ele>732.3</ele>
        <time>2026-05-18T07:19:11Z</time>
      </trkpt>
      <trkpt lat="43.77439" lon="3.42945">
        <ele>732.3</ele>
        <time>2026-05-18T07:19:16Z</time>
      </trkpt>
      <trkpt lat="43.77439" lon="3.42945">
        <ele>732.3</ele>
        <time>2026-05-18T07:19:21Z</time>
      </trkpt>
      <trkpt lat="43.77439" lon="3.42945">
        <ele>732.3</ele>
        <time>2026-05-18T07:19:26Z</time>
      </trkpt>
      <trkpt lat="43.77439" lon="3.42945">
        <ele>732.3</ele>
        <time>2026-05-18T07:19:31Z</time>
      </trkpt>
      <trkpt lat="43.77439" lon="3.42945">
        <ele>732.3</ele>
        <time>2026-05-18T07:19:36Z</time>
      </trkpt>
      <trkpt lat="43.77439" lon="3.42945">
        <ele>732.3</ele>
        <time>2026-05-18T07:19:41Z</time>
      </trkpt>
      <trkpt lat="43.77442" lon="3.42936">
        <ele>732</ele>
        <time>2026-05-18T07:19:46Z</time>
      </trkpt>
      <trkpt lat="43.77448" lon="3.42928">
        <ele>731.8</ele>
        <time>2026-05-18T07:19:51Z</time>
      </trkpt>
      <trkpt lat="43.77453" lon="3.42921">
        <ele>731.6</ele>
        <time>2026-05-18T07:19:56Z</time>
      </trkpt>
      <trkpt lat="43.77459" lon="3.42915">
        <ele>731.5</ele>
        <time>2026-05-18T07:20:01Z</time>
      </trkpt>
      <trkpt lat="43.77464" lon="3.42908">
        <ele>731.5</ele>
        <time>2026-05-18T07:20:06Z</time>
      </trkpt>
      <trkpt lat="43.77469" lon="3.429">
        <ele>731.4</ele>
        <time>2026-05-18T07:20:11Z</time>
      </trkpt>
      <trkpt lat="43.77473" lon="3.42892">
        <ele>731.3</ele>
        <time>2026-05-18T07:20:16Z</time>
      </trkpt>
      <trkpt lat="43.77478" lon="3.42885">
        <ele>731.3</ele>
        <time>2026-05-18T07:20:21Z</time>
      </trkpt>
      <trkpt lat="43.77482" lon="3.42877">
        <ele>731.1</ele>
        <time>2026-05-18T07:20:26Z</time>
      </trkpt>
      <trkpt lat="43.77486" lon="3.42869">
        <ele>731</ele>
        <time>2026-05-18T07:20:31Z</time>
      </trkpt>
      <trkpt lat="43.77489" lon="3.42861">
        <ele>730.8</ele>
        <time>2026-05-18T07:20:36Z</time>
      </trkpt>
      <trkpt lat="43.77493" lon="3.42853">
        <ele>730.6</ele>
        <time>2026-05-18T07:20:41Z</time>
      </trkpt>
      <trkpt lat="43.77498" lon="3.42845">
        <ele>730.4</ele>
        <time>2026-05-18T07:20:46Z</time>
      </trkpt>
      <trkpt lat="43.77503" lon="3.42837">
        <ele>730.2</ele>
        <time>2026-05-18T07:20:51Z</time>
      </trkpt>
      <trkpt lat="43.77507" lon="3.42829">
        <ele>730</ele>
        <time>2026-05-18T07:20:56Z</time>
      </trkpt>
      <trkpt lat="43.77512" lon="3.42822">
        <ele>729.9</ele>
        <time>2026-05-18T07:21:01Z</time>
      </trkpt>
      <trkpt lat="43.77513" lon="3.42814">
        <ele>729.7</ele>
        <time>2026-05-18T07:21:06Z</time>
      </trkpt>
      <trkpt lat="43.77512" lon="3.42804">
        <ele>729.3</ele>
        <time>2026-05-18T07:21:11Z</time>
      </trkpt>
      <trkpt lat="43.7751" lon="3.42796">
        <ele>728.9</ele>
        <time>2026-05-18T07:21:16Z</time>
      </trkpt>
      <trkpt lat="43.77508" lon="3.42787">
        <ele>728.6</ele>
        <time>2026-05-18T07:21:21Z</time>
      </trkpt>
      <trkpt lat="43.77503" lon="3.42782">
        <ele>728.2</ele>
        <time>2026-05-18T07:21:26Z</time>
      </trkpt>
      <trkpt lat="43.775" lon="3.42778">
        <ele>728</ele>
        <time>2026-05-18T07:21:31Z</time>
      </trkpt>
      <trkpt lat="43.77499" lon="3.42773">
        <ele>727.8</ele>
        <time>2026-05-18T07:21:36Z</time>
      </trkpt>
      <trkpt lat="43.77496" lon="3.42767">
        <ele>727.6</ele>
        <time>2026-05-18T07:21:41Z</time>
      </trkpt>
      <trkpt lat="43.77488" lon="3.42768">
        <ele>727.6</ele>
        <time>2026-05-18T07:21:46Z</time>
      </trkpt>
      <trkpt lat="43.77481" lon="3.42768">
        <ele>727.6</ele>
        <time>2026-05-18T07:21:51Z</time>
      </trkpt>
      <trkpt lat="43.77474" lon="3.42766">
        <ele>727.5</ele>
        <time>2026-05-18T07:21:56Z</time>
      </trkpt>
      <trkpt lat="43.77467" lon="3.42762">
        <ele>727.4</ele>
        <time>2026-05-18T07:22:01Z</time>
      </trkpt>
      <trkpt lat="43.7746" lon="3.42757">
        <ele>727.2</ele>
        <time>2026-05-18T07:22:06Z</time>
      </trkpt>
      <trkpt lat="43.77454" lon="3.42752">
        <ele>727.1</ele>
        <time>2026-05-18T07:22:11Z</time>
      </trkpt>
      <trkpt lat="43.77448" lon="3.42746">
        <ele>726.9</ele>
        <time>2026-05-18T07:22:16Z</time>
      </trkpt>
      <trkpt lat="43.77443" lon="3.42738">
        <ele>726.6</ele>
        <time>2026-05-18T07:22:21Z</time>
      </trkpt>
      <trkpt lat="43.77438" lon="3.42731">
        <ele>726.3</ele>
        <time>2026-05-18T07:22:26Z</time>
      </trkpt>
      <trkpt lat="43.77433" lon="3.42723">
        <ele>725.9</ele>
        <time>2026-05-18T07:22:31Z</time>
      </trkpt>
      <trkpt lat="43.7743" lon="3.42714">
        <ele>725.5</ele>
        <time>2026-05-18T07:22:36Z</time>
      </trkpt>
      <trkpt lat="43.77427" lon="3.42704">
        <ele>725</ele>
        <time>2026-05-18T07:22:41Z</time>
      </trkpt>
      <trkpt lat="43.77425" lon="3.42694">
        <ele>724.5</ele>
        <time>2026-05-18T07:22:46Z</time>
      </trkpt>
      <trkpt lat="43.77423" lon="3.42684">
        <ele>724</ele>
        <time>2026-05-18T07:22:51Z</time>
      </trkpt>
      <trkpt lat="43.77421" lon="3.42675">
        <ele>723.5</ele>
        <time>2026-05-18T07:22:56Z</time>
      </trkpt>
      <trkpt lat="43.77417" lon="3.42664">
        <ele>722.9</ele>
        <time>2026-05-18T07:23:01Z</time>
      </trkpt>
      <trkpt lat="43.77412" lon="3.42655">
        <ele>722.7</ele>
        <time>2026-05-18T07:23:06Z</time>
      </trkpt>
      <trkpt lat="43.77406" lon="3.42648">
        <ele>722.4</ele>
        <time>2026-05-18T07:23:11Z</time>
      </trkpt>
      <trkpt lat="43.774" lon="3.42642">
        <ele>722.1</ele>
        <time>2026-05-18T07:23:16Z</time>
      </trkpt>
      <trkpt lat="43.77394" lon="3.42637">
        <ele>721.9</ele>
        <time>2026-05-18T07:23:21Z</time>
      </trkpt>
      <trkpt lat="43.77387" lon="3.42632">
        <ele>721.7</ele>
        <time>2026-05-18T07:23:26Z</time>
      </trkpt>
      <trkpt lat="43.77379" lon="3.42629">
        <ele>721.4</ele>
        <time>2026-05-18T07:23:31Z</time>
      </trkpt>
      <trkpt lat="43.77372" lon="3.42626">
        <ele>721.2</ele>
        <time>2026-05-18T07:23:36Z</time>
      </trkpt>
      <trkpt lat="43.77364" lon="3.42623">
        <ele>721</ele>
        <time>2026-05-18T07:23:41Z</time>
      </trkpt>
      <trkpt lat="43.77357" lon="3.42618">
        <ele>720.7</ele>
        <time>2026-05-18T07:23:46Z</time>
      </trkpt>
      <trkpt lat="43.7735" lon="3.42613">
        <ele>720.4</ele>
        <time>2026-05-18T07:23:51Z</time>
      </trkpt>
      <trkpt lat="43.77343" lon="3.42608">
        <ele>720.1</ele>
        <time>2026-05-18T07:23:56Z</time>
      </trkpt>
      <trkpt lat="43.77337" lon="3.42602">
        <ele>719.8</ele>
        <time>2026-05-18T07:24:01Z</time>
      </trkpt>
      <trkpt lat="43.77329" lon="3.42597">
        <ele>719.6</ele>
        <time>2026-05-18T07:24:06Z</time>
      </trkpt>
      <trkpt lat="43.77324" lon="3.42592">
        <ele>719.5</ele>
        <time>2026-05-18T07:24:11Z</time>
      </trkpt>
      <trkpt lat="43.77318" lon="3.42586">
        <ele>719.5</ele>
        <time>2026-05-18T07:24:16Z</time>
      </trkpt>
      <trkpt lat="43.77313" lon="3.42578">
        <ele>719.2</ele>
        <time>2026-05-18T07:24:21Z</time>
      </trkpt>
      <trkpt lat="43.77308" lon="3.42571">
        <ele>719</ele>
        <time>2026-05-18T07:24:26Z</time>
      </trkpt>
      <trkpt lat="43.77304" lon="3.42563">
        <ele>718.6</ele>
        <time>2026-05-18T07:24:31Z</time>
      </trkpt>
      <trkpt lat="43.77302" lon="3.42554">
        <ele>718.2</ele>
        <time>2026-05-18T07:24:36Z</time>
      </trkpt>
      <trkpt lat="43.773" lon="3.42543">
        <ele>717.7</ele>
        <time>2026-05-18T07:24:41Z</time>
      </trkpt>
      <trkpt lat="43.77299" lon="3.42532">
        <ele>717.1</ele>
        <time>2026-05-18T07:24:46Z</time>
      </trkpt>
      <trkpt lat="43.773" lon="3.42522">
        <ele>716.6</ele>
        <time>2026-05-18T07:24:51Z</time>
      </trkpt>
      <trkpt lat="43.773" lon="3.42511">
        <ele>716</ele>
        <time>2026-05-18T07:24:56Z</time>
      </trkpt>
      <trkpt lat="43.77301" lon="3.42502">
        <ele>715.5</ele>
        <time>2026-05-18T07:25:01Z</time>
      </trkpt>
      <trkpt lat="43.77302" lon="3.42492">
        <ele>715</ele>
        <time>2026-05-18T07:25:06Z</time>
      </trkpt>
      <trkpt lat="43.77302" lon="3.42481">
        <ele>714.4</ele>
        <time>2026-05-18T07:25:11Z</time>
      </trkpt>
      <trkpt lat="43.773" lon="3.42471">
        <ele>713.9</ele>
        <time>2026-05-18T07:25:16Z</time>
      </trkpt>
      <trkpt lat="43.77296" lon="3.4246">
        <ele>713.4</ele>
        <time>2026-05-18T07:25:21Z</time>
      </trkpt>
      <trkpt lat="43.77292" lon="3.4245">
        <ele>712.8</ele>
        <time>2026-05-18T07:25:26Z</time>
      </trkpt>
      <trkpt lat="43.77287" lon="3.42442">
        <ele>712.3</ele>
        <time>2026-05-18T07:25:31Z</time>
      </trkpt>
      <trkpt lat="43.77281" lon="3.42434">
        <ele>711.8</ele>
        <time>2026-05-18T07:25:36Z</time>
      </trkpt>
      <trkpt lat="43.77275" lon="3.42427">
        <ele>711.2</ele>
        <time>2026-05-18T07:25:41Z</time>
      </trkpt>
      <trkpt lat="43.77271" lon="3.42418">
        <ele>710.6</ele>
        <time>2026-05-18T07:25:46Z</time>
      </trkpt>
      <trkpt lat="43.77265" lon="3.4241">
        <ele>709.9</ele>
        <time>2026-05-18T07:25:51Z</time>
      </trkpt>
      <trkpt lat="43.77261" lon="3.42402">
        <ele>709.2</ele>
        <time>2026-05-18T07:25:56Z</time>
      </trkpt>
      <trkpt lat="43.77255" lon="3.42396">
        <ele>708.6</ele>
        <time>2026-05-18T07:26:01Z</time>
      </trkpt>
      <trkpt lat="43.77249" lon="3.42389">
        <ele>708</ele>
        <time>2026-05-18T07:26:06Z</time>
      </trkpt>
      <trkpt lat="43.77244" lon="3.42381">
        <ele>707.5</ele>
        <time>2026-05-18T07:26:11Z</time>
      </trkpt>
      <trkpt lat="43.77241" lon="3.42372">
        <ele>706.9</ele>
        <time>2026-05-18T07:26:16Z</time>
      </trkpt>
      <trkpt lat="43.77236" lon="3.42362">
        <ele>706.3</ele>
        <time>2026-05-18T07:26:21Z</time>
      </trkpt>
      <trkpt lat="43.77233" lon="3.42351">
        <ele>705.5</ele>
        <time>2026-05-18T07:26:26Z</time>
      </trkpt>
      <trkpt lat="43.77231" lon="3.42343">
        <ele>705</ele>
        <time>2026-05-18T07:26:31Z</time>
      </trkpt>
      <trkpt lat="43.77228" lon="3.42334">
        <ele>704.3</ele>
        <time>2026-05-18T07:26:36Z</time>
      </trkpt>
      <trkpt lat="43.77227" lon="3.42323">
        <ele>704.1</ele>
        <time>2026-05-18T07:26:41Z</time>
      </trkpt>
      <trkpt lat="43.77225" lon="3.42314">
        <ele>704</ele>
        <time>2026-05-18T07:26:46Z</time>
      </trkpt>
      <trkpt lat="43.77222" lon="3.42304">
        <ele>703.9</ele>
        <time>2026-05-18T07:26:51Z</time>
      </trkpt>
      <trkpt lat="43.77221" lon="3.42295">
        <ele>703.7</ele>
        <time>2026-05-18T07:26:56Z</time>
      </trkpt>
      <trkpt lat="43.77219" lon="3.42285">
        <ele>703.6</ele>
        <time>2026-05-18T07:27:01Z</time>
      </trkpt>
      <trkpt lat="43.77217" lon="3.42276">
        <ele>703.4</ele>
        <time>2026-05-18T07:27:06Z</time>
      </trkpt>
      <trkpt lat="43.77212" lon="3.42265">
        <ele>703.3</ele>
        <time>2026-05-18T07:27:11Z</time>
      </trkpt>
      <trkpt lat="43.77209" lon="3.42255">
        <ele>703.1</ele>
        <time>2026-05-18T07:27:16Z</time>
      </trkpt>
      <trkpt lat="43.77201" lon="3.42248">
        <ele>703</ele>
        <time>2026-05-18T07:27:21Z</time>
      </trkpt>
      <trkpt lat="43.77194" lon="3.42245">
        <ele>703.1</ele>
        <time>2026-05-18T07:27:26Z</time>
      </trkpt>
      <trkpt lat="43.77187" lon="3.42246">
        <ele>703.1</ele>
        <time>2026-05-18T07:27:31Z</time>
      </trkpt>
      <trkpt lat="43.77179" lon="3.42248">
        <ele>703.1</ele>
        <time>2026-05-18T07:27:36Z</time>
      </trkpt>
      <trkpt lat="43.77172" lon="3.4225">
        <ele>703</ele>
        <time>2026-05-18T07:27:41Z</time>
      </trkpt>
      <trkpt lat="43.77164" lon="3.42254">
        <ele>703.1</ele>
        <time>2026-05-18T07:27:46Z</time>
      </trkpt>
      <trkpt lat="43.77156" lon="3.42258">
        <ele>703</ele>
        <time>2026-05-18T07:27:51Z</time>
      </trkpt>
      <trkpt lat="43.77149" lon="3.42264">
        <ele>703</ele>
        <time>2026-05-18T07:27:56Z</time>
      </trkpt>
      <trkpt lat="43.77142" lon="3.42268">
        <ele>702.9</ele>
        <time>2026-05-18T07:28:01Z</time>
      </trkpt>
      <trkpt lat="43.77134" lon="3.42273">
        <ele>702.7</ele>
        <time>2026-05-18T07:28:06Z</time>
      </trkpt>
      <trkpt lat="43.77127" lon="3.42276">
        <ele>702.6</ele>
        <time>2026-05-18T07:28:11Z</time>
      </trkpt>
      <trkpt lat="43.77123" lon="3.42278">
        <ele>702.4</ele>
        <time>2026-05-18T07:28:16Z</time>
      </trkpt>
      <trkpt lat="43.77122" lon="3.42281">
        <ele>702.4</ele>
        <time>2026-05-18T07:28:21Z</time>
      </trkpt>
      <trkpt lat="43.77119" lon="3.42284">
        <ele>702.3</ele>
        <time>2026-05-18T07:28:26Z</time>
      </trkpt>
      <trkpt lat="43.77112" lon="3.42284">
        <ele>702.1</ele>
        <time>2026-05-18T07:28:31Z</time>
      </trkpt>
      <trkpt lat="43.77105" lon="3.42285">
        <ele>701.9</ele>
        <time>2026-05-18T07:28:36Z</time>
      </trkpt>
      <trkpt lat="43.77098" lon="3.42288">
        <ele>701.6</ele>
        <time>2026-05-18T07:28:41Z</time>
      </trkpt>
      <trkpt lat="43.77092" lon="3.42289">
        <ele>701.4</ele>
        <time>2026-05-18T07:28:46Z</time>
      </trkpt>
      <trkpt lat="43.77084" lon="3.42289">
        <ele>701.1</ele>
        <time>2026-05-18T07:28:51Z</time>
      </trkpt>
      <trkpt lat="43.77078" lon="3.42289">
        <ele>700.5</ele>
        <time>2026-05-18T07:28:56Z</time>
      </trkpt>
      <trkpt lat="43.77071" lon="3.42291">
        <ele>699.6</ele>
        <time>2026-05-18T07:29:01Z</time>
      </trkpt>
      <trkpt lat="43.77065" lon="3.42294">
        <ele>698.8</ele>
        <time>2026-05-18T07:29:06Z</time>
      </trkpt>
      <trkpt lat="43.77058" lon="3.42294">
        <ele>698</ele>
        <time>2026-05-18T07:29:11Z</time>
      </trkpt>
      <trkpt lat="43.7705" lon="3.42293">
        <ele>697.1</ele>
        <time>2026-05-18T07:29:16Z</time>
      </trkpt>
      <trkpt lat="43.77042" lon="3.42292">
        <ele>696.3</ele>
        <time>2026-05-18T07:29:21Z</time>
      </trkpt>
      <trkpt lat="43.77036" lon="3.42291">
        <ele>695.6</ele>
        <time>2026-05-18T07:29:26Z</time>
      </trkpt>
      <trkpt lat="43.77031" lon="3.42289">
        <ele>695.2</ele>
        <time>2026-05-18T07:29:31Z</time>
      </trkpt>
      <trkpt lat="43.77026" lon="3.42284">
        <ele>695</ele>
        <time>2026-05-18T07:29:36Z</time>
      </trkpt>
      <trkpt lat="43.77021" lon="3.42279">
        <ele>694.8</ele>
        <time>2026-05-18T07:29:41Z</time>
      </trkpt>
      <trkpt lat="43.77015" lon="3.42273">
        <ele>694.6</ele>
        <time>2026-05-18T07:29:46Z</time>
      </trkpt>
      <trkpt lat="43.77008" lon="3.42268">
        <ele>694.3</ele>
        <time>2026-05-18T07:29:51Z</time>
      </trkpt>
      <trkpt lat="43.77001" lon="3.42266">
        <ele>693.8</ele>
        <time>2026-05-18T07:29:56Z</time>
      </trkpt>
      <trkpt lat="43.76994" lon="3.42263">
        <ele>693</ele>
        <time>2026-05-18T07:30:01Z</time>
      </trkpt>
      <trkpt lat="43.76986" lon="3.42263">
        <ele>691.8</ele>
        <time>2026-05-18T07:30:06Z</time>
      </trkpt>
      <trkpt lat="43.76976" lon="3.42259">
        <ele>691</ele>
        <time>2026-05-18T07:30:11Z</time>
      </trkpt>
      <trkpt lat="43.76967" lon="3.42254">
        <ele>690.7</ele>
        <time>2026-05-18T07:30:16Z</time>
      </trkpt>
      <trkpt lat="43.76959" lon="3.42249">
        <ele>690.8</ele>
        <time>2026-05-18T07:30:21Z</time>
      </trkpt>
      <trkpt lat="43.76955" lon="3.42245">
        <ele>691.2</ele>
        <time>2026-05-18T07:30:26Z</time>
      </trkpt>
      <trkpt lat="43.76955" lon="3.42241">
        <ele>692</ele>
        <time>2026-05-18T07:30:31Z</time>
      </trkpt>
      <trkpt lat="43.76956" lon="3.42241">
        <ele>692.1</ele>
        <time>2026-05-18T07:30:36Z</time>
      </trkpt>
      <trkpt lat="43.76957" lon="3.42242">
        <ele>692</ele>
        <time>2026-05-18T07:30:41Z</time>
      </trkpt>
      <trkpt lat="43.76957" lon="3.42242">
        <ele>692</ele>
        <time>2026-05-18T07:30:46Z</time>
      </trkpt>
      <trkpt lat="43.76957" lon="3.42242">
        <ele>692</ele>
        <time>2026-05-18T07:30:51Z</time>
      </trkpt>
      <trkpt lat="43.76957" lon="3.42242">
        <ele>692</ele>
        <time>2026-05-18T07:30:56Z</time>
      </trkpt>
      <trkpt lat="43.76957" lon="3.42242">
        <ele>692</ele>
        <time>2026-05-18T07:31:01Z</time>
      </trkpt>
      <trkpt lat="43.76957" lon="3.42242">
        <ele>692</ele>
        <time>2026-05-18T07:31:06Z</time>
      </trkpt>
      <trkpt lat="43.76957" lon="3.42242">
        <ele>692</ele>
        <time>2026-05-18T07:31:11Z</time>
      </trkpt>
      <trkpt lat="43.76957" lon="3.42242">
        <ele>692</ele>
        <time>2026-05-18T07:31:16Z</time>
      </trkpt>
      <trkpt lat="43.76957" lon="3.42242">
        <ele>692</ele>
        <time>2026-05-18T07:31:21Z</time>
      </trkpt>
      <trkpt lat="43.76957" lon="3.42242">
        <ele>692</ele>
        <time>2026-05-18T07:31:26Z</time>
      </trkpt>
      <trkpt lat="43.76957" lon="3.42242">
        <ele>692</ele>
        <time>2026-05-18T07:31:31Z</time>
      </trkpt>
      <trkpt lat="43.76957" lon="3.42242">
        <ele>692</ele>
        <time>2026-05-18T07:31:36Z</time>
      </trkpt>
      <trkpt lat="43.76957" lon="3.42242">
        <ele>692</ele>
        <time>2026-05-18T07:31:41Z</time>
      </trkpt>
      <trkpt lat="43.76957" lon="3.42242">
        <ele>692</ele>
        <time>2026-05-18T07:31:46Z</time>
      </trkpt>
      <trkpt lat="43.76957" lon="3.42242">
        <ele>692</ele>
        <time>2026-05-18T07:31:51Z</time>
      </trkpt>
      <trkpt lat="43.76957" lon="3.42242">
        <ele>692</ele>
        <time>2026-05-18T07:31:56Z</time>
      </trkpt>
      <trkpt lat="43.76957" lon="3.42242">
        <ele>692</ele>
        <time>2026-05-18T07:32:01Z</time>
      </trkpt>
      <trkpt lat="43.76957" lon="3.42242">
        <ele>692</ele>
        <time>2026-05-18T07:32:06Z</time>
      </trkpt>
      <trkpt lat="43.76957" lon="3.42242">
        <ele>692</ele>
        <time>2026-05-18T07:32:11Z</time>
      </trkpt>
      <trkpt lat="43.76957" lon="3.42242">
        <ele>692</ele>
        <time>2026-05-18T07:32:16Z</time>
      </trkpt>
      <trkpt lat="43.76957" lon="3.42242">
        <ele>692</ele>
        <time>2026-05-18T07:32:21Z</time>
      </trkpt>
      <trkpt lat="43.76957" lon="3.42242">
        <ele>692</ele>
        <time>2026-05-18T07:32:26Z</time>
      </trkpt>
      <trkpt lat="43.76957" lon="3.42242">
        <ele>692</ele>
        <time>2026-05-18T07:32:31Z</time>
      </trkpt>
      <trkpt lat="43.76957" lon="3.42242">
        <ele>692</ele>
        <time>2026-05-18T07:32:36Z</time>
      </trkpt>
      <trkpt lat="43.76957" lon="3.42242">
        <ele>692</ele>
        <time>2026-05-18T07:32:41Z</time>
      </trkpt>
      <trkpt lat="43.76957" lon="3.42242">
        <ele>692</ele>
        <time>2026-05-18T07:32:46Z</time>
      </trkpt>
      <trkpt lat="43.76957" lon="3.42242">
        <ele>692</ele>
        <time>2026-05-18T07:32:51Z</time>
      </trkpt>
      <trkpt lat="43.76957" lon="3.42242">
        <ele>692</ele>
        <time>2026-05-18T07:32:56Z</time>
      </trkpt>
      <trkpt lat="43.76957" lon="3.42242">
        <ele>692</ele>
        <time>2026-05-18T07:33:01Z</time>
      </trkpt>
      <trkpt lat="43.76957" lon="3.42242">
        <ele>692</ele>
        <time>2026-05-18T07:33:06Z</time>
      </trkpt>
      <trkpt lat="43.76957" lon="3.42242">
        <ele>692</ele>
        <time>2026-05-18T07:33:11Z</time>
      </trkpt>
      <trkpt lat="43.7695" lon="3.42243">
        <ele>691</ele>
        <time>2026-05-18T07:33:16Z</time>
      </trkpt>
      <trkpt lat="43.76943" lon="3.4224">
        <ele>690.9</ele>
        <time>2026-05-18T07:33:21Z</time>
      </trkpt>
      <trkpt lat="43.76936" lon="3.42235">
        <ele>691.1</ele>
        <time>2026-05-18T07:33:26Z</time>
      </trkpt>
      <trkpt lat="43.76928" lon="3.42233">
        <ele>690.7</ele>
        <time>2026-05-18T07:33:31Z</time>
      </trkpt>
      <trkpt lat="43.7692" lon="3.4223">
        <ele>690.4</ele>
        <time>2026-05-18T07:33:36Z</time>
      </trkpt>
      <trkpt lat="43.76914" lon="3.42223">
        <ele>690.9</ele>
        <time>2026-05-18T07:33:41Z</time>
      </trkpt>
      <trkpt lat="43.76908" lon="3.42216">
        <ele>691.1</ele>
        <time>2026-05-18T07:33:46Z</time>
      </trkpt>
      <trkpt lat="43.76901" lon="3.42215">
        <ele>689.8</ele>
        <time>2026-05-18T07:33:51Z</time>
      </trkpt>
      <trkpt lat="43.76894" lon="3.42211">
        <ele>689.2</ele>
        <time>2026-05-18T07:33:56Z</time>
      </trkpt>
      <trkpt lat="43.76888" lon="3.42208">
        <ele>688.7</ele>
        <time>2026-05-18T07:34:01Z</time>
      </trkpt>
      <trkpt lat="43.76882" lon="3.42202">
        <ele>689</ele>
        <time>2026-05-18T07:34:06Z</time>
      </trkpt>
      <trkpt lat="43.76876" lon="3.42196">
        <ele>689.4</ele>
        <time>2026-05-18T07:34:11Z</time>
      </trkpt>
      <trkpt lat="43.76869" lon="3.42191">
        <ele>689.5</ele>
        <time>2026-05-18T07:34:16Z</time>
      </trkpt>
      <trkpt lat="43.76863" lon="3.42188">
        <ele>689.3</ele>
        <time>2026-05-18T07:34:21Z</time>
      </trkpt>
      <trkpt lat="43.76857" lon="3.42184">
        <ele>689.4</ele>
        <time>2026-05-18T07:34:26Z</time>
      </trkpt>
      <trkpt lat="43.7685" lon="3.42181">
        <ele>689.1</ele>
        <time>2026-05-18T07:34:31Z</time>
      </trkpt>
      <trkpt lat="43.76842" lon="3.4218">
        <ele>688.1</ele>
        <time>2026-05-18T07:34:36Z</time>
      </trkpt>
      <trkpt lat="43.76836" lon="3.42177">
        <ele>688.1</ele>
        <time>2026-05-18T07:34:41Z</time>
      </trkpt>
      <trkpt lat="43.76832" lon="3.42172">
        <ele>689</ele>
        <time>2026-05-18T07:34:46Z</time>
      </trkpt>
      <trkpt lat="43.7683" lon="3.42169">
        <ele>689.6</ele>
        <time>2026-05-18T07:34:51Z</time>
      </trkpt>
      <trkpt lat="43.76827" lon="3.42167">
        <ele>689.7</ele>
        <time>2026-05-18T07:34:56Z</time>
      </trkpt>
      <trkpt lat="43.76822" lon="3.42163">
        <ele>689.2</ele>
        <time>2026-05-18T07:35:01Z</time>
      </trkpt>
      <trkpt lat="43.76817" lon="3.42159">
        <ele>688.6</ele>
        <time>2026-05-18T07:35:06Z</time>
      </trkpt>
      <trkpt lat="43.76812" lon="3.42155">
        <ele>688.1</ele>
        <time>2026-05-18T07:35:11Z</time>
      </trkpt>
      <trkpt lat="43.76807" lon="3.42149">
        <ele>687.8</ele>
        <time>2026-05-18T07:35:16Z</time>
      </trkpt>
      <trkpt lat="43.76802" lon="3.42142">
        <ele>687.6</ele>
        <time>2026-05-18T07:35:21Z</time>
      </trkpt>
      <trkpt lat="43.76796" lon="3.42136">
        <ele>687.2</ele>
        <time>2026-05-18T07:35:26Z</time>
      </trkpt>
      <trkpt lat="43.7679" lon="3.4213">
        <ele>686.9</ele>
        <time>2026-05-18T07:35:31Z</time>
      </trkpt>
      <trkpt lat="43.76785" lon="3.42124">
        <ele>686.8</ele>
        <time>2026-05-18T07:35:36Z</time>
      </trkpt>
      <trkpt lat="43.7678" lon="3.42117">
        <ele>686.8</ele>
        <time>2026-05-18T07:35:41Z</time>
      </trkpt>
      <trkpt lat="43.76774" lon="3.42111">
        <ele>686.7</ele>
        <time>2026-05-18T07:35:46Z</time>
      </trkpt>
      <trkpt lat="43.76765" lon="3.42109">
        <ele>685.6</ele>
        <time>2026-05-18T07:35:51Z</time>
      </trkpt>
      <trkpt lat="43.76758" lon="3.42106">
        <ele>684.9</ele>
        <time>2026-05-18T07:35:56Z</time>
      </trkpt>
      <trkpt lat="43.7675" lon="3.42105">
        <ele>683.9</ele>
        <time>2026-05-18T07:36:01Z</time>
      </trkpt>
      <trkpt lat="43.76742" lon="3.42104">
        <ele>684.4</ele>
        <time>2026-05-18T07:36:06Z</time>
      </trkpt>
      <trkpt lat="43.76734" lon="3.42106">
        <ele>684.5</ele>
        <time>2026-05-18T07:36:11Z</time>
      </trkpt>
      <trkpt lat="43.76727" lon="3.42105">
        <ele>685</ele>
        <time>2026-05-18T07:36:16Z</time>
      </trkpt>
      <trkpt lat="43.76719" lon="3.42104">
        <ele>685.6</ele>
        <time>2026-05-18T07:36:21Z</time>
      </trkpt>
      <trkpt lat="43.76711" lon="3.421">
        <ele>686.7</ele>
        <time>2026-05-18T07:36:26Z</time>
      </trkpt>
      <trkpt lat="43.76702" lon="3.42098">
        <ele>687.5</ele>
        <time>2026-05-18T07:36:31Z</time>
      </trkpt>
      <trkpt lat="43.76695" lon="3.42097">
        <ele>688</ele>
        <time>2026-05-18T07:36:36Z</time>
      </trkpt>
      <trkpt lat="43.76689" lon="3.42095">
        <ele>688.7</ele>
        <time>2026-05-18T07:36:41Z</time>
      </trkpt>
      <trkpt lat="43.76683" lon="3.42091">
        <ele>689.7</ele>
        <time>2026-05-18T07:36:46Z</time>
      </trkpt>
      <trkpt lat="43.76676" lon="3.42089">
        <ele>690.4</ele>
        <time>2026-05-18T07:36:51Z</time>
      </trkpt>
      <trkpt lat="43.76668" lon="3.42086">
        <ele>691.4</ele>
        <time>2026-05-18T07:36:56Z</time>
      </trkpt>
      <trkpt lat="43.76663" lon="3.42081">
        <ele>691.7</ele>
        <time>2026-05-18T07:37:01Z</time>
      </trkpt>
      <trkpt lat="43.76657" lon="3.42076">
        <ele>691.3</ele>
        <time>2026-05-18T07:37:06Z</time>
      </trkpt>
      <trkpt lat="43.7665" lon="3.4207">
        <ele>690.9</ele>
        <time>2026-05-18T07:37:11Z</time>
      </trkpt>
      <trkpt lat="43.76648" lon="3.42061">
        <ele>690.8</ele>
        <time>2026-05-18T07:37:16Z</time>
      </trkpt>
      <trkpt lat="43.76648" lon="3.4205">
        <ele>690.7</ele>
        <time>2026-05-18T07:37:21Z</time>
      </trkpt>
      <trkpt lat="43.76649" lon="3.42042">
        <ele>690.7</ele>
        <time>2026-05-18T07:37:26Z</time>
      </trkpt>
      <trkpt lat="43.76648" lon="3.42035">
        <ele>690.6</ele>
        <time>2026-05-18T07:37:31Z</time>
      </trkpt>
      <trkpt lat="43.7665" lon="3.42025">
        <ele>690.6</ele>
        <time>2026-05-18T07:37:36Z</time>
      </trkpt>
      <trkpt lat="43.7665" lon="3.42015">
        <ele>690.5</ele>
        <time>2026-05-18T07:37:41Z</time>
      </trkpt>
      <trkpt lat="43.7665" lon="3.42007">
        <ele>690.5</ele>
        <time>2026-05-18T07:37:46Z</time>
      </trkpt>
      <trkpt lat="43.7665" lon="3.41998">
        <ele>690.4</ele>
        <time>2026-05-18T07:37:51Z</time>
      </trkpt>
      <trkpt lat="43.76652" lon="3.41991">
        <ele>690.5</ele>
        <time>2026-05-18T07:37:56Z</time>
      </trkpt>
      <trkpt lat="43.76652" lon="3.41982">
        <ele>690.6</ele>
        <time>2026-05-18T07:38:01Z</time>
      </trkpt>
      <trkpt lat="43.76652" lon="3.4197">
        <ele>690.8</ele>
        <time>2026-05-18T07:38:06Z</time>
      </trkpt>
      <trkpt lat="43.76651" lon="3.41958">
        <ele>691</ele>
        <time>2026-05-18T07:38:11Z</time>
      </trkpt>
      <trkpt lat="43.76651" lon="3.41945">
        <ele>691.2</ele>
        <time>2026-05-18T07:38:16Z</time>
      </trkpt>
      <trkpt lat="43.7665" lon="3.41935">
        <ele>691.3</ele>
        <time>2026-05-18T07:38:21Z</time>
      </trkpt>
      <trkpt lat="43.7665" lon="3.41925">
        <ele>691.5</ele>
        <time>2026-05-18T07:38:26Z</time>
      </trkpt>
      <trkpt lat="43.76651" lon="3.41915">
        <ele>691.6</ele>
        <time>2026-05-18T07:38:31Z</time>
      </trkpt>
      <trkpt lat="43.76651" lon="3.41902">
        <ele>691.7</ele>
        <time>2026-05-18T07:38:36Z</time>
      </trkpt>
      <trkpt lat="43.76649" lon="3.4189">
        <ele>691.7</ele>
        <time>2026-05-18T07:38:41Z</time>
      </trkpt>
      <trkpt lat="43.76649" lon="3.41881">
        <ele>691.8</ele>
        <time>2026-05-18T07:38:46Z</time>
      </trkpt>
      <trkpt lat="43.76649" lon="3.41872">
        <ele>691.8</ele>
        <time>2026-05-18T07:38:51Z</time>
      </trkpt>
      <trkpt lat="43.7665" lon="3.41863">
        <ele>691.9</ele>
        <time>2026-05-18T07:38:56Z</time>
      </trkpt>
      <trkpt lat="43.76651" lon="3.41852">
        <ele>691.9</ele>
        <time>2026-05-18T07:39:01Z</time>
      </trkpt>
      <trkpt lat="43.76651" lon="3.41843">
        <ele>692</ele>
        <time>2026-05-18T07:39:06Z</time>
      </trkpt>
      <trkpt lat="43.76654" lon="3.41835">
        <ele>692</ele>
        <time>2026-05-18T07:39:11Z</time>
      </trkpt>
      <trkpt lat="43.76656" lon="3.41825">
        <ele>691.8</ele>
        <time>2026-05-18T07:39:16Z</time>
      </trkpt>
      <trkpt lat="43.76658" lon="3.41816">
        <ele>691.6</ele>
        <time>2026-05-18T07:39:21Z</time>
      </trkpt>
      <trkpt lat="43.76661" lon="3.41806">
        <ele>691.4</ele>
        <time>2026-05-18T07:39:26Z</time>
      </trkpt>
      <trkpt lat="43.76666" lon="3.41799">
        <ele>691.2</ele>
        <time>2026-05-18T07:39:31Z</time>
      </trkpt>
      <trkpt lat="43.7667" lon="3.41791">
        <ele>690.8</ele>
        <time>2026-05-18T07:39:36Z</time>
      </trkpt>
      <trkpt lat="43.76673" lon="3.4178">
        <ele>690.3</ele>
        <time>2026-05-18T07:39:41Z</time>
      </trkpt>
      <trkpt lat="43.76677" lon="3.4177">
        <ele>689.9</ele>
        <time>2026-05-18T07:39:46Z</time>
      </trkpt>
      <trkpt lat="43.76681" lon="3.41761">
        <ele>689.5</ele>
        <time>2026-05-18T07:39:51Z</time>
      </trkpt>
      <trkpt lat="43.76685" lon="3.41754">
        <ele>689.2</ele>
        <time>2026-05-18T07:39:56Z</time>
      </trkpt>
      <trkpt lat="43.7669" lon="3.41745">
        <ele>688.8</ele>
        <time>2026-05-18T07:40:01Z</time>
      </trkpt>
      <trkpt lat="43.76695" lon="3.41737">
        <ele>688.5</ele>
        <time>2026-05-18T07:40:06Z</time>
      </trkpt>
      <trkpt lat="43.76699" lon="3.41727">
        <ele>688.2</ele>
        <time>2026-05-18T07:40:11Z</time>
      </trkpt>
      <trkpt lat="43.76699" lon="3.41715">
        <ele>688</ele>
        <time>2026-05-18T07:40:16Z</time>
      </trkpt>
      <trkpt lat="43.76699" lon="3.41705">
        <ele>687.9</ele>
        <time>2026-05-18T07:40:21Z</time>
      </trkpt>
      <trkpt lat="43.76698" lon="3.41695">
        <ele>687.8</ele>
        <time>2026-05-18T07:40:26Z</time>
      </trkpt>
      <trkpt lat="43.76695" lon="3.41686">
        <ele>687.9</ele>
        <time>2026-05-18T07:40:31Z</time>
      </trkpt>
      <trkpt lat="43.76692" lon="3.41671">
        <ele>687.8</ele>
        <time>2026-05-18T07:40:36Z</time>
      </trkpt>
      <trkpt lat="43.76688" lon="3.41659">
        <ele>687.8</ele>
        <time>2026-05-18T07:40:41Z</time>
      </trkpt>
      <trkpt lat="43.76685" lon="3.4165">
        <ele>687.8</ele>
        <time>2026-05-18T07:40:46Z</time>
      </trkpt>
      <trkpt lat="43.76681" lon="3.41641">
        <ele>687.7</ele>
        <time>2026-05-18T07:40:51Z</time>
      </trkpt>
      <trkpt lat="43.76679" lon="3.41632">
        <ele>687.6</ele>
        <time>2026-05-18T07:40:56Z</time>
      </trkpt>
      <trkpt lat="43.76678" lon="3.41622">
        <ele>687.5</ele>
        <time>2026-05-18T07:41:01Z</time>
      </trkpt>
      <trkpt lat="43.76675" lon="3.41612">
        <ele>687.4</ele>
        <time>2026-05-18T07:41:06Z</time>
      </trkpt>
      <trkpt lat="43.76674" lon="3.41602">
        <ele>687.2</ele>
        <time>2026-05-18T07:41:11Z</time>
      </trkpt>
      <trkpt lat="43.76672" lon="3.41593">
        <ele>687</ele>
        <time>2026-05-18T07:41:16Z</time>
      </trkpt>
      <trkpt lat="43.76669" lon="3.41585">
        <ele>687</ele>
        <time>2026-05-18T07:41:21Z</time>
      </trkpt>
      <trkpt lat="43.76669" lon="3.41574">
        <ele>686.7</ele>
        <time>2026-05-18T07:41:26Z</time>
      </trkpt>
      <trkpt lat="43.76669" lon="3.41561">
        <ele>686.4</ele>
        <time>2026-05-18T07:41:31Z</time>
      </trkpt>
      <trkpt lat="43.76666" lon="3.41553">
        <ele>686.3</ele>
        <time>2026-05-18T07:41:36Z</time>
      </trkpt>
      <trkpt lat="43.76663" lon="3.41539">
        <ele>686</ele>
        <time>2026-05-18T07:41:41Z</time>
      </trkpt>
      <trkpt lat="43.76661" lon="3.41527">
        <ele>685.7</ele>
        <time>2026-05-18T07:41:46Z</time>
      </trkpt>
      <trkpt lat="43.76658" lon="3.41517">
        <ele>685.5</ele>
        <time>2026-05-18T07:41:51Z</time>
      </trkpt>
      <trkpt lat="43.76655" lon="3.41511">
        <ele>685.4</ele>
        <time>2026-05-18T07:41:56Z</time>
      </trkpt>
      <trkpt lat="43.76653" lon="3.41502">
        <ele>685.2</ele>
        <time>2026-05-18T07:42:01Z</time>
      </trkpt>
      <trkpt lat="43.76652" lon="3.41492">
        <ele>684.7</ele>
        <time>2026-05-18T07:42:06Z</time>
      </trkpt>
      <trkpt lat="43.76651" lon="3.41482">
        <ele>684.2</ele>
        <time>2026-05-18T07:42:11Z</time>
      </trkpt>
      <trkpt lat="43.76648" lon="3.41474">
        <ele>683.9</ele>
        <time>2026-05-18T07:42:16Z</time>
      </trkpt>
      <trkpt lat="43.76646" lon="3.41466">
        <ele>683.5</ele>
        <time>2026-05-18T07:42:21Z</time>
      </trkpt>
      <trkpt lat="43.76643" lon="3.41456">
        <ele>683.1</ele>
        <time>2026-05-18T07:42:26Z</time>
      </trkpt>
      <trkpt lat="43.76642" lon="3.41443">
        <ele>682.5</ele>
        <time>2026-05-18T07:42:31Z</time>
      </trkpt>
      <trkpt lat="43.76641" lon="3.41434">
        <ele>682.1</ele>
        <time>2026-05-18T07:42:36Z</time>
      </trkpt>
      <trkpt lat="43.76637" lon="3.41425">
        <ele>681.8</ele>
        <time>2026-05-18T07:42:41Z</time>
      </trkpt>
      <trkpt lat="43.76632" lon="3.41415">
        <ele>681.6</ele>
        <time>2026-05-18T07:42:46Z</time>
      </trkpt>
      <trkpt lat="43.76628" lon="3.41405">
        <ele>681.3</ele>
        <time>2026-05-18T07:42:51Z</time>
      </trkpt>
      <trkpt lat="43.76626" lon="3.41396">
        <ele>681</ele>
        <time>2026-05-18T07:42:56Z</time>
      </trkpt>
      <trkpt lat="43.76624" lon="3.41385">
        <ele>680.5</ele>
        <time>2026-05-18T07:43:01Z</time>
      </trkpt>
      <trkpt lat="43.76622" lon="3.41376">
        <ele>680.2</ele>
        <time>2026-05-18T07:43:06Z</time>
      </trkpt>
      <trkpt lat="43.76618" lon="3.41366">
        <ele>679.8</ele>
        <time>2026-05-18T07:43:11Z</time>
      </trkpt>
      <trkpt lat="43.76615" lon="3.41357">
        <ele>679.4</ele>
        <time>2026-05-18T07:43:16Z</time>
      </trkpt>
      <trkpt lat="43.76609" lon="3.41349">
        <ele>679.2</ele>
        <time>2026-05-18T07:43:21Z</time>
      </trkpt>
      <trkpt lat="43.76602" lon="3.41339">
        <ele>678.9</ele>
        <time>2026-05-18T07:43:26Z</time>
      </trkpt>
      <trkpt lat="43.76597" lon="3.41332">
        <ele>678.7</ele>
        <time>2026-05-18T07:43:31Z</time>
      </trkpt>
      <trkpt lat="43.76593" lon="3.41323">
        <ele>678.9</ele>
        <time>2026-05-18T07:43:36Z</time>
      </trkpt>
      <trkpt lat="43.76592" lon="3.41323">
        <ele>678.9</ele>
        <time>2026-05-18T07:43:41Z</time>
      </trkpt>
      <trkpt lat="43.76598" lon="3.4133">
        <ele>678.7</ele>
        <time>2026-05-18T07:43:46Z</time>
      </trkpt>
      <trkpt lat="43.76604" lon="3.4133">
        <ele>678.6</ele>
        <time>2026-05-18T07:43:51Z</time>
      </trkpt>
      <trkpt lat="43.76612" lon="3.41324">
        <ele>678.5</ele>
        <time>2026-05-18T07:43:56Z</time>
      </trkpt>
      <trkpt lat="43.76617" lon="3.41318">
        <ele>678.6</ele>
        <time>2026-05-18T07:44:01Z</time>
      </trkpt>
      <trkpt lat="43.76622" lon="3.41311">
        <ele>678.8</ele>
        <time>2026-05-18T07:44:06Z</time>
      </trkpt>
      <trkpt lat="43.76628" lon="3.41306">
        <ele>679</ele>
        <time>2026-05-18T07:44:11Z</time>
      </trkpt>
      <trkpt lat="43.76632" lon="3.413">
        <ele>679.2</ele>
        <time>2026-05-18T07:44:16Z</time>
      </trkpt>
      <trkpt lat="43.76636" lon="3.41294">
        <ele>679.5</ele>
        <time>2026-05-18T07:44:21Z</time>
      </trkpt>
      <trkpt lat="43.76639" lon="3.41289">
        <ele>679.8</ele>
        <time>2026-05-18T07:44:26Z</time>
      </trkpt>
      <trkpt lat="43.76641" lon="3.41281">
        <ele>680.2</ele>
        <time>2026-05-18T07:44:31Z</time>
      </trkpt>
      <trkpt lat="43.76644" lon="3.41273">
        <ele>680.7</ele>
        <time>2026-05-18T07:44:36Z</time>
      </trkpt>
      <trkpt lat="43.76646" lon="3.41265">
        <ele>681.2</ele>
        <time>2026-05-18T07:44:41Z</time>
      </trkpt>
      <trkpt lat="43.7665" lon="3.41258">
        <ele>681.7</ele>
        <time>2026-05-18T07:44:46Z</time>
      </trkpt>
      <trkpt lat="43.76656" lon="3.41254">
        <ele>682.2</ele>
        <time>2026-05-18T07:44:51Z</time>
      </trkpt>
      <trkpt lat="43.76661" lon="3.41252">
        <ele>682.6</ele>
        <time>2026-05-18T07:44:56Z</time>
      </trkpt>
      <trkpt lat="43.76664" lon="3.41247">
        <ele>683.4</ele>
        <time>2026-05-18T07:45:01Z</time>
      </trkpt>
      <trkpt lat="43.76663" lon="3.41238">
        <ele>684.8</ele>
        <time>2026-05-18T07:45:06Z</time>
      </trkpt>
      <trkpt lat="43.76661" lon="3.41231">
        <ele>685.9</ele>
        <time>2026-05-18T07:45:11Z</time>
      </trkpt>
      <trkpt lat="43.7666" lon="3.41225">
        <ele>686.8</ele>
        <time>2026-05-18T07:45:16Z</time>
      </trkpt>
      <trkpt lat="43.76657" lon="3.41222">
        <ele>687.2</ele>
        <time>2026-05-18T07:45:21Z</time>
      </trkpt>
      <trkpt lat="43.76654" lon="3.41216">
        <ele>688</ele>
        <time>2026-05-18T07:45:26Z</time>
      </trkpt>
      <trkpt lat="43.76651" lon="3.41209">
        <ele>689</ele>
        <time>2026-05-18T07:45:31Z</time>
      </trkpt>
      <trkpt lat="43.76647" lon="3.41203">
        <ele>689.7</ele>
        <time>2026-05-18T07:45:36Z</time>
      </trkpt>
      <trkpt lat="43.76645" lon="3.41197">
        <ele>690.5</ele>
        <time>2026-05-18T07:45:41Z</time>
      </trkpt>
      <trkpt lat="43.76643" lon="3.41191">
        <ele>691.4</ele>
        <time>2026-05-18T07:45:46Z</time>
      </trkpt>
      <trkpt lat="43.7664" lon="3.41185">
        <ele>692.1</ele>
        <time>2026-05-18T07:45:51Z</time>
      </trkpt>
      <trkpt lat="43.76638" lon="3.41181">
        <ele>692.6</ele>
        <time>2026-05-18T07:45:56Z</time>
      </trkpt>
      <trkpt lat="43.76634" lon="3.41177">
        <ele>693</ele>
        <time>2026-05-18T07:46:01Z</time>
      </trkpt>
      <trkpt lat="43.7663" lon="3.41173">
        <ele>693.4</ele>
        <time>2026-05-18T07:46:06Z</time>
      </trkpt>
      <trkpt lat="43.76629" lon="3.4117">
        <ele>693.8</ele>
        <time>2026-05-18T07:46:11Z</time>
      </trkpt>
      <trkpt lat="43.76628" lon="3.41165">
        <ele>694.5</ele>
        <time>2026-05-18T07:46:16Z</time>
      </trkpt>
      <trkpt lat="43.76628" lon="3.41161">
        <ele>695.3</ele>
        <time>2026-05-18T07:46:21Z</time>
      </trkpt>
      <trkpt lat="43.76628" lon="3.41154">
        <ele>696.6</ele>
        <time>2026-05-18T07:46:26Z</time>
      </trkpt>
      <trkpt lat="43.76627" lon="3.41149">
        <ele>697.4</ele>
        <time>2026-05-18T07:46:31Z</time>
      </trkpt>
      <trkpt lat="43.76626" lon="3.41144">
        <ele>698.3</ele>
        <time>2026-05-18T07:46:36Z</time>
      </trkpt>
      <trkpt lat="43.76624" lon="3.4114">
        <ele>698.9</ele>
        <time>2026-05-18T07:46:41Z</time>
      </trkpt>
      <trkpt lat="43.76623" lon="3.41138">
        <ele>699.2</ele>
        <time>2026-05-18T07:46:46Z</time>
      </trkpt>
      <trkpt lat="43.76623" lon="3.41138">
        <ele>699.2</ele>
        <time>2026-05-18T07:46:51Z</time>
      </trkpt>
      <trkpt lat="43.76619" lon="3.41128">
        <ele>700.8</ele>
        <time>2026-05-18T07:46:56Z</time>
      </trkpt>
      <trkpt lat="43.76619" lon="3.41121">
        <ele>702.1</ele>
        <time>2026-05-18T07:47:01Z</time>
      </trkpt>
      <trkpt lat="43.76619" lon="3.41116">
        <ele>703</ele>
        <time>2026-05-18T07:47:06Z</time>
      </trkpt>
      <trkpt lat="43.7662" lon="3.41111">
        <ele>704</ele>
        <time>2026-05-18T07:47:11Z</time>
      </trkpt>
      <trkpt lat="43.76625" lon="3.41106">
        <ele>705.3</ele>
        <time>2026-05-18T07:47:16Z</time>
      </trkpt>
      <trkpt lat="43.7663" lon="3.411">
        <ele>706.7</ele>
        <time>2026-05-18T07:47:21Z</time>
      </trkpt>
      <trkpt lat="43.76633" lon="3.41094">
        <ele>708</ele>
        <time>2026-05-18T07:47:26Z</time>
      </trkpt>
      <trkpt lat="43.76635" lon="3.41088">
        <ele>709.2</ele>
        <time>2026-05-18T07:47:31Z</time>
      </trkpt>
      <trkpt lat="43.76635" lon="3.41084">
        <ele>710</ele>
        <time>2026-05-18T07:47:36Z</time>
      </trkpt>
      <trkpt lat="43.76634" lon="3.41081">
        <ele>710.5</ele>
        <time>2026-05-18T07:47:41Z</time>
      </trkpt>
      <trkpt lat="43.76634" lon="3.41081">
        <ele>710.5</ele>
        <time>2026-05-18T07:47:46Z</time>
      </trkpt>
      <trkpt lat="43.76634" lon="3.41081">
        <ele>710.5</ele>
        <time>2026-05-18T07:47:51Z</time>
      </trkpt>
      <trkpt lat="43.76634" lon="3.41081">
        <ele>710.5</ele>
        <time>2026-05-18T07:47:56Z</time>
      </trkpt>
      <trkpt lat="43.76634" lon="3.41081">
        <ele>710.5</ele>
        <time>2026-05-18T07:48:01Z</time>
      </trkpt>
      <trkpt lat="43.76628" lon="3.41069">
        <ele>712.3</ele>
        <time>2026-05-18T07:48:06Z</time>
      </trkpt>
      <trkpt lat="43.76626" lon="3.41065">
        <ele>713</ele>
        <time>2026-05-18T07:48:11Z</time>
      </trkpt>
      <trkpt lat="43.76623" lon="3.41063">
        <ele>713.2</ele>
        <time>2026-05-18T07:48:16Z</time>
      </trkpt>
      <trkpt lat="43.7662" lon="3.41063">
        <ele>713</ele>
        <time>2026-05-18T07:48:21Z</time>
      </trkpt>
      <trkpt lat="43.76615" lon="3.41064">
        <ele>712.5</ele>
        <time>2026-05-18T07:48:26Z</time>
      </trkpt>
      <trkpt lat="43.7661" lon="3.41065">
        <ele>712</ele>
        <time>2026-05-18T07:48:31Z</time>
      </trkpt>
      <trkpt lat="43.76606" lon="3.41064">
        <ele>712</ele>
        <time>2026-05-18T07:48:36Z</time>
      </trkpt>
      <trkpt lat="43.76602" lon="3.41064">
        <ele>711.8</ele>
        <time>2026-05-18T07:48:41Z</time>
      </trkpt>
      <trkpt lat="43.76599" lon="3.41067">
        <ele>711</ele>
        <time>2026-05-18T07:48:46Z</time>
      </trkpt>
      <trkpt lat="43.76594" lon="3.41071">
        <ele>710</ele>
        <time>2026-05-18T07:48:51Z</time>
      </trkpt>
      <trkpt lat="43.76589" lon="3.41075">
        <ele>708.9</ele>
        <time>2026-05-18T07:48:56Z</time>
      </trkpt>
      <trkpt lat="43.76586" lon="3.41077">
        <ele>708.4</ele>
        <time>2026-05-18T07:49:01Z</time>
      </trkpt>
      <trkpt lat="43.76583" lon="3.41077">
        <ele>708.2</ele>
        <time>2026-05-18T07:49:06Z</time>
      </trkpt>
      <trkpt lat="43.76578" lon="3.41078">
        <ele>707.2</ele>
        <time>2026-05-18T07:49:11Z</time>
      </trkpt>
      <trkpt lat="43.76573" lon="3.41079">
        <ele>706.3</ele>
        <time>2026-05-18T07:49:16Z</time>
      </trkpt>
      <trkpt lat="43.76569" lon="3.41078">
        <ele>705.9</ele>
        <time>2026-05-18T07:49:21Z</time>
      </trkpt>
      <trkpt lat="43.76565" lon="3.41078">
        <ele>705.3</ele>
        <time>2026-05-18T07:49:26Z</time>
      </trkpt>
      <trkpt lat="43.76562" lon="3.41076">
        <ele>705.2</ele>
        <time>2026-05-18T07:49:31Z</time>
      </trkpt>
      <trkpt lat="43.76558" lon="3.41074">
        <ele>704.9</ele>
        <time>2026-05-18T07:49:36Z</time>
      </trkpt>
      <trkpt lat="43.76554" lon="3.41073">
        <ele>704.5</ele>
        <time>2026-05-18T07:49:41Z</time>
      </trkpt>
      <trkpt lat="43.76552" lon="3.41071">
        <ele>704.5</ele>
        <time>2026-05-18T07:49:46Z</time>
      </trkpt>
      <trkpt lat="43.7655" lon="3.41069">
        <ele>704.5</ele>
        <time>2026-05-18T07:49:51Z</time>
      </trkpt>
      <trkpt lat="43.7655" lon="3.41068">
        <ele>704.7</ele>
        <time>2026-05-18T07:49:56Z</time>
      </trkpt>
      <trkpt lat="43.7655" lon="3.41068">
        <ele>704.7</ele>
        <time>2026-05-18T07:50:01Z</time>
      </trkpt>
      <trkpt lat="43.7655" lon="3.41068">
        <ele>704.7</ele>
        <time>2026-05-18T07:50:06Z</time>
      </trkpt>
      <trkpt lat="43.76545" lon="3.41055">
        <ele>706</ele>
        <time>2026-05-18T07:50:11Z</time>
      </trkpt>
      <trkpt lat="43.76544" lon="3.41055">
        <ele>705.8</ele>
        <time>2026-05-18T07:50:16Z</time>
      </trkpt>
      <trkpt lat="43.76544" lon="3.41055">
        <ele>705.8</ele>
        <time>2026-05-18T07:50:21Z</time>
      </trkpt>
      <trkpt lat="43.76543" lon="3.41045">
        <ele>707.2</ele>
        <time>2026-05-18T07:50:26Z</time>
      </trkpt>
      <trkpt lat="43.76543" lon="3.41044">
        <ele>707.4</ele>
        <time>2026-05-18T07:50:31Z</time>
      </trkpt>
      <trkpt lat="43.76542" lon="3.41039">
        <ele>708</ele>
        <time>2026-05-18T07:50:36Z</time>
      </trkpt>
      <trkpt lat="43.76541" lon="3.41035">
        <ele>708.4</ele>
        <time>2026-05-18T07:50:41Z</time>
      </trkpt>
      <trkpt lat="43.76539" lon="3.41031">
        <ele>708.7</ele>
        <time>2026-05-18T07:50:46Z</time>
      </trkpt>
      <trkpt lat="43.76538" lon="3.41027">
        <ele>709.1</ele>
        <time>2026-05-18T07:50:51Z</time>
      </trkpt>
      <trkpt lat="43.76537" lon="3.41023">
        <ele>709.5</ele>
        <time>2026-05-18T07:50:56Z</time>
      </trkpt>
      <trkpt lat="43.76536" lon="3.41018">
        <ele>710.1</ele>
        <time>2026-05-18T07:51:01Z</time>
      </trkpt>
      <trkpt lat="43.76534" lon="3.41014">
        <ele>710.3</ele>
        <time>2026-05-18T07:51:06Z</time>
      </trkpt>
      <trkpt lat="43.76533" lon="3.41009">
        <ele>710.8</ele>
        <time>2026-05-18T07:51:11Z</time>
      </trkpt>
      <trkpt lat="43.76531" lon="3.41006">
        <ele>710.8</ele>
        <time>2026-05-18T07:51:16Z</time>
      </trkpt>
      <trkpt lat="43.76529" lon="3.41003">
        <ele>710.8</ele>
        <time>2026-05-18T07:51:21Z</time>
      </trkpt>
      <trkpt lat="43.76528" lon="3.40999">
        <ele>711.1</ele>
        <time>2026-05-18T07:51:26Z</time>
      </trkpt>
      <trkpt lat="43.76529" lon="3.40995">
        <ele>711.5</ele>
        <time>2026-05-18T07:51:31Z</time>
      </trkpt>
      <trkpt lat="43.76529" lon="3.40991">
        <ele>711.8</ele>
        <time>2026-05-18T07:51:36Z</time>
      </trkpt>
      <trkpt lat="43.76526" lon="3.40986">
        <ele>711.4</ele>
        <time>2026-05-18T07:51:41Z</time>
      </trkpt>
      <trkpt lat="43.76525" lon="3.40983">
        <ele>711.3</ele>
        <time>2026-05-18T07:51:46Z</time>
      </trkpt>
      <trkpt lat="43.76524" lon="3.4098">
        <ele>711.2</ele>
        <time>2026-05-18T07:51:51Z</time>
      </trkpt>
      <trkpt lat="43.76521" lon="3.40976">
        <ele>710.8</ele>
        <time>2026-05-18T07:51:56Z</time>
      </trkpt>
      <trkpt lat="43.76518" lon="3.40971">
        <ele>710.3</ele>
        <time>2026-05-18T07:52:01Z</time>
      </trkpt>
      <trkpt lat="43.76516" lon="3.40964">
        <ele>710.2</ele>
        <time>2026-05-18T07:52:06Z</time>
      </trkpt>
      <trkpt lat="43.76515" lon="3.40958">
        <ele>710.2</ele>
        <time>2026-05-18T07:52:11Z</time>
      </trkpt>
      <trkpt lat="43.76515" lon="3.40952">
        <ele>710.5</ele>
        <time>2026-05-18T07:52:16Z</time>
      </trkpt>
      <trkpt lat="43.76513" lon="3.40948">
        <ele>710.2</ele>
        <time>2026-05-18T07:52:21Z</time>
      </trkpt>
      <trkpt lat="43.76513" lon="3.4094">
        <ele>710.5</ele>
        <time>2026-05-18T07:52:26Z</time>
      </trkpt>
      <trkpt lat="43.76513" lon="3.40934">
        <ele>710.8</ele>
        <time>2026-05-18T07:52:31Z</time>
      </trkpt>
      <trkpt lat="43.76513" lon="3.40929">
        <ele>711</ele>
        <time>2026-05-18T07:52:36Z</time>
      </trkpt>
      <trkpt lat="43.76512" lon="3.40924">
        <ele>711</ele>
        <time>2026-05-18T07:52:41Z</time>
      </trkpt>
      <trkpt lat="43.76512" lon="3.40919">
        <ele>711.2</ele>
        <time>2026-05-18T07:52:46Z</time>
      </trkpt>
      <trkpt lat="43.7651" lon="3.40914">
        <ele>710.7</ele>
        <time>2026-05-18T07:52:51Z</time>
      </trkpt>
      <trkpt lat="43.76512" lon="3.40909">
        <ele>711.1</ele>
        <time>2026-05-18T07:52:56Z</time>
      </trkpt>
      <trkpt lat="43.76513" lon="3.40905">
        <ele>711.3</ele>
        <time>2026-05-18T07:53:01Z</time>
      </trkpt>
      <trkpt lat="43.76516" lon="3.40901">
        <ele>712.1</ele>
        <time>2026-05-18T07:53:06Z</time>
      </trkpt>
      <trkpt lat="43.76518" lon="3.40896">
        <ele>712.5</ele>
        <time>2026-05-18T07:53:11Z</time>
      </trkpt>
      <trkpt lat="43.76519" lon="3.40894">
        <ele>712.8</ele>
        <time>2026-05-18T07:53:16Z</time>
      </trkpt>
      <trkpt lat="43.76519" lon="3.40894">
        <ele>712.8</ele>
        <time>2026-05-18T07:53:21Z</time>
      </trkpt>
      <trkpt lat="43.7652" lon="3.4089">
        <ele>713</ele>
        <time>2026-05-18T07:53:26Z</time>
      </trkpt>
      <trkpt lat="43.76524" lon="3.40886">
        <ele>714.2</ele>
        <time>2026-05-18T07:53:31Z</time>
      </trkpt>
      <trkpt lat="43.76526" lon="3.40883">
        <ele>714.7</ele>
        <time>2026-05-18T07:53:36Z</time>
      </trkpt>
      <trkpt lat="43.76528" lon="3.40877">
        <ele>715.3</ele>
        <time>2026-05-18T07:53:41Z</time>
      </trkpt>
      <trkpt lat="43.7653" lon="3.40873">
        <ele>715.8</ele>
        <time>2026-05-18T07:53:46Z</time>
      </trkpt>
      <trkpt lat="43.76532" lon="3.40868">
        <ele>716.4</ele>
        <time>2026-05-18T07:53:51Z</time>
      </trkpt>
      <trkpt lat="43.76534" lon="3.40863">
        <ele>717</ele>
        <time>2026-05-18T07:53:56Z</time>
      </trkpt>
      <trkpt lat="43.76535" lon="3.40856">
        <ele>717.3</ele>
        <time>2026-05-18T07:54:01Z</time>
      </trkpt>
      <trkpt lat="43.76537" lon="3.4085">
        <ele>717.9</ele>
        <time>2026-05-18T07:54:06Z</time>
      </trkpt>
      <trkpt lat="43.76541" lon="3.40849">
        <ele>719.3</ele>
        <time>2026-05-18T07:54:11Z</time>
      </trkpt>
      <trkpt lat="43.76545" lon="3.40848">
        <ele>720.6</ele>
        <time>2026-05-18T07:54:16Z</time>
      </trkpt>
      <trkpt lat="43.76548" lon="3.40846">
        <ele>721.6</ele>
        <time>2026-05-18T07:54:21Z</time>
      </trkpt>
      <trkpt lat="43.7655" lon="3.40842">
        <ele>722.3</ele>
        <time>2026-05-18T07:54:26Z</time>
      </trkpt>
      <trkpt lat="43.76553" lon="3.40839">
        <ele>723.4</ele>
        <time>2026-05-18T07:54:31Z</time>
      </trkpt>
      <trkpt lat="43.76556" lon="3.40835">
        <ele>724.5</ele>
        <time>2026-05-18T07:54:36Z</time>
      </trkpt>
      <trkpt lat="43.76558" lon="3.40832">
        <ele>725.2</ele>
        <time>2026-05-18T07:54:41Z</time>
      </trkpt>
      <trkpt lat="43.7656" lon="3.40831">
        <ele>725.9</ele>
        <time>2026-05-18T07:54:46Z</time>
      </trkpt>
      <trkpt lat="43.76563" lon="3.40829">
        <ele>726.9</ele>
        <time>2026-05-18T07:54:51Z</time>
      </trkpt>
      <trkpt lat="43.76564" lon="3.40827">
        <ele>727.3</ele>
        <time>2026-05-18T07:54:56Z</time>
      </trkpt>
      <trkpt lat="43.76565" lon="3.40823">
        <ele>727.6</ele>
        <time>2026-05-18T07:55:01Z</time>
      </trkpt>
      <trkpt lat="43.76567" lon="3.40818">
        <ele>728.4</ele>
        <time>2026-05-18T07:55:06Z</time>
      </trkpt>
      <trkpt lat="43.76569" lon="3.40814">
        <ele>729.1</ele>
        <time>2026-05-18T07:55:11Z</time>
      </trkpt>
      <trkpt lat="43.7657" lon="3.40811">
        <ele>729.5</ele>
        <time>2026-05-18T07:55:16Z</time>
      </trkpt>
      <trkpt lat="43.76572" lon="3.4081">
        <ele>730.2</ele>
        <time>2026-05-18T07:55:21Z</time>
      </trkpt>
      <trkpt lat="43.76573" lon="3.4081">
        <ele>730.5</ele>
        <time>2026-05-18T07:55:26Z</time>
      </trkpt>
      <trkpt lat="43.76573" lon="3.4081">
        <ele>730.5</ele>
        <time>2026-05-18T07:55:31Z</time>
      </trkpt>
      <trkpt lat="43.76573" lon="3.4081">
        <ele>730.5</ele>
        <time>2026-05-18T07:55:36Z</time>
      </trkpt>
      <trkpt lat="43.76573" lon="3.4081">
        <ele>730.5</ele>
        <time>2026-05-18T07:55:41Z</time>
      </trkpt>
      <trkpt lat="43.76573" lon="3.4081">
        <ele>730.5</ele>
        <time>2026-05-18T07:55:46Z</time>
      </trkpt>
      <trkpt lat="43.76573" lon="3.4081">
        <ele>730.5</ele>
        <time>2026-05-18T07:55:51Z</time>
      </trkpt>
      <trkpt lat="43.76581" lon="3.40803">
        <ele>733.5</ele>
        <time>2026-05-18T07:55:56Z</time>
      </trkpt>
      <trkpt lat="43.76582" lon="3.40803">
        <ele>733.9</ele>
        <time>2026-05-18T07:56:01Z</time>
      </trkpt>
      <trkpt lat="43.76582" lon="3.40803">
        <ele>733.9</ele>
        <time>2026-05-18T07:56:06Z</time>
      </trkpt>
      <trkpt lat="43.76582" lon="3.40803">
        <ele>733.9</ele>
        <time>2026-05-18T07:56:11Z</time>
      </trkpt>
      <trkpt lat="43.76582" lon="3.40803">
        <ele>733.9</ele>
        <time>2026-05-18T07:56:16Z</time>
      </trkpt>
      <trkpt lat="43.76582" lon="3.40803">
        <ele>733.9</ele>
        <time>2026-05-18T07:56:21Z</time>
      </trkpt>
      <trkpt lat="43.76582" lon="3.40803">
        <ele>733.9</ele>
        <time>2026-05-18T07:56:26Z</time>
      </trkpt>
      <trkpt lat="43.76586" lon="3.40798">
        <ele>734.9</ele>
        <time>2026-05-18T07:56:31Z</time>
      </trkpt>
      <trkpt lat="43.76591" lon="3.40792">
        <ele>736</ele>
        <time>2026-05-18T07:56:36Z</time>
      </trkpt>
      <trkpt lat="43.76596" lon="3.40788">
        <ele>737.1</ele>
        <time>2026-05-18T07:56:41Z</time>
      </trkpt>
      <trkpt lat="43.76603" lon="3.40787">
        <ele>738.5</ele>
        <time>2026-05-18T07:56:46Z</time>
      </trkpt>
      <trkpt lat="43.7661" lon="3.40785">
        <ele>739.9</ele>
        <time>2026-05-18T07:56:51Z</time>
      </trkpt>
      <trkpt lat="43.76614" lon="3.40783">
        <ele>740.8</ele>
        <time>2026-05-18T07:56:56Z</time>
      </trkpt>
      <trkpt lat="43.76618" lon="3.4078">
        <ele>741.7</ele>
        <time>2026-05-18T07:57:01Z</time>
      </trkpt>
      <trkpt lat="43.76621" lon="3.40777">
        <ele>742.4</ele>
        <time>2026-05-18T07:57:06Z</time>
      </trkpt>
      <trkpt lat="43.76625" lon="3.40776">
        <ele>743.2</ele>
        <time>2026-05-18T07:57:11Z</time>
      </trkpt>
      <trkpt lat="43.76632" lon="3.40775">
        <ele>744.7</ele>
        <time>2026-05-18T07:57:16Z</time>
      </trkpt>
      <trkpt lat="43.7664" lon="3.40778">
        <ele>746.2</ele>
        <time>2026-05-18T07:57:21Z</time>
      </trkpt>
      <trkpt lat="43.76646" lon="3.40777">
        <ele>747.5</ele>
        <time>2026-05-18T07:57:26Z</time>
      </trkpt>
      <trkpt lat="43.76649" lon="3.40774">
        <ele>748.2</ele>
        <time>2026-05-18T07:57:31Z</time>
      </trkpt>
      <trkpt lat="43.7665" lon="3.40773">
        <ele>748.5</ele>
        <time>2026-05-18T07:57:36Z</time>
      </trkpt>
      <trkpt lat="43.7665" lon="3.40773">
        <ele>748.5</ele>
        <time>2026-05-18T07:57:41Z</time>
      </trkpt>
      <trkpt lat="43.7665" lon="3.40773">
        <ele>748.5</ele>
        <time>2026-05-18T07:57:46Z</time>
      </trkpt>
      <trkpt lat="43.7665" lon="3.40773">
        <ele>748.5</ele>
        <time>2026-05-18T07:57:51Z</time>
      </trkpt>
      <trkpt lat="43.7665" lon="3.40773">
        <ele>748.5</ele>
        <time>2026-05-18T07:57:56Z</time>
      </trkpt>
      <trkpt lat="43.7665" lon="3.40773">
        <ele>748.5</ele>
        <time>2026-05-18T07:58:01Z</time>
      </trkpt>
      <trkpt lat="43.7665" lon="3.40773">
        <ele>748.5</ele>
        <time>2026-05-18T07:58:06Z</time>
      </trkpt>
      <trkpt lat="43.7665" lon="3.40773">
        <ele>748.5</ele>
        <time>2026-05-18T07:58:11Z</time>
      </trkpt>
      <trkpt lat="43.76645" lon="3.40776">
        <ele>747.3</ele>
        <time>2026-05-18T07:58:16Z</time>
      </trkpt>
      <trkpt lat="43.7664" lon="3.40776">
        <ele>746.3</ele>
        <time>2026-05-18T07:58:21Z</time>
      </trkpt>
      <trkpt lat="43.76636" lon="3.40774">
        <ele>745.5</ele>
        <time>2026-05-18T07:58:26Z</time>
      </trkpt>
      <trkpt lat="43.7663" lon="3.40776">
        <ele>744.2</ele>
        <time>2026-05-18T07:58:31Z</time>
      </trkpt>
      <trkpt lat="43.76624" lon="3.40779">
        <ele>742.9</ele>
        <time>2026-05-18T07:58:36Z</time>
      </trkpt>
      <trkpt lat="43.76618" lon="3.40782">
        <ele>741.6</ele>
        <time>2026-05-18T07:58:41Z</time>
      </trkpt>
      <trkpt lat="43.76614" lon="3.40785">
        <ele>740.7</ele>
        <time>2026-05-18T07:58:46Z</time>
      </trkpt>
      <trkpt lat="43.76608" lon="3.40785">
        <ele>739.5</ele>
        <time>2026-05-18T07:58:51Z</time>
      </trkpt>
      <trkpt lat="43.76603" lon="3.40788">
        <ele>738.5</ele>
        <time>2026-05-18T07:58:56Z</time>
      </trkpt>
      <trkpt lat="43.76597" lon="3.40789">
        <ele>737.3</ele>
        <time>2026-05-18T07:59:01Z</time>
      </trkpt>
      <trkpt lat="43.76592" lon="3.40791">
        <ele>736.2</ele>
        <time>2026-05-18T07:59:06Z</time>
      </trkpt>
      <trkpt lat="43.76586" lon="3.40796">
        <ele>735</ele>
        <time>2026-05-18T07:59:11Z</time>
      </trkpt>
      <trkpt lat="43.76585" lon="3.40796">
        <ele>734.8</ele>
        <time>2026-05-18T07:59:16Z</time>
      </trkpt>
      <trkpt lat="43.76589" lon="3.40792">
        <ele>735.6</ele>
        <time>2026-05-18T07:59:21Z</time>
      </trkpt>
      <trkpt lat="43.76596" lon="3.40789">
        <ele>737.1</ele>
        <time>2026-05-18T07:59:26Z</time>
      </trkpt>
      <trkpt lat="43.76603" lon="3.40786">
        <ele>738.5</ele>
        <time>2026-05-18T07:59:31Z</time>
      </trkpt>
      <trkpt lat="43.76611" lon="3.40785">
        <ele>740.1</ele>
        <time>2026-05-18T07:59:36Z</time>
      </trkpt>
      <trkpt lat="43.76614" lon="3.40782">
        <ele>740.8</ele>
        <time>2026-05-18T07:59:41Z</time>
      </trkpt>
      <trkpt lat="43.76617" lon="3.40781">
        <ele>741.4</ele>
        <time>2026-05-18T07:59:46Z</time>
      </trkpt>
      <trkpt lat="43.76621" lon="3.40778">
        <ele>742.3</ele>
        <time>2026-05-18T07:59:51Z</time>
      </trkpt>
      <trkpt lat="43.76628" lon="3.40775">
        <ele>743.9</ele>
        <time>2026-05-18T07:59:56Z</time>
      </trkpt>
      <trkpt lat="43.76637" lon="3.40775">
        <ele>745.7</ele>
        <time>2026-05-18T08:00:01Z</time>
      </trkpt>
      <trkpt lat="43.76643" lon="3.40775">
        <ele>746.9</ele>
        <time>2026-05-18T08:00:06Z</time>
      </trkpt>
      <trkpt lat="43.76647" lon="3.40774">
        <ele>747.8</ele>
        <time>2026-05-18T08:00:11Z</time>
      </trkpt>
      <trkpt lat="43.76649" lon="3.40772">
        <ele>748.3</ele>
        <time>2026-05-18T08:00:16Z</time>
      </trkpt>
      <trkpt lat="43.76652" lon="3.40769">
        <ele>749</ele>
        <time>2026-05-18T08:00:21Z</time>
      </trkpt>
      <trkpt lat="43.76655" lon="3.40767">
        <ele>749.7</ele>
        <time>2026-05-18T08:00:26Z</time>
      </trkpt>
      <trkpt lat="43.76659" lon="3.40761">
        <ele>750.9</ele>
        <time>2026-05-18T08:00:31Z</time>
      </trkpt>
      <trkpt lat="43.76665" lon="3.40755">
        <ele>752.4</ele>
        <time>2026-05-18T08:00:36Z</time>
      </trkpt>
      <trkpt lat="43.76671" lon="3.4075">
        <ele>752.6</ele>
        <time>2026-05-18T08:00:41Z</time>
      </trkpt>
      <trkpt lat="43.76674" lon="3.40746">
        <ele>752.1</ele>
        <time>2026-05-18T08:00:46Z</time>
      </trkpt>
      <trkpt lat="43.76679" lon="3.40743">
        <ele>751.4</ele>
        <time>2026-05-18T08:00:51Z</time>
      </trkpt>
      <trkpt lat="43.76681" lon="3.40743">
        <ele>751.3</ele>
        <time>2026-05-18T08:00:56Z</time>
      </trkpt>
      <trkpt lat="43.76682" lon="3.40743">
        <ele>751.2</ele>
        <time>2026-05-18T08:01:01Z</time>
      </trkpt>
      <trkpt lat="43.76682" lon="3.40743">
        <ele>751.2</ele>
        <time>2026-05-18T08:01:06Z</time>
      </trkpt>
      <trkpt lat="43.76682" lon="3.40743">
        <ele>751.2</ele>
        <time>2026-05-18T08:01:11Z</time>
      </trkpt>
      <trkpt lat="43.76687" lon="3.40737">
        <ele>750.4</ele>
        <time>2026-05-18T08:01:16Z</time>
      </trkpt>
      <trkpt lat="43.7669" lon="3.40734">
        <ele>749.9</ele>
        <time>2026-05-18T08:01:21Z</time>
      </trkpt>
      <trkpt lat="43.76692" lon="3.40729">
        <ele>749.4</ele>
        <time>2026-05-18T08:01:26Z</time>
      </trkpt>
      <trkpt lat="43.76694" lon="3.40728">
        <ele>749.2</ele>
        <time>2026-05-18T08:01:31Z</time>
      </trkpt>
      <trkpt lat="43.76694" lon="3.40729">
        <ele>749.3</ele>
        <time>2026-05-18T08:01:36Z</time>
      </trkpt>
      <trkpt lat="43.76694" lon="3.40729">
        <ele>749.3</ele>
        <time>2026-05-18T08:01:41Z</time>
      </trkpt>
      <trkpt lat="43.76694" lon="3.40729">
        <ele>749.3</ele>
        <time>2026-05-18T08:01:46Z</time>
      </trkpt>
      <trkpt lat="43.76694" lon="3.40729">
        <ele>749.3</ele>
        <time>2026-05-18T08:01:51Z</time>
      </trkpt>
      <trkpt lat="43.76694" lon="3.40729">
        <ele>749.3</ele>
        <time>2026-05-18T08:01:56Z</time>
      </trkpt>
      <trkpt lat="43.76694" lon="3.40729">
        <ele>749.3</ele>
        <time>2026-05-18T08:02:01Z</time>
      </trkpt>
      <trkpt lat="43.76692" lon="3.40724">
        <ele>749.1</ele>
        <time>2026-05-18T08:02:06Z</time>
      </trkpt>
      <trkpt lat="43.76692" lon="3.4072">
        <ele>748.8</ele>
        <time>2026-05-18T08:02:11Z</time>
      </trkpt>
      <trkpt lat="43.76692" lon="3.4072">
        <ele>748.8</ele>
        <time>2026-05-18T08:02:16Z</time>
      </trkpt>
      <trkpt lat="43.76692" lon="3.4072">
        <ele>748.8</ele>
        <time>2026-05-18T08:02:21Z</time>
      </trkpt>
      <trkpt lat="43.76692" lon="3.4072">
        <ele>748.8</ele>
        <time>2026-05-18T08:02:26Z</time>
      </trkpt>
      <trkpt lat="43.76692" lon="3.4072">
        <ele>748.8</ele>
        <time>2026-05-18T08:02:31Z</time>
      </trkpt>
      <trkpt lat="43.76692" lon="3.4072">
        <ele>748.8</ele>
        <time>2026-05-18T08:02:36Z</time>
      </trkpt>
      <trkpt lat="43.76684" lon="3.4072">
        <ele>749.3</ele>
        <time>2026-05-18T08:02:41Z</time>
      </trkpt>
      <trkpt lat="43.7668" lon="3.40715">
        <ele>749.2</ele>
        <time>2026-05-18T08:02:46Z</time>
      </trkpt>
      <trkpt lat="43.76675" lon="3.40711">
        <ele>749.2</ele>
        <time>2026-05-18T08:02:51Z</time>
      </trkpt>
      <trkpt lat="43.76673" lon="3.40705">
        <ele>748.9</ele>
        <time>2026-05-18T08:02:56Z</time>
      </trkpt>
      <trkpt lat="43.76671" lon="3.40695">
        <ele>748.2</ele>
        <time>2026-05-18T08:03:01Z</time>
      </trkpt>
      <trkpt lat="43.7667" lon="3.40686">
        <ele>747.5</ele>
        <time>2026-05-18T08:03:06Z</time>
      </trkpt>
      <trkpt lat="43.76668" lon="3.40679">
        <ele>747</ele>
        <time>2026-05-18T08:03:11Z</time>
      </trkpt>
      <trkpt lat="43.76665" lon="3.40676">
        <ele>746.5</ele>
        <time>2026-05-18T08:03:16Z</time>
      </trkpt>
      <trkpt lat="43.76659" lon="3.40676">
        <ele>745.4</ele>
        <time>2026-05-18T08:03:21Z</time>
      </trkpt>
      <trkpt lat="43.76653" lon="3.40674">
        <ele>744.1</ele>
        <time>2026-05-18T08:03:26Z</time>
      </trkpt>
      <trkpt lat="43.76647" lon="3.40672">
        <ele>742.9</ele>
        <time>2026-05-18T08:03:31Z</time>
      </trkpt>
      <trkpt lat="43.76646" lon="3.40667">
        <ele>742.3</ele>
        <time>2026-05-18T08:03:36Z</time>
      </trkpt>
      <trkpt lat="43.76643" lon="3.40664">
        <ele>741.6</ele>
        <time>2026-05-18T08:03:41Z</time>
      </trkpt>
      <trkpt lat="43.76638" lon="3.40658">
        <ele>740.3</ele>
        <time>2026-05-18T08:03:46Z</time>
      </trkpt>
      <trkpt lat="43.76635" lon="3.40651">
        <ele>739.4</ele>
        <time>2026-05-18T08:03:51Z</time>
      </trkpt>
      <trkpt lat="43.76635" lon="3.40646">
        <ele>739.1</ele>
        <time>2026-05-18T08:03:56Z</time>
      </trkpt>
      <trkpt lat="43.76635" lon="3.4064">
        <ele>738.7</ele>
        <time>2026-05-18T08:04:01Z</time>
      </trkpt>
      <trkpt lat="43.76635" lon="3.40632">
        <ele>738.3</ele>
        <time>2026-05-18T08:04:06Z</time>
      </trkpt>
      <trkpt lat="43.76633" lon="3.40627">
        <ele>737.7</ele>
        <time>2026-05-18T08:04:11Z</time>
      </trkpt>
      <trkpt lat="43.7663" lon="3.40622">
        <ele>736.9</ele>
        <time>2026-05-18T08:04:16Z</time>
      </trkpt>
      <trkpt lat="43.76629" lon="3.40613">
        <ele>736.2</ele>
        <time>2026-05-18T08:04:21Z</time>
      </trkpt>
      <trkpt lat="43.76626" lon="3.40605">
        <ele>735.3</ele>
        <time>2026-05-18T08:04:26Z</time>
      </trkpt>
      <trkpt lat="43.76624" lon="3.40596">
        <ele>734.5</ele>
        <time>2026-05-18T08:04:31Z</time>
      </trkpt>
      <trkpt lat="43.7662" lon="3.4059">
        <ele>733.6</ele>
        <time>2026-05-18T08:04:36Z</time>
      </trkpt>
      <trkpt lat="43.76619" lon="3.40588">
        <ele>733.4</ele>
        <time>2026-05-18T08:04:41Z</time>
      </trkpt>
      <trkpt lat="43.76618" lon="3.40587">
        <ele>733.2</ele>
        <time>2026-05-18T08:04:46Z</time>
      </trkpt>
      <trkpt lat="43.76618" lon="3.40587">
        <ele>733.2</ele>
        <time>2026-05-18T08:04:51Z</time>
      </trkpt>
      <trkpt lat="43.76618" lon="3.40587">
        <ele>733.2</ele>
        <time>2026-05-18T08:04:56Z</time>
      </trkpt>
      <trkpt lat="43.76618" lon="3.40587">
        <ele>733.2</ele>
        <time>2026-05-18T08:05:01Z</time>
      </trkpt>
      <trkpt lat="43.76618" lon="3.40587">
        <ele>733.2</ele>
        <time>2026-05-18T08:05:06Z</time>
      </trkpt>
      <trkpt lat="43.76618" lon="3.40587">
        <ele>733.2</ele>
        <time>2026-05-18T08:05:11Z</time>
      </trkpt>
      <trkpt lat="43.76618" lon="3.40587">
        <ele>733.2</ele>
        <time>2026-05-18T08:05:16Z</time>
      </trkpt>
      <trkpt lat="43.76618" lon="3.40587">
        <ele>733.2</ele>
        <time>2026-05-18T08:05:21Z</time>
      </trkpt>
      <trkpt lat="43.76618" lon="3.40587">
        <ele>733.2</ele>
        <time>2026-05-18T08:05:26Z</time>
      </trkpt>
      <trkpt lat="43.76618" lon="3.40587">
        <ele>733.2</ele>
        <time>2026-05-18T08:05:31Z</time>
      </trkpt>
      <trkpt lat="43.76618" lon="3.40587">
        <ele>733.2</ele>
        <time>2026-05-18T08:05:36Z</time>
      </trkpt>
      <trkpt lat="43.76618" lon="3.40587">
        <ele>733.2</ele>
        <time>2026-05-18T08:05:41Z</time>
      </trkpt>
      <trkpt lat="43.76618" lon="3.40587">
        <ele>733.2</ele>
        <time>2026-05-18T08:05:46Z</time>
      </trkpt>
      <trkpt lat="43.76618" lon="3.40587">
        <ele>733.2</ele>
        <time>2026-05-18T08:05:51Z</time>
      </trkpt>
      <trkpt lat="43.76618" lon="3.40587">
        <ele>733.2</ele>
        <time>2026-05-18T08:05:56Z</time>
      </trkpt>
      <trkpt lat="43.76618" lon="3.40587">
        <ele>733.2</ele>
        <time>2026-05-18T08:06:01Z</time>
      </trkpt>
      <trkpt lat="43.76615" lon="3.40584">
        <ele>732.6</ele>
        <time>2026-05-18T08:06:06Z</time>
      </trkpt>
      <trkpt lat="43.76613" lon="3.40579">
        <ele>731.9</ele>
        <time>2026-05-18T08:06:11Z</time>
      </trkpt>
      <trkpt lat="43.7661" lon="3.40574">
        <ele>731.1</ele>
        <time>2026-05-18T08:06:16Z</time>
      </trkpt>
      <trkpt lat="43.76607" lon="3.40569">
        <ele>730.3</ele>
        <time>2026-05-18T08:06:21Z</time>
      </trkpt>
      <trkpt lat="43.76606" lon="3.40567">
        <ele>730</ele>
        <time>2026-05-18T08:06:26Z</time>
      </trkpt>
      <trkpt lat="43.76606" lon="3.40562">
        <ele>729.6</ele>
        <time>2026-05-18T08:06:31Z</time>
      </trkpt>
      <trkpt lat="43.76605" lon="3.40557">
        <ele>729.1</ele>
        <time>2026-05-18T08:06:36Z</time>
      </trkpt>
      <trkpt lat="43.76604" lon="3.40553">
        <ele>728.7</ele>
        <time>2026-05-18T08:06:41Z</time>
      </trkpt>
      <trkpt lat="43.76602" lon="3.40548">
        <ele>728.1</ele>
        <time>2026-05-18T08:06:46Z</time>
      </trkpt>
      <trkpt lat="43.76603" lon="3.40541">
        <ele>727.7</ele>
        <time>2026-05-18T08:06:51Z</time>
      </trkpt>
      <trkpt lat="43.76605" lon="3.40533">
        <ele>727.3</ele>
        <time>2026-05-18T08:06:56Z</time>
      </trkpt>
      <trkpt lat="43.76606" lon="3.40528">
        <ele>727</ele>
        <time>2026-05-18T08:07:01Z</time>
      </trkpt>
      <trkpt lat="43.76607" lon="3.40525">
        <ele>726.9</ele>
        <time>2026-05-18T08:07:06Z</time>
      </trkpt>
      <trkpt lat="43.76607" lon="3.40525">
        <ele>726.9</ele>
        <time>2026-05-18T08:07:11Z</time>
      </trkpt>
      <trkpt lat="43.76607" lon="3.40525">
        <ele>726.9</ele>
        <time>2026-05-18T08:07:16Z</time>
      </trkpt>
      <trkpt lat="43.76607" lon="3.40525">
        <ele>726.9</ele>
        <time>2026-05-18T08:07:21Z</time>
      </trkpt>
      <trkpt lat="43.76607" lon="3.40525">
        <ele>726.9</ele>
        <time>2026-05-18T08:07:26Z</time>
      </trkpt>
      <trkpt lat="43.76607" lon="3.40525">
        <ele>726.9</ele>
        <time>2026-05-18T08:07:31Z</time>
      </trkpt>
      <trkpt lat="43.76607" lon="3.40525">
        <ele>726.9</ele>
        <time>2026-05-18T08:07:36Z</time>
      </trkpt>
      <trkpt lat="43.76607" lon="3.40525">
        <ele>726.9</ele>
        <time>2026-05-18T08:07:41Z</time>
      </trkpt>
      <trkpt lat="43.76602" lon="3.40517">
        <ele>725.8</ele>
        <time>2026-05-18T08:07:46Z</time>
      </trkpt>
      <trkpt lat="43.766" lon="3.40512">
        <ele>725.3</ele>
        <time>2026-05-18T08:07:51Z</time>
      </trkpt>
      <trkpt lat="43.76598" lon="3.40509">
        <ele>724.9</ele>
        <time>2026-05-18T08:07:56Z</time>
      </trkpt>
      <trkpt lat="43.76592" lon="3.40507">
        <ele>724.2</ele>
        <time>2026-05-18T08:08:01Z</time>
      </trkpt>
      <trkpt lat="43.76589" lon="3.40504">
        <ele>723.7</ele>
        <time>2026-05-18T08:08:06Z</time>
      </trkpt>
      <trkpt lat="43.76586" lon="3.40497">
        <ele>722.8</ele>
        <time>2026-05-18T08:08:11Z</time>
      </trkpt>
      <trkpt lat="43.76584" lon="3.40495">
        <ele>722.4</ele>
        <time>2026-05-18T08:08:16Z</time>
      </trkpt>
      <trkpt lat="43.76583" lon="3.40489">
        <ele>721.4</ele>
        <time>2026-05-18T08:08:21Z</time>
      </trkpt>
      <trkpt lat="43.76583" lon="3.40483">
        <ele>720.6</ele>
        <time>2026-05-18T08:08:26Z</time>
      </trkpt>
      <trkpt lat="43.7658" lon="3.40477">
        <ele>718.9</ele>
        <time>2026-05-18T08:08:31Z</time>
      </trkpt>
      <trkpt lat="43.76577" lon="3.40473">
        <ele>717.4</ele>
        <time>2026-05-18T08:08:36Z</time>
      </trkpt>
      <trkpt lat="43.76577" lon="3.40465">
        <ele>716.4</ele>
        <time>2026-05-18T08:08:41Z</time>
      </trkpt>
      <trkpt lat="43.76576" lon="3.40456">
        <ele>714.9</ele>
        <time>2026-05-18T08:08:46Z</time>
      </trkpt>
      <trkpt lat="43.76575" lon="3.40448">
        <ele>713.6</ele>
        <time>2026-05-18T08:08:51Z</time>
      </trkpt>
      <trkpt lat="43.76573" lon="3.40444">
        <ele>712.4</ele>
        <time>2026-05-18T08:08:56Z</time>
      </trkpt>
      <trkpt lat="43.7657" lon="3.40439">
        <ele>710.9</ele>
        <time>2026-05-18T08:09:01Z</time>
      </trkpt>
      <trkpt lat="43.76565" lon="3.40435">
        <ele>708.8</ele>
        <time>2026-05-18T08:09:06Z</time>
      </trkpt>
      <trkpt lat="43.76562" lon="3.40431">
        <ele>707.4</ele>
        <time>2026-05-18T08:09:11Z</time>
      </trkpt>
      <trkpt lat="43.76559" lon="3.40426">
        <ele>705.9</ele>
        <time>2026-05-18T08:09:16Z</time>
      </trkpt>
      <trkpt lat="43.76559" lon="3.40422">
        <ele>705.4</ele>
        <time>2026-05-18T08:09:21Z</time>
      </trkpt>
      <trkpt lat="43.76559" lon="3.40413">
        <ele>704.1</ele>
        <time>2026-05-18T08:09:26Z</time>
      </trkpt>
      <trkpt lat="43.76559" lon="3.40405">
        <ele>702.8</ele>
        <time>2026-05-18T08:09:31Z</time>
      </trkpt>
      <trkpt lat="43.76562" lon="3.40396">
        <ele>702.3</ele>
        <time>2026-05-18T08:09:36Z</time>
      </trkpt>
      <trkpt lat="43.76561" lon="3.40389">
        <ele>700.8</ele>
        <time>2026-05-18T08:09:41Z</time>
      </trkpt>
      <trkpt lat="43.76557" lon="3.40387">
        <ele>699.3</ele>
        <time>2026-05-18T08:09:46Z</time>
      </trkpt>
      <trkpt lat="43.76554" lon="3.40384">
        <ele>698</ele>
        <time>2026-05-18T08:09:51Z</time>
      </trkpt>
      <trkpt lat="43.76551" lon="3.40379">
        <ele>696.3</ele>
        <time>2026-05-18T08:09:56Z</time>
      </trkpt>
      <trkpt lat="43.7655" lon="3.40372">
        <ele>694.9</ele>
        <time>2026-05-18T08:10:01Z</time>
      </trkpt>
      <trkpt lat="43.76545" lon="3.40365">
        <ele>692.4</ele>
        <time>2026-05-18T08:10:06Z</time>
      </trkpt>
      <trkpt lat="43.76543" lon="3.40359">
        <ele>690.9</ele>
        <time>2026-05-18T08:10:11Z</time>
      </trkpt>
      <trkpt lat="43.76543" lon="3.40353">
        <ele>689.9</ele>
        <time>2026-05-18T08:10:16Z</time>
      </trkpt>
      <trkpt lat="43.76544" lon="3.40346">
        <ele>689.1</ele>
        <time>2026-05-18T08:10:21Z</time>
      </trkpt>
      <trkpt lat="43.76545" lon="3.4034">
        <ele>688.5</ele>
        <time>2026-05-18T08:10:26Z</time>
      </trkpt>
      <trkpt lat="43.76547" lon="3.40332">
        <ele>688</ele>
        <time>2026-05-18T08:10:31Z</time>
      </trkpt>
      <trkpt lat="43.76548" lon="3.40327">
        <ele>688.2</ele>
        <time>2026-05-18T08:10:36Z</time>
      </trkpt>
      <trkpt lat="43.7655" lon="3.40322">
        <ele>688.7</ele>
        <time>2026-05-18T08:10:41Z</time>
      </trkpt>
      <trkpt lat="43.7655" lon="3.40313">
        <ele>688.7</ele>
        <time>2026-05-18T08:10:46Z</time>
      </trkpt>
      <trkpt lat="43.7655" lon="3.40306">
        <ele>688.6</ele>
        <time>2026-05-18T08:10:51Z</time>
      </trkpt>
      <trkpt lat="43.76548" lon="3.40298">
        <ele>688.1</ele>
        <time>2026-05-18T08:10:56Z</time>
      </trkpt>
      <trkpt lat="43.76548" lon="3.40293">
        <ele>688</ele>
        <time>2026-05-18T08:11:01Z</time>
      </trkpt>
      <trkpt lat="43.76547" lon="3.40284">
        <ele>687.7</ele>
        <time>2026-05-18T08:11:06Z</time>
      </trkpt>
      <trkpt lat="43.76545" lon="3.40275">
        <ele>687.3</ele>
        <time>2026-05-18T08:11:11Z</time>
      </trkpt>
      <trkpt lat="43.76543" lon="3.40266">
        <ele>686.8</ele>
        <time>2026-05-18T08:11:16Z</time>
      </trkpt>
      <trkpt lat="43.76542" lon="3.40258">
        <ele>686.6</ele>
        <time>2026-05-18T08:11:21Z</time>
      </trkpt>
      <trkpt lat="43.76542" lon="3.4025">
        <ele>686.6</ele>
        <time>2026-05-18T08:11:26Z</time>
      </trkpt>
      <trkpt lat="43.7654" lon="3.40243">
        <ele>686.8</ele>
        <time>2026-05-18T08:11:31Z</time>
      </trkpt>
      <trkpt lat="43.76537" lon="3.40237">
        <ele>686.8</ele>
        <time>2026-05-18T08:11:36Z</time>
      </trkpt>
      <trkpt lat="43.76534" lon="3.40228">
        <ele>687.2</ele>
        <time>2026-05-18T08:11:41Z</time>
      </trkpt>
      <trkpt lat="43.76532" lon="3.40223">
        <ele>687.4</ele>
        <time>2026-05-18T08:11:46Z</time>
      </trkpt>
      <trkpt lat="43.7653" lon="3.40216">
        <ele>687.9</ele>
        <time>2026-05-18T08:11:51Z</time>
      </trkpt>
      <trkpt lat="43.76526" lon="3.4021">
        <ele>688.1</ele>
        <time>2026-05-18T08:11:56Z</time>
      </trkpt>
      <trkpt lat="43.76521" lon="3.40205">
        <ele>688.2</ele>
        <time>2026-05-18T08:12:01Z</time>
      </trkpt>
      <trkpt lat="43.76516" lon="3.40201">
        <ele>688.3</ele>
        <time>2026-05-18T08:12:06Z</time>
      </trkpt>
      <trkpt lat="43.76512" lon="3.40195">
        <ele>688.8</ele>
        <time>2026-05-18T08:12:11Z</time>
      </trkpt>
      <trkpt lat="43.7651" lon="3.4019">
        <ele>689.5</ele>
        <time>2026-05-18T08:12:16Z</time>
      </trkpt>
      <trkpt lat="43.76507" lon="3.40185">
        <ele>690.1</ele>
        <time>2026-05-18T08:12:21Z</time>
      </trkpt>
      <trkpt lat="43.76503" lon="3.40179">
        <ele>690.9</ele>
        <time>2026-05-18T08:12:26Z</time>
      </trkpt>
      <trkpt lat="43.76502" lon="3.40175">
        <ele>691.6</ele>
        <time>2026-05-18T08:12:31Z</time>
      </trkpt>
      <trkpt lat="43.76501" lon="3.40168">
        <ele>692.8</ele>
        <time>2026-05-18T08:12:36Z</time>
      </trkpt>
      <trkpt lat="43.76497" lon="3.40162">
        <ele>692.5</ele>
        <time>2026-05-18T08:12:41Z</time>
      </trkpt>
      <trkpt lat="43.76493" lon="3.40155">
        <ele>691.8</ele>
        <time>2026-05-18T08:12:46Z</time>
      </trkpt>
      <trkpt lat="43.76489" lon="3.4015">
        <ele>691</ele>
        <time>2026-05-18T08:12:51Z</time>
      </trkpt>
      <trkpt lat="43.76484" lon="3.40147">
        <ele>689.7</ele>
        <time>2026-05-18T08:12:56Z</time>
      </trkpt>
      <trkpt lat="43.76481" lon="3.40143">
        <ele>689.1</ele>
        <time>2026-05-18T08:13:01Z</time>
      </trkpt>
      <trkpt lat="43.76478" lon="3.40141">
        <ele>688.3</ele>
        <time>2026-05-18T08:13:06Z</time>
      </trkpt>
      <trkpt lat="43.76473" lon="3.40135">
        <ele>687.2</ele>
        <time>2026-05-18T08:13:11Z</time>
      </trkpt>
      <trkpt lat="43.7647" lon="3.40131">
        <ele>686.6</ele>
        <time>2026-05-18T08:13:16Z</time>
      </trkpt>
      <trkpt lat="43.76465" lon="3.40129">
        <ele>685.2</ele>
        <time>2026-05-18T08:13:21Z</time>
      </trkpt>
      <trkpt lat="43.76459" lon="3.40128">
        <ele>683.5</ele>
        <time>2026-05-18T08:13:26Z</time>
      </trkpt>
      <trkpt lat="43.76453" lon="3.40127">
        <ele>681.7</ele>
        <time>2026-05-18T08:13:31Z</time>
      </trkpt>
      <trkpt lat="43.76449" lon="3.40123">
        <ele>680.8</ele>
        <time>2026-05-18T08:13:36Z</time>
      </trkpt>
      <trkpt lat="43.76446" lon="3.40119">
        <ele>680.2</ele>
        <time>2026-05-18T08:13:41Z</time>
      </trkpt>
      <trkpt lat="43.76446" lon="3.40118">
        <ele>680.2</ele>
        <time>2026-05-18T08:13:46Z</time>
      </trkpt>
      <trkpt lat="43.7644" lon="3.40109">
        <ele>679.1</ele>
        <time>2026-05-18T08:13:51Z</time>
      </trkpt>
      <trkpt lat="43.76438" lon="3.40108">
        <ele>678.6</ele>
        <time>2026-05-18T08:13:56Z</time>
      </trkpt>
      <trkpt lat="43.76431" lon="3.40103">
        <ele>676.8</ele>
        <time>2026-05-18T08:14:01Z</time>
      </trkpt>
      <trkpt lat="43.76426" lon="3.401">
        <ele>675.5</ele>
        <time>2026-05-18T08:14:06Z</time>
      </trkpt>
      <trkpt lat="43.7642" lon="3.40096">
        <ele>674</ele>
        <time>2026-05-18T08:14:11Z</time>
      </trkpt>
      <trkpt lat="43.76414" lon="3.40094">
        <ele>671.1</ele>
        <time>2026-05-18T08:14:16Z</time>
      </trkpt>
      <trkpt lat="43.76407" lon="3.40093">
        <ele>666.1</ele>
        <time>2026-05-18T08:14:21Z</time>
      </trkpt>
      <trkpt lat="43.764" lon="3.40093">
        <ele>661</ele>
        <time>2026-05-18T08:14:26Z</time>
      </trkpt>
      <trkpt lat="43.76394" lon="3.40094">
        <ele>656.5</ele>
        <time>2026-05-18T08:14:31Z</time>
      </trkpt>
      <trkpt lat="43.76391" lon="3.40094">
        <ele>654.3</ele>
        <time>2026-05-18T08:14:36Z</time>
      </trkpt>
      <trkpt lat="43.76391" lon="3.40099">
        <ele>654</ele>
        <time>2026-05-18T08:14:41Z</time>
      </trkpt>
      <trkpt lat="43.76393" lon="3.40106">
        <ele>655</ele>
        <time>2026-05-18T08:14:46Z</time>
      </trkpt>
      <trkpt lat="43.76393" lon="3.40113">
        <ele>654.6</ele>
        <time>2026-05-18T08:14:51Z</time>
      </trkpt>
      <trkpt lat="43.76393" lon="3.40119">
        <ele>654.2</ele>
        <time>2026-05-18T08:14:56Z</time>
      </trkpt>
      <trkpt lat="43.76395" lon="3.40127">
        <ele>655.2</ele>
        <time>2026-05-18T08:15:01Z</time>
      </trkpt>
      <trkpt lat="43.76398" lon="3.40137">
        <ele>656.6</ele>
        <time>2026-05-18T08:15:06Z</time>
      </trkpt>
      <trkpt lat="43.76402" lon="3.40144">
        <ele>658.9</ele>
        <time>2026-05-18T08:15:11Z</time>
      </trkpt>
      <trkpt lat="43.76407" lon="3.40148">
        <ele>662</ele>
        <time>2026-05-18T08:15:16Z</time>
      </trkpt>
      <trkpt lat="43.76411" lon="3.40152">
        <ele>664.4</ele>
        <time>2026-05-18T08:15:21Z</time>
      </trkpt>
      <trkpt lat="43.76416" lon="3.40156">
        <ele>667.4</ele>
        <time>2026-05-18T08:15:26Z</time>
      </trkpt>
      <trkpt lat="43.76421" lon="3.40158">
        <ele>669.1</ele>
        <time>2026-05-18T08:15:31Z</time>
      </trkpt>
      <trkpt lat="43.76428" lon="3.40162">
        <ele>670.9</ele>
        <time>2026-05-18T08:15:36Z</time>
      </trkpt>
      <trkpt lat="43.76435" lon="3.40166">
        <ele>672.8</ele>
        <time>2026-05-18T08:15:41Z</time>
      </trkpt>
      <trkpt lat="43.76441" lon="3.4017">
        <ele>674.3</ele>
        <time>2026-05-18T08:15:46Z</time>
      </trkpt>
      <trkpt lat="43.76446" lon="3.40177">
        <ele>675.2</ele>
        <time>2026-05-18T08:15:51Z</time>
      </trkpt>
      <trkpt lat="43.76451" lon="3.40184">
        <ele>675.9</ele>
        <time>2026-05-18T08:15:56Z</time>
      </trkpt>
      <trkpt lat="43.76456" lon="3.40191">
        <ele>676.6</ele>
        <time>2026-05-18T08:16:01Z</time>
      </trkpt>
      <trkpt lat="43.76461" lon="3.402">
        <ele>676.9</ele>
        <time>2026-05-18T08:16:06Z</time>
      </trkpt>
      <trkpt lat="43.76466" lon="3.40209">
        <ele>677.1</ele>
        <time>2026-05-18T08:16:11Z</time>
      </trkpt>
      <trkpt lat="43.76471" lon="3.40219">
        <ele>676.9</ele>
        <time>2026-05-18T08:16:16Z</time>
      </trkpt>
      <trkpt lat="43.76473" lon="3.40226">
        <ele>676.4</ele>
        <time>2026-05-18T08:16:21Z</time>
      </trkpt>
      <trkpt lat="43.76475" lon="3.40233">
        <ele>675.9</ele>
        <time>2026-05-18T08:16:26Z</time>
      </trkpt>
      <trkpt lat="43.76476" lon="3.40242">
        <ele>674.8</ele>
        <time>2026-05-18T08:16:31Z</time>
      </trkpt>
      <trkpt lat="43.76478" lon="3.40251">
        <ele>674</ele>
        <time>2026-05-18T08:16:36Z</time>
      </trkpt>
      <trkpt lat="43.76478" lon="3.4026">
        <ele>673.6</ele>
        <time>2026-05-18T08:16:41Z</time>
      </trkpt>
      <trkpt lat="43.7648" lon="3.40267">
        <ele>673.7</ele>
        <time>2026-05-18T08:16:46Z</time>
      </trkpt>
      <trkpt lat="43.7648" lon="3.40276">
        <ele>673.4</ele>
        <time>2026-05-18T08:16:51Z</time>
      </trkpt>
      <trkpt lat="43.76483" lon="3.40286">
        <ele>673.6</ele>
        <time>2026-05-18T08:16:56Z</time>
      </trkpt>
      <trkpt lat="43.76483" lon="3.40295">
        <ele>673.2</ele>
        <time>2026-05-18T08:17:01Z</time>
      </trkpt>
      <trkpt lat="43.76482" lon="3.40304">
        <ele>672.7</ele>
        <time>2026-05-18T08:17:06Z</time>
      </trkpt>
      <trkpt lat="43.76482" lon="3.40314">
        <ele>672.3</ele>
        <time>2026-05-18T08:17:11Z</time>
      </trkpt>
      <trkpt lat="43.7648" lon="3.40326">
        <ele>671.4</ele>
        <time>2026-05-18T08:17:16Z</time>
      </trkpt>
      <trkpt lat="43.76478" lon="3.40337">
        <ele>671.3</ele>
        <time>2026-05-18T08:17:21Z</time>
      </trkpt>
      <trkpt lat="43.76474" lon="3.40345">
        <ele>671.6</ele>
        <time>2026-05-18T08:17:26Z</time>
      </trkpt>
      <trkpt lat="43.7647" lon="3.40352">
        <ele>671.8</ele>
        <time>2026-05-18T08:17:31Z</time>
      </trkpt>
      <trkpt lat="43.76464" lon="3.4036">
        <ele>671.8</ele>
        <time>2026-05-18T08:17:36Z</time>
      </trkpt>
      <trkpt lat="43.7646" lon="3.40365">
        <ele>671.7</ele>
        <time>2026-05-18T08:17:41Z</time>
      </trkpt>
      <trkpt lat="43.76459" lon="3.40373">
        <ele>672.6</ele>
        <time>2026-05-18T08:17:46Z</time>
      </trkpt>
      <trkpt lat="43.76458" lon="3.4038">
        <ele>673.4</ele>
        <time>2026-05-18T08:17:51Z</time>
      </trkpt>
      <trkpt lat="43.76453" lon="3.4039">
        <ele>673.8</ele>
        <time>2026-05-18T08:17:56Z</time>
      </trkpt>
      <trkpt lat="43.76447" lon="3.40397">
        <ele>673.5</ele>
        <time>2026-05-18T08:18:01Z</time>
      </trkpt>
      <trkpt lat="43.76443" lon="3.40399">
        <ele>673</ele>
        <time>2026-05-18T08:18:06Z</time>
      </trkpt>
      <trkpt lat="43.76439" lon="3.40403">
        <ele>672.7</ele>
        <time>2026-05-18T08:18:11Z</time>
      </trkpt>
      <trkpt lat="43.76433" lon="3.40407">
        <ele>672</ele>
        <time>2026-05-18T08:18:16Z</time>
      </trkpt>
      <trkpt lat="43.76427" lon="3.40412">
        <ele>671.5</ele>
        <time>2026-05-18T08:18:21Z</time>
      </trkpt>
      <trkpt lat="43.76423" lon="3.40414">
        <ele>670.9</ele>
        <time>2026-05-18T08:18:26Z</time>
      </trkpt>
      <trkpt lat="43.76417" lon="3.40417">
        <ele>670.1</ele>
        <time>2026-05-18T08:18:31Z</time>
      </trkpt>
      <trkpt lat="43.76411" lon="3.40424">
        <ele>669.2</ele>
        <time>2026-05-18T08:18:36Z</time>
      </trkpt>
      <trkpt lat="43.76403" lon="3.40429">
        <ele>667.3</ele>
        <time>2026-05-18T08:18:41Z</time>
      </trkpt>
      <trkpt lat="43.76397" lon="3.40433">
        <ele>666.1</ele>
        <time>2026-05-18T08:18:46Z</time>
      </trkpt>
      <trkpt lat="43.76392" lon="3.40437">
        <ele>665.1</ele>
        <time>2026-05-18T08:18:51Z</time>
      </trkpt>
      <trkpt lat="43.76387" lon="3.40446">
        <ele>665</ele>
        <time>2026-05-18T08:18:56Z</time>
      </trkpt>
      <trkpt lat="43.76383" lon="3.40455">
        <ele>665.3</ele>
        <time>2026-05-18T08:19:01Z</time>
      </trkpt>
      <trkpt lat="43.76381" lon="3.40463">
        <ele>666</ele>
        <time>2026-05-18T08:19:06Z</time>
      </trkpt>
      <trkpt lat="43.7638" lon="3.40471">
        <ele>667</ele>
        <time>2026-05-18T08:19:11Z</time>
      </trkpt>
      <trkpt lat="43.7638" lon="3.40479">
        <ele>668.3</ele>
        <time>2026-05-18T08:19:16Z</time>
      </trkpt>
      <trkpt lat="43.76383" lon="3.40486">
        <ele>670.3</ele>
        <time>2026-05-18T08:19:21Z</time>
      </trkpt>
      <trkpt lat="43.76382" lon="3.40493">
        <ele>671.1</ele>
        <time>2026-05-18T08:19:26Z</time>
      </trkpt>
      <trkpt lat="43.76379" lon="3.40502">
        <ele>671.6</ele>
        <time>2026-05-18T08:19:31Z</time>
      </trkpt>
      <trkpt lat="43.76375" lon="3.40511">
        <ele>670.8</ele>
        <time>2026-05-18T08:19:36Z</time>
      </trkpt>
      <trkpt lat="43.7637" lon="3.4052">
        <ele>669.9</ele>
        <time>2026-05-18T08:19:41Z</time>
      </trkpt>
      <trkpt lat="43.76366" lon="3.40529">
        <ele>669.2</ele>
        <time>2026-05-18T08:19:46Z</time>
      </trkpt>
      <trkpt lat="43.76362" lon="3.40538">
        <ele>668.6</ele>
        <time>2026-05-18T08:19:51Z</time>
      </trkpt>
      <trkpt lat="43.76357" lon="3.40545">
        <ele>667.7</ele>
        <time>2026-05-18T08:19:56Z</time>
      </trkpt>
      <trkpt lat="43.76351" lon="3.4055">
        <ele>666.5</ele>
        <time>2026-05-18T08:20:01Z</time>
      </trkpt>
      <trkpt lat="43.76348" lon="3.40551">
        <ele>665.8</ele>
        <time>2026-05-18T08:20:06Z</time>
      </trkpt>
      <trkpt lat="43.76348" lon="3.40551">
        <ele>665.8</ele>
        <time>2026-05-18T08:20:11Z</time>
      </trkpt>
      <trkpt lat="43.76347" lon="3.40552">
        <ele>665.6</ele>
        <time>2026-05-18T08:20:16Z</time>
      </trkpt>
      <trkpt lat="43.76345" lon="3.40554">
        <ele>665.3</ele>
        <time>2026-05-18T08:20:21Z</time>
      </trkpt>
      <trkpt lat="43.76339" lon="3.40555">
        <ele>663.9</ele>
        <time>2026-05-18T08:20:26Z</time>
      </trkpt>
      <trkpt lat="43.76331" lon="3.40549">
        <ele>662.1</ele>
        <time>2026-05-18T08:20:31Z</time>
      </trkpt>
      <trkpt lat="43.76326" lon="3.40544">
        <ele>661.3</ele>
        <time>2026-05-18T08:20:36Z</time>
      </trkpt>
      <trkpt lat="43.76322" lon="3.40541">
        <ele>660.7</ele>
        <time>2026-05-18T08:20:41Z</time>
      </trkpt>
      <trkpt lat="43.76318" lon="3.40535">
        <ele>659.9</ele>
        <time>2026-05-18T08:20:46Z</time>
      </trkpt>
      <trkpt lat="43.76313" lon="3.40528">
        <ele>658.8</ele>
        <time>2026-05-18T08:20:51Z</time>
      </trkpt>
      <trkpt lat="43.76309" lon="3.40527">
        <ele>658.3</ele>
        <time>2026-05-18T08:20:56Z</time>
      </trkpt>
      <trkpt lat="43.76303" lon="3.40529">
        <ele>657.7</ele>
        <time>2026-05-18T08:21:01Z</time>
      </trkpt>
      <trkpt lat="43.76302" lon="3.40529">
        <ele>657.6</ele>
        <time>2026-05-18T08:21:06Z</time>
      </trkpt>
      <trkpt lat="43.76302" lon="3.40529">
        <ele>657.6</ele>
        <time>2026-05-18T08:21:11Z</time>
      </trkpt>
      <trkpt lat="43.76302" lon="3.40529">
        <ele>657.6</ele>
        <time>2026-05-18T08:21:16Z</time>
      </trkpt>
      <trkpt lat="43.76302" lon="3.40529">
        <ele>657.6</ele>
        <time>2026-05-18T08:21:21Z</time>
      </trkpt>
      <trkpt lat="43.76302" lon="3.40529">
        <ele>657.6</ele>
        <time>2026-05-18T08:21:26Z</time>
      </trkpt>
      <trkpt lat="43.76302" lon="3.40529">
        <ele>657.6</ele>
        <time>2026-05-18T08:21:31Z</time>
      </trkpt>
      <trkpt lat="43.76302" lon="3.40529">
        <ele>657.6</ele>
        <time>2026-05-18T08:21:36Z</time>
      </trkpt>
      <trkpt lat="43.76302" lon="3.40529">
        <ele>657.6</ele>
        <time>2026-05-18T08:21:41Z</time>
      </trkpt>
      <trkpt lat="43.76302" lon="3.40529">
        <ele>657.6</ele>
        <time>2026-05-18T08:21:46Z</time>
      </trkpt>
      <trkpt lat="43.76302" lon="3.40529">
        <ele>657.6</ele>
        <time>2026-05-18T08:21:51Z</time>
      </trkpt>
      <trkpt lat="43.76302" lon="3.40529">
        <ele>657.6</ele>
        <time>2026-05-18T08:21:56Z</time>
      </trkpt>
      <trkpt lat="43.76302" lon="3.40529">
        <ele>657.6</ele>
        <time>2026-05-18T08:22:01Z</time>
      </trkpt>
      <trkpt lat="43.76302" lon="3.40529">
        <ele>657.6</ele>
        <time>2026-05-18T08:22:06Z</time>
      </trkpt>
      <trkpt lat="43.76302" lon="3.40529">
        <ele>657.6</ele>
        <time>2026-05-18T08:22:11Z</time>
      </trkpt>
      <trkpt lat="43.76302" lon="3.40529">
        <ele>657.6</ele>
        <time>2026-05-18T08:22:16Z</time>
      </trkpt>
      <trkpt lat="43.76302" lon="3.40529">
        <ele>657.6</ele>
        <time>2026-05-18T08:22:21Z</time>
      </trkpt>
      <trkpt lat="43.76302" lon="3.40529">
        <ele>657.6</ele>
        <time>2026-05-18T08:22:26Z</time>
      </trkpt>
      <trkpt lat="43.76302" lon="3.40529">
        <ele>657.6</ele>
        <time>2026-05-18T08:22:31Z</time>
      </trkpt>
      <trkpt lat="43.76302" lon="3.40529">
        <ele>657.6</ele>
        <time>2026-05-18T08:22:36Z</time>
      </trkpt>
      <trkpt lat="43.76302" lon="3.40529">
        <ele>657.6</ele>
        <time>2026-05-18T08:22:41Z</time>
      </trkpt>
      <trkpt lat="43.76302" lon="3.40529">
        <ele>657.6</ele>
        <time>2026-05-18T08:22:46Z</time>
      </trkpt>
      <trkpt lat="43.76302" lon="3.40529">
        <ele>657.6</ele>
        <time>2026-05-18T08:22:51Z</time>
      </trkpt>
      <trkpt lat="43.76302" lon="3.40529">
        <ele>657.6</ele>
        <time>2026-05-18T08:22:56Z</time>
      </trkpt>
      <trkpt lat="43.76302" lon="3.40529">
        <ele>657.6</ele>
        <time>2026-05-18T08:23:01Z</time>
      </trkpt>
      <trkpt lat="43.76302" lon="3.40529">
        <ele>657.6</ele>
        <time>2026-05-18T08:23:06Z</time>
      </trkpt>
      <trkpt lat="43.76302" lon="3.40529">
        <ele>657.6</ele>
        <time>2026-05-18T08:23:11Z</time>
      </trkpt>
      <trkpt lat="43.76302" lon="3.40529">
        <ele>657.6</ele>
        <time>2026-05-18T08:23:16Z</time>
      </trkpt>
      <trkpt lat="43.76302" lon="3.40529">
        <ele>657.6</ele>
        <time>2026-05-18T08:23:21Z</time>
      </trkpt>
      <trkpt lat="43.76302" lon="3.40529">
        <ele>657.6</ele>
        <time>2026-05-18T08:23:26Z</time>
      </trkpt>
      <trkpt lat="43.76302" lon="3.40529">
        <ele>657.6</ele>
        <time>2026-05-18T08:23:31Z</time>
      </trkpt>
      <trkpt lat="43.76302" lon="3.40529">
        <ele>657.6</ele>
        <time>2026-05-18T08:23:36Z</time>
      </trkpt>
      <trkpt lat="43.76302" lon="3.40529">
        <ele>657.6</ele>
        <time>2026-05-18T08:23:41Z</time>
      </trkpt>
      <trkpt lat="43.76302" lon="3.40529">
        <ele>657.6</ele>
        <time>2026-05-18T08:23:46Z</time>
      </trkpt>
      <trkpt lat="43.76302" lon="3.40529">
        <ele>657.6</ele>
        <time>2026-05-18T08:23:51Z</time>
      </trkpt>
      <trkpt lat="43.76302" lon="3.40529">
        <ele>657.6</ele>
        <time>2026-05-18T08:23:56Z</time>
      </trkpt>
      <trkpt lat="43.76302" lon="3.40529">
        <ele>657.6</ele>
        <time>2026-05-18T08:24:01Z</time>
      </trkpt>
      <trkpt lat="43.76302" lon="3.40529">
        <ele>657.6</ele>
        <time>2026-05-18T08:24:06Z</time>
      </trkpt>
      <trkpt lat="43.76302" lon="3.40529">
        <ele>657.6</ele>
        <time>2026-05-18T08:24:11Z</time>
      </trkpt>
      <trkpt lat="43.76302" lon="3.40529">
        <ele>657.6</ele>
        <time>2026-05-18T08:24:16Z</time>
      </trkpt>
      <trkpt lat="43.76302" lon="3.40529">
        <ele>657.6</ele>
        <time>2026-05-18T08:24:21Z</time>
      </trkpt>
      <trkpt lat="43.76302" lon="3.40529">
        <ele>657.6</ele>
        <time>2026-05-18T08:24:26Z</time>
      </trkpt>
      <trkpt lat="43.76302" lon="3.40529">
        <ele>657.6</ele>
        <time>2026-05-18T08:24:31Z</time>
      </trkpt>
      <trkpt lat="43.76302" lon="3.40529">
        <ele>657.6</ele>
        <time>2026-05-18T08:24:36Z</time>
      </trkpt>
      <trkpt lat="43.76302" lon="3.40529">
        <ele>657.6</ele>
        <time>2026-05-18T08:24:41Z</time>
      </trkpt>
      <trkpt lat="43.76302" lon="3.40529">
        <ele>657.6</ele>
        <time>2026-05-18T08:24:46Z</time>
      </trkpt>
      <trkpt lat="43.76302" lon="3.40529">
        <ele>657.6</ele>
        <time>2026-05-18T08:24:51Z</time>
      </trkpt>
      <trkpt lat="43.76302" lon="3.40529">
        <ele>657.6</ele>
        <time>2026-05-18T08:24:56Z</time>
      </trkpt>
      <trkpt lat="43.76302" lon="3.40529">
        <ele>657.6</ele>
        <time>2026-05-18T08:25:01Z</time>
      </trkpt>
      <trkpt lat="43.76302" lon="3.40529">
        <ele>657.6</ele>
        <time>2026-05-18T08:25:06Z</time>
      </trkpt>
      <trkpt lat="43.76302" lon="3.40529">
        <ele>657.6</ele>
        <time>2026-05-18T08:25:11Z</time>
      </trkpt>
      <trkpt lat="43.76302" lon="3.40529">
        <ele>657.6</ele>
        <time>2026-05-18T08:25:16Z</time>
      </trkpt>
      <trkpt lat="43.76302" lon="3.40529">
        <ele>657.6</ele>
        <time>2026-05-18T08:25:21Z</time>
      </trkpt>
      <trkpt lat="43.76302" lon="3.40529">
        <ele>657.6</ele>
        <time>2026-05-18T08:25:26Z</time>
      </trkpt>
      <trkpt lat="43.76302" lon="3.40529">
        <ele>657.6</ele>
        <time>2026-05-18T08:25:31Z</time>
      </trkpt>
      <trkpt lat="43.76302" lon="3.40529">
        <ele>657.6</ele>
        <time>2026-05-18T08:25:36Z</time>
      </trkpt>
      <trkpt lat="43.76302" lon="3.40529">
        <ele>657.6</ele>
        <time>2026-05-18T08:25:41Z</time>
      </trkpt>
      <trkpt lat="43.76302" lon="3.40529">
        <ele>657.6</ele>
        <time>2026-05-18T08:25:46Z</time>
      </trkpt>
      <trkpt lat="43.76302" lon="3.40529">
        <ele>657.6</ele>
        <time>2026-05-18T08:25:51Z</time>
      </trkpt>
      <trkpt lat="43.76302" lon="3.40529">
        <ele>657.6</ele>
        <time>2026-05-18T08:25:56Z</time>
      </trkpt>
      <trkpt lat="43.76302" lon="3.40529">
        <ele>657.6</ele>
        <time>2026-05-18T08:26:01Z</time>
      </trkpt>
      <trkpt lat="43.76302" lon="3.40529">
        <ele>657.6</ele>
        <time>2026-05-18T08:26:06Z</time>
      </trkpt>
      <trkpt lat="43.76302" lon="3.40529">
        <ele>657.6</ele>
        <time>2026-05-18T08:26:11Z</time>
      </trkpt>
      <trkpt lat="43.76302" lon="3.40529">
        <ele>657.6</ele>
        <time>2026-05-18T08:26:16Z</time>
      </trkpt>
      <trkpt lat="43.76302" lon="3.40529">
        <ele>657.6</ele>
        <time>2026-05-18T08:26:21Z</time>
      </trkpt>
      <trkpt lat="43.76302" lon="3.40529">
        <ele>657.6</ele>
        <time>2026-05-18T08:26:26Z</time>
      </trkpt>
      <trkpt lat="43.76302" lon="3.40529">
        <ele>657.6</ele>
        <time>2026-05-18T08:26:31Z</time>
      </trkpt>
      <trkpt lat="43.76302" lon="3.40529">
        <ele>657.6</ele>
        <time>2026-05-18T08:26:36Z</time>
      </trkpt>
      <trkpt lat="43.76302" lon="3.40529">
        <ele>657.6</ele>
        <time>2026-05-18T08:26:41Z</time>
      </trkpt>
      <trkpt lat="43.76302" lon="3.40529">
        <ele>657.6</ele>
        <time>2026-05-18T08:26:46Z</time>
      </trkpt>
      <trkpt lat="43.76302" lon="3.40529">
        <ele>657.6</ele>
        <time>2026-05-18T08:26:51Z</time>
      </trkpt>
      <trkpt lat="43.76302" lon="3.40529">
        <ele>657.6</ele>
        <time>2026-05-18T08:26:56Z</time>
      </trkpt>
      <trkpt lat="43.76302" lon="3.40529">
        <ele>657.6</ele>
        <time>2026-05-18T08:27:01Z</time>
      </trkpt>
      <trkpt lat="43.76302" lon="3.40529">
        <ele>657.6</ele>
        <time>2026-05-18T08:27:06Z</time>
      </trkpt>
      <trkpt lat="43.76302" lon="3.40529">
        <ele>657.6</ele>
        <time>2026-05-18T08:27:11Z</time>
      </trkpt>
      <trkpt lat="43.76302" lon="3.40529">
        <ele>657.6</ele>
        <time>2026-05-18T08:27:16Z</time>
      </trkpt>
      <trkpt lat="43.76302" lon="3.40529">
        <ele>657.6</ele>
        <time>2026-05-18T08:27:21Z</time>
      </trkpt>
      <trkpt lat="43.76302" lon="3.40529">
        <ele>657.6</ele>
        <time>2026-05-18T08:27:26Z</time>
      </trkpt>
      <trkpt lat="43.76302" lon="3.40529">
        <ele>657.6</ele>
        <time>2026-05-18T08:27:31Z</time>
      </trkpt>
      <trkpt lat="43.76302" lon="3.40529">
        <ele>657.6</ele>
        <time>2026-05-18T08:27:36Z</time>
      </trkpt>
      <trkpt lat="43.76302" lon="3.40529">
        <ele>657.6</ele>
        <time>2026-05-18T08:27:41Z</time>
      </trkpt>
      <trkpt lat="43.76302" lon="3.40529">
        <ele>657.6</ele>
        <time>2026-05-18T08:27:46Z</time>
      </trkpt>
      <trkpt lat="43.76302" lon="3.40529">
        <ele>657.6</ele>
        <time>2026-05-18T08:27:51Z</time>
      </trkpt>
      <trkpt lat="43.76302" lon="3.40529">
        <ele>657.6</ele>
        <time>2026-05-18T08:27:56Z</time>
      </trkpt>
      <trkpt lat="43.76302" lon="3.40529">
        <ele>657.6</ele>
        <time>2026-05-18T08:28:01Z</time>
      </trkpt>
      <trkpt lat="43.76302" lon="3.40529">
        <ele>657.6</ele>
        <time>2026-05-18T08:28:06Z</time>
      </trkpt>
      <trkpt lat="43.76302" lon="3.40529">
        <ele>657.6</ele>
        <time>2026-05-18T08:28:11Z</time>
      </trkpt>
      <trkpt lat="43.76302" lon="3.40529">
        <ele>657.6</ele>
        <time>2026-05-18T08:28:16Z</time>
      </trkpt>
      <trkpt lat="43.76302" lon="3.40529">
        <ele>657.6</ele>
        <time>2026-05-18T08:28:21Z</time>
      </trkpt>
      <trkpt lat="43.76302" lon="3.40529">
        <ele>657.6</ele>
        <time>2026-05-18T08:28:26Z</time>
      </trkpt>
      <trkpt lat="43.76302" lon="3.40529">
        <ele>657.6</ele>
        <time>2026-05-18T08:28:31Z</time>
      </trkpt>
      <trkpt lat="43.76302" lon="3.40529">
        <ele>657.6</ele>
        <time>2026-05-18T08:28:36Z</time>
      </trkpt>
      <trkpt lat="43.76302" lon="3.40529">
        <ele>657.6</ele>
        <time>2026-05-18T08:28:41Z</time>
      </trkpt>
      <trkpt lat="43.76302" lon="3.40529">
        <ele>657.6</ele>
        <time>2026-05-18T08:28:46Z</time>
      </trkpt>
      <trkpt lat="43.76302" lon="3.40529">
        <ele>657.6</ele>
        <time>2026-05-18T08:28:51Z</time>
      </trkpt>
      <trkpt lat="43.76302" lon="3.40529">
        <ele>657.6</ele>
        <time>2026-05-18T08:28:56Z</time>
      </trkpt>
      <trkpt lat="43.76302" lon="3.40529">
        <ele>657.6</ele>
        <time>2026-05-18T08:29:01Z</time>
      </trkpt>
      <trkpt lat="43.76302" lon="3.40529">
        <ele>657.6</ele>
        <time>2026-05-18T08:29:06Z</time>
      </trkpt>
      <trkpt lat="43.76302" lon="3.40529">
        <ele>657.6</ele>
        <time>2026-05-18T08:29:11Z</time>
      </trkpt>
      <trkpt lat="43.76302" lon="3.40529">
        <ele>657.6</ele>
        <time>2026-05-18T08:29:16Z</time>
      </trkpt>
      <trkpt lat="43.76302" lon="3.40529">
        <ele>657.6</ele>
        <time>2026-05-18T08:29:21Z</time>
      </trkpt>
      <trkpt lat="43.76302" lon="3.40529">
        <ele>657.6</ele>
        <time>2026-05-18T08:29:26Z</time>
      </trkpt>
      <trkpt lat="43.76302" lon="3.40529">
        <ele>657.6</ele>
        <time>2026-05-18T08:29:31Z</time>
      </trkpt>
      <trkpt lat="43.76302" lon="3.40529">
        <ele>657.6</ele>
        <time>2026-05-18T08:29:36Z</time>
      </trkpt>
      <trkpt lat="43.76302" lon="3.40529">
        <ele>657.6</ele>
        <time>2026-05-18T08:29:41Z</time>
      </trkpt>
      <trkpt lat="43.76302" lon="3.40529">
        <ele>657.6</ele>
        <time>2026-05-18T08:29:46Z</time>
      </trkpt>
      <trkpt lat="43.76302" lon="3.40529">
        <ele>657.6</ele>
        <time>2026-05-18T08:29:51Z</time>
      </trkpt>
      <trkpt lat="43.76302" lon="3.40529">
        <ele>657.6</ele>
        <time>2026-05-18T08:29:56Z</time>
      </trkpt>
      <trkpt lat="43.76302" lon="3.40529">
        <ele>657.6</ele>
        <time>2026-05-18T08:30:01Z</time>
      </trkpt>
      <trkpt lat="43.76302" lon="3.40529">
        <ele>657.6</ele>
        <time>2026-05-18T08:30:06Z</time>
      </trkpt>
      <trkpt lat="43.76302" lon="3.40529">
        <ele>657.6</ele>
        <time>2026-05-18T08:30:11Z</time>
      </trkpt>
      <trkpt lat="43.76302" lon="3.40529">
        <ele>657.6</ele>
        <time>2026-05-18T08:30:16Z</time>
      </trkpt>
      <trkpt lat="43.76302" lon="3.40529">
        <ele>657.6</ele>
        <time>2026-05-18T08:30:21Z</time>
      </trkpt>
      <trkpt lat="43.76302" lon="3.40529">
        <ele>657.6</ele>
        <time>2026-05-18T08:30:26Z</time>
      </trkpt>
      <trkpt lat="43.76302" lon="3.40529">
        <ele>657.6</ele>
        <time>2026-05-18T08:30:31Z</time>
      </trkpt>
      <trkpt lat="43.76302" lon="3.40529">
        <ele>657.6</ele>
        <time>2026-05-18T08:30:36Z</time>
      </trkpt>
      <trkpt lat="43.76302" lon="3.40529">
        <ele>657.6</ele>
        <time>2026-05-18T08:30:41Z</time>
      </trkpt>
      <trkpt lat="43.76302" lon="3.40529">
        <ele>657.6</ele>
        <time>2026-05-18T08:30:46Z</time>
      </trkpt>
      <trkpt lat="43.76302" lon="3.40529">
        <ele>657.6</ele>
        <time>2026-05-18T08:30:51Z</time>
      </trkpt>
      <trkpt lat="43.76302" lon="3.40529">
        <ele>657.6</ele>
        <time>2026-05-18T08:30:56Z</time>
      </trkpt>
      <trkpt lat="43.76302" lon="3.40529">
        <ele>657.6</ele>
        <time>2026-05-18T08:31:01Z</time>
      </trkpt>
      <trkpt lat="43.76302" lon="3.40529">
        <ele>657.6</ele>
        <time>2026-05-18T08:31:06Z</time>
      </trkpt>
      <trkpt lat="43.76302" lon="3.40529">
        <ele>657.6</ele>
        <time>2026-05-18T08:31:11Z</time>
      </trkpt>
      <trkpt lat="43.76302" lon="3.40529">
        <ele>657.6</ele>
        <time>2026-05-18T08:31:16Z</time>
      </trkpt>
      <trkpt lat="43.76302" lon="3.40529">
        <ele>657.6</ele>
        <time>2026-05-18T08:31:21Z</time>
      </trkpt>
      <trkpt lat="43.76302" lon="3.40529">
        <ele>657.6</ele>
        <time>2026-05-18T08:31:26Z</time>
      </trkpt>
      <trkpt lat="43.76302" lon="3.40529">
        <ele>657.6</ele>
        <time>2026-05-18T08:31:31Z</time>
      </trkpt>
      <trkpt lat="43.76302" lon="3.40529">
        <ele>657.6</ele>
        <time>2026-05-18T08:31:36Z</time>
      </trkpt>
      <trkpt lat="43.76302" lon="3.40529">
        <ele>657.6</ele>
        <time>2026-05-18T08:31:41Z</time>
      </trkpt>
      <trkpt lat="43.76302" lon="3.40529">
        <ele>657.6</ele>
        <time>2026-05-18T08:31:46Z</time>
      </trkpt>
      <trkpt lat="43.76302" lon="3.40529">
        <ele>657.6</ele>
        <time>2026-05-18T08:31:51Z</time>
      </trkpt>
      <trkpt lat="43.76302" lon="3.40529">
        <ele>657.6</ele>
        <time>2026-05-18T08:31:56Z</time>
      </trkpt>
      <trkpt lat="43.76302" lon="3.40529">
        <ele>657.6</ele>
        <time>2026-05-18T08:32:01Z</time>
      </trkpt>
      <trkpt lat="43.76302" lon="3.40529">
        <ele>657.6</ele>
        <time>2026-05-18T08:32:06Z</time>
      </trkpt>
      <trkpt lat="43.76302" lon="3.40529">
        <ele>657.6</ele>
        <time>2026-05-18T08:32:11Z</time>
      </trkpt>
      <trkpt lat="43.76302" lon="3.40529">
        <ele>657.6</ele>
        <time>2026-05-18T08:32:16Z</time>
      </trkpt>
      <trkpt lat="43.76302" lon="3.40529">
        <ele>657.6</ele>
        <time>2026-05-18T08:32:21Z</time>
      </trkpt>
      <trkpt lat="43.76302" lon="3.40529">
        <ele>657.6</ele>
        <time>2026-05-18T08:32:26Z</time>
      </trkpt>
      <trkpt lat="43.76302" lon="3.40529">
        <ele>657.6</ele>
        <time>2026-05-18T08:32:31Z</time>
      </trkpt>
      <trkpt lat="43.76302" lon="3.40529">
        <ele>657.6</ele>
        <time>2026-05-18T08:32:36Z</time>
      </trkpt>
      <trkpt lat="43.76302" lon="3.40529">
        <ele>657.6</ele>
        <time>2026-05-18T08:32:41Z</time>
      </trkpt>
      <trkpt lat="43.76302" lon="3.40529">
        <ele>657.6</ele>
        <time>2026-05-18T08:32:46Z</time>
      </trkpt>
      <trkpt lat="43.76302" lon="3.40529">
        <ele>657.6</ele>
        <time>2026-05-18T08:32:51Z</time>
      </trkpt>
      <trkpt lat="43.76302" lon="3.40529">
        <ele>657.6</ele>
        <time>2026-05-18T08:32:56Z</time>
      </trkpt>
      <trkpt lat="43.76302" lon="3.40529">
        <ele>657.6</ele>
        <time>2026-05-18T08:33:01Z</time>
      </trkpt>
      <trkpt lat="43.76302" lon="3.40529">
        <ele>657.6</ele>
        <time>2026-05-18T08:33:06Z</time>
      </trkpt>
      <trkpt lat="43.76302" lon="3.40529">
        <ele>657.6</ele>
        <time>2026-05-18T08:33:11Z</time>
      </trkpt>
      <trkpt lat="43.76302" lon="3.40529">
        <ele>657.6</ele>
        <time>2026-05-18T08:33:16Z</time>
      </trkpt>
      <trkpt lat="43.76302" lon="3.40529">
        <ele>657.6</ele>
        <time>2026-05-18T08:33:21Z</time>
      </trkpt>
      <trkpt lat="43.76302" lon="3.40529">
        <ele>657.6</ele>
        <time>2026-05-18T08:33:26Z</time>
      </trkpt>
      <trkpt lat="43.76302" lon="3.40529">
        <ele>657.6</ele>
        <time>2026-05-18T08:33:31Z</time>
      </trkpt>
      <trkpt lat="43.76302" lon="3.40529">
        <ele>657.6</ele>
        <time>2026-05-18T08:33:36Z</time>
      </trkpt>
      <trkpt lat="43.76302" lon="3.40529">
        <ele>657.6</ele>
        <time>2026-05-18T08:33:41Z</time>
      </trkpt>
      <trkpt lat="43.76302" lon="3.40529">
        <ele>657.6</ele>
        <time>2026-05-18T08:33:46Z</time>
      </trkpt>
      <trkpt lat="43.76302" lon="3.40529">
        <ele>657.6</ele>
        <time>2026-05-18T08:33:51Z</time>
      </trkpt>
      <trkpt lat="43.76302" lon="3.40529">
        <ele>657.6</ele>
        <time>2026-05-18T08:33:56Z</time>
      </trkpt>
      <trkpt lat="43.76302" lon="3.40529">
        <ele>657.6</ele>
        <time>2026-05-18T08:34:01Z</time>
      </trkpt>
      <trkpt lat="43.76302" lon="3.40529">
        <ele>657.6</ele>
        <time>2026-05-18T08:34:06Z</time>
      </trkpt>
      <trkpt lat="43.76302" lon="3.40529">
        <ele>657.6</ele>
        <time>2026-05-18T08:34:11Z</time>
      </trkpt>
      <trkpt lat="43.76302" lon="3.40529">
        <ele>657.6</ele>
        <time>2026-05-18T08:34:16Z</time>
      </trkpt>
      <trkpt lat="43.76302" lon="3.40529">
        <ele>657.6</ele>
        <time>2026-05-18T08:34:21Z</time>
      </trkpt>
      <trkpt lat="43.76295" lon="3.40521">
        <ele>656</ele>
        <time>2026-05-18T08:34:26Z</time>
      </trkpt>
      <trkpt lat="43.76295" lon="3.40516">
        <ele>655.5</ele>
        <time>2026-05-18T08:34:31Z</time>
      </trkpt>
      <trkpt lat="43.76292" lon="3.40512">
        <ele>654.7</ele>
        <time>2026-05-18T08:34:36Z</time>
      </trkpt>
      <trkpt lat="43.76287" lon="3.40506">
        <ele>653.4</ele>
        <time>2026-05-18T08:34:41Z</time>
      </trkpt>
      <trkpt lat="43.7628" lon="3.40504">
        <ele>652.1</ele>
        <time>2026-05-18T08:34:46Z</time>
      </trkpt>
      <trkpt lat="43.76275" lon="3.40504">
        <ele>651.4</ele>
        <time>2026-05-18T08:34:51Z</time>
      </trkpt>
      <trkpt lat="43.7627" lon="3.4051">
        <ele>651.3</ele>
        <time>2026-05-18T08:34:56Z</time>
      </trkpt>
      <trkpt lat="43.76267" lon="3.40517">
        <ele>651.8</ele>
        <time>2026-05-18T08:35:01Z</time>
      </trkpt>
      <trkpt lat="43.76265" lon="3.40525">
        <ele>652.5</ele>
        <time>2026-05-18T08:35:06Z</time>
      </trkpt>
      <trkpt lat="43.76264" lon="3.40529">
        <ele>652.9</ele>
        <time>2026-05-18T08:35:11Z</time>
      </trkpt>
      <trkpt lat="43.76262" lon="3.40535">
        <ele>653.4</ele>
        <time>2026-05-18T08:35:16Z</time>
      </trkpt>
      <trkpt lat="43.7626" lon="3.40542">
        <ele>654.1</ele>
        <time>2026-05-18T08:35:21Z</time>
      </trkpt>
      <trkpt lat="43.76257" lon="3.40551">
        <ele>655</ele>
        <time>2026-05-18T08:35:26Z</time>
      </trkpt>
      <trkpt lat="43.76255" lon="3.4056">
        <ele>656.1</ele>
        <time>2026-05-18T08:35:31Z</time>
      </trkpt>
      <trkpt lat="43.76254" lon="3.40568">
        <ele>657.1</ele>
        <time>2026-05-18T08:35:36Z</time>
      </trkpt>
      <trkpt lat="43.76253" lon="3.40577">
        <ele>658.3</ele>
        <time>2026-05-18T08:35:41Z</time>
      </trkpt>
      <trkpt lat="43.76252" lon="3.40586">
        <ele>659.3</ele>
        <time>2026-05-18T08:35:46Z</time>
      </trkpt>
      <trkpt lat="43.76253" lon="3.40594">
        <ele>660.1</ele>
        <time>2026-05-18T08:35:51Z</time>
      </trkpt>
      <trkpt lat="43.76253" lon="3.40604">
        <ele>660.9</ele>
        <time>2026-05-18T08:35:56Z</time>
      </trkpt>
      <trkpt lat="43.76255" lon="3.40613">
        <ele>661.7</ele>
        <time>2026-05-18T08:36:01Z</time>
      </trkpt>
      <trkpt lat="43.76257" lon="3.40622">
        <ele>662.5</ele>
        <time>2026-05-18T08:36:06Z</time>
      </trkpt>
      <trkpt lat="43.76259" lon="3.40628">
        <ele>663</ele>
        <time>2026-05-18T08:36:11Z</time>
      </trkpt>
      <trkpt lat="43.76257" lon="3.40633">
        <ele>663.3</ele>
        <time>2026-05-18T08:36:16Z</time>
      </trkpt>
      <trkpt lat="43.76253" lon="3.40631">
        <ele>663.1</ele>
        <time>2026-05-18T08:36:21Z</time>
      </trkpt>
      <trkpt lat="43.76247" lon="3.40626">
        <ele>663.3</ele>
        <time>2026-05-18T08:36:26Z</time>
      </trkpt>
      <trkpt lat="43.76242" lon="3.40621">
        <ele>664</ele>
        <time>2026-05-18T08:36:31Z</time>
      </trkpt>
      <trkpt lat="43.76237" lon="3.40614">
        <ele>664.6</ele>
        <time>2026-05-18T08:36:36Z</time>
      </trkpt>
      <trkpt lat="43.76235" lon="3.40606">
        <ele>664.5</ele>
        <time>2026-05-18T08:36:41Z</time>
      </trkpt>
      <trkpt lat="43.76233" lon="3.406">
        <ele>664.4</ele>
        <time>2026-05-18T08:36:46Z</time>
      </trkpt>
      <trkpt lat="43.76231" lon="3.40592">
        <ele>664.3</ele>
        <time>2026-05-18T08:36:51Z</time>
      </trkpt>
      <trkpt lat="43.76229" lon="3.40584">
        <ele>664.1</ele>
        <time>2026-05-18T08:36:56Z</time>
      </trkpt>
      <trkpt lat="43.76227" lon="3.40578">
        <ele>663.8</ele>
        <time>2026-05-18T08:37:01Z</time>
      </trkpt>
      <trkpt lat="43.76226" lon="3.40569">
        <ele>662.8</ele>
        <time>2026-05-18T08:37:06Z</time>
      </trkpt>
      <trkpt lat="43.76225" lon="3.40559">
        <ele>661.7</ele>
        <time>2026-05-18T08:37:11Z</time>
      </trkpt>
      <trkpt lat="43.76226" lon="3.40551">
        <ele>660.3</ele>
        <time>2026-05-18T08:37:16Z</time>
      </trkpt>
      <trkpt lat="43.76227" lon="3.40543">
        <ele>659</ele>
        <time>2026-05-18T08:37:21Z</time>
      </trkpt>
      <trkpt lat="43.76228" lon="3.40536">
        <ele>657.8</ele>
        <time>2026-05-18T08:37:26Z</time>
      </trkpt>
      <trkpt lat="43.76227" lon="3.40525">
        <ele>656.5</ele>
        <time>2026-05-18T08:37:31Z</time>
      </trkpt>
      <trkpt lat="43.76225" lon="3.40516">
        <ele>655.8</ele>
        <time>2026-05-18T08:37:36Z</time>
      </trkpt>
      <trkpt lat="43.76224" lon="3.40508">
        <ele>655</ele>
        <time>2026-05-18T08:37:41Z</time>
      </trkpt>
      <trkpt lat="43.76222" lon="3.40498">
        <ele>653.9</ele>
        <time>2026-05-18T08:37:46Z</time>
      </trkpt>
      <trkpt lat="43.76222" lon="3.40489">
        <ele>651.9</ele>
        <time>2026-05-18T08:37:51Z</time>
      </trkpt>
      <trkpt lat="43.76222" lon="3.4048">
        <ele>649.9</ele>
        <time>2026-05-18T08:37:56Z</time>
      </trkpt>
      <trkpt lat="43.76222" lon="3.40473">
        <ele>648.3</ele>
        <time>2026-05-18T08:38:01Z</time>
      </trkpt>
      <trkpt lat="43.76221" lon="3.40466">
        <ele>647.1</ele>
        <time>2026-05-18T08:38:06Z</time>
      </trkpt>
      <trkpt lat="43.7622" lon="3.40459">
        <ele>645.8</ele>
        <time>2026-05-18T08:38:11Z</time>
      </trkpt>
      <trkpt lat="43.7622" lon="3.40449">
        <ele>643.6</ele>
        <time>2026-05-18T08:38:16Z</time>
      </trkpt>
      <trkpt lat="43.76219" lon="3.40438">
        <ele>641.4</ele>
        <time>2026-05-18T08:38:21Z</time>
      </trkpt>
      <trkpt lat="43.76219" lon="3.4043">
        <ele>639.6</ele>
        <time>2026-05-18T08:38:26Z</time>
      </trkpt>
      <trkpt lat="43.7622" lon="3.40424">
        <ele>638</ele>
        <time>2026-05-18T08:38:31Z</time>
      </trkpt>
      <trkpt lat="43.76221" lon="3.40417">
        <ele>636.1</ele>
        <time>2026-05-18T08:38:36Z</time>
      </trkpt>
      <trkpt lat="43.76224" lon="3.4041">
        <ele>633.6</ele>
        <time>2026-05-18T08:38:41Z</time>
      </trkpt>
      <trkpt lat="43.76228" lon="3.40402">
        <ele>630.4</ele>
        <time>2026-05-18T08:38:46Z</time>
      </trkpt>
      <trkpt lat="43.7623" lon="3.40396">
        <ele>628.3</ele>
        <time>2026-05-18T08:38:51Z</time>
      </trkpt>
      <trkpt lat="43.76232" lon="3.40392">
        <ele>626.6</ele>
        <time>2026-05-18T08:38:56Z</time>
      </trkpt>
      <trkpt lat="43.76237" lon="3.40386">
        <ele>623.4</ele>
        <time>2026-05-18T08:39:01Z</time>
      </trkpt>
      <trkpt lat="43.7624" lon="3.4038">
        <ele>620.9</ele>
        <time>2026-05-18T08:39:06Z</time>
      </trkpt>
      <trkpt lat="43.76243" lon="3.40373">
        <ele>618</ele>
        <time>2026-05-18T08:39:11Z</time>
      </trkpt>
      <trkpt lat="43.76247" lon="3.40365">
        <ele>614.5</ele>
        <time>2026-05-18T08:39:16Z</time>
      </trkpt>
      <trkpt lat="43.76249" lon="3.40357">
        <ele>611.6</ele>
        <time>2026-05-18T08:39:21Z</time>
      </trkpt>
      <trkpt lat="43.76252" lon="3.40349">
        <ele>609.7</ele>
        <time>2026-05-18T08:39:26Z</time>
      </trkpt>
      <trkpt lat="43.7625" lon="3.40345">
        <ele>608.1</ele>
        <time>2026-05-18T08:39:31Z</time>
      </trkpt>
      <trkpt lat="43.76248" lon="3.40346">
        <ele>609.1</ele>
        <time>2026-05-18T08:39:36Z</time>
      </trkpt>
      <trkpt lat="43.76241" lon="3.40349">
        <ele>612.6</ele>
        <time>2026-05-18T08:39:41Z</time>
      </trkpt>
      <trkpt lat="43.76236" lon="3.40353">
        <ele>615.6</ele>
        <time>2026-05-18T08:39:46Z</time>
      </trkpt>
      <trkpt lat="43.76231" lon="3.40357">
        <ele>618.5</ele>
        <time>2026-05-18T08:39:51Z</time>
      </trkpt>
      <trkpt lat="43.76226" lon="3.4036">
        <ele>621.1</ele>
        <time>2026-05-18T08:39:56Z</time>
      </trkpt>
      <trkpt lat="43.7622" lon="3.40365">
        <ele>624.5</ele>
        <time>2026-05-18T08:40:01Z</time>
      </trkpt>
      <trkpt lat="43.76213" lon="3.4037">
        <ele>628.2</ele>
        <time>2026-05-18T08:40:06Z</time>
      </trkpt>
      <trkpt lat="43.76208" lon="3.40375">
        <ele>631.1</ele>
        <time>2026-05-18T08:40:11Z</time>
      </trkpt>
      <trkpt lat="43.76202" lon="3.40381">
        <ele>634.5</ele>
        <time>2026-05-18T08:40:16Z</time>
      </trkpt>
      <trkpt lat="43.76196" lon="3.40389">
        <ele>638.3</ele>
        <time>2026-05-18T08:40:21Z</time>
      </trkpt>
      <trkpt lat="43.76191" lon="3.40397">
        <ele>641.6</ele>
        <time>2026-05-18T08:40:26Z</time>
      </trkpt>
      <trkpt lat="43.76189" lon="3.40403">
        <ele>643.4</ele>
        <time>2026-05-18T08:40:31Z</time>
      </trkpt>
      <trkpt lat="43.76185" lon="3.40402">
        <ele>644.5</ele>
        <time>2026-05-18T08:40:36Z</time>
      </trkpt>
      <trkpt lat="43.76184" lon="3.404">
        <ele>644.5</ele>
        <time>2026-05-18T08:40:41Z</time>
      </trkpt>
      <trkpt lat="43.76186" lon="3.40396">
        <ele>643</ele>
        <time>2026-05-18T08:40:46Z</time>
      </trkpt>
      <trkpt lat="43.7619" lon="3.40389">
        <ele>640.3</ele>
        <time>2026-05-18T08:40:51Z</time>
      </trkpt>
      <trkpt lat="43.76193" lon="3.4038">
        <ele>637.5</ele>
        <time>2026-05-18T08:40:56Z</time>
      </trkpt>
      <trkpt lat="43.76194" lon="3.40371">
        <ele>635.4</ele>
        <time>2026-05-18T08:41:01Z</time>
      </trkpt>
      <trkpt lat="43.76195" lon="3.40362">
        <ele>633.2</ele>
        <time>2026-05-18T08:41:06Z</time>
      </trkpt>
      <trkpt lat="43.76197" lon="3.40355">
        <ele>631</ele>
        <time>2026-05-18T08:41:11Z</time>
      </trkpt>
      <trkpt lat="43.76201" lon="3.4035">
        <ele>628.5</ele>
        <time>2026-05-18T08:41:16Z</time>
      </trkpt>
      <trkpt lat="43.76206" lon="3.40344">
        <ele>625.2</ele>
        <time>2026-05-18T08:41:21Z</time>
      </trkpt>
      <trkpt lat="43.76211" lon="3.4034">
        <ele>622.4</ele>
        <time>2026-05-18T08:41:26Z</time>
      </trkpt>
      <trkpt lat="43.76213" lon="3.40331">
        <ele>619.6</ele>
        <time>2026-05-18T08:41:31Z</time>
      </trkpt>
      <trkpt lat="43.76212" lon="3.40321">
        <ele>617.6</ele>
        <time>2026-05-18T08:41:36Z</time>
      </trkpt>
      <trkpt lat="43.7621" lon="3.40313">
        <ele>616.6</ele>
        <time>2026-05-18T08:41:41Z</time>
      </trkpt>
      <trkpt lat="43.76213" lon="3.40306">
        <ele>613.7</ele>
        <time>2026-05-18T08:41:46Z</time>
      </trkpt>
      <trkpt lat="43.76217" lon="3.40299">
        <ele>610.5</ele>
        <time>2026-05-18T08:41:51Z</time>
      </trkpt>
      <trkpt lat="43.76218" lon="3.4029">
        <ele>608</ele>
        <time>2026-05-18T08:41:56Z</time>
      </trkpt>
      <trkpt lat="43.76221" lon="3.40283">
        <ele>605.1</ele>
        <time>2026-05-18T08:42:01Z</time>
      </trkpt>
      <trkpt lat="43.76222" lon="3.40275">
        <ele>602.9</ele>
        <time>2026-05-18T08:42:06Z</time>
      </trkpt>
      <trkpt lat="43.76224" lon="3.40265">
        <ele>599.8</ele>
        <time>2026-05-18T08:42:11Z</time>
      </trkpt>
      <trkpt lat="43.76227" lon="3.40255">
        <ele>596.3</ele>
        <time>2026-05-18T08:42:16Z</time>
      </trkpt>
      <trkpt lat="43.76225" lon="3.40246">
        <ele>595.1</ele>
        <time>2026-05-18T08:42:21Z</time>
      </trkpt>
      <trkpt lat="43.76225" lon="3.40238">
        <ele>593.6</ele>
        <time>2026-05-18T08:42:26Z</time>
      </trkpt>
      <trkpt lat="43.76224" lon="3.40229">
        <ele>592.2</ele>
        <time>2026-05-18T08:42:31Z</time>
      </trkpt>
      <trkpt lat="43.76224" lon="3.40219">
        <ele>590.3</ele>
        <time>2026-05-18T08:42:36Z</time>
      </trkpt>
      <trkpt lat="43.76225" lon="3.40209">
        <ele>588.1</ele>
        <time>2026-05-18T08:42:41Z</time>
      </trkpt>
      <trkpt lat="43.76224" lon="3.402">
        <ele>586.7</ele>
        <time>2026-05-18T08:42:46Z</time>
      </trkpt>
      <trkpt lat="43.76224" lon="3.40191">
        <ele>584.9</ele>
        <time>2026-05-18T08:42:51Z</time>
      </trkpt>
      <trkpt lat="43.76222" lon="3.40181">
        <ele>583.5</ele>
        <time>2026-05-18T08:42:56Z</time>
      </trkpt>
      <trkpt lat="43.7622" lon="3.40173">
        <ele>582.5</ele>
        <time>2026-05-18T08:43:01Z</time>
      </trkpt>
      <trkpt lat="43.76219" lon="3.40163">
        <ele>580.6</ele>
        <time>2026-05-18T08:43:06Z</time>
      </trkpt>
      <trkpt lat="43.76221" lon="3.40156">
        <ele>578.5</ele>
        <time>2026-05-18T08:43:11Z</time>
      </trkpt>
      <trkpt lat="43.7622" lon="3.40149">
        <ele>577.1</ele>
        <time>2026-05-18T08:43:16Z</time>
      </trkpt>
      <trkpt lat="43.76219" lon="3.40147">
        <ele>576.8</ele>
        <time>2026-05-18T08:43:21Z</time>
      </trkpt>
      <trkpt lat="43.76219" lon="3.40147">
        <ele>576.8</ele>
        <time>2026-05-18T08:43:26Z</time>
      </trkpt>
      <trkpt lat="43.76214" lon="3.40159">
        <ele>580.7</ele>
        <time>2026-05-18T08:43:31Z</time>
      </trkpt>
      <trkpt lat="43.76212" lon="3.40166">
        <ele>582.9</ele>
        <time>2026-05-18T08:43:36Z</time>
      </trkpt>
      <trkpt lat="43.7621" lon="3.40174">
        <ele>585.2</ele>
        <time>2026-05-18T08:43:41Z</time>
      </trkpt>
      <trkpt lat="43.76207" lon="3.40182">
        <ele>587.8</ele>
        <time>2026-05-18T08:43:46Z</time>
      </trkpt>
      <trkpt lat="43.76206" lon="3.40184">
        <ele>588.5</ele>
        <time>2026-05-18T08:43:51Z</time>
      </trkpt>
      <trkpt lat="43.76206" lon="3.40182">
        <ele>588</ele>
        <time>2026-05-18T08:43:56Z</time>
      </trkpt>
      <trkpt lat="43.76205" lon="3.40172">
        <ele>586</ele>
        <time>2026-05-18T08:44:01Z</time>
      </trkpt>
      <trkpt lat="43.76206" lon="3.40163">
        <ele>583.5</ele>
        <time>2026-05-18T08:44:06Z</time>
      </trkpt>
      <trkpt lat="43.76207" lon="3.40155">
        <ele>581.1</ele>
        <time>2026-05-18T08:44:11Z</time>
      </trkpt>
      <trkpt lat="43.76207" lon="3.40148">
        <ele>579.2</ele>
        <time>2026-05-18T08:44:16Z</time>
      </trkpt>
      <trkpt lat="43.76205" lon="3.40141">
        <ele>577.6</ele>
        <time>2026-05-18T08:44:21Z</time>
      </trkpt>
      <trkpt lat="43.76205" lon="3.40134">
        <ele>575.6</ele>
        <time>2026-05-18T08:44:26Z</time>
      </trkpt>
      <trkpt lat="43.76202" lon="3.40126">
        <ele>573.7</ele>
        <time>2026-05-18T08:44:31Z</time>
      </trkpt>
      <trkpt lat="43.76201" lon="3.40117">
        <ele>571.1</ele>
        <time>2026-05-18T08:44:36Z</time>
      </trkpt>
      <trkpt lat="43.76201" lon="3.40108">
        <ele>568.5</ele>
        <time>2026-05-18T08:44:41Z</time>
      </trkpt>
      <trkpt lat="43.762" lon="3.40099">
        <ele>565.9</ele>
        <time>2026-05-18T08:44:46Z</time>
      </trkpt>
      <trkpt lat="43.762" lon="3.40089">
        <ele>562.9</ele>
        <time>2026-05-18T08:44:51Z</time>
      </trkpt>
      <trkpt lat="43.76199" lon="3.40082">
        <ele>560.9</ele>
        <time>2026-05-18T08:44:56Z</time>
      </trkpt>
      <trkpt lat="43.762" lon="3.40073">
        <ele>559.2</ele>
        <time>2026-05-18T08:45:01Z</time>
      </trkpt>
      <trkpt lat="43.76199" lon="3.40064">
        <ele>557.4</ele>
        <time>2026-05-18T08:45:06Z</time>
      </trkpt>
      <trkpt lat="43.76198" lon="3.40054">
        <ele>555.4</ele>
        <time>2026-05-18T08:45:11Z</time>
      </trkpt>
      <trkpt lat="43.76197" lon="3.40045">
        <ele>553.5</ele>
        <time>2026-05-18T08:45:16Z</time>
      </trkpt>
      <trkpt lat="43.76196" lon="3.40036">
        <ele>551.6</ele>
        <time>2026-05-18T08:45:21Z</time>
      </trkpt>
      <trkpt lat="43.76195" lon="3.40029">
        <ele>550</ele>
        <time>2026-05-18T08:45:26Z</time>
      </trkpt>
      <trkpt lat="43.76194" lon="3.40025">
        <ele>549</ele>
        <time>2026-05-18T08:45:31Z</time>
      </trkpt>
      <trkpt lat="43.76192" lon="3.40019">
        <ele>547.4</ele>
        <time>2026-05-18T08:45:36Z</time>
      </trkpt>
      <trkpt lat="43.7619" lon="3.40011">
        <ele>545.4</ele>
        <time>2026-05-18T08:45:41Z</time>
      </trkpt>
      <trkpt lat="43.76189" lon="3.40003">
        <ele>543.5</ele>
        <time>2026-05-18T08:45:46Z</time>
      </trkpt>
      <trkpt lat="43.76189" lon="3.39995">
        <ele>542.2</ele>
        <time>2026-05-18T08:45:51Z</time>
      </trkpt>
      <trkpt lat="43.76187" lon="3.39984">
        <ele>540.5</ele>
        <time>2026-05-18T08:45:56Z</time>
      </trkpt>
      <trkpt lat="43.76184" lon="3.39978">
        <ele>539.1</ele>
        <time>2026-05-18T08:46:01Z</time>
      </trkpt>
      <trkpt lat="43.76185" lon="3.39978">
        <ele>539.3</ele>
        <time>2026-05-18T08:46:06Z</time>
      </trkpt>
      <trkpt lat="43.76185" lon="3.39978">
        <ele>539.3</ele>
        <time>2026-05-18T08:46:11Z</time>
      </trkpt>
      <trkpt lat="43.76185" lon="3.39978">
        <ele>539.3</ele>
        <time>2026-05-18T08:46:16Z</time>
      </trkpt>
      <trkpt lat="43.76181" lon="3.39971">
        <ele>537.5</ele>
        <time>2026-05-18T08:46:21Z</time>
      </trkpt>
      <trkpt lat="43.7618" lon="3.39959">
        <ele>535.7</ele>
        <time>2026-05-18T08:46:26Z</time>
      </trkpt>
      <trkpt lat="43.76179" lon="3.3995">
        <ele>534.3</ele>
        <time>2026-05-18T08:46:31Z</time>
      </trkpt>
      <trkpt lat="43.76179" lon="3.39943">
        <ele>533.4</ele>
        <time>2026-05-18T08:46:36Z</time>
      </trkpt>
      <trkpt lat="43.7618" lon="3.39938">
        <ele>533</ele>
        <time>2026-05-18T08:46:41Z</time>
      </trkpt>
      <trkpt lat="43.7618" lon="3.39931">
        <ele>532.1</ele>
        <time>2026-05-18T08:46:46Z</time>
      </trkpt>
      <trkpt lat="43.76179" lon="3.39922">
        <ele>530.7</ele>
        <time>2026-05-18T08:46:51Z</time>
      </trkpt>
      <trkpt lat="43.76178" lon="3.39916">
        <ele>529.6</ele>
        <time>2026-05-18T08:46:56Z</time>
      </trkpt>
      <trkpt lat="43.76176" lon="3.39909">
        <ele>528.1</ele>
        <time>2026-05-18T08:47:01Z</time>
      </trkpt>
      <trkpt lat="43.76175" lon="3.39902">
        <ele>526.9</ele>
        <time>2026-05-18T08:47:06Z</time>
      </trkpt>
      <trkpt lat="43.76176" lon="3.39892">
        <ele>526.1</ele>
        <time>2026-05-18T08:47:11Z</time>
      </trkpt>
      <trkpt lat="43.76176" lon="3.39885">
        <ele>525.2</ele>
        <time>2026-05-18T08:47:16Z</time>
      </trkpt>
      <trkpt lat="43.76177" lon="3.39876">
        <ele>524.5</ele>
        <time>2026-05-18T08:47:21Z</time>
      </trkpt>
      <trkpt lat="43.76179" lon="3.39868">
        <ele>524.2</ele>
        <time>2026-05-18T08:47:26Z</time>
      </trkpt>
      <trkpt lat="43.76181" lon="3.39859">
        <ele>523.7</ele>
        <time>2026-05-18T08:47:31Z</time>
      </trkpt>
      <trkpt lat="43.76183" lon="3.39849">
        <ele>523.2</ele>
        <time>2026-05-18T08:47:36Z</time>
      </trkpt>
      <trkpt lat="43.76185" lon="3.39841">
        <ele>522.9</ele>
        <time>2026-05-18T08:47:41Z</time>
      </trkpt>
      <trkpt lat="43.76186" lon="3.39833">
        <ele>522.2</ele>
        <time>2026-05-18T08:47:46Z</time>
      </trkpt>
      <trkpt lat="43.76186" lon="3.39826">
        <ele>521.6</ele>
        <time>2026-05-18T08:47:51Z</time>
      </trkpt>
      <trkpt lat="43.76187" lon="3.39816">
        <ele>521</ele>
        <time>2026-05-18T08:47:56Z</time>
      </trkpt>
      <trkpt lat="43.7619" lon="3.39807">
        <ele>521.1</ele>
        <time>2026-05-18T08:48:01Z</time>
      </trkpt>
      <trkpt lat="43.76187" lon="3.39802">
        <ele>519.7</ele>
        <time>2026-05-18T08:48:06Z</time>
      </trkpt>
      <trkpt lat="43.76184" lon="3.39803">
        <ele>518.8</ele>
        <time>2026-05-18T08:48:11Z</time>
      </trkpt>
      <trkpt lat="43.76181" lon="3.39806">
        <ele>518.2</ele>
        <time>2026-05-18T08:48:16Z</time>
      </trkpt>
      <trkpt lat="43.76177" lon="3.39812">
        <ele>517.5</ele>
        <time>2026-05-18T08:48:21Z</time>
      </trkpt>
      <trkpt lat="43.76172" lon="3.39818">
        <ele>516.4</ele>
        <time>2026-05-18T08:48:26Z</time>
      </trkpt>
      <trkpt lat="43.76168" lon="3.39825">
        <ele>515.7</ele>
        <time>2026-05-18T08:48:31Z</time>
      </trkpt>
      <trkpt lat="43.76163" lon="3.39831">
        <ele>516.3</ele>
        <time>2026-05-18T08:48:36Z</time>
      </trkpt>
      <trkpt lat="43.76158" lon="3.39838">
        <ele>517.8</ele>
        <time>2026-05-18T08:48:41Z</time>
      </trkpt>
      <trkpt lat="43.76153" lon="3.39846">
        <ele>519.6</ele>
        <time>2026-05-18T08:48:46Z</time>
      </trkpt>
      <trkpt lat="43.76146" lon="3.39853">
        <ele>521.7</ele>
        <time>2026-05-18T08:48:51Z</time>
      </trkpt>
      <trkpt lat="43.76141" lon="3.39861">
        <ele>523.6</ele>
        <time>2026-05-18T08:48:56Z</time>
      </trkpt>
      <trkpt lat="43.76137" lon="3.39869">
        <ele>525.5</ele>
        <time>2026-05-18T08:49:01Z</time>
      </trkpt>
      <trkpt lat="43.76132" lon="3.39876">
        <ele>527.4</ele>
        <time>2026-05-18T08:49:06Z</time>
      </trkpt>
      <trkpt lat="43.76129" lon="3.39882">
        <ele>528.8</ele>
        <time>2026-05-18T08:49:11Z</time>
      </trkpt>
      <trkpt lat="43.76125" lon="3.39889">
        <ele>530.7</ele>
        <time>2026-05-18T08:49:16Z</time>
      </trkpt>
      <trkpt lat="43.7612" lon="3.39895">
        <ele>532.6</ele>
        <time>2026-05-18T08:49:21Z</time>
      </trkpt>
      <trkpt lat="43.76118" lon="3.39893">
        <ele>532.7</ele>
        <time>2026-05-18T08:49:26Z</time>
      </trkpt>
      <trkpt lat="43.76121" lon="3.39886">
        <ele>531</ele>
        <time>2026-05-18T08:49:31Z</time>
      </trkpt>
      <trkpt lat="43.76124" lon="3.39878">
        <ele>529.2</ele>
        <time>2026-05-18T08:49:36Z</time>
      </trkpt>
      <trkpt lat="43.76126" lon="3.3987">
        <ele>527.5</ele>
        <time>2026-05-18T08:49:41Z</time>
      </trkpt>
      <trkpt lat="43.76128" lon="3.39863">
        <ele>526.1</ele>
        <time>2026-05-18T08:49:46Z</time>
      </trkpt>
      <trkpt lat="43.7613" lon="3.39855">
        <ele>524.6</ele>
        <time>2026-05-18T08:49:51Z</time>
      </trkpt>
      <trkpt lat="43.76132" lon="3.39846">
        <ele>522.9</ele>
        <time>2026-05-18T08:49:56Z</time>
      </trkpt>
      <trkpt lat="43.76134" lon="3.39837">
        <ele>521.2</ele>
        <time>2026-05-18T08:50:01Z</time>
      </trkpt>
      <trkpt lat="43.76136" lon="3.39829">
        <ele>520</ele>
        <time>2026-05-18T08:50:06Z</time>
      </trkpt>
      <trkpt lat="43.76136" lon="3.39822">
        <ele>519.3</ele>
        <time>2026-05-18T08:50:11Z</time>
      </trkpt>
      <trkpt lat="43.76135" lon="3.39814">
        <ele>518.6</ele>
        <time>2026-05-18T08:50:16Z</time>
      </trkpt>
      <trkpt lat="43.76134" lon="3.39806">
        <ele>517.9</ele>
        <time>2026-05-18T08:50:21Z</time>
      </trkpt>
      <trkpt lat="43.76135" lon="3.39795">
        <ele>516.6</ele>
        <time>2026-05-18T08:50:26Z</time>
      </trkpt>
      <trkpt lat="43.76134" lon="3.39785">
        <ele>515.7</ele>
        <time>2026-05-18T08:50:31Z</time>
      </trkpt>
      <trkpt lat="43.76134" lon="3.39776">
        <ele>514.8</ele>
        <time>2026-05-18T08:50:36Z</time>
      </trkpt>
      <trkpt lat="43.76133" lon="3.39768">
        <ele>514.1</ele>
        <time>2026-05-18T08:50:41Z</time>
      </trkpt>
      <trkpt lat="43.76132" lon="3.3976">
        <ele>513.4</ele>
        <time>2026-05-18T08:50:46Z</time>
      </trkpt>
      <trkpt lat="43.76129" lon="3.39752">
        <ele>512.8</ele>
        <time>2026-05-18T08:50:51Z</time>
      </trkpt>
      <trkpt lat="43.76127" lon="3.39745">
        <ele>512.5</ele>
        <time>2026-05-18T08:50:56Z</time>
      </trkpt>
      <trkpt lat="43.76123" lon="3.39736">
        <ele>512.2</ele>
        <time>2026-05-18T08:51:01Z</time>
      </trkpt>
      <trkpt lat="43.76119" lon="3.3973">
        <ele>512.1</ele>
        <time>2026-05-18T08:51:06Z</time>
      </trkpt>
      <trkpt lat="43.76114" lon="3.39724">
        <ele>512.1</ele>
        <time>2026-05-18T08:51:11Z</time>
      </trkpt>
      <trkpt lat="43.76111" lon="3.39719">
        <ele>511.9</ele>
        <time>2026-05-18T08:51:16Z</time>
      </trkpt>
      <trkpt lat="43.76109" lon="3.39716">
        <ele>511.7</ele>
        <time>2026-05-18T08:51:21Z</time>
      </trkpt>
      <trkpt lat="43.76107" lon="3.39709">
        <ele>511.3</ele>
        <time>2026-05-18T08:51:26Z</time>
      </trkpt>
      <trkpt lat="43.76105" lon="3.39701">
        <ele>510.7</ele>
        <time>2026-05-18T08:51:31Z</time>
      </trkpt>
      <trkpt lat="43.76104" lon="3.39693">
        <ele>510</ele>
        <time>2026-05-18T08:51:36Z</time>
      </trkpt>
      <trkpt lat="43.76103" lon="3.39685">
        <ele>509.4</ele>
        <time>2026-05-18T08:51:41Z</time>
      </trkpt>
      <trkpt lat="43.76103" lon="3.39677">
        <ele>508.7</ele>
        <time>2026-05-18T08:51:46Z</time>
      </trkpt>
      <trkpt lat="43.76101" lon="3.39669">
        <ele>508</ele>
        <time>2026-05-18T08:51:51Z</time>
      </trkpt>
      <trkpt lat="43.76097" lon="3.39661">
        <ele>507.1</ele>
        <time>2026-05-18T08:51:56Z</time>
      </trkpt>
      <trkpt lat="43.76094" lon="3.39654">
        <ele>506.1</ele>
        <time>2026-05-18T08:52:01Z</time>
      </trkpt>
      <trkpt lat="43.76091" lon="3.39646">
        <ele>505</ele>
        <time>2026-05-18T08:52:06Z</time>
      </trkpt>
      <trkpt lat="43.76088" lon="3.39638">
        <ele>503.9</ele>
        <time>2026-05-18T08:52:11Z</time>
      </trkpt>
      <trkpt lat="43.76085" lon="3.3963">
        <ele>502.7</ele>
        <time>2026-05-18T08:52:16Z</time>
      </trkpt>
      <trkpt lat="43.76081" lon="3.39621">
        <ele>501.8</ele>
        <time>2026-05-18T08:52:21Z</time>
      </trkpt>
      <trkpt lat="43.76077" lon="3.39612">
        <ele>501.3</ele>
        <time>2026-05-18T08:52:26Z</time>
      </trkpt>
      <trkpt lat="43.76074" lon="3.39606">
        <ele>501</ele>
        <time>2026-05-18T08:52:31Z</time>
      </trkpt>
      <trkpt lat="43.7607" lon="3.39598">
        <ele>500.7</ele>
        <time>2026-05-18T08:52:36Z</time>
      </trkpt>
      <trkpt lat="43.76068" lon="3.39589">
        <ele>499.9</ele>
        <time>2026-05-18T08:52:41Z</time>
      </trkpt>
      <trkpt lat="43.76067" lon="3.39581">
        <ele>499</ele>
        <time>2026-05-18T08:52:46Z</time>
      </trkpt>
      <trkpt lat="43.76068" lon="3.39571">
        <ele>497.6</ele>
        <time>2026-05-18T08:52:51Z</time>
      </trkpt>
      <trkpt lat="43.7607" lon="3.39562">
        <ele>496</ele>
        <time>2026-05-18T08:52:56Z</time>
      </trkpt>
      <trkpt lat="43.76072" lon="3.39554">
        <ele>494.6</ele>
        <time>2026-05-18T08:53:01Z</time>
      </trkpt>
      <trkpt lat="43.76069" lon="3.39552">
        <ele>495</ele>
        <time>2026-05-18T08:53:06Z</time>
      </trkpt>
      <trkpt lat="43.76064" lon="3.39559">
        <ele>496.9</ele>
        <time>2026-05-18T08:53:11Z</time>
      </trkpt>
      <trkpt lat="43.76059" lon="3.39565">
        <ele>498.7</ele>
        <time>2026-05-18T08:53:16Z</time>
      </trkpt>
      <trkpt lat="43.76055" lon="3.39571">
        <ele>500.3</ele>
        <time>2026-05-18T08:53:21Z</time>
      </trkpt>
      <trkpt lat="43.76055" lon="3.39578">
        <ele>501.1</ele>
        <time>2026-05-18T08:53:26Z</time>
      </trkpt>
      <trkpt lat="43.76057" lon="3.39586">
        <ele>501.7</ele>
        <time>2026-05-18T08:53:31Z</time>
      </trkpt>
      <trkpt lat="43.76061" lon="3.39595">
        <ele>502.1</ele>
        <time>2026-05-18T08:53:36Z</time>
      </trkpt>
      <trkpt lat="43.76063" lon="3.39604">
        <ele>502.9</ele>
        <time>2026-05-18T08:53:41Z</time>
      </trkpt>
      <trkpt lat="43.76066" lon="3.39612">
        <ele>503.4</ele>
        <time>2026-05-18T08:53:46Z</time>
      </trkpt>
      <trkpt lat="43.76068" lon="3.39617">
        <ele>503.7</ele>
        <time>2026-05-18T08:53:51Z</time>
      </trkpt>
      <trkpt lat="43.7607" lon="3.39623">
        <ele>504.1</ele>
        <time>2026-05-18T08:53:56Z</time>
      </trkpt>
      <trkpt lat="43.76072" lon="3.3963">
        <ele>504.7</ele>
        <time>2026-05-18T08:54:01Z</time>
      </trkpt>
      <trkpt lat="43.76073" lon="3.39641">
        <ele>506.1</ele>
        <time>2026-05-18T08:54:06Z</time>
      </trkpt>
      <trkpt lat="43.76074" lon="3.3965">
        <ele>507.1</ele>
        <time>2026-05-18T08:54:11Z</time>
      </trkpt>
      <trkpt lat="43.76074" lon="3.39656">
        <ele>508</ele>
        <time>2026-05-18T08:54:16Z</time>
      </trkpt>
      <trkpt lat="43.76074" lon="3.39668">
        <ele>509.6</ele>
        <time>2026-05-18T08:54:21Z</time>
      </trkpt>
      <trkpt lat="43.76073" lon="3.3968">
        <ele>511.1</ele>
        <time>2026-05-18T08:54:26Z</time>
      </trkpt>
      <trkpt lat="43.76072" lon="3.39688">
        <ele>512.1</ele>
        <time>2026-05-18T08:54:31Z</time>
      </trkpt>
      <trkpt lat="43.76073" lon="3.39694">
        <ele>512.6</ele>
        <time>2026-05-18T08:54:36Z</time>
      </trkpt>
      <trkpt lat="43.76072" lon="3.39702">
        <ele>513.7</ele>
        <time>2026-05-18T08:54:41Z</time>
      </trkpt>
      <trkpt lat="43.7607" lon="3.39708">
        <ele>514.7</ele>
        <time>2026-05-18T08:54:46Z</time>
      </trkpt>
      <trkpt lat="43.76063" lon="3.39716">
        <ele>516.8</ele>
        <time>2026-05-18T08:54:51Z</time>
      </trkpt>
      <trkpt lat="43.76058" lon="3.39718">
        <ele>517.9</ele>
        <time>2026-05-18T08:54:56Z</time>
      </trkpt>
      <trkpt lat="43.76052" lon="3.3972">
        <ele>519.1</ele>
        <time>2026-05-18T08:55:01Z</time>
      </trkpt>
      <trkpt lat="43.7605" lon="3.39716">
        <ele>519</ele>
        <time>2026-05-18T08:55:06Z</time>
      </trkpt>
      <trkpt lat="43.7605" lon="3.39709">
        <ele>518.2</ele>
        <time>2026-05-18T08:55:11Z</time>
      </trkpt>
      <trkpt lat="43.76048" lon="3.39701">
        <ele>517.6</ele>
        <time>2026-05-18T08:55:16Z</time>
      </trkpt>
      <trkpt lat="43.76048" lon="3.39692">
        <ele>516.5</ele>
        <time>2026-05-18T08:55:21Z</time>
      </trkpt>
      <trkpt lat="43.76046" lon="3.39683">
        <ele>515.8</ele>
        <time>2026-05-18T08:55:26Z</time>
      </trkpt>
      <trkpt lat="43.76045" lon="3.39674">
        <ele>514.9</ele>
        <time>2026-05-18T08:55:31Z</time>
      </trkpt>
      <trkpt lat="43.76043" lon="3.39666">
        <ele>514.2</ele>
        <time>2026-05-18T08:55:36Z</time>
      </trkpt>
      <trkpt lat="43.7604" lon="3.39655">
        <ele>513.4</ele>
        <time>2026-05-18T08:55:41Z</time>
      </trkpt>
      <trkpt lat="43.76038" lon="3.39644">
        <ele>512.4</ele>
        <time>2026-05-18T08:55:46Z</time>
      </trkpt>
      <trkpt lat="43.76036" lon="3.39634">
        <ele>511.6</ele>
        <time>2026-05-18T08:55:51Z</time>
      </trkpt>
      <trkpt lat="43.76034" lon="3.39626">
        <ele>511</ele>
        <time>2026-05-18T08:55:56Z</time>
      </trkpt>
      <trkpt lat="43.76037" lon="3.39618">
        <ele>509.5</ele>
        <time>2026-05-18T08:56:01Z</time>
      </trkpt>
      <trkpt lat="43.7604" lon="3.39611">
        <ele>508.1</ele>
        <time>2026-05-18T08:56:06Z</time>
      </trkpt>
      <trkpt lat="43.7604" lon="3.39605">
        <ele>507.4</ele>
        <time>2026-05-18T08:56:11Z</time>
      </trkpt>
      <trkpt lat="43.76044" lon="3.39602">
        <ele>506.3</ele>
        <time>2026-05-18T08:56:16Z</time>
      </trkpt>
      <trkpt lat="43.76044" lon="3.396">
        <ele>506</ele>
        <time>2026-05-18T08:56:21Z</time>
      </trkpt>
      <trkpt lat="43.7604" lon="3.39593">
        <ele>506</ele>
        <time>2026-05-18T08:56:26Z</time>
      </trkpt>
      <trkpt lat="43.76036" lon="3.39586">
        <ele>506</ele>
        <time>2026-05-18T08:56:31Z</time>
      </trkpt>
      <trkpt lat="43.76029" lon="3.3958">
        <ele>506.7</ele>
        <time>2026-05-18T08:56:36Z</time>
      </trkpt>
      <trkpt lat="43.76025" lon="3.39578">
        <ele>507.3</ele>
        <time>2026-05-18T08:56:41Z</time>
      </trkpt>
      <trkpt lat="43.76024" lon="3.39574">
        <ele>507.1</ele>
        <time>2026-05-18T08:56:46Z</time>
      </trkpt>
      <trkpt lat="43.76022" lon="3.39572">
        <ele>507.3</ele>
        <time>2026-05-18T08:56:51Z</time>
      </trkpt>
      <trkpt lat="43.76022" lon="3.39572">
        <ele>507.3</ele>
        <time>2026-05-18T08:56:56Z</time>
      </trkpt>
      <trkpt lat="43.76022" lon="3.39572">
        <ele>507.3</ele>
        <time>2026-05-18T08:57:01Z</time>
      </trkpt>
      <trkpt lat="43.76022" lon="3.39572">
        <ele>507.3</ele>
        <time>2026-05-18T08:57:06Z</time>
      </trkpt>
      <trkpt lat="43.76022" lon="3.39572">
        <ele>507.3</ele>
        <time>2026-05-18T08:57:11Z</time>
      </trkpt>
      <trkpt lat="43.76026" lon="3.3957">
        <ele>506.3</ele>
        <time>2026-05-18T08:57:16Z</time>
      </trkpt>
      <trkpt lat="43.76024" lon="3.39563">
        <ele>505.9</ele>
        <time>2026-05-18T08:57:21Z</time>
      </trkpt>
      <trkpt lat="43.76022" lon="3.39557">
        <ele>505.7</ele>
        <time>2026-05-18T08:57:26Z</time>
      </trkpt>
      <trkpt lat="43.76019" lon="3.39547">
        <ele>505.3</ele>
        <time>2026-05-18T08:57:31Z</time>
      </trkpt>
      <trkpt lat="43.76021" lon="3.39537">
        <ele>503.8</ele>
        <time>2026-05-18T08:57:36Z</time>
      </trkpt>
      <trkpt lat="43.76023" lon="3.3953">
        <ele>502.7</ele>
        <time>2026-05-18T08:57:41Z</time>
      </trkpt>
      <trkpt lat="43.76026" lon="3.39521">
        <ele>501</ele>
        <time>2026-05-18T08:57:46Z</time>
      </trkpt>
      <trkpt lat="43.76026" lon="3.3952">
        <ele>500.9</ele>
        <time>2026-05-18T08:57:51Z</time>
      </trkpt>
      <trkpt lat="43.76027" lon="3.3952">
        <ele>500.7</ele>
        <time>2026-05-18T08:57:56Z</time>
      </trkpt>
      <trkpt lat="43.76027" lon="3.3952">
        <ele>500.7</ele>
        <time>2026-05-18T08:58:01Z</time>
      </trkpt>
      <trkpt lat="43.76027" lon="3.3952">
        <ele>500.7</ele>
        <time>2026-05-18T08:58:06Z</time>
      </trkpt>
      <trkpt lat="43.76027" lon="3.3952">
        <ele>500.7</ele>
        <time>2026-05-18T08:58:11Z</time>
      </trkpt>
      <trkpt lat="43.76027" lon="3.3952">
        <ele>500.7</ele>
        <time>2026-05-18T08:58:16Z</time>
      </trkpt>
      <trkpt lat="43.76027" lon="3.3952">
        <ele>500.7</ele>
        <time>2026-05-18T08:58:21Z</time>
      </trkpt>
      <trkpt lat="43.76027" lon="3.3952">
        <ele>500.7</ele>
        <time>2026-05-18T08:58:26Z</time>
      </trkpt>
      <trkpt lat="43.76027" lon="3.3952">
        <ele>500.7</ele>
        <time>2026-05-18T08:58:31Z</time>
      </trkpt>
      <trkpt lat="43.76027" lon="3.3952">
        <ele>500.7</ele>
        <time>2026-05-18T08:58:36Z</time>
      </trkpt>
      <trkpt lat="43.76027" lon="3.3952">
        <ele>500.7</ele>
        <time>2026-05-18T08:58:41Z</time>
      </trkpt>
      <trkpt lat="43.76027" lon="3.3952">
        <ele>500.7</ele>
        <time>2026-05-18T08:58:46Z</time>
      </trkpt>
      <trkpt lat="43.76027" lon="3.3952">
        <ele>500.7</ele>
        <time>2026-05-18T08:58:51Z</time>
      </trkpt>
      <trkpt lat="43.76027" lon="3.3952">
        <ele>500.7</ele>
        <time>2026-05-18T08:58:56Z</time>
      </trkpt>
      <trkpt lat="43.76027" lon="3.3952">
        <ele>500.7</ele>
        <time>2026-05-18T08:59:01Z</time>
      </trkpt>
      <trkpt lat="43.76027" lon="3.3952">
        <ele>500.7</ele>
        <time>2026-05-18T08:59:06Z</time>
      </trkpt>
      <trkpt lat="43.76027" lon="3.3952">
        <ele>500.7</ele>
        <time>2026-05-18T08:59:11Z</time>
      </trkpt>
      <trkpt lat="43.76027" lon="3.3952">
        <ele>500.7</ele>
        <time>2026-05-18T08:59:16Z</time>
      </trkpt>
      <trkpt lat="43.76027" lon="3.3952">
        <ele>500.7</ele>
        <time>2026-05-18T08:59:21Z</time>
      </trkpt>
      <trkpt lat="43.76027" lon="3.3952">
        <ele>500.7</ele>
        <time>2026-05-18T08:59:26Z</time>
      </trkpt>
      <trkpt lat="43.76027" lon="3.3952">
        <ele>500.7</ele>
        <time>2026-05-18T08:59:31Z</time>
      </trkpt>
      <trkpt lat="43.76027" lon="3.3952">
        <ele>500.7</ele>
        <time>2026-05-18T08:59:36Z</time>
      </trkpt>
      <trkpt lat="43.76027" lon="3.3952">
        <ele>500.7</ele>
        <time>2026-05-18T08:59:41Z</time>
      </trkpt>
      <trkpt lat="43.76027" lon="3.3952">
        <ele>500.7</ele>
        <time>2026-05-18T08:59:46Z</time>
      </trkpt>
      <trkpt lat="43.76027" lon="3.3952">
        <ele>500.7</ele>
        <time>2026-05-18T08:59:51Z</time>
      </trkpt>
      <trkpt lat="43.76027" lon="3.3952">
        <ele>500.7</ele>
        <time>2026-05-18T08:59:56Z</time>
      </trkpt>
      <trkpt lat="43.76027" lon="3.3952">
        <ele>500.7</ele>
        <time>2026-05-18T09:00:01Z</time>
      </trkpt>
      <trkpt lat="43.76027" lon="3.3952">
        <ele>500.7</ele>
        <time>2026-05-18T09:00:06Z</time>
      </trkpt>
      <trkpt lat="43.76027" lon="3.3952">
        <ele>500.7</ele>
        <time>2026-05-18T09:00:11Z</time>
      </trkpt>
      <trkpt lat="43.76027" lon="3.3952">
        <ele>500.7</ele>
        <time>2026-05-18T09:00:16Z</time>
      </trkpt>
      <trkpt lat="43.76027" lon="3.3952">
        <ele>500.7</ele>
        <time>2026-05-18T09:00:21Z</time>
      </trkpt>
      <trkpt lat="43.76027" lon="3.3952">
        <ele>500.7</ele>
        <time>2026-05-18T09:00:26Z</time>
      </trkpt>
      <trkpt lat="43.76027" lon="3.3952">
        <ele>500.7</ele>
        <time>2026-05-18T09:00:31Z</time>
      </trkpt>
      <trkpt lat="43.76027" lon="3.3952">
        <ele>500.7</ele>
        <time>2026-05-18T09:00:36Z</time>
      </trkpt>
      <trkpt lat="43.76027" lon="3.3952">
        <ele>500.7</ele>
        <time>2026-05-18T09:00:41Z</time>
      </trkpt>
      <trkpt lat="43.76027" lon="3.3952">
        <ele>500.7</ele>
        <time>2026-05-18T09:00:46Z</time>
      </trkpt>
      <trkpt lat="43.76027" lon="3.3952">
        <ele>500.7</ele>
        <time>2026-05-18T09:00:51Z</time>
      </trkpt>
      <trkpt lat="43.76027" lon="3.3952">
        <ele>500.7</ele>
        <time>2026-05-18T09:00:56Z</time>
      </trkpt>
      <trkpt lat="43.76027" lon="3.3952">
        <ele>500.7</ele>
        <time>2026-05-18T09:01:01Z</time>
      </trkpt>
      <trkpt lat="43.76027" lon="3.3952">
        <ele>500.7</ele>
        <time>2026-05-18T09:01:06Z</time>
      </trkpt>
      <trkpt lat="43.76027" lon="3.3952">
        <ele>500.7</ele>
        <time>2026-05-18T09:01:11Z</time>
      </trkpt>
      <trkpt lat="43.76027" lon="3.3952">
        <ele>500.7</ele>
        <time>2026-05-18T09:01:16Z</time>
      </trkpt>
      <trkpt lat="43.76027" lon="3.3952">
        <ele>500.7</ele>
        <time>2026-05-18T09:01:21Z</time>
      </trkpt>
      <trkpt lat="43.76027" lon="3.3952">
        <ele>500.7</ele>
        <time>2026-05-18T09:01:26Z</time>
      </trkpt>
      <trkpt lat="43.76027" lon="3.3952">
        <ele>500.7</ele>
        <time>2026-05-18T09:01:31Z</time>
      </trkpt>
      <trkpt lat="43.76027" lon="3.3952">
        <ele>500.7</ele>
        <time>2026-05-18T09:01:36Z</time>
      </trkpt>
      <trkpt lat="43.76027" lon="3.3952">
        <ele>500.7</ele>
        <time>2026-05-18T09:01:41Z</time>
      </trkpt>
      <trkpt lat="43.76027" lon="3.3952">
        <ele>500.7</ele>
        <time>2026-05-18T09:01:46Z</time>
      </trkpt>
      <trkpt lat="43.76027" lon="3.3952">
        <ele>500.7</ele>
        <time>2026-05-18T09:01:51Z</time>
      </trkpt>
      <trkpt lat="43.76027" lon="3.3952">
        <ele>500.7</ele>
        <time>2026-05-18T09:01:56Z</time>
      </trkpt>
      <trkpt lat="43.76027" lon="3.3952">
        <ele>500.7</ele>
        <time>2026-05-18T09:02:01Z</time>
      </trkpt>
      <trkpt lat="43.76027" lon="3.3952">
        <ele>500.7</ele>
        <time>2026-05-18T09:02:06Z</time>
      </trkpt>
      <trkpt lat="43.76027" lon="3.3952">
        <ele>500.7</ele>
        <time>2026-05-18T09:02:11Z</time>
      </trkpt>
      <trkpt lat="43.76027" lon="3.3952">
        <ele>500.7</ele>
        <time>2026-05-18T09:02:16Z</time>
      </trkpt>
      <trkpt lat="43.76027" lon="3.3952">
        <ele>500.7</ele>
        <time>2026-05-18T09:02:21Z</time>
      </trkpt>
      <trkpt lat="43.76027" lon="3.3952">
        <ele>500.7</ele>
        <time>2026-05-18T09:02:26Z</time>
      </trkpt>
      <trkpt lat="43.76027" lon="3.3952">
        <ele>500.7</ele>
        <time>2026-05-18T09:02:31Z</time>
      </trkpt>
      <trkpt lat="43.76027" lon="3.3952">
        <ele>500.7</ele>
        <time>2026-05-18T09:02:36Z</time>
      </trkpt>
      <trkpt lat="43.76027" lon="3.3952">
        <ele>500.7</ele>
        <time>2026-05-18T09:02:41Z</time>
      </trkpt>
      <trkpt lat="43.76027" lon="3.3952">
        <ele>500.7</ele>
        <time>2026-05-18T09:02:46Z</time>
      </trkpt>
      <trkpt lat="43.76027" lon="3.3952">
        <ele>500.7</ele>
        <time>2026-05-18T09:02:51Z</time>
      </trkpt>
      <trkpt lat="43.76027" lon="3.3952">
        <ele>500.7</ele>
        <time>2026-05-18T09:02:56Z</time>
      </trkpt>
      <trkpt lat="43.76027" lon="3.3952">
        <ele>500.7</ele>
        <time>2026-05-18T09:03:01Z</time>
      </trkpt>
      <trkpt lat="43.76027" lon="3.3952">
        <ele>500.7</ele>
        <time>2026-05-18T09:03:06Z</time>
      </trkpt>
      <trkpt lat="43.76027" lon="3.3952">
        <ele>500.7</ele>
        <time>2026-05-18T09:03:11Z</time>
      </trkpt>
      <trkpt lat="43.76027" lon="3.3952">
        <ele>500.7</ele>
        <time>2026-05-18T09:03:16Z</time>
      </trkpt>
      <trkpt lat="43.76027" lon="3.3952">
        <ele>500.7</ele>
        <time>2026-05-18T09:03:21Z</time>
      </trkpt>
      <trkpt lat="43.76027" lon="3.39516">
        <ele>500.2</ele>
        <time>2026-05-18T09:03:26Z</time>
      </trkpt>
      <trkpt lat="43.76033" lon="3.39506">
        <ele>497.7</ele>
        <time>2026-05-18T09:03:31Z</time>
      </trkpt>
      <trkpt lat="43.76037" lon="3.395">
        <ele>496.1</ele>
        <time>2026-05-18T09:03:36Z</time>
      </trkpt>
      <trkpt lat="43.76041" lon="3.39492">
        <ele>494.5</ele>
        <time>2026-05-18T09:03:41Z</time>
      </trkpt>
      <trkpt lat="43.76045" lon="3.39486">
        <ele>493.1</ele>
        <time>2026-05-18T09:03:46Z</time>
      </trkpt>
      <trkpt lat="43.76049" lon="3.39476">
        <ele>491.3</ele>
        <time>2026-05-18T09:03:51Z</time>
      </trkpt>
      <trkpt lat="43.76052" lon="3.39467">
        <ele>489.9</ele>
        <time>2026-05-18T09:03:56Z</time>
      </trkpt>
      <trkpt lat="43.76056" lon="3.39457">
        <ele>488.3</ele>
        <time>2026-05-18T09:04:01Z</time>
      </trkpt>
      <trkpt lat="43.76059" lon="3.39447">
        <ele>486.9</ele>
        <time>2026-05-18T09:04:06Z</time>
      </trkpt>
      <trkpt lat="43.76063" lon="3.39437">
        <ele>485.4</ele>
        <time>2026-05-18T09:04:11Z</time>
      </trkpt>
      <trkpt lat="43.76068" lon="3.39429">
        <ele>483.8</ele>
        <time>2026-05-18T09:04:16Z</time>
      </trkpt>
      <trkpt lat="43.76074" lon="3.39421">
        <ele>482.1</ele>
        <time>2026-05-18T09:04:21Z</time>
      </trkpt>
      <trkpt lat="43.76082" lon="3.39415">
        <ele>480.2</ele>
        <time>2026-05-18T09:04:26Z</time>
      </trkpt>
      <trkpt lat="43.76087" lon="3.39409">
        <ele>479.3</ele>
        <time>2026-05-18T09:04:31Z</time>
      </trkpt>
      <trkpt lat="43.76093" lon="3.39403">
        <ele>478.5</ele>
        <time>2026-05-18T09:04:36Z</time>
      </trkpt>
      <trkpt lat="43.76098" lon="3.39397">
        <ele>477.7</ele>
        <time>2026-05-18T09:04:41Z</time>
      </trkpt>
      <trkpt lat="43.76105" lon="3.39391">
        <ele>476.5</ele>
        <time>2026-05-18T09:04:46Z</time>
      </trkpt>
      <trkpt lat="43.76112" lon="3.39386">
        <ele>475.4</ele>
        <time>2026-05-18T09:04:51Z</time>
      </trkpt>
      <trkpt lat="43.76119" lon="3.39382">
        <ele>474.2</ele>
        <time>2026-05-18T09:04:56Z</time>
      </trkpt>
      <trkpt lat="43.76125" lon="3.3938">
        <ele>473.4</ele>
        <time>2026-05-18T09:05:01Z</time>
      </trkpt>
      <trkpt lat="43.76132" lon="3.39377">
        <ele>472.2</ele>
        <time>2026-05-18T09:05:06Z</time>
      </trkpt>
      <trkpt lat="43.76138" lon="3.39374">
        <ele>471.1</ele>
        <time>2026-05-18T09:05:11Z</time>
      </trkpt>
      <trkpt lat="43.76145" lon="3.3937">
        <ele>469.7</ele>
        <time>2026-05-18T09:05:16Z</time>
      </trkpt>
      <trkpt lat="43.76152" lon="3.39364">
        <ele>467.8</ele>
        <time>2026-05-18T09:05:21Z</time>
      </trkpt>
      <trkpt lat="43.76159" lon="3.39355">
        <ele>465.3</ele>
        <time>2026-05-18T09:05:26Z</time>
      </trkpt>
      <trkpt lat="43.76164" lon="3.39347">
        <ele>463</ele>
        <time>2026-05-18T09:05:31Z</time>
      </trkpt>
      <trkpt lat="43.76171" lon="3.3934">
        <ele>461.4</ele>
        <time>2026-05-18T09:05:36Z</time>
      </trkpt>
      <trkpt lat="43.76178" lon="3.39337">
        <ele>461</ele>
        <time>2026-05-18T09:05:41Z</time>
      </trkpt>
      <trkpt lat="43.76183" lon="3.39332">
        <ele>460.2</ele>
        <time>2026-05-18T09:05:46Z</time>
      </trkpt>
      <trkpt lat="43.76184" lon="3.39329">
        <ele>459.7</ele>
        <time>2026-05-18T09:05:51Z</time>
      </trkpt>
      <trkpt lat="43.76184" lon="3.39329">
        <ele>459.7</ele>
        <time>2026-05-18T09:05:56Z</time>
      </trkpt>
      <trkpt lat="43.76184" lon="3.39329">
        <ele>459.7</ele>
        <time>2026-05-18T09:06:01Z</time>
      </trkpt>
      <trkpt lat="43.76184" lon="3.39329">
        <ele>459.7</ele>
        <time>2026-05-18T09:06:06Z</time>
      </trkpt>
      <trkpt lat="43.76184" lon="3.39329">
        <ele>459.7</ele>
        <time>2026-05-18T09:06:11Z</time>
      </trkpt>
      <trkpt lat="43.76184" lon="3.39329">
        <ele>459.7</ele>
        <time>2026-05-18T09:06:16Z</time>
      </trkpt>
      <trkpt lat="43.76184" lon="3.39329">
        <ele>459.7</ele>
        <time>2026-05-18T09:06:21Z</time>
      </trkpt>
      <trkpt lat="43.76184" lon="3.39329">
        <ele>459.7</ele>
        <time>2026-05-18T09:06:26Z</time>
      </trkpt>
      <trkpt lat="43.76184" lon="3.39329">
        <ele>459.7</ele>
        <time>2026-05-18T09:06:31Z</time>
      </trkpt>
      <trkpt lat="43.76184" lon="3.39329">
        <ele>459.7</ele>
        <time>2026-05-18T09:06:36Z</time>
      </trkpt>
      <trkpt lat="43.76184" lon="3.39329">
        <ele>459.7</ele>
        <time>2026-05-18T09:06:41Z</time>
      </trkpt>
      <trkpt lat="43.76184" lon="3.39329">
        <ele>459.7</ele>
        <time>2026-05-18T09:06:46Z</time>
      </trkpt>
      <trkpt lat="43.76184" lon="3.39329">
        <ele>459.7</ele>
        <time>2026-05-18T09:06:51Z</time>
      </trkpt>
      <trkpt lat="43.76184" lon="3.39329">
        <ele>459.7</ele>
        <time>2026-05-18T09:06:56Z</time>
      </trkpt>
      <trkpt lat="43.76184" lon="3.39329">
        <ele>459.7</ele>
        <time>2026-05-18T09:07:01Z</time>
      </trkpt>
      <trkpt lat="43.76194" lon="3.39329">
        <ele>459.9</ele>
        <time>2026-05-18T09:07:06Z</time>
      </trkpt>
      <trkpt lat="43.76194" lon="3.39329">
        <ele>459.9</ele>
        <time>2026-05-18T09:07:11Z</time>
      </trkpt>
      <trkpt lat="43.76194" lon="3.39329">
        <ele>459.9</ele>
        <time>2026-05-18T09:07:16Z</time>
      </trkpt>
      <trkpt lat="43.76194" lon="3.39329">
        <ele>459.9</ele>
        <time>2026-05-18T09:07:21Z</time>
      </trkpt>
      <trkpt lat="43.76199" lon="3.39331">
        <ele>460.4</ele>
        <time>2026-05-18T09:07:26Z</time>
      </trkpt>
      <trkpt lat="43.76206" lon="3.39335">
        <ele>461.3</ele>
        <time>2026-05-18T09:07:31Z</time>
      </trkpt>
      <trkpt lat="43.76213" lon="3.39338">
        <ele>462.1</ele>
        <time>2026-05-18T09:07:36Z</time>
      </trkpt>
      <trkpt lat="43.76221" lon="3.39338">
        <ele>462.3</ele>
        <time>2026-05-18T09:07:41Z</time>
      </trkpt>
      <trkpt lat="43.76227" lon="3.39333">
        <ele>461.4</ele>
        <time>2026-05-18T09:07:46Z</time>
      </trkpt>
      <trkpt lat="43.76233" lon="3.39328">
        <ele>460.5</ele>
        <time>2026-05-18T09:07:51Z</time>
      </trkpt>
      <trkpt lat="43.76239" lon="3.39323">
        <ele>459.6</ele>
        <time>2026-05-18T09:07:56Z</time>
      </trkpt>
      <trkpt lat="43.76245" lon="3.39318">
        <ele>458.6</ele>
        <time>2026-05-18T09:08:01Z</time>
      </trkpt>
      <trkpt lat="43.76251" lon="3.39312">
        <ele>457.5</ele>
        <time>2026-05-18T09:08:06Z</time>
      </trkpt>
      <trkpt lat="43.76257" lon="3.39305">
        <ele>456.3</ele>
        <time>2026-05-18T09:08:11Z</time>
      </trkpt>
      <trkpt lat="43.76263" lon="3.39299">
        <ele>455.4</ele>
        <time>2026-05-18T09:08:16Z</time>
      </trkpt>
      <trkpt lat="43.76269" lon="3.39293">
        <ele>454.4</ele>
        <time>2026-05-18T09:08:21Z</time>
      </trkpt>
      <trkpt lat="43.76274" lon="3.39286">
        <ele>453.2</ele>
        <time>2026-05-18T09:08:26Z</time>
      </trkpt>
      <trkpt lat="43.7628" lon="3.39281">
        <ele>452.4</ele>
        <time>2026-05-18T09:08:31Z</time>
      </trkpt>
      <trkpt lat="43.76285" lon="3.39273">
        <ele>450.9</ele>
        <time>2026-05-18T09:08:36Z</time>
      </trkpt>
      <trkpt lat="43.76287" lon="3.39264">
        <ele>448.9</ele>
        <time>2026-05-18T09:08:41Z</time>
      </trkpt>
      <trkpt lat="43.7629" lon="3.39253">
        <ele>446.6</ele>
        <time>2026-05-18T09:08:46Z</time>
      </trkpt>
      <trkpt lat="43.76293" lon="3.39242">
        <ele>445</ele>
        <time>2026-05-18T09:08:51Z</time>
      </trkpt>
      <trkpt lat="43.76299" lon="3.39233">
        <ele>444</ele>
        <time>2026-05-18T09:08:56Z</time>
      </trkpt>
      <trkpt lat="43.76305" lon="3.39225">
        <ele>443.1</ele>
        <time>2026-05-18T09:09:01Z</time>
      </trkpt>
      <trkpt lat="43.76311" lon="3.3922">
        <ele>442.7</ele>
        <time>2026-05-18T09:09:06Z</time>
      </trkpt>
      <trkpt lat="43.76316" lon="3.39214">
        <ele>442.1</ele>
        <time>2026-05-18T09:09:11Z</time>
      </trkpt>
      <trkpt lat="43.76321" lon="3.39205">
        <ele>441</ele>
        <time>2026-05-18T09:09:16Z</time>
      </trkpt>
      <trkpt lat="43.76324" lon="3.39197">
        <ele>440</ele>
        <time>2026-05-18T09:09:21Z</time>
      </trkpt>
      <trkpt lat="43.76325" lon="3.39186">
        <ele>438.5</ele>
        <time>2026-05-18T09:09:26Z</time>
      </trkpt>
      <trkpt lat="43.76326" lon="3.39177">
        <ele>437.2</ele>
        <time>2026-05-18T09:09:31Z</time>
      </trkpt>
      <trkpt lat="43.76327" lon="3.39162">
        <ele>435</ele>
        <time>2026-05-18T09:09:36Z</time>
      </trkpt>
      <trkpt lat="43.76327" lon="3.3915">
        <ele>433.2</ele>
        <time>2026-05-18T09:09:41Z</time>
      </trkpt>
      <trkpt lat="43.76329" lon="3.39141">
        <ele>431.8</ele>
        <time>2026-05-18T09:09:46Z</time>
      </trkpt>
      <trkpt lat="43.76331" lon="3.3913">
        <ele>430.2</ele>
        <time>2026-05-18T09:09:51Z</time>
      </trkpt>
      <trkpt lat="43.76332" lon="3.39121">
        <ele>428.8</ele>
        <time>2026-05-18T09:09:56Z</time>
      </trkpt>
      <trkpt lat="43.76334" lon="3.39113">
        <ele>427.8</ele>
        <time>2026-05-18T09:10:01Z</time>
      </trkpt>
      <trkpt lat="43.76337" lon="3.39103">
        <ele>427</ele>
        <time>2026-05-18T09:10:06Z</time>
      </trkpt>
      <trkpt lat="43.76341" lon="3.39095">
        <ele>426.8</ele>
        <time>2026-05-18T09:10:11Z</time>
      </trkpt>
      <trkpt lat="43.76345" lon="3.39089">
        <ele>426.9</ele>
        <time>2026-05-18T09:10:16Z</time>
      </trkpt>
      <trkpt lat="43.76349" lon="3.3908">
        <ele>426.8</ele>
        <time>2026-05-18T09:10:21Z</time>
      </trkpt>
      <trkpt lat="43.76351" lon="3.39067">
        <ele>425.9</ele>
        <time>2026-05-18T09:10:26Z</time>
      </trkpt>
      <trkpt lat="43.76355" lon="3.39058">
        <ele>426.1</ele>
        <time>2026-05-18T09:10:31Z</time>
      </trkpt>
      <trkpt lat="43.76356" lon="3.39047">
        <ele>425.2</ele>
        <time>2026-05-18T09:10:36Z</time>
      </trkpt>
      <trkpt lat="43.76353" lon="3.39034">
        <ele>423</ele>
        <time>2026-05-18T09:10:41Z</time>
      </trkpt>
      <trkpt lat="43.7635" lon="3.39026">
        <ele>421.2</ele>
        <time>2026-05-18T09:10:46Z</time>
      </trkpt>
      <trkpt lat="43.76348" lon="3.39015">
        <ele>419.4</ele>
        <time>2026-05-18T09:10:51Z</time>
      </trkpt>
      <trkpt lat="43.76345" lon="3.39004">
        <ele>417.2</ele>
        <time>2026-05-18T09:10:56Z</time>
      </trkpt>
      <trkpt lat="43.76344" lon="3.38993">
        <ele>415.7</ele>
        <time>2026-05-18T09:11:01Z</time>
      </trkpt>
      <trkpt lat="43.76346" lon="3.38983">
        <ele>415.3</ele>
        <time>2026-05-18T09:11:06Z</time>
      </trkpt>
      <trkpt lat="43.76347" lon="3.38975">
        <ele>414.7</ele>
        <time>2026-05-18T09:11:11Z</time>
      </trkpt>
      <trkpt lat="43.76348" lon="3.38965">
        <ele>414</ele>
        <time>2026-05-18T09:11:16Z</time>
      </trkpt>
      <trkpt lat="43.76347" lon="3.38955">
        <ele>412.6</ele>
        <time>2026-05-18T09:11:21Z</time>
      </trkpt>
      <trkpt lat="43.76345" lon="3.3895">
        <ele>411.3</ele>
        <time>2026-05-18T09:11:26Z</time>
      </trkpt>
      <trkpt lat="43.76345" lon="3.38948">
        <ele>411.1</ele>
        <time>2026-05-18T09:11:31Z</time>
      </trkpt>
      <trkpt lat="43.76345" lon="3.38939">
        <ele>410.1</ele>
        <time>2026-05-18T09:11:36Z</time>
      </trkpt>
      <trkpt lat="43.76345" lon="3.38927">
        <ele>408.8</ele>
        <time>2026-05-18T09:11:41Z</time>
      </trkpt>
      <trkpt lat="43.76343" lon="3.38918">
        <ele>407</ele>
        <time>2026-05-18T09:11:46Z</time>
      </trkpt>
      <trkpt lat="43.76343" lon="3.38911">
        <ele>406.3</ele>
        <time>2026-05-18T09:11:51Z</time>
      </trkpt>
      <trkpt lat="43.76343" lon="3.38914">
        <ele>406.6</ele>
        <time>2026-05-18T09:11:56Z</time>
      </trkpt>
      <trkpt lat="43.76343" lon="3.38915">
        <ele>406.7</ele>
        <time>2026-05-18T09:12:01Z</time>
      </trkpt>
      <trkpt lat="43.76343" lon="3.38915">
        <ele>406.7</ele>
        <time>2026-05-18T09:12:06Z</time>
      </trkpt>
      <trkpt lat="43.76342" lon="3.38916">
        <ele>406.4</ele>
        <time>2026-05-18T09:12:11Z</time>
      </trkpt>
      <trkpt lat="43.76343" lon="3.38922">
        <ele>407.4</ele>
        <time>2026-05-18T09:12:16Z</time>
      </trkpt>
      <trkpt lat="43.76342" lon="3.38929">
        <ele>407.8</ele>
        <time>2026-05-18T09:12:21Z</time>
      </trkpt>
      <trkpt lat="43.76341" lon="3.38936">
        <ele>408.2</ele>
        <time>2026-05-18T09:12:26Z</time>
      </trkpt>
      <trkpt lat="43.76341" lon="3.38945">
        <ele>409.2</ele>
        <time>2026-05-18T09:12:31Z</time>
      </trkpt>
      <trkpt lat="43.7634" lon="3.38952">
        <ele>409.7</ele>
        <time>2026-05-18T09:12:36Z</time>
      </trkpt>
      <trkpt lat="43.76339" lon="3.38964">
        <ele>410.7</ele>
        <time>2026-05-18T09:12:41Z</time>
      </trkpt>
      <trkpt lat="43.76339" lon="3.38973">
        <ele>411.7</ele>
        <time>2026-05-18T09:12:46Z</time>
      </trkpt>
      <trkpt lat="43.7634" lon="3.38984">
        <ele>413.3</ele>
        <time>2026-05-18T09:12:51Z</time>
      </trkpt>
      <trkpt lat="43.7634" lon="3.38992">
        <ele>414.2</ele>
        <time>2026-05-18T09:12:56Z</time>
      </trkpt>
      <trkpt lat="43.7634" lon="3.39">
        <ele>415.2</ele>
        <time>2026-05-18T09:13:01Z</time>
      </trkpt>
      <trkpt lat="43.76343" lon="3.39009">
        <ele>417.1</ele>
        <time>2026-05-18T09:13:06Z</time>
      </trkpt>
      <trkpt lat="43.76346" lon="3.39016">
        <ele>418.9</ele>
        <time>2026-05-18T09:13:11Z</time>
      </trkpt>
      <trkpt lat="43.76348" lon="3.39024">
        <ele>420.4</ele>
        <time>2026-05-18T09:13:16Z</time>
      </trkpt>
      <trkpt lat="43.7635" lon="3.39032">
        <ele>421.9</ele>
        <time>2026-05-18T09:13:21Z</time>
      </trkpt>
      <trkpt lat="43.7635" lon="3.3904">
        <ele>422.7</ele>
        <time>2026-05-18T09:13:26Z</time>
      </trkpt>
      <trkpt lat="43.76349" lon="3.39049">
        <ele>423.4</ele>
        <time>2026-05-18T09:13:31Z</time>
      </trkpt>
      <trkpt lat="43.76349" lon="3.39057">
        <ele>424.3</ele>
        <time>2026-05-18T09:13:36Z</time>
      </trkpt>
      <trkpt lat="43.76348" lon="3.39066">
        <ele>425</ele>
        <time>2026-05-18T09:13:41Z</time>
      </trkpt>
      <trkpt lat="43.76345" lon="3.39074">
        <ele>425</ele>
        <time>2026-05-18T09:13:46Z</time>
      </trkpt>
      <trkpt lat="43.76341" lon="3.39081">
        <ele>424.8</ele>
        <time>2026-05-18T09:13:51Z</time>
      </trkpt>
      <trkpt lat="43.76337" lon="3.39088">
        <ele>424.7</ele>
        <time>2026-05-18T09:13:56Z</time>
      </trkpt>
      <trkpt lat="43.76334" lon="3.39095">
        <ele>425</ele>
        <time>2026-05-18T09:14:01Z</time>
      </trkpt>
      <trkpt lat="43.76333" lon="3.39102">
        <ele>425.9</ele>
        <time>2026-05-18T09:14:06Z</time>
      </trkpt>
      <trkpt lat="43.76331" lon="3.39111">
        <ele>427.2</ele>
        <time>2026-05-18T09:14:11Z</time>
      </trkpt>
      <trkpt lat="43.76331" lon="3.39118">
        <ele>428.3</ele>
        <time>2026-05-18T09:14:16Z</time>
      </trkpt>
      <trkpt lat="43.7633" lon="3.39126">
        <ele>429.5</ele>
        <time>2026-05-18T09:14:21Z</time>
      </trkpt>
      <trkpt lat="43.7633" lon="3.39134">
        <ele>430.8</ele>
        <time>2026-05-18T09:14:26Z</time>
      </trkpt>
      <trkpt lat="43.76329" lon="3.39142">
        <ele>432</ele>
        <time>2026-05-18T09:14:31Z</time>
      </trkpt>
      <trkpt lat="43.76328" lon="3.39149">
        <ele>433.1</ele>
        <time>2026-05-18T09:14:36Z</time>
      </trkpt>
      <trkpt lat="43.76327" lon="3.39158">
        <ele>434.4</ele>
        <time>2026-05-18T09:14:41Z</time>
      </trkpt>
      <trkpt lat="43.76326" lon="3.39166">
        <ele>435.6</ele>
        <time>2026-05-18T09:14:46Z</time>
      </trkpt>
      <trkpt lat="43.76325" lon="3.39175">
        <ele>436.9</ele>
        <time>2026-05-18T09:14:51Z</time>
      </trkpt>
      <trkpt lat="43.76325" lon="3.39184">
        <ele>438.2</ele>
        <time>2026-05-18T09:14:56Z</time>
      </trkpt>
      <trkpt lat="43.76323" lon="3.39191">
        <ele>439.1</ele>
        <time>2026-05-18T09:15:01Z</time>
      </trkpt>
      <trkpt lat="43.76321" lon="3.39199">
        <ele>440.2</ele>
        <time>2026-05-18T09:15:06Z</time>
      </trkpt>
      <trkpt lat="43.76318" lon="3.39208">
        <ele>441.3</ele>
        <time>2026-05-18T09:15:11Z</time>
      </trkpt>
      <trkpt lat="43.76314" lon="3.39215">
        <ele>442.1</ele>
        <time>2026-05-18T09:15:16Z</time>
      </trkpt>
      <trkpt lat="43.76308" lon="3.39221">
        <ele>442.7</ele>
        <time>2026-05-18T09:15:21Z</time>
      </trkpt>
      <trkpt lat="43.76303" lon="3.39224">
        <ele>442.9</ele>
        <time>2026-05-18T09:15:26Z</time>
      </trkpt>
      <trkpt lat="43.76299" lon="3.39229">
        <ele>443.4</ele>
        <time>2026-05-18T09:15:31Z</time>
      </trkpt>
      <trkpt lat="43.76296" lon="3.39236">
        <ele>444.3</ele>
        <time>2026-05-18T09:15:36Z</time>
      </trkpt>
      <trkpt lat="43.76293" lon="3.39243">
        <ele>445.1</ele>
        <time>2026-05-18T09:15:41Z</time>
      </trkpt>
      <trkpt lat="43.76291" lon="3.39251">
        <ele>446.2</ele>
        <time>2026-05-18T09:15:46Z</time>
      </trkpt>
      <trkpt lat="43.7629" lon="3.39258">
        <ele>447.7</ele>
        <time>2026-05-18T09:15:51Z</time>
      </trkpt>
      <trkpt lat="43.76287" lon="3.39264">
        <ele>448.9</ele>
        <time>2026-05-18T09:15:56Z</time>
      </trkpt>
      <trkpt lat="43.76283" lon="3.3927">
        <ele>450.1</ele>
        <time>2026-05-18T09:16:01Z</time>
      </trkpt>
      <trkpt lat="43.76279" lon="3.39276">
        <ele>451.2</ele>
        <time>2026-05-18T09:16:06Z</time>
      </trkpt>
      <trkpt lat="43.76275" lon="3.39282">
        <ele>452.3</ele>
        <time>2026-05-18T09:16:11Z</time>
      </trkpt>
      <trkpt lat="43.7627" lon="3.39289">
        <ele>453.6</ele>
        <time>2026-05-18T09:16:16Z</time>
      </trkpt>
      <trkpt lat="43.76265" lon="3.39295">
        <ele>454.6</ele>
        <time>2026-05-18T09:16:21Z</time>
      </trkpt>
      <trkpt lat="43.76261" lon="3.393">
        <ele>455.5</ele>
        <time>2026-05-18T09:16:26Z</time>
      </trkpt>
      <trkpt lat="43.76255" lon="3.39304">
        <ele>456</ele>
        <time>2026-05-18T09:16:31Z</time>
      </trkpt>
      <trkpt lat="43.7625" lon="3.39307">
        <ele>456.3</ele>
        <time>2026-05-18T09:16:36Z</time>
      </trkpt>
      <trkpt lat="43.76245" lon="3.39311">
        <ele>457.1</ele>
        <time>2026-05-18T09:16:41Z</time>
      </trkpt>
      <trkpt lat="43.76239" lon="3.39317">
        <ele>458.3</ele>
        <time>2026-05-18T09:16:46Z</time>
      </trkpt>
      <trkpt lat="43.76236" lon="3.39324">
        <ele>459.7</ele>
        <time>2026-05-18T09:16:51Z</time>
      </trkpt>
      <trkpt lat="43.76233" lon="3.39331">
        <ele>461.1</ele>
        <time>2026-05-18T09:16:56Z</time>
      </trkpt>
      <trkpt lat="43.76228" lon="3.39335">
        <ele>461.8</ele>
        <time>2026-05-18T09:17:01Z</time>
      </trkpt>
      <trkpt lat="43.76222" lon="3.39338">
        <ele>462.3</ele>
        <time>2026-05-18T09:17:06Z</time>
      </trkpt>
      <trkpt lat="43.76217" lon="3.39342">
        <ele>463</ele>
        <time>2026-05-18T09:17:11Z</time>
      </trkpt>
      <trkpt lat="43.76211" lon="3.39341">
        <ele>462.6</ele>
        <time>2026-05-18T09:17:16Z</time>
      </trkpt>
      <trkpt lat="43.76205" lon="3.39339">
        <ele>462.1</ele>
        <time>2026-05-18T09:17:21Z</time>
      </trkpt>
      <trkpt lat="43.76199" lon="3.39335">
        <ele>461.1</ele>
        <time>2026-05-18T09:17:26Z</time>
      </trkpt>
      <trkpt lat="43.76194" lon="3.39331">
        <ele>460.2</ele>
        <time>2026-05-18T09:17:31Z</time>
      </trkpt>
      <trkpt lat="43.76189" lon="3.39333">
        <ele>460.5</ele>
        <time>2026-05-18T09:17:36Z</time>
      </trkpt>
      <trkpt lat="43.76184" lon="3.39334">
        <ele>460.5</ele>
        <time>2026-05-18T09:17:41Z</time>
      </trkpt>
      <trkpt lat="43.76178" lon="3.39338">
        <ele>461.2</ele>
        <time>2026-05-18T09:17:46Z</time>
      </trkpt>
      <trkpt lat="43.7617" lon="3.39341">
        <ele>461.6</ele>
        <time>2026-05-18T09:17:51Z</time>
      </trkpt>
      <trkpt lat="43.76166" lon="3.39347">
        <ele>462.7</ele>
        <time>2026-05-18T09:17:56Z</time>
      </trkpt>
      <trkpt lat="43.7616" lon="3.39353">
        <ele>464.8</ele>
        <time>2026-05-18T09:18:01Z</time>
      </trkpt>
      <trkpt lat="43.76155" lon="3.39358">
        <ele>466.4</ele>
        <time>2026-05-18T09:18:06Z</time>
      </trkpt>
      <trkpt lat="43.7615" lon="3.39364">
        <ele>468.1</ele>
        <time>2026-05-18T09:18:11Z</time>
      </trkpt>
      <trkpt lat="43.76146" lon="3.3937">
        <ele>469.6</ele>
        <time>2026-05-18T09:18:16Z</time>
      </trkpt>
      <trkpt lat="43.76139" lon="3.39374">
        <ele>471</ele>
        <time>2026-05-18T09:18:21Z</time>
      </trkpt>
      <trkpt lat="43.76133" lon="3.39377">
        <ele>472.1</ele>
        <time>2026-05-18T09:18:26Z</time>
      </trkpt>
      <trkpt lat="43.76126" lon="3.39379">
        <ele>473.1</ele>
        <time>2026-05-18T09:18:31Z</time>
      </trkpt>
      <trkpt lat="43.7612" lon="3.39382">
        <ele>474.1</ele>
        <time>2026-05-18T09:18:36Z</time>
      </trkpt>
      <trkpt lat="43.76114" lon="3.39384">
        <ele>475</ele>
        <time>2026-05-18T09:18:41Z</time>
      </trkpt>
      <trkpt lat="43.76107" lon="3.39389">
        <ele>476.2</ele>
        <time>2026-05-18T09:18:46Z</time>
      </trkpt>
      <trkpt lat="43.76102" lon="3.39393">
        <ele>477</ele>
        <time>2026-05-18T09:18:51Z</time>
      </trkpt>
      <trkpt lat="43.76097" lon="3.39399">
        <ele>477.9</ele>
        <time>2026-05-18T09:18:56Z</time>
      </trkpt>
      <trkpt lat="43.76091" lon="3.39405">
        <ele>478.8</ele>
        <time>2026-05-18T09:19:01Z</time>
      </trkpt>
      <trkpt lat="43.76086" lon="3.3941">
        <ele>479.4</ele>
        <time>2026-05-18T09:19:06Z</time>
      </trkpt>
      <trkpt lat="43.76081" lon="3.39415">
        <ele>480.3</ele>
        <time>2026-05-18T09:19:11Z</time>
      </trkpt>
      <trkpt lat="43.76075" lon="3.39419">
        <ele>481.8</ele>
        <time>2026-05-18T09:19:16Z</time>
      </trkpt>
      <trkpt lat="43.76071" lon="3.39423">
        <ele>482.8</ele>
        <time>2026-05-18T09:19:21Z</time>
      </trkpt>
      <trkpt lat="43.76066" lon="3.39426">
        <ele>484</ele>
        <time>2026-05-18T09:19:26Z</time>
      </trkpt>
      <trkpt lat="43.76063" lon="3.39434">
        <ele>485.1</ele>
        <time>2026-05-18T09:19:31Z</time>
      </trkpt>
      <trkpt lat="43.7606" lon="3.39443">
        <ele>486.4</ele>
        <time>2026-05-18T09:19:36Z</time>
      </trkpt>
      <trkpt lat="43.76058" lon="3.39451">
        <ele>487.4</ele>
        <time>2026-05-18T09:19:41Z</time>
      </trkpt>
      <trkpt lat="43.76056" lon="3.39459">
        <ele>488.5</ele>
        <time>2026-05-18T09:19:46Z</time>
      </trkpt>
      <trkpt lat="43.76052" lon="3.39465">
        <ele>489.8</ele>
        <time>2026-05-18T09:19:51Z</time>
      </trkpt>
      <trkpt lat="43.76049" lon="3.39473">
        <ele>491.1</ele>
        <time>2026-05-18T09:19:56Z</time>
      </trkpt>
      <trkpt lat="43.76046" lon="3.39483">
        <ele>492.6</ele>
        <time>2026-05-18T09:20:01Z</time>
      </trkpt>
      <trkpt lat="43.76043" lon="3.39491">
        <ele>493.9</ele>
        <time>2026-05-18T09:20:06Z</time>
      </trkpt>
      <trkpt lat="43.76039" lon="3.395">
        <ele>495.6</ele>
        <time>2026-05-18T09:20:11Z</time>
      </trkpt>
      <trkpt lat="43.76033" lon="3.39506">
        <ele>497.7</ele>
        <time>2026-05-18T09:20:16Z</time>
      </trkpt>
      <trkpt lat="43.76027" lon="3.39512">
        <ele>499.8</ele>
        <time>2026-05-18T09:20:21Z</time>
      </trkpt>
      <trkpt lat="43.76023" lon="3.39519">
        <ele>501.5</ele>
        <time>2026-05-18T09:20:26Z</time>
      </trkpt>
      <trkpt lat="43.76021" lon="3.39529">
        <ele>503</ele>
        <time>2026-05-18T09:20:31Z</time>
      </trkpt>
      <trkpt lat="43.76021" lon="3.39538">
        <ele>504</ele>
        <time>2026-05-18T09:20:36Z</time>
      </trkpt>
      <trkpt lat="43.7602" lon="3.39547">
        <ele>505.1</ele>
        <time>2026-05-18T09:20:41Z</time>
      </trkpt>
      <trkpt lat="43.76021" lon="3.39558">
        <ele>506.1</ele>
        <time>2026-05-18T09:20:46Z</time>
      </trkpt>
      <trkpt lat="43.76024" lon="3.39563">
        <ele>505.9</ele>
        <time>2026-05-18T09:20:51Z</time>
      </trkpt>
      <trkpt lat="43.76027" lon="3.3957">
        <ele>506.1</ele>
        <time>2026-05-18T09:20:56Z</time>
      </trkpt>
      <trkpt lat="43.76027" lon="3.39579">
        <ele>507</ele>
        <time>2026-05-18T09:21:01Z</time>
      </trkpt>
      <trkpt lat="43.76025" lon="3.39588">
        <ele>508.4</ele>
        <time>2026-05-18T09:21:06Z</time>
      </trkpt>
      <trkpt lat="43.76019" lon="3.39591">
        <ele>509.9</ele>
        <time>2026-05-18T09:21:11Z</time>
      </trkpt>
      <trkpt lat="43.76013" lon="3.39587">
        <ele>510.7</ele>
        <time>2026-05-18T09:21:16Z</time>
      </trkpt>
      <trkpt lat="43.76007" lon="3.3958">
        <ele>511.2</ele>
        <time>2026-05-18T09:21:21Z</time>
      </trkpt>
      <trkpt lat="43.76002" lon="3.39574">
        <ele>511.7</ele>
        <time>2026-05-18T09:21:26Z</time>
      </trkpt>
      <trkpt lat="43.75998" lon="3.39569">
        <ele>512</ele>
        <time>2026-05-18T09:21:31Z</time>
      </trkpt>
      <trkpt lat="43.75994" lon="3.39566">
        <ele>512.5</ele>
        <time>2026-05-18T09:21:36Z</time>
      </trkpt>
      <trkpt lat="43.75989" lon="3.39561">
        <ele>513</ele>
        <time>2026-05-18T09:21:41Z</time>
      </trkpt>
      <trkpt lat="43.75984" lon="3.39556">
        <ele>513.5</ele>
        <time>2026-05-18T09:21:46Z</time>
      </trkpt>
      <trkpt lat="43.7598" lon="3.39552">
        <ele>513.9</ele>
        <time>2026-05-18T09:21:51Z</time>
      </trkpt>
      <trkpt lat="43.75975" lon="3.39548">
        <ele>514.5</ele>
        <time>2026-05-18T09:21:56Z</time>
      </trkpt>
      <trkpt lat="43.75968" lon="3.3954">
        <ele>515</ele>
        <time>2026-05-18T09:22:01Z</time>
      </trkpt>
      <trkpt lat="43.75963" lon="3.39532">
        <ele>515.1</ele>
        <time>2026-05-18T09:22:06Z</time>
      </trkpt>
      <trkpt lat="43.75959" lon="3.39526">
        <ele>515.2</ele>
        <time>2026-05-18T09:22:11Z</time>
      </trkpt>
      <trkpt lat="43.75958" lon="3.39521">
        <ele>514.8</ele>
        <time>2026-05-18T09:22:16Z</time>
      </trkpt>
      <trkpt lat="43.75956" lon="3.39514">
        <ele>514.4</ele>
        <time>2026-05-18T09:22:21Z</time>
      </trkpt>
      <trkpt lat="43.75955" lon="3.39504">
        <ele>513.5</ele>
        <time>2026-05-18T09:22:26Z</time>
      </trkpt>
      <trkpt lat="43.75953" lon="3.39495">
        <ele>513</ele>
        <time>2026-05-18T09:22:31Z</time>
      </trkpt>
      <trkpt lat="43.75952" lon="3.39486">
        <ele>512.3</ele>
        <time>2026-05-18T09:22:36Z</time>
      </trkpt>
      <trkpt lat="43.7595" lon="3.39477">
        <ele>511.8</ele>
        <time>2026-05-18T09:22:41Z</time>
      </trkpt>
      <trkpt lat="43.75948" lon="3.39469">
        <ele>511.5</ele>
        <time>2026-05-18T09:22:46Z</time>
      </trkpt>
      <trkpt lat="43.75948" lon="3.3946">
        <ele>510.6</ele>
        <time>2026-05-18T09:22:51Z</time>
      </trkpt>
      <trkpt lat="43.75946" lon="3.39452">
        <ele>510.3</ele>
        <time>2026-05-18T09:22:56Z</time>
      </trkpt>
      <trkpt lat="43.75942" lon="3.39443">
        <ele>510.2</ele>
        <time>2026-05-18T09:23:01Z</time>
      </trkpt>
      <trkpt lat="43.75939" lon="3.39435">
        <ele>510.1</ele>
        <time>2026-05-18T09:23:06Z</time>
      </trkpt>
      <trkpt lat="43.75933" lon="3.39429">
        <ele>510.8</ele>
        <time>2026-05-18T09:23:11Z</time>
      </trkpt>
      <trkpt lat="43.75927" lon="3.39422">
        <ele>511.4</ele>
        <time>2026-05-18T09:23:16Z</time>
      </trkpt>
      <trkpt lat="43.75922" lon="3.39416">
        <ele>511.8</ele>
        <time>2026-05-18T09:23:21Z</time>
      </trkpt>
      <trkpt lat="43.75916" lon="3.39411">
        <ele>512.5</ele>
        <time>2026-05-18T09:23:26Z</time>
      </trkpt>
      <trkpt lat="43.7591" lon="3.39405">
        <ele>512.6</ele>
        <time>2026-05-18T09:23:31Z</time>
      </trkpt>
      <trkpt lat="43.75906" lon="3.39396">
        <ele>512.1</ele>
        <time>2026-05-18T09:23:36Z</time>
      </trkpt>
      <trkpt lat="43.75902" lon="3.39386">
        <ele>511.5</ele>
        <time>2026-05-18T09:23:41Z</time>
      </trkpt>
      <trkpt lat="43.75899" lon="3.39377">
        <ele>510.8</ele>
        <time>2026-05-18T09:23:46Z</time>
      </trkpt>
      <trkpt lat="43.75897" lon="3.39369">
        <ele>510</ele>
        <time>2026-05-18T09:23:51Z</time>
      </trkpt>
      <trkpt lat="43.75894" lon="3.3936">
        <ele>509.2</ele>
        <time>2026-05-18T09:23:56Z</time>
      </trkpt>
      <trkpt lat="43.7589" lon="3.39352">
        <ele>508.6</ele>
        <time>2026-05-18T09:24:01Z</time>
      </trkpt>
      <trkpt lat="43.75886" lon="3.39342">
        <ele>507.7</ele>
        <time>2026-05-18T09:24:06Z</time>
      </trkpt>
      <trkpt lat="43.75881" lon="3.39333">
        <ele>507</ele>
        <time>2026-05-18T09:24:11Z</time>
      </trkpt>
      <trkpt lat="43.75876" lon="3.39324">
        <ele>506.4</ele>
        <time>2026-05-18T09:24:16Z</time>
      </trkpt>
      <trkpt lat="43.7587" lon="3.39317">
        <ele>506.2</ele>
        <time>2026-05-18T09:24:21Z</time>
      </trkpt>
      <trkpt lat="43.75865" lon="3.39309">
        <ele>505.9</ele>
        <time>2026-05-18T09:24:26Z</time>
      </trkpt>
      <trkpt lat="43.75861" lon="3.39304">
        <ele>505.7</ele>
        <time>2026-05-18T09:24:31Z</time>
      </trkpt>
      <trkpt lat="43.75856" lon="3.39295">
        <ele>505.4</ele>
        <time>2026-05-18T09:24:36Z</time>
      </trkpt>
      <trkpt lat="43.75851" lon="3.39287">
        <ele>505.2</ele>
        <time>2026-05-18T09:24:41Z</time>
      </trkpt>
      <trkpt lat="43.75846" lon="3.3928">
        <ele>505.1</ele>
        <time>2026-05-18T09:24:46Z</time>
      </trkpt>
      <trkpt lat="43.75842" lon="3.39272">
        <ele>504.8</ele>
        <time>2026-05-18T09:24:51Z</time>
      </trkpt>
      <trkpt lat="43.75838" lon="3.39261">
        <ele>504.3</ele>
        <time>2026-05-18T09:24:56Z</time>
      </trkpt>
      <trkpt lat="43.75836" lon="3.39251">
        <ele>503.7</ele>
        <time>2026-05-18T09:25:01Z</time>
      </trkpt>
      <trkpt lat="43.75835" lon="3.39243">
        <ele>503.3</ele>
        <time>2026-05-18T09:25:06Z</time>
      </trkpt>
      <trkpt lat="43.75835" lon="3.39236">
        <ele>502.8</ele>
        <time>2026-05-18T09:25:11Z</time>
      </trkpt>
      <trkpt lat="43.75831" lon="3.39229">
        <ele>502.9</ele>
        <time>2026-05-18T09:25:16Z</time>
      </trkpt>
      <trkpt lat="43.75828" lon="3.39219">
        <ele>502.8</ele>
        <time>2026-05-18T09:25:21Z</time>
      </trkpt>
      <trkpt lat="43.75829" lon="3.39206">
        <ele>501.7</ele>
        <time>2026-05-18T09:25:26Z</time>
      </trkpt>
      <trkpt lat="43.75829" lon="3.39197">
        <ele>501</ele>
        <time>2026-05-18T09:25:31Z</time>
      </trkpt>
      <trkpt lat="43.7583" lon="3.39186">
        <ele>500</ele>
        <time>2026-05-18T09:25:36Z</time>
      </trkpt>
      <trkpt lat="43.7583" lon="3.39175">
        <ele>499.2</ele>
        <time>2026-05-18T09:25:41Z</time>
      </trkpt>
      <trkpt lat="43.7583" lon="3.39165">
        <ele>498.6</ele>
        <time>2026-05-18T09:25:46Z</time>
      </trkpt>
      <trkpt lat="43.7583" lon="3.39155">
        <ele>498.7</ele>
        <time>2026-05-18T09:25:51Z</time>
      </trkpt>
      <trkpt lat="43.75829" lon="3.39145">
        <ele>498.9</ele>
        <time>2026-05-18T09:25:56Z</time>
      </trkpt>
      <trkpt lat="43.75825" lon="3.39135">
        <ele>499.7</ele>
        <time>2026-05-18T09:26:01Z</time>
      </trkpt>
      <trkpt lat="43.75824" lon="3.39126">
        <ele>499.9</ele>
        <time>2026-05-18T09:26:06Z</time>
      </trkpt>
      <trkpt lat="43.75821" lon="3.39116">
        <ele>500.5</ele>
        <time>2026-05-18T09:26:11Z</time>
      </trkpt>
      <trkpt lat="43.75819" lon="3.39105">
        <ele>501</ele>
        <time>2026-05-18T09:26:16Z</time>
      </trkpt>
      <trkpt lat="43.75817" lon="3.39096">
        <ele>501.5</ele>
        <time>2026-05-18T09:26:21Z</time>
      </trkpt>
      <trkpt lat="43.75816" lon="3.39088">
        <ele>501.7</ele>
        <time>2026-05-18T09:26:26Z</time>
      </trkpt>
      <trkpt lat="43.75816" lon="3.39077">
        <ele>501.8</ele>
        <time>2026-05-18T09:26:31Z</time>
      </trkpt>
      <trkpt lat="43.75817" lon="3.39065">
        <ele>501.6</ele>
        <time>2026-05-18T09:26:36Z</time>
      </trkpt>
      <trkpt lat="43.75817" lon="3.39055">
        <ele>501.6</ele>
        <time>2026-05-18T09:26:41Z</time>
      </trkpt>
      <trkpt lat="43.75818" lon="3.39044">
        <ele>501.4</ele>
        <time>2026-05-18T09:26:46Z</time>
      </trkpt>
      <trkpt lat="43.75818" lon="3.39035">
        <ele>501.5</ele>
        <time>2026-05-18T09:26:51Z</time>
      </trkpt>
      <trkpt lat="43.75817" lon="3.39026">
        <ele>501.7</ele>
        <time>2026-05-18T09:26:56Z</time>
      </trkpt>
      <trkpt lat="43.75816" lon="3.39017">
        <ele>501.9</ele>
        <time>2026-05-18T09:27:01Z</time>
      </trkpt>
      <trkpt lat="43.75814" lon="3.39007">
        <ele>502.2</ele>
        <time>2026-05-18T09:27:06Z</time>
      </trkpt>
      <trkpt lat="43.75809" lon="3.38999">
        <ele>503</ele>
        <time>2026-05-18T09:27:11Z</time>
      </trkpt>
      <trkpt lat="43.75801" lon="3.38994">
        <ele>504.1</ele>
        <time>2026-05-18T09:27:16Z</time>
      </trkpt>
      <trkpt lat="43.75795" lon="3.38991">
        <ele>504.9</ele>
        <time>2026-05-18T09:27:21Z</time>
      </trkpt>
      <trkpt lat="43.75788" lon="3.38993">
        <ele>506.2</ele>
        <time>2026-05-18T09:27:26Z</time>
      </trkpt>
      <trkpt lat="43.7578" lon="3.38995">
        <ele>507.6</ele>
        <time>2026-05-18T09:27:31Z</time>
      </trkpt>
      <trkpt lat="43.75773" lon="3.38998">
        <ele>509</ele>
        <time>2026-05-18T09:27:36Z</time>
      </trkpt>
      <trkpt lat="43.75765" lon="3.38999">
        <ele>510.4</ele>
        <time>2026-05-18T09:27:41Z</time>
      </trkpt>
      <trkpt lat="43.75759" lon="3.38999">
        <ele>511.4</ele>
        <time>2026-05-18T09:27:46Z</time>
      </trkpt>
      <trkpt lat="43.75753" lon="3.38997">
        <ele>512.2</ele>
        <time>2026-05-18T09:27:51Z</time>
      </trkpt>
      <trkpt lat="43.75749" lon="3.38992">
        <ele>512.5</ele>
        <time>2026-05-18T09:27:56Z</time>
      </trkpt>
      <trkpt lat="43.75742" lon="3.38986">
        <ele>513.2</ele>
        <time>2026-05-18T09:28:01Z</time>
      </trkpt>
      <trkpt lat="43.75739" lon="3.38979">
        <ele>513.1</ele>
        <time>2026-05-18T09:28:06Z</time>
      </trkpt>
      <trkpt lat="43.75739" lon="3.38979">
        <ele>513.1</ele>
        <time>2026-05-18T09:28:11Z</time>
      </trkpt>
      <trkpt lat="43.75739" lon="3.38979">
        <ele>513.1</ele>
        <time>2026-05-18T09:28:16Z</time>
      </trkpt>
      <trkpt lat="43.75739" lon="3.38979">
        <ele>513.1</ele>
        <time>2026-05-18T09:28:21Z</time>
      </trkpt>
      <trkpt lat="43.7574" lon="3.38972">
        <ele>512.3</ele>
        <time>2026-05-18T09:28:26Z</time>
      </trkpt>
      <trkpt lat="43.75737" lon="3.38967">
        <ele>512.4</ele>
        <time>2026-05-18T09:28:31Z</time>
      </trkpt>
      <trkpt lat="43.75734" lon="3.38962">
        <ele>512.5</ele>
        <time>2026-05-18T09:28:36Z</time>
      </trkpt>
      <trkpt lat="43.75732" lon="3.38953">
        <ele>512.1</ele>
        <time>2026-05-18T09:28:41Z</time>
      </trkpt>
      <trkpt lat="43.75726" lon="3.38943">
        <ele>512.2</ele>
        <time>2026-05-18T09:28:46Z</time>
      </trkpt>
      <trkpt lat="43.75721" lon="3.38937">
        <ele>512.6</ele>
        <time>2026-05-18T09:28:51Z</time>
      </trkpt>
      <trkpt lat="43.75715" lon="3.38931">
        <ele>513.1</ele>
        <time>2026-05-18T09:28:56Z</time>
      </trkpt>
      <trkpt lat="43.7571" lon="3.38926">
        <ele>513.5</ele>
        <time>2026-05-18T09:29:01Z</time>
      </trkpt>
      <trkpt lat="43.75707" lon="3.38922">
        <ele>513.7</ele>
        <time>2026-05-18T09:29:06Z</time>
      </trkpt>
      <trkpt lat="43.75703" lon="3.38915">
        <ele>513.8</ele>
        <time>2026-05-18T09:29:11Z</time>
      </trkpt>
      <trkpt lat="43.75698" lon="3.3891">
        <ele>514.2</ele>
        <time>2026-05-18T09:29:16Z</time>
      </trkpt>
      <trkpt lat="43.7569" lon="3.38905">
        <ele>515.1</ele>
        <time>2026-05-18T09:29:21Z</time>
      </trkpt>
      <trkpt lat="43.75683" lon="3.38904">
        <ele>516.2</ele>
        <time>2026-05-18T09:29:26Z</time>
      </trkpt>
      <trkpt lat="43.75677" lon="3.38905">
        <ele>517.3</ele>
        <time>2026-05-18T09:29:31Z</time>
      </trkpt>
      <trkpt lat="43.75671" lon="3.38909">
        <ele>518.6</ele>
        <time>2026-05-18T09:29:36Z</time>
      </trkpt>
      <trkpt lat="43.75665" lon="3.38911">
        <ele>519.9</ele>
        <time>2026-05-18T09:29:41Z</time>
      </trkpt>
      <trkpt lat="43.75658" lon="3.38915">
        <ele>521.8</ele>
        <time>2026-05-18T09:29:46Z</time>
      </trkpt>
      <trkpt lat="43.7565" lon="3.38915">
        <ele>523.7</ele>
        <time>2026-05-18T09:29:51Z</time>
      </trkpt>
      <trkpt lat="43.75644" lon="3.38914">
        <ele>525</ele>
        <time>2026-05-18T09:29:56Z</time>
      </trkpt>
      <trkpt lat="43.75637" lon="3.38914">
        <ele>526.6</ele>
        <time>2026-05-18T09:30:01Z</time>
      </trkpt>
      <trkpt lat="43.75631" lon="3.38913">
        <ele>527.8</ele>
        <time>2026-05-18T09:30:06Z</time>
      </trkpt>
      <trkpt lat="43.75625" lon="3.38909">
        <ele>528.9</ele>
        <time>2026-05-18T09:30:11Z</time>
      </trkpt>
      <trkpt lat="43.75619" lon="3.38905">
        <ele>530</ele>
        <time>2026-05-18T09:30:16Z</time>
      </trkpt>
      <trkpt lat="43.75613" lon="3.38898">
        <ele>530.8</ele>
        <time>2026-05-18T09:30:21Z</time>
      </trkpt>
      <trkpt lat="43.75609" lon="3.3889">
        <ele>531.1</ele>
        <time>2026-05-18T09:30:26Z</time>
      </trkpt>
      <trkpt lat="43.75605" lon="3.38882">
        <ele>531.5</ele>
        <time>2026-05-18T09:30:31Z</time>
      </trkpt>
      <trkpt lat="43.75603" lon="3.38872">
        <ele>531.2</ele>
        <time>2026-05-18T09:30:36Z</time>
      </trkpt>
      <trkpt lat="43.75602" lon="3.38864">
        <ele>530.8</ele>
        <time>2026-05-18T09:30:41Z</time>
      </trkpt>
      <trkpt lat="43.75599" lon="3.38857">
        <ele>531</ele>
        <time>2026-05-18T09:30:46Z</time>
      </trkpt>
      <trkpt lat="43.75595" lon="3.38851">
        <ele>531.5</ele>
        <time>2026-05-18T09:30:51Z</time>
      </trkpt>
      <trkpt lat="43.75592" lon="3.38846">
        <ele>531.8</ele>
        <time>2026-05-18T09:30:56Z</time>
      </trkpt>
      <trkpt lat="43.75588" lon="3.3884">
        <ele>532.4</ele>
        <time>2026-05-18T09:31:01Z</time>
      </trkpt>
      <trkpt lat="43.75584" lon="3.38833">
        <ele>532.8</ele>
        <time>2026-05-18T09:31:06Z</time>
      </trkpt>
      <trkpt lat="43.7558" lon="3.38826">
        <ele>533.8</ele>
        <time>2026-05-18T09:31:11Z</time>
      </trkpt>
      <trkpt lat="43.75576" lon="3.38818">
        <ele>534.7</ele>
        <time>2026-05-18T09:31:16Z</time>
      </trkpt>
      <trkpt lat="43.75572" lon="3.3881">
        <ele>535.6</ele>
        <time>2026-05-18T09:31:21Z</time>
      </trkpt>
      <trkpt lat="43.75569" lon="3.38801">
        <ele>536.2</ele>
        <time>2026-05-18T09:31:26Z</time>
      </trkpt>
      <trkpt lat="43.75567" lon="3.38791">
        <ele>536.6</ele>
        <time>2026-05-18T09:31:31Z</time>
      </trkpt>
      <trkpt lat="43.75564" lon="3.38783">
        <ele>537.2</ele>
        <time>2026-05-18T09:31:36Z</time>
      </trkpt>
      <trkpt lat="43.75562" lon="3.38774">
        <ele>537.6</ele>
        <time>2026-05-18T09:31:41Z</time>
      </trkpt>
      <trkpt lat="43.75559" lon="3.38767">
        <ele>538.1</ele>
        <time>2026-05-18T09:31:46Z</time>
      </trkpt>
      <trkpt lat="43.75556" lon="3.38758">
        <ele>538.7</ele>
        <time>2026-05-18T09:31:51Z</time>
      </trkpt>
      <trkpt lat="43.75555" lon="3.38751">
        <ele>538.8</ele>
        <time>2026-05-18T09:31:56Z</time>
      </trkpt>
      <trkpt lat="43.75556" lon="3.38744">
        <ele>538.4</ele>
        <time>2026-05-18T09:32:01Z</time>
      </trkpt>
      <trkpt lat="43.75554" lon="3.38737">
        <ele>538.5</ele>
        <time>2026-05-18T09:32:06Z</time>
      </trkpt>
      <trkpt lat="43.75553" lon="3.38731">
        <ele>538.5</ele>
        <time>2026-05-18T09:32:11Z</time>
      </trkpt>
      <trkpt lat="43.75551" lon="3.38726">
        <ele>538.7</ele>
        <time>2026-05-18T09:32:16Z</time>
      </trkpt>
      <trkpt lat="43.7555" lon="3.38719">
        <ele>538.6</ele>
        <time>2026-05-18T09:32:21Z</time>
      </trkpt>
      <trkpt lat="43.75548" lon="3.38711">
        <ele>538.7</ele>
        <time>2026-05-18T09:32:26Z</time>
      </trkpt>
      <trkpt lat="43.75547" lon="3.38705">
        <ele>538.6</ele>
        <time>2026-05-18T09:32:31Z</time>
      </trkpt>
      <trkpt lat="43.75546" lon="3.38697">
        <ele>538.5</ele>
        <time>2026-05-18T09:32:36Z</time>
      </trkpt>
      <trkpt lat="43.75544" lon="3.38687">
        <ele>538.4</ele>
        <time>2026-05-18T09:32:41Z</time>
      </trkpt>
      <trkpt lat="43.75541" lon="3.38678">
        <ele>538.6</ele>
        <time>2026-05-18T09:32:46Z</time>
      </trkpt>
      <trkpt lat="43.75538" lon="3.3867">
        <ele>538.8</ele>
        <time>2026-05-18T09:32:51Z</time>
      </trkpt>
      <trkpt lat="43.75535" lon="3.38663">
        <ele>539</ele>
        <time>2026-05-18T09:32:56Z</time>
      </trkpt>
      <trkpt lat="43.75531" lon="3.38657">
        <ele>539.4</ele>
        <time>2026-05-18T09:33:01Z</time>
      </trkpt>
      <trkpt lat="43.75528" lon="3.3865">
        <ele>539.6</ele>
        <time>2026-05-18T09:33:06Z</time>
      </trkpt>
      <trkpt lat="43.75524" lon="3.38642">
        <ele>540</ele>
        <time>2026-05-18T09:33:11Z</time>
      </trkpt>
      <trkpt lat="43.7552" lon="3.38636">
        <ele>540.3</ele>
        <time>2026-05-18T09:33:16Z</time>
      </trkpt>
      <trkpt lat="43.75517" lon="3.38629">
        <ele>540.5</ele>
        <time>2026-05-18T09:33:21Z</time>
      </trkpt>
      <trkpt lat="43.75513" lon="3.38623">
        <ele>540.9</ele>
        <time>2026-05-18T09:33:26Z</time>
      </trkpt>
      <trkpt lat="43.75509" lon="3.38617">
        <ele>541.2</ele>
        <time>2026-05-18T09:33:31Z</time>
      </trkpt>
      <trkpt lat="43.75503" lon="3.38612">
        <ele>541.9</ele>
        <time>2026-05-18T09:33:36Z</time>
      </trkpt>
      <trkpt lat="43.75498" lon="3.38608">
        <ele>542.6</ele>
        <time>2026-05-18T09:33:41Z</time>
      </trkpt>
      <trkpt lat="43.75494" lon="3.38602">
        <ele>543</ele>
        <time>2026-05-18T09:33:46Z</time>
      </trkpt>
      <trkpt lat="43.75489" lon="3.38598">
        <ele>543.8</ele>
        <time>2026-05-18T09:33:51Z</time>
      </trkpt>
      <trkpt lat="43.75482" lon="3.38592">
        <ele>544.8</ele>
        <time>2026-05-18T09:33:56Z</time>
      </trkpt>
      <trkpt lat="43.75478" lon="3.38587">
        <ele>545.4</ele>
        <time>2026-05-18T09:34:01Z</time>
      </trkpt>
      <trkpt lat="43.75475" lon="3.38581">
        <ele>545.7</ele>
        <time>2026-05-18T09:34:06Z</time>
      </trkpt>
      <trkpt lat="43.75472" lon="3.38577">
        <ele>546.3</ele>
        <time>2026-05-18T09:34:11Z</time>
      </trkpt>
      <trkpt lat="43.75469" lon="3.38575">
        <ele>546.8</ele>
        <time>2026-05-18T09:34:16Z</time>
      </trkpt>
      <trkpt lat="43.75469" lon="3.38572">
        <ele>546.7</ele>
        <time>2026-05-18T09:34:21Z</time>
      </trkpt>
      <trkpt lat="43.75467" lon="3.38562">
        <ele>547</ele>
        <time>2026-05-18T09:34:26Z</time>
      </trkpt>
      <trkpt lat="43.75466" lon="3.38555">
        <ele>547.1</ele>
        <time>2026-05-18T09:34:31Z</time>
      </trkpt>
      <trkpt lat="43.75462" lon="3.38552">
        <ele>547.9</ele>
        <time>2026-05-18T09:34:36Z</time>
      </trkpt>
      <trkpt lat="43.75459" lon="3.38547">
        <ele>548.4</ele>
        <time>2026-05-18T09:34:41Z</time>
      </trkpt>
      <trkpt lat="43.75456" lon="3.38541">
        <ele>549</ele>
        <time>2026-05-18T09:34:46Z</time>
      </trkpt>
      <trkpt lat="43.75452" lon="3.38535">
        <ele>549.8</ele>
        <time>2026-05-18T09:34:51Z</time>
      </trkpt>
      <trkpt lat="43.75448" lon="3.38529">
        <ele>550.7</ele>
        <time>2026-05-18T09:34:56Z</time>
      </trkpt>
      <trkpt lat="43.75442" lon="3.38525">
        <ele>552</ele>
        <time>2026-05-18T09:35:01Z</time>
      </trkpt>
      <trkpt lat="43.75437" lon="3.38522">
        <ele>553.1</ele>
        <time>2026-05-18T09:35:06Z</time>
      </trkpt>
      <trkpt lat="43.75432" lon="3.38521">
        <ele>554.3</ele>
        <time>2026-05-18T09:35:11Z</time>
      </trkpt>
      <trkpt lat="43.75425" lon="3.38519">
        <ele>555.9</ele>
        <time>2026-05-18T09:35:16Z</time>
      </trkpt>
      <trkpt lat="43.7542" lon="3.38515">
        <ele>557</ele>
        <time>2026-05-18T09:35:21Z</time>
      </trkpt>
      <trkpt lat="43.75414" lon="3.38512">
        <ele>558.6</ele>
        <time>2026-05-18T09:35:26Z</time>
      </trkpt>
      <trkpt lat="43.7541" lon="3.3851">
        <ele>559.6</ele>
        <time>2026-05-18T09:35:31Z</time>
      </trkpt>
      <trkpt lat="43.75406" lon="3.38506">
        <ele>560.7</ele>
        <time>2026-05-18T09:35:36Z</time>
      </trkpt>
      <trkpt lat="43.75402" lon="3.38499">
        <ele>561.8</ele>
        <time>2026-05-18T09:35:41Z</time>
      </trkpt>
      <trkpt lat="43.754" lon="3.38493">
        <ele>562.1</ele>
        <time>2026-05-18T09:35:46Z</time>
      </trkpt>
      <trkpt lat="43.75399" lon="3.38485">
        <ele>562.1</ele>
        <time>2026-05-18T09:35:51Z</time>
      </trkpt>
      <trkpt lat="43.75397" lon="3.38477">
        <ele>562.4</ele>
        <time>2026-05-18T09:35:56Z</time>
      </trkpt>
      <trkpt lat="43.75396" lon="3.38469">
        <ele>562.4</ele>
        <time>2026-05-18T09:36:01Z</time>
      </trkpt>
      <trkpt lat="43.75394" lon="3.3846">
        <ele>562.7</ele>
        <time>2026-05-18T09:36:06Z</time>
      </trkpt>
      <trkpt lat="43.75391" lon="3.38452">
        <ele>563.4</ele>
        <time>2026-05-18T09:36:11Z</time>
      </trkpt>
      <trkpt lat="43.75387" lon="3.38446">
        <ele>564.4</ele>
        <time>2026-05-18T09:36:16Z</time>
      </trkpt>
      <trkpt lat="43.75383" lon="3.38441">
        <ele>565.5</ele>
        <time>2026-05-18T09:36:21Z</time>
      </trkpt>
      <trkpt lat="43.75381" lon="3.38437">
        <ele>566</ele>
        <time>2026-05-18T09:36:26Z</time>
      </trkpt>
      <trkpt lat="43.7538" lon="3.38434">
        <ele>566.3</ele>
        <time>2026-05-18T09:36:31Z</time>
      </trkpt>
      <trkpt lat="43.75379" lon="3.38434">
        <ele>566.6</ele>
        <time>2026-05-18T09:36:36Z</time>
      </trkpt>
      <trkpt lat="43.75379" lon="3.38434">
        <ele>566.6</ele>
        <time>2026-05-18T09:36:41Z</time>
      </trkpt>
      <trkpt lat="43.75379" lon="3.38434">
        <ele>566.6</ele>
        <time>2026-05-18T09:36:46Z</time>
      </trkpt>
      <trkpt lat="43.75377" lon="3.38435">
        <ele>567.2</ele>
        <time>2026-05-18T09:36:51Z</time>
      </trkpt>
      <trkpt lat="43.75373" lon="3.38434">
        <ele>568.4</ele>
        <time>2026-05-18T09:36:56Z</time>
      </trkpt>
      <trkpt lat="43.75369" lon="3.3843">
        <ele>569.6</ele>
        <time>2026-05-18T09:37:01Z</time>
      </trkpt>
      <trkpt lat="43.75364" lon="3.38424">
        <ele>571.1</ele>
        <time>2026-05-18T09:37:06Z</time>
      </trkpt>
      <trkpt lat="43.75359" lon="3.38418">
        <ele>572.7</ele>
        <time>2026-05-18T09:37:11Z</time>
      </trkpt>
      <trkpt lat="43.75355" lon="3.38412">
        <ele>574.1</ele>
        <time>2026-05-18T09:37:16Z</time>
      </trkpt>
      <trkpt lat="43.75351" lon="3.38403">
        <ele>575.6</ele>
        <time>2026-05-18T09:37:21Z</time>
      </trkpt>
      <trkpt lat="43.75348" lon="3.38396">
        <ele>576.8</ele>
        <time>2026-05-18T09:37:26Z</time>
      </trkpt>
      <trkpt lat="43.75345" lon="3.38387">
        <ele>578.1</ele>
        <time>2026-05-18T09:37:31Z</time>
      </trkpt>
      <trkpt lat="43.75343" lon="3.3838">
        <ele>579</ele>
        <time>2026-05-18T09:37:36Z</time>
      </trkpt>
      <trkpt lat="43.75338" lon="3.38373">
        <ele>580.9</ele>
        <time>2026-05-18T09:37:41Z</time>
      </trkpt>
      <trkpt lat="43.75337" lon="3.38367">
        <ele>581.5</ele>
        <time>2026-05-18T09:37:46Z</time>
      </trkpt>
      <trkpt lat="43.75333" lon="3.38362">
        <ele>583.2</ele>
        <time>2026-05-18T09:37:51Z</time>
      </trkpt>
      <trkpt lat="43.7533" lon="3.38354">
        <ele>585.2</ele>
        <time>2026-05-18T09:37:56Z</time>
      </trkpt>
      <trkpt lat="43.75328" lon="3.38347">
        <ele>586.6</ele>
        <time>2026-05-18T09:38:01Z</time>
      </trkpt>
      <trkpt lat="43.75327" lon="3.38337">
        <ele>587.5</ele>
        <time>2026-05-18T09:38:06Z</time>
      </trkpt>
      <trkpt lat="43.75327" lon="3.3833">
        <ele>587.6</ele>
        <time>2026-05-18T09:38:11Z</time>
      </trkpt>
      <trkpt lat="43.75327" lon="3.38323">
        <ele>587.6</ele>
        <time>2026-05-18T09:38:16Z</time>
      </trkpt>
      <trkpt lat="43.75327" lon="3.38315">
        <ele>587.5</ele>
        <time>2026-05-18T09:38:21Z</time>
      </trkpt>
      <trkpt lat="43.75328" lon="3.38307">
        <ele>586.8</ele>
        <time>2026-05-18T09:38:26Z</time>
      </trkpt>
      <trkpt lat="43.75328" lon="3.38298">
        <ele>586.8</ele>
        <time>2026-05-18T09:38:31Z</time>
      </trkpt>
      <trkpt lat="43.75328" lon="3.3829">
        <ele>586.7</ele>
        <time>2026-05-18T09:38:36Z</time>
      </trkpt>
      <trkpt lat="43.75328" lon="3.38283">
        <ele>586.6</ele>
        <time>2026-05-18T09:38:41Z</time>
      </trkpt>
      <trkpt lat="43.75327" lon="3.38275">
        <ele>587.2</ele>
        <time>2026-05-18T09:38:46Z</time>
      </trkpt>
      <trkpt lat="43.75326" lon="3.38266">
        <ele>587.7</ele>
        <time>2026-05-18T09:38:51Z</time>
      </trkpt>
      <trkpt lat="43.75325" lon="3.38258">
        <ele>588.3</ele>
        <time>2026-05-18T09:38:56Z</time>
      </trkpt>
      <trkpt lat="43.75325" lon="3.38249">
        <ele>588.4</ele>
        <time>2026-05-18T09:39:01Z</time>
      </trkpt>
      <trkpt lat="43.75329" lon="3.3824">
        <ele>587.4</ele>
        <time>2026-05-18T09:39:06Z</time>
      </trkpt>
      <trkpt lat="43.75333" lon="3.38231">
        <ele>586.4</ele>
        <time>2026-05-18T09:39:11Z</time>
      </trkpt>
      <trkpt lat="43.75339" lon="3.38223">
        <ele>585.5</ele>
        <time>2026-05-18T09:39:16Z</time>
      </trkpt>
      <trkpt lat="43.75341" lon="3.38216">
        <ele>585.9</ele>
        <time>2026-05-18T09:39:21Z</time>
      </trkpt>
      <trkpt lat="43.75343" lon="3.38207">
        <ele>586.7</ele>
        <time>2026-05-18T09:39:26Z</time>
      </trkpt>
      <trkpt lat="43.75347" lon="3.38196">
        <ele>586.9</ele>
        <time>2026-05-18T09:39:31Z</time>
      </trkpt>
      <trkpt lat="43.7535" lon="3.38187">
        <ele>587.2</ele>
        <time>2026-05-18T09:39:36Z</time>
      </trkpt>
      <trkpt lat="43.75351" lon="3.38179">
        <ele>588.1</ele>
        <time>2026-05-18T09:39:41Z</time>
      </trkpt>
      <trkpt lat="43.75355" lon="3.3817">
        <ele>587.9</ele>
        <time>2026-05-18T09:39:46Z</time>
      </trkpt>
      <trkpt lat="43.7536" lon="3.3816">
        <ele>588.7</ele>
        <time>2026-05-18T09:39:51Z</time>
      </trkpt>
      <trkpt lat="43.75364" lon="3.38152">
        <ele>589.6</ele>
        <time>2026-05-18T09:39:56Z</time>
      </trkpt>
      <trkpt lat="43.7537" lon="3.38145">
        <ele>589.1</ele>
        <time>2026-05-18T09:40:01Z</time>
      </trkpt>
      <trkpt lat="43.75375" lon="3.38139">
        <ele>588.5</ele>
        <time>2026-05-18T09:40:06Z</time>
      </trkpt>
      <trkpt lat="43.75381" lon="3.38132">
        <ele>587.4</ele>
        <time>2026-05-18T09:40:11Z</time>
      </trkpt>
      <trkpt lat="43.75387" lon="3.38125">
        <ele>586</ele>
        <time>2026-05-18T09:40:16Z</time>
      </trkpt>
      <trkpt lat="43.75392" lon="3.38117">
        <ele>585.2</ele>
        <time>2026-05-18T09:40:21Z</time>
      </trkpt>
      <trkpt lat="43.75395" lon="3.38108">
        <ele>585.4</ele>
        <time>2026-05-18T09:40:26Z</time>
      </trkpt>
      <trkpt lat="43.75398" lon="3.38099">
        <ele>585.5</ele>
        <time>2026-05-18T09:40:31Z</time>
      </trkpt>
      <trkpt lat="43.75402" lon="3.38089">
        <ele>584.9</ele>
        <time>2026-05-18T09:40:36Z</time>
      </trkpt>
      <trkpt lat="43.75406" lon="3.38081">
        <ele>584</ele>
        <time>2026-05-18T09:40:41Z</time>
      </trkpt>
      <trkpt lat="43.75413" lon="3.38074">
        <ele>581.3</ele>
        <time>2026-05-18T09:40:46Z</time>
      </trkpt>
      <trkpt lat="43.7542" lon="3.38069">
        <ele>579.2</ele>
        <time>2026-05-18T09:40:51Z</time>
      </trkpt>
      <trkpt lat="43.75427" lon="3.38066">
        <ele>577.7</ele>
        <time>2026-05-18T09:40:56Z</time>
      </trkpt>
      <trkpt lat="43.75433" lon="3.38061">
        <ele>577</ele>
        <time>2026-05-18T09:41:01Z</time>
      </trkpt>
      <trkpt lat="43.7544" lon="3.38054">
        <ele>576.4</ele>
        <time>2026-05-18T09:41:06Z</time>
      </trkpt>
      <trkpt lat="43.75442" lon="3.38047">
        <ele>577.5</ele>
        <time>2026-05-18T09:41:11Z</time>
      </trkpt>
      <trkpt lat="43.75444" lon="3.38036">
        <ele>579.6</ele>
        <time>2026-05-18T09:41:16Z</time>
      </trkpt>
      <trkpt lat="43.75444" lon="3.38033">
        <ele>580.4</ele>
        <time>2026-05-18T09:41:21Z</time>
      </trkpt>
      <trkpt lat="43.75445" lon="3.38032">
        <ele>580.3</ele>
        <time>2026-05-18T09:41:26Z</time>
      </trkpt>
      <trkpt lat="43.75446" lon="3.38032">
        <ele>579.9</ele>
        <time>2026-05-18T09:41:31Z</time>
      </trkpt>
      <trkpt lat="43.75446" lon="3.38032">
        <ele>579.9</ele>
        <time>2026-05-18T09:41:36Z</time>
      </trkpt>
      <trkpt lat="43.75446" lon="3.38032">
        <ele>579.9</ele>
        <time>2026-05-18T09:41:41Z</time>
      </trkpt>
      <trkpt lat="43.75446" lon="3.38032">
        <ele>579.9</ele>
        <time>2026-05-18T09:41:46Z</time>
      </trkpt>
      <trkpt lat="43.75446" lon="3.38029">
        <ele>580.6</ele>
        <time>2026-05-18T09:41:51Z</time>
      </trkpt>
      <trkpt lat="43.75442" lon="3.38024">
        <ele>583.5</ele>
        <time>2026-05-18T09:41:56Z</time>
      </trkpt>
      <trkpt lat="43.75441" lon="3.38017">
        <ele>585.8</ele>
        <time>2026-05-18T09:42:01Z</time>
      </trkpt>
      <trkpt lat="43.7544" lon="3.38009">
        <ele>588.3</ele>
        <time>2026-05-18T09:42:06Z</time>
      </trkpt>
      <trkpt lat="43.75443" lon="3.38">
        <ele>589.3</ele>
        <time>2026-05-18T09:42:11Z</time>
      </trkpt>
      <trkpt lat="43.75445" lon="3.37991">
        <ele>590.7</ele>
        <time>2026-05-18T09:42:16Z</time>
      </trkpt>
      <trkpt lat="43.7545" lon="3.37985">
        <ele>589.9</ele>
        <time>2026-05-18T09:42:21Z</time>
      </trkpt>
      <trkpt lat="43.75453" lon="3.37986">
        <ele>588.3</ele>
        <time>2026-05-18T09:42:26Z</time>
      </trkpt>
      <trkpt lat="43.75454" lon="3.37986">
        <ele>587.8</ele>
        <time>2026-05-18T09:42:31Z</time>
      </trkpt>
      <trkpt lat="43.75454" lon="3.37986">
        <ele>587.8</ele>
        <time>2026-05-18T09:42:36Z</time>
      </trkpt>
      <trkpt lat="43.75454" lon="3.37986">
        <ele>587.8</ele>
        <time>2026-05-18T09:42:41Z</time>
      </trkpt>
      <trkpt lat="43.75454" lon="3.37986">
        <ele>587.8</ele>
        <time>2026-05-18T09:42:46Z</time>
      </trkpt>
      <trkpt lat="43.75454" lon="3.37986">
        <ele>587.8</ele>
        <time>2026-05-18T09:42:51Z</time>
      </trkpt>
      <trkpt lat="43.75454" lon="3.37986">
        <ele>587.8</ele>
        <time>2026-05-18T09:42:56Z</time>
      </trkpt>
      <trkpt lat="43.75454" lon="3.37986">
        <ele>587.8</ele>
        <time>2026-05-18T09:43:01Z</time>
      </trkpt>
      <trkpt lat="43.75454" lon="3.37986">
        <ele>587.8</ele>
        <time>2026-05-18T09:43:06Z</time>
      </trkpt>
      <trkpt lat="43.75454" lon="3.3798">
        <ele>589.3</ele>
        <time>2026-05-18T09:43:11Z</time>
      </trkpt>
      <trkpt lat="43.75459" lon="3.37971">
        <ele>589.1</ele>
        <time>2026-05-18T09:43:16Z</time>
      </trkpt>
      <trkpt lat="43.75463" lon="3.37964">
        <ele>588.9</ele>
        <time>2026-05-18T09:43:21Z</time>
      </trkpt>
      <trkpt lat="43.75467" lon="3.37955">
        <ele>589.1</ele>
        <time>2026-05-18T09:43:26Z</time>
      </trkpt>
      <trkpt lat="43.75471" lon="3.37948">
        <ele>588.8</ele>
        <time>2026-05-18T09:43:31Z</time>
      </trkpt>
      <trkpt lat="43.75476" lon="3.3794">
        <ele>588.1</ele>
        <time>2026-05-18T09:43:36Z</time>
      </trkpt>
      <trkpt lat="43.7548" lon="3.37933">
        <ele>587.7</ele>
        <time>2026-05-18T09:43:41Z</time>
      </trkpt>
      <trkpt lat="43.75481" lon="3.37926">
        <ele>588.7</ele>
        <time>2026-05-18T09:43:46Z</time>
      </trkpt>
      <trkpt lat="43.75484" lon="3.37919">
        <ele>588.7</ele>
        <time>2026-05-18T09:43:51Z</time>
      </trkpt>
      <trkpt lat="43.75486" lon="3.37911">
        <ele>588.9</ele>
        <time>2026-05-18T09:43:56Z</time>
      </trkpt>
      <trkpt lat="43.75488" lon="3.37903">
        <ele>588.9</ele>
        <time>2026-05-18T09:44:01Z</time>
      </trkpt>
      <trkpt lat="43.7549" lon="3.37895">
        <ele>588.9</ele>
        <time>2026-05-18T09:44:06Z</time>
      </trkpt>
      <trkpt lat="43.75492" lon="3.37887">
        <ele>588.9</ele>
        <time>2026-05-18T09:44:11Z</time>
      </trkpt>
      <trkpt lat="43.75493" lon="3.37878">
        <ele>589.5</ele>
        <time>2026-05-18T09:44:16Z</time>
      </trkpt>
      <trkpt lat="43.75494" lon="3.37869">
        <ele>590.2</ele>
        <time>2026-05-18T09:44:21Z</time>
      </trkpt>
      <trkpt lat="43.75496" lon="3.37862">
        <ele>590.1</ele>
        <time>2026-05-18T09:44:26Z</time>
      </trkpt>
      <trkpt lat="43.755" lon="3.37856">
        <ele>589</ele>
        <time>2026-05-18T09:44:31Z</time>
      </trkpt>
      <trkpt lat="43.75503" lon="3.37849">
        <ele>588.9</ele>
        <time>2026-05-18T09:44:36Z</time>
      </trkpt>
      <trkpt lat="43.75505" lon="3.37841">
        <ele>589.2</ele>
        <time>2026-05-18T09:44:41Z</time>
      </trkpt>
      <trkpt lat="43.75507" lon="3.37833">
        <ele>589.6</ele>
        <time>2026-05-18T09:44:46Z</time>
      </trkpt>
      <trkpt lat="43.75509" lon="3.37826">
        <ele>589.7</ele>
        <time>2026-05-18T09:44:51Z</time>
      </trkpt>
      <trkpt lat="43.75509" lon="3.37816">
        <ele>590.8</ele>
        <time>2026-05-18T09:44:56Z</time>
      </trkpt>
      <trkpt lat="43.7551" lon="3.37808">
        <ele>591.3</ele>
        <time>2026-05-18T09:45:01Z</time>
      </trkpt>
      <trkpt lat="43.75511" lon="3.37801">
        <ele>591.8</ele>
        <time>2026-05-18T09:45:06Z</time>
      </trkpt>
      <trkpt lat="43.75511" lon="3.37795">
        <ele>592.4</ele>
        <time>2026-05-18T09:45:11Z</time>
      </trkpt>
      <trkpt lat="43.75512" lon="3.37787">
        <ele>593</ele>
        <time>2026-05-18T09:45:16Z</time>
      </trkpt>
      <trkpt lat="43.75513" lon="3.37779">
        <ele>593.5</ele>
        <time>2026-05-18T09:45:21Z</time>
      </trkpt>
      <trkpt lat="43.75514" lon="3.37769">
        <ele>594.3</ele>
        <time>2026-05-18T09:45:26Z</time>
      </trkpt>
      <trkpt lat="43.75516" lon="3.37761">
        <ele>594.6</ele>
        <time>2026-05-18T09:45:31Z</time>
      </trkpt>
      <trkpt lat="43.75518" lon="3.37755">
        <ele>594.6</ele>
        <time>2026-05-18T09:45:36Z</time>
      </trkpt>
      <trkpt lat="43.75522" lon="3.37749">
        <ele>593.8</ele>
        <time>2026-05-18T09:45:41Z</time>
      </trkpt>
      <trkpt lat="43.75528" lon="3.37744">
        <ele>591.7</ele>
        <time>2026-05-18T09:45:46Z</time>
      </trkpt>
      <trkpt lat="43.75534" lon="3.37739">
        <ele>589.5</ele>
        <time>2026-05-18T09:45:51Z</time>
      </trkpt>
      <trkpt lat="43.75538" lon="3.37734">
        <ele>588</ele>
        <time>2026-05-18T09:45:56Z</time>
      </trkpt>
      <trkpt lat="43.75541" lon="3.37731">
        <ele>586.9</ele>
        <time>2026-05-18T09:46:01Z</time>
      </trkpt>
      <trkpt lat="43.75541" lon="3.37731">
        <ele>586.9</ele>
        <time>2026-05-18T09:46:06Z</time>
      </trkpt>
      <trkpt lat="43.75543" lon="3.37728">
        <ele>586.1</ele>
        <time>2026-05-18T09:46:11Z</time>
      </trkpt>
      <trkpt lat="43.75547" lon="3.37721">
        <ele>584.6</ele>
        <time>2026-05-18T09:46:16Z</time>
      </trkpt>
      <trkpt lat="43.75551" lon="3.37712">
        <ele>582.9</ele>
        <time>2026-05-18T09:46:21Z</time>
      </trkpt>
      <trkpt lat="43.75551" lon="3.37702">
        <ele>582.5</ele>
        <time>2026-05-18T09:46:26Z</time>
      </trkpt>
      <trkpt lat="43.75549" lon="3.37693">
        <ele>582.8</ele>
        <time>2026-05-18T09:46:31Z</time>
      </trkpt>
      <trkpt lat="43.75546" lon="3.37683">
        <ele>583.3</ele>
        <time>2026-05-18T09:46:36Z</time>
      </trkpt>
      <trkpt lat="43.75541" lon="3.37675">
        <ele>584.6</ele>
        <time>2026-05-18T09:46:41Z</time>
      </trkpt>
      <trkpt lat="43.75536" lon="3.37668">
        <ele>585.8</ele>
        <time>2026-05-18T09:46:46Z</time>
      </trkpt>
      <trkpt lat="43.7553" lon="3.37662">
        <ele>587.5</ele>
        <time>2026-05-18T09:46:51Z</time>
      </trkpt>
      <trkpt lat="43.75524" lon="3.37656">
        <ele>589.2</ele>
        <time>2026-05-18T09:46:56Z</time>
      </trkpt>
      <trkpt lat="43.75519" lon="3.3765">
        <ele>590.5</ele>
        <time>2026-05-18T09:47:01Z</time>
      </trkpt>
      <trkpt lat="43.75516" lon="3.37644">
        <ele>591.2</ele>
        <time>2026-05-18T09:47:06Z</time>
      </trkpt>
      <trkpt lat="43.75513" lon="3.37642">
        <ele>592</ele>
        <time>2026-05-18T09:47:11Z</time>
      </trkpt>
      <trkpt lat="43.75512" lon="3.37642">
        <ele>592.3</ele>
        <time>2026-05-18T09:47:16Z</time>
      </trkpt>
      <trkpt lat="43.75512" lon="3.37641">
        <ele>592.2</ele>
        <time>2026-05-18T09:47:21Z</time>
      </trkpt>
      <trkpt lat="43.7551" lon="3.37632">
        <ele>592.5</ele>
        <time>2026-05-18T09:47:26Z</time>
      </trkpt>
      <trkpt lat="43.75507" lon="3.37626">
        <ele>593.1</ele>
        <time>2026-05-18T09:47:31Z</time>
      </trkpt>
      <trkpt lat="43.75503" lon="3.37621">
        <ele>594</ele>
        <time>2026-05-18T09:47:36Z</time>
      </trkpt>
      <trkpt lat="43.75499" lon="3.37615">
        <ele>594.7</ele>
        <time>2026-05-18T09:47:41Z</time>
      </trkpt>
      <trkpt lat="43.75497" lon="3.37609">
        <ele>594.7</ele>
        <time>2026-05-18T09:47:46Z</time>
      </trkpt>
      <trkpt lat="43.75499" lon="3.37608">
        <ele>594.3</ele>
        <time>2026-05-18T09:47:51Z</time>
      </trkpt>
      <trkpt lat="43.75499" lon="3.37607">
        <ele>594.3</ele>
        <time>2026-05-18T09:47:56Z</time>
      </trkpt>
      <trkpt lat="43.75494" lon="3.37605">
        <ele>594.9</ele>
        <time>2026-05-18T09:48:01Z</time>
      </trkpt>
      <trkpt lat="43.75493" lon="3.37601">
        <ele>594.8</ele>
        <time>2026-05-18T09:48:06Z</time>
      </trkpt>
      <trkpt lat="43.75493" lon="3.37598">
        <ele>594.6</ele>
        <time>2026-05-18T09:48:11Z</time>
      </trkpt>
      <trkpt lat="43.75493" lon="3.37598">
        <ele>594.6</ele>
        <time>2026-05-18T09:48:16Z</time>
      </trkpt>
      <trkpt lat="43.75493" lon="3.37598">
        <ele>594.6</ele>
        <time>2026-05-18T09:48:21Z</time>
      </trkpt>
      <trkpt lat="43.75493" lon="3.3759">
        <ele>594.2</ele>
        <time>2026-05-18T09:48:26Z</time>
      </trkpt>
      <trkpt lat="43.75493" lon="3.37584">
        <ele>593.9</ele>
        <time>2026-05-18T09:48:31Z</time>
      </trkpt>
      <trkpt lat="43.75495" lon="3.37579">
        <ele>594.3</ele>
        <time>2026-05-18T09:48:36Z</time>
      </trkpt>
      <trkpt lat="43.75501" lon="3.37582">
        <ele>593</ele>
        <time>2026-05-18T09:48:41Z</time>
      </trkpt>
      <trkpt lat="43.75507" lon="3.37587">
        <ele>591.4</ele>
        <time>2026-05-18T09:48:46Z</time>
      </trkpt>
      <trkpt lat="43.75514" lon="3.37591">
        <ele>589.8</ele>
        <time>2026-05-18T09:48:51Z</time>
      </trkpt>
      <trkpt lat="43.75521" lon="3.37594">
        <ele>588.1</ele>
        <time>2026-05-18T09:48:56Z</time>
      </trkpt>
      <trkpt lat="43.75528" lon="3.37596">
        <ele>586.3</ele>
        <time>2026-05-18T09:49:01Z</time>
      </trkpt>
      <trkpt lat="43.75531" lon="3.37601">
        <ele>585.6</ele>
        <time>2026-05-18T09:49:06Z</time>
      </trkpt>
      <trkpt lat="43.75532" lon="3.37601">
        <ele>585.4</ele>
        <time>2026-05-18T09:49:11Z</time>
      </trkpt>
      <trkpt lat="43.75538" lon="3.37599">
        <ele>583.7</ele>
        <time>2026-05-18T09:49:16Z</time>
      </trkpt>
      <trkpt lat="43.75547" lon="3.37598">
        <ele>581.4</ele>
        <time>2026-05-18T09:49:21Z</time>
      </trkpt>
      <trkpt lat="43.75554" lon="3.37599">
        <ele>579.5</ele>
        <time>2026-05-18T09:49:26Z</time>
      </trkpt>
      <trkpt lat="43.75561" lon="3.37602">
        <ele>577.7</ele>
        <time>2026-05-18T09:49:31Z</time>
      </trkpt>
      <trkpt lat="43.75567" lon="3.37605">
        <ele>576.1</ele>
        <time>2026-05-18T09:49:36Z</time>
      </trkpt>
      <trkpt lat="43.75574" lon="3.37606">
        <ele>574.2</ele>
        <time>2026-05-18T09:49:41Z</time>
      </trkpt>
      <trkpt lat="43.75581" lon="3.37606">
        <ele>572.4</ele>
        <time>2026-05-18T09:49:46Z</time>
      </trkpt>
      <trkpt lat="43.75587" lon="3.37607">
        <ele>571.3</ele>
        <time>2026-05-18T09:49:51Z</time>
      </trkpt>
      <trkpt lat="43.75594" lon="3.37607">
        <ele>570.5</ele>
        <time>2026-05-18T09:49:56Z</time>
      </trkpt>
      <trkpt lat="43.756" lon="3.37608">
        <ele>569.7</ele>
        <time>2026-05-18T09:50:01Z</time>
      </trkpt>
      <trkpt lat="43.75607" lon="3.37608">
        <ele>568.9</ele>
        <time>2026-05-18T09:50:06Z</time>
      </trkpt>
      <trkpt lat="43.75614" lon="3.3761">
        <ele>567.9</ele>
        <time>2026-05-18T09:50:11Z</time>
      </trkpt>
      <trkpt lat="43.75621" lon="3.37612">
        <ele>566.9</ele>
        <time>2026-05-18T09:50:16Z</time>
      </trkpt>
      <trkpt lat="43.75624" lon="3.37613">
        <ele>566.5</ele>
        <time>2026-05-18T09:50:21Z</time>
      </trkpt>
      <trkpt lat="43.7563" lon="3.37615">
        <ele>565.6</ele>
        <time>2026-05-18T09:50:26Z</time>
      </trkpt>
      <trkpt lat="43.75638" lon="3.37615">
        <ele>564.5</ele>
        <time>2026-05-18T09:50:31Z</time>
      </trkpt>
      <trkpt lat="43.75646" lon="3.37617">
        <ele>563.3</ele>
        <time>2026-05-18T09:50:36Z</time>
      </trkpt>
      <trkpt lat="43.75653" lon="3.37618">
        <ele>562.3</ele>
        <time>2026-05-18T09:50:41Z</time>
      </trkpt>
      <trkpt lat="43.7566" lon="3.37617">
        <ele>561.4</ele>
        <time>2026-05-18T09:50:46Z</time>
      </trkpt>
      <trkpt lat="43.75667" lon="3.37613">
        <ele>561</ele>
        <time>2026-05-18T09:50:51Z</time>
      </trkpt>
      <trkpt lat="43.75672" lon="3.37604">
        <ele>561.6</ele>
        <time>2026-05-18T09:50:56Z</time>
      </trkpt>
      <trkpt lat="43.75676" lon="3.37594">
        <ele>562.3</ele>
        <time>2026-05-18T09:51:01Z</time>
      </trkpt>
      <trkpt lat="43.75677" lon="3.37584">
        <ele>563.5</ele>
        <time>2026-05-18T09:51:06Z</time>
      </trkpt>
      <trkpt lat="43.75678" lon="3.37575">
        <ele>565.6</ele>
        <time>2026-05-18T09:51:11Z</time>
      </trkpt>
      <trkpt lat="43.75679" lon="3.37566">
        <ele>567.6</ele>
        <time>2026-05-18T09:51:16Z</time>
      </trkpt>
      <trkpt lat="43.7568" lon="3.37556">
        <ele>569.9</ele>
        <time>2026-05-18T09:51:21Z</time>
      </trkpt>
      <trkpt lat="43.7568" lon="3.37548">
        <ele>571.8</ele>
        <time>2026-05-18T09:51:26Z</time>
      </trkpt>
      <trkpt lat="43.75683" lon="3.3754">
        <ele>573.1</ele>
        <time>2026-05-18T09:51:31Z</time>
      </trkpt>
      <trkpt lat="43.75684" lon="3.37532">
        <ele>574.7</ele>
        <time>2026-05-18T09:51:36Z</time>
      </trkpt>
      <trkpt lat="43.75685" lon="3.37521">
        <ele>577</ele>
        <time>2026-05-18T09:51:41Z</time>
      </trkpt>
      <trkpt lat="43.75683" lon="3.37511">
        <ele>579.9</ele>
        <time>2026-05-18T09:51:46Z</time>
      </trkpt>
      <trkpt lat="43.75681" lon="3.37501">
        <ele>582.9</ele>
        <time>2026-05-18T09:51:51Z</time>
      </trkpt>
      <trkpt lat="43.75679" lon="3.37491">
        <ele>585.2</ele>
        <time>2026-05-18T09:51:56Z</time>
      </trkpt>
      <trkpt lat="43.75678" lon="3.3748">
        <ele>587.2</ele>
        <time>2026-05-18T09:52:01Z</time>
      </trkpt>
      <trkpt lat="43.75677" lon="3.3747">
        <ele>589.2</ele>
        <time>2026-05-18T09:52:06Z</time>
      </trkpt>
      <trkpt lat="43.75675" lon="3.37462">
        <ele>591.3</ele>
        <time>2026-05-18T09:52:11Z</time>
      </trkpt>
      <trkpt lat="43.75672" lon="3.37455">
        <ele>593.7</ele>
        <time>2026-05-18T09:52:16Z</time>
      </trkpt>
      <trkpt lat="43.75672" lon="3.37448">
        <ele>594.9</ele>
        <time>2026-05-18T09:52:21Z</time>
      </trkpt>
      <trkpt lat="43.75675" lon="3.37439">
        <ele>594.9</ele>
        <time>2026-05-18T09:52:26Z</time>
      </trkpt>
      <trkpt lat="43.75678" lon="3.37431">
        <ele>594.7</ele>
        <time>2026-05-18T09:52:31Z</time>
      </trkpt>
      <trkpt lat="43.75681" lon="3.37423">
        <ele>594.3</ele>
        <time>2026-05-18T09:52:36Z</time>
      </trkpt>
      <trkpt lat="43.75684" lon="3.37414">
        <ele>593.2</ele>
        <time>2026-05-18T09:52:41Z</time>
      </trkpt>
      <trkpt lat="43.75686" lon="3.37403">
        <ele>590.5</ele>
        <time>2026-05-18T09:52:46Z</time>
      </trkpt>
      <trkpt lat="43.75686" lon="3.37393">
        <ele>589</ele>
        <time>2026-05-18T09:52:51Z</time>
      </trkpt>
      <trkpt lat="43.75687" lon="3.37386">
        <ele>587.5</ele>
        <time>2026-05-18T09:52:56Z</time>
      </trkpt>
      <trkpt lat="43.75691" lon="3.37377">
        <ele>584.2</ele>
        <time>2026-05-18T09:53:01Z</time>
      </trkpt>
      <trkpt lat="43.75694" lon="3.37369">
        <ele>581.5</ele>
        <time>2026-05-18T09:53:06Z</time>
      </trkpt>
      <trkpt lat="43.75695" lon="3.3736">
        <ele>579.8</ele>
        <time>2026-05-18T09:53:11Z</time>
      </trkpt>
      <trkpt lat="43.75692" lon="3.3735">
        <ele>579.8</ele>
        <time>2026-05-18T09:53:16Z</time>
      </trkpt>
      <trkpt lat="43.75688" lon="3.37341">
        <ele>580.4</ele>
        <time>2026-05-18T09:53:21Z</time>
      </trkpt>
      <trkpt lat="43.75686" lon="3.37333">
        <ele>580.1</ele>
        <time>2026-05-18T09:53:26Z</time>
      </trkpt>
      <trkpt lat="43.75684" lon="3.37323">
        <ele>578.6</ele>
        <time>2026-05-18T09:53:31Z</time>
      </trkpt>
      <trkpt lat="43.75682" lon="3.37311">
        <ele>576.5</ele>
        <time>2026-05-18T09:53:36Z</time>
      </trkpt>
      <trkpt lat="43.75679" lon="3.37301">
        <ele>575.2</ele>
        <time>2026-05-18T09:53:41Z</time>
      </trkpt>
      <trkpt lat="43.75675" lon="3.37294">
        <ele>575</ele>
        <time>2026-05-18T09:53:46Z</time>
      </trkpt>
      <trkpt lat="43.75671" lon="3.37285">
        <ele>574.1</ele>
        <time>2026-05-18T09:53:51Z</time>
      </trkpt>
      <trkpt lat="43.75666" lon="3.37277">
        <ele>573.5</ele>
        <time>2026-05-18T09:53:56Z</time>
      </trkpt>
      <trkpt lat="43.75662" lon="3.37267">
        <ele>571.1</ele>
        <time>2026-05-18T09:54:01Z</time>
      </trkpt>
      <trkpt lat="43.75657" lon="3.37256">
        <ele>568.2</ele>
        <time>2026-05-18T09:54:06Z</time>
      </trkpt>
      <trkpt lat="43.75653" lon="3.37248">
        <ele>565.9</ele>
        <time>2026-05-18T09:54:11Z</time>
      </trkpt>
      <trkpt lat="43.75649" lon="3.3724">
        <ele>563.4</ele>
        <time>2026-05-18T09:54:16Z</time>
      </trkpt>
      <trkpt lat="43.75645" lon="3.37232">
        <ele>560.9</ele>
        <time>2026-05-18T09:54:21Z</time>
      </trkpt>
      <trkpt lat="43.75641" lon="3.37222">
        <ele>557.5</ele>
        <time>2026-05-18T09:54:26Z</time>
      </trkpt>
      <trkpt lat="43.75639" lon="3.37213">
        <ele>554.4</ele>
        <time>2026-05-18T09:54:31Z</time>
      </trkpt>
      <trkpt lat="43.75637" lon="3.37204">
        <ele>551.3</ele>
        <time>2026-05-18T09:54:36Z</time>
      </trkpt>
      <trkpt lat="43.75639" lon="3.37197">
        <ele>549</ele>
        <time>2026-05-18T09:54:41Z</time>
      </trkpt>
      <trkpt lat="43.75641" lon="3.37187">
        <ele>545.8</ele>
        <time>2026-05-18T09:54:46Z</time>
      </trkpt>
      <trkpt lat="43.75646" lon="3.37178">
        <ele>543.2</ele>
        <time>2026-05-18T09:54:51Z</time>
      </trkpt>
      <trkpt lat="43.75653" lon="3.37168">
        <ele>540.8</ele>
        <time>2026-05-18T09:54:56Z</time>
      </trkpt>
      <trkpt lat="43.75657" lon="3.37159">
        <ele>539.1</ele>
        <time>2026-05-18T09:55:01Z</time>
      </trkpt>
      <trkpt lat="43.75659" lon="3.3715">
        <ele>537.3</ele>
        <time>2026-05-18T09:55:06Z</time>
      </trkpt>
      <trkpt lat="43.7566" lon="3.37141">
        <ele>535.4</ele>
        <time>2026-05-18T09:55:11Z</time>
      </trkpt>
      <trkpt lat="43.75665" lon="3.3714">
        <ele>535.7</ele>
        <time>2026-05-18T09:55:16Z</time>
      </trkpt>
      <trkpt lat="43.75666" lon="3.37147">
        <ele>537.4</ele>
        <time>2026-05-18T09:55:21Z</time>
      </trkpt>
      <trkpt lat="43.75666" lon="3.37154">
        <ele>539</ele>
        <time>2026-05-18T09:55:26Z</time>
      </trkpt>
      <trkpt lat="43.75663" lon="3.37158">
        <ele>539.6</ele>
        <time>2026-05-18T09:55:31Z</time>
      </trkpt>
      <trkpt lat="43.75661" lon="3.37164">
        <ele>540.7</ele>
        <time>2026-05-18T09:55:36Z</time>
      </trkpt>
      <trkpt lat="43.75658" lon="3.37168">
        <ele>541.4</ele>
        <time>2026-05-18T09:55:41Z</time>
      </trkpt>
      <trkpt lat="43.75654" lon="3.37174">
        <ele>542.8</ele>
        <time>2026-05-18T09:55:46Z</time>
      </trkpt>
      <trkpt lat="43.75652" lon="3.37181">
        <ele>544.8</ele>
        <time>2026-05-18T09:55:51Z</time>
      </trkpt>
      <trkpt lat="43.75652" lon="3.3719">
        <ele>547.6</ele>
        <time>2026-05-18T09:55:56Z</time>
      </trkpt>
      <trkpt lat="43.75655" lon="3.37199">
        <ele>550.6</ele>
        <time>2026-05-18T09:56:01Z</time>
      </trkpt>
      <trkpt lat="43.75658" lon="3.37208">
        <ele>553.5</ele>
        <time>2026-05-18T09:56:06Z</time>
      </trkpt>
      <trkpt lat="43.75663" lon="3.37215">
        <ele>555.8</ele>
        <time>2026-05-18T09:56:11Z</time>
      </trkpt>
      <trkpt lat="43.75668" lon="3.37224">
        <ele>558.2</ele>
        <time>2026-05-18T09:56:16Z</time>
      </trkpt>
      <trkpt lat="43.75673" lon="3.37232">
        <ele>559.2</ele>
        <time>2026-05-18T09:56:21Z</time>
      </trkpt>
      <trkpt lat="43.75678" lon="3.37239">
        <ele>559.7</ele>
        <time>2026-05-18T09:56:26Z</time>
      </trkpt>
      <trkpt lat="43.75684" lon="3.37246">
        <ele>559.8</ele>
        <time>2026-05-18T09:56:31Z</time>
      </trkpt>
      <trkpt lat="43.75692" lon="3.37252">
        <ele>558.9</ele>
        <time>2026-05-18T09:56:36Z</time>
      </trkpt>
      <trkpt lat="43.75697" lon="3.37257">
        <ele>558.4</ele>
        <time>2026-05-18T09:56:41Z</time>
      </trkpt>
      <trkpt lat="43.75702" lon="3.37263">
        <ele>558.1</ele>
        <time>2026-05-18T09:56:46Z</time>
      </trkpt>
      <trkpt lat="43.7571" lon="3.37268">
        <ele>556.5</ele>
        <time>2026-05-18T09:56:51Z</time>
      </trkpt>
      <trkpt lat="43.75716" lon="3.37273">
        <ele>555.4</ele>
        <time>2026-05-18T09:56:56Z</time>
      </trkpt>
      <trkpt lat="43.75721" lon="3.3728">
        <ele>554.9</ele>
        <time>2026-05-18T09:57:01Z</time>
      </trkpt>
      <trkpt lat="43.75726" lon="3.37286">
        <ele>554.1</ele>
        <time>2026-05-18T09:57:06Z</time>
      </trkpt>
      <trkpt lat="43.7573" lon="3.37293">
        <ele>553.8</ele>
        <time>2026-05-18T09:57:11Z</time>
      </trkpt>
      <trkpt lat="43.75735" lon="3.373">
        <ele>552.9</ele>
        <time>2026-05-18T09:57:16Z</time>
      </trkpt>
      <trkpt lat="43.7574" lon="3.37307">
        <ele>551.9</ele>
        <time>2026-05-18T09:57:21Z</time>
      </trkpt>
      <trkpt lat="43.75744" lon="3.37315">
        <ele>551.3</ele>
        <time>2026-05-18T09:57:26Z</time>
      </trkpt>
      <trkpt lat="43.75746" lon="3.37325">
        <ele>551.8</ele>
        <time>2026-05-18T09:57:31Z</time>
      </trkpt>
      <trkpt lat="43.75747" lon="3.37334">
        <ele>552.4</ele>
        <time>2026-05-18T09:57:36Z</time>
      </trkpt>
      <trkpt lat="43.7575" lon="3.37344">
        <ele>551.9</ele>
        <time>2026-05-18T09:57:41Z</time>
      </trkpt>
      <trkpt lat="43.75754" lon="3.37353">
        <ele>551.2</ele>
        <time>2026-05-18T09:57:46Z</time>
      </trkpt>
      <trkpt lat="43.75759" lon="3.37361">
        <ele>550</ele>
        <time>2026-05-18T09:57:51Z</time>
      </trkpt>
      <trkpt lat="43.75762" lon="3.37368">
        <ele>549.6</ele>
        <time>2026-05-18T09:57:56Z</time>
      </trkpt>
      <trkpt lat="43.75765" lon="3.37377">
        <ele>549.4</ele>
        <time>2026-05-18T09:58:01Z</time>
      </trkpt>
      <trkpt lat="43.75769" lon="3.37387">
        <ele>548.9</ele>
        <time>2026-05-18T09:58:06Z</time>
      </trkpt>
      <trkpt lat="43.75771" lon="3.37396">
        <ele>549.1</ele>
        <time>2026-05-18T09:58:11Z</time>
      </trkpt>
      <trkpt lat="43.75776" lon="3.37404">
        <ele>548.3</ele>
        <time>2026-05-18T09:58:16Z</time>
      </trkpt>
      <trkpt lat="43.75779" lon="3.37411">
        <ele>548</ele>
        <time>2026-05-18T09:58:21Z</time>
      </trkpt>
      <trkpt lat="43.75782" lon="3.3742">
        <ele>547.7</ele>
        <time>2026-05-18T09:58:26Z</time>
      </trkpt>
      <trkpt lat="43.75786" lon="3.37424">
        <ele>546.4</ele>
        <time>2026-05-18T09:58:31Z</time>
      </trkpt>
      <trkpt lat="43.75787" lon="3.37429">
        <ele>546</ele>
        <time>2026-05-18T09:58:36Z</time>
      </trkpt>
      <trkpt lat="43.7579" lon="3.37435">
        <ele>545.1</ele>
        <time>2026-05-18T09:58:41Z</time>
      </trkpt>
      <trkpt lat="43.75791" lon="3.37444">
        <ele>544.7</ele>
        <time>2026-05-18T09:58:46Z</time>
      </trkpt>
      <trkpt lat="43.75792" lon="3.37454">
        <ele>544.4</ele>
        <time>2026-05-18T09:58:51Z</time>
      </trkpt>
      <trkpt lat="43.75794" lon="3.37465">
        <ele>543.7</ele>
        <time>2026-05-18T09:58:56Z</time>
      </trkpt>
      <trkpt lat="43.75794" lon="3.37474">
        <ele>543.7</ele>
        <time>2026-05-18T09:59:01Z</time>
      </trkpt>
      <trkpt lat="43.75794" lon="3.37483">
        <ele>543.7</ele>
        <time>2026-05-18T09:59:06Z</time>
      </trkpt>
      <trkpt lat="43.75795" lon="3.37492">
        <ele>543.3</ele>
        <time>2026-05-18T09:59:11Z</time>
      </trkpt>
      <trkpt lat="43.75797" lon="3.37502">
        <ele>542.4</ele>
        <time>2026-05-18T09:59:16Z</time>
      </trkpt>
      <trkpt lat="43.75803" lon="3.37502">
        <ele>540.2</ele>
        <time>2026-05-18T09:59:21Z</time>
      </trkpt>
      <trkpt lat="43.75806" lon="3.37494">
        <ele>539.2</ele>
        <time>2026-05-18T09:59:26Z</time>
      </trkpt>
      <trkpt lat="43.75805" lon="3.37486">
        <ele>539.6</ele>
        <time>2026-05-18T09:59:31Z</time>
      </trkpt>
      <trkpt lat="43.75804" lon="3.37479">
        <ele>540.1</ele>
        <time>2026-05-18T09:59:36Z</time>
      </trkpt>
      <trkpt lat="43.75805" lon="3.3747">
        <ele>539.8</ele>
        <time>2026-05-18T09:59:41Z</time>
      </trkpt>
      <trkpt lat="43.75805" lon="3.37458">
        <ele>539.9</ele>
        <time>2026-05-18T09:59:46Z</time>
      </trkpt>
      <trkpt lat="43.75809" lon="3.37449">
        <ele>538.6</ele>
        <time>2026-05-18T09:59:51Z</time>
      </trkpt>
      <trkpt lat="43.75813" lon="3.37439">
        <ele>537.3</ele>
        <time>2026-05-18T09:59:56Z</time>
      </trkpt>
      <trkpt lat="43.75816" lon="3.37431">
        <ele>536.4</ele>
        <time>2026-05-18T10:00:01Z</time>
      </trkpt>
      <trkpt lat="43.75817" lon="3.37424">
        <ele>536.2</ele>
        <time>2026-05-18T10:00:06Z</time>
      </trkpt>
      <trkpt lat="43.7582" lon="3.37415">
        <ele>535.1</ele>
        <time>2026-05-18T10:00:11Z</time>
      </trkpt>
      <trkpt lat="43.75823" lon="3.37406">
        <ele>532.9</ele>
        <time>2026-05-18T10:00:16Z</time>
      </trkpt>
      <trkpt lat="43.75826" lon="3.37398">
        <ele>530.8</ele>
        <time>2026-05-18T10:00:21Z</time>
      </trkpt>
      <trkpt lat="43.7583" lon="3.37391">
        <ele>528.4</ele>
        <time>2026-05-18T10:00:26Z</time>
      </trkpt>
      <trkpt lat="43.75834" lon="3.37383">
        <ele>526</ele>
        <time>2026-05-18T10:00:31Z</time>
      </trkpt>
      <trkpt lat="43.75838" lon="3.37376">
        <ele>523.8</ele>
        <time>2026-05-18T10:00:36Z</time>
      </trkpt>
      <trkpt lat="43.75841" lon="3.37368">
        <ele>521.9</ele>
        <time>2026-05-18T10:00:41Z</time>
      </trkpt>
      <trkpt lat="43.75843" lon="3.37363">
        <ele>520.7</ele>
        <time>2026-05-18T10:00:46Z</time>
      </trkpt>
      <trkpt lat="43.75846" lon="3.37357">
        <ele>519.1</ele>
        <time>2026-05-18T10:00:51Z</time>
      </trkpt>
      <trkpt lat="43.75849" lon="3.37349">
        <ele>517.3</ele>
        <time>2026-05-18T10:00:56Z</time>
      </trkpt>
      <trkpt lat="43.75851" lon="3.37336">
        <ele>515.3</ele>
        <time>2026-05-18T10:01:01Z</time>
      </trkpt>
      <trkpt lat="43.75852" lon="3.37326">
        <ele>514.1</ele>
        <time>2026-05-18T10:01:06Z</time>
      </trkpt>
      <trkpt lat="43.75856" lon="3.37317">
        <ele>512.3</ele>
        <time>2026-05-18T10:01:11Z</time>
      </trkpt>
      <trkpt lat="43.75858" lon="3.37308">
        <ele>511.1</ele>
        <time>2026-05-18T10:01:16Z</time>
      </trkpt>
      <trkpt lat="43.7586" lon="3.373">
        <ele>510</ele>
        <time>2026-05-18T10:01:21Z</time>
      </trkpt>
      <trkpt lat="43.75862" lon="3.37291">
        <ele>508.8</ele>
        <time>2026-05-18T10:01:26Z</time>
      </trkpt>
      <trkpt lat="43.75861" lon="3.37283">
        <ele>508.3</ele>
        <time>2026-05-18T10:01:31Z</time>
      </trkpt>
      <trkpt lat="43.75861" lon="3.37275">
        <ele>507.6</ele>
        <time>2026-05-18T10:01:36Z</time>
      </trkpt>
      <trkpt lat="43.75859" lon="3.37265">
        <ele>507</ele>
        <time>2026-05-18T10:01:41Z</time>
      </trkpt>
      <trkpt lat="43.75853" lon="3.37252">
        <ele>506.9</ele>
        <time>2026-05-18T10:01:46Z</time>
      </trkpt>
      <trkpt lat="43.75846" lon="3.37238">
        <ele>507</ele>
        <time>2026-05-18T10:01:51Z</time>
      </trkpt>
      <trkpt lat="43.75842" lon="3.3723">
        <ele>507</ele>
        <time>2026-05-18T10:01:56Z</time>
      </trkpt>
      <trkpt lat="43.75838" lon="3.37222">
        <ele>506.9</ele>
        <time>2026-05-18T10:02:01Z</time>
      </trkpt>
      <trkpt lat="43.75833" lon="3.37213">
        <ele>507</ele>
        <time>2026-05-18T10:02:06Z</time>
      </trkpt>
      <trkpt lat="43.75827" lon="3.37207">
        <ele>508.7</ele>
        <time>2026-05-18T10:02:11Z</time>
      </trkpt>
      <trkpt lat="43.7582" lon="3.37201">
        <ele>510.8</ele>
        <time>2026-05-18T10:02:16Z</time>
      </trkpt>
      <trkpt lat="43.75811" lon="3.37197">
        <ele>513.9</ele>
        <time>2026-05-18T10:02:21Z</time>
      </trkpt>
      <trkpt lat="43.75803" lon="3.3719">
        <ele>516.2</ele>
        <time>2026-05-18T10:02:26Z</time>
      </trkpt>
      <trkpt lat="43.75799" lon="3.37183">
        <ele>517.1</ele>
        <time>2026-05-18T10:02:31Z</time>
      </trkpt>
      <trkpt lat="43.75797" lon="3.37174">
        <ele>517.1</ele>
        <time>2026-05-18T10:02:36Z</time>
      </trkpt>
      <trkpt lat="43.75797" lon="3.37165">
        <ele>516.5</ele>
        <time>2026-05-18T10:02:41Z</time>
      </trkpt>
      <trkpt lat="43.75799" lon="3.37155">
        <ele>515.8</ele>
        <time>2026-05-18T10:02:46Z</time>
      </trkpt>
      <trkpt lat="43.75799" lon="3.37144">
        <ele>515.8</ele>
        <time>2026-05-18T10:02:51Z</time>
      </trkpt>
      <trkpt lat="43.75801" lon="3.37133">
        <ele>515.1</ele>
        <time>2026-05-18T10:02:56Z</time>
      </trkpt>
      <trkpt lat="43.75808" lon="3.37124">
        <ele>512.7</ele>
        <time>2026-05-18T10:03:01Z</time>
      </trkpt>
      <trkpt lat="43.7581" lon="3.37116">
        <ele>512</ele>
        <time>2026-05-18T10:03:06Z</time>
      </trkpt>
      <trkpt lat="43.75811" lon="3.37107">
        <ele>511.8</ele>
        <time>2026-05-18T10:03:11Z</time>
      </trkpt>
      <trkpt lat="43.75809" lon="3.37098">
        <ele>512.5</ele>
        <time>2026-05-18T10:03:16Z</time>
      </trkpt>
      <trkpt lat="43.75809" lon="3.3709">
        <ele>512.5</ele>
        <time>2026-05-18T10:03:21Z</time>
      </trkpt>
      <trkpt lat="43.75808" lon="3.3708">
        <ele>513</ele>
        <time>2026-05-18T10:03:26Z</time>
      </trkpt>
      <trkpt lat="43.75807" lon="3.3707">
        <ele>513.7</ele>
        <time>2026-05-18T10:03:31Z</time>
      </trkpt>
      <trkpt lat="43.75808" lon="3.37062">
        <ele>513.8</ele>
        <time>2026-05-18T10:03:36Z</time>
      </trkpt>
      <trkpt lat="43.75805" lon="3.37053">
        <ele>514.9</ele>
        <time>2026-05-18T10:03:41Z</time>
      </trkpt>
      <trkpt lat="43.758" lon="3.3704">
        <ele>516.3</ele>
        <time>2026-05-18T10:03:46Z</time>
      </trkpt>
      <trkpt lat="43.75798" lon="3.37029">
        <ele>516.9</ele>
        <time>2026-05-18T10:03:51Z</time>
      </trkpt>
      <trkpt lat="43.75798" lon="3.37024">
        <ele>517</ele>
        <time>2026-05-18T10:03:56Z</time>
      </trkpt>
      <trkpt lat="43.75799" lon="3.37023">
        <ele>516.9</ele>
        <time>2026-05-18T10:04:01Z</time>
      </trkpt>
      <trkpt lat="43.75799" lon="3.37023">
        <ele>516.9</ele>
        <time>2026-05-18T10:04:06Z</time>
      </trkpt>
      <trkpt lat="43.75803" lon="3.37015">
        <ele>516.5</ele>
        <time>2026-05-18T10:04:11Z</time>
      </trkpt>
      <trkpt lat="43.75804" lon="3.37008">
        <ele>516.6</ele>
        <time>2026-05-18T10:04:16Z</time>
      </trkpt>
      <trkpt lat="43.75803" lon="3.37002">
        <ele>516.9</ele>
        <time>2026-05-18T10:04:21Z</time>
      </trkpt>
      <trkpt lat="43.75799" lon="3.36997">
        <ele>517</ele>
        <time>2026-05-18T10:04:26Z</time>
      </trkpt>
      <trkpt lat="43.75797" lon="3.36992">
        <ele>516.8</ele>
        <time>2026-05-18T10:04:31Z</time>
      </trkpt>
      <trkpt lat="43.75797" lon="3.36992">
        <ele>516.8</ele>
        <time>2026-05-18T10:04:36Z</time>
      </trkpt>
      <trkpt lat="43.75797" lon="3.36992">
        <ele>516.8</ele>
        <time>2026-05-18T10:04:41Z</time>
      </trkpt>
      <trkpt lat="43.75801" lon="3.3698">
        <ele>515.4</ele>
        <time>2026-05-18T10:04:46Z</time>
      </trkpt>
      <trkpt lat="43.75802" lon="3.3698">
        <ele>515.3</ele>
        <time>2026-05-18T10:04:51Z</time>
      </trkpt>
      <trkpt lat="43.75802" lon="3.3698">
        <ele>515.3</ele>
        <time>2026-05-18T10:04:56Z</time>
      </trkpt>
      <trkpt lat="43.75802" lon="3.3698">
        <ele>515.3</ele>
        <time>2026-05-18T10:05:01Z</time>
      </trkpt>
      <trkpt lat="43.75802" lon="3.3698">
        <ele>515.3</ele>
        <time>2026-05-18T10:05:06Z</time>
      </trkpt>
      <trkpt lat="43.75799" lon="3.36966">
        <ele>514.3</ele>
        <time>2026-05-18T10:05:11Z</time>
      </trkpt>
      <trkpt lat="43.758" lon="3.36966">
        <ele>514.3</ele>
        <time>2026-05-18T10:05:16Z</time>
      </trkpt>
      <trkpt lat="43.758" lon="3.36966">
        <ele>514.3</ele>
        <time>2026-05-18T10:05:21Z</time>
      </trkpt>
      <trkpt lat="43.7581" lon="3.36969">
        <ele>513.7</ele>
        <time>2026-05-18T10:05:26Z</time>
      </trkpt>
      <trkpt lat="43.75813" lon="3.36967">
        <ele>513.3</ele>
        <time>2026-05-18T10:05:31Z</time>
      </trkpt>
      <trkpt lat="43.75815" lon="3.3696">
        <ele>512.6</ele>
        <time>2026-05-18T10:05:36Z</time>
      </trkpt>
      <trkpt lat="43.75813" lon="3.36955">
        <ele>512.3</ele>
        <time>2026-05-18T10:05:41Z</time>
      </trkpt>
      <trkpt lat="43.75813" lon="3.36952">
        <ele>512.1</ele>
        <time>2026-05-18T10:05:46Z</time>
      </trkpt>
      <trkpt lat="43.75813" lon="3.36952">
        <ele>512.1</ele>
        <time>2026-05-18T10:05:51Z</time>
      </trkpt>
      <trkpt lat="43.75813" lon="3.36952">
        <ele>512.1</ele>
        <time>2026-05-18T10:05:56Z</time>
      </trkpt>
      <trkpt lat="43.75813" lon="3.36952">
        <ele>512.1</ele>
        <time>2026-05-18T10:06:01Z</time>
      </trkpt>
      <trkpt lat="43.75813" lon="3.36952">
        <ele>512.1</ele>
        <time>2026-05-18T10:06:06Z</time>
      </trkpt>
      <trkpt lat="43.75813" lon="3.36952">
        <ele>512.1</ele>
        <time>2026-05-18T10:06:11Z</time>
      </trkpt>
      <trkpt lat="43.75813" lon="3.36952">
        <ele>512.1</ele>
        <time>2026-05-18T10:06:16Z</time>
      </trkpt>
      <trkpt lat="43.75813" lon="3.36952">
        <ele>512.1</ele>
        <time>2026-05-18T10:06:21Z</time>
      </trkpt>
      <trkpt lat="43.75813" lon="3.36952">
        <ele>512.1</ele>
        <time>2026-05-18T10:06:26Z</time>
      </trkpt>
      <trkpt lat="43.75813" lon="3.36952">
        <ele>512.1</ele>
        <time>2026-05-18T10:06:31Z</time>
      </trkpt>
      <trkpt lat="43.75813" lon="3.36952">
        <ele>512.1</ele>
        <time>2026-05-18T10:06:36Z</time>
      </trkpt>
      <trkpt lat="43.75813" lon="3.36952">
        <ele>512.1</ele>
        <time>2026-05-18T10:06:41Z</time>
      </trkpt>
      <trkpt lat="43.75813" lon="3.36952">
        <ele>512.1</ele>
        <time>2026-05-18T10:06:46Z</time>
      </trkpt>
      <trkpt lat="43.75813" lon="3.36952">
        <ele>512.1</ele>
        <time>2026-05-18T10:06:51Z</time>
      </trkpt>
      <trkpt lat="43.75813" lon="3.36952">
        <ele>512.1</ele>
        <time>2026-05-18T10:06:56Z</time>
      </trkpt>
      <trkpt lat="43.75813" lon="3.36952">
        <ele>512.1</ele>
        <time>2026-05-18T10:07:01Z</time>
      </trkpt>
      <trkpt lat="43.75813" lon="3.36952">
        <ele>512.1</ele>
        <time>2026-05-18T10:07:06Z</time>
      </trkpt>
      <trkpt lat="43.75823" lon="3.36952">
        <ele>511.3</ele>
        <time>2026-05-18T10:07:11Z</time>
      </trkpt>
      <trkpt lat="43.75824" lon="3.36954">
        <ele>511.4</ele>
        <time>2026-05-18T10:07:16Z</time>
      </trkpt>
      <trkpt lat="43.75824" lon="3.36954">
        <ele>511.4</ele>
        <time>2026-05-18T10:07:21Z</time>
      </trkpt>
      <trkpt lat="43.75824" lon="3.36954">
        <ele>511.4</ele>
        <time>2026-05-18T10:07:26Z</time>
      </trkpt>
      <trkpt lat="43.75826" lon="3.3694">
        <ele>510.2</ele>
        <time>2026-05-18T10:07:31Z</time>
      </trkpt>
      <trkpt lat="43.75826" lon="3.36939">
        <ele>510.1</ele>
        <time>2026-05-18T10:07:36Z</time>
      </trkpt>
      <trkpt lat="43.75826" lon="3.36939">
        <ele>510.1</ele>
        <time>2026-05-18T10:07:41Z</time>
      </trkpt>
      <trkpt lat="43.75826" lon="3.36939">
        <ele>510.1</ele>
        <time>2026-05-18T10:07:46Z</time>
      </trkpt>
      <trkpt lat="43.75826" lon="3.36939">
        <ele>510.1</ele>
        <time>2026-05-18T10:07:51Z</time>
      </trkpt>
      <trkpt lat="43.75826" lon="3.36939">
        <ele>510.1</ele>
        <time>2026-05-18T10:07:56Z</time>
      </trkpt>
      <trkpt lat="43.75826" lon="3.36925">
        <ele>509.1</ele>
        <time>2026-05-18T10:08:01Z</time>
      </trkpt>
      <trkpt lat="43.75826" lon="3.36925">
        <ele>509.1</ele>
        <time>2026-05-18T10:08:06Z</time>
      </trkpt>
      <trkpt lat="43.75826" lon="3.36925">
        <ele>509.1</ele>
        <time>2026-05-18T10:08:11Z</time>
      </trkpt>
      <trkpt lat="43.75826" lon="3.36925">
        <ele>509.1</ele>
        <time>2026-05-18T10:08:16Z</time>
      </trkpt>
      <trkpt lat="43.75826" lon="3.36925">
        <ele>509.1</ele>
        <time>2026-05-18T10:08:21Z</time>
      </trkpt>
      <trkpt lat="43.75837" lon="3.36928">
        <ele>506.2</ele>
        <time>2026-05-18T10:08:26Z</time>
      </trkpt>
      <trkpt lat="43.75839" lon="3.36931">
        <ele>505.1</ele>
        <time>2026-05-18T10:08:31Z</time>
      </trkpt>
      <trkpt lat="43.75839" lon="3.36931">
        <ele>505.1</ele>
        <time>2026-05-18T10:08:36Z</time>
      </trkpt>
      <trkpt lat="43.75839" lon="3.36931">
        <ele>505.1</ele>
        <time>2026-05-18T10:08:41Z</time>
      </trkpt>
      <trkpt lat="43.75842" lon="3.36944">
        <ele>504.2</ele>
        <time>2026-05-18T10:08:46Z</time>
      </trkpt>
      <trkpt lat="43.75842" lon="3.36944">
        <ele>504.2</ele>
        <time>2026-05-18T10:08:51Z</time>
      </trkpt>
      <trkpt lat="43.75842" lon="3.36944">
        <ele>504.2</ele>
        <time>2026-05-18T10:08:56Z</time>
      </trkpt>
      <trkpt lat="43.7585" lon="3.36936">
        <ele>498</ele>
        <time>2026-05-18T10:09:01Z</time>
      </trkpt>
      <trkpt lat="43.7585" lon="3.36933">
        <ele>497.7</ele>
        <time>2026-05-18T10:09:06Z</time>
      </trkpt>
      <trkpt lat="43.7585" lon="3.36933">
        <ele>497.7</ele>
        <time>2026-05-18T10:09:11Z</time>
      </trkpt>
      <trkpt lat="43.7585" lon="3.36933">
        <ele>497.7</ele>
        <time>2026-05-18T10:09:16Z</time>
      </trkpt>
      <trkpt lat="43.7585" lon="3.36933">
        <ele>497.7</ele>
        <time>2026-05-18T10:09:21Z</time>
      </trkpt>
      <trkpt lat="43.7585" lon="3.36933">
        <ele>497.7</ele>
        <time>2026-05-18T10:09:26Z</time>
      </trkpt>
      <trkpt lat="43.75859" lon="3.36935">
        <ele>491.8</ele>
        <time>2026-05-18T10:09:31Z</time>
      </trkpt>
      <trkpt lat="43.75859" lon="3.36937">
        <ele>492</ele>
        <time>2026-05-18T10:09:36Z</time>
      </trkpt>
      <trkpt lat="43.75859" lon="3.36937">
        <ele>492</ele>
        <time>2026-05-18T10:09:41Z</time>
      </trkpt>
      <trkpt lat="43.75859" lon="3.36937">
        <ele>492</ele>
        <time>2026-05-18T10:09:46Z</time>
      </trkpt>
      <trkpt lat="43.75859" lon="3.36937">
        <ele>492</ele>
        <time>2026-05-18T10:09:51Z</time>
      </trkpt>
      <trkpt lat="43.75859" lon="3.36937">
        <ele>492</ele>
        <time>2026-05-18T10:09:56Z</time>
      </trkpt>
      <trkpt lat="43.75863" lon="3.3695">
        <ele>491.2</ele>
        <time>2026-05-18T10:10:01Z</time>
      </trkpt>
      <trkpt lat="43.75863" lon="3.3695">
        <ele>491.2</ele>
        <time>2026-05-18T10:10:06Z</time>
      </trkpt>
      <trkpt lat="43.75863" lon="3.3695">
        <ele>491.2</ele>
        <time>2026-05-18T10:10:11Z</time>
      </trkpt>
      <trkpt lat="43.75863" lon="3.3695">
        <ele>491.2</ele>
        <time>2026-05-18T10:10:16Z</time>
      </trkpt>
      <trkpt lat="43.75863" lon="3.3695">
        <ele>491.2</ele>
        <time>2026-05-18T10:10:21Z</time>
      </trkpt>
      <trkpt lat="43.75863" lon="3.3695">
        <ele>491.2</ele>
        <time>2026-05-18T10:10:26Z</time>
      </trkpt>
      <trkpt lat="43.75863" lon="3.3695">
        <ele>491.2</ele>
        <time>2026-05-18T10:10:31Z</time>
      </trkpt>
      <trkpt lat="43.75873" lon="3.36941">
        <ele>483.2</ele>
        <time>2026-05-18T10:10:36Z</time>
      </trkpt>
      <trkpt lat="43.75876" lon="3.36946">
        <ele>482.1</ele>
        <time>2026-05-18T10:10:41Z</time>
      </trkpt>
      <trkpt lat="43.75878" lon="3.3695">
        <ele>481.6</ele>
        <time>2026-05-18T10:10:46Z</time>
      </trkpt>
      <trkpt lat="43.75881" lon="3.36948">
        <ele>479.2</ele>
        <time>2026-05-18T10:10:51Z</time>
      </trkpt>
      <trkpt lat="43.75883" lon="3.36947">
        <ele>477.7</ele>
        <time>2026-05-18T10:10:56Z</time>
      </trkpt>
      <trkpt lat="43.75883" lon="3.36947">
        <ele>477.7</ele>
        <time>2026-05-18T10:11:01Z</time>
      </trkpt>
      <trkpt lat="43.75883" lon="3.36947">
        <ele>477.7</ele>
        <time>2026-05-18T10:11:06Z</time>
      </trkpt>
      <trkpt lat="43.75883" lon="3.36947">
        <ele>477.7</ele>
        <time>2026-05-18T10:11:11Z</time>
      </trkpt>
      <trkpt lat="43.75883" lon="3.36947">
        <ele>477.7</ele>
        <time>2026-05-18T10:11:16Z</time>
      </trkpt>
      <trkpt lat="43.75883" lon="3.36947">
        <ele>477.7</ele>
        <time>2026-05-18T10:11:21Z</time>
      </trkpt>
      <trkpt lat="43.75893" lon="3.3694">
        <ele>469.6</ele>
        <time>2026-05-18T10:11:26Z</time>
      </trkpt>
      <trkpt lat="43.75893" lon="3.3694">
        <ele>469.6</ele>
        <time>2026-05-18T10:11:31Z</time>
      </trkpt>
      <trkpt lat="43.75893" lon="3.3694">
        <ele>469.6</ele>
        <time>2026-05-18T10:11:36Z</time>
      </trkpt>
      <trkpt lat="43.75893" lon="3.3694">
        <ele>469.6</ele>
        <time>2026-05-18T10:11:41Z</time>
      </trkpt>
      <trkpt lat="43.75893" lon="3.3694">
        <ele>469.6</ele>
        <time>2026-05-18T10:11:46Z</time>
      </trkpt>
      <trkpt lat="43.75895" lon="3.36927">
        <ele>465.3</ele>
        <time>2026-05-18T10:11:51Z</time>
      </trkpt>
      <trkpt lat="43.75896" lon="3.36925">
        <ele>464.1</ele>
        <time>2026-05-18T10:11:56Z</time>
      </trkpt>
      <trkpt lat="43.75896" lon="3.36925">
        <ele>464.1</ele>
        <time>2026-05-18T10:12:01Z</time>
      </trkpt>
      <trkpt lat="43.759" lon="3.36918">
        <ele>459.5</ele>
        <time>2026-05-18T10:12:06Z</time>
      </trkpt>
      <trkpt lat="43.75902" lon="3.36917">
        <ele>457.8</ele>
        <time>2026-05-18T10:12:11Z</time>
      </trkpt>
      <trkpt lat="43.75902" lon="3.36913">
        <ele>456.9</ele>
        <time>2026-05-18T10:12:16Z</time>
      </trkpt>
      <trkpt lat="43.75902" lon="3.36913">
        <ele>456.9</ele>
        <time>2026-05-18T10:12:21Z</time>
      </trkpt>
      <trkpt lat="43.75902" lon="3.36913">
        <ele>456.9</ele>
        <time>2026-05-18T10:12:26Z</time>
      </trkpt>
      <trkpt lat="43.75902" lon="3.36913">
        <ele>456.9</ele>
        <time>2026-05-18T10:12:31Z</time>
      </trkpt>
      <trkpt lat="43.75902" lon="3.36913">
        <ele>456.9</ele>
        <time>2026-05-18T10:12:36Z</time>
      </trkpt>
      <trkpt lat="43.75901" lon="3.369">
        <ele>454.6</ele>
        <time>2026-05-18T10:12:41Z</time>
      </trkpt>
      <trkpt lat="43.75904" lon="3.369">
        <ele>452.4</ele>
        <time>2026-05-18T10:12:46Z</time>
      </trkpt>
      <trkpt lat="43.7591" lon="3.36899">
        <ele>447.8</ele>
        <time>2026-05-18T10:12:51Z</time>
      </trkpt>
      <trkpt lat="43.75916" lon="3.36901">
        <ele>443.9</ele>
        <time>2026-05-18T10:12:56Z</time>
      </trkpt>
      <trkpt lat="43.75922" lon="3.36897">
        <ele>440.1</ele>
        <time>2026-05-18T10:13:01Z</time>
      </trkpt>
      <trkpt lat="43.75931" lon="3.36898">
        <ele>436.2</ele>
        <time>2026-05-18T10:13:06Z</time>
      </trkpt>
      <trkpt lat="43.75937" lon="3.36899">
        <ele>433.7</ele>
        <time>2026-05-18T10:13:11Z</time>
      </trkpt>
      <trkpt lat="43.75944" lon="3.36898">
        <ele>430.3</ele>
        <time>2026-05-18T10:13:16Z</time>
      </trkpt>
      <trkpt lat="43.7595" lon="3.36893">
        <ele>426.3</ele>
        <time>2026-05-18T10:13:21Z</time>
      </trkpt>
      <trkpt lat="43.75956" lon="3.36888">
        <ele>422.4</ele>
        <time>2026-05-18T10:13:26Z</time>
      </trkpt>
      <trkpt lat="43.75962" lon="3.36882">
        <ele>418.1</ele>
        <time>2026-05-18T10:13:31Z</time>
      </trkpt>
      <trkpt lat="43.75968" lon="3.36875">
        <ele>413.5</ele>
        <time>2026-05-18T10:13:36Z</time>
      </trkpt>
      <trkpt lat="43.75971" lon="3.36872">
        <ele>411.3</ele>
        <time>2026-05-18T10:13:41Z</time>
      </trkpt>
      <trkpt lat="43.75974" lon="3.3687">
        <ele>409.4</ele>
        <time>2026-05-18T10:13:46Z</time>
      </trkpt>
      <trkpt lat="43.75971" lon="3.36869">
        <ele>410.5</ele>
        <time>2026-05-18T10:13:51Z</time>
      </trkpt>
      <trkpt lat="43.7597" lon="3.36863">
        <ele>409.4</ele>
        <time>2026-05-18T10:13:56Z</time>
      </trkpt>
      <trkpt lat="43.75973" lon="3.36859">
        <ele>407</ele>
        <time>2026-05-18T10:14:01Z</time>
      </trkpt>
      <trkpt lat="43.75978" lon="3.36859">
        <ele>404.6</ele>
        <time>2026-05-18T10:14:06Z</time>
      </trkpt>
      <trkpt lat="43.75985" lon="3.36861">
        <ele>401.8</ele>
        <time>2026-05-18T10:14:11Z</time>
      </trkpt>
      <trkpt lat="43.7599" lon="3.36864">
        <ele>400.2</ele>
        <time>2026-05-18T10:14:16Z</time>
      </trkpt>
      <trkpt lat="43.75994" lon="3.36864">
        <ele>398.3</ele>
        <time>2026-05-18T10:14:21Z</time>
      </trkpt>
      <trkpt lat="43.75992" lon="3.36859">
        <ele>397.9</ele>
        <time>2026-05-18T10:14:26Z</time>
      </trkpt>
      <trkpt lat="43.75988" lon="3.36854">
        <ele>398.5</ele>
        <time>2026-05-18T10:14:31Z</time>
      </trkpt>
      <trkpt lat="43.75984" lon="3.36849">
        <ele>399.1</ele>
        <time>2026-05-18T10:14:36Z</time>
      </trkpt>
      <trkpt lat="43.75987" lon="3.36846">
        <ele>396.8</ele>
        <time>2026-05-18T10:14:41Z</time>
      </trkpt>
      <trkpt lat="43.75993" lon="3.36849">
        <ele>394.7</ele>
        <time>2026-05-18T10:14:46Z</time>
      </trkpt>
      <trkpt lat="43.75998" lon="3.36851">
        <ele>392.8</ele>
        <time>2026-05-18T10:14:51Z</time>
      </trkpt>
      <trkpt lat="43.76004" lon="3.36853">
        <ele>391.9</ele>
        <time>2026-05-18T10:14:56Z</time>
      </trkpt>
      <trkpt lat="43.7601" lon="3.36854">
        <ele>391.3</ele>
        <time>2026-05-18T10:15:01Z</time>
      </trkpt>
      <trkpt lat="43.76012" lon="3.36849">
        <ele>389.6</ele>
        <time>2026-05-18T10:15:06Z</time>
      </trkpt>
      <trkpt lat="43.76008" lon="3.36844">
        <ele>388.8</ele>
        <time>2026-05-18T10:15:11Z</time>
      </trkpt>
      <trkpt lat="43.76004" lon="3.36838">
        <ele>387.7</ele>
        <time>2026-05-18T10:15:16Z</time>
      </trkpt>
      <trkpt lat="43.76" lon="3.36832">
        <ele>386.8</ele>
        <time>2026-05-18T10:15:21Z</time>
      </trkpt>
      <trkpt lat="43.75998" lon="3.36824">
        <ele>386.4</ele>
        <time>2026-05-18T10:15:26Z</time>
      </trkpt>
      <trkpt lat="43.76002" lon="3.36825">
        <ele>385.3</ele>
        <time>2026-05-18T10:15:31Z</time>
      </trkpt>
      <trkpt lat="43.76007" lon="3.36829">
        <ele>385.2</ele>
        <time>2026-05-18T10:15:36Z</time>
      </trkpt>
      <trkpt lat="43.76012" lon="3.36834">
        <ele>385.5</ele>
        <time>2026-05-18T10:15:41Z</time>
      </trkpt>
      <trkpt lat="43.76016" lon="3.3684">
        <ele>386.6</ele>
        <time>2026-05-18T10:15:46Z</time>
      </trkpt>
      <trkpt lat="43.76021" lon="3.36845">
        <ele>387.2</ele>
        <time>2026-05-18T10:15:51Z</time>
      </trkpt>
      <trkpt lat="43.76028" lon="3.36848">
        <ele>387.1</ele>
        <time>2026-05-18T10:15:56Z</time>
      </trkpt>
      <trkpt lat="43.76035" lon="3.36853">
        <ele>387.5</ele>
        <time>2026-05-18T10:16:01Z</time>
      </trkpt>
      <trkpt lat="43.7604" lon="3.36854">
        <ele>387.1</ele>
        <time>2026-05-18T10:16:06Z</time>
      </trkpt>
      <trkpt lat="43.76047" lon="3.36858">
        <ele>387.2</ele>
        <time>2026-05-18T10:16:11Z</time>
      </trkpt>
      <trkpt lat="43.76055" lon="3.36863">
        <ele>387.5</ele>
        <time>2026-05-18T10:16:16Z</time>
      </trkpt>
      <trkpt lat="43.7606" lon="3.36868">
        <ele>388.2</ele>
        <time>2026-05-18T10:16:21Z</time>
      </trkpt>
      <trkpt lat="43.76063" lon="3.36874">
        <ele>389.5</ele>
        <time>2026-05-18T10:16:26Z</time>
      </trkpt>
      <trkpt lat="43.76065" lon="3.36873">
        <ele>389</ele>
        <time>2026-05-18T10:16:31Z</time>
      </trkpt>
      <trkpt lat="43.76063" lon="3.36867">
        <ele>387.5</ele>
        <time>2026-05-18T10:16:36Z</time>
      </trkpt>
      <trkpt lat="43.76058" lon="3.36862">
        <ele>386.8</ele>
        <time>2026-05-18T10:16:41Z</time>
      </trkpt>
      <trkpt lat="43.76052" lon="3.36857">
        <ele>386.2</ele>
        <time>2026-05-18T10:16:46Z</time>
      </trkpt>
      <trkpt lat="43.76047" lon="3.3685">
        <ele>384.9</ele>
        <time>2026-05-18T10:16:51Z</time>
      </trkpt>
      <trkpt lat="43.76043" lon="3.36843">
        <ele>383.5</ele>
        <time>2026-05-18T10:16:56Z</time>
      </trkpt>
      <trkpt lat="43.76037" lon="3.36838">
        <ele>383</ele>
        <time>2026-05-18T10:17:01Z</time>
      </trkpt>
      <trkpt lat="43.76033" lon="3.36832">
        <ele>382</ele>
        <time>2026-05-18T10:17:06Z</time>
      </trkpt>
      <trkpt lat="43.76027" lon="3.36823">
        <ele>381.1</ele>
        <time>2026-05-18T10:17:11Z</time>
      </trkpt>
      <trkpt lat="43.76027" lon="3.36816">
        <ele>379.7</ele>
        <time>2026-05-18T10:17:16Z</time>
      </trkpt>
      <trkpt lat="43.76028" lon="3.36812">
        <ele>378.7</ele>
        <time>2026-05-18T10:17:21Z</time>
      </trkpt>
      <trkpt lat="43.76031" lon="3.36813">
        <ele>378.4</ele>
        <time>2026-05-18T10:17:26Z</time>
      </trkpt>
      <trkpt lat="43.76031" lon="3.36813">
        <ele>378.4</ele>
        <time>2026-05-18T10:17:31Z</time>
      </trkpt>
      <trkpt lat="43.76031" lon="3.36813">
        <ele>378.4</ele>
        <time>2026-05-18T10:17:36Z</time>
      </trkpt>
      <trkpt lat="43.76031" lon="3.36813">
        <ele>378.4</ele>
        <time>2026-05-18T10:17:41Z</time>
      </trkpt>
      <trkpt lat="43.76031" lon="3.36813">
        <ele>378.4</ele>
        <time>2026-05-18T10:17:46Z</time>
      </trkpt>
      <trkpt lat="43.76031" lon="3.36813">
        <ele>378.4</ele>
        <time>2026-05-18T10:17:51Z</time>
      </trkpt>
      <trkpt lat="43.76031" lon="3.36813">
        <ele>378.4</ele>
        <time>2026-05-18T10:17:56Z</time>
      </trkpt>
      <trkpt lat="43.76031" lon="3.36813">
        <ele>378.4</ele>
        <time>2026-05-18T10:18:01Z</time>
      </trkpt>
      <trkpt lat="43.76031" lon="3.36813">
        <ele>378.4</ele>
        <time>2026-05-18T10:18:06Z</time>
      </trkpt>
      <trkpt lat="43.76031" lon="3.36813">
        <ele>378.4</ele>
        <time>2026-05-18T10:18:11Z</time>
      </trkpt>
      <trkpt lat="43.76031" lon="3.36813">
        <ele>378.4</ele>
        <time>2026-05-18T10:18:16Z</time>
      </trkpt>
      <trkpt lat="43.76031" lon="3.36813">
        <ele>378.4</ele>
        <time>2026-05-18T10:18:21Z</time>
      </trkpt>
      <trkpt lat="43.76031" lon="3.36813">
        <ele>378.4</ele>
        <time>2026-05-18T10:18:26Z</time>
      </trkpt>
      <trkpt lat="43.76031" lon="3.36813">
        <ele>378.4</ele>
        <time>2026-05-18T10:18:31Z</time>
      </trkpt>
      <trkpt lat="43.76031" lon="3.36813">
        <ele>378.4</ele>
        <time>2026-05-18T10:18:36Z</time>
      </trkpt>
      <trkpt lat="43.76031" lon="3.36813">
        <ele>378.4</ele>
        <time>2026-05-18T10:18:41Z</time>
      </trkpt>
      <trkpt lat="43.76031" lon="3.36813">
        <ele>378.4</ele>
        <time>2026-05-18T10:18:46Z</time>
      </trkpt>
      <trkpt lat="43.76031" lon="3.36813">
        <ele>378.4</ele>
        <time>2026-05-18T10:18:51Z</time>
      </trkpt>
      <trkpt lat="43.76031" lon="3.36813">
        <ele>378.4</ele>
        <time>2026-05-18T10:18:56Z</time>
      </trkpt>
      <trkpt lat="43.76031" lon="3.36813">
        <ele>378.4</ele>
        <time>2026-05-18T10:19:01Z</time>
      </trkpt>
      <trkpt lat="43.76031" lon="3.36813">
        <ele>378.4</ele>
        <time>2026-05-18T10:19:06Z</time>
      </trkpt>
      <trkpt lat="43.76031" lon="3.36813">
        <ele>378.4</ele>
        <time>2026-05-18T10:19:11Z</time>
      </trkpt>
      <trkpt lat="43.76031" lon="3.36813">
        <ele>378.4</ele>
        <time>2026-05-18T10:19:16Z</time>
      </trkpt>
      <trkpt lat="43.76031" lon="3.36813">
        <ele>378.4</ele>
        <time>2026-05-18T10:19:21Z</time>
      </trkpt>
      <trkpt lat="43.76031" lon="3.36813">
        <ele>378.4</ele>
        <time>2026-05-18T10:19:26Z</time>
      </trkpt>
      <trkpt lat="43.76031" lon="3.36813">
        <ele>378.4</ele>
        <time>2026-05-18T10:19:31Z</time>
      </trkpt>
      <trkpt lat="43.76031" lon="3.36813">
        <ele>378.4</ele>
        <time>2026-05-18T10:19:36Z</time>
      </trkpt>
      <trkpt lat="43.76031" lon="3.36813">
        <ele>378.4</ele>
        <time>2026-05-18T10:19:41Z</time>
      </trkpt>
      <trkpt lat="43.76031" lon="3.36813">
        <ele>378.4</ele>
        <time>2026-05-18T10:19:46Z</time>
      </trkpt>
      <trkpt lat="43.76031" lon="3.36813">
        <ele>378.4</ele>
        <time>2026-05-18T10:19:51Z</time>
      </trkpt>
      <trkpt lat="43.76031" lon="3.36813">
        <ele>378.4</ele>
        <time>2026-05-18T10:19:56Z</time>
      </trkpt>
      <trkpt lat="43.76031" lon="3.36813">
        <ele>378.4</ele>
        <time>2026-05-18T10:20:01Z</time>
      </trkpt>
      <trkpt lat="43.76031" lon="3.36813">
        <ele>378.4</ele>
        <time>2026-05-18T10:20:06Z</time>
      </trkpt>
      <trkpt lat="43.76031" lon="3.36813">
        <ele>378.4</ele>
        <time>2026-05-18T10:20:11Z</time>
      </trkpt>
      <trkpt lat="43.76031" lon="3.36813">
        <ele>378.4</ele>
        <time>2026-05-18T10:20:16Z</time>
      </trkpt>
      <trkpt lat="43.76031" lon="3.36813">
        <ele>378.4</ele>
        <time>2026-05-18T10:20:21Z</time>
      </trkpt>
      <trkpt lat="43.76031" lon="3.36813">
        <ele>378.4</ele>
        <time>2026-05-18T10:20:26Z</time>
      </trkpt>
      <trkpt lat="43.76031" lon="3.36813">
        <ele>378.4</ele>
        <time>2026-05-18T10:20:31Z</time>
      </trkpt>
      <trkpt lat="43.76031" lon="3.36813">
        <ele>378.4</ele>
        <time>2026-05-18T10:20:36Z</time>
      </trkpt>
      <trkpt lat="43.76031" lon="3.36813">
        <ele>378.4</ele>
        <time>2026-05-18T10:20:41Z</time>
      </trkpt>
      <trkpt lat="43.76031" lon="3.36813">
        <ele>378.4</ele>
        <time>2026-05-18T10:20:46Z</time>
      </trkpt>
      <trkpt lat="43.76031" lon="3.36813">
        <ele>378.4</ele>
        <time>2026-05-18T10:20:51Z</time>
      </trkpt>
      <trkpt lat="43.76031" lon="3.36813">
        <ele>378.4</ele>
        <time>2026-05-18T10:20:56Z</time>
      </trkpt>
      <trkpt lat="43.76031" lon="3.36813">
        <ele>378.4</ele>
        <time>2026-05-18T10:21:01Z</time>
      </trkpt>
      <trkpt lat="43.76031" lon="3.36813">
        <ele>378.4</ele>
        <time>2026-05-18T10:21:06Z</time>
      </trkpt>
      <trkpt lat="43.76031" lon="3.36813">
        <ele>378.4</ele>
        <time>2026-05-18T10:21:11Z</time>
      </trkpt>
      <trkpt lat="43.76031" lon="3.36813">
        <ele>378.4</ele>
        <time>2026-05-18T10:21:16Z</time>
      </trkpt>
      <trkpt lat="43.76031" lon="3.36813">
        <ele>378.4</ele>
        <time>2026-05-18T10:21:21Z</time>
      </trkpt>
      <trkpt lat="43.76031" lon="3.36813">
        <ele>378.4</ele>
        <time>2026-05-18T10:21:26Z</time>
      </trkpt>
      <trkpt lat="43.76031" lon="3.36813">
        <ele>378.4</ele>
        <time>2026-05-18T10:21:31Z</time>
      </trkpt>
      <trkpt lat="43.76031" lon="3.36813">
        <ele>378.4</ele>
        <time>2026-05-18T10:21:36Z</time>
      </trkpt>
      <trkpt lat="43.76031" lon="3.36813">
        <ele>378.4</ele>
        <time>2026-05-18T10:21:41Z</time>
      </trkpt>
      <trkpt lat="43.76031" lon="3.36813">
        <ele>378.4</ele>
        <time>2026-05-18T10:21:46Z</time>
      </trkpt>
      <trkpt lat="43.76031" lon="3.36813">
        <ele>378.4</ele>
        <time>2026-05-18T10:21:51Z</time>
      </trkpt>
      <trkpt lat="43.76031" lon="3.36813">
        <ele>378.4</ele>
        <time>2026-05-18T10:21:56Z</time>
      </trkpt>
      <trkpt lat="43.76031" lon="3.36813">
        <ele>378.4</ele>
        <time>2026-05-18T10:22:01Z</time>
      </trkpt>
      <trkpt lat="43.76031" lon="3.36813">
        <ele>378.4</ele>
        <time>2026-05-18T10:22:06Z</time>
      </trkpt>
      <trkpt lat="43.76031" lon="3.36813">
        <ele>378.4</ele>
        <time>2026-05-18T10:22:11Z</time>
      </trkpt>
      <trkpt lat="43.76031" lon="3.36813">
        <ele>378.4</ele>
        <time>2026-05-18T10:22:16Z</time>
      </trkpt>
      <trkpt lat="43.76031" lon="3.36813">
        <ele>378.4</ele>
        <time>2026-05-18T10:22:21Z</time>
      </trkpt>
      <trkpt lat="43.76031" lon="3.36813">
        <ele>378.4</ele>
        <time>2026-05-18T10:22:26Z</time>
      </trkpt>
      <trkpt lat="43.76031" lon="3.36813">
        <ele>378.4</ele>
        <time>2026-05-18T10:22:31Z</time>
      </trkpt>
      <trkpt lat="43.76031" lon="3.36813">
        <ele>378.4</ele>
        <time>2026-05-18T10:22:36Z</time>
      </trkpt>
      <trkpt lat="43.76031" lon="3.36813">
        <ele>378.4</ele>
        <time>2026-05-18T10:22:41Z</time>
      </trkpt>
      <trkpt lat="43.76031" lon="3.36813">
        <ele>378.4</ele>
        <time>2026-05-18T10:22:46Z</time>
      </trkpt>
      <trkpt lat="43.76031" lon="3.36813">
        <ele>378.4</ele>
        <time>2026-05-18T10:22:51Z</time>
      </trkpt>
      <trkpt lat="43.76031" lon="3.36813">
        <ele>378.4</ele>
        <time>2026-05-18T10:22:56Z</time>
      </trkpt>
      <trkpt lat="43.76031" lon="3.36813">
        <ele>378.4</ele>
        <time>2026-05-18T10:23:01Z</time>
      </trkpt>
      <trkpt lat="43.76031" lon="3.36813">
        <ele>378.4</ele>
        <time>2026-05-18T10:23:06Z</time>
      </trkpt>
      <trkpt lat="43.76031" lon="3.36813">
        <ele>378.4</ele>
        <time>2026-05-18T10:23:11Z</time>
      </trkpt>
      <trkpt lat="43.76031" lon="3.36813">
        <ele>378.4</ele>
        <time>2026-05-18T10:23:16Z</time>
      </trkpt>
      <trkpt lat="43.76031" lon="3.36813">
        <ele>378.4</ele>
        <time>2026-05-18T10:23:21Z</time>
      </trkpt>
      <trkpt lat="43.76031" lon="3.36813">
        <ele>378.4</ele>
        <time>2026-05-18T10:23:26Z</time>
      </trkpt>
      <trkpt lat="43.76031" lon="3.36813">
        <ele>378.4</ele>
        <time>2026-05-18T10:23:31Z</time>
      </trkpt>
      <trkpt lat="43.76031" lon="3.36813">
        <ele>378.4</ele>
        <time>2026-05-18T10:23:36Z</time>
      </trkpt>
      <trkpt lat="43.76031" lon="3.36813">
        <ele>378.4</ele>
        <time>2026-05-18T10:23:41Z</time>
      </trkpt>
      <trkpt lat="43.76031" lon="3.36813">
        <ele>378.4</ele>
        <time>2026-05-18T10:23:46Z</time>
      </trkpt>
      <trkpt lat="43.76031" lon="3.36813">
        <ele>378.4</ele>
        <time>2026-05-18T10:23:51Z</time>
      </trkpt>
      <trkpt lat="43.76031" lon="3.36813">
        <ele>378.4</ele>
        <time>2026-05-18T10:23:56Z</time>
      </trkpt>
      <trkpt lat="43.76031" lon="3.36813">
        <ele>378.4</ele>
        <time>2026-05-18T10:24:01Z</time>
      </trkpt>
      <trkpt lat="43.76031" lon="3.36813">
        <ele>378.4</ele>
        <time>2026-05-18T10:24:06Z</time>
      </trkpt>
      <trkpt lat="43.76031" lon="3.36813">
        <ele>378.4</ele>
        <time>2026-05-18T10:24:11Z</time>
      </trkpt>
      <trkpt lat="43.76031" lon="3.36813">
        <ele>378.4</ele>
        <time>2026-05-18T10:24:16Z</time>
      </trkpt>
      <trkpt lat="43.76031" lon="3.36813">
        <ele>378.4</ele>
        <time>2026-05-18T10:24:21Z</time>
      </trkpt>
      <trkpt lat="43.76031" lon="3.36813">
        <ele>378.4</ele>
        <time>2026-05-18T10:24:26Z</time>
      </trkpt>
      <trkpt lat="43.76031" lon="3.36813">
        <ele>378.4</ele>
        <time>2026-05-18T10:24:31Z</time>
      </trkpt>
      <trkpt lat="43.76031" lon="3.36813">
        <ele>378.4</ele>
        <time>2026-05-18T10:24:36Z</time>
      </trkpt>
      <trkpt lat="43.76031" lon="3.36813">
        <ele>378.4</ele>
        <time>2026-05-18T10:24:41Z</time>
      </trkpt>
      <trkpt lat="43.76031" lon="3.36813">
        <ele>378.4</ele>
        <time>2026-05-18T10:24:46Z</time>
      </trkpt>
      <trkpt lat="43.76031" lon="3.36813">
        <ele>378.4</ele>
        <time>2026-05-18T10:24:51Z</time>
      </trkpt>
      <trkpt lat="43.76031" lon="3.36813">
        <ele>378.4</ele>
        <time>2026-05-18T10:24:56Z</time>
      </trkpt>
      <trkpt lat="43.76031" lon="3.36813">
        <ele>378.4</ele>
        <time>2026-05-18T10:25:01Z</time>
      </trkpt>
      <trkpt lat="43.76031" lon="3.36813">
        <ele>378.4</ele>
        <time>2026-05-18T10:25:06Z</time>
      </trkpt>
      <trkpt lat="43.76031" lon="3.36813">
        <ele>378.4</ele>
        <time>2026-05-18T10:25:11Z</time>
      </trkpt>
      <trkpt lat="43.76031" lon="3.36813">
        <ele>378.4</ele>
        <time>2026-05-18T10:25:16Z</time>
      </trkpt>
      <trkpt lat="43.76031" lon="3.36813">
        <ele>378.4</ele>
        <time>2026-05-18T10:25:21Z</time>
      </trkpt>
      <trkpt lat="43.76031" lon="3.36813">
        <ele>378.4</ele>
        <time>2026-05-18T10:25:26Z</time>
      </trkpt>
      <trkpt lat="43.76031" lon="3.36813">
        <ele>378.4</ele>
        <time>2026-05-18T10:25:31Z</time>
      </trkpt>
      <trkpt lat="43.76031" lon="3.36813">
        <ele>378.4</ele>
        <time>2026-05-18T10:25:36Z</time>
      </trkpt>
      <trkpt lat="43.76031" lon="3.36813">
        <ele>378.4</ele>
        <time>2026-05-18T10:25:41Z</time>
      </trkpt>
      <trkpt lat="43.76031" lon="3.36813">
        <ele>378.4</ele>
        <time>2026-05-18T10:25:46Z</time>
      </trkpt>
      <trkpt lat="43.76031" lon="3.36813">
        <ele>378.4</ele>
        <time>2026-05-18T10:25:51Z</time>
      </trkpt>
      <trkpt lat="43.76031" lon="3.36813">
        <ele>378.4</ele>
        <time>2026-05-18T10:25:56Z</time>
      </trkpt>
      <trkpt lat="43.76031" lon="3.36813">
        <ele>378.4</ele>
        <time>2026-05-18T10:26:01Z</time>
      </trkpt>
      <trkpt lat="43.76031" lon="3.36813">
        <ele>378.4</ele>
        <time>2026-05-18T10:26:06Z</time>
      </trkpt>
      <trkpt lat="43.76031" lon="3.36813">
        <ele>378.4</ele>
        <time>2026-05-18T10:26:11Z</time>
      </trkpt>
      <trkpt lat="43.76031" lon="3.36813">
        <ele>378.4</ele>
        <time>2026-05-18T10:26:16Z</time>
      </trkpt>
      <trkpt lat="43.76031" lon="3.36813">
        <ele>378.4</ele>
        <time>2026-05-18T10:26:21Z</time>
      </trkpt>
      <trkpt lat="43.76031" lon="3.36813">
        <ele>378.4</ele>
        <time>2026-05-18T10:26:26Z</time>
      </trkpt>
      <trkpt lat="43.76031" lon="3.36813">
        <ele>378.4</ele>
        <time>2026-05-18T10:26:31Z</time>
      </trkpt>
      <trkpt lat="43.76031" lon="3.36813">
        <ele>378.4</ele>
        <time>2026-05-18T10:26:36Z</time>
      </trkpt>
      <trkpt lat="43.76031" lon="3.36813">
        <ele>378.4</ele>
        <time>2026-05-18T10:26:41Z</time>
      </trkpt>
      <trkpt lat="43.76031" lon="3.36813">
        <ele>378.4</ele>
        <time>2026-05-18T10:26:46Z</time>
      </trkpt>
      <trkpt lat="43.76031" lon="3.36813">
        <ele>378.4</ele>
        <time>2026-05-18T10:26:51Z</time>
      </trkpt>
      <trkpt lat="43.76031" lon="3.36813">
        <ele>378.4</ele>
        <time>2026-05-18T10:26:56Z</time>
      </trkpt>
      <trkpt lat="43.76031" lon="3.36813">
        <ele>378.4</ele>
        <time>2026-05-18T10:27:01Z</time>
      </trkpt>
      <trkpt lat="43.76031" lon="3.36813">
        <ele>378.4</ele>
        <time>2026-05-18T10:27:06Z</time>
      </trkpt>
      <trkpt lat="43.76031" lon="3.36813">
        <ele>378.4</ele>
        <time>2026-05-18T10:27:11Z</time>
      </trkpt>
      <trkpt lat="43.76031" lon="3.36813">
        <ele>378.4</ele>
        <time>2026-05-18T10:27:16Z</time>
      </trkpt>
      <trkpt lat="43.76031" lon="3.36813">
        <ele>378.4</ele>
        <time>2026-05-18T10:27:21Z</time>
      </trkpt>
      <trkpt lat="43.76031" lon="3.36813">
        <ele>378.4</ele>
        <time>2026-05-18T10:27:26Z</time>
      </trkpt>
      <trkpt lat="43.76031" lon="3.36813">
        <ele>378.4</ele>
        <time>2026-05-18T10:27:31Z</time>
      </trkpt>
      <trkpt lat="43.76031" lon="3.36813">
        <ele>378.4</ele>
        <time>2026-05-18T10:27:36Z</time>
      </trkpt>
      <trkpt lat="43.76031" lon="3.36813">
        <ele>378.4</ele>
        <time>2026-05-18T10:27:41Z</time>
      </trkpt>
      <trkpt lat="43.76031" lon="3.36813">
        <ele>378.4</ele>
        <time>2026-05-18T10:27:46Z</time>
      </trkpt>
      <trkpt lat="43.76031" lon="3.36813">
        <ele>378.4</ele>
        <time>2026-05-18T10:27:51Z</time>
      </trkpt>
      <trkpt lat="43.76031" lon="3.36813">
        <ele>378.4</ele>
        <time>2026-05-18T10:27:56Z</time>
      </trkpt>
      <trkpt lat="43.76031" lon="3.36813">
        <ele>378.4</ele>
        <time>2026-05-18T10:28:01Z</time>
      </trkpt>
      <trkpt lat="43.76031" lon="3.36813">
        <ele>378.4</ele>
        <time>2026-05-18T10:28:06Z</time>
      </trkpt>
      <trkpt lat="43.76031" lon="3.36813">
        <ele>378.4</ele>
        <time>2026-05-18T10:28:11Z</time>
      </trkpt>
      <trkpt lat="43.76031" lon="3.36813">
        <ele>378.4</ele>
        <time>2026-05-18T10:28:16Z</time>
      </trkpt>
      <trkpt lat="43.76031" lon="3.36813">
        <ele>378.4</ele>
        <time>2026-05-18T10:28:21Z</time>
      </trkpt>
      <trkpt lat="43.76031" lon="3.36813">
        <ele>378.4</ele>
        <time>2026-05-18T10:28:26Z</time>
      </trkpt>
      <trkpt lat="43.76031" lon="3.36813">
        <ele>378.4</ele>
        <time>2026-05-18T10:28:31Z</time>
      </trkpt>
      <trkpt lat="43.76031" lon="3.36813">
        <ele>378.4</ele>
        <time>2026-05-18T10:28:36Z</time>
      </trkpt>
      <trkpt lat="43.76031" lon="3.36813">
        <ele>378.4</ele>
        <time>2026-05-18T10:28:41Z</time>
      </trkpt>
      <trkpt lat="43.76031" lon="3.36813">
        <ele>378.4</ele>
        <time>2026-05-18T10:28:46Z</time>
      </trkpt>
      <trkpt lat="43.76031" lon="3.36813">
        <ele>378.4</ele>
        <time>2026-05-18T10:28:51Z</time>
      </trkpt>
      <trkpt lat="43.76031" lon="3.36813">
        <ele>378.4</ele>
        <time>2026-05-18T10:28:56Z</time>
      </trkpt>
      <trkpt lat="43.76031" lon="3.36813">
        <ele>378.4</ele>
        <time>2026-05-18T10:29:01Z</time>
      </trkpt>
      <trkpt lat="43.76031" lon="3.36813">
        <ele>378.4</ele>
        <time>2026-05-18T10:29:06Z</time>
      </trkpt>
      <trkpt lat="43.76031" lon="3.36813">
        <ele>378.4</ele>
        <time>2026-05-18T10:29:11Z</time>
      </trkpt>
      <trkpt lat="43.76031" lon="3.36813">
        <ele>378.4</ele>
        <time>2026-05-18T10:29:16Z</time>
      </trkpt>
      <trkpt lat="43.76031" lon="3.36813">
        <ele>378.4</ele>
        <time>2026-05-18T10:29:21Z</time>
      </trkpt>
      <trkpt lat="43.76031" lon="3.36813">
        <ele>378.4</ele>
        <time>2026-05-18T10:29:26Z</time>
      </trkpt>
      <trkpt lat="43.76031" lon="3.36813">
        <ele>378.4</ele>
        <time>2026-05-18T10:29:31Z</time>
      </trkpt>
      <trkpt lat="43.76031" lon="3.36813">
        <ele>378.4</ele>
        <time>2026-05-18T10:29:36Z</time>
      </trkpt>
      <trkpt lat="43.76031" lon="3.36813">
        <ele>378.4</ele>
        <time>2026-05-18T10:29:41Z</time>
      </trkpt>
      <trkpt lat="43.76031" lon="3.36813">
        <ele>378.4</ele>
        <time>2026-05-18T10:29:46Z</time>
      </trkpt>
      <trkpt lat="43.76031" lon="3.36813">
        <ele>378.4</ele>
        <time>2026-05-18T10:29:51Z</time>
      </trkpt>
      <trkpt lat="43.76031" lon="3.36813">
        <ele>378.4</ele>
        <time>2026-05-18T10:29:56Z</time>
      </trkpt>
      <trkpt lat="43.76031" lon="3.36813">
        <ele>378.4</ele>
        <time>2026-05-18T10:30:01Z</time>
      </trkpt>
      <trkpt lat="43.76031" lon="3.36813">
        <ele>378.4</ele>
        <time>2026-05-18T10:30:06Z</time>
      </trkpt>
      <trkpt lat="43.76031" lon="3.36813">
        <ele>378.4</ele>
        <time>2026-05-18T10:30:11Z</time>
      </trkpt>
      <trkpt lat="43.76031" lon="3.36813">
        <ele>378.4</ele>
        <time>2026-05-18T10:30:16Z</time>
      </trkpt>
      <trkpt lat="43.76031" lon="3.36813">
        <ele>378.4</ele>
        <time>2026-05-18T10:30:21Z</time>
      </trkpt>
      <trkpt lat="43.76031" lon="3.36813">
        <ele>378.4</ele>
        <time>2026-05-18T10:30:26Z</time>
      </trkpt>
      <trkpt lat="43.76031" lon="3.36813">
        <ele>378.4</ele>
        <time>2026-05-18T10:30:31Z</time>
      </trkpt>
      <trkpt lat="43.76031" lon="3.36813">
        <ele>378.4</ele>
        <time>2026-05-18T10:30:36Z</time>
      </trkpt>
      <trkpt lat="43.76031" lon="3.36813">
        <ele>378.4</ele>
        <time>2026-05-18T10:30:41Z</time>
      </trkpt>
      <trkpt lat="43.76031" lon="3.36813">
        <ele>378.4</ele>
        <time>2026-05-18T10:30:46Z</time>
      </trkpt>
      <trkpt lat="43.76031" lon="3.36813">
        <ele>378.4</ele>
        <time>2026-05-18T10:30:51Z</time>
      </trkpt>
      <trkpt lat="43.76031" lon="3.36813">
        <ele>378.4</ele>
        <time>2026-05-18T10:30:56Z</time>
      </trkpt>
      <trkpt lat="43.76031" lon="3.36813">
        <ele>378.4</ele>
        <time>2026-05-18T10:31:01Z</time>
      </trkpt>
      <trkpt lat="43.76031" lon="3.36813">
        <ele>378.4</ele>
        <time>2026-05-18T10:31:06Z</time>
      </trkpt>
      <trkpt lat="43.76031" lon="3.36813">
        <ele>378.4</ele>
        <time>2026-05-18T10:31:11Z</time>
      </trkpt>
      <trkpt lat="43.76031" lon="3.36813">
        <ele>378.4</ele>
        <time>2026-05-18T10:31:16Z</time>
      </trkpt>
      <trkpt lat="43.76031" lon="3.36813">
        <ele>378.4</ele>
        <time>2026-05-18T10:31:21Z</time>
      </trkpt>
      <trkpt lat="43.76031" lon="3.36813">
        <ele>378.4</ele>
        <time>2026-05-18T10:31:26Z</time>
      </trkpt>
      <trkpt lat="43.76031" lon="3.36813">
        <ele>378.4</ele>
        <time>2026-05-18T10:31:31Z</time>
      </trkpt>
      <trkpt lat="43.76031" lon="3.36813">
        <ele>378.4</ele>
        <time>2026-05-18T10:31:36Z</time>
      </trkpt>
      <trkpt lat="43.76031" lon="3.36813">
        <ele>378.4</ele>
        <time>2026-05-18T10:31:41Z</time>
      </trkpt>
      <trkpt lat="43.76031" lon="3.36813">
        <ele>378.4</ele>
        <time>2026-05-18T10:31:46Z</time>
      </trkpt>
      <trkpt lat="43.76031" lon="3.36813">
        <ele>378.4</ele>
        <time>2026-05-18T10:31:51Z</time>
      </trkpt>
      <trkpt lat="43.76031" lon="3.36813">
        <ele>378.4</ele>
        <time>2026-05-18T10:31:56Z</time>
      </trkpt>
      <trkpt lat="43.76031" lon="3.36813">
        <ele>378.4</ele>
        <time>2026-05-18T10:32:01Z</time>
      </trkpt>
      <trkpt lat="43.76031" lon="3.36813">
        <ele>378.4</ele>
        <time>2026-05-18T10:32:06Z</time>
      </trkpt>
      <trkpt lat="43.76031" lon="3.36813">
        <ele>378.4</ele>
        <time>2026-05-18T10:32:11Z</time>
      </trkpt>
      <trkpt lat="43.76031" lon="3.36813">
        <ele>378.4</ele>
        <time>2026-05-18T10:32:16Z</time>
      </trkpt>
      <trkpt lat="43.76031" lon="3.36813">
        <ele>378.4</ele>
        <time>2026-05-18T10:32:21Z</time>
      </trkpt>
      <trkpt lat="43.76031" lon="3.36813">
        <ele>378.4</ele>
        <time>2026-05-18T10:32:26Z</time>
      </trkpt>
      <trkpt lat="43.76031" lon="3.36813">
        <ele>378.4</ele>
        <time>2026-05-18T10:32:31Z</time>
      </trkpt>
      <trkpt lat="43.76031" lon="3.36813">
        <ele>378.4</ele>
        <time>2026-05-18T10:32:36Z</time>
      </trkpt>
      <trkpt lat="43.76031" lon="3.36813">
        <ele>378.4</ele>
        <time>2026-05-18T10:32:41Z</time>
      </trkpt>
      <trkpt lat="43.76031" lon="3.36813">
        <ele>378.4</ele>
        <time>2026-05-18T10:32:46Z</time>
      </trkpt>
      <trkpt lat="43.76031" lon="3.36813">
        <ele>378.4</ele>
        <time>2026-05-18T10:32:51Z</time>
      </trkpt>
      <trkpt lat="43.76031" lon="3.36813">
        <ele>378.4</ele>
        <time>2026-05-18T10:32:56Z</time>
      </trkpt>
      <trkpt lat="43.76031" lon="3.36813">
        <ele>378.4</ele>
        <time>2026-05-18T10:33:01Z</time>
      </trkpt>
      <trkpt lat="43.76031" lon="3.36813">
        <ele>378.4</ele>
        <time>2026-05-18T10:33:06Z</time>
      </trkpt>
      <trkpt lat="43.76031" lon="3.36813">
        <ele>378.4</ele>
        <time>2026-05-18T10:33:11Z</time>
      </trkpt>
      <trkpt lat="43.76031" lon="3.36813">
        <ele>378.4</ele>
        <time>2026-05-18T10:33:16Z</time>
      </trkpt>
      <trkpt lat="43.76031" lon="3.36813">
        <ele>378.4</ele>
        <time>2026-05-18T10:33:21Z</time>
      </trkpt>
      <trkpt lat="43.76031" lon="3.36813">
        <ele>378.4</ele>
        <time>2026-05-18T10:33:26Z</time>
      </trkpt>
      <trkpt lat="43.76031" lon="3.36813">
        <ele>378.4</ele>
        <time>2026-05-18T10:33:31Z</time>
      </trkpt>
      <trkpt lat="43.76031" lon="3.36813">
        <ele>378.4</ele>
        <time>2026-05-18T10:33:36Z</time>
      </trkpt>
      <trkpt lat="43.76031" lon="3.36813">
        <ele>378.4</ele>
        <time>2026-05-18T10:33:41Z</time>
      </trkpt>
      <trkpt lat="43.76031" lon="3.36813">
        <ele>378.4</ele>
        <time>2026-05-18T10:33:46Z</time>
      </trkpt>
      <trkpt lat="43.76031" lon="3.36813">
        <ele>378.4</ele>
        <time>2026-05-18T10:33:51Z</time>
      </trkpt>
      <trkpt lat="43.76031" lon="3.36813">
        <ele>378.4</ele>
        <time>2026-05-18T10:33:56Z</time>
      </trkpt>
      <trkpt lat="43.76031" lon="3.36813">
        <ele>378.4</ele>
        <time>2026-05-18T10:34:01Z</time>
      </trkpt>
      <trkpt lat="43.76031" lon="3.36813">
        <ele>378.4</ele>
        <time>2026-05-18T10:34:06Z</time>
      </trkpt>
      <trkpt lat="43.76031" lon="3.36813">
        <ele>378.4</ele>
        <time>2026-05-18T10:34:11Z</time>
      </trkpt>
      <trkpt lat="43.76031" lon="3.36813">
        <ele>378.4</ele>
        <time>2026-05-18T10:34:16Z</time>
      </trkpt>
      <trkpt lat="43.76031" lon="3.36813">
        <ele>378.4</ele>
        <time>2026-05-18T10:34:21Z</time>
      </trkpt>
      <trkpt lat="43.76031" lon="3.36813">
        <ele>378.4</ele>
        <time>2026-05-18T10:34:26Z</time>
      </trkpt>
      <trkpt lat="43.76031" lon="3.36813">
        <ele>378.4</ele>
        <time>2026-05-18T10:34:31Z</time>
      </trkpt>
      <trkpt lat="43.76031" lon="3.36813">
        <ele>378.4</ele>
        <time>2026-05-18T10:34:36Z</time>
      </trkpt>
      <trkpt lat="43.76031" lon="3.36813">
        <ele>378.4</ele>
        <time>2026-05-18T10:34:41Z</time>
      </trkpt>
      <trkpt lat="43.76031" lon="3.36813">
        <ele>378.4</ele>
        <time>2026-05-18T10:34:46Z</time>
      </trkpt>
      <trkpt lat="43.76031" lon="3.36813">
        <ele>378.4</ele>
        <time>2026-05-18T10:34:51Z</time>
      </trkpt>
      <trkpt lat="43.76031" lon="3.36813">
        <ele>378.4</ele>
        <time>2026-05-18T10:34:56Z</time>
      </trkpt>
      <trkpt lat="43.76031" lon="3.36813">
        <ele>378.4</ele>
        <time>2026-05-18T10:35:01Z</time>
      </trkpt>
      <trkpt lat="43.76031" lon="3.36813">
        <ele>378.4</ele>
        <time>2026-05-18T10:35:06Z</time>
      </trkpt>
      <trkpt lat="43.76031" lon="3.36813">
        <ele>378.4</ele>
        <time>2026-05-18T10:35:11Z</time>
      </trkpt>
      <trkpt lat="43.76031" lon="3.36813">
        <ele>378.4</ele>
        <time>2026-05-18T10:35:16Z</time>
      </trkpt>
      <trkpt lat="43.76031" lon="3.36813">
        <ele>378.4</ele>
        <time>2026-05-18T10:35:21Z</time>
      </trkpt>
      <trkpt lat="43.76031" lon="3.36813">
        <ele>378.4</ele>
        <time>2026-05-18T10:35:26Z</time>
      </trkpt>
      <trkpt lat="43.76031" lon="3.36813">
        <ele>378.4</ele>
        <time>2026-05-18T10:35:31Z</time>
      </trkpt>
      <trkpt lat="43.76031" lon="3.36813">
        <ele>378.4</ele>
        <time>2026-05-18T10:35:36Z</time>
      </trkpt>
      <trkpt lat="43.76031" lon="3.36813">
        <ele>378.4</ele>
        <time>2026-05-18T10:35:41Z</time>
      </trkpt>
      <trkpt lat="43.76031" lon="3.36813">
        <ele>378.4</ele>
        <time>2026-05-18T10:35:46Z</time>
      </trkpt>
      <trkpt lat="43.76031" lon="3.36813">
        <ele>378.4</ele>
        <time>2026-05-18T10:35:51Z</time>
      </trkpt>
      <trkpt lat="43.76031" lon="3.36813">
        <ele>378.4</ele>
        <time>2026-05-18T10:35:56Z</time>
      </trkpt>
      <trkpt lat="43.76031" lon="3.36813">
        <ele>378.4</ele>
        <time>2026-05-18T10:36:01Z</time>
      </trkpt>
      <trkpt lat="43.76031" lon="3.36813">
        <ele>378.4</ele>
        <time>2026-05-18T10:36:06Z</time>
      </trkpt>
      <trkpt lat="43.76031" lon="3.36813">
        <ele>378.4</ele>
        <time>2026-05-18T10:36:11Z</time>
      </trkpt>
      <trkpt lat="43.76031" lon="3.36813">
        <ele>378.4</ele>
        <time>2026-05-18T10:36:16Z</time>
      </trkpt>
      <trkpt lat="43.76031" lon="3.36813">
        <ele>378.4</ele>
        <time>2026-05-18T10:36:21Z</time>
      </trkpt>
      <trkpt lat="43.76031" lon="3.36813">
        <ele>378.4</ele>
        <time>2026-05-18T10:36:26Z</time>
      </trkpt>
      <trkpt lat="43.76031" lon="3.36813">
        <ele>378.4</ele>
        <time>2026-05-18T10:36:31Z</time>
      </trkpt>
      <trkpt lat="43.76031" lon="3.36813">
        <ele>378.4</ele>
        <time>2026-05-18T10:36:36Z</time>
      </trkpt>
      <trkpt lat="43.76031" lon="3.36813">
        <ele>378.4</ele>
        <time>2026-05-18T10:36:41Z</time>
      </trkpt>
      <trkpt lat="43.76031" lon="3.36813">
        <ele>378.4</ele>
        <time>2026-05-18T10:36:46Z</time>
      </trkpt>
      <trkpt lat="43.76031" lon="3.36813">
        <ele>378.4</ele>
        <time>2026-05-18T10:36:51Z</time>
      </trkpt>
      <trkpt lat="43.76031" lon="3.36813">
        <ele>378.4</ele>
        <time>2026-05-18T10:36:56Z</time>
      </trkpt>
      <trkpt lat="43.76031" lon="3.36813">
        <ele>378.4</ele>
        <time>2026-05-18T10:37:01Z</time>
      </trkpt>
      <trkpt lat="43.76031" lon="3.36813">
        <ele>378.4</ele>
        <time>2026-05-18T10:37:06Z</time>
      </trkpt>
      <trkpt lat="43.76031" lon="3.36813">
        <ele>378.4</ele>
        <time>2026-05-18T10:37:11Z</time>
      </trkpt>
      <trkpt lat="43.76031" lon="3.36813">
        <ele>378.4</ele>
        <time>2026-05-18T10:37:16Z</time>
      </trkpt>
      <trkpt lat="43.76031" lon="3.36813">
        <ele>378.4</ele>
        <time>2026-05-18T10:37:21Z</time>
      </trkpt>
      <trkpt lat="43.76031" lon="3.36813">
        <ele>378.4</ele>
        <time>2026-05-18T10:37:26Z</time>
      </trkpt>
      <trkpt lat="43.76031" lon="3.36813">
        <ele>378.4</ele>
        <time>2026-05-18T10:37:31Z</time>
      </trkpt>
      <trkpt lat="43.76031" lon="3.36813">
        <ele>378.4</ele>
        <time>2026-05-18T10:37:36Z</time>
      </trkpt>
      <trkpt lat="43.76031" lon="3.36813">
        <ele>378.4</ele>
        <time>2026-05-18T10:37:41Z</time>
      </trkpt>
      <trkpt lat="43.76031" lon="3.36813">
        <ele>378.4</ele>
        <time>2026-05-18T10:37:46Z</time>
      </trkpt>
      <trkpt lat="43.76031" lon="3.36813">
        <ele>378.4</ele>
        <time>2026-05-18T10:37:51Z</time>
      </trkpt>
      <trkpt lat="43.76031" lon="3.36813">
        <ele>378.4</ele>
        <time>2026-05-18T10:37:56Z</time>
      </trkpt>
      <trkpt lat="43.76031" lon="3.36813">
        <ele>378.4</ele>
        <time>2026-05-18T10:38:01Z</time>
      </trkpt>
      <trkpt lat="43.76031" lon="3.36813">
        <ele>378.4</ele>
        <time>2026-05-18T10:38:06Z</time>
      </trkpt>
      <trkpt lat="43.76031" lon="3.36813">
        <ele>378.4</ele>
        <time>2026-05-18T10:38:11Z</time>
      </trkpt>
      <trkpt lat="43.76031" lon="3.36813">
        <ele>378.4</ele>
        <time>2026-05-18T10:38:16Z</time>
      </trkpt>
      <trkpt lat="43.76031" lon="3.36813">
        <ele>378.4</ele>
        <time>2026-05-18T10:38:21Z</time>
      </trkpt>
      <trkpt lat="43.76031" lon="3.36813">
        <ele>378.4</ele>
        <time>2026-05-18T10:38:26Z</time>
      </trkpt>
      <trkpt lat="43.76031" lon="3.36813">
        <ele>378.4</ele>
        <time>2026-05-18T10:38:31Z</time>
      </trkpt>
      <trkpt lat="43.76031" lon="3.36813">
        <ele>378.4</ele>
        <time>2026-05-18T10:38:36Z</time>
      </trkpt>
      <trkpt lat="43.76031" lon="3.36813">
        <ele>378.4</ele>
        <time>2026-05-18T10:38:41Z</time>
      </trkpt>
      <trkpt lat="43.76031" lon="3.36813">
        <ele>378.4</ele>
        <time>2026-05-18T10:38:46Z</time>
      </trkpt>
      <trkpt lat="43.76031" lon="3.36813">
        <ele>378.4</ele>
        <time>2026-05-18T10:38:51Z</time>
      </trkpt>
      <trkpt lat="43.76031" lon="3.36813">
        <ele>378.4</ele>
        <time>2026-05-18T10:38:56Z</time>
      </trkpt>
      <trkpt lat="43.76031" lon="3.36813">
        <ele>378.4</ele>
        <time>2026-05-18T10:39:01Z</time>
      </trkpt>
      <trkpt lat="43.76031" lon="3.36813">
        <ele>378.4</ele>
        <time>2026-05-18T10:39:06Z</time>
      </trkpt>
      <trkpt lat="43.76031" lon="3.36813">
        <ele>378.4</ele>
        <time>2026-05-18T10:39:11Z</time>
      </trkpt>
      <trkpt lat="43.76031" lon="3.36813">
        <ele>378.4</ele>
        <time>2026-05-18T10:39:16Z</time>
      </trkpt>
      <trkpt lat="43.76031" lon="3.36813">
        <ele>378.4</ele>
        <time>2026-05-18T10:39:21Z</time>
      </trkpt>
      <trkpt lat="43.76031" lon="3.36813">
        <ele>378.4</ele>
        <time>2026-05-18T10:39:26Z</time>
      </trkpt>
      <trkpt lat="43.76031" lon="3.36813">
        <ele>378.4</ele>
        <time>2026-05-18T10:39:31Z</time>
      </trkpt>
      <trkpt lat="43.76031" lon="3.36813">
        <ele>378.4</ele>
        <time>2026-05-18T10:39:36Z</time>
      </trkpt>
      <trkpt lat="43.76031" lon="3.36813">
        <ele>378.4</ele>
        <time>2026-05-18T10:39:41Z</time>
      </trkpt>
      <trkpt lat="43.76031" lon="3.36813">
        <ele>378.4</ele>
        <time>2026-05-18T10:39:46Z</time>
      </trkpt>
      <trkpt lat="43.76031" lon="3.36813">
        <ele>378.4</ele>
        <time>2026-05-18T10:39:51Z</time>
      </trkpt>
      <trkpt lat="43.76031" lon="3.36813">
        <ele>378.4</ele>
        <time>2026-05-18T10:39:56Z</time>
      </trkpt>
      <trkpt lat="43.76031" lon="3.36813">
        <ele>378.4</ele>
        <time>2026-05-18T10:40:01Z</time>
      </trkpt>
      <trkpt lat="43.76031" lon="3.36813">
        <ele>378.4</ele>
        <time>2026-05-18T10:40:06Z</time>
      </trkpt>
      <trkpt lat="43.76031" lon="3.36813">
        <ele>378.4</ele>
        <time>2026-05-18T10:40:11Z</time>
      </trkpt>
      <trkpt lat="43.76031" lon="3.36813">
        <ele>378.4</ele>
        <time>2026-05-18T10:40:16Z</time>
      </trkpt>
      <trkpt lat="43.76031" lon="3.36813">
        <ele>378.4</ele>
        <time>2026-05-18T10:40:21Z</time>
      </trkpt>
      <trkpt lat="43.76031" lon="3.36813">
        <ele>378.4</ele>
        <time>2026-05-18T10:40:26Z</time>
      </trkpt>
      <trkpt lat="43.76031" lon="3.36813">
        <ele>378.4</ele>
        <time>2026-05-18T10:40:31Z</time>
      </trkpt>
      <trkpt lat="43.76031" lon="3.36813">
        <ele>378.4</ele>
        <time>2026-05-18T10:40:36Z</time>
      </trkpt>
      <trkpt lat="43.76031" lon="3.36813">
        <ele>378.4</ele>
        <time>2026-05-18T10:40:41Z</time>
      </trkpt>
      <trkpt lat="43.76031" lon="3.36813">
        <ele>378.4</ele>
        <time>2026-05-18T10:40:46Z</time>
      </trkpt>
      <trkpt lat="43.76031" lon="3.36813">
        <ele>378.4</ele>
        <time>2026-05-18T10:40:51Z</time>
      </trkpt>
      <trkpt lat="43.76031" lon="3.36813">
        <ele>378.4</ele>
        <time>2026-05-18T10:40:56Z</time>
      </trkpt>
      <trkpt lat="43.76031" lon="3.36813">
        <ele>378.4</ele>
        <time>2026-05-18T10:41:01Z</time>
      </trkpt>
      <trkpt lat="43.76031" lon="3.36813">
        <ele>378.4</ele>
        <time>2026-05-18T10:41:06Z</time>
      </trkpt>
      <trkpt lat="43.76036" lon="3.36802">
        <ele>375.3</ele>
        <time>2026-05-18T10:41:11Z</time>
      </trkpt>
      <trkpt lat="43.76032" lon="3.36792">
        <ele>373.9</ele>
        <time>2026-05-18T10:41:16Z</time>
      </trkpt>
      <trkpt lat="43.76027" lon="3.36786">
        <ele>373.7</ele>
        <time>2026-05-18T10:41:21Z</time>
      </trkpt>
      <trkpt lat="43.76023" lon="3.36779">
        <ele>373.1</ele>
        <time>2026-05-18T10:41:26Z</time>
      </trkpt>
      <trkpt lat="43.76022" lon="3.36773">
        <ele>372.2</ele>
        <time>2026-05-18T10:41:31Z</time>
      </trkpt>
      <trkpt lat="43.76023" lon="3.36766">
        <ele>370.6</ele>
        <time>2026-05-18T10:41:36Z</time>
      </trkpt>
      <trkpt lat="43.76023" lon="3.36759">
        <ele>369.2</ele>
        <time>2026-05-18T10:41:41Z</time>
      </trkpt>
      <trkpt lat="43.76021" lon="3.36758">
        <ele>369.5</ele>
        <time>2026-05-18T10:41:46Z</time>
      </trkpt>
      <trkpt lat="43.7602" lon="3.36759">
        <ele>369.9</ele>
        <time>2026-05-18T10:41:51Z</time>
      </trkpt>
      <trkpt lat="43.7602" lon="3.36759">
        <ele>369.9</ele>
        <time>2026-05-18T10:41:56Z</time>
      </trkpt>
      <trkpt lat="43.7602" lon="3.36759">
        <ele>369.9</ele>
        <time>2026-05-18T10:42:01Z</time>
      </trkpt>
      <trkpt lat="43.7602" lon="3.36759">
        <ele>369.9</ele>
        <time>2026-05-18T10:42:06Z</time>
      </trkpt>
      <trkpt lat="43.7602" lon="3.36759">
        <ele>369.9</ele>
        <time>2026-05-18T10:42:11Z</time>
      </trkpt>
      <trkpt lat="43.7602" lon="3.36759">
        <ele>369.9</ele>
        <time>2026-05-18T10:42:16Z</time>
      </trkpt>
      <trkpt lat="43.7602" lon="3.36759">
        <ele>369.9</ele>
        <time>2026-05-18T10:42:21Z</time>
      </trkpt>
      <trkpt lat="43.7602" lon="3.36759">
        <ele>369.9</ele>
        <time>2026-05-18T10:42:26Z</time>
      </trkpt>
      <trkpt lat="43.7602" lon="3.36759">
        <ele>369.9</ele>
        <time>2026-05-18T10:42:31Z</time>
      </trkpt>
      <trkpt lat="43.76012" lon="3.36755">
        <ele>371</ele>
        <time>2026-05-18T10:42:36Z</time>
      </trkpt>
      <trkpt lat="43.76011" lon="3.36755">
        <ele>371.3</ele>
        <time>2026-05-18T10:42:41Z</time>
      </trkpt>
      <trkpt lat="43.76011" lon="3.36755">
        <ele>371.3</ele>
        <time>2026-05-18T10:42:46Z</time>
      </trkpt>
      <trkpt lat="43.76011" lon="3.36755">
        <ele>371.3</ele>
        <time>2026-05-18T10:42:51Z</time>
      </trkpt>
      <trkpt lat="43.76011" lon="3.36755">
        <ele>371.3</ele>
        <time>2026-05-18T10:42:56Z</time>
      </trkpt>
      <trkpt lat="43.76011" lon="3.36755">
        <ele>371.3</ele>
        <time>2026-05-18T10:43:01Z</time>
      </trkpt>
      <trkpt lat="43.76011" lon="3.36755">
        <ele>371.3</ele>
        <time>2026-05-18T10:43:06Z</time>
      </trkpt>
      <trkpt lat="43.76011" lon="3.36755">
        <ele>371.3</ele>
        <time>2026-05-18T10:43:11Z</time>
      </trkpt>
      <trkpt lat="43.76011" lon="3.36755">
        <ele>371.3</ele>
        <time>2026-05-18T10:43:16Z</time>
      </trkpt>
      <trkpt lat="43.76011" lon="3.36755">
        <ele>371.3</ele>
        <time>2026-05-18T10:43:21Z</time>
      </trkpt>
      <trkpt lat="43.76011" lon="3.36755">
        <ele>371.3</ele>
        <time>2026-05-18T10:43:26Z</time>
      </trkpt>
      <trkpt lat="43.76011" lon="3.36755">
        <ele>371.3</ele>
        <time>2026-05-18T10:43:31Z</time>
      </trkpt>
      <trkpt lat="43.76011" lon="3.36755">
        <ele>371.3</ele>
        <time>2026-05-18T10:43:36Z</time>
      </trkpt>
      <trkpt lat="43.76011" lon="3.36755">
        <ele>371.3</ele>
        <time>2026-05-18T10:43:41Z</time>
      </trkpt>
      <trkpt lat="43.76016" lon="3.36744">
        <ele>368.6</ele>
        <time>2026-05-18T10:43:46Z</time>
      </trkpt>
      <trkpt lat="43.76016" lon="3.36742">
        <ele>368.4</ele>
        <time>2026-05-18T10:43:51Z</time>
      </trkpt>
      <trkpt lat="43.76013" lon="3.36737">
        <ele>368.6</ele>
        <time>2026-05-18T10:43:56Z</time>
      </trkpt>
      <trkpt lat="43.76009" lon="3.36737">
        <ele>369.6</ele>
        <time>2026-05-18T10:44:01Z</time>
      </trkpt>
      <trkpt lat="43.76009" lon="3.36736">
        <ele>369.6</ele>
        <time>2026-05-18T10:44:06Z</time>
      </trkpt>
      <trkpt lat="43.76009" lon="3.36736">
        <ele>369.6</ele>
        <time>2026-05-18T10:44:11Z</time>
      </trkpt>
      <trkpt lat="43.76009" lon="3.36736">
        <ele>369.6</ele>
        <time>2026-05-18T10:44:16Z</time>
      </trkpt>
      <trkpt lat="43.76009" lon="3.36736">
        <ele>369.6</ele>
        <time>2026-05-18T10:44:21Z</time>
      </trkpt>
      <trkpt lat="43.76009" lon="3.36736">
        <ele>369.6</ele>
        <time>2026-05-18T10:44:26Z</time>
      </trkpt>
      <trkpt lat="43.76009" lon="3.36736">
        <ele>369.6</ele>
        <time>2026-05-18T10:44:31Z</time>
      </trkpt>
      <trkpt lat="43.76009" lon="3.36736">
        <ele>369.6</ele>
        <time>2026-05-18T10:44:36Z</time>
      </trkpt>
      <trkpt lat="43.76009" lon="3.36736">
        <ele>369.6</ele>
        <time>2026-05-18T10:44:41Z</time>
      </trkpt>
      <trkpt lat="43.76009" lon="3.36736">
        <ele>369.6</ele>
        <time>2026-05-18T10:44:46Z</time>
      </trkpt>
      <trkpt lat="43.76009" lon="3.36736">
        <ele>369.6</ele>
        <time>2026-05-18T10:44:51Z</time>
      </trkpt>
      <trkpt lat="43.76009" lon="3.36736">
        <ele>369.6</ele>
        <time>2026-05-18T10:44:56Z</time>
      </trkpt>
      <trkpt lat="43.76007" lon="3.3672">
        <ele>368.6</ele>
        <time>2026-05-18T10:45:01Z</time>
      </trkpt>
      <trkpt lat="43.76007" lon="3.36712">
        <ele>367.9</ele>
        <time>2026-05-18T10:45:06Z</time>
      </trkpt>
      <trkpt lat="43.76009" lon="3.36706">
        <ele>366.8</ele>
        <time>2026-05-18T10:45:11Z</time>
      </trkpt>
      <trkpt lat="43.76013" lon="3.36699">
        <ele>365</ele>
        <time>2026-05-18T10:45:16Z</time>
      </trkpt>
      <trkpt lat="43.76013" lon="3.36694">
        <ele>364.5</ele>
        <time>2026-05-18T10:45:21Z</time>
      </trkpt>
      <trkpt lat="43.7601" lon="3.36691">
        <ele>365.1</ele>
        <time>2026-05-18T10:45:26Z</time>
      </trkpt>
      <trkpt lat="43.76004" lon="3.36688">
        <ele>366.6</ele>
        <time>2026-05-18T10:45:31Z</time>
      </trkpt>
      <trkpt lat="43.76001" lon="3.3668">
        <ele>366.8</ele>
        <time>2026-05-18T10:45:36Z</time>
      </trkpt>
      <trkpt lat="43.75996" lon="3.36671">
        <ele>367.6</ele>
        <time>2026-05-18T10:45:41Z</time>
      </trkpt>
      <trkpt lat="43.75994" lon="3.36667">
        <ele>367.8</ele>
        <time>2026-05-18T10:45:46Z</time>
      </trkpt>
      <trkpt lat="43.75995" lon="3.3666">
        <ele>366.2</ele>
        <time>2026-05-18T10:45:51Z</time>
      </trkpt>
      <trkpt lat="43.75989" lon="3.36651">
        <ele>366.2</ele>
        <time>2026-05-18T10:45:56Z</time>
      </trkpt>
      <trkpt lat="43.75985" lon="3.36643">
        <ele>365.9</ele>
        <time>2026-05-18T10:46:01Z</time>
      </trkpt>
      <trkpt lat="43.75979" lon="3.36638">
        <ele>366.6</ele>
        <time>2026-05-18T10:46:06Z</time>
      </trkpt>
      <trkpt lat="43.75974" lon="3.36632">
        <ele>366.9</ele>
        <time>2026-05-18T10:46:11Z</time>
      </trkpt>
      <trkpt lat="43.75969" lon="3.36625">
        <ele>366.9</ele>
        <time>2026-05-18T10:46:16Z</time>
      </trkpt>
      <trkpt lat="43.75965" lon="3.36617">
        <ele>366.5</ele>
        <time>2026-05-18T10:46:21Z</time>
      </trkpt>
      <trkpt lat="43.7596" lon="3.36613">
        <ele>367.1</ele>
        <time>2026-05-18T10:46:26Z</time>
      </trkpt>
      <trkpt lat="43.75955" lon="3.36607">
        <ele>367.3</ele>
        <time>2026-05-18T10:46:31Z</time>
      </trkpt>
      <trkpt lat="43.7595" lon="3.36601">
        <ele>367.4</ele>
        <time>2026-05-18T10:46:36Z</time>
      </trkpt>
      <trkpt lat="43.75945" lon="3.36599">
        <ele>368.4</ele>
        <time>2026-05-18T10:46:41Z</time>
      </trkpt>
      <trkpt lat="43.7594" lon="3.36596">
        <ele>369.2</ele>
        <time>2026-05-18T10:46:46Z</time>
      </trkpt>
      <trkpt lat="43.75935" lon="3.36593">
        <ele>370</ele>
        <time>2026-05-18T10:46:51Z</time>
      </trkpt>
      <trkpt lat="43.75928" lon="3.3659">
        <ele>371.3</ele>
        <time>2026-05-18T10:46:56Z</time>
      </trkpt>
      <trkpt lat="43.75924" lon="3.36583">
        <ele>370.9</ele>
        <time>2026-05-18T10:47:01Z</time>
      </trkpt>
      <trkpt lat="43.7592" lon="3.36574">
        <ele>370.8</ele>
        <time>2026-05-18T10:47:06Z</time>
      </trkpt>
      <trkpt lat="43.75914" lon="3.36568">
        <ele>371.8</ele>
        <time>2026-05-18T10:47:11Z</time>
      </trkpt>
      <trkpt lat="43.75908" lon="3.3656">
        <ele>372.9</ele>
        <time>2026-05-18T10:47:16Z</time>
      </trkpt>
      <trkpt lat="43.75904" lon="3.36552">
        <ele>373.1</ele>
        <time>2026-05-18T10:47:21Z</time>
      </trkpt>
      <trkpt lat="43.75901" lon="3.36544">
        <ele>372.8</ele>
        <time>2026-05-18T10:47:26Z</time>
      </trkpt>
      <trkpt lat="43.75902" lon="3.36534">
        <ele>370.8</ele>
        <time>2026-05-18T10:47:31Z</time>
      </trkpt>
      <trkpt lat="43.75907" lon="3.36523">
        <ele>367.4</ele>
        <time>2026-05-18T10:47:36Z</time>
      </trkpt>
      <trkpt lat="43.75913" lon="3.36515">
        <ele>364.3</ele>
        <time>2026-05-18T10:47:41Z</time>
      </trkpt>
      <trkpt lat="43.75917" lon="3.36507">
        <ele>361.9</ele>
        <time>2026-05-18T10:47:46Z</time>
      </trkpt>
      <trkpt lat="43.75918" lon="3.36497">
        <ele>360.4</ele>
        <time>2026-05-18T10:47:51Z</time>
      </trkpt>
      <trkpt lat="43.75915" lon="3.36489">
        <ele>360.3</ele>
        <time>2026-05-18T10:47:56Z</time>
      </trkpt>
      <trkpt lat="43.7591" lon="3.36484">
        <ele>361.1</ele>
        <time>2026-05-18T10:48:01Z</time>
      </trkpt>
      <trkpt lat="43.75905" lon="3.36477">
        <ele>361.8</ele>
        <time>2026-05-18T10:48:06Z</time>
      </trkpt>
      <trkpt lat="43.75899" lon="3.3647">
        <ele>362.6</ele>
        <time>2026-05-18T10:48:11Z</time>
      </trkpt>
      <trkpt lat="43.75895" lon="3.36464">
        <ele>363</ele>
        <time>2026-05-18T10:48:16Z</time>
      </trkpt>
      <trkpt lat="43.75891" lon="3.36456">
        <ele>363.2</ele>
        <time>2026-05-18T10:48:21Z</time>
      </trkpt>
      <trkpt lat="43.75886" lon="3.3645">
        <ele>363.8</ele>
        <time>2026-05-18T10:48:26Z</time>
      </trkpt>
      <trkpt lat="43.75883" lon="3.36442">
        <ele>363.6</ele>
        <time>2026-05-18T10:48:31Z</time>
      </trkpt>
      <trkpt lat="43.7588" lon="3.36434">
        <ele>363.4</ele>
        <time>2026-05-18T10:48:36Z</time>
      </trkpt>
      <trkpt lat="43.75878" lon="3.36425">
        <ele>362.8</ele>
        <time>2026-05-18T10:48:41Z</time>
      </trkpt>
      <trkpt lat="43.75875" lon="3.36417">
        <ele>362.5</ele>
        <time>2026-05-18T10:48:46Z</time>
      </trkpt>
      <trkpt lat="43.75875" lon="3.36407">
        <ele>361.6</ele>
        <time>2026-05-18T10:48:51Z</time>
      </trkpt>
      <trkpt lat="43.75873" lon="3.36398">
        <ele>361.3</ele>
        <time>2026-05-18T10:48:56Z</time>
      </trkpt>
      <trkpt lat="43.75871" lon="3.3639">
        <ele>361.1</ele>
        <time>2026-05-18T10:49:01Z</time>
      </trkpt>
      <trkpt lat="43.75868" lon="3.36381">
        <ele>361.1</ele>
        <time>2026-05-18T10:49:06Z</time>
      </trkpt>
      <trkpt lat="43.75867" lon="3.36372">
        <ele>360.5</ele>
        <time>2026-05-18T10:49:11Z</time>
      </trkpt>
      <trkpt lat="43.75866" lon="3.36362">
        <ele>359.9</ele>
        <time>2026-05-18T10:49:16Z</time>
      </trkpt>
      <trkpt lat="43.75866" lon="3.36352">
        <ele>359</ele>
        <time>2026-05-18T10:49:21Z</time>
      </trkpt>
      <trkpt lat="43.75866" lon="3.36342">
        <ele>358.1</ele>
        <time>2026-05-18T10:49:26Z</time>
      </trkpt>
      <trkpt lat="43.75862" lon="3.36334">
        <ele>358.5</ele>
        <time>2026-05-18T10:49:31Z</time>
      </trkpt>
      <trkpt lat="43.75856" lon="3.36325">
        <ele>359</ele>
        <time>2026-05-18T10:49:36Z</time>
      </trkpt>
      <trkpt lat="43.75854" lon="3.36317">
        <ele>358.4</ele>
        <time>2026-05-18T10:49:41Z</time>
      </trkpt>
      <trkpt lat="43.7585" lon="3.36308">
        <ele>358.3</ele>
        <time>2026-05-18T10:49:46Z</time>
      </trkpt>
      <trkpt lat="43.75845" lon="3.36296">
        <ele>357.9</ele>
        <time>2026-05-18T10:49:51Z</time>
      </trkpt>
      <trkpt lat="43.75842" lon="3.36287">
        <ele>357.3</ele>
        <time>2026-05-18T10:49:56Z</time>
      </trkpt>
      <trkpt lat="43.75837" lon="3.36282">
        <ele>357.8</ele>
        <time>2026-05-18T10:50:01Z</time>
      </trkpt>
      <trkpt lat="43.75831" lon="3.36274">
        <ele>358.6</ele>
        <time>2026-05-18T10:50:06Z</time>
      </trkpt>
      <trkpt lat="43.75824" lon="3.36267">
        <ele>361</ele>
        <time>2026-05-18T10:50:11Z</time>
      </trkpt>
      <trkpt lat="43.75821" lon="3.3626">
        <ele>361.4</ele>
        <time>2026-05-18T10:50:16Z</time>
      </trkpt>
      <trkpt lat="43.75819" lon="3.36253">
        <ele>361.3</ele>
        <time>2026-05-18T10:50:21Z</time>
      </trkpt>
      <trkpt lat="43.75816" lon="3.36246">
        <ele>361.9</ele>
        <time>2026-05-18T10:50:26Z</time>
      </trkpt>
      <trkpt lat="43.75813" lon="3.3624">
        <ele>362.8</ele>
        <time>2026-05-18T10:50:31Z</time>
      </trkpt>
      <trkpt lat="43.7581" lon="3.36232">
        <ele>363.4</ele>
        <time>2026-05-18T10:50:36Z</time>
      </trkpt>
      <trkpt lat="43.75806" lon="3.36223">
        <ele>364.2</ele>
        <time>2026-05-18T10:50:41Z</time>
      </trkpt>
      <trkpt lat="43.75802" lon="3.36214">
        <ele>365</ele>
        <time>2026-05-18T10:50:46Z</time>
      </trkpt>
      <trkpt lat="43.75798" lon="3.36207">
        <ele>365.9</ele>
        <time>2026-05-18T10:50:51Z</time>
      </trkpt>
      <trkpt lat="43.75794" lon="3.36199">
        <ele>366.6</ele>
        <time>2026-05-18T10:50:56Z</time>
      </trkpt>
      <trkpt lat="43.75791" lon="3.3619">
        <ele>366.7</ele>
        <time>2026-05-18T10:51:01Z</time>
      </trkpt>
      <trkpt lat="43.75789" lon="3.3618">
        <ele>366.2</ele>
        <time>2026-05-18T10:51:06Z</time>
      </trkpt>
      <trkpt lat="43.75788" lon="3.3617">
        <ele>365.3</ele>
        <time>2026-05-18T10:51:11Z</time>
      </trkpt>
      <trkpt lat="43.75784" lon="3.36161">
        <ele>365.7</ele>
        <time>2026-05-18T10:51:16Z</time>
      </trkpt>
      <trkpt lat="43.75782" lon="3.36152">
        <ele>365.4</ele>
        <time>2026-05-18T10:51:21Z</time>
      </trkpt>
      <trkpt lat="43.75781" lon="3.36142">
        <ele>364.6</ele>
        <time>2026-05-18T10:51:26Z</time>
      </trkpt>
      <trkpt lat="43.7578" lon="3.36131">
        <ele>363.7</ele>
        <time>2026-05-18T10:51:31Z</time>
      </trkpt>
      <trkpt lat="43.75779" lon="3.36121">
        <ele>362.8</ele>
        <time>2026-05-18T10:51:36Z</time>
      </trkpt>
      <trkpt lat="43.75775" lon="3.36113">
        <ele>363.1</ele>
        <time>2026-05-18T10:51:41Z</time>
      </trkpt>
      <trkpt lat="43.75773" lon="3.36104">
        <ele>362.5</ele>
        <time>2026-05-18T10:51:46Z</time>
      </trkpt>
      <trkpt lat="43.75773" lon="3.36093">
        <ele>361.1</ele>
        <time>2026-05-18T10:51:51Z</time>
      </trkpt>
      <trkpt lat="43.7577" lon="3.36083">
        <ele>360.7</ele>
        <time>2026-05-18T10:51:56Z</time>
      </trkpt>
      <trkpt lat="43.75766" lon="3.36074">
        <ele>361</ele>
        <time>2026-05-18T10:52:01Z</time>
      </trkpt>
      <trkpt lat="43.75763" lon="3.36068">
        <ele>361.3</ele>
        <time>2026-05-18T10:52:06Z</time>
      </trkpt>
      <trkpt lat="43.75758" lon="3.36061">
        <ele>362.1</ele>
        <time>2026-05-18T10:52:11Z</time>
      </trkpt>
      <trkpt lat="43.75756" lon="3.36055">
        <ele>362.1</ele>
        <time>2026-05-18T10:52:16Z</time>
      </trkpt>
      <trkpt lat="43.75754" lon="3.36046">
        <ele>361.9</ele>
        <time>2026-05-18T10:52:21Z</time>
      </trkpt>
      <trkpt lat="43.75752" lon="3.36035">
        <ele>361.4</ele>
        <time>2026-05-18T10:52:26Z</time>
      </trkpt>
      <trkpt lat="43.75749" lon="3.36025">
        <ele>361.7</ele>
        <time>2026-05-18T10:52:31Z</time>
      </trkpt>
      <trkpt lat="43.75748" lon="3.36015">
        <ele>361.4</ele>
        <time>2026-05-18T10:52:36Z</time>
      </trkpt>
      <trkpt lat="43.75746" lon="3.36003">
        <ele>361.6</ele>
        <time>2026-05-18T10:52:41Z</time>
      </trkpt>
      <trkpt lat="43.75743" lon="3.35993">
        <ele>363.4</ele>
        <time>2026-05-18T10:52:46Z</time>
      </trkpt>
      <trkpt lat="43.75738" lon="3.35982">
        <ele>366.6</ele>
        <time>2026-05-18T10:52:51Z</time>
      </trkpt>
      <trkpt lat="43.75736" lon="3.35971">
        <ele>367.9</ele>
        <time>2026-05-18T10:52:56Z</time>
      </trkpt>
      <trkpt lat="43.75735" lon="3.3596">
        <ele>368.7</ele>
        <time>2026-05-18T10:53:01Z</time>
      </trkpt>
      <trkpt lat="43.75734" lon="3.35951">
        <ele>369.3</ele>
        <time>2026-05-18T10:53:06Z</time>
      </trkpt>
      <trkpt lat="43.75733" lon="3.35942">
        <ele>370</ele>
        <time>2026-05-18T10:53:11Z</time>
      </trkpt>
      <trkpt lat="43.75732" lon="3.35932">
        <ele>370.7</ele>
        <time>2026-05-18T10:53:16Z</time>
      </trkpt>
      <trkpt lat="43.75731" lon="3.35922">
        <ele>371.3</ele>
        <time>2026-05-18T10:53:21Z</time>
      </trkpt>
      <trkpt lat="43.7573" lon="3.35914">
        <ele>371.8</ele>
        <time>2026-05-18T10:53:26Z</time>
      </trkpt>
      <trkpt lat="43.75728" lon="3.35905">
        <ele>372.6</ele>
        <time>2026-05-18T10:53:31Z</time>
      </trkpt>
      <trkpt lat="43.75727" lon="3.35897">
        <ele>372.9</ele>
        <time>2026-05-18T10:53:36Z</time>
      </trkpt>
      <trkpt lat="43.75725" lon="3.35887">
        <ele>373.7</ele>
        <time>2026-05-18T10:53:41Z</time>
      </trkpt>
      <trkpt lat="43.75725" lon="3.35878">
        <ele>373.6</ele>
        <time>2026-05-18T10:53:46Z</time>
      </trkpt>
      <trkpt lat="43.75724" lon="3.35869">
        <ele>373.9</ele>
        <time>2026-05-18T10:53:51Z</time>
      </trkpt>
      <trkpt lat="43.75723" lon="3.35859">
        <ele>374.1</ele>
        <time>2026-05-18T10:53:56Z</time>
      </trkpt>
      <trkpt lat="43.75722" lon="3.35849">
        <ele>374.4</ele>
        <time>2026-05-18T10:54:01Z</time>
      </trkpt>
      <trkpt lat="43.75719" lon="3.35838">
        <ele>375.6</ele>
        <time>2026-05-18T10:54:06Z</time>
      </trkpt>
      <trkpt lat="43.75718" lon="3.35829">
        <ele>375.9</ele>
        <time>2026-05-18T10:54:11Z</time>
      </trkpt>
      <trkpt lat="43.75716" lon="3.35819">
        <ele>376.7</ele>
        <time>2026-05-18T10:54:16Z</time>
      </trkpt>
      <trkpt lat="43.75714" lon="3.3581">
        <ele>377.4</ele>
        <time>2026-05-18T10:54:21Z</time>
      </trkpt>
      <trkpt lat="43.75712" lon="3.358">
        <ele>377.9</ele>
        <time>2026-05-18T10:54:26Z</time>
      </trkpt>
      <trkpt lat="43.75712" lon="3.35788">
        <ele>377.6</ele>
        <time>2026-05-18T10:54:31Z</time>
      </trkpt>
      <trkpt lat="43.75711" lon="3.35778">
        <ele>377.6</ele>
        <time>2026-05-18T10:54:36Z</time>
      </trkpt>
      <trkpt lat="43.75709" lon="3.35767">
        <ele>377.9</ele>
        <time>2026-05-18T10:54:41Z</time>
      </trkpt>
      <trkpt lat="43.7571" lon="3.35758">
        <ele>377.3</ele>
        <time>2026-05-18T10:54:46Z</time>
      </trkpt>
      <trkpt lat="43.7571" lon="3.35749">
        <ele>377</ele>
        <time>2026-05-18T10:54:51Z</time>
      </trkpt>
      <trkpt lat="43.7571" lon="3.3574">
        <ele>376.2</ele>
        <time>2026-05-18T10:54:56Z</time>
      </trkpt>
      <trkpt lat="43.75712" lon="3.3573">
        <ele>374.9</ele>
        <time>2026-05-18T10:55:01Z</time>
      </trkpt>
      <trkpt lat="43.75714" lon="3.3572">
        <ele>373.7</ele>
        <time>2026-05-18T10:55:06Z</time>
      </trkpt>
      <trkpt lat="43.75717" lon="3.35713">
        <ele>372.7</ele>
        <time>2026-05-18T10:55:11Z</time>
      </trkpt>
      <trkpt lat="43.7572" lon="3.35706">
        <ele>371.7</ele>
        <time>2026-05-18T10:55:16Z</time>
      </trkpt>
      <trkpt lat="43.75724" lon="3.357">
        <ele>370.7</ele>
        <time>2026-05-18T10:55:21Z</time>
      </trkpt>
      <trkpt lat="43.75729" lon="3.35692">
        <ele>369.7</ele>
        <time>2026-05-18T10:55:26Z</time>
      </trkpt>
      <trkpt lat="43.75736" lon="3.35683">
        <ele>368.5</ele>
        <time>2026-05-18T10:55:31Z</time>
      </trkpt>
      <trkpt lat="43.7574" lon="3.35672">
        <ele>367.8</ele>
        <time>2026-05-18T10:55:36Z</time>
      </trkpt>
      <trkpt lat="43.75743" lon="3.35662">
        <ele>366.7</ele>
        <time>2026-05-18T10:55:41Z</time>
      </trkpt>
      <trkpt lat="43.75744" lon="3.35652">
        <ele>364.9</ele>
        <time>2026-05-18T10:55:46Z</time>
      </trkpt>
      <trkpt lat="43.75745" lon="3.35643">
        <ele>363.3</ele>
        <time>2026-05-18T10:55:51Z</time>
      </trkpt>
      <trkpt lat="43.75746" lon="3.35634">
        <ele>361.7</ele>
        <time>2026-05-18T10:55:56Z</time>
      </trkpt>
      <trkpt lat="43.75747" lon="3.35623">
        <ele>359.7</ele>
        <time>2026-05-18T10:56:01Z</time>
      </trkpt>
      <trkpt lat="43.7575" lon="3.35611">
        <ele>357.6</ele>
        <time>2026-05-18T10:56:06Z</time>
      </trkpt>
      <trkpt lat="43.7575" lon="3.35606">
        <ele>356.8</ele>
        <time>2026-05-18T10:56:11Z</time>
      </trkpt>
      <trkpt lat="43.75752" lon="3.356">
        <ele>355.4</ele>
        <time>2026-05-18T10:56:16Z</time>
      </trkpt>
      <trkpt lat="43.75752" lon="3.356">
        <ele>355.4</ele>
        <time>2026-05-18T10:56:21Z</time>
      </trkpt>
      <trkpt lat="43.75753" lon="3.35596">
        <ele>354.6</ele>
        <time>2026-05-18T10:56:26Z</time>
      </trkpt>
      <trkpt lat="43.75754" lon="3.35589">
        <ele>353.3</ele>
        <time>2026-05-18T10:56:31Z</time>
      </trkpt>
      <trkpt lat="43.75755" lon="3.3558">
        <ele>351.6</ele>
        <time>2026-05-18T10:56:36Z</time>
      </trkpt>
      <trkpt lat="43.75758" lon="3.35573">
        <ele>349.6</ele>
        <time>2026-05-18T10:56:41Z</time>
      </trkpt>
      <trkpt lat="43.75756" lon="3.35581">
        <ele>351.6</ele>
        <time>2026-05-18T10:56:46Z</time>
      </trkpt>
      <trkpt lat="43.75754" lon="3.35589">
        <ele>353.3</ele>
        <time>2026-05-18T10:56:51Z</time>
      </trkpt>
      <trkpt lat="43.75753" lon="3.35597">
        <ele>354.8</ele>
        <time>2026-05-18T10:56:56Z</time>
      </trkpt>
      <trkpt lat="43.75752" lon="3.35603">
        <ele>355.9</ele>
        <time>2026-05-18T10:57:01Z</time>
      </trkpt>
      <trkpt lat="43.75748" lon="3.356">
        <ele>355.8</ele>
        <time>2026-05-18T10:57:06Z</time>
      </trkpt>
      <trkpt lat="43.75745" lon="3.35597">
        <ele>355.3</ele>
        <time>2026-05-18T10:57:11Z</time>
      </trkpt>
      <trkpt lat="43.75743" lon="3.35591">
        <ele>354.3</ele>
        <time>2026-05-18T10:57:16Z</time>
      </trkpt>
      <trkpt lat="43.75741" lon="3.35583">
        <ele>352.8</ele>
        <time>2026-05-18T10:57:21Z</time>
      </trkpt>
      <trkpt lat="43.75736" lon="3.35579">
        <ele>351.8</ele>
        <time>2026-05-18T10:57:26Z</time>
      </trkpt>
      <trkpt lat="43.75736" lon="3.35579">
        <ele>351.8</ele>
        <time>2026-05-18T10:57:31Z</time>
      </trkpt>
      <trkpt lat="43.75736" lon="3.35579">
        <ele>351.8</ele>
        <time>2026-05-18T10:57:36Z</time>
      </trkpt>
      <trkpt lat="43.75736" lon="3.35579">
        <ele>351.8</ele>
        <time>2026-05-18T10:57:41Z</time>
      </trkpt>
      <trkpt lat="43.75736" lon="3.35579">
        <ele>351.8</ele>
        <time>2026-05-18T10:57:46Z</time>
      </trkpt>
      <trkpt lat="43.75736" lon="3.35579">
        <ele>351.8</ele>
        <time>2026-05-18T10:57:51Z</time>
      </trkpt>
      <trkpt lat="43.75736" lon="3.35579">
        <ele>351.8</ele>
        <time>2026-05-18T10:57:56Z</time>
      </trkpt>
      <trkpt lat="43.75736" lon="3.35579">
        <ele>351.8</ele>
        <time>2026-05-18T10:58:01Z</time>
      </trkpt>
      <trkpt lat="43.75736" lon="3.35579">
        <ele>351.8</ele>
        <time>2026-05-18T10:58:06Z</time>
      </trkpt>
      <trkpt lat="43.75736" lon="3.35579">
        <ele>351.8</ele>
        <time>2026-05-18T10:58:11Z</time>
      </trkpt>
      <trkpt lat="43.75736" lon="3.35579">
        <ele>351.8</ele>
        <time>2026-05-18T10:58:16Z</time>
      </trkpt>
      <trkpt lat="43.75736" lon="3.35579">
        <ele>351.8</ele>
        <time>2026-05-18T10:58:21Z</time>
      </trkpt>
      <trkpt lat="43.75736" lon="3.35579">
        <ele>351.8</ele>
        <time>2026-05-18T10:58:26Z</time>
      </trkpt>
      <trkpt lat="43.75736" lon="3.35579">
        <ele>351.8</ele>
        <time>2026-05-18T10:58:31Z</time>
      </trkpt>
      <trkpt lat="43.75736" lon="3.35579">
        <ele>351.8</ele>
        <time>2026-05-18T10:58:36Z</time>
      </trkpt>
      <trkpt lat="43.75736" lon="3.35579">
        <ele>351.8</ele>
        <time>2026-05-18T10:58:41Z</time>
      </trkpt>
      <trkpt lat="43.75736" lon="3.35579">
        <ele>351.8</ele>
        <time>2026-05-18T10:58:46Z</time>
      </trkpt>
      <trkpt lat="43.75736" lon="3.35579">
        <ele>351.8</ele>
        <time>2026-05-18T10:58:51Z</time>
      </trkpt>
      <trkpt lat="43.75736" lon="3.35579">
        <ele>351.8</ele>
        <time>2026-05-18T10:58:56Z</time>
      </trkpt>
      <trkpt lat="43.75736" lon="3.35579">
        <ele>351.8</ele>
        <time>2026-05-18T10:59:01Z</time>
      </trkpt>
      <trkpt lat="43.75736" lon="3.35579">
        <ele>351.8</ele>
        <time>2026-05-18T10:59:06Z</time>
      </trkpt>
      <trkpt lat="43.75736" lon="3.35579">
        <ele>351.8</ele>
        <time>2026-05-18T10:59:11Z</time>
      </trkpt>
      <trkpt lat="43.75733" lon="3.35576">
        <ele>351.1</ele>
        <time>2026-05-18T10:59:16Z</time>
      </trkpt>
      <trkpt lat="43.75732" lon="3.35569">
        <ele>349.5</ele>
        <time>2026-05-18T10:59:21Z</time>
      </trkpt>
      <trkpt lat="43.75731" lon="3.35563">
        <ele>348.1</ele>
        <time>2026-05-18T10:59:26Z</time>
      </trkpt>
      <trkpt lat="43.75727" lon="3.35557">
        <ele>346.7</ele>
        <time>2026-05-18T10:59:31Z</time>
      </trkpt>
      <trkpt lat="43.75723" lon="3.35554">
        <ele>346</ele>
        <time>2026-05-18T10:59:36Z</time>
      </trkpt>
      <trkpt lat="43.75719" lon="3.35552">
        <ele>345.5</ele>
        <time>2026-05-18T10:59:41Z</time>
      </trkpt>
      <trkpt lat="43.75715" lon="3.35548">
        <ele>344.5</ele>
        <time>2026-05-18T10:59:46Z</time>
      </trkpt>
      <trkpt lat="43.75711" lon="3.35546">
        <ele>344</ele>
        <time>2026-05-18T10:59:51Z</time>
      </trkpt>
      <trkpt lat="43.75705" lon="3.35545">
        <ele>343.7</ele>
        <time>2026-05-18T10:59:56Z</time>
      </trkpt>
      <trkpt lat="43.75699" lon="3.35545">
        <ele>343.6</ele>
        <time>2026-05-18T11:00:01Z</time>
      </trkpt>
      <trkpt lat="43.75695" lon="3.35543">
        <ele>343.1</ele>
        <time>2026-05-18T11:00:06Z</time>
      </trkpt>
      <trkpt lat="43.75692" lon="3.35539">
        <ele>342.2</ele>
        <time>2026-05-18T11:00:11Z</time>
      </trkpt>
      <trkpt lat="43.75689" lon="3.35536">
        <ele>341.5</ele>
        <time>2026-05-18T11:00:16Z</time>
      </trkpt>
      <trkpt lat="43.75684" lon="3.35531">
        <ele>340.3</ele>
        <time>2026-05-18T11:00:21Z</time>
      </trkpt>
      <trkpt lat="43.75679" lon="3.35529">
        <ele>339.8</ele>
        <time>2026-05-18T11:00:26Z</time>
      </trkpt>
      <trkpt lat="43.75675" lon="3.35529">
        <ele>339.7</ele>
        <time>2026-05-18T11:00:31Z</time>
      </trkpt>
      <trkpt lat="43.75671" lon="3.35529">
        <ele>339.7</ele>
        <time>2026-05-18T11:00:36Z</time>
      </trkpt>
      <trkpt lat="43.75667" lon="3.35528">
        <ele>339.4</ele>
        <time>2026-05-18T11:00:41Z</time>
      </trkpt>
      <trkpt lat="43.75662" lon="3.35529">
        <ele>339</ele>
        <time>2026-05-18T11:00:46Z</time>
      </trkpt>
      <trkpt lat="43.75657" lon="3.35529">
        <ele>338.4</ele>
        <time>2026-05-18T11:00:51Z</time>
      </trkpt>
      <trkpt lat="43.75654" lon="3.3553">
        <ele>338.3</ele>
        <time>2026-05-18T11:00:56Z</time>
      </trkpt>
      <trkpt lat="43.75649" lon="3.35531">
        <ele>337.9</ele>
        <time>2026-05-18T11:01:01Z</time>
      </trkpt>
      <trkpt lat="43.75644" lon="3.35532">
        <ele>337.5</ele>
        <time>2026-05-18T11:01:06Z</time>
      </trkpt>
      <trkpt lat="43.75639" lon="3.3553">
        <ele>336.4</ele>
        <time>2026-05-18T11:01:11Z</time>
      </trkpt>
      <trkpt lat="43.75635" lon="3.35528">
        <ele>335.5</ele>
        <time>2026-05-18T11:01:16Z</time>
      </trkpt>
      <trkpt lat="43.7563" lon="3.35526">
        <ele>334.4</ele>
        <time>2026-05-18T11:01:21Z</time>
      </trkpt>
      <trkpt lat="43.75627" lon="3.35524">
        <ele>333.5</ele>
        <time>2026-05-18T11:01:26Z</time>
      </trkpt>
      <trkpt lat="43.75623" lon="3.35523">
        <ele>332.8</ele>
        <time>2026-05-18T11:01:31Z</time>
      </trkpt>
      <trkpt lat="43.75618" lon="3.35522">
        <ele>331.9</ele>
        <time>2026-05-18T11:01:36Z</time>
      </trkpt>
      <trkpt lat="43.75612" lon="3.35522">
        <ele>331.1</ele>
        <time>2026-05-18T11:01:41Z</time>
      </trkpt>
      <trkpt lat="43.75606" lon="3.35524">
        <ele>330.9</ele>
        <time>2026-05-18T11:01:46Z</time>
      </trkpt>
      <trkpt lat="43.756" lon="3.35526">
        <ele>330.6</ele>
        <time>2026-05-18T11:01:51Z</time>
      </trkpt>
      <trkpt lat="43.75595" lon="3.35528">
        <ele>330.5</ele>
        <time>2026-05-18T11:01:56Z</time>
      </trkpt>
      <trkpt lat="43.7559" lon="3.3553">
        <ele>330.4</ele>
        <time>2026-05-18T11:02:01Z</time>
      </trkpt>
      <trkpt lat="43.75586" lon="3.35533">
        <ele>330.6</ele>
        <time>2026-05-18T11:02:06Z</time>
      </trkpt>
      <trkpt lat="43.75583" lon="3.35538">
        <ele>331.5</ele>
        <time>2026-05-18T11:02:11Z</time>
      </trkpt>
      <trkpt lat="43.75577" lon="3.35544">
        <ele>331.9</ele>
        <time>2026-05-18T11:02:16Z</time>
      </trkpt>
      <trkpt lat="43.75572" lon="3.35547">
        <ele>331.6</ele>
        <time>2026-05-18T11:02:21Z</time>
      </trkpt>
      <trkpt lat="43.75568" lon="3.35547">
        <ele>330.8</ele>
        <time>2026-05-18T11:02:26Z</time>
      </trkpt>
      <trkpt lat="43.75562" lon="3.35549">
        <ele>330.1</ele>
        <time>2026-05-18T11:02:31Z</time>
      </trkpt>
      <trkpt lat="43.75557" lon="3.35552">
        <ele>329.7</ele>
        <time>2026-05-18T11:02:36Z</time>
      </trkpt>
      <trkpt lat="43.75551" lon="3.35555">
        <ele>329.2</ele>
        <time>2026-05-18T11:02:41Z</time>
      </trkpt>
      <trkpt lat="43.75546" lon="3.35557">
        <ele>328.5</ele>
        <time>2026-05-18T11:02:46Z</time>
      </trkpt>
      <trkpt lat="43.7554" lon="3.35561">
        <ele>328.1</ele>
        <time>2026-05-18T11:02:51Z</time>
      </trkpt>
      <trkpt lat="43.75536" lon="3.35564">
        <ele>327.8</ele>
        <time>2026-05-18T11:02:56Z</time>
      </trkpt>
      <trkpt lat="43.75529" lon="3.35566">
        <ele>326.7</ele>
        <time>2026-05-18T11:03:01Z</time>
      </trkpt>
      <trkpt lat="43.75524" lon="3.35568">
        <ele>325.9</ele>
        <time>2026-05-18T11:03:06Z</time>
      </trkpt>
      <trkpt lat="43.75516" lon="3.35569">
        <ele>324.3</ele>
        <time>2026-05-18T11:03:11Z</time>
      </trkpt>
      <trkpt lat="43.75508" lon="3.3557">
        <ele>322.7</ele>
        <time>2026-05-18T11:03:16Z</time>
      </trkpt>
      <trkpt lat="43.75502" lon="3.35573">
        <ele>321.8</ele>
        <time>2026-05-18T11:03:21Z</time>
      </trkpt>
      <trkpt lat="43.75497" lon="3.35574">
        <ele>321</ele>
        <time>2026-05-18T11:03:26Z</time>
      </trkpt>
      <trkpt lat="43.75491" lon="3.35576">
        <ele>320.1</ele>
        <time>2026-05-18T11:03:31Z</time>
      </trkpt>
      <trkpt lat="43.75485" lon="3.35578">
        <ele>319.2</ele>
        <time>2026-05-18T11:03:36Z</time>
      </trkpt>
      <trkpt lat="43.75477" lon="3.3558">
        <ele>317.9</ele>
        <time>2026-05-18T11:03:41Z</time>
      </trkpt>
      <trkpt lat="43.7547" lon="3.35582">
        <ele>316.7</ele>
        <time>2026-05-18T11:03:46Z</time>
      </trkpt>
      <trkpt lat="43.75463" lon="3.3558">
        <ele>315.1</ele>
        <time>2026-05-18T11:03:51Z</time>
      </trkpt>
      <trkpt lat="43.75458" lon="3.35581">
        <ele>314.2</ele>
        <time>2026-05-18T11:03:56Z</time>
      </trkpt>
      <trkpt lat="43.75453" lon="3.3558">
        <ele>313.1</ele>
        <time>2026-05-18T11:04:01Z</time>
      </trkpt>
      <trkpt lat="43.75448" lon="3.35582">
        <ele>312.3</ele>
        <time>2026-05-18T11:04:06Z</time>
      </trkpt>
      <trkpt lat="43.75445" lon="3.35587">
        <ele>311.9</ele>
        <time>2026-05-18T11:04:11Z</time>
      </trkpt>
      <trkpt lat="43.75443" lon="3.35593">
        <ele>311.8</ele>
        <time>2026-05-18T11:04:16Z</time>
      </trkpt>
      <trkpt lat="43.75441" lon="3.35601">
        <ele>311.7</ele>
        <time>2026-05-18T11:04:21Z</time>
      </trkpt>
      <trkpt lat="43.75438" lon="3.3561">
        <ele>311.3</ele>
        <time>2026-05-18T11:04:26Z</time>
      </trkpt>
      <trkpt lat="43.75436" lon="3.35617">
        <ele>311.1</ele>
        <time>2026-05-18T11:04:31Z</time>
      </trkpt>
      <trkpt lat="43.75433" lon="3.35627">
        <ele>310.7</ele>
        <time>2026-05-18T11:04:36Z</time>
      </trkpt>
      <trkpt lat="43.7543" lon="3.35636">
        <ele>310.2</ele>
        <time>2026-05-18T11:04:41Z</time>
      </trkpt>
      <trkpt lat="43.75424" lon="3.35641">
        <ele>308.7</ele>
        <time>2026-05-18T11:04:46Z</time>
      </trkpt>
      <trkpt lat="43.75419" lon="3.35646">
        <ele>307.4</ele>
        <time>2026-05-18T11:04:51Z</time>
      </trkpt>
      <trkpt lat="43.75413" lon="3.35652">
        <ele>306.7</ele>
        <time>2026-05-18T11:04:56Z</time>
      </trkpt>
      <trkpt lat="43.75408" lon="3.35659">
        <ele>306.8</ele>
        <time>2026-05-18T11:05:01Z</time>
      </trkpt>
      <trkpt lat="43.75403" lon="3.35666">
        <ele>306.8</ele>
        <time>2026-05-18T11:05:06Z</time>
      </trkpt>
      <trkpt lat="43.75398" lon="3.3567">
        <ele>307</ele>
        <time>2026-05-18T11:05:11Z</time>
      </trkpt>
      <trkpt lat="43.75394" lon="3.35673">
        <ele>307.1</ele>
        <time>2026-05-18T11:05:16Z</time>
      </trkpt>
      <trkpt lat="43.75393" lon="3.35674">
        <ele>307.1</ele>
        <time>2026-05-18T11:05:21Z</time>
      </trkpt>
      <trkpt lat="43.75392" lon="3.35675">
        <ele>307.2</ele>
        <time>2026-05-18T11:05:26Z</time>
      </trkpt>
      <trkpt lat="43.75388" lon="3.3568">
        <ele>307.3</ele>
        <time>2026-05-18T11:05:31Z</time>
      </trkpt>
      <trkpt lat="43.75384" lon="3.35681">
        <ele>307.3</ele>
        <time>2026-05-18T11:05:36Z</time>
      </trkpt>
      <trkpt lat="43.7538" lon="3.35682">
        <ele>307.3</ele>
        <time>2026-05-18T11:05:41Z</time>
      </trkpt>
      <trkpt lat="43.75375" lon="3.35678">
        <ele>307</ele>
        <time>2026-05-18T11:05:46Z</time>
      </trkpt>
      <trkpt lat="43.75372" lon="3.35672">
        <ele>306.7</ele>
        <time>2026-05-18T11:05:51Z</time>
      </trkpt>
      <trkpt lat="43.75371" lon="3.35664">
        <ele>306.3</ele>
        <time>2026-05-18T11:05:56Z</time>
      </trkpt>
      <trkpt lat="43.7537" lon="3.35656">
        <ele>306</ele>
        <time>2026-05-18T11:06:01Z</time>
      </trkpt>
      <trkpt lat="43.75367" lon="3.35647">
        <ele>305.6</ele>
        <time>2026-05-18T11:06:06Z</time>
      </trkpt>
      <trkpt lat="43.75365" lon="3.35639">
        <ele>305.2</ele>
        <time>2026-05-18T11:06:11Z</time>
      </trkpt>
      <trkpt lat="43.75363" lon="3.35629">
        <ele>304.7</ele>
        <time>2026-05-18T11:06:16Z</time>
      </trkpt>
      <trkpt lat="43.75362" lon="3.3562">
        <ele>304.3</ele>
        <time>2026-05-18T11:06:21Z</time>
      </trkpt>
      <trkpt lat="43.75361" lon="3.35612">
        <ele>303.9</ele>
        <time>2026-05-18T11:06:26Z</time>
      </trkpt>
      <trkpt lat="43.7536" lon="3.35603">
        <ele>303.5</ele>
        <time>2026-05-18T11:06:31Z</time>
      </trkpt>
      <trkpt lat="43.75359" lon="3.35595">
        <ele>303.1</ele>
        <time>2026-05-18T11:06:36Z</time>
      </trkpt>
      <trkpt lat="43.75357" lon="3.35588">
        <ele>302.6</ele>
        <time>2026-05-18T11:06:41Z</time>
      </trkpt>
      <trkpt lat="43.75358" lon="3.3558">
        <ele>302.1</ele>
        <time>2026-05-18T11:06:46Z</time>
      </trkpt>
      <trkpt lat="43.75356" lon="3.3557">
        <ele>300.9</ele>
        <time>2026-05-18T11:06:51Z</time>
      </trkpt>
      <trkpt lat="43.75354" lon="3.35562">
        <ele>299.9</ele>
        <time>2026-05-18T11:06:56Z</time>
      </trkpt>
      <trkpt lat="43.75349" lon="3.35556">
        <ele>298.8</ele>
        <time>2026-05-18T11:07:01Z</time>
      </trkpt>
      <trkpt lat="43.75347" lon="3.35554">
        <ele>298.4</ele>
        <time>2026-05-18T11:07:06Z</time>
      </trkpt>
      <trkpt lat="43.75347" lon="3.35555">
        <ele>298.5</ele>
        <time>2026-05-18T11:07:11Z</time>
      </trkpt>
      <trkpt lat="43.75347" lon="3.35555">
        <ele>298.5</ele>
        <time>2026-05-18T11:07:16Z</time>
      </trkpt>
      <trkpt lat="43.75343" lon="3.35554">
        <ele>298</ele>
        <time>2026-05-18T11:07:21Z</time>
      </trkpt>
      <trkpt lat="43.75342" lon="3.35546">
        <ele>297</ele>
        <time>2026-05-18T11:07:26Z</time>
      </trkpt>
      <trkpt lat="43.75341" lon="3.35541">
        <ele>296.2</ele>
        <time>2026-05-18T11:07:31Z</time>
      </trkpt>
      <trkpt lat="43.7534" lon="3.35539">
        <ele>295.9</ele>
        <time>2026-05-18T11:07:36Z</time>
      </trkpt>
      <trkpt lat="43.75339" lon="3.35539">
        <ele>295.8</ele>
        <time>2026-05-18T11:07:41Z</time>
      </trkpt>
      <trkpt lat="43.75339" lon="3.35543">
        <ele>296.3</ele>
        <time>2026-05-18T11:07:46Z</time>
      </trkpt>
      <trkpt lat="43.75337" lon="3.35548">
        <ele>296.7</ele>
        <time>2026-05-18T11:07:51Z</time>
      </trkpt>
      <trkpt lat="43.75335" lon="3.35555">
        <ele>297.4</ele>
        <time>2026-05-18T11:07:56Z</time>
      </trkpt>
      <trkpt lat="43.75334" lon="3.35556">
        <ele>297.5</ele>
        <time>2026-05-18T11:08:01Z</time>
      </trkpt>
      <trkpt lat="43.75334" lon="3.35557">
        <ele>297.6</ele>
        <time>2026-05-18T11:08:06Z</time>
      </trkpt>
      <trkpt lat="43.75334" lon="3.35557">
        <ele>297.6</ele>
        <time>2026-05-18T11:08:11Z</time>
      </trkpt>
      <trkpt lat="43.7533" lon="3.35564">
        <ele>298.5</ele>
        <time>2026-05-18T11:08:16Z</time>
      </trkpt>
      <trkpt lat="43.75331" lon="3.35572">
        <ele>299.6</ele>
        <time>2026-05-18T11:08:21Z</time>
      </trkpt>
      <trkpt lat="43.7533" lon="3.35581">
        <ele>300.8</ele>
        <time>2026-05-18T11:08:26Z</time>
      </trkpt>
      <trkpt lat="43.75328" lon="3.3559">
        <ele>301.5</ele>
        <time>2026-05-18T11:08:31Z</time>
      </trkpt>
      <trkpt lat="43.75324" lon="3.35599">
        <ele>302.2</ele>
        <time>2026-05-18T11:08:36Z</time>
      </trkpt>
      <trkpt lat="43.75322" lon="3.35608">
        <ele>302.9</ele>
        <time>2026-05-18T11:08:41Z</time>
      </trkpt>
      <trkpt lat="43.75321" lon="3.35615">
        <ele>303.4</ele>
        <time>2026-05-18T11:08:46Z</time>
      </trkpt>
      <trkpt lat="43.75319" lon="3.35624">
        <ele>304.1</ele>
        <time>2026-05-18T11:08:51Z</time>
      </trkpt>
      <trkpt lat="43.75316" lon="3.35635">
        <ele>305</ele>
        <time>2026-05-18T11:08:56Z</time>
      </trkpt>
      <trkpt lat="43.75312" lon="3.35647">
        <ele>306.1</ele>
        <time>2026-05-18T11:09:01Z</time>
      </trkpt>
      <trkpt lat="43.7531" lon="3.35655">
        <ele>306.8</ele>
        <time>2026-05-18T11:09:06Z</time>
      </trkpt>
      <trkpt lat="43.75307" lon="3.35662">
        <ele>307.5</ele>
        <time>2026-05-18T11:09:11Z</time>
      </trkpt>
      <trkpt lat="43.75304" lon="3.35668">
        <ele>308.1</ele>
        <time>2026-05-18T11:09:16Z</time>
      </trkpt>
      <trkpt lat="43.75301" lon="3.35673">
        <ele>308.3</ele>
        <time>2026-05-18T11:09:21Z</time>
      </trkpt>
      <trkpt lat="43.753" lon="3.35675">
        <ele>308.4</ele>
        <time>2026-05-18T11:09:26Z</time>
      </trkpt>
      <trkpt lat="43.753" lon="3.35674">
        <ele>308.4</ele>
        <time>2026-05-18T11:09:31Z</time>
      </trkpt>
      <trkpt lat="43.753" lon="3.35674">
        <ele>308.4</ele>
        <time>2026-05-18T11:09:36Z</time>
      </trkpt>
      <trkpt lat="43.75298" lon="3.35678">
        <ele>308.6</ele>
        <time>2026-05-18T11:09:41Z</time>
      </trkpt>
      <trkpt lat="43.75295" lon="3.35686">
        <ele>308.8</ele>
        <time>2026-05-18T11:09:46Z</time>
      </trkpt>
      <trkpt lat="43.75291" lon="3.35693">
        <ele>309</ele>
        <time>2026-05-18T11:09:51Z</time>
      </trkpt>
      <trkpt lat="43.75287" lon="3.357">
        <ele>309.3</ele>
        <time>2026-05-18T11:09:56Z</time>
      </trkpt>
      <trkpt lat="43.75283" lon="3.35705">
        <ele>309.5</ele>
        <time>2026-05-18T11:10:01Z</time>
      </trkpt>
      <trkpt lat="43.75279" lon="3.35711">
        <ele>309.8</ele>
        <time>2026-05-18T11:10:06Z</time>
      </trkpt>
      <trkpt lat="43.75274" lon="3.35715">
        <ele>310</ele>
        <time>2026-05-18T11:10:11Z</time>
      </trkpt>
      <trkpt lat="43.75269" lon="3.3572">
        <ele>310.3</ele>
        <time>2026-05-18T11:10:16Z</time>
      </trkpt>
      <trkpt lat="43.75266" lon="3.35723">
        <ele>310.4</ele>
        <time>2026-05-18T11:10:21Z</time>
      </trkpt>
      <trkpt lat="43.75262" lon="3.35731">
        <ele>310.6</ele>
        <time>2026-05-18T11:10:26Z</time>
      </trkpt>
      <trkpt lat="43.75257" lon="3.35737">
        <ele>310.8</ele>
        <time>2026-05-18T11:10:31Z</time>
      </trkpt>
      <trkpt lat="43.75252" lon="3.35745">
        <ele>311</ele>
        <time>2026-05-18T11:10:36Z</time>
      </trkpt>
      <trkpt lat="43.75246" lon="3.35747">
        <ele>311.1</ele>
        <time>2026-05-18T11:10:41Z</time>
      </trkpt>
      <trkpt lat="43.7524" lon="3.3575">
        <ele>311.2</ele>
        <time>2026-05-18T11:10:46Z</time>
      </trkpt>
      <trkpt lat="43.75233" lon="3.35752">
        <ele>311.5</ele>
        <time>2026-05-18T11:10:51Z</time>
      </trkpt>
      <trkpt lat="43.75227" lon="3.35755">
        <ele>311.8</ele>
        <time>2026-05-18T11:10:56Z</time>
      </trkpt>
      <trkpt lat="43.75221" lon="3.35757">
        <ele>312.1</ele>
        <time>2026-05-18T11:11:01Z</time>
      </trkpt>
      <trkpt lat="43.75218" lon="3.35757">
        <ele>312.2</ele>
        <time>2026-05-18T11:11:06Z</time>
      </trkpt>
      <trkpt lat="43.75214" lon="3.35757">
        <ele>312.3</ele>
        <time>2026-05-18T11:11:11Z</time>
      </trkpt>
      <trkpt lat="43.75211" lon="3.35756">
        <ele>312.3</ele>
        <time>2026-05-18T11:11:16Z</time>
      </trkpt>
      <trkpt lat="43.75206" lon="3.35755">
        <ele>312.4</ele>
        <time>2026-05-18T11:11:21Z</time>
      </trkpt>
      <trkpt lat="43.75202" lon="3.35755">
        <ele>312.5</ele>
        <time>2026-05-18T11:11:26Z</time>
      </trkpt>
      <trkpt lat="43.75198" lon="3.35755">
        <ele>312.7</ele>
        <time>2026-05-18T11:11:31Z</time>
      </trkpt>
      <trkpt lat="43.75191" lon="3.35755">
        <ele>312.9</ele>
        <time>2026-05-18T11:11:36Z</time>
      </trkpt>
      <trkpt lat="43.75186" lon="3.35756">
        <ele>313.1</ele>
        <time>2026-05-18T11:11:41Z</time>
      </trkpt>
      <trkpt lat="43.75184" lon="3.35756">
        <ele>313.2</ele>
        <time>2026-05-18T11:11:46Z</time>
      </trkpt>
      <trkpt lat="43.75184" lon="3.35756">
        <ele>313.2</ele>
        <time>2026-05-18T11:11:51Z</time>
      </trkpt>
      <trkpt lat="43.75184" lon="3.35756">
        <ele>313.2</ele>
        <time>2026-05-18T11:11:56Z</time>
      </trkpt>
      <trkpt lat="43.75181" lon="3.3575">
        <ele>312.7</ele>
        <time>2026-05-18T11:12:01Z</time>
      </trkpt>
      <trkpt lat="43.7518" lon="3.35744">
        <ele>312.1</ele>
        <time>2026-05-18T11:12:06Z</time>
      </trkpt>
      <trkpt lat="43.7518" lon="3.35737">
        <ele>311.4</ele>
        <time>2026-05-18T11:12:11Z</time>
      </trkpt>
      <trkpt lat="43.75181" lon="3.3573">
        <ele>310.7</ele>
        <time>2026-05-18T11:12:16Z</time>
      </trkpt>
      <trkpt lat="43.75181" lon="3.35723">
        <ele>310</ele>
        <time>2026-05-18T11:12:21Z</time>
      </trkpt>
      <trkpt lat="43.75182" lon="3.35719">
        <ele>309.7</ele>
        <time>2026-05-18T11:12:26Z</time>
      </trkpt>
      <trkpt lat="43.75183" lon="3.35717">
        <ele>309.5</ele>
        <time>2026-05-18T11:12:31Z</time>
      </trkpt>
      <trkpt lat="43.75183" lon="3.35717">
        <ele>309.5</ele>
        <time>2026-05-18T11:12:36Z</time>
      </trkpt>
      <trkpt lat="43.75183" lon="3.35717">
        <ele>309.5</ele>
        <time>2026-05-18T11:12:41Z</time>
      </trkpt>
      <trkpt lat="43.75183" lon="3.35717">
        <ele>309.5</ele>
        <time>2026-05-18T11:12:46Z</time>
      </trkpt>
      <trkpt lat="43.75178" lon="3.35712">
        <ele>308.9</ele>
        <time>2026-05-18T11:12:51Z</time>
      </trkpt>
      <trkpt lat="43.75176" lon="3.35704">
        <ele>307.9</ele>
        <time>2026-05-18T11:12:56Z</time>
      </trkpt>
      <trkpt lat="43.75176" lon="3.35698">
        <ele>307.3</ele>
        <time>2026-05-18T11:13:01Z</time>
      </trkpt>
      <trkpt lat="43.75174" lon="3.35693">
        <ele>306.6</ele>
        <time>2026-05-18T11:13:06Z</time>
      </trkpt>
      <trkpt lat="43.75173" lon="3.35686">
        <ele>305.8</ele>
        <time>2026-05-18T11:13:11Z</time>
      </trkpt>
      <trkpt lat="43.75172" lon="3.35679">
        <ele>305</ele>
        <time>2026-05-18T11:13:16Z</time>
      </trkpt>
      <trkpt lat="43.75172" lon="3.35669">
        <ele>303.8</ele>
        <time>2026-05-18T11:13:21Z</time>
      </trkpt>
      <trkpt lat="43.75168" lon="3.35658">
        <ele>302.5</ele>
        <time>2026-05-18T11:13:26Z</time>
      </trkpt>
      <trkpt lat="43.75163" lon="3.35648">
        <ele>301.9</ele>
        <time>2026-05-18T11:13:31Z</time>
      </trkpt>
      <trkpt lat="43.75165" lon="3.3564">
        <ele>301.2</ele>
        <time>2026-05-18T11:13:36Z</time>
      </trkpt>
      <trkpt lat="43.75169" lon="3.35633">
        <ele>300.8</ele>
        <time>2026-05-18T11:13:41Z</time>
      </trkpt>
      <trkpt lat="43.75174" lon="3.35629">
        <ele>301</ele>
        <time>2026-05-18T11:13:46Z</time>
      </trkpt>
      <trkpt lat="43.75181" lon="3.35628">
        <ele>301.5</ele>
        <time>2026-05-18T11:13:51Z</time>
      </trkpt>
      <trkpt lat="43.75188" lon="3.35628">
        <ele>302.2</ele>
        <time>2026-05-18T11:13:56Z</time>
      </trkpt>
      <trkpt lat="43.75194" lon="3.3563">
        <ele>302.9</ele>
        <time>2026-05-18T11:14:01Z</time>
      </trkpt>
      <trkpt lat="43.75195" lon="3.35632">
        <ele>303.1</ele>
        <time>2026-05-18T11:14:06Z</time>
      </trkpt>
      <trkpt lat="43.75196" lon="3.35634">
        <ele>303.4</ele>
        <time>2026-05-18T11:14:11Z</time>
      </trkpt>
      <trkpt lat="43.75196" lon="3.35634">
        <ele>303.4</ele>
        <time>2026-05-18T11:14:16Z</time>
      </trkpt>
      <trkpt lat="43.75197" lon="3.35637">
        <ele>303.8</ele>
        <time>2026-05-18T11:14:21Z</time>
      </trkpt>
      <trkpt lat="43.75197" lon="3.35639">
        <ele>303.9</ele>
        <time>2026-05-18T11:14:26Z</time>
      </trkpt>
      <trkpt lat="43.75197" lon="3.35639">
        <ele>303.9</ele>
        <time>2026-05-18T11:14:31Z</time>
      </trkpt>
      <trkpt lat="43.75193" lon="3.35635">
        <ele>303.2</ele>
        <time>2026-05-18T11:14:36Z</time>
      </trkpt>
      <trkpt lat="43.75191" lon="3.3563">
        <ele>302.6</ele>
        <time>2026-05-18T11:14:41Z</time>
      </trkpt>
      <trkpt lat="43.75189" lon="3.3563">
        <ele>302.4</ele>
        <time>2026-05-18T11:14:46Z</time>
      </trkpt>
      <trkpt lat="43.75189" lon="3.3563">
        <ele>302.4</ele>
        <time>2026-05-18T11:14:51Z</time>
      </trkpt>
      <trkpt lat="43.75189" lon="3.3563">
        <ele>302.4</ele>
        <time>2026-05-18T11:14:56Z</time>
      </trkpt>
      <trkpt lat="43.75189" lon="3.3563">
        <ele>302.4</ele>
        <time>2026-05-18T11:15:01Z</time>
      </trkpt>
      <trkpt lat="43.75189" lon="3.3563">
        <ele>302.4</ele>
        <time>2026-05-18T11:15:06Z</time>
      </trkpt>
      <trkpt lat="43.75183" lon="3.35631">
        <ele>301.9</ele>
        <time>2026-05-18T11:15:11Z</time>
      </trkpt>
      <trkpt lat="43.75177" lon="3.35634">
        <ele>301.6</ele>
        <time>2026-05-18T11:15:16Z</time>
      </trkpt>
      <trkpt lat="43.75173" lon="3.35637">
        <ele>301.5</ele>
        <time>2026-05-18T11:15:21Z</time>
      </trkpt>
      <trkpt lat="43.75171" lon="3.35637">
        <ele>301.3</ele>
        <time>2026-05-18T11:15:26Z</time>
      </trkpt>
      <trkpt lat="43.75171" lon="3.35636">
        <ele>301.2</ele>
        <time>2026-05-18T11:15:31Z</time>
      </trkpt>
      <trkpt lat="43.7517" lon="3.35639">
        <ele>301.3</ele>
        <time>2026-05-18T11:15:36Z</time>
      </trkpt>
      <trkpt lat="43.7517" lon="3.3565">
        <ele>302.1</ele>
        <time>2026-05-18T11:15:41Z</time>
      </trkpt>
      <trkpt lat="43.75169" lon="3.3566">
        <ele>302.8</ele>
        <time>2026-05-18T11:15:46Z</time>
      </trkpt>
      <trkpt lat="43.7517" lon="3.35667">
        <ele>303.4</ele>
        <time>2026-05-18T11:15:51Z</time>
      </trkpt>
      <trkpt lat="43.75171" lon="3.35671">
        <ele>304</ele>
        <time>2026-05-18T11:15:56Z</time>
      </trkpt>
      <trkpt lat="43.75172" lon="3.3568">
        <ele>305.1</ele>
        <time>2026-05-18T11:16:01Z</time>
      </trkpt>
      <trkpt lat="43.75175" lon="3.35691">
        <ele>306.5</ele>
        <time>2026-05-18T11:16:06Z</time>
      </trkpt>
      <trkpt lat="43.75176" lon="3.35704">
        <ele>307.9</ele>
        <time>2026-05-18T11:16:11Z</time>
      </trkpt>
      <trkpt lat="43.75178" lon="3.35714">
        <ele>309.1</ele>
        <time>2026-05-18T11:16:16Z</time>
      </trkpt>
      <trkpt lat="43.75179" lon="3.35722">
        <ele>309.9</ele>
        <time>2026-05-18T11:16:21Z</time>
      </trkpt>
      <trkpt lat="43.75179" lon="3.35729">
        <ele>310.6</ele>
        <time>2026-05-18T11:16:26Z</time>
      </trkpt>
      <trkpt lat="43.7518" lon="3.35736">
        <ele>311.3</ele>
        <time>2026-05-18T11:16:31Z</time>
      </trkpt>
      <trkpt lat="43.75182" lon="3.35746">
        <ele>312.2</ele>
        <time>2026-05-18T11:16:36Z</time>
      </trkpt>
      <trkpt lat="43.75185" lon="3.35754">
        <ele>313</ele>
        <time>2026-05-18T11:16:41Z</time>
      </trkpt>
      <trkpt lat="43.75187" lon="3.35757">
        <ele>313.2</ele>
        <time>2026-05-18T11:16:46Z</time>
      </trkpt>
      <trkpt lat="43.75189" lon="3.3576">
        <ele>313.4</ele>
        <time>2026-05-18T11:16:51Z</time>
      </trkpt>
      <trkpt lat="43.75189" lon="3.35761">
        <ele>313.5</ele>
        <time>2026-05-18T11:16:56Z</time>
      </trkpt>
      <trkpt lat="43.75189" lon="3.35761">
        <ele>313.5</ele>
        <time>2026-05-18T11:17:01Z</time>
      </trkpt>
      <trkpt lat="43.75183" lon="3.35768">
        <ele>314.4</ele>
        <time>2026-05-18T11:17:06Z</time>
      </trkpt>
      <trkpt lat="43.75179" lon="3.35775">
        <ele>315.3</ele>
        <time>2026-05-18T11:17:11Z</time>
      </trkpt>
      <trkpt lat="43.7518" lon="3.35785">
        <ele>316.3</ele>
        <time>2026-05-18T11:17:16Z</time>
      </trkpt>
      <trkpt lat="43.75179" lon="3.35794">
        <ele>317.4</ele>
        <time>2026-05-18T11:17:21Z</time>
      </trkpt>
      <trkpt lat="43.75178" lon="3.35801">
        <ele>318.2</ele>
        <time>2026-05-18T11:17:26Z</time>
      </trkpt>
      <trkpt lat="43.75178" lon="3.35808">
        <ele>318.9</ele>
        <time>2026-05-18T11:17:31Z</time>
      </trkpt>
      <trkpt lat="43.75179" lon="3.35816">
        <ele>319.7</ele>
        <time>2026-05-18T11:17:36Z</time>
      </trkpt>
      <trkpt lat="43.75178" lon="3.35823">
        <ele>320.5</ele>
        <time>2026-05-18T11:17:41Z</time>
      </trkpt>
      <trkpt lat="43.75178" lon="3.35832">
        <ele>321.5</ele>
        <time>2026-05-18T11:17:46Z</time>
      </trkpt>
      <trkpt lat="43.75177" lon="3.35842">
        <ele>323</ele>
        <time>2026-05-18T11:17:51Z</time>
      </trkpt>
      <trkpt lat="43.75176" lon="3.3585">
        <ele>324.2</ele>
        <time>2026-05-18T11:17:56Z</time>
      </trkpt>
      <trkpt lat="43.75176" lon="3.35858">
        <ele>325.4</ele>
        <time>2026-05-18T11:18:01Z</time>
      </trkpt>
      <trkpt lat="43.75174" lon="3.35865">
        <ele>326.6</ele>
        <time>2026-05-18T11:18:06Z</time>
      </trkpt>
      <trkpt lat="43.75174" lon="3.35871">
        <ele>327.5</ele>
        <time>2026-05-18T11:18:11Z</time>
      </trkpt>
      <trkpt lat="43.75172" lon="3.35877">
        <ele>328.6</ele>
        <time>2026-05-18T11:18:16Z</time>
      </trkpt>
      <trkpt lat="43.75169" lon="3.35882">
        <ele>329.7</ele>
        <time>2026-05-18T11:18:21Z</time>
      </trkpt>
      <trkpt lat="43.75167" lon="3.35888">
        <ele>330.8</ele>
        <time>2026-05-18T11:18:26Z</time>
      </trkpt>
      <trkpt lat="43.75164" lon="3.35893">
        <ele>331.8</ele>
        <time>2026-05-18T11:18:31Z</time>
      </trkpt>
      <trkpt lat="43.7516" lon="3.35896">
        <ele>332.6</ele>
        <time>2026-05-18T11:18:36Z</time>
      </trkpt>
      <trkpt lat="43.75157" lon="3.35899">
        <ele>333.3</ele>
        <time>2026-05-18T11:18:41Z</time>
      </trkpt>
      <trkpt lat="43.75153" lon="3.35903">
        <ele>334.3</ele>
        <time>2026-05-18T11:18:46Z</time>
      </trkpt>
      <trkpt lat="43.75149" lon="3.35907">
        <ele>335.3</ele>
        <time>2026-05-18T11:18:51Z</time>
      </trkpt>
      <trkpt lat="43.75146" lon="3.35911">
        <ele>336.1</ele>
        <time>2026-05-18T11:18:56Z</time>
      </trkpt>
      <trkpt lat="43.75142" lon="3.35912">
        <ele>336.7</ele>
        <time>2026-05-18T11:19:01Z</time>
      </trkpt>
      <trkpt lat="43.75139" lon="3.35911">
        <ele>336.8</ele>
        <time>2026-05-18T11:19:06Z</time>
      </trkpt>
      <trkpt lat="43.75133" lon="3.35908">
        <ele>336.9</ele>
        <time>2026-05-18T11:19:11Z</time>
      </trkpt>
      <trkpt lat="43.75132" lon="3.35904">
        <ele>336.4</ele>
        <time>2026-05-18T11:19:16Z</time>
      </trkpt>
      <trkpt lat="43.75131" lon="3.359">
        <ele>335.9</ele>
        <time>2026-05-18T11:19:21Z</time>
      </trkpt>
      <trkpt lat="43.75127" lon="3.35896">
        <ele>335.6</ele>
        <time>2026-05-18T11:19:26Z</time>
      </trkpt>
      <trkpt lat="43.75122" lon="3.35896">
        <ele>336</ele>
        <time>2026-05-18T11:19:31Z</time>
      </trkpt>
      <trkpt lat="43.75116" lon="3.35898">
        <ele>336.9</ele>
        <time>2026-05-18T11:19:36Z</time>
      </trkpt>
      <trkpt lat="43.7511" lon="3.35898">
        <ele>337.4</ele>
        <time>2026-05-18T11:19:41Z</time>
      </trkpt>
      <trkpt lat="43.75104" lon="3.35897">
        <ele>337.8</ele>
        <time>2026-05-18T11:19:46Z</time>
      </trkpt>
      <trkpt lat="43.75098" lon="3.35895">
        <ele>338</ele>
        <time>2026-05-18T11:19:51Z</time>
      </trkpt>
      <trkpt lat="43.75097" lon="3.35893">
        <ele>337.8</ele>
        <time>2026-05-18T11:19:56Z</time>
      </trkpt>
      <trkpt lat="43.75097" lon="3.35893">
        <ele>337.8</ele>
        <time>2026-05-18T11:20:01Z</time>
      </trkpt>
      <trkpt lat="43.75097" lon="3.35893">
        <ele>337.8</ele>
        <time>2026-05-18T11:20:06Z</time>
      </trkpt>
      <trkpt lat="43.75094" lon="3.35893">
        <ele>338.1</ele>
        <time>2026-05-18T11:20:11Z</time>
      </trkpt>
      <trkpt lat="43.75088" lon="3.3589">
        <ele>338.1</ele>
        <time>2026-05-18T11:20:16Z</time>
      </trkpt>
      <trkpt lat="43.75082" lon="3.35887">
        <ele>338.2</ele>
        <time>2026-05-18T11:20:21Z</time>
      </trkpt>
      <trkpt lat="43.75078" lon="3.35886">
        <ele>338.4</ele>
        <time>2026-05-18T11:20:26Z</time>
      </trkpt>
      <trkpt lat="43.75072" lon="3.35885">
        <ele>338.9</ele>
        <time>2026-05-18T11:20:31Z</time>
      </trkpt>
      <trkpt lat="43.75066" lon="3.35886">
        <ele>339.6</ele>
        <time>2026-05-18T11:20:36Z</time>
      </trkpt>
      <trkpt lat="43.75061" lon="3.35886">
        <ele>340.2</ele>
        <time>2026-05-18T11:20:41Z</time>
      </trkpt>
      <trkpt lat="43.75055" lon="3.35887">
        <ele>341</ele>
        <time>2026-05-18T11:20:46Z</time>
      </trkpt>
      <trkpt lat="43.7505" lon="3.3589">
        <ele>342</ele>
        <time>2026-05-18T11:20:51Z</time>
      </trkpt>
      <trkpt lat="43.75047" lon="3.35891">
        <ele>342.5</ele>
        <time>2026-05-18T11:20:56Z</time>
      </trkpt>
      <trkpt lat="43.75043" lon="3.35891">
        <ele>342.9</ele>
        <time>2026-05-18T11:21:01Z</time>
      </trkpt>
      <trkpt lat="43.75038" lon="3.3589">
        <ele>343.2</ele>
        <time>2026-05-18T11:21:06Z</time>
      </trkpt>
      <trkpt lat="43.75033" lon="3.3589">
        <ele>343.8</ele>
        <time>2026-05-18T11:21:11Z</time>
      </trkpt>
      <trkpt lat="43.75028" lon="3.35888">
        <ele>343.9</ele>
        <time>2026-05-18T11:21:16Z</time>
      </trkpt>
      <trkpt lat="43.75023" lon="3.35886">
        <ele>344.1</ele>
        <time>2026-05-18T11:21:21Z</time>
      </trkpt>
      <trkpt lat="43.75019" lon="3.35882">
        <ele>343.8</ele>
        <time>2026-05-18T11:21:26Z</time>
      </trkpt>
      <trkpt lat="43.75019" lon="3.3588">
        <ele>343.4</ele>
        <time>2026-05-18T11:21:31Z</time>
      </trkpt>
      <trkpt lat="43.75019" lon="3.35879">
        <ele>343.3</ele>
        <time>2026-05-18T11:21:36Z</time>
      </trkpt>
      <trkpt lat="43.75019" lon="3.35879">
        <ele>343.3</ele>
        <time>2026-05-18T11:21:41Z</time>
      </trkpt>
      <trkpt lat="43.75019" lon="3.35879">
        <ele>343.3</ele>
        <time>2026-05-18T11:21:46Z</time>
      </trkpt>
      <trkpt lat="43.75019" lon="3.35879">
        <ele>343.3</ele>
        <time>2026-05-18T11:21:51Z</time>
      </trkpt>
      <trkpt lat="43.75019" lon="3.35879">
        <ele>343.3</ele>
        <time>2026-05-18T11:21:56Z</time>
      </trkpt>
      <trkpt lat="43.75019" lon="3.35879">
        <ele>343.3</ele>
        <time>2026-05-18T11:22:01Z</time>
      </trkpt>
      <trkpt lat="43.75019" lon="3.35879">
        <ele>343.3</ele>
        <time>2026-05-18T11:22:06Z</time>
      </trkpt>
      <trkpt lat="43.75019" lon="3.35879">
        <ele>343.3</ele>
        <time>2026-05-18T11:22:11Z</time>
      </trkpt>
      <trkpt lat="43.75017" lon="3.3588">
        <ele>343.7</ele>
        <time>2026-05-18T11:22:16Z</time>
      </trkpt>
      <trkpt lat="43.75011" lon="3.35881">
        <ele>344.4</ele>
        <time>2026-05-18T11:22:21Z</time>
      </trkpt>
      <trkpt lat="43.75004" lon="3.3588">
        <ele>345</ele>
        <time>2026-05-18T11:22:26Z</time>
      </trkpt>
      <trkpt lat="43.74997" lon="3.35881">
        <ele>346.1</ele>
        <time>2026-05-18T11:22:31Z</time>
      </trkpt>
      <trkpt lat="43.7499" lon="3.35881">
        <ele>347.4</ele>
        <time>2026-05-18T11:22:36Z</time>
      </trkpt>
      <trkpt lat="43.74986" lon="3.35883">
        <ele>348.5</ele>
        <time>2026-05-18T11:22:41Z</time>
      </trkpt>
      <trkpt lat="43.7498" lon="3.35887">
        <ele>350.3</ele>
        <time>2026-05-18T11:22:46Z</time>
      </trkpt>
      <trkpt lat="43.74972" lon="3.35888">
        <ele>351.9</ele>
        <time>2026-05-18T11:22:51Z</time>
      </trkpt>
      <trkpt lat="43.74967" lon="3.35888">
        <ele>352.8</ele>
        <time>2026-05-18T11:22:56Z</time>
      </trkpt>
      <trkpt lat="43.74961" lon="3.35887">
        <ele>353.7</ele>
        <time>2026-05-18T11:23:01Z</time>
      </trkpt>
      <trkpt lat="43.74956" lon="3.35883">
        <ele>353.9</ele>
        <time>2026-05-18T11:23:06Z</time>
      </trkpt>
      <trkpt lat="43.74952" lon="3.35878">
        <ele>353.7</ele>
        <time>2026-05-18T11:23:11Z</time>
      </trkpt>
      <trkpt lat="43.74947" lon="3.35874">
        <ele>353.9</ele>
        <time>2026-05-18T11:23:16Z</time>
      </trkpt>
      <trkpt lat="43.74942" lon="3.35866">
        <ele>353.3</ele>
        <time>2026-05-18T11:23:21Z</time>
      </trkpt>
      <trkpt lat="43.7494" lon="3.35859">
        <ele>352.4</ele>
        <time>2026-05-18T11:23:26Z</time>
      </trkpt>
      <trkpt lat="43.74935" lon="3.35852">
        <ele>352.1</ele>
        <time>2026-05-18T11:23:31Z</time>
      </trkpt>
      <trkpt lat="43.7493" lon="3.35849">
        <ele>352.4</ele>
        <time>2026-05-18T11:23:36Z</time>
      </trkpt>
      <trkpt lat="43.74923" lon="3.35847">
        <ele>353.3</ele>
        <time>2026-05-18T11:23:41Z</time>
      </trkpt>
      <trkpt lat="43.74916" lon="3.35847">
        <ele>354.7</ele>
        <time>2026-05-18T11:23:46Z</time>
      </trkpt>
      <trkpt lat="43.74911" lon="3.35847">
        <ele>356.3</ele>
        <time>2026-05-18T11:23:51Z</time>
      </trkpt>
      <trkpt lat="43.74904" lon="3.35842">
        <ele>357.6</ele>
        <time>2026-05-18T11:23:56Z</time>
      </trkpt>
      <trkpt lat="43.74899" lon="3.35833">
        <ele>357.7</ele>
        <time>2026-05-18T11:24:01Z</time>
      </trkpt>
      <trkpt lat="43.74898" lon="3.35824">
        <ele>356.7</ele>
        <time>2026-05-18T11:24:06Z</time>
      </trkpt>
      <trkpt lat="43.74896" lon="3.35817">
        <ele>356.2</ele>
        <time>2026-05-18T11:24:11Z</time>
      </trkpt>
      <trkpt lat="43.74892" lon="3.35807">
        <ele>356</ele>
        <time>2026-05-18T11:24:16Z</time>
      </trkpt>
      <trkpt lat="43.74888" lon="3.35803">
        <ele>356.5</ele>
        <time>2026-05-18T11:24:21Z</time>
      </trkpt>
      <trkpt lat="43.74882" lon="3.35798">
        <ele>357.5</ele>
        <time>2026-05-18T11:24:26Z</time>
      </trkpt>
      <trkpt lat="43.74878" lon="3.35797">
        <ele>358.5</ele>
        <time>2026-05-18T11:24:31Z</time>
      </trkpt>
      <trkpt lat="43.74871" lon="3.35796">
        <ele>360.4</ele>
        <time>2026-05-18T11:24:36Z</time>
      </trkpt>
      <trkpt lat="43.74865" lon="3.35795">
        <ele>362</ele>
        <time>2026-05-18T11:24:41Z</time>
      </trkpt>
      <trkpt lat="43.7486" lon="3.35792">
        <ele>362.9</ele>
        <time>2026-05-18T11:24:46Z</time>
      </trkpt>
      <trkpt lat="43.74852" lon="3.35788">
        <ele>364.4</ele>
        <time>2026-05-18T11:24:51Z</time>
      </trkpt>
      <trkpt lat="43.74846" lon="3.35782">
        <ele>365</ele>
        <time>2026-05-18T11:24:56Z</time>
      </trkpt>
      <trkpt lat="43.7484" lon="3.35774">
        <ele>365.1</ele>
        <time>2026-05-18T11:25:01Z</time>
      </trkpt>
      <trkpt lat="43.74835" lon="3.35768">
        <ele>365.2</ele>
        <time>2026-05-18T11:25:06Z</time>
      </trkpt>
      <trkpt lat="43.74835" lon="3.35761">
        <ele>363.8</ele>
        <time>2026-05-18T11:25:11Z</time>
      </trkpt>
      <trkpt lat="43.74836" lon="3.35755">
        <ele>362.3</ele>
        <time>2026-05-18T11:25:16Z</time>
      </trkpt>
      <trkpt lat="43.74838" lon="3.35754">
        <ele>361.6</ele>
        <time>2026-05-18T11:25:21Z</time>
      </trkpt>
      <trkpt lat="43.74838" lon="3.35754">
        <ele>361.6</ele>
        <time>2026-05-18T11:25:26Z</time>
      </trkpt>
      <trkpt lat="43.74843" lon="3.35744">
        <ele>359.4</ele>
        <time>2026-05-18T11:25:31Z</time>
      </trkpt>
      <trkpt lat="43.74846" lon="3.35736">
        <ele>358.4</ele>
        <time>2026-05-18T11:25:36Z</time>
      </trkpt>
      <trkpt lat="43.74848" lon="3.35727">
        <ele>357.6</ele>
        <time>2026-05-18T11:25:41Z</time>
      </trkpt>
      <trkpt lat="43.74851" lon="3.35719">
        <ele>356.7</ele>
        <time>2026-05-18T11:25:46Z</time>
      </trkpt>
      <trkpt lat="43.74853" lon="3.3571">
        <ele>355.9</ele>
        <time>2026-05-18T11:25:51Z</time>
      </trkpt>
      <trkpt lat="43.74854" lon="3.35702">
        <ele>355.5</ele>
        <time>2026-05-18T11:25:56Z</time>
      </trkpt>
      <trkpt lat="43.74855" lon="3.35694">
        <ele>355</ele>
        <time>2026-05-18T11:26:01Z</time>
      </trkpt>
      <trkpt lat="43.74854" lon="3.35685">
        <ele>355</ele>
        <time>2026-05-18T11:26:06Z</time>
      </trkpt>
      <trkpt lat="43.74852" lon="3.35677">
        <ele>355.3</ele>
        <time>2026-05-18T11:26:11Z</time>
      </trkpt>
      <trkpt lat="43.74849" lon="3.35669">
        <ele>355.7</ele>
        <time>2026-05-18T11:26:16Z</time>
      </trkpt>
      <trkpt lat="43.74844" lon="3.3566">
        <ele>356.8</ele>
        <time>2026-05-18T11:26:21Z</time>
      </trkpt>
      <trkpt lat="43.74841" lon="3.35655">
        <ele>357.6</ele>
        <time>2026-05-18T11:26:26Z</time>
      </trkpt>
      <trkpt lat="43.74837" lon="3.3565">
        <ele>358.6</ele>
        <time>2026-05-18T11:26:31Z</time>
      </trkpt>
      <trkpt lat="43.74833" lon="3.35644">
        <ele>359.6</ele>
        <time>2026-05-18T11:26:36Z</time>
      </trkpt>
      <trkpt lat="43.74828" lon="3.3564">
        <ele>361.1</ele>
        <time>2026-05-18T11:26:41Z</time>
      </trkpt>
      <trkpt lat="43.74824" lon="3.35636">
        <ele>362.4</ele>
        <time>2026-05-18T11:26:46Z</time>
      </trkpt>
      <trkpt lat="43.7482" lon="3.35633">
        <ele>363.6</ele>
        <time>2026-05-18T11:26:51Z</time>
      </trkpt>
      <trkpt lat="43.74816" lon="3.35627">
        <ele>364.8</ele>
        <time>2026-05-18T11:26:56Z</time>
      </trkpt>
      <trkpt lat="43.74811" lon="3.35621">
        <ele>366.4</ele>
        <time>2026-05-18T11:27:01Z</time>
      </trkpt>
      <trkpt lat="43.74807" lon="3.35616">
        <ele>367.7</ele>
        <time>2026-05-18T11:27:06Z</time>
      </trkpt>
      <trkpt lat="43.74805" lon="3.3561">
        <ele>368.4</ele>
        <time>2026-05-18T11:27:11Z</time>
      </trkpt>
      <trkpt lat="43.74803" lon="3.35604">
        <ele>369.1</ele>
        <time>2026-05-18T11:27:16Z</time>
      </trkpt>
      <trkpt lat="43.74802" lon="3.35599">
        <ele>369.6</ele>
        <time>2026-05-18T11:27:21Z</time>
      </trkpt>
      <trkpt lat="43.74802" lon="3.35593">
        <ele>369.7</ele>
        <time>2026-05-18T11:27:26Z</time>
      </trkpt>
      <trkpt lat="43.74801" lon="3.35588">
        <ele>370.2</ele>
        <time>2026-05-18T11:27:31Z</time>
      </trkpt>
      <trkpt lat="43.74799" lon="3.35581">
        <ele>370.9</ele>
        <time>2026-05-18T11:27:36Z</time>
      </trkpt>
      <trkpt lat="43.74799" lon="3.35576">
        <ele>371</ele>
        <time>2026-05-18T11:27:41Z</time>
      </trkpt>
      <trkpt lat="43.74798" lon="3.35571">
        <ele>371.3</ele>
        <time>2026-05-18T11:27:46Z</time>
      </trkpt>
      <trkpt lat="43.74795" lon="3.35564">
        <ele>372.3</ele>
        <time>2026-05-18T11:27:51Z</time>
      </trkpt>
      <trkpt lat="43.74792" lon="3.35559">
        <ele>373.3</ele>
        <time>2026-05-18T11:27:56Z</time>
      </trkpt>
      <trkpt lat="43.74787" lon="3.35553">
        <ele>375</ele>
        <time>2026-05-18T11:28:01Z</time>
      </trkpt>
      <trkpt lat="43.74783" lon="3.35547">
        <ele>376.5</ele>
        <time>2026-05-18T11:28:06Z</time>
      </trkpt>
      <trkpt lat="43.74782" lon="3.35542">
        <ele>376.9</ele>
        <time>2026-05-18T11:28:11Z</time>
      </trkpt>
      <trkpt lat="43.74781" lon="3.35536">
        <ele>377.4</ele>
        <time>2026-05-18T11:28:16Z</time>
      </trkpt>
      <trkpt lat="43.74781" lon="3.35529">
        <ele>377.6</ele>
        <time>2026-05-18T11:28:21Z</time>
      </trkpt>
      <trkpt lat="43.74781" lon="3.35522">
        <ele>377.8</ele>
        <time>2026-05-18T11:28:26Z</time>
      </trkpt>
      <trkpt lat="43.7478" lon="3.35515">
        <ele>378.4</ele>
        <time>2026-05-18T11:28:31Z</time>
      </trkpt>
      <trkpt lat="43.7478" lon="3.35509">
        <ele>378.6</ele>
        <time>2026-05-18T11:28:36Z</time>
      </trkpt>
      <trkpt lat="43.7478" lon="3.35504">
        <ele>378.7</ele>
        <time>2026-05-18T11:28:41Z</time>
      </trkpt>
      <trkpt lat="43.74778" lon="3.355">
        <ele>379.6</ele>
        <time>2026-05-18T11:28:46Z</time>
      </trkpt>
      <trkpt lat="43.74775" lon="3.35496">
        <ele>380.5</ele>
        <time>2026-05-18T11:28:51Z</time>
      </trkpt>
      <trkpt lat="43.74772" lon="3.35491">
        <ele>381.3</ele>
        <time>2026-05-18T11:28:56Z</time>
      </trkpt>
      <trkpt lat="43.74768" lon="3.35489">
        <ele>382.6</ele>
        <time>2026-05-18T11:29:01Z</time>
      </trkpt>
      <trkpt lat="43.74762" lon="3.35488">
        <ele>384.7</ele>
        <time>2026-05-18T11:29:06Z</time>
      </trkpt>
      <trkpt lat="43.74758" lon="3.35484">
        <ele>385.9</ele>
        <time>2026-05-18T11:29:11Z</time>
      </trkpt>
      <trkpt lat="43.74754" lon="3.3548">
        <ele>387.1</ele>
        <time>2026-05-18T11:29:16Z</time>
      </trkpt>
      <trkpt lat="43.74751" lon="3.35477">
        <ele>388</ele>
        <time>2026-05-18T11:29:21Z</time>
      </trkpt>
      <trkpt lat="43.74747" lon="3.35473">
        <ele>388.6</ele>
        <time>2026-05-18T11:29:26Z</time>
      </trkpt>
      <trkpt lat="43.74742" lon="3.35469">
        <ele>389.3</ele>
        <time>2026-05-18T11:29:31Z</time>
      </trkpt>
      <trkpt lat="43.74738" lon="3.35465">
        <ele>389.8</ele>
        <time>2026-05-18T11:29:36Z</time>
      </trkpt>
      <trkpt lat="43.74735" lon="3.35461">
        <ele>390.1</ele>
        <time>2026-05-18T11:29:41Z</time>
      </trkpt>
      <trkpt lat="43.74732" lon="3.35453">
        <ele>390.1</ele>
        <time>2026-05-18T11:29:46Z</time>
      </trkpt>
      <trkpt lat="43.74732" lon="3.35446">
        <ele>389.6</ele>
        <time>2026-05-18T11:29:51Z</time>
      </trkpt>
      <trkpt lat="43.74733" lon="3.35443">
        <ele>389.2</ele>
        <time>2026-05-18T11:29:56Z</time>
      </trkpt>
      <trkpt lat="43.74733" lon="3.35442">
        <ele>389.1</ele>
        <time>2026-05-18T11:30:01Z</time>
      </trkpt>
      <trkpt lat="43.74733" lon="3.35442">
        <ele>389.1</ele>
        <time>2026-05-18T11:30:06Z</time>
      </trkpt>
      <trkpt lat="43.74733" lon="3.35442">
        <ele>389.1</ele>
        <time>2026-05-18T11:30:11Z</time>
      </trkpt>
      <trkpt lat="43.74733" lon="3.35442">
        <ele>389.1</ele>
        <time>2026-05-18T11:30:16Z</time>
      </trkpt>
      <trkpt lat="43.74733" lon="3.35442">
        <ele>389.1</ele>
        <time>2026-05-18T11:30:21Z</time>
      </trkpt>
      <trkpt lat="43.74731" lon="3.35439">
        <ele>389.3</ele>
        <time>2026-05-18T11:30:26Z</time>
      </trkpt>
      <trkpt lat="43.74729" lon="3.35436">
        <ele>389.4</ele>
        <time>2026-05-18T11:30:31Z</time>
      </trkpt>
      <trkpt lat="43.74728" lon="3.35434">
        <ele>389.5</ele>
        <time>2026-05-18T11:30:36Z</time>
      </trkpt>
      <trkpt lat="43.74726" lon="3.3543">
        <ele>389.6</ele>
        <time>2026-05-18T11:30:41Z</time>
      </trkpt>
      <trkpt lat="43.74723" lon="3.35424">
        <ele>389.7</ele>
        <time>2026-05-18T11:30:46Z</time>
      </trkpt>
      <trkpt lat="43.74721" lon="3.35419">
        <ele>389.7</ele>
        <time>2026-05-18T11:30:51Z</time>
      </trkpt>
      <trkpt lat="43.74717" lon="3.35415">
        <ele>390.1</ele>
        <time>2026-05-18T11:30:56Z</time>
      </trkpt>
      <trkpt lat="43.74712" lon="3.35409">
        <ele>390.4</ele>
        <time>2026-05-18T11:31:01Z</time>
      </trkpt>
      <trkpt lat="43.74709" lon="3.35401">
        <ele>390.1</ele>
        <time>2026-05-18T11:31:06Z</time>
      </trkpt>
      <trkpt lat="43.74708" lon="3.35392">
        <ele>389.3</ele>
        <time>2026-05-18T11:31:11Z</time>
      </trkpt>
      <trkpt lat="43.74707" lon="3.35382">
        <ele>388.3</ele>
        <time>2026-05-18T11:31:16Z</time>
      </trkpt>
      <trkpt lat="43.74706" lon="3.35373">
        <ele>387.5</ele>
        <time>2026-05-18T11:31:21Z</time>
      </trkpt>
      <trkpt lat="43.74706" lon="3.35366">
        <ele>386.7</ele>
        <time>2026-05-18T11:31:26Z</time>
      </trkpt>
      <trkpt lat="43.74706" lon="3.35361">
        <ele>386.2</ele>
        <time>2026-05-18T11:31:31Z</time>
      </trkpt>
      <trkpt lat="43.74705" lon="3.35358">
        <ele>386</ele>
        <time>2026-05-18T11:31:36Z</time>
      </trkpt>
      <trkpt lat="43.74705" lon="3.35357">
        <ele>385.9</ele>
        <time>2026-05-18T11:31:41Z</time>
      </trkpt>
      <trkpt lat="43.74704" lon="3.35349">
        <ele>385.2</ele>
        <time>2026-05-18T11:31:46Z</time>
      </trkpt>
      <trkpt lat="43.74704" lon="3.35341">
        <ele>384.3</ele>
        <time>2026-05-18T11:31:51Z</time>
      </trkpt>
      <trkpt lat="43.74702" lon="3.35332">
        <ele>383.8</ele>
        <time>2026-05-18T11:31:56Z</time>
      </trkpt>
      <trkpt lat="43.74697" lon="3.35326">
        <ele>384.4</ele>
        <time>2026-05-18T11:32:01Z</time>
      </trkpt>
      <trkpt lat="43.74693" lon="3.3532">
        <ele>384.7</ele>
        <time>2026-05-18T11:32:06Z</time>
      </trkpt>
      <trkpt lat="43.74689" lon="3.35312">
        <ele>384.9</ele>
        <time>2026-05-18T11:32:11Z</time>
      </trkpt>
      <trkpt lat="43.74686" lon="3.35303">
        <ele>384.7</ele>
        <time>2026-05-18T11:32:16Z</time>
      </trkpt>
      <trkpt lat="43.74683" lon="3.35293">
        <ele>384.4</ele>
        <time>2026-05-18T11:32:21Z</time>
      </trkpt>
      <trkpt lat="43.74683" lon="3.35285">
        <ele>383.6</ele>
        <time>2026-05-18T11:32:26Z</time>
      </trkpt>
      <trkpt lat="43.74682" lon="3.35276">
        <ele>383</ele>
        <time>2026-05-18T11:32:31Z</time>
      </trkpt>
      <trkpt lat="43.7468" lon="3.35268">
        <ele>382.7</ele>
        <time>2026-05-18T11:32:36Z</time>
      </trkpt>
      <trkpt lat="43.74679" lon="3.35262">
        <ele>382.3</ele>
        <time>2026-05-18T11:32:41Z</time>
      </trkpt>
      <trkpt lat="43.74679" lon="3.35252">
        <ele>381.4</ele>
        <time>2026-05-18T11:32:46Z</time>
      </trkpt>
      <trkpt lat="43.74677" lon="3.35243">
        <ele>380.9</ele>
        <time>2026-05-18T11:32:51Z</time>
      </trkpt>
      <trkpt lat="43.74676" lon="3.35234">
        <ele>380.2</ele>
        <time>2026-05-18T11:32:56Z</time>
      </trkpt>
      <trkpt lat="43.74675" lon="3.35228">
        <ele>379.8</ele>
        <time>2026-05-18T11:33:01Z</time>
      </trkpt>
      <trkpt lat="43.74671" lon="3.35222">
        <ele>380</ele>
        <time>2026-05-18T11:33:06Z</time>
      </trkpt>
      <trkpt lat="43.74666" lon="3.35214">
        <ele>380.2</ele>
        <time>2026-05-18T11:33:11Z</time>
      </trkpt>
      <trkpt lat="43.74662" lon="3.35207">
        <ele>380.2</ele>
        <time>2026-05-18T11:33:16Z</time>
      </trkpt>
      <trkpt lat="43.74655" lon="3.352">
        <ele>380.8</ele>
        <time>2026-05-18T11:33:21Z</time>
      </trkpt>
      <trkpt lat="43.7465" lon="3.35195">
        <ele>381.2</ele>
        <time>2026-05-18T11:33:26Z</time>
      </trkpt>
      <trkpt lat="43.74647" lon="3.35193">
        <ele>381.5</ele>
        <time>2026-05-18T11:33:31Z</time>
      </trkpt>
      <trkpt lat="43.74641" lon="3.3519">
        <ele>382.4</ele>
        <time>2026-05-18T11:33:36Z</time>
      </trkpt>
      <trkpt lat="43.74636" lon="3.35187">
        <ele>383</ele>
        <time>2026-05-18T11:33:41Z</time>
      </trkpt>
      <trkpt lat="43.7463" lon="3.35181">
        <ele>383.5</ele>
        <time>2026-05-18T11:33:46Z</time>
      </trkpt>
      <trkpt lat="43.74627" lon="3.35178">
        <ele>383.8</ele>
        <time>2026-05-18T11:33:51Z</time>
      </trkpt>
      <trkpt lat="43.74624" lon="3.35173">
        <ele>383.8</ele>
        <time>2026-05-18T11:33:56Z</time>
      </trkpt>
      <trkpt lat="43.74621" lon="3.35168">
        <ele>383.9</ele>
        <time>2026-05-18T11:34:01Z</time>
      </trkpt>
      <trkpt lat="43.74616" lon="3.35164">
        <ele>384.3</ele>
        <time>2026-05-18T11:34:06Z</time>
      </trkpt>
      <trkpt lat="43.74614" lon="3.35165">
        <ele>384.8</ele>
        <time>2026-05-18T11:34:11Z</time>
      </trkpt>
      <trkpt lat="43.7461" lon="3.35167">
        <ele>385.9</ele>
        <time>2026-05-18T11:34:16Z</time>
      </trkpt>
      <trkpt lat="43.74608" lon="3.35167">
        <ele>386.3</ele>
        <time>2026-05-18T11:34:21Z</time>
      </trkpt>
      <trkpt lat="43.74607" lon="3.35167">
        <ele>386.5</ele>
        <time>2026-05-18T11:34:26Z</time>
      </trkpt>
      <trkpt lat="43.74609" lon="3.3517">
        <ele>386.4</ele>
        <time>2026-05-18T11:34:31Z</time>
      </trkpt>
      <trkpt lat="43.74611" lon="3.35175">
        <ele>386.5</ele>
        <time>2026-05-18T11:34:36Z</time>
      </trkpt>
      <trkpt lat="43.7461" lon="3.35179">
        <ele>387.1</ele>
        <time>2026-05-18T11:34:41Z</time>
      </trkpt>
      <trkpt lat="43.74606" lon="3.3518">
        <ele>388</ele>
        <time>2026-05-18T11:34:46Z</time>
      </trkpt>
      <trkpt lat="43.74603" lon="3.35185">
        <ele>389</ele>
        <time>2026-05-18T11:34:51Z</time>
      </trkpt>
      <trkpt lat="43.746" lon="3.35191">
        <ele>390.2</ele>
        <time>2026-05-18T11:34:56Z</time>
      </trkpt>
      <trkpt lat="43.74598" lon="3.35195">
        <ele>391</ele>
        <time>2026-05-18T11:35:01Z</time>
      </trkpt>
      <trkpt lat="43.74594" lon="3.35196">
        <ele>391.8</ele>
        <time>2026-05-18T11:35:06Z</time>
      </trkpt>
      <trkpt lat="43.7459" lon="3.35197">
        <ele>392.7</ele>
        <time>2026-05-18T11:35:11Z</time>
      </trkpt>
      <trkpt lat="43.74589" lon="3.35199">
        <ele>393</ele>
        <time>2026-05-18T11:35:16Z</time>
      </trkpt>
      <trkpt lat="43.74589" lon="3.35199">
        <ele>393</ele>
        <time>2026-05-18T11:35:21Z</time>
      </trkpt>
      <trkpt lat="43.74589" lon="3.35199">
        <ele>393</ele>
        <time>2026-05-18T11:35:26Z</time>
      </trkpt>
      <trkpt lat="43.74586" lon="3.35212">
        <ele>394.9</ele>
        <time>2026-05-18T11:35:31Z</time>
      </trkpt>
      <trkpt lat="43.74586" lon="3.35213">
        <ele>395</ele>
        <time>2026-05-18T11:35:36Z</time>
      </trkpt>
      <trkpt lat="43.74586" lon="3.35213">
        <ele>395</ele>
        <time>2026-05-18T11:35:41Z</time>
      </trkpt>
      <trkpt lat="43.74586" lon="3.35213">
        <ele>395</ele>
        <time>2026-05-18T11:35:46Z</time>
      </trkpt>
      <trkpt lat="43.74589" lon="3.35227">
        <ele>395.8</ele>
        <time>2026-05-18T11:35:51Z</time>
      </trkpt>
      <trkpt lat="43.74589" lon="3.35227">
        <ele>395.8</ele>
        <time>2026-05-18T11:35:56Z</time>
      </trkpt>
      <trkpt lat="43.74589" lon="3.35227">
        <ele>395.8</ele>
        <time>2026-05-18T11:36:01Z</time>
      </trkpt>
      <trkpt lat="43.74589" lon="3.35227">
        <ele>395.8</ele>
        <time>2026-05-18T11:36:06Z</time>
      </trkpt>
      <trkpt lat="43.74579" lon="3.35225">
        <ele>397.2</ele>
        <time>2026-05-18T11:36:11Z</time>
      </trkpt>
      <trkpt lat="43.74578" lon="3.35225">
        <ele>397.3</ele>
        <time>2026-05-18T11:36:16Z</time>
      </trkpt>
      <trkpt lat="43.74578" lon="3.35225">
        <ele>397.3</ele>
        <time>2026-05-18T11:36:21Z</time>
      </trkpt>
      <trkpt lat="43.74578" lon="3.35225">
        <ele>397.3</ele>
        <time>2026-05-18T11:36:26Z</time>
      </trkpt>
      <trkpt lat="43.74572" lon="3.35234">
        <ele>399</ele>
        <time>2026-05-18T11:36:31Z</time>
      </trkpt>
      <trkpt lat="43.74571" lon="3.35235">
        <ele>399.2</ele>
        <time>2026-05-18T11:36:36Z</time>
      </trkpt>
      <trkpt lat="43.74571" lon="3.35235">
        <ele>399.2</ele>
        <time>2026-05-18T11:36:41Z</time>
      </trkpt>
      <trkpt lat="43.74571" lon="3.35235">
        <ele>399.2</ele>
        <time>2026-05-18T11:36:46Z</time>
      </trkpt>
      <trkpt lat="43.74571" lon="3.35235">
        <ele>399.2</ele>
        <time>2026-05-18T11:36:51Z</time>
      </trkpt>
      <trkpt lat="43.74568" lon="3.35249">
        <ele>400.9</ele>
        <time>2026-05-18T11:36:56Z</time>
      </trkpt>
      <trkpt lat="43.74568" lon="3.3525">
        <ele>401</ele>
        <time>2026-05-18T11:37:01Z</time>
      </trkpt>
      <trkpt lat="43.74564" lon="3.35254">
        <ele>402.1</ele>
        <time>2026-05-18T11:37:06Z</time>
      </trkpt>
      <trkpt lat="43.74563" lon="3.35254">
        <ele>402.3</ele>
        <time>2026-05-18T11:37:11Z</time>
      </trkpt>
      <trkpt lat="43.74561" lon="3.35259">
        <ele>403.2</ele>
        <time>2026-05-18T11:37:16Z</time>
      </trkpt>
      <trkpt lat="43.74558" lon="3.35263">
        <ele>404.2</ele>
        <time>2026-05-18T11:37:21Z</time>
      </trkpt>
      <trkpt lat="43.74557" lon="3.35266">
        <ele>404.8</ele>
        <time>2026-05-18T11:37:26Z</time>
      </trkpt>
      <trkpt lat="43.74557" lon="3.35268">
        <ele>405.1</ele>
        <time>2026-05-18T11:37:31Z</time>
      </trkpt>
      <trkpt lat="43.74557" lon="3.35268">
        <ele>405.1</ele>
        <time>2026-05-18T11:37:36Z</time>
      </trkpt>
      <trkpt lat="43.74557" lon="3.35268">
        <ele>405.1</ele>
        <time>2026-05-18T11:37:41Z</time>
      </trkpt>
      <trkpt lat="43.74557" lon="3.35268">
        <ele>405.1</ele>
        <time>2026-05-18T11:37:46Z</time>
      </trkpt>
      <trkpt lat="43.74555" lon="3.3528">
        <ele>407.1</ele>
        <time>2026-05-18T11:37:51Z</time>
      </trkpt>
      <trkpt lat="43.74554" lon="3.35282">
        <ele>407.5</ele>
        <time>2026-05-18T11:37:56Z</time>
      </trkpt>
      <trkpt lat="43.74554" lon="3.35282">
        <ele>407.5</ele>
        <time>2026-05-18T11:38:01Z</time>
      </trkpt>
      <trkpt lat="43.74556" lon="3.35288">
        <ele>408.1</ele>
        <time>2026-05-18T11:38:06Z</time>
      </trkpt>
      <trkpt lat="43.74557" lon="3.35291">
        <ele>408.4</ele>
        <time>2026-05-18T11:38:11Z</time>
      </trkpt>
      <trkpt lat="43.74555" lon="3.35297">
        <ele>409.5</ele>
        <time>2026-05-18T11:38:16Z</time>
      </trkpt>
      <trkpt lat="43.74556" lon="3.35301">
        <ele>410</ele>
        <time>2026-05-18T11:38:21Z</time>
      </trkpt>
      <trkpt lat="43.74557" lon="3.35305">
        <ele>410.4</ele>
        <time>2026-05-18T11:38:26Z</time>
      </trkpt>
      <trkpt lat="43.74558" lon="3.35309">
        <ele>410.8</ele>
        <time>2026-05-18T11:38:31Z</time>
      </trkpt>
      <trkpt lat="43.7456" lon="3.35312">
        <ele>411</ele>
        <time>2026-05-18T11:38:36Z</time>
      </trkpt>
      <trkpt lat="43.74562" lon="3.35317">
        <ele>411.5</ele>
        <time>2026-05-18T11:38:41Z</time>
      </trkpt>
      <trkpt lat="43.74564" lon="3.35322">
        <ele>411.9</ele>
        <time>2026-05-18T11:38:46Z</time>
      </trkpt>
      <trkpt lat="43.74564" lon="3.35326">
        <ele>412.5</ele>
        <time>2026-05-18T11:38:51Z</time>
      </trkpt>
      <trkpt lat="43.74561" lon="3.35332">
        <ele>413.8</ele>
        <time>2026-05-18T11:38:56Z</time>
      </trkpt>
      <trkpt lat="43.74558" lon="3.35338">
        <ele>415.5</ele>
        <time>2026-05-18T11:39:01Z</time>
      </trkpt>
      <trkpt lat="43.74554" lon="3.35344">
        <ele>417.5</ele>
        <time>2026-05-18T11:39:06Z</time>
      </trkpt>
      <trkpt lat="43.74551" lon="3.35351">
        <ele>419.7</ele>
        <time>2026-05-18T11:39:11Z</time>
      </trkpt>
      <trkpt lat="43.74549" lon="3.35353">
        <ele>420.5</ele>
        <time>2026-05-18T11:39:16Z</time>
      </trkpt>
      <trkpt lat="43.74549" lon="3.35355">
        <ele>421</ele>
        <time>2026-05-18T11:39:21Z</time>
      </trkpt>
      <trkpt lat="43.74546" lon="3.35356">
        <ele>421.7</ele>
        <time>2026-05-18T11:39:26Z</time>
      </trkpt>
      <trkpt lat="43.74543" lon="3.35357">
        <ele>422.4</ele>
        <time>2026-05-18T11:39:31Z</time>
      </trkpt>
      <trkpt lat="43.74543" lon="3.35357">
        <ele>422.4</ele>
        <time>2026-05-18T11:39:36Z</time>
      </trkpt>
      <trkpt lat="43.74542" lon="3.3535">
        <ele>420.8</ele>
        <time>2026-05-18T11:39:41Z</time>
      </trkpt>
      <trkpt lat="43.7454" lon="3.35344">
        <ele>419.5</ele>
        <time>2026-05-18T11:39:46Z</time>
      </trkpt>
      <trkpt lat="43.74536" lon="3.35339">
        <ele>418.7</ele>
        <time>2026-05-18T11:39:51Z</time>
      </trkpt>
      <trkpt lat="43.7453" lon="3.35335">
        <ele>418.5</ele>
        <time>2026-05-18T11:39:56Z</time>
      </trkpt>
      <trkpt lat="43.74524" lon="3.35333">
        <ele>418.8</ele>
        <time>2026-05-18T11:40:01Z</time>
      </trkpt>
      <trkpt lat="43.74518" lon="3.35331">
        <ele>419.3</ele>
        <time>2026-05-18T11:40:06Z</time>
      </trkpt>
      <trkpt lat="43.74515" lon="3.35332">
        <ele>419.8</ele>
        <time>2026-05-18T11:40:11Z</time>
      </trkpt>
      <trkpt lat="43.7451" lon="3.35332">
        <ele>420.5</ele>
        <time>2026-05-18T11:40:16Z</time>
      </trkpt>
      <trkpt lat="43.74504" lon="3.35332">
        <ele>421.3</ele>
        <time>2026-05-18T11:40:21Z</time>
      </trkpt>
      <trkpt lat="43.74498" lon="3.35332">
        <ele>421.9</ele>
        <time>2026-05-18T11:40:26Z</time>
      </trkpt>
      <trkpt lat="43.74492" lon="3.35332">
        <ele>422.2</ele>
        <time>2026-05-18T11:40:31Z</time>
      </trkpt>
      <trkpt lat="43.74487" lon="3.35334">
        <ele>422.8</ele>
        <time>2026-05-18T11:40:36Z</time>
      </trkpt>
      <trkpt lat="43.74481" lon="3.35334">
        <ele>423.1</ele>
        <time>2026-05-18T11:40:41Z</time>
      </trkpt>
      <trkpt lat="43.74475" lon="3.35332">
        <ele>423</ele>
        <time>2026-05-18T11:40:46Z</time>
      </trkpt>
      <trkpt lat="43.7447" lon="3.35331">
        <ele>423.1</ele>
        <time>2026-05-18T11:40:51Z</time>
      </trkpt>
      <trkpt lat="43.74466" lon="3.3533">
        <ele>423.2</ele>
        <time>2026-05-18T11:40:56Z</time>
      </trkpt>
      <trkpt lat="43.74461" lon="3.35327">
        <ele>423</ele>
        <time>2026-05-18T11:41:01Z</time>
      </trkpt>
      <trkpt lat="43.74456" lon="3.35321">
        <ele>422.4</ele>
        <time>2026-05-18T11:41:06Z</time>
      </trkpt>
      <trkpt lat="43.7445" lon="3.35316">
        <ele>422</ele>
        <time>2026-05-18T11:41:11Z</time>
      </trkpt>
      <trkpt lat="43.74447" lon="3.3531">
        <ele>421.4</ele>
        <time>2026-05-18T11:41:16Z</time>
      </trkpt>
      <trkpt lat="43.74445" lon="3.35304">
        <ele>420.6</ele>
        <time>2026-05-18T11:41:21Z</time>
      </trkpt>
      <trkpt lat="43.74444" lon="3.35296">
        <ele>419.6</ele>
        <time>2026-05-18T11:41:26Z</time>
      </trkpt>
      <trkpt lat="43.74442" lon="3.35287">
        <ele>418.5</ele>
        <time>2026-05-18T11:41:31Z</time>
      </trkpt>
      <trkpt lat="43.74439" lon="3.3528">
        <ele>417.7</ele>
        <time>2026-05-18T11:41:36Z</time>
      </trkpt>
      <trkpt lat="43.74435" lon="3.35274">
        <ele>417.1</ele>
        <time>2026-05-18T11:41:41Z</time>
      </trkpt>
      <trkpt lat="43.74429" lon="3.35271">
        <ele>417.1</ele>
        <time>2026-05-18T11:41:46Z</time>
      </trkpt>
      <trkpt lat="43.74424" lon="3.3527">
        <ele>417.2</ele>
        <time>2026-05-18T11:41:51Z</time>
      </trkpt>
      <trkpt lat="43.74419" lon="3.35269">
        <ele>417.4</ele>
        <time>2026-05-18T11:41:56Z</time>
      </trkpt>
      <trkpt lat="43.74415" lon="3.35267">
        <ele>417.4</ele>
        <time>2026-05-18T11:42:01Z</time>
      </trkpt>
      <trkpt lat="43.7441" lon="3.35263">
        <ele>417.3</ele>
        <time>2026-05-18T11:42:06Z</time>
      </trkpt>
      <trkpt lat="43.74404" lon="3.35261">
        <ele>417.6</ele>
        <time>2026-05-18T11:42:11Z</time>
      </trkpt>
      <trkpt lat="43.74399" lon="3.35259">
        <ele>417.8</ele>
        <time>2026-05-18T11:42:16Z</time>
      </trkpt>
      <trkpt lat="43.74393" lon="3.35257">
        <ele>418</ele>
        <time>2026-05-18T11:42:21Z</time>
      </trkpt>
      <trkpt lat="43.74388" lon="3.35257">
        <ele>418.5</ele>
        <time>2026-05-18T11:42:26Z</time>
      </trkpt>
      <trkpt lat="43.74382" lon="3.35255">
        <ele>418.7</ele>
        <time>2026-05-18T11:42:31Z</time>
      </trkpt>
      <trkpt lat="43.74377" lon="3.35254">
        <ele>419</ele>
        <time>2026-05-18T11:42:36Z</time>
      </trkpt>
      <trkpt lat="43.74371" lon="3.35255">
        <ele>419.7</ele>
        <time>2026-05-18T11:42:41Z</time>
      </trkpt>
      <trkpt lat="43.74365" lon="3.35255">
        <ele>420.2</ele>
        <time>2026-05-18T11:42:46Z</time>
      </trkpt>
      <trkpt lat="43.74359" lon="3.35255">
        <ele>420.7</ele>
        <time>2026-05-18T11:42:51Z</time>
      </trkpt>
      <trkpt lat="43.74354" lon="3.35256">
        <ele>421.3</ele>
        <time>2026-05-18T11:42:56Z</time>
      </trkpt>
      <trkpt lat="43.74349" lon="3.35258">
        <ele>422.1</ele>
        <time>2026-05-18T11:43:01Z</time>
      </trkpt>
      <trkpt lat="43.74343" lon="3.35261">
        <ele>423.2</ele>
        <time>2026-05-18T11:43:06Z</time>
      </trkpt>
      <trkpt lat="43.7434" lon="3.35261">
        <ele>423.5</ele>
        <time>2026-05-18T11:43:11Z</time>
      </trkpt>
      <trkpt lat="43.74339" lon="3.35263">
        <ele>424</ele>
        <time>2026-05-18T11:43:16Z</time>
      </trkpt>
      <trkpt lat="43.74339" lon="3.35263">
        <ele>424</ele>
        <time>2026-05-18T11:43:21Z</time>
      </trkpt>
      <trkpt lat="43.74333" lon="3.35271">
        <ele>426</ele>
        <time>2026-05-18T11:43:26Z</time>
      </trkpt>
      <trkpt lat="43.74327" lon="3.35274">
        <ele>426.7</ele>
        <time>2026-05-18T11:43:31Z</time>
      </trkpt>
      <trkpt lat="43.74322" lon="3.35278">
        <ele>427.5</ele>
        <time>2026-05-18T11:43:36Z</time>
      </trkpt>
      <trkpt lat="43.74319" lon="3.35282">
        <ele>428.3</ele>
        <time>2026-05-18T11:43:41Z</time>
      </trkpt>
      <trkpt lat="43.74315" lon="3.35287">
        <ele>429.3</ele>
        <time>2026-05-18T11:43:46Z</time>
      </trkpt>
      <trkpt lat="43.74311" lon="3.35291">
        <ele>430.1</ele>
        <time>2026-05-18T11:43:51Z</time>
      </trkpt>
      <trkpt lat="43.74306" lon="3.35295">
        <ele>431</ele>
        <time>2026-05-18T11:43:56Z</time>
      </trkpt>
      <trkpt lat="43.74302" lon="3.35299">
        <ele>431.9</ele>
        <time>2026-05-18T11:44:01Z</time>
      </trkpt>
      <trkpt lat="43.74298" lon="3.35302">
        <ele>432.5</ele>
        <time>2026-05-18T11:44:06Z</time>
      </trkpt>
      <trkpt lat="43.74295" lon="3.35306">
        <ele>433.4</ele>
        <time>2026-05-18T11:44:11Z</time>
      </trkpt>
      <trkpt lat="43.74291" lon="3.35312">
        <ele>434.7</ele>
        <time>2026-05-18T11:44:16Z</time>
      </trkpt>
      <trkpt lat="43.74287" lon="3.35316">
        <ele>435.6</ele>
        <time>2026-05-18T11:44:21Z</time>
      </trkpt>
      <trkpt lat="43.74283" lon="3.35321">
        <ele>436.7</ele>
        <time>2026-05-18T11:44:26Z</time>
      </trkpt>
      <trkpt lat="43.7428" lon="3.35325">
        <ele>437.6</ele>
        <time>2026-05-18T11:44:31Z</time>
      </trkpt>
      <trkpt lat="43.74275" lon="3.35327">
        <ele>438.1</ele>
        <time>2026-05-18T11:44:36Z</time>
      </trkpt>
      <trkpt lat="43.74271" lon="3.35329">
        <ele>438.6</ele>
        <time>2026-05-18T11:44:41Z</time>
      </trkpt>
      <trkpt lat="43.74267" lon="3.35329">
        <ele>438.7</ele>
        <time>2026-05-18T11:44:46Z</time>
      </trkpt>
      <trkpt lat="43.74265" lon="3.35329">
        <ele>438.7</ele>
        <time>2026-05-18T11:44:51Z</time>
      </trkpt>
      <trkpt lat="43.74262" lon="3.3533">
        <ele>439</ele>
        <time>2026-05-18T11:44:56Z</time>
      </trkpt>
      <trkpt lat="43.74259" lon="3.35332">
        <ele>439.5</ele>
        <time>2026-05-18T11:45:01Z</time>
      </trkpt>
      <trkpt lat="43.74256" lon="3.35334">
        <ele>440</ele>
        <time>2026-05-18T11:45:06Z</time>
      </trkpt>
      <trkpt lat="43.74253" lon="3.35334">
        <ele>440.1</ele>
        <time>2026-05-18T11:45:11Z</time>
      </trkpt>
      <trkpt lat="43.74248" lon="3.35332">
        <ele>439.7</ele>
        <time>2026-05-18T11:45:16Z</time>
      </trkpt>
      <trkpt lat="43.74242" lon="3.3533">
        <ele>439.4</ele>
        <time>2026-05-18T11:45:21Z</time>
      </trkpt>
      <trkpt lat="43.74238" lon="3.35331">
        <ele>439.6</ele>
        <time>2026-05-18T11:45:26Z</time>
      </trkpt>
      <trkpt lat="43.74235" lon="3.35331">
        <ele>439.7</ele>
        <time>2026-05-18T11:45:31Z</time>
      </trkpt>
      <trkpt lat="43.74233" lon="3.35331">
        <ele>439.7</ele>
        <time>2026-05-18T11:45:36Z</time>
      </trkpt>
      <trkpt lat="43.74229" lon="3.35329">
        <ele>439.3</ele>
        <time>2026-05-18T11:45:41Z</time>
      </trkpt>
      <trkpt lat="43.74225" lon="3.35329">
        <ele>439.4</ele>
        <time>2026-05-18T11:45:46Z</time>
      </trkpt>
      <trkpt lat="43.7422" lon="3.35328">
        <ele>439.3</ele>
        <time>2026-05-18T11:45:51Z</time>
      </trkpt>
      <trkpt lat="43.74216" lon="3.35329">
        <ele>439.5</ele>
        <time>2026-05-18T11:45:56Z</time>
      </trkpt>
      <trkpt lat="43.74214" lon="3.35331">
        <ele>440</ele>
        <time>2026-05-18T11:46:01Z</time>
      </trkpt>
      <trkpt lat="43.74213" lon="3.35332">
        <ele>440.2</ele>
        <time>2026-05-18T11:46:06Z</time>
      </trkpt>
      <trkpt lat="43.74213" lon="3.35332">
        <ele>440.2</ele>
        <time>2026-05-18T11:46:11Z</time>
      </trkpt>
      <trkpt lat="43.74212" lon="3.35332">
        <ele>440.2</ele>
        <time>2026-05-18T11:46:16Z</time>
      </trkpt>
      <trkpt lat="43.74209" lon="3.3533">
        <ele>439.8</ele>
        <time>2026-05-18T11:46:21Z</time>
      </trkpt>
      <trkpt lat="43.74207" lon="3.35331">
        <ele>440</ele>
        <time>2026-05-18T11:46:26Z</time>
      </trkpt>
      <trkpt lat="43.74203" lon="3.3533">
        <ele>439.9</ele>
        <time>2026-05-18T11:46:31Z</time>
      </trkpt>
      <trkpt lat="43.74199" lon="3.35329">
        <ele>439.7</ele>
        <time>2026-05-18T11:46:36Z</time>
      </trkpt>
      <trkpt lat="43.74196" lon="3.35331">
        <ele>440.2</ele>
        <time>2026-05-18T11:46:41Z</time>
      </trkpt>
      <trkpt lat="43.74191" lon="3.35333">
        <ele>440.6</ele>
        <time>2026-05-18T11:46:46Z</time>
      </trkpt>
      <trkpt lat="43.74186" lon="3.35337">
        <ele>441.7</ele>
        <time>2026-05-18T11:46:51Z</time>
      </trkpt>
      <trkpt lat="43.74183" lon="3.35341">
        <ele>442.8</ele>
        <time>2026-05-18T11:46:56Z</time>
      </trkpt>
      <trkpt lat="43.74179" lon="3.35345">
        <ele>443.9</ele>
        <time>2026-05-18T11:47:01Z</time>
      </trkpt>
      <trkpt lat="43.74176" lon="3.3535">
        <ele>445.2</ele>
        <time>2026-05-18T11:47:06Z</time>
      </trkpt>
      <trkpt lat="43.74173" lon="3.35354">
        <ele>446.2</ele>
        <time>2026-05-18T11:47:11Z</time>
      </trkpt>
      <trkpt lat="43.7417" lon="3.35358">
        <ele>447.2</ele>
        <time>2026-05-18T11:47:16Z</time>
      </trkpt>
      <trkpt lat="43.74166" lon="3.35361">
        <ele>448</ele>
        <time>2026-05-18T11:47:21Z</time>
      </trkpt>
      <trkpt lat="43.74163" lon="3.35366">
        <ele>449.6</ele>
        <time>2026-05-18T11:47:26Z</time>
      </trkpt>
      <trkpt lat="43.7416" lon="3.35369">
        <ele>450.6</ele>
        <time>2026-05-18T11:47:31Z</time>
      </trkpt>
      <trkpt lat="43.74157" lon="3.35372">
        <ele>451.6</ele>
        <time>2026-05-18T11:47:36Z</time>
      </trkpt>
      <trkpt lat="43.74155" lon="3.35376">
        <ele>452.7</ele>
        <time>2026-05-18T11:47:41Z</time>
      </trkpt>
      <trkpt lat="43.74152" lon="3.35381">
        <ele>454.1</ele>
        <time>2026-05-18T11:47:46Z</time>
      </trkpt>
      <trkpt lat="43.74148" lon="3.35382">
        <ele>454.6</ele>
        <time>2026-05-18T11:47:51Z</time>
      </trkpt>
      <trkpt lat="43.74144" lon="3.35383">
        <ele>455.1</ele>
        <time>2026-05-18T11:47:56Z</time>
      </trkpt>
      <trkpt lat="43.74139" lon="3.35387">
        <ele>456.3</ele>
        <time>2026-05-18T11:48:01Z</time>
      </trkpt>
      <trkpt lat="43.74133" lon="3.35388">
        <ele>456.8</ele>
        <time>2026-05-18T11:48:06Z</time>
      </trkpt>
      <trkpt lat="43.74127" lon="3.35388">
        <ele>457.2</ele>
        <time>2026-05-18T11:48:11Z</time>
      </trkpt>
      <trkpt lat="43.74123" lon="3.35391">
        <ele>458</ele>
        <time>2026-05-18T11:48:16Z</time>
      </trkpt>
      <trkpt lat="43.74117" lon="3.35393">
        <ele>458.7</ele>
        <time>2026-05-18T11:48:21Z</time>
      </trkpt>
      <trkpt lat="43.74112" lon="3.35394">
        <ele>459.1</ele>
        <time>2026-05-18T11:48:26Z</time>
      </trkpt>
      <trkpt lat="43.74108" lon="3.35397">
        <ele>459.7</ele>
        <time>2026-05-18T11:48:31Z</time>
      </trkpt>
      <trkpt lat="43.74103" lon="3.35401">
        <ele>460.5</ele>
        <time>2026-05-18T11:48:36Z</time>
      </trkpt>
      <trkpt lat="43.74098" lon="3.35403">
        <ele>461</ele>
        <time>2026-05-18T11:48:41Z</time>
      </trkpt>
      <trkpt lat="43.74091" lon="3.35406">
        <ele>461.6</ele>
        <time>2026-05-18T11:48:46Z</time>
      </trkpt>
      <trkpt lat="43.74086" lon="3.35407">
        <ele>461.9</ele>
        <time>2026-05-18T11:48:51Z</time>
      </trkpt>
      <trkpt lat="43.7408" lon="3.35409">
        <ele>462.5</ele>
        <time>2026-05-18T11:48:56Z</time>
      </trkpt>
      <trkpt lat="43.74075" lon="3.35412">
        <ele>463.3</ele>
        <time>2026-05-18T11:49:01Z</time>
      </trkpt>
      <trkpt lat="43.74068" lon="3.35412">
        <ele>463.9</ele>
        <time>2026-05-18T11:49:06Z</time>
      </trkpt>
      <trkpt lat="43.74063" lon="3.35411">
        <ele>464.3</ele>
        <time>2026-05-18T11:49:11Z</time>
      </trkpt>
      <trkpt lat="43.74058" lon="3.3541">
        <ele>464.8</ele>
        <time>2026-05-18T11:49:16Z</time>
      </trkpt>
      <trkpt lat="43.74052" lon="3.35409">
        <ele>465.3</ele>
        <time>2026-05-18T11:49:21Z</time>
      </trkpt>
      <trkpt lat="43.74046" lon="3.35408">
        <ele>465.9</ele>
        <time>2026-05-18T11:49:26Z</time>
      </trkpt>
      <trkpt lat="43.74042" lon="3.35406">
        <ele>466.3</ele>
        <time>2026-05-18T11:49:31Z</time>
      </trkpt>
      <trkpt lat="43.74037" lon="3.35403">
        <ele>466.8</ele>
        <time>2026-05-18T11:49:36Z</time>
      </trkpt>
      <trkpt lat="43.74033" lon="3.35403">
        <ele>467.2</ele>
        <time>2026-05-18T11:49:41Z</time>
      </trkpt>
      <trkpt lat="43.74028" lon="3.35404">
        <ele>467.8</ele>
        <time>2026-05-18T11:49:46Z</time>
      </trkpt>
      <trkpt lat="43.74024" lon="3.35408">
        <ele>468.2</ele>
        <time>2026-05-18T11:49:51Z</time>
      </trkpt>
      <trkpt lat="43.7402" lon="3.35415">
        <ele>468.4</ele>
        <time>2026-05-18T11:49:56Z</time>
      </trkpt>
      <trkpt lat="43.74019" lon="3.35421">
        <ele>467.7</ele>
        <time>2026-05-18T11:50:01Z</time>
      </trkpt>
      <trkpt lat="43.74016" lon="3.35428">
        <ele>466.8</ele>
        <time>2026-05-18T11:50:06Z</time>
      </trkpt>
      <trkpt lat="43.74012" lon="3.35434">
        <ele>466</ele>
        <time>2026-05-18T11:50:11Z</time>
      </trkpt>
      <trkpt lat="43.74009" lon="3.35439">
        <ele>465.2</ele>
        <time>2026-05-18T11:50:16Z</time>
      </trkpt>
      <trkpt lat="43.74007" lon="3.3544">
        <ele>465.1</ele>
        <time>2026-05-18T11:50:21Z</time>
      </trkpt>
      <trkpt lat="43.74006" lon="3.35441">
        <ele>464.9</ele>
        <time>2026-05-18T11:50:26Z</time>
      </trkpt>
      <trkpt lat="43.74006" lon="3.35441">
        <ele>464.9</ele>
        <time>2026-05-18T11:50:31Z</time>
      </trkpt>
      <trkpt lat="43.74006" lon="3.35441">
        <ele>464.9</ele>
        <time>2026-05-18T11:50:36Z</time>
      </trkpt>
      <trkpt lat="43.74006" lon="3.35441">
        <ele>464.9</ele>
        <time>2026-05-18T11:50:41Z</time>
      </trkpt>
      <trkpt lat="43.73999" lon="3.35448">
        <ele>463.8</ele>
        <time>2026-05-18T11:50:46Z</time>
      </trkpt>
      <trkpt lat="43.73998" lon="3.35449">
        <ele>463.7</ele>
        <time>2026-05-18T11:50:51Z</time>
      </trkpt>
      <trkpt lat="43.73998" lon="3.35449">
        <ele>463.7</ele>
        <time>2026-05-18T11:50:56Z</time>
      </trkpt>
      <trkpt lat="43.73998" lon="3.35449">
        <ele>463.7</ele>
        <time>2026-05-18T11:51:01Z</time>
      </trkpt>
      <trkpt lat="43.73998" lon="3.35449">
        <ele>463.7</ele>
        <time>2026-05-18T11:51:06Z</time>
      </trkpt>
      <trkpt lat="43.73999" lon="3.35446">
        <ele>464.2</ele>
        <time>2026-05-18T11:51:11Z</time>
      </trkpt>
      <trkpt lat="43.73992" lon="3.35443">
        <ele>465.9</ele>
        <time>2026-05-18T11:51:16Z</time>
      </trkpt>
      <trkpt lat="43.73985" lon="3.35439">
        <ele>467.9</ele>
        <time>2026-05-18T11:51:21Z</time>
      </trkpt>
      <trkpt lat="43.73979" lon="3.35437">
        <ele>469.4</ele>
        <time>2026-05-18T11:51:26Z</time>
      </trkpt>
      <trkpt lat="43.73972" lon="3.35437">
        <ele>470.6</ele>
        <time>2026-05-18T11:51:31Z</time>
      </trkpt>
      <trkpt lat="43.73965" lon="3.35438">
        <ele>471.5</ele>
        <time>2026-05-18T11:51:36Z</time>
      </trkpt>
      <trkpt lat="43.73958" lon="3.3544">
        <ele>472.1</ele>
        <time>2026-05-18T11:51:41Z</time>
      </trkpt>
      <trkpt lat="43.73951" lon="3.35442">
        <ele>472.7</ele>
        <time>2026-05-18T11:51:46Z</time>
      </trkpt>
      <trkpt lat="43.73945" lon="3.35443">
        <ele>473.3</ele>
        <time>2026-05-18T11:51:51Z</time>
      </trkpt>
      <trkpt lat="43.7394" lon="3.35446">
        <ele>473.2</ele>
        <time>2026-05-18T11:51:56Z</time>
      </trkpt>
      <trkpt lat="43.73934" lon="3.35448">
        <ele>473.5</ele>
        <time>2026-05-18T11:52:01Z</time>
      </trkpt>
      <trkpt lat="43.73927" lon="3.35447">
        <ele>474.9</ele>
        <time>2026-05-18T11:52:06Z</time>
      </trkpt>
      <trkpt lat="43.73921" lon="3.35447">
        <ele>475.8</ele>
        <time>2026-05-18T11:52:11Z</time>
      </trkpt>
      <trkpt lat="43.73914" lon="3.35449">
        <ele>475.8</ele>
        <time>2026-05-18T11:52:16Z</time>
      </trkpt>
      <trkpt lat="43.73907" lon="3.35455">
        <ele>473.8</ele>
        <time>2026-05-18T11:52:21Z</time>
      </trkpt>
      <trkpt lat="43.739" lon="3.35459">
        <ele>472.5</ele>
        <time>2026-05-18T11:52:26Z</time>
      </trkpt>
      <trkpt lat="43.73894" lon="3.3546">
        <ele>472.2</ele>
        <time>2026-05-18T11:52:31Z</time>
      </trkpt>
      <trkpt lat="43.73885" lon="3.35465">
        <ele>470.6</ele>
        <time>2026-05-18T11:52:36Z</time>
      </trkpt>
      <trkpt lat="43.73878" lon="3.3547">
        <ele>469</ele>
        <time>2026-05-18T11:52:41Z</time>
      </trkpt>
      <trkpt lat="43.73872" lon="3.35472">
        <ele>468.5</ele>
        <time>2026-05-18T11:52:46Z</time>
      </trkpt>
      <trkpt lat="43.73865" lon="3.3548">
        <ele>465.9</ele>
        <time>2026-05-18T11:52:51Z</time>
      </trkpt>
      <trkpt lat="43.73858" lon="3.35489">
        <ele>463.1</ele>
        <time>2026-05-18T11:52:56Z</time>
      </trkpt>
      <trkpt lat="43.73853" lon="3.355">
        <ele>459.5</ele>
        <time>2026-05-18T11:53:01Z</time>
      </trkpt>
      <trkpt lat="43.73849" lon="3.35506">
        <ele>458.2</ele>
        <time>2026-05-18T11:53:06Z</time>
      </trkpt>
      <trkpt lat="43.73845" lon="3.35511">
        <ele>457.1</ele>
        <time>2026-05-18T11:53:11Z</time>
      </trkpt>
      <trkpt lat="43.73843" lon="3.35514">
        <ele>456.4</ele>
        <time>2026-05-18T11:53:16Z</time>
      </trkpt>
      <trkpt lat="43.73842" lon="3.35516">
        <ele>456</ele>
        <time>2026-05-18T11:53:21Z</time>
      </trkpt>
      <trkpt lat="43.73842" lon="3.35516">
        <ele>456</ele>
        <time>2026-05-18T11:53:26Z</time>
      </trkpt>
      <trkpt lat="43.73842" lon="3.35516">
        <ele>456</ele>
        <time>2026-05-18T11:53:31Z</time>
      </trkpt>
      <trkpt lat="43.73842" lon="3.35516">
        <ele>456</ele>
        <time>2026-05-18T11:53:36Z</time>
      </trkpt>
      <trkpt lat="43.73842" lon="3.35516">
        <ele>456</ele>
        <time>2026-05-18T11:53:41Z</time>
      </trkpt>
      <trkpt lat="43.73834" lon="3.3551">
        <ele>457.6</ele>
        <time>2026-05-18T11:53:46Z</time>
      </trkpt>
      <trkpt lat="43.73826" lon="3.35512">
        <ele>456.4</ele>
        <time>2026-05-18T11:53:51Z</time>
      </trkpt>
      <trkpt lat="43.7382" lon="3.35515">
        <ele>455.2</ele>
        <time>2026-05-18T11:53:56Z</time>
      </trkpt>
      <trkpt lat="43.73813" lon="3.35518">
        <ele>453.8</ele>
        <time>2026-05-18T11:54:01Z</time>
      </trkpt>
      <trkpt lat="43.73807" lon="3.35522">
        <ele>452.4</ele>
        <time>2026-05-18T11:54:06Z</time>
      </trkpt>
      <trkpt lat="43.738" lon="3.35523">
        <ele>451.5</ele>
        <time>2026-05-18T11:54:11Z</time>
      </trkpt>
      <trkpt lat="43.73794" lon="3.35526">
        <ele>450.3</ele>
        <time>2026-05-18T11:54:16Z</time>
      </trkpt>
      <trkpt lat="43.73788" lon="3.35526">
        <ele>449.7</ele>
        <time>2026-05-18T11:54:21Z</time>
      </trkpt>
      <trkpt lat="43.73781" lon="3.35527">
        <ele>448.9</ele>
        <time>2026-05-18T11:54:26Z</time>
      </trkpt>
      <trkpt lat="43.73776" lon="3.35526">
        <ele>448.7</ele>
        <time>2026-05-18T11:54:31Z</time>
      </trkpt>
      <trkpt lat="43.73774" lon="3.35528">
        <ele>448.1</ele>
        <time>2026-05-18T11:54:36Z</time>
      </trkpt>
      <trkpt lat="43.7377" lon="3.35533">
        <ele>446.6</ele>
        <time>2026-05-18T11:54:41Z</time>
      </trkpt>
      <trkpt lat="43.73761" lon="3.35537">
        <ele>444.9</ele>
        <time>2026-05-18T11:54:46Z</time>
      </trkpt>
      <trkpt lat="43.73757" lon="3.35537">
        <ele>444.6</ele>
        <time>2026-05-18T11:54:51Z</time>
      </trkpt>
      <trkpt lat="43.73754" lon="3.35538">
        <ele>444.1</ele>
        <time>2026-05-18T11:54:56Z</time>
      </trkpt>
      <trkpt lat="43.73753" lon="3.35538">
        <ele>444</ele>
        <time>2026-05-18T11:55:01Z</time>
      </trkpt>
      <trkpt lat="43.73753" lon="3.35539">
        <ele>443.8</ele>
        <time>2026-05-18T11:55:06Z</time>
      </trkpt>
      <trkpt lat="43.73747" lon="3.3554">
        <ele>443</ele>
        <time>2026-05-18T11:55:11Z</time>
      </trkpt>
      <trkpt lat="43.73739" lon="3.35538">
        <ele>442.5</ele>
        <time>2026-05-18T11:55:16Z</time>
      </trkpt>
      <trkpt lat="43.73733" lon="3.35537">
        <ele>442</ele>
        <time>2026-05-18T11:55:21Z</time>
      </trkpt>
      <trkpt lat="43.73727" lon="3.35536">
        <ele>441.5</ele>
        <time>2026-05-18T11:55:26Z</time>
      </trkpt>
      <trkpt lat="43.73718" lon="3.35535">
        <ele>440.6</ele>
        <time>2026-05-18T11:55:31Z</time>
      </trkpt>
      <trkpt lat="43.73711" lon="3.35535">
        <ele>439.8</ele>
        <time>2026-05-18T11:55:36Z</time>
      </trkpt>
      <trkpt lat="43.73707" lon="3.35531">
        <ele>439.9</ele>
        <time>2026-05-18T11:55:41Z</time>
      </trkpt>
      <trkpt lat="43.73699" lon="3.35527">
        <ele>439.4</ele>
        <time>2026-05-18T11:55:46Z</time>
      </trkpt>
      <trkpt lat="43.73692" lon="3.35526">
        <ele>438.5</ele>
        <time>2026-05-18T11:55:51Z</time>
      </trkpt>
      <trkpt lat="43.73687" lon="3.35529">
        <ele>437.6</ele>
        <time>2026-05-18T11:55:56Z</time>
      </trkpt>
      <trkpt lat="43.73679" lon="3.35532">
        <ele>436.2</ele>
        <time>2026-05-18T11:56:01Z</time>
      </trkpt>
      <trkpt lat="43.73674" lon="3.35538">
        <ele>435.1</ele>
        <time>2026-05-18T11:56:06Z</time>
      </trkpt>
      <trkpt lat="43.73668" lon="3.35547">
        <ele>433.7</ele>
        <time>2026-05-18T11:56:11Z</time>
      </trkpt>
      <trkpt lat="43.73666" lon="3.35555">
        <ele>433</ele>
        <time>2026-05-18T11:56:16Z</time>
      </trkpt>
      <trkpt lat="43.73662" lon="3.35565">
        <ele>432</ele>
        <time>2026-05-18T11:56:21Z</time>
      </trkpt>
      <trkpt lat="43.73655" lon="3.35572">
        <ele>431.1</ele>
        <time>2026-05-18T11:56:26Z</time>
      </trkpt>
      <trkpt lat="43.73646" lon="3.35577">
        <ele>430.2</ele>
        <time>2026-05-18T11:56:31Z</time>
      </trkpt>
      <trkpt lat="43.73637" lon="3.35577">
        <ele>429.6</ele>
        <time>2026-05-18T11:56:36Z</time>
      </trkpt>
      <trkpt lat="43.7363" lon="3.35577">
        <ele>429.2</ele>
        <time>2026-05-18T11:56:41Z</time>
      </trkpt>
      <trkpt lat="43.73622" lon="3.35574">
        <ele>428.9</ele>
        <time>2026-05-18T11:56:46Z</time>
      </trkpt>
      <trkpt lat="43.73613" lon="3.35572">
        <ele>428.4</ele>
        <time>2026-05-18T11:56:51Z</time>
      </trkpt>
      <trkpt lat="43.73606" lon="3.3557">
        <ele>428.1</ele>
        <time>2026-05-18T11:56:56Z</time>
      </trkpt>
      <trkpt lat="43.73599" lon="3.35567">
        <ele>427.8</ele>
        <time>2026-05-18T11:57:01Z</time>
      </trkpt>
      <trkpt lat="43.73591" lon="3.35565">
        <ele>427.4</ele>
        <time>2026-05-18T11:57:06Z</time>
      </trkpt>
      <trkpt lat="43.73584" lon="3.35564">
        <ele>427</ele>
        <time>2026-05-18T11:57:11Z</time>
      </trkpt>
      <trkpt lat="43.73577" lon="3.35564">
        <ele>426.6</ele>
        <time>2026-05-18T11:57:16Z</time>
      </trkpt>
      <trkpt lat="43.73571" lon="3.35564">
        <ele>426.3</ele>
        <time>2026-05-18T11:57:21Z</time>
      </trkpt>
      <trkpt lat="43.73563" lon="3.35564">
        <ele>425.8</ele>
        <time>2026-05-18T11:57:26Z</time>
      </trkpt>
      <trkpt lat="43.73555" lon="3.35565">
        <ele>425.3</ele>
        <time>2026-05-18T11:57:31Z</time>
      </trkpt>
      <trkpt lat="43.73547" lon="3.35565">
        <ele>424.9</ele>
        <time>2026-05-18T11:57:36Z</time>
      </trkpt>
      <trkpt lat="43.73539" lon="3.35564">
        <ele>424.5</ele>
        <time>2026-05-18T11:57:41Z</time>
      </trkpt>
      <trkpt lat="43.73532" lon="3.35564">
        <ele>424.1</ele>
        <time>2026-05-18T11:57:46Z</time>
      </trkpt>
      <trkpt lat="43.73525" lon="3.35562">
        <ele>423.9</ele>
        <time>2026-05-18T11:57:51Z</time>
      </trkpt>
      <trkpt lat="43.73518" lon="3.35562">
        <ele>423.5</ele>
        <time>2026-05-18T11:57:56Z</time>
      </trkpt>
      <trkpt lat="43.7351" lon="3.35561">
        <ele>423.1</ele>
        <time>2026-05-18T11:58:01Z</time>
      </trkpt>
      <trkpt lat="43.73503" lon="3.35558">
        <ele>423</ele>
        <time>2026-05-18T11:58:06Z</time>
      </trkpt>
      <trkpt lat="43.73496" lon="3.35556">
        <ele>422.7</ele>
        <time>2026-05-18T11:58:11Z</time>
      </trkpt>
      <trkpt lat="43.7349" lon="3.35552">
        <ele>422.6</ele>
        <time>2026-05-18T11:58:16Z</time>
      </trkpt>
      <trkpt lat="43.73485" lon="3.35548">
        <ele>422.5</ele>
        <time>2026-05-18T11:58:21Z</time>
      </trkpt>
      <trkpt lat="43.73478" lon="3.35543">
        <ele>422.3</ele>
        <time>2026-05-18T11:58:26Z</time>
      </trkpt>
      <trkpt lat="43.73471" lon="3.35541">
        <ele>421.9</ele>
        <time>2026-05-18T11:58:31Z</time>
      </trkpt>
      <trkpt lat="43.73464" lon="3.35539">
        <ele>421.5</ele>
        <time>2026-05-18T11:58:36Z</time>
      </trkpt>
      <trkpt lat="43.73457" lon="3.35541">
        <ele>420.9</ele>
        <time>2026-05-18T11:58:41Z</time>
      </trkpt>
      <trkpt lat="43.7345" lon="3.35544">
        <ele>420.3</ele>
        <time>2026-05-18T11:58:46Z</time>
      </trkpt>
      <trkpt lat="43.73445" lon="3.35548">
        <ele>419.8</ele>
        <time>2026-05-18T11:58:51Z</time>
      </trkpt>
      <trkpt lat="43.7344" lon="3.35551">
        <ele>419.3</ele>
        <time>2026-05-18T11:58:56Z</time>
      </trkpt>
      <trkpt lat="43.73436" lon="3.35556">
        <ele>418.9</ele>
        <time>2026-05-18T11:59:01Z</time>
      </trkpt>
      <trkpt lat="43.73431" lon="3.35559">
        <ele>418.5</ele>
        <time>2026-05-18T11:59:06Z</time>
      </trkpt>
      <trkpt lat="43.73423" lon="3.35559">
        <ele>418</ele>
        <time>2026-05-18T11:59:11Z</time>
      </trkpt>
      <trkpt lat="43.73419" lon="3.35559">
        <ele>417.7</ele>
        <time>2026-05-18T11:59:16Z</time>
      </trkpt>
      <trkpt lat="43.73415" lon="3.35555">
        <ele>417.8</ele>
        <time>2026-05-18T11:59:21Z</time>
      </trkpt>
      <trkpt lat="43.73409" lon="3.35554">
        <ele>418.1</ele>
        <time>2026-05-18T11:59:26Z</time>
      </trkpt>
      <trkpt lat="43.73405" lon="3.35555">
        <ele>418.2</ele>
        <time>2026-05-18T11:59:31Z</time>
      </trkpt>
      <trkpt lat="43.73402" lon="3.35553">
        <ele>418.4</ele>
        <time>2026-05-18T11:59:36Z</time>
      </trkpt>
      <trkpt lat="43.734" lon="3.35553">
        <ele>418.5</ele>
        <time>2026-05-18T11:59:41Z</time>
      </trkpt>
      <trkpt lat="43.73398" lon="3.35554">
        <ele>418.6</ele>
        <time>2026-05-18T11:59:46Z</time>
      </trkpt>
      <trkpt lat="43.73398" lon="3.35554">
        <ele>418.6</ele>
        <time>2026-05-18T11:59:51Z</time>
      </trkpt>
      <trkpt lat="43.73398" lon="3.35554">
        <ele>418.6</ele>
        <time>2026-05-18T11:59:56Z</time>
      </trkpt>
      <trkpt lat="43.73398" lon="3.35554">
        <ele>418.6</ele>
        <time>2026-05-18T12:00:01Z</time>
      </trkpt>
      <trkpt lat="43.73398" lon="3.35554">
        <ele>418.6</ele>
        <time>2026-05-18T12:00:06Z</time>
      </trkpt>
      <trkpt lat="43.73398" lon="3.35554">
        <ele>418.6</ele>
        <time>2026-05-18T12:00:11Z</time>
      </trkpt>
      <trkpt lat="43.73392" lon="3.35558">
        <ele>418.8</ele>
        <time>2026-05-18T12:00:16Z</time>
      </trkpt>
      <trkpt lat="43.73387" lon="3.35557">
        <ele>419.1</ele>
        <time>2026-05-18T12:00:21Z</time>
      </trkpt>
      <trkpt lat="43.73382" lon="3.35553">
        <ele>419.4</ele>
        <time>2026-05-18T12:00:26Z</time>
      </trkpt>
      <trkpt lat="43.73377" lon="3.3555">
        <ele>419.7</ele>
        <time>2026-05-18T12:00:31Z</time>
      </trkpt>
      <trkpt lat="43.73371" lon="3.35548">
        <ele>420</ele>
        <time>2026-05-18T12:00:36Z</time>
      </trkpt>
      <trkpt lat="43.73365" lon="3.35545">
        <ele>420.4</ele>
        <time>2026-05-18T12:00:41Z</time>
      </trkpt>
      <trkpt lat="43.73358" lon="3.35541">
        <ele>420.8</ele>
        <time>2026-05-18T12:00:46Z</time>
      </trkpt>
      <trkpt lat="43.73352" lon="3.35539">
        <ele>421.2</ele>
        <time>2026-05-18T12:00:51Z</time>
      </trkpt>
      <trkpt lat="43.73347" lon="3.35536">
        <ele>421.5</ele>
        <time>2026-05-18T12:00:56Z</time>
      </trkpt>
      <trkpt lat="43.7334" lon="3.35533">
        <ele>421.9</ele>
        <time>2026-05-18T12:01:01Z</time>
      </trkpt>
      <trkpt lat="43.73332" lon="3.35528">
        <ele>422.4</ele>
        <time>2026-05-18T12:01:06Z</time>
      </trkpt>
      <trkpt lat="43.73326" lon="3.35526">
        <ele>422.5</ele>
        <time>2026-05-18T12:01:11Z</time>
      </trkpt>
      <trkpt lat="43.73319" lon="3.35522">
        <ele>422.8</ele>
        <time>2026-05-18T12:01:16Z</time>
      </trkpt>
      <trkpt lat="43.73313" lon="3.35518">
        <ele>423</ele>
        <time>2026-05-18T12:01:21Z</time>
      </trkpt>
      <trkpt lat="43.73307" lon="3.35516">
        <ele>423.2</ele>
        <time>2026-05-18T12:01:26Z</time>
      </trkpt>
      <trkpt lat="43.733" lon="3.35513">
        <ele>423.4</ele>
        <time>2026-05-18T12:01:31Z</time>
      </trkpt>
      <trkpt lat="43.73293" lon="3.35511">
        <ele>423.6</ele>
        <time>2026-05-18T12:01:36Z</time>
      </trkpt>
      <trkpt lat="43.73286" lon="3.35509">
        <ele>423.9</ele>
        <time>2026-05-18T12:01:41Z</time>
      </trkpt>
      <trkpt lat="43.73279" lon="3.35511">
        <ele>424</ele>
        <time>2026-05-18T12:01:46Z</time>
      </trkpt>
      <trkpt lat="43.73271" lon="3.35512">
        <ele>424.1</ele>
        <time>2026-05-18T12:01:51Z</time>
      </trkpt>
      <trkpt lat="43.73267" lon="3.35515">
        <ele>424.1</ele>
        <time>2026-05-18T12:01:56Z</time>
      </trkpt>
      <trkpt lat="43.73262" lon="3.35518">
        <ele>424.1</ele>
        <time>2026-05-18T12:02:01Z</time>
      </trkpt>
      <trkpt lat="43.73255" lon="3.35519">
        <ele>424.2</ele>
        <time>2026-05-18T12:02:06Z</time>
      </trkpt>
      <trkpt lat="43.73249" lon="3.35523">
        <ele>424.1</ele>
        <time>2026-05-18T12:02:11Z</time>
      </trkpt>
      <trkpt lat="43.73244" lon="3.35526">
        <ele>423.6</ele>
        <time>2026-05-18T12:02:16Z</time>
      </trkpt>
      <trkpt lat="43.73239" lon="3.35528">
        <ele>423.1</ele>
        <time>2026-05-18T12:02:21Z</time>
      </trkpt>
      <trkpt lat="43.73233" lon="3.35532">
        <ele>422.4</ele>
        <time>2026-05-18T12:02:26Z</time>
      </trkpt>
      <trkpt lat="43.73227" lon="3.35536">
        <ele>421.6</ele>
        <time>2026-05-18T12:02:31Z</time>
      </trkpt>
      <trkpt lat="43.73221" lon="3.35535">
        <ele>421.1</ele>
        <time>2026-05-18T12:02:36Z</time>
      </trkpt>
      <trkpt lat="43.73216" lon="3.35534">
        <ele>420.7</ele>
        <time>2026-05-18T12:02:41Z</time>
      </trkpt>
      <trkpt lat="43.73212" lon="3.35532">
        <ele>420.5</ele>
        <time>2026-05-18T12:02:46Z</time>
      </trkpt>
      <trkpt lat="43.73209" lon="3.35531">
        <ele>420.3</ele>
        <time>2026-05-18T12:02:51Z</time>
      </trkpt>
      <trkpt lat="43.73208" lon="3.35532">
        <ele>420.2</ele>
        <time>2026-05-18T12:02:56Z</time>
      </trkpt>
      <trkpt lat="43.73201" lon="3.35531">
        <ele>419.6</ele>
        <time>2026-05-18T12:03:01Z</time>
      </trkpt>
      <trkpt lat="43.73196" lon="3.35528">
        <ele>419.4</ele>
        <time>2026-05-18T12:03:06Z</time>
      </trkpt>
      <trkpt lat="43.73191" lon="3.35525">
        <ele>419.3</ele>
        <time>2026-05-18T12:03:11Z</time>
      </trkpt>
      <trkpt lat="43.73186" lon="3.35524">
        <ele>419</ele>
        <time>2026-05-18T12:03:16Z</time>
      </trkpt>
      <trkpt lat="43.7318" lon="3.35522">
        <ele>418.7</ele>
        <time>2026-05-18T12:03:21Z</time>
      </trkpt>
      <trkpt lat="43.73175" lon="3.35519">
        <ele>418.6</ele>
        <time>2026-05-18T12:03:26Z</time>
      </trkpt>
      <trkpt lat="43.73168" lon="3.35515">
        <ele>418.5</ele>
        <time>2026-05-18T12:03:31Z</time>
      </trkpt>
      <trkpt lat="43.73163" lon="3.3551">
        <ele>418.6</ele>
        <time>2026-05-18T12:03:36Z</time>
      </trkpt>
      <trkpt lat="43.73156" lon="3.35507">
        <ele>418.4</ele>
        <time>2026-05-18T12:03:41Z</time>
      </trkpt>
      <trkpt lat="43.7315" lon="3.35503">
        <ele>418.4</ele>
        <time>2026-05-18T12:03:46Z</time>
      </trkpt>
      <trkpt lat="43.73146" lon="3.35499">
        <ele>418.6</ele>
        <time>2026-05-18T12:03:51Z</time>
      </trkpt>
      <trkpt lat="43.73142" lon="3.35496">
        <ele>418.5</ele>
        <time>2026-05-18T12:03:56Z</time>
      </trkpt>
      <trkpt lat="43.73138" lon="3.35493">
        <ele>418.4</ele>
        <time>2026-05-18T12:04:01Z</time>
      </trkpt>
      <trkpt lat="43.73132" lon="3.35491">
        <ele>418.2</ele>
        <time>2026-05-18T12:04:06Z</time>
      </trkpt>
      <trkpt lat="43.73124" lon="3.35489">
        <ele>417.9</ele>
        <time>2026-05-18T12:04:11Z</time>
      </trkpt>
      <trkpt lat="43.73118" lon="3.35485">
        <ele>417.8</ele>
        <time>2026-05-18T12:04:16Z</time>
      </trkpt>
      <trkpt lat="43.73112" lon="3.35482">
        <ele>417.8</ele>
        <time>2026-05-18T12:04:21Z</time>
      </trkpt>
      <trkpt lat="43.73105" lon="3.35477">
        <ele>417.9</ele>
        <time>2026-05-18T12:04:26Z</time>
      </trkpt>
      <trkpt lat="43.731" lon="3.35467">
        <ele>418.7</ele>
        <time>2026-05-18T12:04:31Z</time>
      </trkpt>
      <trkpt lat="43.73095" lon="3.35459">
        <ele>419.3</ele>
        <time>2026-05-18T12:04:36Z</time>
      </trkpt>
      <trkpt lat="43.7309" lon="3.35457">
        <ele>419.4</ele>
        <time>2026-05-18T12:04:41Z</time>
      </trkpt>
      <trkpt lat="43.73083" lon="3.35456">
        <ele>419.2</ele>
        <time>2026-05-18T12:04:46Z</time>
      </trkpt>
      <trkpt lat="43.73076" lon="3.35455">
        <ele>418.7</ele>
        <time>2026-05-18T12:04:51Z</time>
      </trkpt>
      <trkpt lat="43.73069" lon="3.35451">
        <ele>418.6</ele>
        <time>2026-05-18T12:04:56Z</time>
      </trkpt>
      <trkpt lat="43.73061" lon="3.35447">
        <ele>418.3</ele>
        <time>2026-05-18T12:05:01Z</time>
      </trkpt>
      <trkpt lat="43.73056" lon="3.35445">
        <ele>418.1</ele>
        <time>2026-05-18T12:05:06Z</time>
      </trkpt>
      <trkpt lat="43.73051" lon="3.3544">
        <ele>418.2</ele>
        <time>2026-05-18T12:05:11Z</time>
      </trkpt>
      <trkpt lat="43.73046" lon="3.35436">
        <ele>418.2</ele>
        <time>2026-05-18T12:05:16Z</time>
      </trkpt>
      <trkpt lat="43.7304" lon="3.35433">
        <ele>418</ele>
        <time>2026-05-18T12:05:21Z</time>
      </trkpt>
      <trkpt lat="43.73036" lon="3.35433">
        <ele>417.6</ele>
        <time>2026-05-18T12:05:26Z</time>
      </trkpt>
      <trkpt lat="43.7303" lon="3.35433">
        <ele>417</ele>
        <time>2026-05-18T12:05:31Z</time>
      </trkpt>
      <trkpt lat="43.73024" lon="3.3543">
        <ele>416.8</ele>
        <time>2026-05-18T12:05:36Z</time>
      </trkpt>
      <trkpt lat="43.73018" lon="3.35427">
        <ele>416.6</ele>
        <time>2026-05-18T12:05:41Z</time>
      </trkpt>
      <trkpt lat="43.73012" lon="3.35426">
        <ele>416.1</ele>
        <time>2026-05-18T12:05:46Z</time>
      </trkpt>
      <trkpt lat="43.73007" lon="3.35426">
        <ele>415.7</ele>
        <time>2026-05-18T12:05:51Z</time>
      </trkpt>
      <trkpt lat="43.73" lon="3.35422">
        <ele>415.4</ele>
        <time>2026-05-18T12:05:56Z</time>
      </trkpt>
      <trkpt lat="43.72996" lon="3.35415">
        <ele>415.8</ele>
        <time>2026-05-18T12:06:01Z</time>
      </trkpt>
      <trkpt lat="43.72992" lon="3.35407">
        <ele>415.9</ele>
        <time>2026-05-18T12:06:06Z</time>
      </trkpt>
      <trkpt lat="43.7299" lon="3.354">
        <ele>416.2</ele>
        <time>2026-05-18T12:06:11Z</time>
      </trkpt>
      <trkpt lat="43.72991" lon="3.35397">
        <ele>416.4</ele>
        <time>2026-05-18T12:06:16Z</time>
      </trkpt>
      <trkpt lat="43.72991" lon="3.35396">
        <ele>416.5</ele>
        <time>2026-05-18T12:06:21Z</time>
      </trkpt>
      <trkpt lat="43.72991" lon="3.35396">
        <ele>416.5</ele>
        <time>2026-05-18T12:06:26Z</time>
      </trkpt>
      <trkpt lat="43.72991" lon="3.35396">
        <ele>416.5</ele>
        <time>2026-05-18T12:06:31Z</time>
      </trkpt>
      <trkpt lat="43.72991" lon="3.35396">
        <ele>416.5</ele>
        <time>2026-05-18T12:06:36Z</time>
      </trkpt>
      <trkpt lat="43.72991" lon="3.35388">
        <ele>417</ele>
        <time>2026-05-18T12:06:41Z</time>
      </trkpt>
      <trkpt lat="43.72989" lon="3.35384">
        <ele>417.1</ele>
        <time>2026-05-18T12:06:46Z</time>
      </trkpt>
      <trkpt lat="43.72986" lon="3.35379">
        <ele>417.2</ele>
        <time>2026-05-18T12:06:51Z</time>
      </trkpt>
      <trkpt lat="43.72981" lon="3.35376">
        <ele>417</ele>
        <time>2026-05-18T12:06:56Z</time>
      </trkpt>
      <trkpt lat="43.72976" lon="3.35375">
        <ele>416.6</ele>
        <time>2026-05-18T12:07:01Z</time>
      </trkpt>
      <trkpt lat="43.72972" lon="3.35369">
        <ele>416.7</ele>
        <time>2026-05-18T12:07:06Z</time>
      </trkpt>
      <trkpt lat="43.72969" lon="3.35361">
        <ele>417</ele>
        <time>2026-05-18T12:07:11Z</time>
      </trkpt>
      <trkpt lat="43.72967" lon="3.35353">
        <ele>417.4</ele>
        <time>2026-05-18T12:07:16Z</time>
      </trkpt>
      <trkpt lat="43.72967" lon="3.35345">
        <ele>417.9</ele>
        <time>2026-05-18T12:07:21Z</time>
      </trkpt>
      <trkpt lat="43.72968" lon="3.35337">
        <ele>418.5</ele>
        <time>2026-05-18T12:07:26Z</time>
      </trkpt>
      <trkpt lat="43.7297" lon="3.35331">
        <ele>419</ele>
        <time>2026-05-18T12:07:31Z</time>
      </trkpt>
      <trkpt lat="43.7297" lon="3.35323">
        <ele>419.6</ele>
        <time>2026-05-18T12:07:36Z</time>
      </trkpt>
      <trkpt lat="43.7297" lon="3.35316">
        <ele>420.1</ele>
        <time>2026-05-18T12:07:41Z</time>
      </trkpt>
      <trkpt lat="43.7297" lon="3.3531">
        <ele>420.5</ele>
        <time>2026-05-18T12:07:46Z</time>
      </trkpt>
      <trkpt lat="43.72967" lon="3.35303">
        <ele>420.7</ele>
        <time>2026-05-18T12:07:51Z</time>
      </trkpt>
      <trkpt lat="43.72965" lon="3.35297">
        <ele>421</ele>
        <time>2026-05-18T12:07:56Z</time>
      </trkpt>
      <trkpt lat="43.72963" lon="3.35289">
        <ele>421.4</ele>
        <time>2026-05-18T12:08:01Z</time>
      </trkpt>
      <trkpt lat="43.72962" lon="3.35283">
        <ele>421.7</ele>
        <time>2026-05-18T12:08:06Z</time>
      </trkpt>
      <trkpt lat="43.72958" lon="3.35276">
        <ele>421.8</ele>
        <time>2026-05-18T12:08:11Z</time>
      </trkpt>
      <trkpt lat="43.72958" lon="3.35269">
        <ele>422.2</ele>
        <time>2026-05-18T12:08:16Z</time>
      </trkpt>
      <trkpt lat="43.72955" lon="3.35262">
        <ele>422.4</ele>
        <time>2026-05-18T12:08:21Z</time>
      </trkpt>
      <trkpt lat="43.72952" lon="3.35255">
        <ele>422.5</ele>
        <time>2026-05-18T12:08:26Z</time>
      </trkpt>
      <trkpt lat="43.72949" lon="3.35248">
        <ele>422.3</ele>
        <time>2026-05-18T12:08:31Z</time>
      </trkpt>
      <trkpt lat="43.72946" lon="3.35244">
        <ele>421.7</ele>
        <time>2026-05-18T12:08:36Z</time>
      </trkpt>
      <trkpt lat="43.72941" lon="3.35242">
        <ele>421</ele>
        <time>2026-05-18T12:08:41Z</time>
      </trkpt>
      <trkpt lat="43.72935" lon="3.35241">
        <ele>420.2</ele>
        <time>2026-05-18T12:08:46Z</time>
      </trkpt>
      <trkpt lat="43.72932" lon="3.35239">
        <ele>419.7</ele>
        <time>2026-05-18T12:08:51Z</time>
      </trkpt>
      <trkpt lat="43.7293" lon="3.3524">
        <ele>419.6</ele>
        <time>2026-05-18T12:08:56Z</time>
      </trkpt>
      <trkpt lat="43.7293" lon="3.3524">
        <ele>419.6</ele>
        <time>2026-05-18T12:09:01Z</time>
      </trkpt>
      <trkpt lat="43.7293" lon="3.3524">
        <ele>419.6</ele>
        <time>2026-05-18T12:09:06Z</time>
      </trkpt>
      <trkpt lat="43.7293" lon="3.3524">
        <ele>419.6</ele>
        <time>2026-05-18T12:09:11Z</time>
      </trkpt>
      <trkpt lat="43.7293" lon="3.3524">
        <ele>419.6</ele>
        <time>2026-05-18T12:09:16Z</time>
      </trkpt>
      <trkpt lat="43.7293" lon="3.3524">
        <ele>419.6</ele>
        <time>2026-05-18T12:09:21Z</time>
      </trkpt>
      <trkpt lat="43.7293" lon="3.3524">
        <ele>419.6</ele>
        <time>2026-05-18T12:09:26Z</time>
      </trkpt>
      <trkpt lat="43.7293" lon="3.3524">
        <ele>419.6</ele>
        <time>2026-05-18T12:09:31Z</time>
      </trkpt>
      <trkpt lat="43.7293" lon="3.3524">
        <ele>419.6</ele>
        <time>2026-05-18T12:09:36Z</time>
      </trkpt>
      <trkpt lat="43.7293" lon="3.3524">
        <ele>419.6</ele>
        <time>2026-05-18T12:09:41Z</time>
      </trkpt>
      <trkpt lat="43.7293" lon="3.3524">
        <ele>419.6</ele>
        <time>2026-05-18T12:09:46Z</time>
      </trkpt>
      <trkpt lat="43.7293" lon="3.3524">
        <ele>419.6</ele>
        <time>2026-05-18T12:09:51Z</time>
      </trkpt>
      <trkpt lat="43.7293" lon="3.3524">
        <ele>419.6</ele>
        <time>2026-05-18T12:09:56Z</time>
      </trkpt>
      <trkpt lat="43.7293" lon="3.3524">
        <ele>419.6</ele>
        <time>2026-05-18T12:10:01Z</time>
      </trkpt>
      <trkpt lat="43.7293" lon="3.3524">
        <ele>419.6</ele>
        <time>2026-05-18T12:10:06Z</time>
      </trkpt>
      <trkpt lat="43.7293" lon="3.3524">
        <ele>419.6</ele>
        <time>2026-05-18T12:10:11Z</time>
      </trkpt>
      <trkpt lat="43.7293" lon="3.3524">
        <ele>419.6</ele>
        <time>2026-05-18T12:10:16Z</time>
      </trkpt>
      <trkpt lat="43.7293" lon="3.3524">
        <ele>419.6</ele>
        <time>2026-05-18T12:10:21Z</time>
      </trkpt>
      <trkpt lat="43.7293" lon="3.3524">
        <ele>419.6</ele>
        <time>2026-05-18T12:10:26Z</time>
      </trkpt>
      <trkpt lat="43.7293" lon="3.3524">
        <ele>419.6</ele>
        <time>2026-05-18T12:10:31Z</time>
      </trkpt>
      <trkpt lat="43.7293" lon="3.3524">
        <ele>419.6</ele>
        <time>2026-05-18T12:10:36Z</time>
      </trkpt>
      <trkpt lat="43.7293" lon="3.3524">
        <ele>419.6</ele>
        <time>2026-05-18T12:10:41Z</time>
      </trkpt>
      <trkpt lat="43.7293" lon="3.3524">
        <ele>419.6</ele>
        <time>2026-05-18T12:10:46Z</time>
      </trkpt>
      <trkpt lat="43.7293" lon="3.3524">
        <ele>419.6</ele>
        <time>2026-05-18T12:10:51Z</time>
      </trkpt>
      <trkpt lat="43.7293" lon="3.3524">
        <ele>419.6</ele>
        <time>2026-05-18T12:10:56Z</time>
      </trkpt>
      <trkpt lat="43.7293" lon="3.3524">
        <ele>419.6</ele>
        <time>2026-05-18T12:11:01Z</time>
      </trkpt>
      <trkpt lat="43.7293" lon="3.3524">
        <ele>419.6</ele>
        <time>2026-05-18T12:11:06Z</time>
      </trkpt>
      <trkpt lat="43.7293" lon="3.3524">
        <ele>419.6</ele>
        <time>2026-05-18T12:11:11Z</time>
      </trkpt>
      <trkpt lat="43.7293" lon="3.3524">
        <ele>419.6</ele>
        <time>2026-05-18T12:11:16Z</time>
      </trkpt>
      <trkpt lat="43.7293" lon="3.3524">
        <ele>419.6</ele>
        <time>2026-05-18T12:11:21Z</time>
      </trkpt>
      <trkpt lat="43.7293" lon="3.3524">
        <ele>419.6</ele>
        <time>2026-05-18T12:11:26Z</time>
      </trkpt>
      <trkpt lat="43.7293" lon="3.3524">
        <ele>419.6</ele>
        <time>2026-05-18T12:11:31Z</time>
      </trkpt>
      <trkpt lat="43.7293" lon="3.3524">
        <ele>419.6</ele>
        <time>2026-05-18T12:11:36Z</time>
      </trkpt>
      <trkpt lat="43.7293" lon="3.3524">
        <ele>419.6</ele>
        <time>2026-05-18T12:11:41Z</time>
      </trkpt>
      <trkpt lat="43.7293" lon="3.3524">
        <ele>419.6</ele>
        <time>2026-05-18T12:11:46Z</time>
      </trkpt>
      <trkpt lat="43.7293" lon="3.3524">
        <ele>419.6</ele>
        <time>2026-05-18T12:11:51Z</time>
      </trkpt>
      <trkpt lat="43.7293" lon="3.3524">
        <ele>419.6</ele>
        <time>2026-05-18T12:11:56Z</time>
      </trkpt>
      <trkpt lat="43.7293" lon="3.3524">
        <ele>419.6</ele>
        <time>2026-05-18T12:12:01Z</time>
      </trkpt>
      <trkpt lat="43.7293" lon="3.3524">
        <ele>419.6</ele>
        <time>2026-05-18T12:12:06Z</time>
      </trkpt>
      <trkpt lat="43.7293" lon="3.3524">
        <ele>419.6</ele>
        <time>2026-05-18T12:12:11Z</time>
      </trkpt>
      <trkpt lat="43.7293" lon="3.3524">
        <ele>419.6</ele>
        <time>2026-05-18T12:12:16Z</time>
      </trkpt>
      <trkpt lat="43.7293" lon="3.3524">
        <ele>419.6</ele>
        <time>2026-05-18T12:12:21Z</time>
      </trkpt>
      <trkpt lat="43.7293" lon="3.3524">
        <ele>419.6</ele>
        <time>2026-05-18T12:12:26Z</time>
      </trkpt>
      <trkpt lat="43.7293" lon="3.3524">
        <ele>419.6</ele>
        <time>2026-05-18T12:12:31Z</time>
      </trkpt>
      <trkpt lat="43.7293" lon="3.3524">
        <ele>419.6</ele>
        <time>2026-05-18T12:12:36Z</time>
      </trkpt>
      <trkpt lat="43.7293" lon="3.3524">
        <ele>419.6</ele>
        <time>2026-05-18T12:12:41Z</time>
      </trkpt>
      <trkpt lat="43.7293" lon="3.3524">
        <ele>419.6</ele>
        <time>2026-05-18T12:12:46Z</time>
      </trkpt>
      <trkpt lat="43.7293" lon="3.3524">
        <ele>419.6</ele>
        <time>2026-05-18T12:12:51Z</time>
      </trkpt>
      <trkpt lat="43.7293" lon="3.3524">
        <ele>419.6</ele>
        <time>2026-05-18T12:12:56Z</time>
      </trkpt>
      <trkpt lat="43.7293" lon="3.3524">
        <ele>419.6</ele>
        <time>2026-05-18T12:13:01Z</time>
      </trkpt>
      <trkpt lat="43.7293" lon="3.3524">
        <ele>419.6</ele>
        <time>2026-05-18T12:13:06Z</time>
      </trkpt>
      <trkpt lat="43.7293" lon="3.3524">
        <ele>419.6</ele>
        <time>2026-05-18T12:13:11Z</time>
      </trkpt>
      <trkpt lat="43.7293" lon="3.3524">
        <ele>419.6</ele>
        <time>2026-05-18T12:13:16Z</time>
      </trkpt>
      <trkpt lat="43.7293" lon="3.3524">
        <ele>419.6</ele>
        <time>2026-05-18T12:13:21Z</time>
      </trkpt>
      <trkpt lat="43.7293" lon="3.3524">
        <ele>419.6</ele>
        <time>2026-05-18T12:13:26Z</time>
      </trkpt>
      <trkpt lat="43.7293" lon="3.3524">
        <ele>419.6</ele>
        <time>2026-05-18T12:13:31Z</time>
      </trkpt>
      <trkpt lat="43.7293" lon="3.3524">
        <ele>419.6</ele>
        <time>2026-05-18T12:13:36Z</time>
      </trkpt>
      <trkpt lat="43.7293" lon="3.3524">
        <ele>419.6</ele>
        <time>2026-05-18T12:13:41Z</time>
      </trkpt>
      <trkpt lat="43.7293" lon="3.3524">
        <ele>419.6</ele>
        <time>2026-05-18T12:13:46Z</time>
      </trkpt>
      <trkpt lat="43.7293" lon="3.3524">
        <ele>419.6</ele>
        <time>2026-05-18T12:13:51Z</time>
      </trkpt>
      <trkpt lat="43.7293" lon="3.3524">
        <ele>419.6</ele>
        <time>2026-05-18T12:13:56Z</time>
      </trkpt>
      <trkpt lat="43.7293" lon="3.3524">
        <ele>419.6</ele>
        <time>2026-05-18T12:14:01Z</time>
      </trkpt>
      <trkpt lat="43.7293" lon="3.3524">
        <ele>419.6</ele>
        <time>2026-05-18T12:14:06Z</time>
      </trkpt>
      <trkpt lat="43.7293" lon="3.3524">
        <ele>419.6</ele>
        <time>2026-05-18T12:14:11Z</time>
      </trkpt>
      <trkpt lat="43.7293" lon="3.3524">
        <ele>419.6</ele>
        <time>2026-05-18T12:14:16Z</time>
      </trkpt>
      <trkpt lat="43.7293" lon="3.3524">
        <ele>419.6</ele>
        <time>2026-05-18T12:14:21Z</time>
      </trkpt>
      <trkpt lat="43.7293" lon="3.3524">
        <ele>419.6</ele>
        <time>2026-05-18T12:14:26Z</time>
      </trkpt>
      <trkpt lat="43.7293" lon="3.3524">
        <ele>419.6</ele>
        <time>2026-05-18T12:14:31Z</time>
      </trkpt>
      <trkpt lat="43.7293" lon="3.3524">
        <ele>419.6</ele>
        <time>2026-05-18T12:14:36Z</time>
      </trkpt>
      <trkpt lat="43.7293" lon="3.3524">
        <ele>419.6</ele>
        <time>2026-05-18T12:14:41Z</time>
      </trkpt>
      <trkpt lat="43.7293" lon="3.3524">
        <ele>419.6</ele>
        <time>2026-05-18T12:14:46Z</time>
      </trkpt>
      <trkpt lat="43.7293" lon="3.3524">
        <ele>419.6</ele>
        <time>2026-05-18T12:14:51Z</time>
      </trkpt>
      <trkpt lat="43.7293" lon="3.3524">
        <ele>419.6</ele>
        <time>2026-05-18T12:14:56Z</time>
      </trkpt>
      <trkpt lat="43.7293" lon="3.3524">
        <ele>419.6</ele>
        <time>2026-05-18T12:15:01Z</time>
      </trkpt>
      <trkpt lat="43.7293" lon="3.3524">
        <ele>419.6</ele>
        <time>2026-05-18T12:15:06Z</time>
      </trkpt>
      <trkpt lat="43.7293" lon="3.3524">
        <ele>419.6</ele>
        <time>2026-05-18T12:15:11Z</time>
      </trkpt>
      <trkpt lat="43.7293" lon="3.3524">
        <ele>419.6</ele>
        <time>2026-05-18T12:15:16Z</time>
      </trkpt>
      <trkpt lat="43.7293" lon="3.3524">
        <ele>419.6</ele>
        <time>2026-05-18T12:15:21Z</time>
      </trkpt>
      <trkpt lat="43.7293" lon="3.3524">
        <ele>419.6</ele>
        <time>2026-05-18T12:15:26Z</time>
      </trkpt>
      <trkpt lat="43.7293" lon="3.3524">
        <ele>419.6</ele>
        <time>2026-05-18T12:15:31Z</time>
      </trkpt>
      <trkpt lat="43.7293" lon="3.3524">
        <ele>419.6</ele>
        <time>2026-05-18T12:15:36Z</time>
      </trkpt>
      <trkpt lat="43.7293" lon="3.3524">
        <ele>419.6</ele>
        <time>2026-05-18T12:15:41Z</time>
      </trkpt>
      <trkpt lat="43.7293" lon="3.3524">
        <ele>419.6</ele>
        <time>2026-05-18T12:15:46Z</time>
      </trkpt>
      <trkpt lat="43.7293" lon="3.3524">
        <ele>419.6</ele>
        <time>2026-05-18T12:15:51Z</time>
      </trkpt>
      <trkpt lat="43.7293" lon="3.3524">
        <ele>419.6</ele>
        <time>2026-05-18T12:15:56Z</time>
      </trkpt>
      <trkpt lat="43.7293" lon="3.3524">
        <ele>419.6</ele>
        <time>2026-05-18T12:16:01Z</time>
      </trkpt>
      <trkpt lat="43.7293" lon="3.3524">
        <ele>419.6</ele>
        <time>2026-05-18T12:16:06Z</time>
      </trkpt>
      <trkpt lat="43.7293" lon="3.3524">
        <ele>419.6</ele>
        <time>2026-05-18T12:16:11Z</time>
      </trkpt>
      <trkpt lat="43.7293" lon="3.3524">
        <ele>419.6</ele>
        <time>2026-05-18T12:16:16Z</time>
      </trkpt>
      <trkpt lat="43.7293" lon="3.3524">
        <ele>419.6</ele>
        <time>2026-05-18T12:16:21Z</time>
      </trkpt>
      <trkpt lat="43.7293" lon="3.3524">
        <ele>419.6</ele>
        <time>2026-05-18T12:16:26Z</time>
      </trkpt>
      <trkpt lat="43.7293" lon="3.3524">
        <ele>419.6</ele>
        <time>2026-05-18T12:16:31Z</time>
      </trkpt>
      <trkpt lat="43.7293" lon="3.3524">
        <ele>419.6</ele>
        <time>2026-05-18T12:16:36Z</time>
      </trkpt>
      <trkpt lat="43.7293" lon="3.3524">
        <ele>419.6</ele>
        <time>2026-05-18T12:16:41Z</time>
      </trkpt>
      <trkpt lat="43.7293" lon="3.3524">
        <ele>419.6</ele>
        <time>2026-05-18T12:16:46Z</time>
      </trkpt>
      <trkpt lat="43.7293" lon="3.3524">
        <ele>419.6</ele>
        <time>2026-05-18T12:16:51Z</time>
      </trkpt>
      <trkpt lat="43.7293" lon="3.3524">
        <ele>419.6</ele>
        <time>2026-05-18T12:16:56Z</time>
      </trkpt>
      <trkpt lat="43.7293" lon="3.3524">
        <ele>419.6</ele>
        <time>2026-05-18T12:17:01Z</time>
      </trkpt>
      <trkpt lat="43.7293" lon="3.3524">
        <ele>419.6</ele>
        <time>2026-05-18T12:17:06Z</time>
      </trkpt>
      <trkpt lat="43.7293" lon="3.3524">
        <ele>419.6</ele>
        <time>2026-05-18T12:17:11Z</time>
      </trkpt>
      <trkpt lat="43.7293" lon="3.3524">
        <ele>419.6</ele>
        <time>2026-05-18T12:17:16Z</time>
      </trkpt>
      <trkpt lat="43.7293" lon="3.3524">
        <ele>419.6</ele>
        <time>2026-05-18T12:17:21Z</time>
      </trkpt>
      <trkpt lat="43.7293" lon="3.3524">
        <ele>419.6</ele>
        <time>2026-05-18T12:17:26Z</time>
      </trkpt>
      <trkpt lat="43.7293" lon="3.3524">
        <ele>419.6</ele>
        <time>2026-05-18T12:17:31Z</time>
      </trkpt>
      <trkpt lat="43.7293" lon="3.3524">
        <ele>419.6</ele>
        <time>2026-05-18T12:17:36Z</time>
      </trkpt>
      <trkpt lat="43.7293" lon="3.3524">
        <ele>419.6</ele>
        <time>2026-05-18T12:17:41Z</time>
      </trkpt>
      <trkpt lat="43.7293" lon="3.3524">
        <ele>419.6</ele>
        <time>2026-05-18T12:17:46Z</time>
      </trkpt>
      <trkpt lat="43.7293" lon="3.3524">
        <ele>419.6</ele>
        <time>2026-05-18T12:17:51Z</time>
      </trkpt>
      <trkpt lat="43.7293" lon="3.3524">
        <ele>419.6</ele>
        <time>2026-05-18T12:17:56Z</time>
      </trkpt>
      <trkpt lat="43.7293" lon="3.3524">
        <ele>419.6</ele>
        <time>2026-05-18T12:18:01Z</time>
      </trkpt>
      <trkpt lat="43.7293" lon="3.3524">
        <ele>419.6</ele>
        <time>2026-05-18T12:18:06Z</time>
      </trkpt>
      <trkpt lat="43.7293" lon="3.3524">
        <ele>419.6</ele>
        <time>2026-05-18T12:18:11Z</time>
      </trkpt>
      <trkpt lat="43.7293" lon="3.3524">
        <ele>419.6</ele>
        <time>2026-05-18T12:18:16Z</time>
      </trkpt>
      <trkpt lat="43.7293" lon="3.3524">
        <ele>419.6</ele>
        <time>2026-05-18T12:18:21Z</time>
      </trkpt>
      <trkpt lat="43.7293" lon="3.3524">
        <ele>419.6</ele>
        <time>2026-05-18T12:18:26Z</time>
      </trkpt>
      <trkpt lat="43.7293" lon="3.3524">
        <ele>419.6</ele>
        <time>2026-05-18T12:18:31Z</time>
      </trkpt>
      <trkpt lat="43.7293" lon="3.3524">
        <ele>419.6</ele>
        <time>2026-05-18T12:18:36Z</time>
      </trkpt>
      <trkpt lat="43.7293" lon="3.3524">
        <ele>419.6</ele>
        <time>2026-05-18T12:18:41Z</time>
      </trkpt>
      <trkpt lat="43.7293" lon="3.3524">
        <ele>419.6</ele>
        <time>2026-05-18T12:18:46Z</time>
      </trkpt>
      <trkpt lat="43.7293" lon="3.3524">
        <ele>419.6</ele>
        <time>2026-05-18T12:18:51Z</time>
      </trkpt>
      <trkpt lat="43.7293" lon="3.3524">
        <ele>419.6</ele>
        <time>2026-05-18T12:18:56Z</time>
      </trkpt>
      <trkpt lat="43.7293" lon="3.3524">
        <ele>419.6</ele>
        <time>2026-05-18T12:19:01Z</time>
      </trkpt>
      <trkpt lat="43.7293" lon="3.3524">
        <ele>419.6</ele>
        <time>2026-05-18T12:19:06Z</time>
      </trkpt>
      <trkpt lat="43.7293" lon="3.3524">
        <ele>419.6</ele>
        <time>2026-05-18T12:19:11Z</time>
      </trkpt>
      <trkpt lat="43.7293" lon="3.3524">
        <ele>419.6</ele>
        <time>2026-05-18T12:19:16Z</time>
      </trkpt>
      <trkpt lat="43.7293" lon="3.3524">
        <ele>419.6</ele>
        <time>2026-05-18T12:19:21Z</time>
      </trkpt>
      <trkpt lat="43.7293" lon="3.3524">
        <ele>419.6</ele>
        <time>2026-05-18T12:19:26Z</time>
      </trkpt>
      <trkpt lat="43.7293" lon="3.3524">
        <ele>419.6</ele>
        <time>2026-05-18T12:19:31Z</time>
      </trkpt>
      <trkpt lat="43.7293" lon="3.3524">
        <ele>419.6</ele>
        <time>2026-05-18T12:19:36Z</time>
      </trkpt>
      <trkpt lat="43.7293" lon="3.3524">
        <ele>419.6</ele>
        <time>2026-05-18T12:19:41Z</time>
      </trkpt>
      <trkpt lat="43.7293" lon="3.3524">
        <ele>419.6</ele>
        <time>2026-05-18T12:19:46Z</time>
      </trkpt>
      <trkpt lat="43.7293" lon="3.3524">
        <ele>419.6</ele>
        <time>2026-05-18T12:19:51Z</time>
      </trkpt>
      <trkpt lat="43.7293" lon="3.3524">
        <ele>419.6</ele>
        <time>2026-05-18T12:19:56Z</time>
      </trkpt>
      <trkpt lat="43.7293" lon="3.3524">
        <ele>419.6</ele>
        <time>2026-05-18T12:20:01Z</time>
      </trkpt>
      <trkpt lat="43.7293" lon="3.3524">
        <ele>419.6</ele>
        <time>2026-05-18T12:20:06Z</time>
      </trkpt>
      <trkpt lat="43.7293" lon="3.3524">
        <ele>419.6</ele>
        <time>2026-05-18T12:20:11Z</time>
      </trkpt>
      <trkpt lat="43.7293" lon="3.3524">
        <ele>419.6</ele>
        <time>2026-05-18T12:20:16Z</time>
      </trkpt>
      <trkpt lat="43.7293" lon="3.3524">
        <ele>419.6</ele>
        <time>2026-05-18T12:20:21Z</time>
      </trkpt>
      <trkpt lat="43.7293" lon="3.3524">
        <ele>419.6</ele>
        <time>2026-05-18T12:20:26Z</time>
      </trkpt>
      <trkpt lat="43.7293" lon="3.3524">
        <ele>419.6</ele>
        <time>2026-05-18T12:20:31Z</time>
      </trkpt>
      <trkpt lat="43.7293" lon="3.3524">
        <ele>419.6</ele>
        <time>2026-05-18T12:20:36Z</time>
      </trkpt>
      <trkpt lat="43.7293" lon="3.3524">
        <ele>419.6</ele>
        <time>2026-05-18T12:20:41Z</time>
      </trkpt>
      <trkpt lat="43.7293" lon="3.3524">
        <ele>419.6</ele>
        <time>2026-05-18T12:20:46Z</time>
      </trkpt>
      <trkpt lat="43.7293" lon="3.3524">
        <ele>419.6</ele>
        <time>2026-05-18T12:20:51Z</time>
      </trkpt>
      <trkpt lat="43.7293" lon="3.3524">
        <ele>419.6</ele>
        <time>2026-05-18T12:20:56Z</time>
      </trkpt>
      <trkpt lat="43.7293" lon="3.3524">
        <ele>419.6</ele>
        <time>2026-05-18T12:21:01Z</time>
      </trkpt>
      <trkpt lat="43.7293" lon="3.3524">
        <ele>419.6</ele>
        <time>2026-05-18T12:21:06Z</time>
      </trkpt>
      <trkpt lat="43.7293" lon="3.3524">
        <ele>419.6</ele>
        <time>2026-05-18T12:21:11Z</time>
      </trkpt>
      <trkpt lat="43.7293" lon="3.3524">
        <ele>419.6</ele>
        <time>2026-05-18T12:21:16Z</time>
      </trkpt>
      <trkpt lat="43.7293" lon="3.3524">
        <ele>419.6</ele>
        <time>2026-05-18T12:21:21Z</time>
      </trkpt>
      <trkpt lat="43.7293" lon="3.3524">
        <ele>419.6</ele>
        <time>2026-05-18T12:21:26Z</time>
      </trkpt>
      <trkpt lat="43.7293" lon="3.3524">
        <ele>419.6</ele>
        <time>2026-05-18T12:21:31Z</time>
      </trkpt>
      <trkpt lat="43.7293" lon="3.3524">
        <ele>419.6</ele>
        <time>2026-05-18T12:21:36Z</time>
      </trkpt>
      <trkpt lat="43.7293" lon="3.3524">
        <ele>419.6</ele>
        <time>2026-05-18T12:21:41Z</time>
      </trkpt>
      <trkpt lat="43.7293" lon="3.3524">
        <ele>419.6</ele>
        <time>2026-05-18T12:21:46Z</time>
      </trkpt>
      <trkpt lat="43.7293" lon="3.3524">
        <ele>419.6</ele>
        <time>2026-05-18T12:21:51Z</time>
      </trkpt>
      <trkpt lat="43.7293" lon="3.3524">
        <ele>419.6</ele>
        <time>2026-05-18T12:21:56Z</time>
      </trkpt>
      <trkpt lat="43.7293" lon="3.3524">
        <ele>419.6</ele>
        <time>2026-05-18T12:22:01Z</time>
      </trkpt>
      <trkpt lat="43.7293" lon="3.3524">
        <ele>419.6</ele>
        <time>2026-05-18T12:22:06Z</time>
      </trkpt>
      <trkpt lat="43.7293" lon="3.3524">
        <ele>419.6</ele>
        <time>2026-05-18T12:22:11Z</time>
      </trkpt>
      <trkpt lat="43.7293" lon="3.3524">
        <ele>419.6</ele>
        <time>2026-05-18T12:22:16Z</time>
      </trkpt>
      <trkpt lat="43.7293" lon="3.3524">
        <ele>419.6</ele>
        <time>2026-05-18T12:22:21Z</time>
      </trkpt>
      <trkpt lat="43.7293" lon="3.3524">
        <ele>419.6</ele>
        <time>2026-05-18T12:22:26Z</time>
      </trkpt>
      <trkpt lat="43.7293" lon="3.3524">
        <ele>419.6</ele>
        <time>2026-05-18T12:22:31Z</time>
      </trkpt>
      <trkpt lat="43.7293" lon="3.3524">
        <ele>419.6</ele>
        <time>2026-05-18T12:22:36Z</time>
      </trkpt>
      <trkpt lat="43.7293" lon="3.3524">
        <ele>419.6</ele>
        <time>2026-05-18T12:22:41Z</time>
      </trkpt>
      <trkpt lat="43.7293" lon="3.3524">
        <ele>419.6</ele>
        <time>2026-05-18T12:22:46Z</time>
      </trkpt>
      <trkpt lat="43.7293" lon="3.3524">
        <ele>419.6</ele>
        <time>2026-05-18T12:22:51Z</time>
      </trkpt>
      <trkpt lat="43.7293" lon="3.3524">
        <ele>419.6</ele>
        <time>2026-05-18T12:22:56Z</time>
      </trkpt>
      <trkpt lat="43.7293" lon="3.3524">
        <ele>419.6</ele>
        <time>2026-05-18T12:23:01Z</time>
      </trkpt>
      <trkpt lat="43.7293" lon="3.3524">
        <ele>419.6</ele>
        <time>2026-05-18T12:23:06Z</time>
      </trkpt>
      <trkpt lat="43.7293" lon="3.3524">
        <ele>419.6</ele>
        <time>2026-05-18T12:23:11Z</time>
      </trkpt>
      <trkpt lat="43.7293" lon="3.3524">
        <ele>419.6</ele>
        <time>2026-05-18T12:23:16Z</time>
      </trkpt>
      <trkpt lat="43.7293" lon="3.3524">
        <ele>419.6</ele>
        <time>2026-05-18T12:23:21Z</time>
      </trkpt>
      <trkpt lat="43.7293" lon="3.3524">
        <ele>419.6</ele>
        <time>2026-05-18T12:23:26Z</time>
      </trkpt>
      <trkpt lat="43.7293" lon="3.3524">
        <ele>419.6</ele>
        <time>2026-05-18T12:23:31Z</time>
      </trkpt>
      <trkpt lat="43.7293" lon="3.3524">
        <ele>419.6</ele>
        <time>2026-05-18T12:23:36Z</time>
      </trkpt>
      <trkpt lat="43.7293" lon="3.3524">
        <ele>419.6</ele>
        <time>2026-05-18T12:23:41Z</time>
      </trkpt>
      <trkpt lat="43.7293" lon="3.3524">
        <ele>419.6</ele>
        <time>2026-05-18T12:23:46Z</time>
      </trkpt>
      <trkpt lat="43.7293" lon="3.3524">
        <ele>419.6</ele>
        <time>2026-05-18T12:23:51Z</time>
      </trkpt>
      <trkpt lat="43.7293" lon="3.3524">
        <ele>419.6</ele>
        <time>2026-05-18T12:23:56Z</time>
      </trkpt>
      <trkpt lat="43.7293" lon="3.3524">
        <ele>419.6</ele>
        <time>2026-05-18T12:24:01Z</time>
      </trkpt>
      <trkpt lat="43.7293" lon="3.3524">
        <ele>419.6</ele>
        <time>2026-05-18T12:24:06Z</time>
      </trkpt>
      <trkpt lat="43.7293" lon="3.3524">
        <ele>419.6</ele>
        <time>2026-05-18T12:24:11Z</time>
      </trkpt>
      <trkpt lat="43.7293" lon="3.3524">
        <ele>419.6</ele>
        <time>2026-05-18T12:24:16Z</time>
      </trkpt>
      <trkpt lat="43.7293" lon="3.3524">
        <ele>419.6</ele>
        <time>2026-05-18T12:24:21Z</time>
      </trkpt>
      <trkpt lat="43.7293" lon="3.3524">
        <ele>419.6</ele>
        <time>2026-05-18T12:24:26Z</time>
      </trkpt>
      <trkpt lat="43.7293" lon="3.3524">
        <ele>419.6</ele>
        <time>2026-05-18T12:24:31Z</time>
      </trkpt>
      <trkpt lat="43.7293" lon="3.3524">
        <ele>419.6</ele>
        <time>2026-05-18T12:24:36Z</time>
      </trkpt>
      <trkpt lat="43.7293" lon="3.3524">
        <ele>419.6</ele>
        <time>2026-05-18T12:24:41Z</time>
      </trkpt>
      <trkpt lat="43.72924" lon="3.3524">
        <ele>418.9</ele>
        <time>2026-05-18T12:24:46Z</time>
      </trkpt>
      <trkpt lat="43.72919" lon="3.35242">
        <ele>418.5</ele>
        <time>2026-05-18T12:24:51Z</time>
      </trkpt>
      <trkpt lat="43.72912" lon="3.35242">
        <ele>417.1</ele>
        <time>2026-05-18T12:24:56Z</time>
      </trkpt>
      <trkpt lat="43.72906" lon="3.35242">
        <ele>415.7</ele>
        <time>2026-05-18T12:25:01Z</time>
      </trkpt>
      <trkpt lat="43.72901" lon="3.35242">
        <ele>414.5</ele>
        <time>2026-05-18T12:25:06Z</time>
      </trkpt>
      <trkpt lat="43.72895" lon="3.35244">
        <ele>413.2</ele>
        <time>2026-05-18T12:25:11Z</time>
      </trkpt>
      <trkpt lat="43.72888" lon="3.35247">
        <ele>411.6</ele>
        <time>2026-05-18T12:25:16Z</time>
      </trkpt>
      <trkpt lat="43.72882" lon="3.3525">
        <ele>410.3</ele>
        <time>2026-05-18T12:25:21Z</time>
      </trkpt>
      <trkpt lat="43.72876" lon="3.35254">
        <ele>408.6</ele>
        <time>2026-05-18T12:25:26Z</time>
      </trkpt>
      <trkpt lat="43.7287" lon="3.35256">
        <ele>407.1</ele>
        <time>2026-05-18T12:25:31Z</time>
      </trkpt>
      <trkpt lat="43.72863" lon="3.35256">
        <ele>405.3</ele>
        <time>2026-05-18T12:25:36Z</time>
      </trkpt>
      <trkpt lat="43.72858" lon="3.35252">
        <ele>404.2</ele>
        <time>2026-05-18T12:25:41Z</time>
      </trkpt>
      <trkpt lat="43.72857" lon="3.35251">
        <ele>403.9</ele>
        <time>2026-05-18T12:25:46Z</time>
      </trkpt>
      <trkpt lat="43.72857" lon="3.35251">
        <ele>403.9</ele>
        <time>2026-05-18T12:25:51Z</time>
      </trkpt>
      <trkpt lat="43.72857" lon="3.35251">
        <ele>403.9</ele>
        <time>2026-05-18T12:25:56Z</time>
      </trkpt>
      <trkpt lat="43.72857" lon="3.35251">
        <ele>403.9</ele>
        <time>2026-05-18T12:26:01Z</time>
      </trkpt>
      <trkpt lat="43.72857" lon="3.35251">
        <ele>403.9</ele>
        <time>2026-05-18T12:26:06Z</time>
      </trkpt>
      <trkpt lat="43.72857" lon="3.35251">
        <ele>403.9</ele>
        <time>2026-05-18T12:26:11Z</time>
      </trkpt>
      <trkpt lat="43.72857" lon="3.35251">
        <ele>403.9</ele>
        <time>2026-05-18T12:26:16Z</time>
      </trkpt>
      <trkpt lat="43.72857" lon="3.35251">
        <ele>403.9</ele>
        <time>2026-05-18T12:26:21Z</time>
      </trkpt>
      <trkpt lat="43.72857" lon="3.35251">
        <ele>403.9</ele>
        <time>2026-05-18T12:26:26Z</time>
      </trkpt>
      <trkpt lat="43.72857" lon="3.35251">
        <ele>403.9</ele>
        <time>2026-05-18T12:26:31Z</time>
      </trkpt>
      <trkpt lat="43.72857" lon="3.35251">
        <ele>403.9</ele>
        <time>2026-05-18T12:26:36Z</time>
      </trkpt>
      <trkpt lat="43.72857" lon="3.35251">
        <ele>403.9</ele>
        <time>2026-05-18T12:26:41Z</time>
      </trkpt>
      <trkpt lat="43.72857" lon="3.35251">
        <ele>403.9</ele>
        <time>2026-05-18T12:26:46Z</time>
      </trkpt>
      <trkpt lat="43.72857" lon="3.35251">
        <ele>403.9</ele>
        <time>2026-05-18T12:26:51Z</time>
      </trkpt>
      <trkpt lat="43.72857" lon="3.35251">
        <ele>403.9</ele>
        <time>2026-05-18T12:26:56Z</time>
      </trkpt>
      <trkpt lat="43.72857" lon="3.35251">
        <ele>403.9</ele>
        <time>2026-05-18T12:27:01Z</time>
      </trkpt>
      <trkpt lat="43.72857" lon="3.35251">
        <ele>403.9</ele>
        <time>2026-05-18T12:27:06Z</time>
      </trkpt>
      <trkpt lat="43.72857" lon="3.35251">
        <ele>403.9</ele>
        <time>2026-05-18T12:27:11Z</time>
      </trkpt>
      <trkpt lat="43.72857" lon="3.35251">
        <ele>403.9</ele>
        <time>2026-05-18T12:27:16Z</time>
      </trkpt>
      <trkpt lat="43.72857" lon="3.35251">
        <ele>403.9</ele>
        <time>2026-05-18T12:27:21Z</time>
      </trkpt>
      <trkpt lat="43.72857" lon="3.35251">
        <ele>403.9</ele>
        <time>2026-05-18T12:27:26Z</time>
      </trkpt>
      <trkpt lat="43.72857" lon="3.35251">
        <ele>403.9</ele>
        <time>2026-05-18T12:27:31Z</time>
      </trkpt>
      <trkpt lat="43.72857" lon="3.35251">
        <ele>403.9</ele>
        <time>2026-05-18T12:27:36Z</time>
      </trkpt>
      <trkpt lat="43.72857" lon="3.35251">
        <ele>403.9</ele>
        <time>2026-05-18T12:27:41Z</time>
      </trkpt>
      <trkpt lat="43.72857" lon="3.35251">
        <ele>403.9</ele>
        <time>2026-05-18T12:27:46Z</time>
      </trkpt>
      <trkpt lat="43.72857" lon="3.35251">
        <ele>403.9</ele>
        <time>2026-05-18T12:27:51Z</time>
      </trkpt>
      <trkpt lat="43.72857" lon="3.35251">
        <ele>403.9</ele>
        <time>2026-05-18T12:27:56Z</time>
      </trkpt>
      <trkpt lat="43.72853" lon="3.3526">
        <ele>402.8</ele>
        <time>2026-05-18T12:28:01Z</time>
      </trkpt>
      <trkpt lat="43.72849" lon="3.35262">
        <ele>401.7</ele>
        <time>2026-05-18T12:28:06Z</time>
      </trkpt>
      <trkpt lat="43.72845" lon="3.35263">
        <ele>400.7</ele>
        <time>2026-05-18T12:28:11Z</time>
      </trkpt>
      <trkpt lat="43.7284" lon="3.35264">
        <ele>399.5</ele>
        <time>2026-05-18T12:28:16Z</time>
      </trkpt>
      <trkpt lat="43.72836" lon="3.35265">
        <ele>398.5</ele>
        <time>2026-05-18T12:28:21Z</time>
      </trkpt>
      <trkpt lat="43.72832" lon="3.35261">
        <ele>397.5</ele>
        <time>2026-05-18T12:28:26Z</time>
      </trkpt>
      <trkpt lat="43.72829" lon="3.35258">
        <ele>396.6</ele>
        <time>2026-05-18T12:28:31Z</time>
      </trkpt>
      <trkpt lat="43.72828" lon="3.35256">
        <ele>396.4</ele>
        <time>2026-05-18T12:28:36Z</time>
      </trkpt>
      <trkpt lat="43.72827" lon="3.35256">
        <ele>396.1</ele>
        <time>2026-05-18T12:28:41Z</time>
      </trkpt>
      <trkpt lat="43.72827" lon="3.35256">
        <ele>396.1</ele>
        <time>2026-05-18T12:28:46Z</time>
      </trkpt>
      <trkpt lat="43.72827" lon="3.35256">
        <ele>396.1</ele>
        <time>2026-05-18T12:28:51Z</time>
      </trkpt>
      <trkpt lat="43.72827" lon="3.35256">
        <ele>396.1</ele>
        <time>2026-05-18T12:28:56Z</time>
      </trkpt>
      <trkpt lat="43.72824" lon="3.35249">
        <ele>395.4</ele>
        <time>2026-05-18T12:29:01Z</time>
      </trkpt>
      <trkpt lat="43.72824" lon="3.35244">
        <ele>395.6</ele>
        <time>2026-05-18T12:29:06Z</time>
      </trkpt>
      <trkpt lat="43.72821" lon="3.35241">
        <ele>394.9</ele>
        <time>2026-05-18T12:29:11Z</time>
      </trkpt>
      <trkpt lat="43.72819" lon="3.35236">
        <ele>394.6</ele>
        <time>2026-05-18T12:29:16Z</time>
      </trkpt>
      <trkpt lat="43.72818" lon="3.3523">
        <ele>394.6</ele>
        <time>2026-05-18T12:29:21Z</time>
      </trkpt>
      <trkpt lat="43.72815" lon="3.35227">
        <ele>394</ele>
        <time>2026-05-18T12:29:26Z</time>
      </trkpt>
      <trkpt lat="43.72812" lon="3.35226">
        <ele>393.2</ele>
        <time>2026-05-18T12:29:31Z</time>
      </trkpt>
      <trkpt lat="43.72812" lon="3.35229">
        <ele>393.1</ele>
        <time>2026-05-18T12:29:36Z</time>
      </trkpt>
      <trkpt lat="43.72811" lon="3.35234">
        <ele>392.5</ele>
        <time>2026-05-18T12:29:41Z</time>
      </trkpt>
      <trkpt lat="43.7281" lon="3.35236">
        <ele>392.1</ele>
        <time>2026-05-18T12:29:46Z</time>
      </trkpt>
      <trkpt lat="43.7281" lon="3.35236">
        <ele>392.1</ele>
        <time>2026-05-18T12:29:51Z</time>
      </trkpt>
      <trkpt lat="43.7281" lon="3.35236">
        <ele>392.1</ele>
        <time>2026-05-18T12:29:56Z</time>
      </trkpt>
      <trkpt lat="43.7281" lon="3.35236">
        <ele>392.1</ele>
        <time>2026-05-18T12:30:01Z</time>
      </trkpt>
      <trkpt lat="43.7281" lon="3.35236">
        <ele>392.1</ele>
        <time>2026-05-18T12:30:06Z</time>
      </trkpt>
      <trkpt lat="43.72802" lon="3.35244">
        <ele>389.4</ele>
        <time>2026-05-18T12:30:11Z</time>
      </trkpt>
      <trkpt lat="43.728" lon="3.35241">
        <ele>389</ele>
        <time>2026-05-18T12:30:16Z</time>
      </trkpt>
      <trkpt lat="43.72797" lon="3.35238">
        <ele>388.4</ele>
        <time>2026-05-18T12:30:21Z</time>
      </trkpt>
      <trkpt lat="43.72793" lon="3.3524">
        <ele>387.2</ele>
        <time>2026-05-18T12:30:26Z</time>
      </trkpt>
      <trkpt lat="43.72789" lon="3.35236">
        <ele>386.4</ele>
        <time>2026-05-18T12:30:31Z</time>
      </trkpt>
      <trkpt lat="43.72787" lon="3.35229">
        <ele>386.4</ele>
        <time>2026-05-18T12:30:36Z</time>
      </trkpt>
      <trkpt lat="43.72786" lon="3.3522">
        <ele>386.9</ele>
        <time>2026-05-18T12:30:41Z</time>
      </trkpt>
      <trkpt lat="43.72783" lon="3.35214">
        <ele>386.6</ele>
        <time>2026-05-18T12:30:46Z</time>
      </trkpt>
      <trkpt lat="43.72785" lon="3.35208">
        <ele>387.6</ele>
        <time>2026-05-18T12:30:51Z</time>
      </trkpt>
      <trkpt lat="43.72786" lon="3.35199">
        <ele>388.6</ele>
        <time>2026-05-18T12:30:56Z</time>
      </trkpt>
      <trkpt lat="43.7279" lon="3.35191">
        <ele>390.2</ele>
        <time>2026-05-18T12:31:01Z</time>
      </trkpt>
      <trkpt lat="43.7279" lon="3.35182">
        <ele>390.9</ele>
        <time>2026-05-18T12:31:06Z</time>
      </trkpt>
      <trkpt lat="43.72791" lon="3.35177">
        <ele>391.6</ele>
        <time>2026-05-18T12:31:11Z</time>
      </trkpt>
      <trkpt lat="43.72791" lon="3.35177">
        <ele>391.6</ele>
        <time>2026-05-18T12:31:16Z</time>
      </trkpt>
      <trkpt lat="43.7279" lon="3.35176">
        <ele>391.4</ele>
        <time>2026-05-18T12:31:21Z</time>
      </trkpt>
      <trkpt lat="43.72792" lon="3.35173">
        <ele>392.1</ele>
        <time>2026-05-18T12:31:26Z</time>
      </trkpt>
      <trkpt lat="43.72796" lon="3.35168">
        <ele>393.3</ele>
        <time>2026-05-18T12:31:31Z</time>
      </trkpt>
      <trkpt lat="43.72803" lon="3.35165">
        <ele>394.7</ele>
        <time>2026-05-18T12:31:36Z</time>
      </trkpt>
      <trkpt lat="43.7281" lon="3.3516">
        <ele>395.8</ele>
        <time>2026-05-18T12:31:41Z</time>
      </trkpt>
      <trkpt lat="43.72816" lon="3.35155">
        <ele>396.7</ele>
        <time>2026-05-18T12:31:46Z</time>
      </trkpt>
      <trkpt lat="43.72823" lon="3.35151">
        <ele>397.7</ele>
        <time>2026-05-18T12:31:51Z</time>
      </trkpt>
      <trkpt lat="43.7283" lon="3.35147">
        <ele>398.7</ele>
        <time>2026-05-18T12:31:56Z</time>
      </trkpt>
      <trkpt lat="43.72837" lon="3.35142">
        <ele>399.3</ele>
        <time>2026-05-18T12:32:01Z</time>
      </trkpt>
      <trkpt lat="43.72844" lon="3.35137">
        <ele>399.5</ele>
        <time>2026-05-18T12:32:06Z</time>
      </trkpt>
      <trkpt lat="43.72851" lon="3.35133">
        <ele>399.8</ele>
        <time>2026-05-18T12:32:11Z</time>
      </trkpt>
      <trkpt lat="43.72856" lon="3.35129">
        <ele>399.8</ele>
        <time>2026-05-18T12:32:16Z</time>
      </trkpt>
      <trkpt lat="43.72862" lon="3.35124">
        <ele>399.8</ele>
        <time>2026-05-18T12:32:21Z</time>
      </trkpt>
      <trkpt lat="43.72868" lon="3.35119">
        <ele>399.7</ele>
        <time>2026-05-18T12:32:26Z</time>
      </trkpt>
      <trkpt lat="43.72874" lon="3.35114">
        <ele>399.6</ele>
        <time>2026-05-18T12:32:31Z</time>
      </trkpt>
      <trkpt lat="43.72879" lon="3.3511">
        <ele>399.5</ele>
        <time>2026-05-18T12:32:36Z</time>
      </trkpt>
      <trkpt lat="43.72887" lon="3.35105">
        <ele>399.4</ele>
        <time>2026-05-18T12:32:41Z</time>
      </trkpt>
      <trkpt lat="43.72893" lon="3.35101">
        <ele>399.3</ele>
        <time>2026-05-18T12:32:46Z</time>
      </trkpt>
      <trkpt lat="43.72897" lon="3.35095">
        <ele>398.7</ele>
        <time>2026-05-18T12:32:51Z</time>
      </trkpt>
      <trkpt lat="43.72901" lon="3.35087">
        <ele>397.8</ele>
        <time>2026-05-18T12:32:56Z</time>
      </trkpt>
      <trkpt lat="43.72906" lon="3.35081">
        <ele>397.1</ele>
        <time>2026-05-18T12:33:01Z</time>
      </trkpt>
      <trkpt lat="43.72911" lon="3.35074">
        <ele>396.1</ele>
        <time>2026-05-18T12:33:06Z</time>
      </trkpt>
      <trkpt lat="43.72914" lon="3.35066">
        <ele>394.9</ele>
        <time>2026-05-18T12:33:11Z</time>
      </trkpt>
      <trkpt lat="43.72919" lon="3.35058">
        <ele>394.2</ele>
        <time>2026-05-18T12:33:16Z</time>
      </trkpt>
      <trkpt lat="43.72922" lon="3.3505">
        <ele>393.5</ele>
        <time>2026-05-18T12:33:21Z</time>
      </trkpt>
      <trkpt lat="43.72925" lon="3.3504">
        <ele>392.4</ele>
        <time>2026-05-18T12:33:26Z</time>
      </trkpt>
      <trkpt lat="43.72929" lon="3.35032">
        <ele>391.9</ele>
        <time>2026-05-18T12:33:31Z</time>
      </trkpt>
      <trkpt lat="43.72931" lon="3.35025">
        <ele>391.1</ele>
        <time>2026-05-18T12:33:36Z</time>
      </trkpt>
      <trkpt lat="43.72934" lon="3.35017">
        <ele>390.4</ele>
        <time>2026-05-18T12:33:41Z</time>
      </trkpt>
      <trkpt lat="43.72936" lon="3.35009">
        <ele>389.5</ele>
        <time>2026-05-18T12:33:46Z</time>
      </trkpt>
      <trkpt lat="43.72938" lon="3.35001">
        <ele>388.5</ele>
        <time>2026-05-18T12:33:51Z</time>
      </trkpt>
      <trkpt lat="43.7294" lon="3.34993">
        <ele>387.5</ele>
        <time>2026-05-18T12:33:56Z</time>
      </trkpt>
      <trkpt lat="43.72943" lon="3.34985">
        <ele>386.7</ele>
        <time>2026-05-18T12:34:01Z</time>
      </trkpt>
      <trkpt lat="43.72946" lon="3.34977">
        <ele>385.9</ele>
        <time>2026-05-18T12:34:06Z</time>
      </trkpt>
      <trkpt lat="43.72948" lon="3.34967">
        <ele>384.6</ele>
        <time>2026-05-18T12:34:11Z</time>
      </trkpt>
      <trkpt lat="43.72953" lon="3.34959">
        <ele>384.3</ele>
        <time>2026-05-18T12:34:16Z</time>
      </trkpt>
      <trkpt lat="43.72957" lon="3.3495">
        <ele>383.8</ele>
        <time>2026-05-18T12:34:21Z</time>
      </trkpt>
      <trkpt lat="43.72961" lon="3.34945">
        <ele>383.9</ele>
        <time>2026-05-18T12:34:26Z</time>
      </trkpt>
      <trkpt lat="43.72963" lon="3.34943">
        <ele>384.1</ele>
        <time>2026-05-18T12:34:31Z</time>
      </trkpt>
      <trkpt lat="43.72963" lon="3.34943">
        <ele>384.1</ele>
        <time>2026-05-18T12:34:36Z</time>
      </trkpt>
      <trkpt lat="43.72963" lon="3.34943">
        <ele>384.1</ele>
        <time>2026-05-18T12:34:41Z</time>
      </trkpt>
      <trkpt lat="43.72963" lon="3.34943">
        <ele>384.1</ele>
        <time>2026-05-18T12:34:46Z</time>
      </trkpt>
      <trkpt lat="43.72963" lon="3.34943">
        <ele>384.1</ele>
        <time>2026-05-18T12:34:51Z</time>
      </trkpt>
      <trkpt lat="43.72967" lon="3.34938">
        <ele>384.3</ele>
        <time>2026-05-18T12:34:56Z</time>
      </trkpt>
      <trkpt lat="43.72967" lon="3.34938">
        <ele>384.3</ele>
        <time>2026-05-18T12:35:01Z</time>
      </trkpt>
      <trkpt lat="43.72967" lon="3.34938">
        <ele>384.3</ele>
        <time>2026-05-18T12:35:06Z</time>
      </trkpt>
      <trkpt lat="43.72967" lon="3.34938">
        <ele>384.3</ele>
        <time>2026-05-18T12:35:11Z</time>
      </trkpt>
      <trkpt lat="43.72967" lon="3.34938">
        <ele>384.3</ele>
        <time>2026-05-18T12:35:16Z</time>
      </trkpt>
      <trkpt lat="43.72967" lon="3.34932">
        <ele>383.4</ele>
        <time>2026-05-18T12:35:21Z</time>
      </trkpt>
      <trkpt lat="43.7297" lon="3.34925">
        <ele>383</ele>
        <time>2026-05-18T12:35:26Z</time>
      </trkpt>
      <trkpt lat="43.72973" lon="3.34916">
        <ele>382.5</ele>
        <time>2026-05-18T12:35:31Z</time>
      </trkpt>
      <trkpt lat="43.72976" lon="3.34907">
        <ele>382.9</ele>
        <time>2026-05-18T12:35:36Z</time>
      </trkpt>
      <trkpt lat="43.72981" lon="3.34899">
        <ele>383.9</ele>
        <time>2026-05-18T12:35:41Z</time>
      </trkpt>
      <trkpt lat="43.72985" lon="3.3489">
        <ele>384.7</ele>
        <time>2026-05-18T12:35:46Z</time>
      </trkpt>
      <trkpt lat="43.7299" lon="3.34885">
        <ele>385.9</ele>
        <time>2026-05-18T12:35:51Z</time>
      </trkpt>
      <trkpt lat="43.72993" lon="3.34878">
        <ele>386.5</ele>
        <time>2026-05-18T12:35:56Z</time>
      </trkpt>
      <trkpt lat="43.72997" lon="3.34869">
        <ele>387.4</ele>
        <time>2026-05-18T12:36:01Z</time>
      </trkpt>
      <trkpt lat="43.73" lon="3.34862">
        <ele>388</ele>
        <time>2026-05-18T12:36:06Z</time>
      </trkpt>
      <trkpt lat="43.73002" lon="3.3486">
        <ele>388.5</ele>
        <time>2026-05-18T12:36:11Z</time>
      </trkpt>
      <trkpt lat="43.73006" lon="3.34853">
        <ele>389.3</ele>
        <time>2026-05-18T12:36:16Z</time>
      </trkpt>
      <trkpt lat="43.73012" lon="3.34848">
        <ele>390.6</ele>
        <time>2026-05-18T12:36:21Z</time>
      </trkpt>
      <trkpt lat="43.73017" lon="3.34842">
        <ele>391.7</ele>
        <time>2026-05-18T12:36:26Z</time>
      </trkpt>
      <trkpt lat="43.73023" lon="3.34836">
        <ele>392.9</ele>
        <time>2026-05-18T12:36:31Z</time>
      </trkpt>
      <trkpt lat="43.73028" lon="3.34831">
        <ele>394</ele>
        <time>2026-05-18T12:36:36Z</time>
      </trkpt>
      <trkpt lat="43.73033" lon="3.34824">
        <ele>395</ele>
        <time>2026-05-18T12:36:41Z</time>
      </trkpt>
      <trkpt lat="43.73039" lon="3.34819">
        <ele>396.2</ele>
        <time>2026-05-18T12:36:46Z</time>
      </trkpt>
      <trkpt lat="43.73042" lon="3.34813">
        <ele>396.6</ele>
        <time>2026-05-18T12:36:51Z</time>
      </trkpt>
      <trkpt lat="43.73046" lon="3.34807">
        <ele>397.2</ele>
        <time>2026-05-18T12:36:56Z</time>
      </trkpt>
      <trkpt lat="43.7305" lon="3.34799">
        <ele>397.6</ele>
        <time>2026-05-18T12:37:01Z</time>
      </trkpt>
      <trkpt lat="43.73054" lon="3.34791">
        <ele>398</ele>
        <time>2026-05-18T12:37:06Z</time>
      </trkpt>
      <trkpt lat="43.73058" lon="3.34784">
        <ele>398.3</ele>
        <time>2026-05-18T12:37:11Z</time>
      </trkpt>
      <trkpt lat="43.7306" lon="3.34777">
        <ele>398.2</ele>
        <time>2026-05-18T12:37:16Z</time>
      </trkpt>
      <trkpt lat="43.73061" lon="3.34768">
        <ele>397.8</ele>
        <time>2026-05-18T12:37:21Z</time>
      </trkpt>
      <trkpt lat="43.73062" lon="3.34759">
        <ele>397.3</ele>
        <time>2026-05-18T12:37:26Z</time>
      </trkpt>
      <trkpt lat="43.73065" lon="3.3475">
        <ele>397.1</ele>
        <time>2026-05-18T12:37:31Z</time>
      </trkpt>
      <trkpt lat="43.73067" lon="3.3474">
        <ele>396.7</ele>
        <time>2026-05-18T12:37:36Z</time>
      </trkpt>
      <trkpt lat="43.73068" lon="3.34728">
        <ele>395.9</ele>
        <time>2026-05-18T12:37:41Z</time>
      </trkpt>
      <trkpt lat="43.73068" lon="3.34719">
        <ele>395.1</ele>
        <time>2026-05-18T12:37:46Z</time>
      </trkpt>
      <trkpt lat="43.73068" lon="3.3471">
        <ele>394.4</ele>
        <time>2026-05-18T12:37:51Z</time>
      </trkpt>
      <trkpt lat="43.73069" lon="3.34702">
        <ele>393.9</ele>
        <time>2026-05-18T12:37:56Z</time>
      </trkpt>
      <trkpt lat="43.7307" lon="3.34695">
        <ele>393.5</ele>
        <time>2026-05-18T12:38:01Z</time>
      </trkpt>
      <trkpt lat="43.7307" lon="3.34687">
        <ele>392.9</ele>
        <time>2026-05-18T12:38:06Z</time>
      </trkpt>
      <trkpt lat="43.7307" lon="3.34678">
        <ele>392.1</ele>
        <time>2026-05-18T12:38:11Z</time>
      </trkpt>
      <trkpt lat="43.7307" lon="3.34669">
        <ele>391.4</ele>
        <time>2026-05-18T12:38:16Z</time>
      </trkpt>
      <trkpt lat="43.73074" lon="3.3466">
        <ele>391.4</ele>
        <time>2026-05-18T12:38:21Z</time>
      </trkpt>
      <trkpt lat="43.73076" lon="3.3465">
        <ele>391.2</ele>
        <time>2026-05-18T12:38:26Z</time>
      </trkpt>
      <trkpt lat="43.7308" lon="3.34641">
        <ele>391.3</ele>
        <time>2026-05-18T12:38:31Z</time>
      </trkpt>
      <trkpt lat="43.73081" lon="3.3463">
        <ele>390.9</ele>
        <time>2026-05-18T12:38:36Z</time>
      </trkpt>
      <trkpt lat="43.73083" lon="3.34622">
        <ele>390.8</ele>
        <time>2026-05-18T12:38:41Z</time>
      </trkpt>
      <trkpt lat="43.73086" lon="3.34613">
        <ele>391.3</ele>
        <time>2026-05-18T12:38:46Z</time>
      </trkpt>
      <trkpt lat="43.73089" lon="3.34607">
        <ele>391.9</ele>
        <time>2026-05-18T12:38:51Z</time>
      </trkpt>
      <trkpt lat="43.73093" lon="3.34595">
        <ele>392.6</ele>
        <time>2026-05-18T12:38:56Z</time>
      </trkpt>
      <trkpt lat="43.73096" lon="3.34585">
        <ele>393</ele>
        <time>2026-05-18T12:39:01Z</time>
      </trkpt>
      <trkpt lat="43.73101" lon="3.34579">
        <ele>394.6</ele>
        <time>2026-05-18T12:39:06Z</time>
      </trkpt>
      <trkpt lat="43.73104" lon="3.34571">
        <ele>395.8</ele>
        <time>2026-05-18T12:39:11Z</time>
      </trkpt>
      <trkpt lat="43.73106" lon="3.34563">
        <ele>396.7</ele>
        <time>2026-05-18T12:39:16Z</time>
      </trkpt>
      <trkpt lat="43.7311" lon="3.34554">
        <ele>398.2</ele>
        <time>2026-05-18T12:39:21Z</time>
      </trkpt>
      <trkpt lat="43.73113" lon="3.34547">
        <ele>399.3</ele>
        <time>2026-05-18T12:39:26Z</time>
      </trkpt>
      <trkpt lat="43.73116" lon="3.34539">
        <ele>400.4</ele>
        <time>2026-05-18T12:39:31Z</time>
      </trkpt>
      <trkpt lat="43.73117" lon="3.34529">
        <ele>400.9</ele>
        <time>2026-05-18T12:39:36Z</time>
      </trkpt>
      <trkpt lat="43.73118" lon="3.3452">
        <ele>401.5</ele>
        <time>2026-05-18T12:39:41Z</time>
      </trkpt>
      <trkpt lat="43.7312" lon="3.34513">
        <ele>402.2</ele>
        <time>2026-05-18T12:39:46Z</time>
      </trkpt>
      <trkpt lat="43.73122" lon="3.34504">
        <ele>403</ele>
        <time>2026-05-18T12:39:51Z</time>
      </trkpt>
      <trkpt lat="43.73121" lon="3.34494">
        <ele>403.3</ele>
        <time>2026-05-18T12:39:56Z</time>
      </trkpt>
      <trkpt lat="43.73121" lon="3.34483">
        <ele>404.3</ele>
        <time>2026-05-18T12:40:01Z</time>
      </trkpt>
      <trkpt lat="43.7312" lon="3.34474">
        <ele>404.8</ele>
        <time>2026-05-18T12:40:06Z</time>
      </trkpt>
      <trkpt lat="43.7312" lon="3.34464">
        <ele>405.6</ele>
        <time>2026-05-18T12:40:11Z</time>
      </trkpt>
      <trkpt lat="43.73121" lon="3.34453">
        <ele>406.8</ele>
        <time>2026-05-18T12:40:16Z</time>
      </trkpt>
      <trkpt lat="43.73122" lon="3.34445">
        <ele>407.6</ele>
        <time>2026-05-18T12:40:21Z</time>
      </trkpt>
      <trkpt lat="43.73122" lon="3.34436">
        <ele>408.4</ele>
        <time>2026-05-18T12:40:26Z</time>
      </trkpt>
      <trkpt lat="43.73124" lon="3.34426">
        <ele>409.6</ele>
        <time>2026-05-18T12:40:31Z</time>
      </trkpt>
      <trkpt lat="43.73125" lon="3.34417">
        <ele>410.5</ele>
        <time>2026-05-18T12:40:36Z</time>
      </trkpt>
      <trkpt lat="43.73125" lon="3.34413">
        <ele>410.8</ele>
        <time>2026-05-18T12:40:41Z</time>
      </trkpt>
      <trkpt lat="43.73119" lon="3.3441">
        <ele>410</ele>
        <time>2026-05-18T12:40:46Z</time>
      </trkpt>
      <trkpt lat="43.73115" lon="3.34405">
        <ele>409.8</ele>
        <time>2026-05-18T12:40:51Z</time>
      </trkpt>
      <trkpt lat="43.7311" lon="3.34399">
        <ele>409.5</ele>
        <time>2026-05-18T12:40:56Z</time>
      </trkpt>
      <trkpt lat="43.73105" lon="3.34393">
        <ele>409.4</ele>
        <time>2026-05-18T12:41:01Z</time>
      </trkpt>
      <trkpt lat="43.73101" lon="3.34386">
        <ele>409.5</ele>
        <time>2026-05-18T12:41:06Z</time>
      </trkpt>
      <trkpt lat="43.73097" lon="3.34378">
        <ele>409.9</ele>
        <time>2026-05-18T12:41:11Z</time>
      </trkpt>
      <trkpt lat="43.73093" lon="3.34371">
        <ele>410.2</ele>
        <time>2026-05-18T12:41:16Z</time>
      </trkpt>
      <trkpt lat="43.73089" lon="3.34364">
        <ele>410.6</ele>
        <time>2026-05-18T12:41:21Z</time>
      </trkpt>
      <trkpt lat="43.73085" lon="3.34356">
        <ele>411.2</ele>
        <time>2026-05-18T12:41:26Z</time>
      </trkpt>
      <trkpt lat="43.73082" lon="3.34349">
        <ele>411.9</ele>
        <time>2026-05-18T12:41:31Z</time>
      </trkpt>
      <trkpt lat="43.7308" lon="3.34342">
        <ele>412.8</ele>
        <time>2026-05-18T12:41:36Z</time>
      </trkpt>
      <trkpt lat="43.73079" lon="3.34337">
        <ele>413.5</ele>
        <time>2026-05-18T12:41:41Z</time>
      </trkpt>
      <trkpt lat="43.73075" lon="3.34329">
        <ele>414.3</ele>
        <time>2026-05-18T12:41:46Z</time>
      </trkpt>
      <trkpt lat="43.73071" lon="3.34323">
        <ele>414.7</ele>
        <time>2026-05-18T12:41:51Z</time>
      </trkpt>
      <trkpt lat="43.73067" lon="3.34315">
        <ele>415.2</ele>
        <time>2026-05-18T12:41:56Z</time>
      </trkpt>
      <trkpt lat="43.73065" lon="3.34305">
        <ele>415.9</ele>
        <time>2026-05-18T12:42:01Z</time>
      </trkpt>
      <trkpt lat="43.73061" lon="3.34297">
        <ele>416.5</ele>
        <time>2026-05-18T12:42:06Z</time>
      </trkpt>
      <trkpt lat="43.73057" lon="3.34288">
        <ele>417.2</ele>
        <time>2026-05-18T12:42:11Z</time>
      </trkpt>
      <trkpt lat="43.73054" lon="3.34279">
        <ele>417.9</ele>
        <time>2026-05-18T12:42:16Z</time>
      </trkpt>
      <trkpt lat="43.73052" lon="3.34271">
        <ele>418.6</ele>
        <time>2026-05-18T12:42:21Z</time>
      </trkpt>
      <trkpt lat="43.73048" lon="3.34261">
        <ele>419.4</ele>
        <time>2026-05-18T12:42:26Z</time>
      </trkpt>
      <trkpt lat="43.73045" lon="3.34252">
        <ele>420.2</ele>
        <time>2026-05-18T12:42:31Z</time>
      </trkpt>
      <trkpt lat="43.73043" lon="3.34243">
        <ele>420.5</ele>
        <time>2026-05-18T12:42:36Z</time>
      </trkpt>
      <trkpt lat="43.73041" lon="3.34233">
        <ele>420.6</ele>
        <time>2026-05-18T12:42:41Z</time>
      </trkpt>
      <trkpt lat="43.73037" lon="3.34223">
        <ele>420.8</ele>
        <time>2026-05-18T12:42:46Z</time>
      </trkpt>
      <trkpt lat="43.73034" lon="3.34215">
        <ele>420.9</ele>
        <time>2026-05-18T12:42:51Z</time>
      </trkpt>
      <trkpt lat="43.73033" lon="3.34207">
        <ele>420.9</ele>
        <time>2026-05-18T12:42:56Z</time>
      </trkpt>
      <trkpt lat="43.73031" lon="3.34199">
        <ele>421</ele>
        <time>2026-05-18T12:43:01Z</time>
      </trkpt>
      <trkpt lat="43.73031" lon="3.34197">
        <ele>421</ele>
        <time>2026-05-18T12:43:06Z</time>
      </trkpt>
      <trkpt lat="43.73031" lon="3.34197">
        <ele>421</ele>
        <time>2026-05-18T12:43:11Z</time>
      </trkpt>
      <trkpt lat="43.73028" lon="3.34187">
        <ele>421</ele>
        <time>2026-05-18T12:43:16Z</time>
      </trkpt>
      <trkpt lat="43.73027" lon="3.34178">
        <ele>421</ele>
        <time>2026-05-18T12:43:21Z</time>
      </trkpt>
      <trkpt lat="43.73026" lon="3.3417">
        <ele>421</ele>
        <time>2026-05-18T12:43:26Z</time>
      </trkpt>
      <trkpt lat="43.73025" lon="3.34161">
        <ele>421.1</ele>
        <time>2026-05-18T12:43:31Z</time>
      </trkpt>
      <trkpt lat="43.73024" lon="3.34151">
        <ele>421.2</ele>
        <time>2026-05-18T12:43:36Z</time>
      </trkpt>
      <trkpt lat="43.73023" lon="3.34142">
        <ele>421.4</ele>
        <time>2026-05-18T12:43:41Z</time>
      </trkpt>
      <trkpt lat="43.73021" lon="3.34132">
        <ele>421.5</ele>
        <time>2026-05-18T12:43:46Z</time>
      </trkpt>
      <trkpt lat="43.73021" lon="3.34123">
        <ele>421.7</ele>
        <time>2026-05-18T12:43:51Z</time>
      </trkpt>
      <trkpt lat="43.7302" lon="3.34112">
        <ele>421.8</ele>
        <time>2026-05-18T12:43:56Z</time>
      </trkpt>
      <trkpt lat="43.73019" lon="3.34103">
        <ele>421.9</ele>
        <time>2026-05-18T12:44:01Z</time>
      </trkpt>
      <trkpt lat="43.73019" lon="3.34094">
        <ele>422.1</ele>
        <time>2026-05-18T12:44:06Z</time>
      </trkpt>
      <trkpt lat="43.73018" lon="3.34085">
        <ele>422.2</ele>
        <time>2026-05-18T12:44:11Z</time>
      </trkpt>
      <trkpt lat="43.73016" lon="3.34075">
        <ele>422.3</ele>
        <time>2026-05-18T12:44:16Z</time>
      </trkpt>
      <trkpt lat="43.73015" lon="3.34065">
        <ele>422.4</ele>
        <time>2026-05-18T12:44:21Z</time>
      </trkpt>
      <trkpt lat="43.73013" lon="3.34056">
        <ele>422.5</ele>
        <time>2026-05-18T12:44:26Z</time>
      </trkpt>
      <trkpt lat="43.73011" lon="3.34047">
        <ele>422.6</ele>
        <time>2026-05-18T12:44:31Z</time>
      </trkpt>
      <trkpt lat="43.73008" lon="3.34038">
        <ele>422.6</ele>
        <time>2026-05-18T12:44:36Z</time>
      </trkpt>
      <trkpt lat="43.73006" lon="3.34029">
        <ele>422.7</ele>
        <time>2026-05-18T12:44:41Z</time>
      </trkpt>
      <trkpt lat="43.73004" lon="3.34019">
        <ele>422.8</ele>
        <time>2026-05-18T12:44:46Z</time>
      </trkpt>
      <trkpt lat="43.73002" lon="3.34011">
        <ele>422.9</ele>
        <time>2026-05-18T12:44:51Z</time>
      </trkpt>
      <trkpt lat="43.72999" lon="3.34002">
        <ele>422.9</ele>
        <time>2026-05-18T12:44:56Z</time>
      </trkpt>
      <trkpt lat="43.72995" lon="3.33997">
        <ele>422.6</ele>
        <time>2026-05-18T12:45:01Z</time>
      </trkpt>
      <trkpt lat="43.72989" lon="3.3399">
        <ele>422.1</ele>
        <time>2026-05-18T12:45:06Z</time>
      </trkpt>
      <trkpt lat="43.72986" lon="3.33985">
        <ele>421.9</ele>
        <time>2026-05-18T12:45:11Z</time>
      </trkpt>
      <trkpt lat="43.72985" lon="3.33983">
        <ele>421.8</ele>
        <time>2026-05-18T12:45:16Z</time>
      </trkpt>
      <trkpt lat="43.72982" lon="3.33978">
        <ele>421.5</ele>
        <time>2026-05-18T12:45:21Z</time>
      </trkpt>
      <trkpt lat="43.72977" lon="3.33971">
        <ele>421.2</ele>
        <time>2026-05-18T12:45:26Z</time>
      </trkpt>
      <trkpt lat="43.72971" lon="3.33963">
        <ele>420.7</ele>
        <time>2026-05-18T12:45:31Z</time>
      </trkpt>
      <trkpt lat="43.72968" lon="3.33957">
        <ele>420.5</ele>
        <time>2026-05-18T12:45:36Z</time>
      </trkpt>
      <trkpt lat="43.72964" lon="3.33951">
        <ele>420.2</ele>
        <time>2026-05-18T12:45:41Z</time>
      </trkpt>
      <trkpt lat="43.72962" lon="3.3395">
        <ele>420.1</ele>
        <time>2026-05-18T12:45:46Z</time>
      </trkpt>
      <trkpt lat="43.72961" lon="3.33951">
        <ele>420</ele>
        <time>2026-05-18T12:45:51Z</time>
      </trkpt>
      <trkpt lat="43.72958" lon="3.33947">
        <ele>419.8</ele>
        <time>2026-05-18T12:45:56Z</time>
      </trkpt>
      <trkpt lat="43.72955" lon="3.33944">
        <ele>419.6</ele>
        <time>2026-05-18T12:46:01Z</time>
      </trkpt>
      <trkpt lat="43.72954" lon="3.33944">
        <ele>419.5</ele>
        <time>2026-05-18T12:46:06Z</time>
      </trkpt>
      <trkpt lat="43.72954" lon="3.33944">
        <ele>419.5</ele>
        <time>2026-05-18T12:46:11Z</time>
      </trkpt>
      <trkpt lat="43.72954" lon="3.33944">
        <ele>419.5</ele>
        <time>2026-05-18T12:46:16Z</time>
      </trkpt>
      <trkpt lat="43.72954" lon="3.33944">
        <ele>419.5</ele>
        <time>2026-05-18T12:46:21Z</time>
      </trkpt>
      <trkpt lat="43.72954" lon="3.33944">
        <ele>419.5</ele>
        <time>2026-05-18T12:46:26Z</time>
      </trkpt>
      <trkpt lat="43.72954" lon="3.33944">
        <ele>419.5</ele>
        <time>2026-05-18T12:46:31Z</time>
      </trkpt>
      <trkpt lat="43.72954" lon="3.33944">
        <ele>419.5</ele>
        <time>2026-05-18T12:46:36Z</time>
      </trkpt>
      <trkpt lat="43.72954" lon="3.33944">
        <ele>419.5</ele>
        <time>2026-05-18T12:46:41Z</time>
      </trkpt>
      <trkpt lat="43.72954" lon="3.33944">
        <ele>419.5</ele>
        <time>2026-05-18T12:46:46Z</time>
      </trkpt>
      <trkpt lat="43.72954" lon="3.33944">
        <ele>419.5</ele>
        <time>2026-05-18T12:46:51Z</time>
      </trkpt>
      <trkpt lat="43.72954" lon="3.33944">
        <ele>419.5</ele>
        <time>2026-05-18T12:46:56Z</time>
      </trkpt>
      <trkpt lat="43.72954" lon="3.33944">
        <ele>419.5</ele>
        <time>2026-05-18T12:47:01Z</time>
      </trkpt>
      <trkpt lat="43.72954" lon="3.33944">
        <ele>419.5</ele>
        <time>2026-05-18T12:47:06Z</time>
      </trkpt>
      <trkpt lat="43.72954" lon="3.33944">
        <ele>419.5</ele>
        <time>2026-05-18T12:47:11Z</time>
      </trkpt>
      <trkpt lat="43.72954" lon="3.33944">
        <ele>419.5</ele>
        <time>2026-05-18T12:47:16Z</time>
      </trkpt>
      <trkpt lat="43.72954" lon="3.33944">
        <ele>419.5</ele>
        <time>2026-05-18T12:47:21Z</time>
      </trkpt>
      <trkpt lat="43.72954" lon="3.33944">
        <ele>419.5</ele>
        <time>2026-05-18T12:47:26Z</time>
      </trkpt>
      <trkpt lat="43.72954" lon="3.33944">
        <ele>419.5</ele>
        <time>2026-05-18T12:47:31Z</time>
      </trkpt>
      <trkpt lat="43.72954" lon="3.33944">
        <ele>419.5</ele>
        <time>2026-05-18T12:47:36Z</time>
      </trkpt>
      <trkpt lat="43.72954" lon="3.33944">
        <ele>419.5</ele>
        <time>2026-05-18T12:47:41Z</time>
      </trkpt>
      <trkpt lat="43.72956" lon="3.33945">
        <ele>419.7</ele>
        <time>2026-05-18T12:47:46Z</time>
      </trkpt>
      <trkpt lat="43.72956" lon="3.33945">
        <ele>419.7</ele>
        <time>2026-05-18T12:47:51Z</time>
      </trkpt>
      <trkpt lat="43.72956" lon="3.33945">
        <ele>419.7</ele>
        <time>2026-05-18T12:47:56Z</time>
      </trkpt>
      <trkpt lat="43.72956" lon="3.33945">
        <ele>419.7</ele>
        <time>2026-05-18T12:48:01Z</time>
      </trkpt>
      <trkpt lat="43.72956" lon="3.33945">
        <ele>419.7</ele>
        <time>2026-05-18T12:48:06Z</time>
      </trkpt>
      <trkpt lat="43.72956" lon="3.33945">
        <ele>419.7</ele>
        <time>2026-05-18T12:48:11Z</time>
      </trkpt>
      <trkpt lat="43.72956" lon="3.33945">
        <ele>419.7</ele>
        <time>2026-05-18T12:48:16Z</time>
      </trkpt>
      <trkpt lat="43.72956" lon="3.33945">
        <ele>419.7</ele>
        <time>2026-05-18T12:48:21Z</time>
      </trkpt>
      <trkpt lat="43.72956" lon="3.33945">
        <ele>419.7</ele>
        <time>2026-05-18T12:48:26Z</time>
      </trkpt>
      <trkpt lat="43.72956" lon="3.33945">
        <ele>419.7</ele>
        <time>2026-05-18T12:48:31Z</time>
      </trkpt>
      <trkpt lat="43.72956" lon="3.33945">
        <ele>419.7</ele>
        <time>2026-05-18T12:48:36Z</time>
      </trkpt>
      <trkpt lat="43.72956" lon="3.33945">
        <ele>419.7</ele>
        <time>2026-05-18T12:48:41Z</time>
      </trkpt>
      <trkpt lat="43.72956" lon="3.33945">
        <ele>419.7</ele>
        <time>2026-05-18T12:48:46Z</time>
      </trkpt>
      <trkpt lat="43.72956" lon="3.33945">
        <ele>419.7</ele>
        <time>2026-05-18T12:48:51Z</time>
      </trkpt>
      <trkpt lat="43.72956" lon="3.33945">
        <ele>419.7</ele>
        <time>2026-05-18T12:48:56Z</time>
      </trkpt>
      <trkpt lat="43.72956" lon="3.33945">
        <ele>419.7</ele>
        <time>2026-05-18T12:49:01Z</time>
      </trkpt>
      <trkpt lat="43.72956" lon="3.33945">
        <ele>419.7</ele>
        <time>2026-05-18T12:49:06Z</time>
      </trkpt>
      <trkpt lat="43.72956" lon="3.33945">
        <ele>419.7</ele>
        <time>2026-05-18T12:49:11Z</time>
      </trkpt>
      <trkpt lat="43.72956" lon="3.33945">
        <ele>419.7</ele>
        <time>2026-05-18T12:49:16Z</time>
      </trkpt>
      <trkpt lat="43.72956" lon="3.33945">
        <ele>419.7</ele>
        <time>2026-05-18T12:49:21Z</time>
      </trkpt>
      <trkpt lat="43.72956" lon="3.33945">
        <ele>419.7</ele>
        <time>2026-05-18T12:49:26Z</time>
      </trkpt>
      <trkpt lat="43.72956" lon="3.33945">
        <ele>419.7</ele>
        <time>2026-05-18T12:49:31Z</time>
      </trkpt>
      <trkpt lat="43.72956" lon="3.33945">
        <ele>419.7</ele>
        <time>2026-05-18T12:49:36Z</time>
      </trkpt>
      <trkpt lat="43.72956" lon="3.33945">
        <ele>419.7</ele>
        <time>2026-05-18T12:49:41Z</time>
      </trkpt>
      <trkpt lat="43.72956" lon="3.33945">
        <ele>419.7</ele>
        <time>2026-05-18T12:49:46Z</time>
      </trkpt>
      <trkpt lat="43.72956" lon="3.33945">
        <ele>419.7</ele>
        <time>2026-05-18T12:49:51Z</time>
      </trkpt>
      <trkpt lat="43.72956" lon="3.33945">
        <ele>419.7</ele>
        <time>2026-05-18T12:49:56Z</time>
      </trkpt>
      <trkpt lat="43.72956" lon="3.33945">
        <ele>419.7</ele>
        <time>2026-05-18T12:50:01Z</time>
      </trkpt>
      <trkpt lat="43.72956" lon="3.33945">
        <ele>419.7</ele>
        <time>2026-05-18T12:50:06Z</time>
      </trkpt>
      <trkpt lat="43.72956" lon="3.33945">
        <ele>419.7</ele>
        <time>2026-05-18T12:50:11Z</time>
      </trkpt>
      <trkpt lat="43.72956" lon="3.33945">
        <ele>419.7</ele>
        <time>2026-05-18T12:50:16Z</time>
      </trkpt>
      <trkpt lat="43.72956" lon="3.33945">
        <ele>419.7</ele>
        <time>2026-05-18T12:50:21Z</time>
      </trkpt>
      <trkpt lat="43.72956" lon="3.33945">
        <ele>419.7</ele>
        <time>2026-05-18T12:50:26Z</time>
      </trkpt>
      <trkpt lat="43.72956" lon="3.33945">
        <ele>419.7</ele>
        <time>2026-05-18T12:50:31Z</time>
      </trkpt>
      <trkpt lat="43.72956" lon="3.33945">
        <ele>419.7</ele>
        <time>2026-05-18T12:50:36Z</time>
      </trkpt>
      <trkpt lat="43.72956" lon="3.33945">
        <ele>419.7</ele>
        <time>2026-05-18T12:50:41Z</time>
      </trkpt>
      <trkpt lat="43.72956" lon="3.33945">
        <ele>419.7</ele>
        <time>2026-05-18T12:50:46Z</time>
      </trkpt>
      <trkpt lat="43.72956" lon="3.33945">
        <ele>419.7</ele>
        <time>2026-05-18T12:50:51Z</time>
      </trkpt>
      <trkpt lat="43.72956" lon="3.33945">
        <ele>419.7</ele>
        <time>2026-05-18T12:50:56Z</time>
      </trkpt>
      <trkpt lat="43.72956" lon="3.33945">
        <ele>419.7</ele>
        <time>2026-05-18T12:51:01Z</time>
      </trkpt>
      <trkpt lat="43.72956" lon="3.33945">
        <ele>419.7</ele>
        <time>2026-05-18T12:51:06Z</time>
      </trkpt>
      <trkpt lat="43.72956" lon="3.33945">
        <ele>419.7</ele>
        <time>2026-05-18T12:51:11Z</time>
      </trkpt>
      <trkpt lat="43.72956" lon="3.33945">
        <ele>419.7</ele>
        <time>2026-05-18T12:51:16Z</time>
      </trkpt>
      <trkpt lat="43.72956" lon="3.33945">
        <ele>419.7</ele>
        <time>2026-05-18T12:51:21Z</time>
      </trkpt>
      <trkpt lat="43.72956" lon="3.33945">
        <ele>419.7</ele>
        <time>2026-05-18T12:51:26Z</time>
      </trkpt>
      <trkpt lat="43.72956" lon="3.33945">
        <ele>419.7</ele>
        <time>2026-05-18T12:51:31Z</time>
      </trkpt>
      <trkpt lat="43.72956" lon="3.33945">
        <ele>419.7</ele>
        <time>2026-05-18T12:51:36Z</time>
      </trkpt>
      <trkpt lat="43.72956" lon="3.33945">
        <ele>419.7</ele>
        <time>2026-05-18T12:51:41Z</time>
      </trkpt>
      <trkpt lat="43.72956" lon="3.33945">
        <ele>419.7</ele>
        <time>2026-05-18T12:51:46Z</time>
      </trkpt>
      <trkpt lat="43.72956" lon="3.33945">
        <ele>419.7</ele>
        <time>2026-05-18T12:51:51Z</time>
      </trkpt>
      <trkpt lat="43.72956" lon="3.33945">
        <ele>419.7</ele>
        <time>2026-05-18T12:51:56Z</time>
      </trkpt>
      <trkpt lat="43.72956" lon="3.33945">
        <ele>419.7</ele>
        <time>2026-05-18T12:52:01Z</time>
      </trkpt>
      <trkpt lat="43.72956" lon="3.33945">
        <ele>419.7</ele>
        <time>2026-05-18T12:52:06Z</time>
      </trkpt>
      <trkpt lat="43.72956" lon="3.33945">
        <ele>419.7</ele>
        <time>2026-05-18T12:52:11Z</time>
      </trkpt>
      <trkpt lat="43.72956" lon="3.33945">
        <ele>419.7</ele>
        <time>2026-05-18T12:52:16Z</time>
      </trkpt>
      <trkpt lat="43.72956" lon="3.33945">
        <ele>419.7</ele>
        <time>2026-05-18T12:52:21Z</time>
      </trkpt>
      <trkpt lat="43.72956" lon="3.33945">
        <ele>419.7</ele>
        <time>2026-05-18T12:52:26Z</time>
      </trkpt>
      <trkpt lat="43.72956" lon="3.33945">
        <ele>419.7</ele>
        <time>2026-05-18T12:52:31Z</time>
      </trkpt>
      <trkpt lat="43.72956" lon="3.33945">
        <ele>419.7</ele>
        <time>2026-05-18T12:52:36Z</time>
      </trkpt>
      <trkpt lat="43.72956" lon="3.33945">
        <ele>419.7</ele>
        <time>2026-05-18T12:52:41Z</time>
      </trkpt>
      <trkpt lat="43.72956" lon="3.33945">
        <ele>419.7</ele>
        <time>2026-05-18T12:52:46Z</time>
      </trkpt>
      <trkpt lat="43.72956" lon="3.33945">
        <ele>419.7</ele>
        <time>2026-05-18T12:52:51Z</time>
      </trkpt>
      <trkpt lat="43.72956" lon="3.33945">
        <ele>419.7</ele>
        <time>2026-05-18T12:52:56Z</time>
      </trkpt>
      <trkpt lat="43.72956" lon="3.33945">
        <ele>419.7</ele>
        <time>2026-05-18T12:53:01Z</time>
      </trkpt>
      <trkpt lat="43.72956" lon="3.33945">
        <ele>419.7</ele>
        <time>2026-05-18T12:53:06Z</time>
      </trkpt>
      <trkpt lat="43.72956" lon="3.33945">
        <ele>419.7</ele>
        <time>2026-05-18T12:53:11Z</time>
      </trkpt>
      <trkpt lat="43.72956" lon="3.33945">
        <ele>419.7</ele>
        <time>2026-05-18T12:53:16Z</time>
      </trkpt>
      <trkpt lat="43.72956" lon="3.33945">
        <ele>419.7</ele>
        <time>2026-05-18T12:53:21Z</time>
      </trkpt>
      <trkpt lat="43.72956" lon="3.33945">
        <ele>419.7</ele>
        <time>2026-05-18T12:53:26Z</time>
      </trkpt>
      <trkpt lat="43.72956" lon="3.33945">
        <ele>419.7</ele>
        <time>2026-05-18T12:53:31Z</time>
      </trkpt>
      <trkpt lat="43.72956" lon="3.33945">
        <ele>419.7</ele>
        <time>2026-05-18T12:53:36Z</time>
      </trkpt>
      <trkpt lat="43.72956" lon="3.33945">
        <ele>419.7</ele>
        <time>2026-05-18T12:53:41Z</time>
      </trkpt>
      <trkpt lat="43.72956" lon="3.33945">
        <ele>419.7</ele>
        <time>2026-05-18T12:53:46Z</time>
      </trkpt>
      <trkpt lat="43.72956" lon="3.33945">
        <ele>419.7</ele>
        <time>2026-05-18T12:53:51Z</time>
      </trkpt>
      <trkpt lat="43.72956" lon="3.33945">
        <ele>419.7</ele>
        <time>2026-05-18T12:53:56Z</time>
      </trkpt>
      <trkpt lat="43.72956" lon="3.33945">
        <ele>419.7</ele>
        <time>2026-05-18T12:54:01Z</time>
      </trkpt>
      <trkpt lat="43.72956" lon="3.33945">
        <ele>419.7</ele>
        <time>2026-05-18T12:54:06Z</time>
      </trkpt>
      <trkpt lat="43.72956" lon="3.33945">
        <ele>419.7</ele>
        <time>2026-05-18T12:54:11Z</time>
      </trkpt>
      <trkpt lat="43.72956" lon="3.33945">
        <ele>419.7</ele>
        <time>2026-05-18T12:54:16Z</time>
      </trkpt>
      <trkpt lat="43.72956" lon="3.33945">
        <ele>419.7</ele>
        <time>2026-05-18T12:54:21Z</time>
      </trkpt>
      <trkpt lat="43.72956" lon="3.33945">
        <ele>419.7</ele>
        <time>2026-05-18T12:54:26Z</time>
      </trkpt>
      <trkpt lat="43.72956" lon="3.33945">
        <ele>419.7</ele>
        <time>2026-05-18T12:54:31Z</time>
      </trkpt>
      <trkpt lat="43.72956" lon="3.33945">
        <ele>419.7</ele>
        <time>2026-05-18T12:54:36Z</time>
      </trkpt>
      <trkpt lat="43.72956" lon="3.33945">
        <ele>419.7</ele>
        <time>2026-05-18T12:54:41Z</time>
      </trkpt>
      <trkpt lat="43.72956" lon="3.33945">
        <ele>419.7</ele>
        <time>2026-05-18T12:54:46Z</time>
      </trkpt>
      <trkpt lat="43.72956" lon="3.33945">
        <ele>419.7</ele>
        <time>2026-05-18T12:54:51Z</time>
      </trkpt>
      <trkpt lat="43.72956" lon="3.33945">
        <ele>419.7</ele>
        <time>2026-05-18T12:54:56Z</time>
      </trkpt>
      <trkpt lat="43.72956" lon="3.33945">
        <ele>419.7</ele>
        <time>2026-05-18T12:55:01Z</time>
      </trkpt>
      <trkpt lat="43.72956" lon="3.33945">
        <ele>419.7</ele>
        <time>2026-05-18T12:55:06Z</time>
      </trkpt>
      <trkpt lat="43.72956" lon="3.33945">
        <ele>419.7</ele>
        <time>2026-05-18T12:55:11Z</time>
      </trkpt>
      <trkpt lat="43.72956" lon="3.33945">
        <ele>419.7</ele>
        <time>2026-05-18T12:55:16Z</time>
      </trkpt>
      <trkpt lat="43.72956" lon="3.33945">
        <ele>419.7</ele>
        <time>2026-05-18T12:55:21Z</time>
      </trkpt>
      <trkpt lat="43.72956" lon="3.33945">
        <ele>419.7</ele>
        <time>2026-05-18T12:55:26Z</time>
      </trkpt>
      <trkpt lat="43.72956" lon="3.33945">
        <ele>419.7</ele>
        <time>2026-05-18T12:55:31Z</time>
      </trkpt>
      <trkpt lat="43.72956" lon="3.33945">
        <ele>419.7</ele>
        <time>2026-05-18T12:55:36Z</time>
      </trkpt>
      <trkpt lat="43.72956" lon="3.33945">
        <ele>419.7</ele>
        <time>2026-05-18T12:55:41Z</time>
      </trkpt>
      <trkpt lat="43.72956" lon="3.33945">
        <ele>419.7</ele>
        <time>2026-05-18T12:55:46Z</time>
      </trkpt>
      <trkpt lat="43.72956" lon="3.33945">
        <ele>419.7</ele>
        <time>2026-05-18T12:55:51Z</time>
      </trkpt>
      <trkpt lat="43.72956" lon="3.33945">
        <ele>419.7</ele>
        <time>2026-05-18T12:55:56Z</time>
      </trkpt>
      <trkpt lat="43.72956" lon="3.33945">
        <ele>419.7</ele>
        <time>2026-05-18T12:56:01Z</time>
      </trkpt>
      <trkpt lat="43.72956" lon="3.33945">
        <ele>419.7</ele>
        <time>2026-05-18T12:56:06Z</time>
      </trkpt>
      <trkpt lat="43.72956" lon="3.33945">
        <ele>419.7</ele>
        <time>2026-05-18T12:56:11Z</time>
      </trkpt>
      <trkpt lat="43.72956" lon="3.33945">
        <ele>419.7</ele>
        <time>2026-05-18T12:56:16Z</time>
      </trkpt>
      <trkpt lat="43.72956" lon="3.33945">
        <ele>419.7</ele>
        <time>2026-05-18T12:56:21Z</time>
      </trkpt>
      <trkpt lat="43.72956" lon="3.33945">
        <ele>419.7</ele>
        <time>2026-05-18T12:56:26Z</time>
      </trkpt>
      <trkpt lat="43.72956" lon="3.33945">
        <ele>419.7</ele>
        <time>2026-05-18T12:56:31Z</time>
      </trkpt>
      <trkpt lat="43.72956" lon="3.33945">
        <ele>419.7</ele>
        <time>2026-05-18T12:56:36Z</time>
      </trkpt>
      <trkpt lat="43.72956" lon="3.33945">
        <ele>419.7</ele>
        <time>2026-05-18T12:56:41Z</time>
      </trkpt>
      <trkpt lat="43.72956" lon="3.33945">
        <ele>419.7</ele>
        <time>2026-05-18T12:56:46Z</time>
      </trkpt>
      <trkpt lat="43.72956" lon="3.33945">
        <ele>419.7</ele>
        <time>2026-05-18T12:56:51Z</time>
      </trkpt>
      <trkpt lat="43.72956" lon="3.33945">
        <ele>419.7</ele>
        <time>2026-05-18T12:56:56Z</time>
      </trkpt>
      <trkpt lat="43.72956" lon="3.33945">
        <ele>419.7</ele>
        <time>2026-05-18T12:57:01Z</time>
      </trkpt>
      <trkpt lat="43.72956" lon="3.33945">
        <ele>419.7</ele>
        <time>2026-05-18T12:57:06Z</time>
      </trkpt>
      <trkpt lat="43.72956" lon="3.33945">
        <ele>419.7</ele>
        <time>2026-05-18T12:57:11Z</time>
      </trkpt>
      <trkpt lat="43.72956" lon="3.33945">
        <ele>419.7</ele>
        <time>2026-05-18T12:57:16Z</time>
      </trkpt>
      <trkpt lat="43.72956" lon="3.33945">
        <ele>419.7</ele>
        <time>2026-05-18T12:57:21Z</time>
      </trkpt>
      <trkpt lat="43.72956" lon="3.33945">
        <ele>419.7</ele>
        <time>2026-05-18T12:57:26Z</time>
      </trkpt>
      <trkpt lat="43.72956" lon="3.33945">
        <ele>419.7</ele>
        <time>2026-05-18T12:57:31Z</time>
      </trkpt>
      <trkpt lat="43.72956" lon="3.33945">
        <ele>419.7</ele>
        <time>2026-05-18T12:57:36Z</time>
      </trkpt>
      <trkpt lat="43.72956" lon="3.33945">
        <ele>419.7</ele>
        <time>2026-05-18T12:57:41Z</time>
      </trkpt>
      <trkpt lat="43.72956" lon="3.33945">
        <ele>419.7</ele>
        <time>2026-05-18T12:57:46Z</time>
      </trkpt>
      <trkpt lat="43.72956" lon="3.33945">
        <ele>419.7</ele>
        <time>2026-05-18T12:57:51Z</time>
      </trkpt>
      <trkpt lat="43.72956" lon="3.33945">
        <ele>419.7</ele>
        <time>2026-05-18T12:57:56Z</time>
      </trkpt>
      <trkpt lat="43.72956" lon="3.33945">
        <ele>419.7</ele>
        <time>2026-05-18T12:58:01Z</time>
      </trkpt>
      <trkpt lat="43.72956" lon="3.33945">
        <ele>419.7</ele>
        <time>2026-05-18T12:58:06Z</time>
      </trkpt>
      <trkpt lat="43.72956" lon="3.33945">
        <ele>419.7</ele>
        <time>2026-05-18T12:58:11Z</time>
      </trkpt>
      <trkpt lat="43.72956" lon="3.33945">
        <ele>419.7</ele>
        <time>2026-05-18T12:58:16Z</time>
      </trkpt>
      <trkpt lat="43.72956" lon="3.33945">
        <ele>419.7</ele>
        <time>2026-05-18T12:58:21Z</time>
      </trkpt>
      <trkpt lat="43.72956" lon="3.33945">
        <ele>419.7</ele>
        <time>2026-05-18T12:58:26Z</time>
      </trkpt>
      <trkpt lat="43.72956" lon="3.33945">
        <ele>419.7</ele>
        <time>2026-05-18T12:58:31Z</time>
      </trkpt>
      <trkpt lat="43.72956" lon="3.33945">
        <ele>419.7</ele>
        <time>2026-05-18T12:58:36Z</time>
      </trkpt>
      <trkpt lat="43.72956" lon="3.33945">
        <ele>419.7</ele>
        <time>2026-05-18T12:58:41Z</time>
      </trkpt>
      <trkpt lat="43.72956" lon="3.33945">
        <ele>419.7</ele>
        <time>2026-05-18T12:58:46Z</time>
      </trkpt>
      <trkpt lat="43.72956" lon="3.33945">
        <ele>419.7</ele>
        <time>2026-05-18T12:58:51Z</time>
      </trkpt>
      <trkpt lat="43.72956" lon="3.33945">
        <ele>419.7</ele>
        <time>2026-05-18T12:58:56Z</time>
      </trkpt>
      <trkpt lat="43.72956" lon="3.33945">
        <ele>419.7</ele>
        <time>2026-05-18T12:59:01Z</time>
      </trkpt>
      <trkpt lat="43.72956" lon="3.33945">
        <ele>419.7</ele>
        <time>2026-05-18T12:59:06Z</time>
      </trkpt>
      <trkpt lat="43.72956" lon="3.33945">
        <ele>419.7</ele>
        <time>2026-05-18T12:59:11Z</time>
      </trkpt>
      <trkpt lat="43.72956" lon="3.33945">
        <ele>419.7</ele>
        <time>2026-05-18T12:59:16Z</time>
      </trkpt>
      <trkpt lat="43.72956" lon="3.33945">
        <ele>419.7</ele>
        <time>2026-05-18T12:59:21Z</time>
      </trkpt>
      <trkpt lat="43.72956" lon="3.33945">
        <ele>419.7</ele>
        <time>2026-05-18T12:59:26Z</time>
      </trkpt>
      <trkpt lat="43.72956" lon="3.33945">
        <ele>419.7</ele>
        <time>2026-05-18T12:59:31Z</time>
      </trkpt>
      <trkpt lat="43.72956" lon="3.33945">
        <ele>419.7</ele>
        <time>2026-05-18T12:59:36Z</time>
      </trkpt>
      <trkpt lat="43.72956" lon="3.33945">
        <ele>419.7</ele>
        <time>2026-05-18T12:59:41Z</time>
      </trkpt>
      <trkpt lat="43.72956" lon="3.33945">
        <ele>419.7</ele>
        <time>2026-05-18T12:59:46Z</time>
      </trkpt>
      <trkpt lat="43.72956" lon="3.33945">
        <ele>419.7</ele>
        <time>2026-05-18T12:59:51Z</time>
      </trkpt>
      <trkpt lat="43.72956" lon="3.33945">
        <ele>419.7</ele>
        <time>2026-05-18T12:59:56Z</time>
      </trkpt>
      <trkpt lat="43.72956" lon="3.33945">
        <ele>419.7</ele>
        <time>2026-05-18T13:00:01Z</time>
      </trkpt>
      <trkpt lat="43.72956" lon="3.33945">
        <ele>419.7</ele>
        <time>2026-05-18T13:00:06Z</time>
      </trkpt>
      <trkpt lat="43.72956" lon="3.33945">
        <ele>419.7</ele>
        <time>2026-05-18T13:00:11Z</time>
      </trkpt>
      <trkpt lat="43.72956" lon="3.33945">
        <ele>419.7</ele>
        <time>2026-05-18T13:00:16Z</time>
      </trkpt>
      <trkpt lat="43.72956" lon="3.33945">
        <ele>419.7</ele>
        <time>2026-05-18T13:00:21Z</time>
      </trkpt>
      <trkpt lat="43.72956" lon="3.33945">
        <ele>419.7</ele>
        <time>2026-05-18T13:00:26Z</time>
      </trkpt>
      <trkpt lat="43.72956" lon="3.33945">
        <ele>419.7</ele>
        <time>2026-05-18T13:00:31Z</time>
      </trkpt>
      <trkpt lat="43.72956" lon="3.33945">
        <ele>419.7</ele>
        <time>2026-05-18T13:00:36Z</time>
      </trkpt>
      <trkpt lat="43.72956" lon="3.33945">
        <ele>419.7</ele>
        <time>2026-05-18T13:00:41Z</time>
      </trkpt>
      <trkpt lat="43.72956" lon="3.33945">
        <ele>419.7</ele>
        <time>2026-05-18T13:00:46Z</time>
      </trkpt>
      <trkpt lat="43.72956" lon="3.33945">
        <ele>419.7</ele>
        <time>2026-05-18T13:00:51Z</time>
      </trkpt>
      <trkpt lat="43.72956" lon="3.33945">
        <ele>419.7</ele>
        <time>2026-05-18T13:00:56Z</time>
      </trkpt>
      <trkpt lat="43.72956" lon="3.33945">
        <ele>419.7</ele>
        <time>2026-05-18T13:01:01Z</time>
      </trkpt>
      <trkpt lat="43.72956" lon="3.33945">
        <ele>419.7</ele>
        <time>2026-05-18T13:01:06Z</time>
      </trkpt>
      <trkpt lat="43.72956" lon="3.33945">
        <ele>419.7</ele>
        <time>2026-05-18T13:01:11Z</time>
      </trkpt>
      <trkpt lat="43.72956" lon="3.33945">
        <ele>419.7</ele>
        <time>2026-05-18T13:01:16Z</time>
      </trkpt>
      <trkpt lat="43.72956" lon="3.33945">
        <ele>419.7</ele>
        <time>2026-05-18T13:01:21Z</time>
      </trkpt>
      <trkpt lat="43.72956" lon="3.33945">
        <ele>419.7</ele>
        <time>2026-05-18T13:01:26Z</time>
      </trkpt>
      <trkpt lat="43.72956" lon="3.33945">
        <ele>419.7</ele>
        <time>2026-05-18T13:01:31Z</time>
      </trkpt>
      <trkpt lat="43.72956" lon="3.33945">
        <ele>419.7</ele>
        <time>2026-05-18T13:01:36Z</time>
      </trkpt>
      <trkpt lat="43.72956" lon="3.33945">
        <ele>419.7</ele>
        <time>2026-05-18T13:01:41Z</time>
      </trkpt>
      <trkpt lat="43.72956" lon="3.33945">
        <ele>419.7</ele>
        <time>2026-05-18T13:01:46Z</time>
      </trkpt>
      <trkpt lat="43.72956" lon="3.33945">
        <ele>419.7</ele>
        <time>2026-05-18T13:01:51Z</time>
      </trkpt>
      <trkpt lat="43.72956" lon="3.33945">
        <ele>419.7</ele>
        <time>2026-05-18T13:01:56Z</time>
      </trkpt>
      <trkpt lat="43.72956" lon="3.33945">
        <ele>419.7</ele>
        <time>2026-05-18T13:02:01Z</time>
      </trkpt>
      <trkpt lat="43.72956" lon="3.33945">
        <ele>419.7</ele>
        <time>2026-05-18T13:02:06Z</time>
      </trkpt>
      <trkpt lat="43.72956" lon="3.33945">
        <ele>419.7</ele>
        <time>2026-05-18T13:02:11Z</time>
      </trkpt>
      <trkpt lat="43.72956" lon="3.33945">
        <ele>419.7</ele>
        <time>2026-05-18T13:02:16Z</time>
      </trkpt>
      <trkpt lat="43.72956" lon="3.33945">
        <ele>419.7</ele>
        <time>2026-05-18T13:02:21Z</time>
      </trkpt>
      <trkpt lat="43.72956" lon="3.33945">
        <ele>419.7</ele>
        <time>2026-05-18T13:02:26Z</time>
      </trkpt>
      <trkpt lat="43.72956" lon="3.33945">
        <ele>419.7</ele>
        <time>2026-05-18T13:02:31Z</time>
      </trkpt>
      <trkpt lat="43.72956" lon="3.33945">
        <ele>419.7</ele>
        <time>2026-05-18T13:02:36Z</time>
      </trkpt>
      <trkpt lat="43.72956" lon="3.33945">
        <ele>419.7</ele>
        <time>2026-05-18T13:02:41Z</time>
      </trkpt>
      <trkpt lat="43.72956" lon="3.33945">
        <ele>419.7</ele>
        <time>2026-05-18T13:02:46Z</time>
      </trkpt>
      <trkpt lat="43.72956" lon="3.33945">
        <ele>419.7</ele>
        <time>2026-05-18T13:02:51Z</time>
      </trkpt>
      <trkpt lat="43.72956" lon="3.33945">
        <ele>419.7</ele>
        <time>2026-05-18T13:02:56Z</time>
      </trkpt>
      <trkpt lat="43.72956" lon="3.33945">
        <ele>419.7</ele>
        <time>2026-05-18T13:03:01Z</time>
      </trkpt>
      <trkpt lat="43.72956" lon="3.33945">
        <ele>419.7</ele>
        <time>2026-05-18T13:03:06Z</time>
      </trkpt>
      <trkpt lat="43.72956" lon="3.33945">
        <ele>419.7</ele>
        <time>2026-05-18T13:03:11Z</time>
      </trkpt>
      <trkpt lat="43.72956" lon="3.33945">
        <ele>419.7</ele>
        <time>2026-05-18T13:03:16Z</time>
      </trkpt>
      <trkpt lat="43.72956" lon="3.33945">
        <ele>419.7</ele>
        <time>2026-05-18T13:03:21Z</time>
      </trkpt>
      <trkpt lat="43.72956" lon="3.33945">
        <ele>419.7</ele>
        <time>2026-05-18T13:03:26Z</time>
      </trkpt>
      <trkpt lat="43.72956" lon="3.33945">
        <ele>419.7</ele>
        <time>2026-05-18T13:03:31Z</time>
      </trkpt>
      <trkpt lat="43.72956" lon="3.33945">
        <ele>419.7</ele>
        <time>2026-05-18T13:03:36Z</time>
      </trkpt>
      <trkpt lat="43.72956" lon="3.33945">
        <ele>419.7</ele>
        <time>2026-05-18T13:03:41Z</time>
      </trkpt>
      <trkpt lat="43.72956" lon="3.33945">
        <ele>419.7</ele>
        <time>2026-05-18T13:03:46Z</time>
      </trkpt>
      <trkpt lat="43.72956" lon="3.33945">
        <ele>419.7</ele>
        <time>2026-05-18T13:03:51Z</time>
      </trkpt>
      <trkpt lat="43.72956" lon="3.33945">
        <ele>419.7</ele>
        <time>2026-05-18T13:03:56Z</time>
      </trkpt>
      <trkpt lat="43.72956" lon="3.33945">
        <ele>419.7</ele>
        <time>2026-05-18T13:04:01Z</time>
      </trkpt>
      <trkpt lat="43.72956" lon="3.33945">
        <ele>419.7</ele>
        <time>2026-05-18T13:04:06Z</time>
      </trkpt>
      <trkpt lat="43.72956" lon="3.33945">
        <ele>419.7</ele>
        <time>2026-05-18T13:04:11Z</time>
      </trkpt>
      <trkpt lat="43.72956" lon="3.33945">
        <ele>419.7</ele>
        <time>2026-05-18T13:04:16Z</time>
      </trkpt>
      <trkpt lat="43.72956" lon="3.33945">
        <ele>419.7</ele>
        <time>2026-05-18T13:04:21Z</time>
      </trkpt>
      <trkpt lat="43.72956" lon="3.33945">
        <ele>419.7</ele>
        <time>2026-05-18T13:04:26Z</time>
      </trkpt>
      <trkpt lat="43.72956" lon="3.33945">
        <ele>419.7</ele>
        <time>2026-05-18T13:04:31Z</time>
      </trkpt>
      <trkpt lat="43.72956" lon="3.33945">
        <ele>419.7</ele>
        <time>2026-05-18T13:04:36Z</time>
      </trkpt>
      <trkpt lat="43.72956" lon="3.33945">
        <ele>419.7</ele>
        <time>2026-05-18T13:04:41Z</time>
      </trkpt>
      <trkpt lat="43.72956" lon="3.33945">
        <ele>419.7</ele>
        <time>2026-05-18T13:04:46Z</time>
      </trkpt>
      <trkpt lat="43.72956" lon="3.33945">
        <ele>419.7</ele>
        <time>2026-05-18T13:04:51Z</time>
      </trkpt>
      <trkpt lat="43.72956" lon="3.33945">
        <ele>419.7</ele>
        <time>2026-05-18T13:04:56Z</time>
      </trkpt>
      <trkpt lat="43.72956" lon="3.33945">
        <ele>419.7</ele>
        <time>2026-05-18T13:05:01Z</time>
      </trkpt>
      <trkpt lat="43.72956" lon="3.33945">
        <ele>419.7</ele>
        <time>2026-05-18T13:05:06Z</time>
      </trkpt>
      <trkpt lat="43.72956" lon="3.33945">
        <ele>419.7</ele>
        <time>2026-05-18T13:05:11Z</time>
      </trkpt>
      <trkpt lat="43.72956" lon="3.33945">
        <ele>419.7</ele>
        <time>2026-05-18T13:05:16Z</time>
      </trkpt>
      <trkpt lat="43.72956" lon="3.33945">
        <ele>419.7</ele>
        <time>2026-05-18T13:05:21Z</time>
      </trkpt>
      <trkpt lat="43.72956" lon="3.33945">
        <ele>419.7</ele>
        <time>2026-05-18T13:05:26Z</time>
      </trkpt>
      <trkpt lat="43.72956" lon="3.33945">
        <ele>419.7</ele>
        <time>2026-05-18T13:05:31Z</time>
      </trkpt>
      <trkpt lat="43.72956" lon="3.33945">
        <ele>419.7</ele>
        <time>2026-05-18T13:05:36Z</time>
      </trkpt>
      <trkpt lat="43.72956" lon="3.33945">
        <ele>419.7</ele>
        <time>2026-05-18T13:05:41Z</time>
      </trkpt>
      <trkpt lat="43.72956" lon="3.33945">
        <ele>419.7</ele>
        <time>2026-05-18T13:05:46Z</time>
      </trkpt>
      <trkpt lat="43.72956" lon="3.33945">
        <ele>419.7</ele>
        <time>2026-05-18T13:05:51Z</time>
      </trkpt>
      <trkpt lat="43.72956" lon="3.33945">
        <ele>419.7</ele>
        <time>2026-05-18T13:05:56Z</time>
      </trkpt>
      <trkpt lat="43.72953" lon="3.33935">
        <ele>419.5</ele>
        <time>2026-05-18T13:06:01Z</time>
      </trkpt>
      <trkpt lat="43.72948" lon="3.33928">
        <ele>419.2</ele>
        <time>2026-05-18T13:06:06Z</time>
      </trkpt>
      <trkpt lat="43.72943" lon="3.33921">
        <ele>418.9</ele>
        <time>2026-05-18T13:06:11Z</time>
      </trkpt>
      <trkpt lat="43.72938" lon="3.33914">
        <ele>418.5</ele>
        <time>2026-05-18T13:06:16Z</time>
      </trkpt>
      <trkpt lat="43.72931" lon="3.33905">
        <ele>418</ele>
        <time>2026-05-18T13:06:21Z</time>
      </trkpt>
      <trkpt lat="43.72926" lon="3.33899">
        <ele>417.6</ele>
        <time>2026-05-18T13:06:26Z</time>
      </trkpt>
      <trkpt lat="43.7292" lon="3.33893">
        <ele>417.2</ele>
        <time>2026-05-18T13:06:31Z</time>
      </trkpt>
      <trkpt lat="43.72913" lon="3.33884">
        <ele>416.5</ele>
        <time>2026-05-18T13:06:36Z</time>
      </trkpt>
      <trkpt lat="43.72908" lon="3.33877">
        <ele>415.9</ele>
        <time>2026-05-18T13:06:41Z</time>
      </trkpt>
      <trkpt lat="43.72902" lon="3.33869">
        <ele>415.2</ele>
        <time>2026-05-18T13:06:46Z</time>
      </trkpt>
      <trkpt lat="43.72897" lon="3.33862">
        <ele>414.7</ele>
        <time>2026-05-18T13:06:51Z</time>
      </trkpt>
      <trkpt lat="43.72892" lon="3.33854">
        <ele>414.3</ele>
        <time>2026-05-18T13:06:56Z</time>
      </trkpt>
      <trkpt lat="43.72885" lon="3.33846">
        <ele>413.7</ele>
        <time>2026-05-18T13:07:01Z</time>
      </trkpt>
      <trkpt lat="43.7288" lon="3.33838">
        <ele>413.4</ele>
        <time>2026-05-18T13:07:06Z</time>
      </trkpt>
      <trkpt lat="43.72874" lon="3.33832">
        <ele>412.9</ele>
        <time>2026-05-18T13:07:11Z</time>
      </trkpt>
      <trkpt lat="43.7287" lon="3.33824">
        <ele>412.8</ele>
        <time>2026-05-18T13:07:16Z</time>
      </trkpt>
      <trkpt lat="43.72867" lon="3.33822">
        <ele>412.5</ele>
        <time>2026-05-18T13:07:21Z</time>
      </trkpt>
      <trkpt lat="43.72865" lon="3.33818">
        <ele>412.5</ele>
        <time>2026-05-18T13:07:26Z</time>
      </trkpt>
      <trkpt lat="43.72867" lon="3.33813">
        <ele>412.8</ele>
        <time>2026-05-18T13:07:31Z</time>
      </trkpt>
      <trkpt lat="43.72869" lon="3.33809">
        <ele>413.1</ele>
        <time>2026-05-18T13:07:36Z</time>
      </trkpt>
      <trkpt lat="43.72872" lon="3.33805">
        <ele>413.4</ele>
        <time>2026-05-18T13:07:41Z</time>
      </trkpt>
      <trkpt lat="43.72873" lon="3.33797">
        <ele>413.7</ele>
        <time>2026-05-18T13:07:46Z</time>
      </trkpt>
      <trkpt lat="43.72873" lon="3.3379">
        <ele>413.9</ele>
        <time>2026-05-18T13:07:51Z</time>
      </trkpt>
      <trkpt lat="43.72873" lon="3.33783">
        <ele>414</ele>
        <time>2026-05-18T13:07:56Z</time>
      </trkpt>
      <trkpt lat="43.72874" lon="3.33777">
        <ele>414.3</ele>
        <time>2026-05-18T13:08:01Z</time>
      </trkpt>
      <trkpt lat="43.72875" lon="3.33771">
        <ele>414.5</ele>
        <time>2026-05-18T13:08:06Z</time>
      </trkpt>
      <trkpt lat="43.72874" lon="3.33763">
        <ele>414.6</ele>
        <time>2026-05-18T13:08:11Z</time>
      </trkpt>
      <trkpt lat="43.72875" lon="3.33755">
        <ele>414.9</ele>
        <time>2026-05-18T13:08:16Z</time>
      </trkpt>
      <trkpt lat="43.72874" lon="3.33747">
        <ele>414.8</ele>
        <time>2026-05-18T13:08:21Z</time>
      </trkpt>
      <trkpt lat="43.72875" lon="3.3374">
        <ele>414.4</ele>
        <time>2026-05-18T13:08:26Z</time>
      </trkpt>
      <trkpt lat="43.72877" lon="3.33739">
        <ele>414.5</ele>
        <time>2026-05-18T13:08:31Z</time>
      </trkpt>
      <trkpt lat="43.72878" lon="3.33739">
        <ele>414.5</ele>
        <time>2026-05-18T13:08:36Z</time>
      </trkpt>
      <trkpt lat="43.72878" lon="3.33739">
        <ele>414.5</ele>
        <time>2026-05-18T13:08:41Z</time>
      </trkpt>
      <trkpt lat="43.72878" lon="3.33739">
        <ele>414.5</ele>
        <time>2026-05-18T13:08:46Z</time>
      </trkpt>
      <trkpt lat="43.72878" lon="3.33739">
        <ele>414.5</ele>
        <time>2026-05-18T13:08:51Z</time>
      </trkpt>
      <trkpt lat="43.72878" lon="3.33739">
        <ele>414.5</ele>
        <time>2026-05-18T13:08:56Z</time>
      </trkpt>
      <trkpt lat="43.72878" lon="3.33739">
        <ele>414.5</ele>
        <time>2026-05-18T13:09:01Z</time>
      </trkpt>
      <trkpt lat="43.72878" lon="3.33739">
        <ele>414.5</ele>
        <time>2026-05-18T13:09:06Z</time>
      </trkpt>
      <trkpt lat="43.72878" lon="3.33739">
        <ele>414.5</ele>
        <time>2026-05-18T13:09:11Z</time>
      </trkpt>
      <trkpt lat="43.72878" lon="3.33739">
        <ele>414.5</ele>
        <time>2026-05-18T13:09:16Z</time>
      </trkpt>
      <trkpt lat="43.72878" lon="3.33739">
        <ele>414.5</ele>
        <time>2026-05-18T13:09:21Z</time>
      </trkpt>
      <trkpt lat="43.72875" lon="3.33745">
        <ele>414.7</ele>
        <time>2026-05-18T13:09:26Z</time>
      </trkpt>
      <trkpt lat="43.72872" lon="3.33754">
        <ele>414.7</ele>
        <time>2026-05-18T13:09:31Z</time>
      </trkpt>
      <trkpt lat="43.72872" lon="3.33763">
        <ele>414.5</ele>
        <time>2026-05-18T13:09:36Z</time>
      </trkpt>
      <trkpt lat="43.72872" lon="3.33772">
        <ele>414.2</ele>
        <time>2026-05-18T13:09:41Z</time>
      </trkpt>
      <trkpt lat="43.72874" lon="3.33781">
        <ele>414.2</ele>
        <time>2026-05-18T13:09:46Z</time>
      </trkpt>
      <trkpt lat="43.72874" lon="3.33791">
        <ele>413.9</ele>
        <time>2026-05-18T13:09:51Z</time>
      </trkpt>
      <trkpt lat="43.72872" lon="3.33799">
        <ele>413.6</ele>
        <time>2026-05-18T13:09:56Z</time>
      </trkpt>
      <trkpt lat="43.72871" lon="3.33807">
        <ele>413.3</ele>
        <time>2026-05-18T13:10:01Z</time>
      </trkpt>
      <trkpt lat="43.72867" lon="3.33812">
        <ele>412.8</ele>
        <time>2026-05-18T13:10:06Z</time>
      </trkpt>
      <trkpt lat="43.72861" lon="3.33809">
        <ele>412.3</ele>
        <time>2026-05-18T13:10:11Z</time>
      </trkpt>
      <trkpt lat="43.72855" lon="3.33805">
        <ele>411.9</ele>
        <time>2026-05-18T13:10:16Z</time>
      </trkpt>
      <trkpt lat="43.72849" lon="3.338">
        <ele>411.6</ele>
        <time>2026-05-18T13:10:21Z</time>
      </trkpt>
      <trkpt lat="43.72842" lon="3.33795">
        <ele>411.1</ele>
        <time>2026-05-18T13:10:26Z</time>
      </trkpt>
      <trkpt lat="43.72836" lon="3.33791">
        <ele>410.7</ele>
        <time>2026-05-18T13:10:31Z</time>
      </trkpt>
      <trkpt lat="43.72828" lon="3.3379">
        <ele>410.6</ele>
        <time>2026-05-18T13:10:36Z</time>
      </trkpt>
      <trkpt lat="43.72821" lon="3.33789">
        <ele>410.8</ele>
        <time>2026-05-18T13:10:41Z</time>
      </trkpt>
      <trkpt lat="43.72816" lon="3.33788">
        <ele>410.9</ele>
        <time>2026-05-18T13:10:46Z</time>
      </trkpt>
      <trkpt lat="43.72809" lon="3.33782">
        <ele>411.2</ele>
        <time>2026-05-18T13:10:51Z</time>
      </trkpt>
      <trkpt lat="43.72803" lon="3.33774">
        <ele>411.7</ele>
        <time>2026-05-18T13:10:56Z</time>
      </trkpt>
      <trkpt lat="43.72799" lon="3.33765">
        <ele>412.1</ele>
        <time>2026-05-18T13:11:01Z</time>
      </trkpt>
      <trkpt lat="43.72793" lon="3.33756">
        <ele>412.7</ele>
        <time>2026-05-18T13:11:06Z</time>
      </trkpt>
      <trkpt lat="43.72787" lon="3.33749">
        <ele>413.1</ele>
        <time>2026-05-18T13:11:11Z</time>
      </trkpt>
      <trkpt lat="43.72783" lon="3.33744">
        <ele>413.3</ele>
        <time>2026-05-18T13:11:16Z</time>
      </trkpt>
      <trkpt lat="43.72782" lon="3.33742">
        <ele>413.3</ele>
        <time>2026-05-18T13:11:21Z</time>
      </trkpt>
      <trkpt lat="43.7278" lon="3.3374">
        <ele>413.4</ele>
        <time>2026-05-18T13:11:26Z</time>
      </trkpt>
      <trkpt lat="43.72779" lon="3.33739">
        <ele>413.4</ele>
        <time>2026-05-18T13:11:31Z</time>
      </trkpt>
      <trkpt lat="43.72779" lon="3.33739">
        <ele>413.4</ele>
        <time>2026-05-18T13:11:36Z</time>
      </trkpt>
      <trkpt lat="43.72779" lon="3.33739">
        <ele>413.4</ele>
        <time>2026-05-18T13:11:41Z</time>
      </trkpt>
      <trkpt lat="43.72779" lon="3.33739">
        <ele>413.4</ele>
        <time>2026-05-18T13:11:46Z</time>
      </trkpt>
      <trkpt lat="43.72779" lon="3.33739">
        <ele>413.4</ele>
        <time>2026-05-18T13:11:51Z</time>
      </trkpt>
      <trkpt lat="43.72779" lon="3.33739">
        <ele>413.4</ele>
        <time>2026-05-18T13:11:56Z</time>
      </trkpt>
      <trkpt lat="43.72779" lon="3.33739">
        <ele>413.4</ele>
        <time>2026-05-18T13:12:01Z</time>
      </trkpt>
      <trkpt lat="43.72777" lon="3.3373">
        <ele>413.6</ele>
        <time>2026-05-18T13:12:06Z</time>
      </trkpt>
      <trkpt lat="43.72772" lon="3.33726">
        <ele>413.8</ele>
        <time>2026-05-18T13:12:11Z</time>
      </trkpt>
      <trkpt lat="43.72769" lon="3.33721">
        <ele>414</ele>
        <time>2026-05-18T13:12:16Z</time>
      </trkpt>
      <trkpt lat="43.72761" lon="3.33717">
        <ele>414.4</ele>
        <time>2026-05-18T13:12:21Z</time>
      </trkpt>
      <trkpt lat="43.72753" lon="3.33714">
        <ele>414.7</ele>
        <time>2026-05-18T13:12:26Z</time>
      </trkpt>
      <trkpt lat="43.72745" lon="3.33712">
        <ele>415.3</ele>
        <time>2026-05-18T13:12:31Z</time>
      </trkpt>
      <trkpt lat="43.72738" lon="3.33712">
        <ele>415.8</ele>
        <time>2026-05-18T13:12:36Z</time>
      </trkpt>
      <trkpt lat="43.72731" lon="3.33711">
        <ele>416.4</ele>
        <time>2026-05-18T13:12:41Z</time>
      </trkpt>
      <trkpt lat="43.72723" lon="3.3371">
        <ele>417.1</ele>
        <time>2026-05-18T13:12:46Z</time>
      </trkpt>
      <trkpt lat="43.72716" lon="3.33707">
        <ele>417.7</ele>
        <time>2026-05-18T13:12:51Z</time>
      </trkpt>
      <trkpt lat="43.72709" lon="3.33705">
        <ele>418.3</ele>
        <time>2026-05-18T13:12:56Z</time>
      </trkpt>
      <trkpt lat="43.72703" lon="3.33703">
        <ele>418.8</ele>
        <time>2026-05-18T13:13:01Z</time>
      </trkpt>
      <trkpt lat="43.72696" lon="3.33701">
        <ele>419.4</ele>
        <time>2026-05-18T13:13:06Z</time>
      </trkpt>
      <trkpt lat="43.72689" lon="3.33698">
        <ele>420.1</ele>
        <time>2026-05-18T13:13:11Z</time>
      </trkpt>
      <trkpt lat="43.72683" lon="3.33695">
        <ele>420.7</ele>
        <time>2026-05-18T13:13:16Z</time>
      </trkpt>
      <trkpt lat="43.72676" lon="3.33692">
        <ele>421.3</ele>
        <time>2026-05-18T13:13:21Z</time>
      </trkpt>
      <trkpt lat="43.72669" lon="3.33689">
        <ele>422</ele>
        <time>2026-05-18T13:13:26Z</time>
      </trkpt>
      <trkpt lat="43.72663" lon="3.33687">
        <ele>421.9</ele>
        <time>2026-05-18T13:13:31Z</time>
      </trkpt>
      <trkpt lat="43.72656" lon="3.33683">
        <ele>421.4</ele>
        <time>2026-05-18T13:13:36Z</time>
      </trkpt>
      <trkpt lat="43.72649" lon="3.3368">
        <ele>420.8</ele>
        <time>2026-05-18T13:13:41Z</time>
      </trkpt>
      <trkpt lat="43.72643" lon="3.33678">
        <ele>420.3</ele>
        <time>2026-05-18T13:13:46Z</time>
      </trkpt>
      <trkpt lat="43.72637" lon="3.33675">
        <ele>419.7</ele>
        <time>2026-05-18T13:13:51Z</time>
      </trkpt>
      <trkpt lat="43.72631" lon="3.33673">
        <ele>419.1</ele>
        <time>2026-05-18T13:13:56Z</time>
      </trkpt>
      <trkpt lat="43.72625" lon="3.3367">
        <ele>418.5</ele>
        <time>2026-05-18T13:14:01Z</time>
      </trkpt>
      <trkpt lat="43.7262" lon="3.33668">
        <ele>418</ele>
        <time>2026-05-18T13:14:06Z</time>
      </trkpt>
      <trkpt lat="43.72614" lon="3.33666">
        <ele>417.3</ele>
        <time>2026-05-18T13:14:11Z</time>
      </trkpt>
      <trkpt lat="43.72608" lon="3.33661">
        <ele>416.7</ele>
        <time>2026-05-18T13:14:16Z</time>
      </trkpt>
      <trkpt lat="43.72602" lon="3.33659">
        <ele>416.1</ele>
        <time>2026-05-18T13:14:21Z</time>
      </trkpt>
      <trkpt lat="43.72594" lon="3.33655">
        <ele>415.4</ele>
        <time>2026-05-18T13:14:26Z</time>
      </trkpt>
      <trkpt lat="43.72587" lon="3.33651">
        <ele>414.7</ele>
        <time>2026-05-18T13:14:31Z</time>
      </trkpt>
      <trkpt lat="43.72582" lon="3.33649">
        <ele>414.2</ele>
        <time>2026-05-18T13:14:36Z</time>
      </trkpt>
      <trkpt lat="43.72575" lon="3.33645">
        <ele>413.3</ele>
        <time>2026-05-18T13:14:41Z</time>
      </trkpt>
      <trkpt lat="43.7257" lon="3.33642">
        <ele>412.6</ele>
        <time>2026-05-18T13:14:46Z</time>
      </trkpt>
      <trkpt lat="43.72564" lon="3.3364">
        <ele>411.8</ele>
        <time>2026-05-18T13:14:51Z</time>
      </trkpt>
      <trkpt lat="43.72557" lon="3.33637">
        <ele>410.8</ele>
        <time>2026-05-18T13:14:56Z</time>
      </trkpt>
      <trkpt lat="43.72552" lon="3.33635">
        <ele>410.1</ele>
        <time>2026-05-18T13:15:01Z</time>
      </trkpt>
      <trkpt lat="43.72546" lon="3.33633">
        <ele>409.3</ele>
        <time>2026-05-18T13:15:06Z</time>
      </trkpt>
      <trkpt lat="43.72539" lon="3.33631">
        <ele>408.2</ele>
        <time>2026-05-18T13:15:11Z</time>
      </trkpt>
      <trkpt lat="43.72533" lon="3.33628">
        <ele>407.4</ele>
        <time>2026-05-18T13:15:16Z</time>
      </trkpt>
      <trkpt lat="43.72525" lon="3.33625">
        <ele>406.2</ele>
        <time>2026-05-18T13:15:21Z</time>
      </trkpt>
      <trkpt lat="43.72517" lon="3.33623">
        <ele>405.1</ele>
        <time>2026-05-18T13:15:26Z</time>
      </trkpt>
      <trkpt lat="43.72509" lon="3.33622">
        <ele>403.9</ele>
        <time>2026-05-18T13:15:31Z</time>
      </trkpt>
      <trkpt lat="43.72504" lon="3.3362">
        <ele>403.2</ele>
        <time>2026-05-18T13:15:36Z</time>
      </trkpt>
      <trkpt lat="43.72498" lon="3.33617">
        <ele>402.2</ele>
        <time>2026-05-18T13:15:41Z</time>
      </trkpt>
      <trkpt lat="43.72495" lon="3.33615">
        <ele>401.6</ele>
        <time>2026-05-18T13:15:46Z</time>
      </trkpt>
      <trkpt lat="43.72493" lon="3.33613">
        <ele>401.2</ele>
        <time>2026-05-18T13:15:51Z</time>
      </trkpt>
      <trkpt lat="43.72492" lon="3.33613">
        <ele>401</ele>
        <time>2026-05-18T13:15:56Z</time>
      </trkpt>
      <trkpt lat="43.72492" lon="3.33613">
        <ele>401</ele>
        <time>2026-05-18T13:16:01Z</time>
      </trkpt>
      <trkpt lat="43.72486" lon="3.33611">
        <ele>399.9</ele>
        <time>2026-05-18T13:16:06Z</time>
      </trkpt>
      <trkpt lat="43.72481" lon="3.33606">
        <ele>399</ele>
        <time>2026-05-18T13:16:11Z</time>
      </trkpt>
      <trkpt lat="43.72476" lon="3.33601">
        <ele>398.1</ele>
        <time>2026-05-18T13:16:16Z</time>
      </trkpt>
      <trkpt lat="43.7247" lon="3.33596">
        <ele>397</ele>
        <time>2026-05-18T13:16:21Z</time>
      </trkpt>
      <trkpt lat="43.72464" lon="3.33593">
        <ele>395.9</ele>
        <time>2026-05-18T13:16:26Z</time>
      </trkpt>
      <trkpt lat="43.72457" lon="3.3359">
        <ele>394.6</ele>
        <time>2026-05-18T13:16:31Z</time>
      </trkpt>
      <trkpt lat="43.72451" lon="3.33585">
        <ele>393.5</ele>
        <time>2026-05-18T13:16:36Z</time>
      </trkpt>
      <trkpt lat="43.72444" lon="3.3358">
        <ele>392.3</ele>
        <time>2026-05-18T13:16:41Z</time>
      </trkpt>
      <trkpt lat="43.72439" lon="3.33575">
        <ele>391.3</ele>
        <time>2026-05-18T13:16:46Z</time>
      </trkpt>
      <trkpt lat="43.72436" lon="3.3357">
        <ele>390.8</ele>
        <time>2026-05-18T13:16:51Z</time>
      </trkpt>
      <trkpt lat="43.72429" lon="3.33569">
        <ele>389.5</ele>
        <time>2026-05-18T13:16:56Z</time>
      </trkpt>
      <trkpt lat="43.72423" lon="3.33565">
        <ele>388.4</ele>
        <time>2026-05-18T13:17:01Z</time>
      </trkpt>
      <trkpt lat="43.72417" lon="3.3356">
        <ele>387.3</ele>
        <time>2026-05-18T13:17:06Z</time>
      </trkpt>
      <trkpt lat="43.72412" lon="3.33557">
        <ele>386.8</ele>
        <time>2026-05-18T13:17:11Z</time>
      </trkpt>
      <trkpt lat="43.72407" lon="3.33553">
        <ele>386.3</ele>
        <time>2026-05-18T13:17:16Z</time>
      </trkpt>
      <trkpt lat="43.72402" lon="3.33545">
        <ele>385.8</ele>
        <time>2026-05-18T13:17:21Z</time>
      </trkpt>
      <trkpt lat="43.72396" lon="3.33538">
        <ele>385.4</ele>
        <time>2026-05-18T13:17:26Z</time>
      </trkpt>
      <trkpt lat="43.72392" lon="3.33533">
        <ele>385.1</ele>
        <time>2026-05-18T13:17:31Z</time>
      </trkpt>
      <trkpt lat="43.72387" lon="3.33527">
        <ele>384.7</ele>
        <time>2026-05-18T13:17:36Z</time>
      </trkpt>
      <trkpt lat="43.72381" lon="3.33521">
        <ele>384.3</ele>
        <time>2026-05-18T13:17:41Z</time>
      </trkpt>
      <trkpt lat="43.72376" lon="3.33515">
        <ele>384.1</ele>
        <time>2026-05-18T13:17:46Z</time>
      </trkpt>
      <trkpt lat="43.72373" lon="3.3351">
        <ele>384</ele>
        <time>2026-05-18T13:17:51Z</time>
      </trkpt>
      <trkpt lat="43.72369" lon="3.33505">
        <ele>383.8</ele>
        <time>2026-05-18T13:17:56Z</time>
      </trkpt>
      <trkpt lat="43.72364" lon="3.33499">
        <ele>383.5</ele>
        <time>2026-05-18T13:18:01Z</time>
      </trkpt>
      <trkpt lat="43.72359" lon="3.33493">
        <ele>382.6</ele>
        <time>2026-05-18T13:18:06Z</time>
      </trkpt>
      <trkpt lat="43.72353" lon="3.33486">
        <ele>381.7</ele>
        <time>2026-05-18T13:18:11Z</time>
      </trkpt>
      <trkpt lat="43.72347" lon="3.33477">
        <ele>380.7</ele>
        <time>2026-05-18T13:18:16Z</time>
      </trkpt>
      <trkpt lat="43.72341" lon="3.33469">
        <ele>379.9</ele>
        <time>2026-05-18T13:18:21Z</time>
      </trkpt>
      <trkpt lat="43.72335" lon="3.33466">
        <ele>379.5</ele>
        <time>2026-05-18T13:18:26Z</time>
      </trkpt>
      <trkpt lat="43.7233" lon="3.33465">
        <ele>379.3</ele>
        <time>2026-05-18T13:18:31Z</time>
      </trkpt>
      <trkpt lat="43.72324" lon="3.33464">
        <ele>379.1</ele>
        <time>2026-05-18T13:18:36Z</time>
      </trkpt>
      <trkpt lat="43.72318" lon="3.33464">
        <ele>379</ele>
        <time>2026-05-18T13:18:41Z</time>
      </trkpt>
      <trkpt lat="43.72311" lon="3.33457">
        <ele>378.5</ele>
        <time>2026-05-18T13:18:46Z</time>
      </trkpt>
      <trkpt lat="43.72305" lon="3.33449">
        <ele>378.2</ele>
        <time>2026-05-18T13:18:51Z</time>
      </trkpt>
      <trkpt lat="43.72298" lon="3.33444">
        <ele>377.9</ele>
        <time>2026-05-18T13:18:56Z</time>
      </trkpt>
      <trkpt lat="43.72291" lon="3.33439">
        <ele>377.7</ele>
        <time>2026-05-18T13:19:01Z</time>
      </trkpt>
      <trkpt lat="43.72284" lon="3.33436">
        <ele>377.5</ele>
        <time>2026-05-18T13:19:06Z</time>
      </trkpt>
      <trkpt lat="43.72277" lon="3.33433">
        <ele>377.4</ele>
        <time>2026-05-18T13:19:11Z</time>
      </trkpt>
      <trkpt lat="43.7227" lon="3.33431">
        <ele>377.3</ele>
        <time>2026-05-18T13:19:16Z</time>
      </trkpt>
      <trkpt lat="43.72262" lon="3.33428">
        <ele>377.2</ele>
        <time>2026-05-18T13:19:21Z</time>
      </trkpt>
      <trkpt lat="43.72255" lon="3.33423">
        <ele>377.1</ele>
        <time>2026-05-18T13:19:26Z</time>
      </trkpt>
      <trkpt lat="43.72249" lon="3.33421">
        <ele>377</ele>
        <time>2026-05-18T13:19:31Z</time>
      </trkpt>
      <trkpt lat="43.72244" lon="3.3342">
        <ele>376.5</ele>
        <time>2026-05-18T13:19:36Z</time>
      </trkpt>
      <trkpt lat="43.72237" lon="3.33417">
        <ele>375.8</ele>
        <time>2026-05-18T13:19:41Z</time>
      </trkpt>
      <trkpt lat="43.72229" lon="3.33415">
        <ele>374.9</ele>
        <time>2026-05-18T13:19:46Z</time>
      </trkpt>
      <trkpt lat="43.72222" lon="3.33412">
        <ele>374.1</ele>
        <time>2026-05-18T13:19:51Z</time>
      </trkpt>
      <trkpt lat="43.72216" lon="3.3341">
        <ele>373.5</ele>
        <time>2026-05-18T13:19:56Z</time>
      </trkpt>
      <trkpt lat="43.72212" lon="3.33408">
        <ele>373</ele>
        <time>2026-05-18T13:20:01Z</time>
      </trkpt>
      <trkpt lat="43.72211" lon="3.33405">
        <ele>372.8</ele>
        <time>2026-05-18T13:20:06Z</time>
      </trkpt>
      <trkpt lat="43.72212" lon="3.33403">
        <ele>372.8</ele>
        <time>2026-05-18T13:20:11Z</time>
      </trkpt>
      <trkpt lat="43.72212" lon="3.33403">
        <ele>372.8</ele>
        <time>2026-05-18T13:20:16Z</time>
      </trkpt>
      <trkpt lat="43.72207" lon="3.33402">
        <ele>372.4</ele>
        <time>2026-05-18T13:20:21Z</time>
      </trkpt>
      <trkpt lat="43.72199" lon="3.33403">
        <ele>371.7</ele>
        <time>2026-05-18T13:20:26Z</time>
      </trkpt>
      <trkpt lat="43.72191" lon="3.334">
        <ele>371</ele>
        <time>2026-05-18T13:20:31Z</time>
      </trkpt>
      <trkpt lat="43.72183" lon="3.33399">
        <ele>370.3</ele>
        <time>2026-05-18T13:20:36Z</time>
      </trkpt>
      <trkpt lat="43.72176" lon="3.33396">
        <ele>369.7</ele>
        <time>2026-05-18T13:20:41Z</time>
      </trkpt>
      <trkpt lat="43.72169" lon="3.33393">
        <ele>369.2</ele>
        <time>2026-05-18T13:20:46Z</time>
      </trkpt>
      <trkpt lat="43.72163" lon="3.33389">
        <ele>368.7</ele>
        <time>2026-05-18T13:20:51Z</time>
      </trkpt>
      <trkpt lat="43.72155" lon="3.33385">
        <ele>368</ele>
        <time>2026-05-18T13:20:56Z</time>
      </trkpt>
      <trkpt lat="43.72147" lon="3.3338">
        <ele>367.2</ele>
        <time>2026-05-18T13:21:01Z</time>
      </trkpt>
      <trkpt lat="43.7214" lon="3.33372">
        <ele>366.6</ele>
        <time>2026-05-18T13:21:06Z</time>
      </trkpt>
      <trkpt lat="43.72134" lon="3.33366">
        <ele>366</ele>
        <time>2026-05-18T13:21:11Z</time>
      </trkpt>
      <trkpt lat="43.72128" lon="3.33359">
        <ele>365.4</ele>
        <time>2026-05-18T13:21:16Z</time>
      </trkpt>
      <trkpt lat="43.72123" lon="3.33351">
        <ele>364.9</ele>
        <time>2026-05-18T13:21:21Z</time>
      </trkpt>
      <trkpt lat="43.72118" lon="3.33344">
        <ele>364.4</ele>
        <time>2026-05-18T13:21:26Z</time>
      </trkpt>
      <trkpt lat="43.72112" lon="3.33337">
        <ele>363.8</ele>
        <time>2026-05-18T13:21:31Z</time>
      </trkpt>
      <trkpt lat="43.72106" lon="3.3333">
        <ele>363.2</ele>
        <time>2026-05-18T13:21:36Z</time>
      </trkpt>
      <trkpt lat="43.721" lon="3.33325">
        <ele>362.8</ele>
        <time>2026-05-18T13:21:41Z</time>
      </trkpt>
      <trkpt lat="43.72094" lon="3.33317">
        <ele>362.4</ele>
        <time>2026-05-18T13:21:46Z</time>
      </trkpt>
      <trkpt lat="43.7209" lon="3.3331">
        <ele>362.3</ele>
        <time>2026-05-18T13:21:51Z</time>
      </trkpt>
      <trkpt lat="43.72086" lon="3.33301">
        <ele>362.3</ele>
        <time>2026-05-18T13:21:56Z</time>
      </trkpt>
      <trkpt lat="43.72081" lon="3.33294">
        <ele>362.2</ele>
        <time>2026-05-18T13:22:01Z</time>
      </trkpt>
      <trkpt lat="43.72077" lon="3.33286">
        <ele>362.1</ele>
        <time>2026-05-18T13:22:06Z</time>
      </trkpt>
      <trkpt lat="43.72072" lon="3.33278">
        <ele>362</ele>
        <time>2026-05-18T13:22:11Z</time>
      </trkpt>
      <trkpt lat="43.72067" lon="3.33271">
        <ele>362</ele>
        <time>2026-05-18T13:22:16Z</time>
      </trkpt>
      <trkpt lat="43.72062" lon="3.33264">
        <ele>362</ele>
        <time>2026-05-18T13:22:21Z</time>
      </trkpt>
      <trkpt lat="43.72055" lon="3.33257">
        <ele>361.9</ele>
        <time>2026-05-18T13:22:26Z</time>
      </trkpt>
      <trkpt lat="43.7205" lon="3.3325">
        <ele>362</ele>
        <time>2026-05-18T13:22:31Z</time>
      </trkpt>
      <trkpt lat="43.72045" lon="3.33243">
        <ele>362.2</ele>
        <time>2026-05-18T13:22:36Z</time>
      </trkpt>
      <trkpt lat="43.72041" lon="3.33235">
        <ele>362.6</ele>
        <time>2026-05-18T13:22:41Z</time>
      </trkpt>
      <trkpt lat="43.72036" lon="3.3323">
        <ele>362.8</ele>
        <time>2026-05-18T13:22:46Z</time>
      </trkpt>
      <trkpt lat="43.72031" lon="3.33223">
        <ele>363.3</ele>
        <time>2026-05-18T13:22:51Z</time>
      </trkpt>
      <trkpt lat="43.7203" lon="3.33213">
        <ele>364.1</ele>
        <time>2026-05-18T13:22:56Z</time>
      </trkpt>
      <trkpt lat="43.72033" lon="3.33205">
        <ele>364.9</ele>
        <time>2026-05-18T13:23:01Z</time>
      </trkpt>
      <trkpt lat="43.72038" lon="3.33197">
        <ele>365.6</ele>
        <time>2026-05-18T13:23:06Z</time>
      </trkpt>
      <trkpt lat="43.72043" lon="3.33191">
        <ele>366.1</ele>
        <time>2026-05-18T13:23:11Z</time>
      </trkpt>
      <trkpt lat="43.72048" lon="3.33184">
        <ele>366.6</ele>
        <time>2026-05-18T13:23:16Z</time>
      </trkpt>
      <trkpt lat="43.72055" lon="3.33175">
        <ele>367.1</ele>
        <time>2026-05-18T13:23:21Z</time>
      </trkpt>
      <trkpt lat="43.7206" lon="3.33166">
        <ele>367.6</ele>
        <time>2026-05-18T13:23:26Z</time>
      </trkpt>
      <trkpt lat="43.72062" lon="3.33162">
        <ele>367.7</ele>
        <time>2026-05-18T13:23:31Z</time>
      </trkpt>
      <trkpt lat="43.72061" lon="3.33158">
        <ele>367.9</ele>
        <time>2026-05-18T13:23:36Z</time>
      </trkpt>
      <trkpt lat="43.72061" lon="3.33153">
        <ele>368.1</ele>
        <time>2026-05-18T13:23:41Z</time>
      </trkpt>
      <trkpt lat="43.72061" lon="3.33145">
        <ele>368.4</ele>
        <time>2026-05-18T13:23:46Z</time>
      </trkpt>
      <trkpt lat="43.7206" lon="3.33138">
        <ele>368.7</ele>
        <time>2026-05-18T13:23:51Z</time>
      </trkpt>
      <trkpt lat="43.72059" lon="3.33129">
        <ele>369.1</ele>
        <time>2026-05-18T13:23:56Z</time>
      </trkpt>
      <trkpt lat="43.72059" lon="3.33121">
        <ele>369.4</ele>
        <time>2026-05-18T13:24:01Z</time>
      </trkpt>
      <trkpt lat="43.72063" lon="3.33112">
        <ele>369.4</ele>
        <time>2026-05-18T13:24:06Z</time>
      </trkpt>
      <trkpt lat="43.72065" lon="3.33105">
        <ele>369.5</ele>
        <time>2026-05-18T13:24:11Z</time>
      </trkpt>
      <trkpt lat="43.72066" lon="3.33097">
        <ele>369.6</ele>
        <time>2026-05-18T13:24:16Z</time>
      </trkpt>
      <trkpt lat="43.72069" lon="3.33091">
        <ele>369.5</ele>
        <time>2026-05-18T13:24:21Z</time>
      </trkpt>
      <trkpt lat="43.72071" lon="3.33084">
        <ele>369.5</ele>
        <time>2026-05-18T13:24:26Z</time>
      </trkpt>
      <trkpt lat="43.72073" lon="3.33079">
        <ele>369.2</ele>
        <time>2026-05-18T13:24:31Z</time>
      </trkpt>
      <trkpt lat="43.72075" lon="3.33076">
        <ele>369</ele>
        <time>2026-05-18T13:24:36Z</time>
      </trkpt>
      <trkpt lat="43.72077" lon="3.33074">
        <ele>368.7</ele>
        <time>2026-05-18T13:24:41Z</time>
      </trkpt>
      <trkpt lat="43.7208" lon="3.3307">
        <ele>368.3</ele>
        <time>2026-05-18T13:24:46Z</time>
      </trkpt>
      <trkpt lat="43.72083" lon="3.33065">
        <ele>367.8</ele>
        <time>2026-05-18T13:24:51Z</time>
      </trkpt>
      <trkpt lat="43.72085" lon="3.33061">
        <ele>367.4</ele>
        <time>2026-05-18T13:24:56Z</time>
      </trkpt>
      <trkpt lat="43.72088" lon="3.33057">
        <ele>366.7</ele>
        <time>2026-05-18T13:25:01Z</time>
      </trkpt>
      <trkpt lat="43.72091" lon="3.33053">
        <ele>366</ele>
        <time>2026-05-18T13:25:06Z</time>
      </trkpt>
      <trkpt lat="43.72093" lon="3.33048">
        <ele>365.4</ele>
        <time>2026-05-18T13:25:11Z</time>
      </trkpt>
      <trkpt lat="43.72096" lon="3.33043">
        <ele>364.6</ele>
        <time>2026-05-18T13:25:16Z</time>
      </trkpt>
      <trkpt lat="43.72099" lon="3.33038">
        <ele>363.7</ele>
        <time>2026-05-18T13:25:21Z</time>
      </trkpt>
      <trkpt lat="43.72101" lon="3.33033">
        <ele>363</ele>
        <time>2026-05-18T13:25:26Z</time>
      </trkpt>
      <trkpt lat="43.72105" lon="3.33031">
        <ele>361.9</ele>
        <time>2026-05-18T13:25:31Z</time>
      </trkpt>
      <trkpt lat="43.72109" lon="3.3303">
        <ele>360.8</ele>
        <time>2026-05-18T13:25:36Z</time>
      </trkpt>
      <trkpt lat="43.72112" lon="3.3303">
        <ele>360</ele>
        <time>2026-05-18T13:25:41Z</time>
      </trkpt>
      <trkpt lat="43.72116" lon="3.33029">
        <ele>358.9</ele>
        <time>2026-05-18T13:25:46Z</time>
      </trkpt>
      <trkpt lat="43.72118" lon="3.33028">
        <ele>358.3</ele>
        <time>2026-05-18T13:25:51Z</time>
      </trkpt>
      <trkpt lat="43.72118" lon="3.33028">
        <ele>358.3</ele>
        <time>2026-05-18T13:25:56Z</time>
      </trkpt>
      <trkpt lat="43.72118" lon="3.33028">
        <ele>358.3</ele>
        <time>2026-05-18T13:26:01Z</time>
      </trkpt>
      <trkpt lat="43.72132" lon="3.33035">
        <ele>355.4</ele>
        <time>2026-05-18T13:26:06Z</time>
      </trkpt>
      <trkpt lat="43.72137" lon="3.33036">
        <ele>354.3</ele>
        <time>2026-05-18T13:26:11Z</time>
      </trkpt>
      <trkpt lat="43.72143" lon="3.33038">
        <ele>353.1</ele>
        <time>2026-05-18T13:26:16Z</time>
      </trkpt>
      <trkpt lat="43.72146" lon="3.3304">
        <ele>352.6</ele>
        <time>2026-05-18T13:26:21Z</time>
      </trkpt>
      <trkpt lat="43.7215" lon="3.33041">
        <ele>351.8</ele>
        <time>2026-05-18T13:26:26Z</time>
      </trkpt>
      <trkpt lat="43.72155" lon="3.33044">
        <ele>351.1</ele>
        <time>2026-05-18T13:26:31Z</time>
      </trkpt>
      <trkpt lat="43.72161" lon="3.33047">
        <ele>350.2</ele>
        <time>2026-05-18T13:26:36Z</time>
      </trkpt>
      <trkpt lat="43.72166" lon="3.33045">
        <ele>348.7</ele>
        <time>2026-05-18T13:26:41Z</time>
      </trkpt>
      <trkpt lat="43.72169" lon="3.3304">
        <ele>347.2</ele>
        <time>2026-05-18T13:26:46Z</time>
      </trkpt>
      <trkpt lat="43.72174" lon="3.33041">
        <ele>346.4</ele>
        <time>2026-05-18T13:26:51Z</time>
      </trkpt>
      <trkpt lat="43.72177" lon="3.33044">
        <ele>346.3</ele>
        <time>2026-05-18T13:26:56Z</time>
      </trkpt>
      <trkpt lat="43.72181" lon="3.33048">
        <ele>346.2</ele>
        <time>2026-05-18T13:27:01Z</time>
      </trkpt>
      <trkpt lat="43.72185" lon="3.3305">
        <ele>345.7</ele>
        <time>2026-05-18T13:27:06Z</time>
      </trkpt>
      <trkpt lat="43.72191" lon="3.33051">
        <ele>344.7</ele>
        <time>2026-05-18T13:27:11Z</time>
      </trkpt>
      <trkpt lat="43.72195" lon="3.33054">
        <ele>344.5</ele>
        <time>2026-05-18T13:27:16Z</time>
      </trkpt>
      <trkpt lat="43.72199" lon="3.33055">
        <ele>343.9</ele>
        <time>2026-05-18T13:27:21Z</time>
      </trkpt>
      <trkpt lat="43.72201" lon="3.33058">
        <ele>344.1</ele>
        <time>2026-05-18T13:27:26Z</time>
      </trkpt>
      <trkpt lat="43.72203" lon="3.33061">
        <ele>344.2</ele>
        <time>2026-05-18T13:27:31Z</time>
      </trkpt>
      <trkpt lat="43.72205" lon="3.33064">
        <ele>344.4</ele>
        <time>2026-05-18T13:27:36Z</time>
      </trkpt>
      <trkpt lat="43.72206" lon="3.33069">
        <ele>345.2</ele>
        <time>2026-05-18T13:27:41Z</time>
      </trkpt>
      <trkpt lat="43.7221" lon="3.3307">
        <ele>344.6</ele>
        <time>2026-05-18T13:27:46Z</time>
      </trkpt>
      <trkpt lat="43.72215" lon="3.33072">
        <ele>344.1</ele>
        <time>2026-05-18T13:27:51Z</time>
      </trkpt>
      <trkpt lat="43.72219" lon="3.33074">
        <ele>343.7</ele>
        <time>2026-05-18T13:27:56Z</time>
      </trkpt>
      <trkpt lat="43.72222" lon="3.33076">
        <ele>343.6</ele>
        <time>2026-05-18T13:28:01Z</time>
      </trkpt>
      <trkpt lat="43.72227" lon="3.33075">
        <ele>342.5</ele>
        <time>2026-05-18T13:28:06Z</time>
      </trkpt>
      <trkpt lat="43.72229" lon="3.33071">
        <ele>341.3</ele>
        <time>2026-05-18T13:28:11Z</time>
      </trkpt>
      <trkpt lat="43.72229" lon="3.33066">
        <ele>340.2</ele>
        <time>2026-05-18T13:28:16Z</time>
      </trkpt>
      <trkpt lat="43.72227" lon="3.33061">
        <ele>339.6</ele>
        <time>2026-05-18T13:28:21Z</time>
      </trkpt>
      <trkpt lat="43.72226" lon="3.33059">
        <ele>339.4</ele>
        <time>2026-05-18T13:28:26Z</time>
      </trkpt>
      <trkpt lat="43.72224" lon="3.3305">
        <ele>338</ele>
        <time>2026-05-18T13:28:31Z</time>
      </trkpt>
      <trkpt lat="43.72227" lon="3.33049">
        <ele>337.2</ele>
        <time>2026-05-18T13:28:36Z</time>
      </trkpt>
      <trkpt lat="43.72228" lon="3.33049">
        <ele>337</ele>
        <time>2026-05-18T13:28:41Z</time>
      </trkpt>
      <trkpt lat="43.72228" lon="3.33049">
        <ele>337</ele>
        <time>2026-05-18T13:28:46Z</time>
      </trkpt>
      <trkpt lat="43.72228" lon="3.33049">
        <ele>337</ele>
        <time>2026-05-18T13:28:51Z</time>
      </trkpt>
      <trkpt lat="43.72236" lon="3.33053">
        <ele>336.2</ele>
        <time>2026-05-18T13:28:56Z</time>
      </trkpt>
      <trkpt lat="43.7224" lon="3.33055">
        <ele>335.8</ele>
        <time>2026-05-18T13:29:01Z</time>
      </trkpt>
      <trkpt lat="43.72241" lon="3.33055">
        <ele>335.6</ele>
        <time>2026-05-18T13:29:06Z</time>
      </trkpt>
      <trkpt lat="43.72241" lon="3.33055">
        <ele>335.6</ele>
        <time>2026-05-18T13:29:11Z</time>
      </trkpt>
      <trkpt lat="43.72241" lon="3.33055">
        <ele>335.6</ele>
        <time>2026-05-18T13:29:16Z</time>
      </trkpt>
      <trkpt lat="43.72249" lon="3.3306">
        <ele>335.2</ele>
        <time>2026-05-18T13:29:21Z</time>
      </trkpt>
      <trkpt lat="43.72254" lon="3.33062">
        <ele>333.9</ele>
        <time>2026-05-18T13:29:26Z</time>
      </trkpt>
      <trkpt lat="43.72258" lon="3.33065">
        <ele>333</ele>
        <time>2026-05-18T13:29:31Z</time>
      </trkpt>
      <trkpt lat="43.7226" lon="3.33068">
        <ele>332.9</ele>
        <time>2026-05-18T13:29:36Z</time>
      </trkpt>
      <trkpt lat="43.72263" lon="3.33069">
        <ele>332</ele>
        <time>2026-05-18T13:29:41Z</time>
      </trkpt>
      <trkpt lat="43.72267" lon="3.33071">
        <ele>331</ele>
        <time>2026-05-18T13:29:46Z</time>
      </trkpt>
      <trkpt lat="43.72271" lon="3.33074">
        <ele>330.1</ele>
        <time>2026-05-18T13:29:51Z</time>
      </trkpt>
      <trkpt lat="43.72274" lon="3.33077">
        <ele>329.7</ele>
        <time>2026-05-18T13:29:56Z</time>
      </trkpt>
      <trkpt lat="43.72277" lon="3.3308">
        <ele>329.2</ele>
        <time>2026-05-18T13:30:01Z</time>
      </trkpt>
      <trkpt lat="43.7228" lon="3.33083">
        <ele>328.8</ele>
        <time>2026-05-18T13:30:06Z</time>
      </trkpt>
      <trkpt lat="43.72283" lon="3.33086">
        <ele>328.2</ele>
        <time>2026-05-18T13:30:11Z</time>
      </trkpt>
      <trkpt lat="43.72286" lon="3.33089">
        <ele>327.7</ele>
        <time>2026-05-18T13:30:16Z</time>
      </trkpt>
      <trkpt lat="43.7229" lon="3.33092">
        <ele>326.8</ele>
        <time>2026-05-18T13:30:21Z</time>
      </trkpt>
      <trkpt lat="43.72293" lon="3.33094">
        <ele>326.1</ele>
        <time>2026-05-18T13:30:26Z</time>
      </trkpt>
      <trkpt lat="43.72293" lon="3.33094">
        <ele>326.1</ele>
        <time>2026-05-18T13:30:31Z</time>
      </trkpt>
      <trkpt lat="43.72302" lon="3.33103">
        <ele>324.6</ele>
        <time>2026-05-18T13:30:36Z</time>
      </trkpt>
      <trkpt lat="43.72303" lon="3.33103">
        <ele>324.3</ele>
        <time>2026-05-18T13:30:41Z</time>
      </trkpt>
      <trkpt lat="43.7231" lon="3.33108">
        <ele>322.8</ele>
        <time>2026-05-18T13:30:46Z</time>
      </trkpt>
      <trkpt lat="43.7231" lon="3.33108">
        <ele>322.8</ele>
        <time>2026-05-18T13:30:51Z</time>
      </trkpt>
      <trkpt lat="43.7231" lon="3.33108">
        <ele>322.8</ele>
        <time>2026-05-18T13:30:56Z</time>
      </trkpt>
      <trkpt lat="43.72321" lon="3.33109">
        <ele>319</ele>
        <time>2026-05-18T13:31:01Z</time>
      </trkpt>
      <trkpt lat="43.72326" lon="3.33107">
        <ele>316.8</ele>
        <time>2026-05-18T13:31:06Z</time>
      </trkpt>
      <trkpt lat="43.72329" lon="3.33104">
        <ele>315</ele>
        <time>2026-05-18T13:31:11Z</time>
      </trkpt>
      <trkpt lat="43.72331" lon="3.331">
        <ele>313.5</ele>
        <time>2026-05-18T13:31:16Z</time>
      </trkpt>
      <trkpt lat="43.72332" lon="3.33097">
        <ele>312.4</ele>
        <time>2026-05-18T13:31:21Z</time>
      </trkpt>
      <trkpt lat="43.72336" lon="3.33095">
        <ele>310.9</ele>
        <time>2026-05-18T13:31:26Z</time>
      </trkpt>
      <trkpt lat="43.72336" lon="3.33095">
        <ele>310.9</ele>
        <time>2026-05-18T13:31:31Z</time>
      </trkpt>
      <trkpt lat="43.72336" lon="3.33095">
        <ele>310.9</ele>
        <time>2026-05-18T13:31:36Z</time>
      </trkpt>
      <trkpt lat="43.72344" lon="3.3308">
        <ele>305.8</ele>
        <time>2026-05-18T13:31:41Z</time>
      </trkpt>
      <trkpt lat="43.72347" lon="3.33076">
        <ele>304.2</ele>
        <time>2026-05-18T13:31:46Z</time>
      </trkpt>
      <trkpt lat="43.72349" lon="3.3307">
        <ele>302.3</ele>
        <time>2026-05-18T13:31:51Z</time>
      </trkpt>
      <trkpt lat="43.72351" lon="3.33065">
        <ele>300.7</ele>
        <time>2026-05-18T13:31:56Z</time>
      </trkpt>
      <trkpt lat="43.72352" lon="3.3306">
        <ele>299.3</ele>
        <time>2026-05-18T13:32:01Z</time>
      </trkpt>
      <trkpt lat="43.72352" lon="3.33055">
        <ele>298.1</ele>
        <time>2026-05-18T13:32:06Z</time>
      </trkpt>
      <trkpt lat="43.72352" lon="3.3305">
        <ele>296.9</ele>
        <time>2026-05-18T13:32:11Z</time>
      </trkpt>
      <trkpt lat="43.72352" lon="3.33046">
        <ele>296</ele>
        <time>2026-05-18T13:32:16Z</time>
      </trkpt>
      <trkpt lat="43.7235" lon="3.33039">
        <ele>294.8</ele>
        <time>2026-05-18T13:32:21Z</time>
      </trkpt>
      <trkpt lat="43.72348" lon="3.33033">
        <ele>293.8</ele>
        <time>2026-05-18T13:32:26Z</time>
      </trkpt>
      <trkpt lat="43.72348" lon="3.33026">
        <ele>292.1</ele>
        <time>2026-05-18T13:32:31Z</time>
      </trkpt>
      <trkpt lat="43.72349" lon="3.33019">
        <ele>290.3</ele>
        <time>2026-05-18T13:32:36Z</time>
      </trkpt>
      <trkpt lat="43.72347" lon="3.33011">
        <ele>288.8</ele>
        <time>2026-05-18T13:32:41Z</time>
      </trkpt>
      <trkpt lat="43.72345" lon="3.33003">
        <ele>287.3</ele>
        <time>2026-05-18T13:32:46Z</time>
      </trkpt>
      <trkpt lat="43.72346" lon="3.32996">
        <ele>285.4</ele>
        <time>2026-05-18T13:32:51Z</time>
      </trkpt>
      <trkpt lat="43.72346" lon="3.3299">
        <ele>283.9</ele>
        <time>2026-05-18T13:32:56Z</time>
      </trkpt>
      <trkpt lat="43.72347" lon="3.32982">
        <ele>281.7</ele>
        <time>2026-05-18T13:33:01Z</time>
      </trkpt>
      <trkpt lat="43.72349" lon="3.32974">
        <ele>279.3</ele>
        <time>2026-05-18T13:33:06Z</time>
      </trkpt>
      <trkpt lat="43.72349" lon="3.32965">
        <ele>277.1</ele>
        <time>2026-05-18T13:33:11Z</time>
      </trkpt>
      <trkpt lat="43.7235" lon="3.32956">
        <ele>274.6</ele>
        <time>2026-05-18T13:33:16Z</time>
      </trkpt>
      <trkpt lat="43.72351" lon="3.32947">
        <ele>272.2</ele>
        <time>2026-05-18T13:33:21Z</time>
      </trkpt>
      <trkpt lat="43.72352" lon="3.32939">
        <ele>270</ele>
        <time>2026-05-18T13:33:26Z</time>
      </trkpt>
      <trkpt lat="43.72354" lon="3.3293">
        <ele>267.4</ele>
        <time>2026-05-18T13:33:31Z</time>
      </trkpt>
      <trkpt lat="43.72355" lon="3.3292">
        <ele>264.7</ele>
        <time>2026-05-18T13:33:36Z</time>
      </trkpt>
      <trkpt lat="43.72356" lon="3.32911">
        <ele>262.1</ele>
        <time>2026-05-18T13:33:41Z</time>
      </trkpt>
      <trkpt lat="43.72357" lon="3.32901">
        <ele>259.2</ele>
        <time>2026-05-18T13:33:46Z</time>
      </trkpt>
      <trkpt lat="43.72359" lon="3.32892">
        <ele>256.5</ele>
        <time>2026-05-18T13:33:51Z</time>
      </trkpt>
      <trkpt lat="43.7236" lon="3.32883">
        <ele>253.9</ele>
        <time>2026-05-18T13:33:56Z</time>
      </trkpt>
      <trkpt lat="43.7236" lon="3.32874">
        <ele>251.5</ele>
        <time>2026-05-18T13:34:01Z</time>
      </trkpt>
      <trkpt lat="43.72361" lon="3.32865">
        <ele>249</ele>
        <time>2026-05-18T13:34:06Z</time>
      </trkpt>
      <trkpt lat="43.72361" lon="3.32857">
        <ele>246.9</ele>
        <time>2026-05-18T13:34:11Z</time>
      </trkpt>
      <trkpt lat="43.72362" lon="3.3285">
        <ele>245</ele>
        <time>2026-05-18T13:34:16Z</time>
      </trkpt>
      <trkpt lat="43.72364" lon="3.32841">
        <ele>242.5</ele>
        <time>2026-05-18T13:34:21Z</time>
      </trkpt>
      <trkpt lat="43.72364" lon="3.32833">
        <ele>240.5</ele>
        <time>2026-05-18T13:34:26Z</time>
      </trkpt>
      <trkpt lat="43.72364" lon="3.32823">
        <ele>238.3</ele>
        <time>2026-05-18T13:34:31Z</time>
      </trkpt>
      <trkpt lat="43.72364" lon="3.32813">
        <ele>236.2</ele>
        <time>2026-05-18T13:34:36Z</time>
      </trkpt>
      <trkpt lat="43.72366" lon="3.32803">
        <ele>234.1</ele>
        <time>2026-05-18T13:34:41Z</time>
      </trkpt>
      <trkpt lat="43.72367" lon="3.32792">
        <ele>231.9</ele>
        <time>2026-05-18T13:34:46Z</time>
      </trkpt>
      <trkpt lat="43.72367" lon="3.32784">
        <ele>230.3</ele>
        <time>2026-05-18T13:34:51Z</time>
      </trkpt>
      <trkpt lat="43.72366" lon="3.32775">
        <ele>228.3</ele>
        <time>2026-05-18T13:34:56Z</time>
      </trkpt>
      <trkpt lat="43.72366" lon="3.32766">
        <ele>226.4</ele>
        <time>2026-05-18T13:35:01Z</time>
      </trkpt>
      <trkpt lat="43.72367" lon="3.32755">
        <ele>224.3</ele>
        <time>2026-05-18T13:35:06Z</time>
      </trkpt>
      <trkpt lat="43.72366" lon="3.32745">
        <ele>222.6</ele>
        <time>2026-05-18T13:35:11Z</time>
      </trkpt>
      <trkpt lat="43.72365" lon="3.32736">
        <ele>221.5</ele>
        <time>2026-05-18T13:35:16Z</time>
      </trkpt>
      <trkpt lat="43.72362" lon="3.32726">
        <ele>219.9</ele>
        <time>2026-05-18T13:35:21Z</time>
      </trkpt>
      <trkpt lat="43.7236" lon="3.32717">
        <ele>218.6</ele>
        <time>2026-05-18T13:35:26Z</time>
      </trkpt>
      <trkpt lat="43.72361" lon="3.32711">
        <ele>218.2</ele>
        <time>2026-05-18T13:35:31Z</time>
      </trkpt>
      <trkpt lat="43.72358" lon="3.32704">
        <ele>216.9</ele>
        <time>2026-05-18T13:35:36Z</time>
      </trkpt>
      <trkpt lat="43.72357" lon="3.32699">
        <ele>216.1</ele>
        <time>2026-05-18T13:35:41Z</time>
      </trkpt>
      <trkpt lat="43.72355" lon="3.32698">
        <ele>215.6</ele>
        <time>2026-05-18T13:35:46Z</time>
      </trkpt>
      <trkpt lat="43.72353" lon="3.32691">
        <ele>214.4</ele>
        <time>2026-05-18T13:35:51Z</time>
      </trkpt>
      <trkpt lat="43.72352" lon="3.32683">
        <ele>213.3</ele>
        <time>2026-05-18T13:35:56Z</time>
      </trkpt>
      <trkpt lat="43.7235" lon="3.32677">
        <ele>212.2</ele>
        <time>2026-05-18T13:36:01Z</time>
      </trkpt>
      <trkpt lat="43.72346" lon="3.32671">
        <ele>210.6</ele>
        <time>2026-05-18T13:36:06Z</time>
      </trkpt>
      <trkpt lat="43.72345" lon="3.32662">
        <ele>209.3</ele>
        <time>2026-05-18T13:36:11Z</time>
      </trkpt>
      <trkpt lat="43.72346" lon="3.32655">
        <ele>208.7</ele>
        <time>2026-05-18T13:36:16Z</time>
      </trkpt>
      <trkpt lat="43.72348" lon="3.32649">
        <ele>208.4</ele>
        <time>2026-05-18T13:36:21Z</time>
      </trkpt>
      <trkpt lat="43.72352" lon="3.32644">
        <ele>208.7</ele>
        <time>2026-05-18T13:36:26Z</time>
      </trkpt>
      <trkpt lat="43.72358" lon="3.3264">
        <ele>209.6</ele>
        <time>2026-05-18T13:36:31Z</time>
      </trkpt>
      <trkpt lat="43.72362" lon="3.32637">
        <ele>210.2</ele>
        <time>2026-05-18T13:36:36Z</time>
      </trkpt>
      <trkpt lat="43.72368" lon="3.32635">
        <ele>211.3</ele>
        <time>2026-05-18T13:36:41Z</time>
      </trkpt>
      <trkpt lat="43.72376" lon="3.32633">
        <ele>212.9</ele>
        <time>2026-05-18T13:36:46Z</time>
      </trkpt>
      <trkpt lat="43.7238" lon="3.3263">
        <ele>213.4</ele>
        <time>2026-05-18T13:36:51Z</time>
      </trkpt>
      <trkpt lat="43.72386" lon="3.3263">
        <ele>214.8</ele>
        <time>2026-05-18T13:36:56Z</time>
      </trkpt>
      <trkpt lat="43.72391" lon="3.32627">
        <ele>215.5</ele>
        <time>2026-05-18T13:37:01Z</time>
      </trkpt>
      <trkpt lat="43.72396" lon="3.32624">
        <ele>216.1</ele>
        <time>2026-05-18T13:37:06Z</time>
      </trkpt>
      <trkpt lat="43.72401" lon="3.32622">
        <ele>217</ele>
        <time>2026-05-18T13:37:11Z</time>
      </trkpt>
      <trkpt lat="43.72407" lon="3.32621">
        <ele>218.1</ele>
        <time>2026-05-18T13:37:16Z</time>
      </trkpt>
      <trkpt lat="43.7241" lon="3.32618">
        <ele>218.3</ele>
        <time>2026-05-18T13:37:21Z</time>
      </trkpt>
      <trkpt lat="43.72414" lon="3.32616">
        <ele>218.9</ele>
        <time>2026-05-18T13:37:26Z</time>
      </trkpt>
      <trkpt lat="43.72419" lon="3.32613">
        <ele>219.4</ele>
        <time>2026-05-18T13:37:31Z</time>
      </trkpt>
      <trkpt lat="43.72425" lon="3.3261">
        <ele>219.9</ele>
        <time>2026-05-18T13:37:36Z</time>
      </trkpt>
      <trkpt lat="43.72431" lon="3.3261">
        <ele>220.9</ele>
        <time>2026-05-18T13:37:41Z</time>
      </trkpt>
      <trkpt lat="43.72438" lon="3.32609">
        <ele>221.9</ele>
        <time>2026-05-18T13:37:46Z</time>
      </trkpt>
      <trkpt lat="43.72444" lon="3.32605">
        <ele>222</ele>
        <time>2026-05-18T13:37:51Z</time>
      </trkpt>
      <trkpt lat="43.72447" lon="3.32602">
        <ele>221.8</ele>
        <time>2026-05-18T13:37:56Z</time>
      </trkpt>
      <trkpt lat="43.72451" lon="3.32599">
        <ele>221.8</ele>
        <time>2026-05-18T13:38:01Z</time>
      </trkpt>
      <trkpt lat="43.72456" lon="3.32597">
        <ele>222</ele>
        <time>2026-05-18T13:38:06Z</time>
      </trkpt>
      <trkpt lat="43.7246" lon="3.32599">
        <ele>223.1</ele>
        <time>2026-05-18T13:38:11Z</time>
      </trkpt>
      <trkpt lat="43.72467" lon="3.32597">
        <ele>223.6</ele>
        <time>2026-05-18T13:38:16Z</time>
      </trkpt>
      <trkpt lat="43.72474" lon="3.32596">
        <ele>224.4</ele>
        <time>2026-05-18T13:38:21Z</time>
      </trkpt>
      <trkpt lat="43.7248" lon="3.32597">
        <ele>225.5</ele>
        <time>2026-05-18T13:38:26Z</time>
      </trkpt>
      <trkpt lat="43.72486" lon="3.32598">
        <ele>226.7</ele>
        <time>2026-05-18T13:38:31Z</time>
      </trkpt>
      <trkpt lat="43.72491" lon="3.32601">
        <ele>228.3</ele>
        <time>2026-05-18T13:38:36Z</time>
      </trkpt>
      <trkpt lat="43.72495" lon="3.32601">
        <ele>229</ele>
        <time>2026-05-18T13:38:41Z</time>
      </trkpt>
      <trkpt lat="43.72502" lon="3.32601">
        <ele>229.8</ele>
        <time>2026-05-18T13:38:46Z</time>
      </trkpt>
      <trkpt lat="43.72506" lon="3.32598">
        <ele>228.9</ele>
        <time>2026-05-18T13:38:51Z</time>
      </trkpt>
      <trkpt lat="43.72512" lon="3.32598">
        <ele>229</ele>
        <time>2026-05-18T13:38:56Z</time>
      </trkpt>
      <trkpt lat="43.72517" lon="3.326">
        <ele>229.7</ele>
        <time>2026-05-18T13:39:01Z</time>
      </trkpt>
      <trkpt lat="43.72523" lon="3.326">
        <ele>229.8</ele>
        <time>2026-05-18T13:39:06Z</time>
      </trkpt>
      <trkpt lat="43.72528" lon="3.32593">
        <ele>227.6</ele>
        <time>2026-05-18T13:39:11Z</time>
      </trkpt>
      <trkpt lat="43.72534" lon="3.32584">
        <ele>224.6</ele>
        <time>2026-05-18T13:39:16Z</time>
      </trkpt>
      <trkpt lat="43.72537" lon="3.32581">
        <ele>223.6</ele>
        <time>2026-05-18T13:39:21Z</time>
      </trkpt>
      <trkpt lat="43.72539" lon="3.32575">
        <ele>221.4</ele>
        <time>2026-05-18T13:39:26Z</time>
      </trkpt>
      <trkpt lat="43.72541" lon="3.3257">
        <ele>219.5</ele>
        <time>2026-05-18T13:39:31Z</time>
      </trkpt>
      <trkpt lat="43.72542" lon="3.32566">
        <ele>218.1</ele>
        <time>2026-05-18T13:39:36Z</time>
      </trkpt>
      <trkpt lat="43.72544" lon="3.32562">
        <ele>216.6</ele>
        <time>2026-05-18T13:39:41Z</time>
      </trkpt>
      <trkpt lat="43.72546" lon="3.32558">
        <ele>215.1</ele>
        <time>2026-05-18T13:39:46Z</time>
      </trkpt>
      <trkpt lat="43.7255" lon="3.32556">
        <ele>214.4</ele>
        <time>2026-05-18T13:39:51Z</time>
      </trkpt>
      <trkpt lat="43.72554" lon="3.32557">
        <ele>214.8</ele>
        <time>2026-05-18T13:39:56Z</time>
      </trkpt>
      <trkpt lat="43.72559" lon="3.32559">
        <ele>215.5</ele>
        <time>2026-05-18T13:40:01Z</time>
      </trkpt>
      <trkpt lat="43.72565" lon="3.32562">
        <ele>216.7</ele>
        <time>2026-05-18T13:40:06Z</time>
      </trkpt>
      <trkpt lat="43.7257" lon="3.32564">
        <ele>217.5</ele>
        <time>2026-05-18T13:40:11Z</time>
      </trkpt>
      <trkpt lat="43.72575" lon="3.32562">
        <ele>216.8</ele>
        <time>2026-05-18T13:40:16Z</time>
      </trkpt>
      <trkpt lat="43.7258" lon="3.32559">
        <ele>215.6</ele>
        <time>2026-05-18T13:40:21Z</time>
      </trkpt>
      <trkpt lat="43.72582" lon="3.32559">
        <ele>215.6</ele>
        <time>2026-05-18T13:40:26Z</time>
      </trkpt>
      <trkpt lat="43.72582" lon="3.32559">
        <ele>215.6</ele>
        <time>2026-05-18T13:40:31Z</time>
      </trkpt>
      <trkpt lat="43.72582" lon="3.32559">
        <ele>215.6</ele>
        <time>2026-05-18T13:40:36Z</time>
      </trkpt>
      <trkpt lat="43.72582" lon="3.32559">
        <ele>215.6</ele>
        <time>2026-05-18T13:40:41Z</time>
      </trkpt>
      <trkpt lat="43.7259" lon="3.32555">
        <ele>213.9</ele>
        <time>2026-05-18T13:40:46Z</time>
      </trkpt>
      <trkpt lat="43.72593" lon="3.32549">
        <ele>211.4</ele>
        <time>2026-05-18T13:40:51Z</time>
      </trkpt>
      <trkpt lat="43.72597" lon="3.32545">
        <ele>209.7</ele>
        <time>2026-05-18T13:40:56Z</time>
      </trkpt>
      <trkpt lat="43.72601" lon="3.32541">
        <ele>208</ele>
        <time>2026-05-18T13:41:01Z</time>
      </trkpt>
      <trkpt lat="43.72605" lon="3.32536">
        <ele>205.9</ele>
        <time>2026-05-18T13:41:06Z</time>
      </trkpt>
      <trkpt lat="43.72611" lon="3.32531">
        <ele>203.6</ele>
        <time>2026-05-18T13:41:11Z</time>
      </trkpt>
      <trkpt lat="43.72617" lon="3.32528">
        <ele>202.1</ele>
        <time>2026-05-18T13:41:16Z</time>
      </trkpt>
      <trkpt lat="43.72621" lon="3.32527">
        <ele>201.5</ele>
        <time>2026-05-18T13:41:21Z</time>
      </trkpt>
      <trkpt lat="43.72623" lon="3.32525">
        <ele>200.6</ele>
        <time>2026-05-18T13:41:26Z</time>
      </trkpt>
      <trkpt lat="43.72626" lon="3.32522">
        <ele>199.3</ele>
        <time>2026-05-18T13:41:31Z</time>
      </trkpt>
      <trkpt lat="43.72626" lon="3.32521">
        <ele>198.9</ele>
        <time>2026-05-18T13:41:36Z</time>
      </trkpt>
      <trkpt lat="43.72626" lon="3.32521">
        <ele>198.9</ele>
        <time>2026-05-18T13:41:41Z</time>
      </trkpt>
      <trkpt lat="43.72626" lon="3.32521">
        <ele>198.9</ele>
        <time>2026-05-18T13:41:46Z</time>
      </trkpt>
      <trkpt lat="43.72626" lon="3.32521">
        <ele>198.9</ele>
        <time>2026-05-18T13:41:51Z</time>
      </trkpt>
      <trkpt lat="43.72626" lon="3.32521">
        <ele>198.9</ele>
        <time>2026-05-18T13:41:56Z</time>
      </trkpt>
      <trkpt lat="43.72626" lon="3.32521">
        <ele>198.9</ele>
        <time>2026-05-18T13:42:01Z</time>
      </trkpt>
      <trkpt lat="43.72626" lon="3.32521">
        <ele>198.9</ele>
        <time>2026-05-18T13:42:06Z</time>
      </trkpt>
      <trkpt lat="43.72636" lon="3.3252">
        <ele>198</ele>
        <time>2026-05-18T13:42:11Z</time>
      </trkpt>
      <trkpt lat="43.72639" lon="3.32518">
        <ele>197</ele>
        <time>2026-05-18T13:42:16Z</time>
      </trkpt>
      <trkpt lat="43.72643" lon="3.32515">
        <ele>195.6</ele>
        <time>2026-05-18T13:42:21Z</time>
      </trkpt>
      <trkpt lat="43.72648" lon="3.32511">
        <ele>193.7</ele>
        <time>2026-05-18T13:42:26Z</time>
      </trkpt>
      <trkpt lat="43.72653" lon="3.32507">
        <ele>191.7</ele>
        <time>2026-05-18T13:42:31Z</time>
      </trkpt>
      <trkpt lat="43.72655" lon="3.32502">
        <ele>189.5</ele>
        <time>2026-05-18T13:42:36Z</time>
      </trkpt>
      <trkpt lat="43.72659" lon="3.32495">
        <ele>187.4</ele>
        <time>2026-05-18T13:42:41Z</time>
      </trkpt>
      <trkpt lat="43.72663" lon="3.3249">
        <ele>186.2</ele>
        <time>2026-05-18T13:42:46Z</time>
      </trkpt>
      <trkpt lat="43.72665" lon="3.32486">
        <ele>185.2</ele>
        <time>2026-05-18T13:42:51Z</time>
      </trkpt>
      <trkpt lat="43.72665" lon="3.32484">
        <ele>184.8</ele>
        <time>2026-05-18T13:42:56Z</time>
      </trkpt>
      <trkpt lat="43.72665" lon="3.32484">
        <ele>184.8</ele>
        <time>2026-05-18T13:43:01Z</time>
      </trkpt>
      <trkpt lat="43.72667" lon="3.32481">
        <ele>184.2</ele>
        <time>2026-05-18T13:43:06Z</time>
      </trkpt>
      <trkpt lat="43.72671" lon="3.32481">
        <ele>184.6</ele>
        <time>2026-05-18T13:43:11Z</time>
      </trkpt>
      <trkpt lat="43.72671" lon="3.3248">
        <ele>184.4</ele>
        <time>2026-05-18T13:43:16Z</time>
      </trkpt>
      <trkpt lat="43.72675" lon="3.32472">
        <ele>183.1</ele>
        <time>2026-05-18T13:43:21Z</time>
      </trkpt>
      <trkpt lat="43.7268" lon="3.32469">
        <ele>182.9</ele>
        <time>2026-05-18T13:43:26Z</time>
      </trkpt>
      <trkpt lat="43.72689" lon="3.32466">
        <ele>183</ele>
        <time>2026-05-18T13:43:31Z</time>
      </trkpt>
      <trkpt lat="43.72698" lon="3.32463">
        <ele>183.1</ele>
        <time>2026-05-18T13:43:36Z</time>
      </trkpt>
      <trkpt lat="43.727" lon="3.32457">
        <ele>181.8</ele>
        <time>2026-05-18T13:43:41Z</time>
      </trkpt>
      <trkpt lat="43.727" lon="3.32457">
        <ele>181.8</ele>
        <time>2026-05-18T13:43:46Z</time>
      </trkpt>
      <trkpt lat="43.727" lon="3.32457">
        <ele>181.8</ele>
        <time>2026-05-18T13:43:51Z</time>
      </trkpt>
      <trkpt lat="43.727" lon="3.32457">
        <ele>181.8</ele>
        <time>2026-05-18T13:43:56Z</time>
      </trkpt>
      <trkpt lat="43.727" lon="3.32457">
        <ele>181.8</ele>
        <time>2026-05-18T13:44:01Z</time>
      </trkpt>
      <trkpt lat="43.72705" lon="3.3245">
        <ele>180.4</ele>
        <time>2026-05-18T13:44:06Z</time>
      </trkpt>
      <trkpt lat="43.72709" lon="3.32452">
        <ele>181.2</ele>
        <time>2026-05-18T13:44:11Z</time>
      </trkpt>
      <trkpt lat="43.72714" lon="3.32453">
        <ele>181.8</ele>
        <time>2026-05-18T13:44:16Z</time>
      </trkpt>
      <trkpt lat="43.72723" lon="3.32454">
        <ele>182.7</ele>
        <time>2026-05-18T13:44:21Z</time>
      </trkpt>
      <trkpt lat="43.7273" lon="3.32458">
        <ele>184.3</ele>
        <time>2026-05-18T13:44:26Z</time>
      </trkpt>
      <trkpt lat="43.72733" lon="3.32458">
        <ele>184.6</ele>
        <time>2026-05-18T13:44:31Z</time>
      </trkpt>
      <trkpt lat="43.72738" lon="3.32456">
        <ele>184.4</ele>
        <time>2026-05-18T13:44:36Z</time>
      </trkpt>
      <trkpt lat="43.72745" lon="3.32456">
        <ele>184.9</ele>
        <time>2026-05-18T13:44:41Z</time>
      </trkpt>
      <trkpt lat="43.7275" lon="3.32456">
        <ele>185.3</ele>
        <time>2026-05-18T13:44:46Z</time>
      </trkpt>
      <trkpt lat="43.72755" lon="3.32462">
        <ele>186.8</ele>
        <time>2026-05-18T13:44:51Z</time>
      </trkpt>
      <trkpt lat="43.72759" lon="3.32469">
        <ele>188.7</ele>
        <time>2026-05-18T13:44:56Z</time>
      </trkpt>
      <trkpt lat="43.72766" lon="3.32471">
        <ele>188.9</ele>
        <time>2026-05-18T13:45:01Z</time>
      </trkpt>
      <trkpt lat="43.72776" lon="3.32474">
        <ele>189.2</ele>
        <time>2026-05-18T13:45:06Z</time>
      </trkpt>
      <trkpt lat="43.72784" lon="3.32478">
        <ele>190</ele>
        <time>2026-05-18T13:45:11Z</time>
      </trkpt>
      <trkpt lat="43.72791" lon="3.32483">
        <ele>191.1</ele>
        <time>2026-05-18T13:45:16Z</time>
      </trkpt>
      <trkpt lat="43.72798" lon="3.32486">
        <ele>191.7</ele>
        <time>2026-05-18T13:45:21Z</time>
      </trkpt>
      <trkpt lat="43.72805" lon="3.32487">
        <ele>191.5</ele>
        <time>2026-05-18T13:45:26Z</time>
      </trkpt>
      <trkpt lat="43.72811" lon="3.32487">
        <ele>191.2</ele>
        <time>2026-05-18T13:45:31Z</time>
      </trkpt>
      <trkpt lat="43.72811" lon="3.32487">
        <ele>191.2</ele>
        <time>2026-05-18T13:45:36Z</time>
      </trkpt>
      <trkpt lat="43.72811" lon="3.32484">
        <ele>190.2</ele>
        <time>2026-05-18T13:45:41Z</time>
      </trkpt>
      <trkpt lat="43.72811" lon="3.32484">
        <ele>190.2</ele>
        <time>2026-05-18T13:45:46Z</time>
      </trkpt>
      <trkpt lat="43.72811" lon="3.32484">
        <ele>190.2</ele>
        <time>2026-05-18T13:45:51Z</time>
      </trkpt>
      <trkpt lat="43.72811" lon="3.32484">
        <ele>190.2</ele>
        <time>2026-05-18T13:45:56Z</time>
      </trkpt>
      <trkpt lat="43.72811" lon="3.32484">
        <ele>190.2</ele>
        <time>2026-05-18T13:46:01Z</time>
      </trkpt>
      <trkpt lat="43.72811" lon="3.32484">
        <ele>190.2</ele>
        <time>2026-05-18T13:46:06Z</time>
      </trkpt>
      <trkpt lat="43.72816" lon="3.32482">
        <ele>189.3</ele>
        <time>2026-05-18T13:46:11Z</time>
      </trkpt>
      <trkpt lat="43.72821" lon="3.32486">
        <ele>190.2</ele>
        <time>2026-05-18T13:46:16Z</time>
      </trkpt>
      <trkpt lat="43.7283" lon="3.32495">
        <ele>192.6</ele>
        <time>2026-05-18T13:46:21Z</time>
      </trkpt>
      <trkpt lat="43.72834" lon="3.32496">
        <ele>192.6</ele>
        <time>2026-05-18T13:46:26Z</time>
      </trkpt>
      <trkpt lat="43.72838" lon="3.32495">
        <ele>191.8</ele>
        <time>2026-05-18T13:46:31Z</time>
      </trkpt>
      <trkpt lat="43.72845" lon="3.32495">
        <ele>190.9</ele>
        <time>2026-05-18T13:46:36Z</time>
      </trkpt>
      <trkpt lat="43.7285" lon="3.32497">
        <ele>190.9</ele>
        <time>2026-05-18T13:46:41Z</time>
      </trkpt>
      <trkpt lat="43.72858" lon="3.32499">
        <ele>190.5</ele>
        <time>2026-05-18T13:46:46Z</time>
      </trkpt>
      <trkpt lat="43.72864" lon="3.32501">
        <ele>190.5</ele>
        <time>2026-05-18T13:46:51Z</time>
      </trkpt>
      <trkpt lat="43.72868" lon="3.32502">
        <ele>190.5</ele>
        <time>2026-05-18T13:46:56Z</time>
      </trkpt>
      <trkpt lat="43.7287" lon="3.32501">
        <ele>189.7</ele>
        <time>2026-05-18T13:47:01Z</time>
      </trkpt>
      <trkpt lat="43.72871" lon="3.32502">
        <ele>190.1</ele>
        <time>2026-05-18T13:47:06Z</time>
      </trkpt>
      <trkpt lat="43.72871" lon="3.32502">
        <ele>190.1</ele>
        <time>2026-05-18T13:47:11Z</time>
      </trkpt>
      <trkpt lat="43.72871" lon="3.32502">
        <ele>190.1</ele>
        <time>2026-05-18T13:47:16Z</time>
      </trkpt>
      <trkpt lat="43.72871" lon="3.32502">
        <ele>190.1</ele>
        <time>2026-05-18T13:47:21Z</time>
      </trkpt>
      <trkpt lat="43.72871" lon="3.32502">
        <ele>190.1</ele>
        <time>2026-05-18T13:47:26Z</time>
      </trkpt>
      <trkpt lat="43.72871" lon="3.32502">
        <ele>190.1</ele>
        <time>2026-05-18T13:47:31Z</time>
      </trkpt>
      <trkpt lat="43.72871" lon="3.32502">
        <ele>190.1</ele>
        <time>2026-05-18T13:47:36Z</time>
      </trkpt>
      <trkpt lat="43.72871" lon="3.32502">
        <ele>190.1</ele>
        <time>2026-05-18T13:47:41Z</time>
      </trkpt>
      <trkpt lat="43.72871" lon="3.32502">
        <ele>190.1</ele>
        <time>2026-05-18T13:47:46Z</time>
      </trkpt>
      <trkpt lat="43.72871" lon="3.32502">
        <ele>190.1</ele>
        <time>2026-05-18T13:47:51Z</time>
      </trkpt>
      <trkpt lat="43.72871" lon="3.32502">
        <ele>190.1</ele>
        <time>2026-05-18T13:47:56Z</time>
      </trkpt>
      <trkpt lat="43.72871" lon="3.32502">
        <ele>190.1</ele>
        <time>2026-05-18T13:48:01Z</time>
      </trkpt>
      <trkpt lat="43.72871" lon="3.32502">
        <ele>190.1</ele>
        <time>2026-05-18T13:48:06Z</time>
      </trkpt>
      <trkpt lat="43.72871" lon="3.32502">
        <ele>190.1</ele>
        <time>2026-05-18T13:48:11Z</time>
      </trkpt>
      <trkpt lat="43.72871" lon="3.32502">
        <ele>190.1</ele>
        <time>2026-05-18T13:48:16Z</time>
      </trkpt>
      <trkpt lat="43.72871" lon="3.32502">
        <ele>190.1</ele>
        <time>2026-05-18T13:48:21Z</time>
      </trkpt>
      <trkpt lat="43.72871" lon="3.32502">
        <ele>190.1</ele>
        <time>2026-05-18T13:48:26Z</time>
      </trkpt>
      <trkpt lat="43.72871" lon="3.32502">
        <ele>190.1</ele>
        <time>2026-05-18T13:48:31Z</time>
      </trkpt>
      <trkpt lat="43.7288" lon="3.32501">
        <ele>188.4</ele>
        <time>2026-05-18T13:48:36Z</time>
      </trkpt>
      <trkpt lat="43.72887" lon="3.32503">
        <ele>188.5</ele>
        <time>2026-05-18T13:48:41Z</time>
      </trkpt>
      <trkpt lat="43.72896" lon="3.32505">
        <ele>188.4</ele>
        <time>2026-05-18T13:48:46Z</time>
      </trkpt>
      <trkpt lat="43.72897" lon="3.32508">
        <ele>189.8</ele>
        <time>2026-05-18T13:48:51Z</time>
      </trkpt>
      <trkpt lat="43.72899" lon="3.32508">
        <ele>189.6</ele>
        <time>2026-05-18T13:48:56Z</time>
      </trkpt>
      <trkpt lat="43.72906" lon="3.32511">
        <ele>190.2</ele>
        <time>2026-05-18T13:49:01Z</time>
      </trkpt>
      <trkpt lat="43.72913" lon="3.32511">
        <ele>189.3</ele>
        <time>2026-05-18T13:49:06Z</time>
      </trkpt>
      <trkpt lat="43.72922" lon="3.32508">
        <ele>186.3</ele>
        <time>2026-05-18T13:49:11Z</time>
      </trkpt>
      <trkpt lat="43.72929" lon="3.32501">
        <ele>181.4</ele>
        <time>2026-05-18T13:49:16Z</time>
      </trkpt>
      <trkpt lat="43.72936" lon="3.32497">
        <ele>179.2</ele>
        <time>2026-05-18T13:49:21Z</time>
      </trkpt>
      <trkpt lat="43.7294" lon="3.32492">
        <ele>177.6</ele>
        <time>2026-05-18T13:49:26Z</time>
      </trkpt>
      <trkpt lat="43.72945" lon="3.32486">
        <ele>175.7</ele>
        <time>2026-05-18T13:49:31Z</time>
      </trkpt>
      <trkpt lat="43.72948" lon="3.32479">
        <ele>174.1</ele>
        <time>2026-05-18T13:49:36Z</time>
      </trkpt>
      <trkpt lat="43.72952" lon="3.32474">
        <ele>172.6</ele>
        <time>2026-05-18T13:49:41Z</time>
      </trkpt>
      <trkpt lat="43.72957" lon="3.32469">
        <ele>171.1</ele>
        <time>2026-05-18T13:49:46Z</time>
      </trkpt>
      <trkpt lat="43.72962" lon="3.32463">
        <ele>169.6</ele>
        <time>2026-05-18T13:49:51Z</time>
      </trkpt>
      <trkpt lat="43.72966" lon="3.32458">
        <ele>168.3</ele>
        <time>2026-05-18T13:49:56Z</time>
      </trkpt>
      <trkpt lat="43.72971" lon="3.32454">
        <ele>167.2</ele>
        <time>2026-05-18T13:50:01Z</time>
      </trkpt>
      <trkpt lat="43.72976" lon="3.3245">
        <ele>166.1</ele>
        <time>2026-05-18T13:50:06Z</time>
      </trkpt>
      <trkpt lat="43.7298" lon="3.32444">
        <ele>164.9</ele>
        <time>2026-05-18T13:50:11Z</time>
      </trkpt>
      <trkpt lat="43.72985" lon="3.32439">
        <ele>163.7</ele>
        <time>2026-05-18T13:50:16Z</time>
      </trkpt>
      <trkpt lat="43.7299" lon="3.32432">
        <ele>162.5</ele>
        <time>2026-05-18T13:50:21Z</time>
      </trkpt>
      <trkpt lat="43.72996" lon="3.32429">
        <ele>161.6</ele>
        <time>2026-05-18T13:50:26Z</time>
      </trkpt>
      <trkpt lat="43.73001" lon="3.32426">
        <ele>161</ele>
        <time>2026-05-18T13:50:31Z</time>
      </trkpt>
      <trkpt lat="43.73009" lon="3.32426">
        <ele>161</ele>
        <time>2026-05-18T13:50:36Z</time>
      </trkpt>
      <trkpt lat="43.73015" lon="3.32422">
        <ele>160.6</ele>
        <time>2026-05-18T13:50:41Z</time>
      </trkpt>
      <trkpt lat="43.73021" lon="3.32418">
        <ele>160.1</ele>
        <time>2026-05-18T13:50:46Z</time>
      </trkpt>
      <trkpt lat="43.73026" lon="3.32416">
        <ele>160</ele>
        <time>2026-05-18T13:50:51Z</time>
      </trkpt>
      <trkpt lat="43.73034" lon="3.32414">
        <ele>160.2</ele>
        <time>2026-05-18T13:50:56Z</time>
      </trkpt>
      <trkpt lat="43.73042" lon="3.32413">
        <ele>160.2</ele>
        <time>2026-05-18T13:51:01Z</time>
      </trkpt>
      <trkpt lat="43.73047" lon="3.3241">
        <ele>160.3</ele>
        <time>2026-05-18T13:51:06Z</time>
      </trkpt>
      <trkpt lat="43.73053" lon="3.32405">
        <ele>160.4</ele>
        <time>2026-05-18T13:51:11Z</time>
      </trkpt>
      <trkpt lat="43.73058" lon="3.32403">
        <ele>160.4</ele>
        <time>2026-05-18T13:51:16Z</time>
      </trkpt>
      <trkpt lat="43.73066" lon="3.32403">
        <ele>160.3</ele>
        <time>2026-05-18T13:51:21Z</time>
      </trkpt>
      <trkpt lat="43.73074" lon="3.32398">
        <ele>160.2</ele>
        <time>2026-05-18T13:51:26Z</time>
      </trkpt>
      <trkpt lat="43.7308" lon="3.32397">
        <ele>160.1</ele>
        <time>2026-05-18T13:51:31Z</time>
      </trkpt>
      <trkpt lat="43.73085" lon="3.324">
        <ele>160.1</ele>
        <time>2026-05-18T13:51:36Z</time>
      </trkpt>
      <trkpt lat="43.73094" lon="3.324">
        <ele>160.5</ele>
        <time>2026-05-18T13:51:41Z</time>
      </trkpt>
      <trkpt lat="43.73098" lon="3.32398">
        <ele>160.6</ele>
        <time>2026-05-18T13:51:46Z</time>
      </trkpt>
      <trkpt lat="43.73104" lon="3.32395">
        <ele>160.9</ele>
        <time>2026-05-18T13:51:51Z</time>
      </trkpt>
      <trkpt lat="43.73105" lon="3.3239">
        <ele>160.9</ele>
        <time>2026-05-18T13:51:56Z</time>
      </trkpt>
      <trkpt lat="43.73107" lon="3.32389">
        <ele>160.9</ele>
        <time>2026-05-18T13:52:01Z</time>
      </trkpt>
      <trkpt lat="43.73108" lon="3.32386">
        <ele>161</ele>
        <time>2026-05-18T13:52:06Z</time>
      </trkpt>
      <trkpt lat="43.73108" lon="3.32386">
        <ele>161</ele>
        <time>2026-05-18T13:52:11Z</time>
      </trkpt>
      <trkpt lat="43.73108" lon="3.32386">
        <ele>161</ele>
        <time>2026-05-18T13:52:16Z</time>
      </trkpt>
      <trkpt lat="43.73112" lon="3.32378">
        <ele>161.1</ele>
        <time>2026-05-18T13:52:21Z</time>
      </trkpt>
      <trkpt lat="43.73112" lon="3.32372">
        <ele>161</ele>
        <time>2026-05-18T13:52:26Z</time>
      </trkpt>
      <trkpt lat="43.7311" lon="3.32365">
        <ele>160.9</ele>
        <time>2026-05-18T13:52:31Z</time>
      </trkpt>
      <trkpt lat="43.73109" lon="3.32358">
        <ele>160.8</ele>
        <time>2026-05-18T13:52:36Z</time>
      </trkpt>
      <trkpt lat="43.73108" lon="3.32355">
        <ele>160.7</ele>
        <time>2026-05-18T13:52:41Z</time>
      </trkpt>
      <trkpt lat="43.73107" lon="3.32352">
        <ele>160.7</ele>
        <time>2026-05-18T13:52:46Z</time>
      </trkpt>
      <trkpt lat="43.73107" lon="3.32352">
        <ele>160.7</ele>
        <time>2026-05-18T13:52:51Z</time>
      </trkpt>
      <trkpt lat="43.73107" lon="3.32352">
        <ele>160.7</ele>
        <time>2026-05-18T13:52:56Z</time>
      </trkpt>
      <trkpt lat="43.73107" lon="3.32352">
        <ele>160.7</ele>
        <time>2026-05-18T13:53:01Z</time>
      </trkpt>
      <trkpt lat="43.73107" lon="3.32352">
        <ele>160.7</ele>
        <time>2026-05-18T13:53:06Z</time>
      </trkpt>
      <trkpt lat="43.73107" lon="3.32348">
        <ele>160.7</ele>
        <time>2026-05-18T13:53:11Z</time>
      </trkpt>
      <trkpt lat="43.7311" lon="3.32344">
        <ele>160.7</ele>
        <time>2026-05-18T13:53:16Z</time>
      </trkpt>
      <trkpt lat="43.73114" lon="3.32344">
        <ele>160.8</ele>
        <time>2026-05-18T13:53:21Z</time>
      </trkpt>
      <trkpt lat="43.73113" lon="3.32343">
        <ele>160.8</ele>
        <time>2026-05-18T13:53:26Z</time>
      </trkpt>
      <trkpt lat="43.73113" lon="3.32343">
        <ele>160.8</ele>
        <time>2026-05-18T13:53:31Z</time>
      </trkpt>
      <trkpt lat="43.73113" lon="3.32343">
        <ele>160.8</ele>
        <time>2026-05-18T13:53:36Z</time>
      </trkpt>
      <trkpt lat="43.73113" lon="3.32343">
        <ele>160.8</ele>
        <time>2026-05-18T13:53:41Z</time>
      </trkpt>
      <trkpt lat="43.73113" lon="3.32343">
        <ele>160.8</ele>
        <time>2026-05-18T13:53:46Z</time>
      </trkpt>
      <trkpt lat="43.73113" lon="3.3234">
        <ele>160.8</ele>
        <time>2026-05-18T13:53:51Z</time>
      </trkpt>
      <trkpt lat="43.73112" lon="3.32336">
        <ele>160.7</ele>
        <time>2026-05-18T13:53:56Z</time>
      </trkpt>
      <trkpt lat="43.73113" lon="3.32335">
        <ele>160.7</ele>
        <time>2026-05-18T13:54:01Z</time>
      </trkpt>
      <trkpt lat="43.73115" lon="3.32328">
        <ele>161</ele>
        <time>2026-05-18T13:54:06Z</time>
      </trkpt>
      <trkpt lat="43.7312" lon="3.32323">
        <ele>161.3</ele>
        <time>2026-05-18T13:54:11Z</time>
      </trkpt>
      <trkpt lat="43.73125" lon="3.32323">
        <ele>161.4</ele>
        <time>2026-05-18T13:54:16Z</time>
      </trkpt>
      <trkpt lat="43.7313" lon="3.3232">
        <ele>161.7</ele>
        <time>2026-05-18T13:54:21Z</time>
      </trkpt>
      <trkpt lat="43.73132" lon="3.3232">
        <ele>161.8</ele>
        <time>2026-05-18T13:54:26Z</time>
      </trkpt>
      <trkpt lat="43.73132" lon="3.3232">
        <ele>161.8</ele>
        <time>2026-05-18T13:54:31Z</time>
      </trkpt>
      <trkpt lat="43.73132" lon="3.3232">
        <ele>161.8</ele>
        <time>2026-05-18T13:54:36Z</time>
      </trkpt>
      <trkpt lat="43.73136" lon="3.32318">
        <ele>162</ele>
        <time>2026-05-18T13:54:41Z</time>
      </trkpt>
      <trkpt lat="43.73142" lon="3.32315">
        <ele>162.3</ele>
        <time>2026-05-18T13:54:46Z</time>
      </trkpt>
      <trkpt lat="43.73149" lon="3.32307">
        <ele>163</ele>
        <time>2026-05-18T13:54:51Z</time>
      </trkpt>
      <trkpt lat="43.73154" lon="3.32303">
        <ele>163.4</ele>
        <time>2026-05-18T13:54:56Z</time>
      </trkpt>
      <trkpt lat="43.73158" lon="3.32298">
        <ele>163.8</ele>
        <time>2026-05-18T13:55:01Z</time>
      </trkpt>
      <trkpt lat="43.7316" lon="3.32291">
        <ele>164.3</ele>
        <time>2026-05-18T13:55:06Z</time>
      </trkpt>
      <trkpt lat="43.73163" lon="3.32287">
        <ele>164.6</ele>
        <time>2026-05-18T13:55:11Z</time>
      </trkpt>
      <trkpt lat="43.73161" lon="3.32285">
        <ele>164.6</ele>
        <time>2026-05-18T13:55:16Z</time>
      </trkpt>
      <trkpt lat="43.7316" lon="3.32283">
        <ele>164.7</ele>
        <time>2026-05-18T13:55:21Z</time>
      </trkpt>
      <trkpt lat="43.7316" lon="3.32283">
        <ele>164.7</ele>
        <time>2026-05-18T13:55:26Z</time>
      </trkpt>
      <trkpt lat="43.73163" lon="3.32278">
        <ele>165.1</ele>
        <time>2026-05-18T13:55:31Z</time>
      </trkpt>
      <trkpt lat="43.73166" lon="3.32276">
        <ele>165.4</ele>
        <time>2026-05-18T13:55:36Z</time>
      </trkpt>
      <trkpt lat="43.73171" lon="3.32275">
        <ele>165.4</ele>
        <time>2026-05-18T13:55:41Z</time>
      </trkpt>
      <trkpt lat="43.73179" lon="3.32277">
        <ele>165</ele>
        <time>2026-05-18T13:55:46Z</time>
      </trkpt>
      <trkpt lat="43.73181" lon="3.32278">
        <ele>164.9</ele>
        <time>2026-05-18T13:55:51Z</time>
      </trkpt>
      <trkpt lat="43.73181" lon="3.32278">
        <ele>164.9</ele>
        <time>2026-05-18T13:55:56Z</time>
      </trkpt>
      <trkpt lat="43.73181" lon="3.32278">
        <ele>164.9</ele>
        <time>2026-05-18T13:56:01Z</time>
      </trkpt>
      <trkpt lat="43.73181" lon="3.32272">
        <ele>165.2</ele>
        <time>2026-05-18T13:56:06Z</time>
      </trkpt>
      <trkpt lat="43.73179" lon="3.32265">
        <ele>165.7</ele>
        <time>2026-05-18T13:56:11Z</time>
      </trkpt>
      <trkpt lat="43.73179" lon="3.32258">
        <ele>166.1</ele>
        <time>2026-05-18T13:56:16Z</time>
      </trkpt>
      <trkpt lat="43.73179" lon="3.3225">
        <ele>166.6</ele>
        <time>2026-05-18T13:56:21Z</time>
      </trkpt>
      <trkpt lat="43.73178" lon="3.32242">
        <ele>166.7</ele>
        <time>2026-05-18T13:56:26Z</time>
      </trkpt>
      <trkpt lat="43.73176" lon="3.32233">
        <ele>167</ele>
        <time>2026-05-18T13:56:31Z</time>
      </trkpt>
      <trkpt lat="43.73175" lon="3.32227">
        <ele>167.1</ele>
        <time>2026-05-18T13:56:36Z</time>
      </trkpt>
      <trkpt lat="43.73173" lon="3.32227">
        <ele>167.1</ele>
        <time>2026-05-18T13:56:41Z</time>
      </trkpt>
      <trkpt lat="43.73173" lon="3.32227">
        <ele>167.1</ele>
        <time>2026-05-18T13:56:46Z</time>
      </trkpt>
      <trkpt lat="43.73173" lon="3.32227">
        <ele>167.1</ele>
        <time>2026-05-18T13:56:51Z</time>
      </trkpt>
      <trkpt lat="43.73173" lon="3.32227">
        <ele>167.1</ele>
        <time>2026-05-18T13:56:56Z</time>
      </trkpt>
      <trkpt lat="43.73173" lon="3.32227">
        <ele>167.1</ele>
        <time>2026-05-18T13:57:01Z</time>
      </trkpt>
      <trkpt lat="43.73172" lon="3.32243">
        <ele>166.9</ele>
        <time>2026-05-18T13:57:06Z</time>
      </trkpt>
      <trkpt lat="43.73168" lon="3.32246">
        <ele>167</ele>
        <time>2026-05-18T13:57:11Z</time>
      </trkpt>
      <trkpt lat="43.73159" lon="3.3225">
        <ele>166.5</ele>
        <time>2026-05-18T13:57:16Z</time>
      </trkpt>
      <trkpt lat="43.73155" lon="3.3225">
        <ele>166.3</ele>
        <time>2026-05-18T13:57:21Z</time>
      </trkpt>
      <trkpt lat="43.73151" lon="3.32249">
        <ele>166.1</ele>
        <time>2026-05-18T13:57:26Z</time>
      </trkpt>
      <trkpt lat="43.73147" lon="3.32256">
        <ele>165.5</ele>
        <time>2026-05-18T13:57:31Z</time>
      </trkpt>
      <trkpt lat="43.73141" lon="3.32266">
        <ele>164.7</ele>
        <time>2026-05-18T13:57:36Z</time>
      </trkpt>
      <trkpt lat="43.73131" lon="3.32269">
        <ele>164</ele>
        <time>2026-05-18T13:57:41Z</time>
      </trkpt>
      <trkpt lat="43.73129" lon="3.32273">
        <ele>163.7</ele>
        <time>2026-05-18T13:57:46Z</time>
      </trkpt>
      <trkpt lat="43.73126" lon="3.32272">
        <ele>163.6</ele>
        <time>2026-05-18T13:57:51Z</time>
      </trkpt>
      <trkpt lat="43.73119" lon="3.32268">
        <ele>163.4</ele>
        <time>2026-05-18T13:57:56Z</time>
      </trkpt>
      <trkpt lat="43.73107" lon="3.32265">
        <ele>162.9</ele>
        <time>2026-05-18T13:58:01Z</time>
      </trkpt>
      <trkpt lat="43.73101" lon="3.32263">
        <ele>162.6</ele>
        <time>2026-05-18T13:58:06Z</time>
      </trkpt>
      <trkpt lat="43.731" lon="3.32258">
        <ele>162.8</ele>
        <time>2026-05-18T13:58:11Z</time>
      </trkpt>
      <trkpt lat="43.73098" lon="3.32251">
        <ele>162.8</ele>
        <time>2026-05-18T13:58:16Z</time>
      </trkpt>
      <trkpt lat="43.73098" lon="3.32244">
        <ele>163</ele>
        <time>2026-05-18T13:58:21Z</time>
      </trkpt>
      <trkpt lat="43.73098" lon="3.32244">
        <ele>163</ele>
        <time>2026-05-18T13:58:26Z</time>
      </trkpt>
      <trkpt lat="43.73098" lon="3.32244">
        <ele>163</ele>
        <time>2026-05-18T13:58:31Z</time>
      </trkpt>
      <trkpt lat="43.73099" lon="3.32243">
        <ele>163.1</ele>
        <time>2026-05-18T13:58:36Z</time>
      </trkpt>
      <trkpt lat="43.73099" lon="3.32243">
        <ele>163.1</ele>
        <time>2026-05-18T13:58:36Z</time>
      </trkpt>
      <trkpt lat="43.73119" lon="3.3223">
        <ele>164.5</ele>
        <time>2026-05-18T14:00:05Z</time>
      </trkpt>
      <trkpt lat="43.7311" lon="3.3223">
        <ele>164</ele>
        <time>2026-05-18T14:00:10Z</time>
      </trkpt>
      <trkpt lat="43.73106" lon="3.32221">
        <ele>164</ele>
        <time>2026-05-18T14:00:15Z</time>
      </trkpt>
      <trkpt lat="43.73103" lon="3.32213">
        <ele>164</ele>
        <time>2026-05-18T14:00:20Z</time>
      </trkpt>
      <trkpt lat="43.73102" lon="3.32206">
        <ele>164.1</ele>
        <time>2026-05-18T14:00:25Z</time>
      </trkpt>
      <trkpt lat="43.731" lon="3.32198">
        <ele>164.1</ele>
        <time>2026-05-18T14:00:30Z</time>
      </trkpt>
      <trkpt lat="43.73101" lon="3.3219">
        <ele>164.3</ele>
        <time>2026-05-18T14:00:35Z</time>
      </trkpt>
      <trkpt lat="43.731" lon="3.32182">
        <ele>164.5</ele>
        <time>2026-05-18T14:00:40Z</time>
      </trkpt>
      <trkpt lat="43.73098" lon="3.32175">
        <ele>164.5</ele>
        <time>2026-05-18T14:00:45Z</time>
      </trkpt>
      <trkpt lat="43.73097" lon="3.32169">
        <ele>164.6</ele>
        <time>2026-05-18T14:00:50Z</time>
      </trkpt>
      <trkpt lat="43.73097" lon="3.32165">
        <ele>164.7</ele>
        <time>2026-05-18T14:00:55Z</time>
      </trkpt>
      <trkpt lat="43.73098" lon="3.32159">
        <ele>165.1</ele>
        <time>2026-05-18T14:01:00Z</time>
      </trkpt>
      <trkpt lat="43.73097" lon="3.32146">
        <ele>165.6</ele>
        <time>2026-05-18T14:01:05Z</time>
      </trkpt>
      <trkpt lat="43.73096" lon="3.32141">
        <ele>165.8</ele>
        <time>2026-05-18T14:01:10Z</time>
      </trkpt>
      <trkpt lat="43.73097" lon="3.3214">
        <ele>165.9</ele>
        <time>2026-05-18T14:01:15Z</time>
      </trkpt>
      <trkpt lat="43.73099" lon="3.32136">
        <ele>166.2</ele>
        <time>2026-05-18T14:01:20Z</time>
      </trkpt>
      <trkpt lat="43.73102" lon="3.32136">
        <ele>166.3</ele>
        <time>2026-05-18T14:01:25Z</time>
      </trkpt>
      <trkpt lat="43.73107" lon="3.32137">
        <ele>166.5</ele>
        <time>2026-05-18T14:01:30Z</time>
      </trkpt>
      <trkpt lat="43.73109" lon="3.32137">
        <ele>166.5</ele>
        <time>2026-05-18T14:01:35Z</time>
      </trkpt>
      <trkpt lat="43.73109" lon="3.32137">
        <ele>166.5</ele>
        <time>2026-05-18T14:01:40Z</time>
      </trkpt>
      <trkpt lat="43.7311" lon="3.32141">
        <ele>166.4</ele>
        <time>2026-05-18T14:01:45Z</time>
      </trkpt>
      <trkpt lat="43.7311" lon="3.32142">
        <ele>166.4</ele>
        <time>2026-05-18T14:01:50Z</time>
      </trkpt>
      <trkpt lat="43.7311" lon="3.32142">
        <ele>166.4</ele>
        <time>2026-05-18T14:01:55Z</time>
      </trkpt>
      <trkpt lat="43.7311" lon="3.32142">
        <ele>166.4</ele>
        <time>2026-05-18T14:02:00Z</time>
      </trkpt>
      <trkpt lat="43.7311" lon="3.32142">
        <ele>166.4</ele>
        <time>2026-05-18T14:02:05Z</time>
      </trkpt>
      <trkpt lat="43.7311" lon="3.32142">
        <ele>166.4</ele>
        <time>2026-05-18T14:02:10Z</time>
      </trkpt>
      <trkpt lat="43.7311" lon="3.32142">
        <ele>166.4</ele>
        <time>2026-05-18T14:02:15Z</time>
      </trkpt>
      <trkpt lat="43.7311" lon="3.32142">
        <ele>166.4</ele>
        <time>2026-05-18T14:02:20Z</time>
      </trkpt>
      <trkpt lat="43.7311" lon="3.32142">
        <ele>166.4</ele>
        <time>2026-05-18T14:02:25Z</time>
      </trkpt>
      <trkpt lat="43.7311" lon="3.32142">
        <ele>166.4</ele>
        <time>2026-05-18T14:02:30Z</time>
      </trkpt>
      <trkpt lat="43.7311" lon="3.32142">
        <ele>166.4</ele>
        <time>2026-05-18T14:02:35Z</time>
      </trkpt>
      <trkpt lat="43.7311" lon="3.32142">
        <ele>166.4</ele>
        <time>2026-05-18T14:02:40Z</time>
      </trkpt>
      <trkpt lat="43.7311" lon="3.32142">
        <ele>166.4</ele>
        <time>2026-05-18T14:02:45Z</time>
      </trkpt>
      <trkpt lat="43.7311" lon="3.32142">
        <ele>166.4</ele>
        <time>2026-05-18T14:02:50Z</time>
      </trkpt>
      <trkpt lat="43.7311" lon="3.32142">
        <ele>166.4</ele>
        <time>2026-05-18T14:02:55Z</time>
      </trkpt>
      <trkpt lat="43.7311" lon="3.32142">
        <ele>166.4</ele>
        <time>2026-05-18T14:03:00Z</time>
      </trkpt>
      <trkpt lat="43.7311" lon="3.32142">
        <ele>166.4</ele>
        <time>2026-05-18T14:03:05Z</time>
      </trkpt>
      <trkpt lat="43.7311" lon="3.32142">
        <ele>166.4</ele>
        <time>2026-05-18T14:03:10Z</time>
      </trkpt>
      <trkpt lat="43.7311" lon="3.32142">
        <ele>166.4</ele>
        <time>2026-05-18T14:03:15Z</time>
      </trkpt>
      <trkpt lat="43.7311" lon="3.32142">
        <ele>166.4</ele>
        <time>2026-05-18T14:03:20Z</time>
      </trkpt>
      <trkpt lat="43.73105" lon="3.32137">
        <ele>166.4</ele>
        <time>2026-05-18T14:03:25Z</time>
      </trkpt>
      <trkpt lat="43.73101" lon="3.32135">
        <ele>166.3</ele>
        <time>2026-05-18T14:03:30Z</time>
      </trkpt>
      <trkpt lat="43.73098" lon="3.32134">
        <ele>166.2</ele>
        <time>2026-05-18T14:03:35Z</time>
      </trkpt>
      <trkpt lat="43.73096" lon="3.32131">
        <ele>166.3</ele>
        <time>2026-05-18T14:03:40Z</time>
      </trkpt>
      <trkpt lat="43.73096" lon="3.3213">
        <ele>166.3</ele>
        <time>2026-05-18T14:03:45Z</time>
      </trkpt>
      <trkpt lat="43.73096" lon="3.3213">
        <ele>166.3</ele>
        <time>2026-05-18T14:03:50Z</time>
      </trkpt>
      <trkpt lat="43.73096" lon="3.3213">
        <ele>166.3</ele>
        <time>2026-05-18T14:03:55Z</time>
      </trkpt>
      <trkpt lat="43.73096" lon="3.3213">
        <ele>166.3</ele>
        <time>2026-05-18T14:04:00Z</time>
      </trkpt>
      <trkpt lat="43.73096" lon="3.3213">
        <ele>166.3</ele>
        <time>2026-05-18T14:04:05Z</time>
      </trkpt>
      <trkpt lat="43.73096" lon="3.3213">
        <ele>166.3</ele>
        <time>2026-05-18T14:04:10Z</time>
      </trkpt>
      <trkpt lat="43.73096" lon="3.3213">
        <ele>166.3</ele>
        <time>2026-05-18T14:04:15Z</time>
      </trkpt>
      <trkpt lat="43.73091" lon="3.32137">
        <ele>165.8</ele>
        <time>2026-05-18T14:04:20Z</time>
      </trkpt>
      <trkpt lat="43.73091" lon="3.3214">
        <ele>165.6</ele>
        <time>2026-05-18T14:04:25Z</time>
      </trkpt>
      <trkpt lat="43.73091" lon="3.3214">
        <ele>165.6</ele>
        <time>2026-05-18T14:04:30Z</time>
      </trkpt>
      <trkpt lat="43.73088" lon="3.32142">
        <ele>165.4</ele>
        <time>2026-05-18T14:04:35Z</time>
      </trkpt>
      <trkpt lat="43.73084" lon="3.32141">
        <ele>165.3</ele>
        <time>2026-05-18T14:04:40Z</time>
      </trkpt>
      <trkpt lat="43.73081" lon="3.32139">
        <ele>165.4</ele>
        <time>2026-05-18T14:04:45Z</time>
      </trkpt>
      <trkpt lat="43.7308" lon="3.32137">
        <ele>165.6</ele>
        <time>2026-05-18T14:04:50Z</time>
      </trkpt>
      <trkpt lat="43.73076" lon="3.32133">
        <ele>165.9</ele>
        <time>2026-05-18T14:04:55Z</time>
      </trkpt>
      <trkpt lat="43.73072" lon="3.32135">
        <ele>166</ele>
        <time>2026-05-18T14:05:00Z</time>
      </trkpt>
      <trkpt lat="43.73064" lon="3.32144">
        <ele>166.1</ele>
        <time>2026-05-18T14:05:05Z</time>
      </trkpt>
      <trkpt lat="43.73056" lon="3.32153">
        <ele>166.4</ele>
        <time>2026-05-18T14:05:10Z</time>
      </trkpt>
      <trkpt lat="43.73053" lon="3.32159">
        <ele>166.6</ele>
        <time>2026-05-18T14:05:15Z</time>
      </trkpt>
      <trkpt lat="43.73049" lon="3.32167">
        <ele>166.9</ele>
        <time>2026-05-18T14:05:20Z</time>
      </trkpt>
      <trkpt lat="43.73044" lon="3.32178">
        <ele>167.4</ele>
        <time>2026-05-18T14:05:25Z</time>
      </trkpt>
      <trkpt lat="43.73042" lon="3.32184">
        <ele>167.6</ele>
        <time>2026-05-18T14:05:30Z</time>
      </trkpt>
      <trkpt lat="43.73038" lon="3.32189">
        <ele>168</ele>
        <time>2026-05-18T14:05:35Z</time>
      </trkpt>
      <trkpt lat="43.73035" lon="3.32191">
        <ele>168.3</ele>
        <time>2026-05-18T14:05:40Z</time>
      </trkpt>
      <trkpt lat="43.73032" lon="3.32196">
        <ele>168.7</ele>
        <time>2026-05-18T14:05:45Z</time>
      </trkpt>
      <trkpt lat="43.73023" lon="3.32204">
        <ele>169.8</ele>
        <time>2026-05-18T14:05:50Z</time>
      </trkpt>
      <trkpt lat="43.73023" lon="3.32213">
        <ele>170</ele>
        <time>2026-05-18T14:05:55Z</time>
      </trkpt>
      <trkpt lat="43.73023" lon="3.32214">
        <ele>170</ele>
        <time>2026-05-18T14:06:00Z</time>
      </trkpt>
      <trkpt lat="43.73023" lon="3.32215">
        <ele>170</ele>
        <time>2026-05-18T14:06:05Z</time>
      </trkpt>
      <trkpt lat="43.73023" lon="3.32215">
        <ele>170</ele>
        <time>2026-05-18T14:06:10Z</time>
      </trkpt>
      <trkpt lat="43.73023" lon="3.32215">
        <ele>170</ele>
        <time>2026-05-18T14:06:15Z</time>
      </trkpt>
      <trkpt lat="43.73013" lon="3.32223">
        <ele>171.4</ele>
        <time>2026-05-18T14:06:20Z</time>
      </trkpt>
      <trkpt lat="43.73006" lon="3.32225">
        <ele>172.3</ele>
        <time>2026-05-18T14:06:25Z</time>
      </trkpt>
      <trkpt lat="43.73002" lon="3.32229">
        <ele>173</ele>
        <time>2026-05-18T14:06:30Z</time>
      </trkpt>
      <trkpt lat="43.72996" lon="3.32234">
        <ele>174.6</ele>
        <time>2026-05-18T14:06:35Z</time>
      </trkpt>
      <trkpt lat="43.72991" lon="3.32239">
        <ele>176.2</ele>
        <time>2026-05-18T14:06:40Z</time>
      </trkpt>
      <trkpt lat="43.72986" lon="3.32243">
        <ele>177.8</ele>
        <time>2026-05-18T14:06:45Z</time>
      </trkpt>
      <trkpt lat="43.72981" lon="3.3225">
        <ele>179.2</ele>
        <time>2026-05-18T14:06:50Z</time>
      </trkpt>
      <trkpt lat="43.7298" lon="3.3226">
        <ele>178.4</ele>
        <time>2026-05-18T14:06:55Z</time>
      </trkpt>
      <trkpt lat="43.72984" lon="3.32268">
        <ele>176.5</ele>
        <time>2026-05-18T14:07:00Z</time>
      </trkpt>
      <trkpt lat="43.72985" lon="3.32275">
        <ele>175.5</ele>
        <time>2026-05-18T14:07:05Z</time>
      </trkpt>
      <trkpt lat="43.72987" lon="3.32284">
        <ele>174.2</ele>
        <time>2026-05-18T14:07:10Z</time>
      </trkpt>
      <trkpt lat="43.72986" lon="3.32294">
        <ele>173.4</ele>
        <time>2026-05-18T14:07:15Z</time>
      </trkpt>
      <trkpt lat="43.72984" lon="3.32304">
        <ele>172.7</ele>
        <time>2026-05-18T14:07:20Z</time>
      </trkpt>
      <trkpt lat="43.7298" lon="3.32313">
        <ele>172.3</ele>
        <time>2026-05-18T14:07:25Z</time>
      </trkpt>
      <trkpt lat="43.72973" lon="3.32319">
        <ele>172.5</ele>
        <time>2026-05-18T14:07:30Z</time>
      </trkpt>
      <trkpt lat="43.72966" lon="3.32326">
        <ele>172.3</ele>
        <time>2026-05-18T14:07:35Z</time>
      </trkpt>
      <trkpt lat="43.72959" lon="3.32332">
        <ele>172.2</ele>
        <time>2026-05-18T14:07:40Z</time>
      </trkpt>
      <trkpt lat="43.72955" lon="3.32336">
        <ele>172</ele>
        <time>2026-05-18T14:07:45Z</time>
      </trkpt>
      <trkpt lat="43.72952" lon="3.32338">
        <ele>172.1</ele>
        <time>2026-05-18T14:07:50Z</time>
      </trkpt>
      <trkpt lat="43.72947" lon="3.32342">
        <ele>172.1</ele>
        <time>2026-05-18T14:07:55Z</time>
      </trkpt>
      <trkpt lat="43.7294" lon="3.32347">
        <ele>172.1</ele>
        <time>2026-05-18T14:08:00Z</time>
      </trkpt>
      <trkpt lat="43.72934" lon="3.32352">
        <ele>172</ele>
        <time>2026-05-18T14:08:05Z</time>
      </trkpt>
      <trkpt lat="43.7293" lon="3.32357">
        <ele>171.7</ele>
        <time>2026-05-18T14:08:10Z</time>
      </trkpt>
      <trkpt lat="43.72925" lon="3.32361">
        <ele>171.6</ele>
        <time>2026-05-18T14:08:15Z</time>
      </trkpt>
      <trkpt lat="43.72921" lon="3.32364">
        <ele>171.6</ele>
        <time>2026-05-18T14:08:20Z</time>
      </trkpt>
      <trkpt lat="43.72919" lon="3.32368">
        <ele>171.2</ele>
        <time>2026-05-18T14:08:25Z</time>
      </trkpt>
      <trkpt lat="43.72913" lon="3.32371">
        <ele>170.8</ele>
        <time>2026-05-18T14:08:30Z</time>
      </trkpt>
      <trkpt lat="43.72905" lon="3.32376">
        <ele>169.6</ele>
        <time>2026-05-18T14:08:35Z</time>
      </trkpt>
      <trkpt lat="43.72898" lon="3.32379">
        <ele>168.9</ele>
        <time>2026-05-18T14:08:40Z</time>
      </trkpt>
      <trkpt lat="43.72891" lon="3.32382">
        <ele>168.3</ele>
        <time>2026-05-18T14:08:45Z</time>
      </trkpt>
      <trkpt lat="43.72884" lon="3.32384">
        <ele>167.8</ele>
        <time>2026-05-18T14:08:50Z</time>
      </trkpt>
      <trkpt lat="43.72876" lon="3.32386">
        <ele>167.3</ele>
        <time>2026-05-18T14:08:55Z</time>
      </trkpt>
      <trkpt lat="43.72869" lon="3.32387">
        <ele>167</ele>
        <time>2026-05-18T14:09:00Z</time>
      </trkpt>
      <trkpt lat="43.72861" lon="3.32381">
        <ele>166.8</ele>
        <time>2026-05-18T14:09:05Z</time>
      </trkpt>
      <trkpt lat="43.72853" lon="3.32387">
        <ele>166.4</ele>
        <time>2026-05-18T14:09:10Z</time>
      </trkpt>
      <trkpt lat="43.72848" lon="3.32393">
        <ele>166.3</ele>
        <time>2026-05-18T14:09:15Z</time>
      </trkpt>
      <trkpt lat="43.72846" lon="3.324">
        <ele>166.4</ele>
        <time>2026-05-18T14:09:20Z</time>
      </trkpt>
      <trkpt lat="43.72842" lon="3.32411">
        <ele>166.6</ele>
        <time>2026-05-18T14:09:25Z</time>
      </trkpt>
      <trkpt lat="43.72838" lon="3.32422">
        <ele>168.6</ele>
        <time>2026-05-18T14:09:30Z</time>
      </trkpt>
      <trkpt lat="43.72835" lon="3.32429">
        <ele>170.9</ele>
        <time>2026-05-18T14:09:35Z</time>
      </trkpt>
      <trkpt lat="43.72834" lon="3.3243">
        <ele>171.3</ele>
        <time>2026-05-18T14:09:40Z</time>
      </trkpt>
      <trkpt lat="43.72832" lon="3.32431">
        <ele>171.7</ele>
        <time>2026-05-18T14:09:45Z</time>
      </trkpt>
      <trkpt lat="43.72827" lon="3.32424">
        <ele>169.8</ele>
        <time>2026-05-18T14:09:50Z</time>
      </trkpt>
      <trkpt lat="43.72827" lon="3.32424">
        <ele>169.8</ele>
        <time>2026-05-18T14:09:55Z</time>
      </trkpt>
      <trkpt lat="43.72827" lon="3.32424">
        <ele>169.8</ele>
        <time>2026-05-18T14:10:00Z</time>
      </trkpt>
      <trkpt lat="43.72827" lon="3.32424">
        <ele>169.8</ele>
        <time>2026-05-18T14:10:05Z</time>
      </trkpt>
      <trkpt lat="43.72827" lon="3.32424">
        <ele>169.8</ele>
        <time>2026-05-18T14:10:10Z</time>
      </trkpt>
      <trkpt lat="43.72827" lon="3.32424">
        <ele>169.8</ele>
        <time>2026-05-18T14:10:15Z</time>
      </trkpt>
      <trkpt lat="43.72825" lon="3.32434">
        <ele>173.2</ele>
        <time>2026-05-18T14:10:20Z</time>
      </trkpt>
      <trkpt lat="43.72818" lon="3.32432">
        <ele>173</ele>
        <time>2026-05-18T14:10:25Z</time>
      </trkpt>
      <trkpt lat="43.72812" lon="3.32428">
        <ele>172.2</ele>
        <time>2026-05-18T14:10:30Z</time>
      </trkpt>
      <trkpt lat="43.72807" lon="3.32426">
        <ele>171.9</ele>
        <time>2026-05-18T14:10:35Z</time>
      </trkpt>
      <trkpt lat="43.72801" lon="3.32423">
        <ele>171.4</ele>
        <time>2026-05-18T14:10:40Z</time>
      </trkpt>
      <trkpt lat="43.72794" lon="3.3242">
        <ele>170.9</ele>
        <time>2026-05-18T14:10:45Z</time>
      </trkpt>
      <trkpt lat="43.72788" lon="3.32417">
        <ele>170.4</ele>
        <time>2026-05-18T14:10:50Z</time>
      </trkpt>
      <trkpt lat="43.72783" lon="3.32413">
        <ele>170.2</ele>
        <time>2026-05-18T14:10:55Z</time>
      </trkpt>
      <trkpt lat="43.72776" lon="3.32409">
        <ele>170.3</ele>
        <time>2026-05-18T14:11:00Z</time>
      </trkpt>
      <trkpt lat="43.7277" lon="3.32405">
        <ele>170.1</ele>
        <time>2026-05-18T14:11:05Z</time>
      </trkpt>
      <trkpt lat="43.72764" lon="3.32403">
        <ele>170.2</ele>
        <time>2026-05-18T14:11:10Z</time>
      </trkpt>
      <trkpt lat="43.72759" lon="3.32399">
        <ele>170</ele>
        <time>2026-05-18T14:11:15Z</time>
      </trkpt>
      <trkpt lat="43.72754" lon="3.32394">
        <ele>169.6</ele>
        <time>2026-05-18T14:11:20Z</time>
      </trkpt>
      <trkpt lat="43.7275" lon="3.32388">
        <ele>168.9</ele>
        <time>2026-05-18T14:11:25Z</time>
      </trkpt>
      <trkpt lat="43.7275" lon="3.32384">
        <ele>168.3</ele>
        <time>2026-05-18T14:11:30Z</time>
      </trkpt>
      <trkpt lat="43.72746" lon="3.32385">
        <ele>168.4</ele>
        <time>2026-05-18T14:11:35Z</time>
      </trkpt>
      <trkpt lat="43.72741" lon="3.32388">
        <ele>168.8</ele>
        <time>2026-05-18T14:11:40Z</time>
      </trkpt>
      <trkpt lat="43.72733" lon="3.32386">
        <ele>168.5</ele>
        <time>2026-05-18T14:11:45Z</time>
      </trkpt>
      <trkpt lat="43.72725" lon="3.32382">
        <ele>167.9</ele>
        <time>2026-05-18T14:11:50Z</time>
      </trkpt>
      <trkpt lat="43.7272" lon="3.32377">
        <ele>167.3</ele>
        <time>2026-05-18T14:11:55Z</time>
      </trkpt>
      <trkpt lat="43.72716" lon="3.32367">
        <ele>166</ele>
        <time>2026-05-18T14:12:00Z</time>
      </trkpt>
      <trkpt lat="43.7271" lon="3.32363">
        <ele>165.5</ele>
        <time>2026-05-18T14:12:05Z</time>
      </trkpt>
      <trkpt lat="43.72702" lon="3.3236">
        <ele>165.3</ele>
        <time>2026-05-18T14:12:10Z</time>
      </trkpt>
      <trkpt lat="43.72695" lon="3.32357">
        <ele>165</ele>
        <time>2026-05-18T14:12:15Z</time>
      </trkpt>
      <trkpt lat="43.72689" lon="3.32351">
        <ele>164.4</ele>
        <time>2026-05-18T14:12:20Z</time>
      </trkpt>
      <trkpt lat="43.72684" lon="3.32345">
        <ele>163.8</ele>
        <time>2026-05-18T14:12:25Z</time>
      </trkpt>
      <trkpt lat="43.72679" lon="3.32342">
        <ele>163.6</ele>
        <time>2026-05-18T14:12:30Z</time>
      </trkpt>
      <trkpt lat="43.72672" lon="3.32339">
        <ele>163.4</ele>
        <time>2026-05-18T14:12:35Z</time>
      </trkpt>
      <trkpt lat="43.72665" lon="3.32336">
        <ele>163.3</ele>
        <time>2026-05-18T14:12:40Z</time>
      </trkpt>
      <trkpt lat="43.7266" lon="3.32331">
        <ele>162.8</ele>
        <time>2026-05-18T14:12:45Z</time>
      </trkpt>
      <trkpt lat="43.72655" lon="3.32328">
        <ele>162.6</ele>
        <time>2026-05-18T14:12:50Z</time>
      </trkpt>
      <trkpt lat="43.72648" lon="3.32324">
        <ele>162.4</ele>
        <time>2026-05-18T14:12:55Z</time>
      </trkpt>
      <trkpt lat="43.72643" lon="3.3232">
        <ele>162.1</ele>
        <time>2026-05-18T14:13:00Z</time>
      </trkpt>
      <trkpt lat="43.72638" lon="3.32315">
        <ele>161.8</ele>
        <time>2026-05-18T14:13:05Z</time>
      </trkpt>
      <trkpt lat="43.72632" lon="3.32308">
        <ele>161.4</ele>
        <time>2026-05-18T14:13:10Z</time>
      </trkpt>
      <trkpt lat="43.72626" lon="3.323">
        <ele>161</ele>
        <time>2026-05-18T14:13:15Z</time>
      </trkpt>
      <trkpt lat="43.72621" lon="3.32296">
        <ele>160.8</ele>
        <time>2026-05-18T14:13:20Z</time>
      </trkpt>
      <trkpt lat="43.72614" lon="3.32292">
        <ele>160.7</ele>
        <time>2026-05-18T14:13:25Z</time>
      </trkpt>
      <trkpt lat="43.72611" lon="3.32284">
        <ele>160.2</ele>
        <time>2026-05-18T14:13:30Z</time>
      </trkpt>
      <trkpt lat="43.72609" lon="3.32273">
        <ele>159.7</ele>
        <time>2026-05-18T14:13:35Z</time>
      </trkpt>
      <trkpt lat="43.72604" lon="3.32264">
        <ele>159.3</ele>
        <time>2026-05-18T14:13:40Z</time>
      </trkpt>
      <trkpt lat="43.72599" lon="3.32258">
        <ele>159</ele>
        <time>2026-05-18T14:13:45Z</time>
      </trkpt>
      <trkpt lat="43.72596" lon="3.32259">
        <ele>159.2</ele>
        <time>2026-05-18T14:13:50Z</time>
      </trkpt>
      <trkpt lat="43.72591" lon="3.32266">
        <ele>159.6</ele>
        <time>2026-05-18T14:13:55Z</time>
      </trkpt>
      <trkpt lat="43.72586" lon="3.3227">
        <ele>159.9</ele>
        <time>2026-05-18T14:14:00Z</time>
      </trkpt>
      <trkpt lat="43.7258" lon="3.32265">
        <ele>159.7</ele>
        <time>2026-05-18T14:14:05Z</time>
      </trkpt>
      <trkpt lat="43.72572" lon="3.32256">
        <ele>159.2</ele>
        <time>2026-05-18T14:14:10Z</time>
      </trkpt>
      <trkpt lat="43.72567" lon="3.32251">
        <ele>158.9</ele>
        <time>2026-05-18T14:14:15Z</time>
      </trkpt>
      <trkpt lat="43.72562" lon="3.32247">
        <ele>158.6</ele>
        <time>2026-05-18T14:14:20Z</time>
      </trkpt>
      <trkpt lat="43.72559" lon="3.32242">
        <ele>158.4</ele>
        <time>2026-05-18T14:14:25Z</time>
      </trkpt>
      <trkpt lat="43.72556" lon="3.32238">
        <ele>158.2</ele>
        <time>2026-05-18T14:14:30Z</time>
      </trkpt>
      <trkpt lat="43.72556" lon="3.32239">
        <ele>158.3</ele>
        <time>2026-05-18T14:14:35Z</time>
        <extensions>
          <visugpx:TrkExtension xmlns:visugpx="https://www.visugpx.com/editgpx/">
            <visugpx:node>1</visugpx:node>
            </visugpx:TrkExtension>
        </extensions>
      </trkpt>
      <trkpt lat="43.72551" lon="3.32224">
        <ele>157.7</ele>
        <time>2026-05-18T14:29:23Z</time>
      </trkpt>
      <trkpt lat="43.72558" lon="3.32236">
        <ele>158.2</ele>
        <time>2026-05-18T14:29:29Z</time>
      </trkpt>
      <trkpt lat="43.72557" lon="3.32241">
        <ele>158.4</ele>
        <time>2026-05-18T14:29:34Z</time>
      </trkpt>
      <trkpt lat="43.7256" lon="3.32247">
        <ele>158.6</ele>
        <time>2026-05-18T14:29:39Z</time>
      </trkpt>
      <trkpt lat="43.72561" lon="3.32256">
        <ele>159</ele>
        <time>2026-05-18T14:29:44Z</time>
      </trkpt>
      <trkpt lat="43.72561" lon="3.32262">
        <ele>159.3</ele>
        <time>2026-05-18T14:29:49Z</time>
      </trkpt>
      <trkpt lat="43.72564" lon="3.32269">
        <ele>159.7</ele>
        <time>2026-05-18T14:29:54Z</time>
      </trkpt>
      <trkpt lat="43.72568" lon="3.32282">
        <ele>160.4</ele>
        <time>2026-05-18T14:29:59Z</time>
      </trkpt>
      <trkpt lat="43.72571" lon="3.32288">
        <ele>160.7</ele>
        <time>2026-05-18T14:30:04Z</time>
      </trkpt>
      <trkpt lat="43.72571" lon="3.32291">
        <ele>160.8</ele>
        <time>2026-05-18T14:30:09Z</time>
      </trkpt>
      <trkpt lat="43.72571" lon="3.32291">
        <ele>160.8</ele>
        <time>2026-05-18T14:30:14Z</time>
      </trkpt>
      <trkpt lat="43.72571" lon="3.32291">
        <ele>160.8</ele>
        <time>2026-05-18T14:30:19Z</time>
      </trkpt>
      <trkpt lat="43.72571" lon="3.32291">
        <ele>160.8</ele>
        <time>2026-05-18T14:30:24Z</time>
      </trkpt>
      <trkpt lat="43.72571" lon="3.32291">
        <ele>160.8</ele>
        <time>2026-05-18T14:30:29Z</time>
      </trkpt>
      <trkpt lat="43.7257" lon="3.32292">
        <ele>160.9</ele>
        <time>2026-05-18T14:30:34Z</time>
      </trkpt>
      <trkpt lat="43.72564" lon="3.32295">
        <ele>160.9</ele>
        <time>2026-05-18T14:30:39Z</time>
      </trkpt>
      <trkpt lat="43.72559" lon="3.32299">
        <ele>161.1</ele>
        <time>2026-05-18T14:30:44Z</time>
      </trkpt>
      <trkpt lat="43.72558" lon="3.323">
        <ele>161.1</ele>
        <time>2026-05-18T14:30:49Z</time>
      </trkpt>
      <trkpt lat="43.72558" lon="3.323">
        <ele>161.1</ele>
        <time>2026-05-18T14:30:49Z</time>
      </trkpt>
      <trkpt lat="43.72547" lon="3.32311">
        <ele>161.5</ele>
        <time>2026-05-18T14:44:25Z</time>
      </trkpt>
      <trkpt lat="43.7256" lon="3.32299">
        <ele>161.1</ele>
        <time>2026-05-18T14:44:26Z</time>
      </trkpt>
      <trkpt lat="43.72562" lon="3.32298">
        <ele>161</ele>
        <time>2026-05-18T14:44:31Z</time>
      </trkpt>
      <trkpt lat="43.72562" lon="3.32298">
        <ele>161</ele>
        <time>2026-05-18T14:44:36Z</time>
      </trkpt>
      <trkpt lat="43.72562" lon="3.32298">
        <ele>161</ele>
        <time>2026-05-18T14:44:41Z</time>
      </trkpt>
      <trkpt lat="43.72562" lon="3.32298">
        <ele>161</ele>
        <time>2026-05-18T14:44:46Z</time>
      </trkpt>
      <trkpt lat="43.72562" lon="3.32298">
        <ele>161</ele>
        <time>2026-05-18T14:44:51Z</time>
      </trkpt>
      <trkpt lat="43.72562" lon="3.32298">
        <ele>161</ele>
        <time>2026-05-18T14:44:56Z</time>
      </trkpt>
      <trkpt lat="43.72562" lon="3.32298">
        <ele>161</ele>
        <time>2026-05-18T14:45:01Z</time>
      </trkpt>
      <trkpt lat="43.72562" lon="3.32298">
        <ele>161</ele>
        <time>2026-05-18T14:45:06Z</time>
      </trkpt>
      <trkpt lat="43.72562" lon="3.32298">
        <ele>161</ele>
        <time>2026-05-18T14:45:11Z</time>
      </trkpt>
      <trkpt lat="43.72562" lon="3.32298">
        <ele>161</ele>
        <time>2026-05-18T14:45:16Z</time>
      </trkpt>
      <trkpt lat="43.72562" lon="3.32298">
        <ele>161</ele>
        <time>2026-05-18T14:45:21Z</time>
      </trkpt>
      <trkpt lat="43.72562" lon="3.32298">
        <ele>161</ele>
        <time>2026-05-18T14:45:26Z</time>
      </trkpt>
      <trkpt lat="43.72562" lon="3.32298">
        <ele>161</ele>
        <time>2026-05-18T14:45:31Z</time>
      </trkpt>
      <trkpt lat="43.72562" lon="3.32298">
        <ele>161</ele>
        <time>2026-05-18T14:45:36Z</time>
      </trkpt>
      <trkpt lat="43.72562" lon="3.32298">
        <ele>161</ele>
        <time>2026-05-18T14:45:41Z</time>
      </trkpt>
      <trkpt lat="43.72565" lon="3.3229">
        <ele>160.7</ele>
        <time>2026-05-18T14:45:46Z</time>
      </trkpt>
      <trkpt lat="43.72568" lon="3.32288">
        <ele>160.6</ele>
        <time>2026-05-18T14:45:51Z</time>
      </trkpt>
      <trkpt lat="43.72572" lon="3.32286">
        <ele>160.6</ele>
        <time>2026-05-18T14:45:56Z</time>
      </trkpt>
      <trkpt lat="43.72574" lon="3.32284">
        <ele>160.5</ele>
        <time>2026-05-18T14:46:01Z</time>
      </trkpt>
      <trkpt lat="43.72581" lon="3.32283">
        <ele>160.6</ele>
        <time>2026-05-18T14:46:06Z</time>
      </trkpt>
      <trkpt lat="43.72587" lon="3.32282">
        <ele>160.5</ele>
        <time>2026-05-18T14:46:11Z</time>
      </trkpt>
      <trkpt lat="43.72594" lon="3.3228">
        <ele>160.3</ele>
        <time>2026-05-18T14:46:16Z</time>
      </trkpt>
      <trkpt lat="43.72598" lon="3.32279">
        <ele>160.2</ele>
        <time>2026-05-18T14:46:21Z</time>
      </trkpt>
      <trkpt lat="43.72603" lon="3.32274">
        <ele>159.8</ele>
        <time>2026-05-18T14:46:26Z</time>
      </trkpt>
      <trkpt lat="43.72607" lon="3.32272">
        <ele>159.6</ele>
        <time>2026-05-18T14:46:31Z</time>
      </trkpt>
      <trkpt lat="43.72611" lon="3.32279">
        <ele>160</ele>
        <time>2026-05-18T14:46:36Z</time>
      </trkpt>
      <trkpt lat="43.72612" lon="3.32287">
        <ele>160.4</ele>
        <time>2026-05-18T14:46:41Z</time>
      </trkpt>
      <trkpt lat="43.72614" lon="3.32294">
        <ele>160.8</ele>
        <time>2026-05-18T14:46:46Z</time>
      </trkpt>
      <trkpt lat="43.72619" lon="3.32302">
        <ele>161.2</ele>
        <time>2026-05-18T14:46:51Z</time>
      </trkpt>
      <trkpt lat="43.72624" lon="3.32304">
        <ele>161.2</ele>
        <time>2026-05-18T14:46:56Z</time>
      </trkpt>
      <trkpt lat="43.7263" lon="3.32309">
        <ele>161.5</ele>
        <time>2026-05-18T14:47:01Z</time>
      </trkpt>
      <trkpt lat="43.72635" lon="3.32313">
        <ele>161.7</ele>
        <time>2026-05-18T14:47:06Z</time>
      </trkpt>
      <trkpt lat="43.72639" lon="3.32317">
        <ele>162</ele>
        <time>2026-05-18T14:47:11Z</time>
      </trkpt>
      <trkpt lat="43.72643" lon="3.32322">
        <ele>162.3</ele>
        <time>2026-05-18T14:47:16Z</time>
      </trkpt>
      <trkpt lat="43.72648" lon="3.32326">
        <ele>162.5</ele>
        <time>2026-05-18T14:47:21Z</time>
      </trkpt>
      <trkpt lat="43.72654" lon="3.32331">
        <ele>162.8</ele>
        <time>2026-05-18T14:47:26Z</time>
      </trkpt>
      <trkpt lat="43.72661" lon="3.32336">
        <ele>163.3</ele>
        <time>2026-05-18T14:47:31Z</time>
      </trkpt>
      <trkpt lat="43.72669" lon="3.32341">
        <ele>163.7</ele>
        <time>2026-05-18T14:47:36Z</time>
      </trkpt>
      <trkpt lat="43.72673" lon="3.32345">
        <ele>164</ele>
        <time>2026-05-18T14:47:41Z</time>
      </trkpt>
      <trkpt lat="43.72678" lon="3.32351">
        <ele>164.5</ele>
        <time>2026-05-18T14:47:46Z</time>
      </trkpt>
      <trkpt lat="43.72686" lon="3.32357">
        <ele>165.1</ele>
        <time>2026-05-18T14:47:51Z</time>
      </trkpt>
      <trkpt lat="43.72693" lon="3.3236">
        <ele>165.3</ele>
        <time>2026-05-18T14:47:56Z</time>
      </trkpt>
      <trkpt lat="43.727" lon="3.32365">
        <ele>165.8</ele>
        <time>2026-05-18T14:48:01Z</time>
      </trkpt>
      <trkpt lat="43.72706" lon="3.32365">
        <ele>165.8</ele>
        <time>2026-05-18T14:48:06Z</time>
      </trkpt>
      <trkpt lat="43.72713" lon="3.32368">
        <ele>166.1</ele>
        <time>2026-05-18T14:48:11Z</time>
      </trkpt>
      <trkpt lat="43.72718" lon="3.32372">
        <ele>166.6</ele>
        <time>2026-05-18T14:48:16Z</time>
      </trkpt>
      <trkpt lat="43.72725" lon="3.32373">
        <ele>166.7</ele>
        <time>2026-05-18T14:48:21Z</time>
      </trkpt>
      <trkpt lat="43.72731" lon="3.32377">
        <ele>167.3</ele>
        <time>2026-05-18T14:48:26Z</time>
      </trkpt>
      <trkpt lat="43.72737" lon="3.32381">
        <ele>167.8</ele>
        <time>2026-05-18T14:48:31Z</time>
      </trkpt>
      <trkpt lat="43.72741" lon="3.32386">
        <ele>168.5</ele>
        <time>2026-05-18T14:48:36Z</time>
      </trkpt>
      <trkpt lat="43.72745" lon="3.32392">
        <ele>169.4</ele>
        <time>2026-05-18T14:48:41Z</time>
      </trkpt>
      <trkpt lat="43.72748" lon="3.32396">
        <ele>170</ele>
        <time>2026-05-18T14:48:46Z</time>
      </trkpt>
      <trkpt lat="43.72755" lon="3.324">
        <ele>170.3</ele>
        <time>2026-05-18T14:48:51Z</time>
      </trkpt>
      <trkpt lat="43.72761" lon="3.32407">
        <ele>170.9</ele>
        <time>2026-05-18T14:48:56Z</time>
      </trkpt>
      <trkpt lat="43.72767" lon="3.32413">
        <ele>171.3</ele>
        <time>2026-05-18T14:49:01Z</time>
      </trkpt>
      <trkpt lat="43.72776" lon="3.32416">
        <ele>171.1</ele>
        <time>2026-05-18T14:49:06Z</time>
      </trkpt>
      <trkpt lat="43.72783" lon="3.3242">
        <ele>171.7</ele>
        <time>2026-05-18T14:49:11Z</time>
      </trkpt>
      <trkpt lat="43.7279" lon="3.32424">
        <ele>172.5</ele>
        <time>2026-05-18T14:49:16Z</time>
      </trkpt>
      <trkpt lat="43.72797" lon="3.3243">
        <ele>173.9</ele>
        <time>2026-05-18T14:49:21Z</time>
      </trkpt>
      <trkpt lat="43.72802" lon="3.32434">
        <ele>174.8</ele>
        <time>2026-05-18T14:49:26Z</time>
      </trkpt>
      <trkpt lat="43.72808" lon="3.32429">
        <ele>172.8</ele>
        <time>2026-05-18T14:49:31Z</time>
      </trkpt>
      <trkpt lat="43.72812" lon="3.32432">
        <ele>173.5</ele>
        <time>2026-05-18T14:49:36Z</time>
      </trkpt>
      <trkpt lat="43.72817" lon="3.32435">
        <ele>174.1</ele>
        <time>2026-05-18T14:49:41Z</time>
      </trkpt>
      <trkpt lat="43.72825" lon="3.32429">
        <ele>171.6</ele>
        <time>2026-05-18T14:49:46Z</time>
      </trkpt>
      <trkpt lat="43.72831" lon="3.32422">
        <ele>168.9</ele>
        <time>2026-05-18T14:49:51Z</time>
      </trkpt>
      <trkpt lat="43.72836" lon="3.32414">
        <ele>166.8</ele>
        <time>2026-05-18T14:49:56Z</time>
      </trkpt>
      <trkpt lat="43.7284" lon="3.32407">
        <ele>166.5</ele>
        <time>2026-05-18T14:50:01Z</time>
      </trkpt>
      <trkpt lat="43.72843" lon="3.32399">
        <ele>166.3</ele>
        <time>2026-05-18T14:50:06Z</time>
      </trkpt>
      <trkpt lat="43.72847" lon="3.32391">
        <ele>166.2</ele>
        <time>2026-05-18T14:50:11Z</time>
      </trkpt>
      <trkpt lat="43.7285" lon="3.32385">
        <ele>166.2</ele>
        <time>2026-05-18T14:50:16Z</time>
      </trkpt>
      <trkpt lat="43.72853" lon="3.32382">
        <ele>166.3</ele>
        <time>2026-05-18T14:50:21Z</time>
      </trkpt>
      <trkpt lat="43.72857" lon="3.3238">
        <ele>166.5</ele>
        <time>2026-05-18T14:50:26Z</time>
      </trkpt>
      <trkpt lat="43.72862" lon="3.32379">
        <ele>166.8</ele>
        <time>2026-05-18T14:50:31Z</time>
      </trkpt>
      <trkpt lat="43.72866" lon="3.32379">
        <ele>167.1</ele>
        <time>2026-05-18T14:50:36Z</time>
      </trkpt>
      <trkpt lat="43.72872" lon="3.32382">
        <ele>167.3</ele>
        <time>2026-05-18T14:50:41Z</time>
      </trkpt>
      <trkpt lat="43.7288" lon="3.32381">
        <ele>167.8</ele>
        <time>2026-05-18T14:50:46Z</time>
      </trkpt>
      <trkpt lat="43.72889" lon="3.3238">
        <ele>168.3</ele>
        <time>2026-05-18T14:50:51Z</time>
      </trkpt>
      <trkpt lat="43.72899" lon="3.32376">
        <ele>169.2</ele>
        <time>2026-05-18T14:50:56Z</time>
      </trkpt>
      <trkpt lat="43.72906" lon="3.32373">
        <ele>170</ele>
        <time>2026-05-18T14:51:01Z</time>
      </trkpt>
      <trkpt lat="43.72912" lon="3.3237">
        <ele>170.8</ele>
        <time>2026-05-18T14:51:06Z</time>
      </trkpt>
      <trkpt lat="43.72917" lon="3.32367">
        <ele>171.5</ele>
        <time>2026-05-18T14:51:11Z</time>
      </trkpt>
      <trkpt lat="43.72923" lon="3.3236">
        <ele>171.9</ele>
        <time>2026-05-18T14:51:16Z</time>
      </trkpt>
      <trkpt lat="43.72928" lon="3.32356">
        <ele>172</ele>
        <time>2026-05-18T14:51:21Z</time>
      </trkpt>
      <trkpt lat="43.72934" lon="3.3235">
        <ele>172.3</ele>
        <time>2026-05-18T14:51:26Z</time>
      </trkpt>
      <trkpt lat="43.72939" lon="3.32345">
        <ele>172.4</ele>
        <time>2026-05-18T14:51:31Z</time>
      </trkpt>
      <trkpt lat="43.72944" lon="3.3234">
        <ele>172.6</ele>
        <time>2026-05-18T14:51:36Z</time>
      </trkpt>
      <trkpt lat="43.72948" lon="3.32337">
        <ele>172.6</ele>
        <time>2026-05-18T14:51:41Z</time>
      </trkpt>
      <trkpt lat="43.72954" lon="3.32333">
        <ele>172.5</ele>
        <time>2026-05-18T14:51:46Z</time>
      </trkpt>
      <trkpt lat="43.72959" lon="3.32329">
        <ele>172.6</ele>
        <time>2026-05-18T14:51:51Z</time>
      </trkpt>
      <trkpt lat="43.72965" lon="3.32324">
        <ele>172.7</ele>
        <time>2026-05-18T14:51:56Z</time>
      </trkpt>
      <trkpt lat="43.72972" lon="3.32318">
        <ele>172.7</ele>
        <time>2026-05-18T14:52:01Z</time>
      </trkpt>
      <trkpt lat="43.72979" lon="3.32312">
        <ele>172.5</ele>
        <time>2026-05-18T14:52:06Z</time>
      </trkpt>
      <trkpt lat="43.72983" lon="3.32306">
        <ele>172.6</ele>
        <time>2026-05-18T14:52:11Z</time>
      </trkpt>
      <trkpt lat="43.72989" lon="3.32299">
        <ele>172.3</ele>
        <time>2026-05-18T14:52:16Z</time>
      </trkpt>
      <trkpt lat="43.72993" lon="3.32295">
        <ele>172</ele>
        <time>2026-05-18T14:52:21Z</time>
      </trkpt>
      <trkpt lat="43.72993" lon="3.32286">
        <ele>172.8</ele>
        <time>2026-05-18T14:52:26Z</time>
      </trkpt>
      <trkpt lat="43.72991" lon="3.32276">
        <ele>174.1</ele>
        <time>2026-05-18T14:52:31Z</time>
      </trkpt>
      <trkpt lat="43.72991" lon="3.32268">
        <ele>174.8</ele>
        <time>2026-05-18T14:52:36Z</time>
      </trkpt>
      <trkpt lat="43.72991" lon="3.32261">
        <ele>175.5</ele>
        <time>2026-05-18T14:52:41Z</time>
      </trkpt>
      <trkpt lat="43.72993" lon="3.32253">
        <ele>175.7</ele>
        <time>2026-05-18T14:52:46Z</time>
      </trkpt>
      <trkpt lat="43.72998" lon="3.32245">
        <ele>174.4</ele>
        <time>2026-05-18T14:52:51Z</time>
      </trkpt>
      <trkpt lat="43.73004" lon="3.32238">
        <ele>173</ele>
        <time>2026-05-18T14:52:56Z</time>
      </trkpt>
      <trkpt lat="43.73007" lon="3.32234">
        <ele>172.5</ele>
        <time>2026-05-18T14:53:01Z</time>
      </trkpt>
      <trkpt lat="43.73007" lon="3.32234">
        <ele>172.5</ele>
        <time>2026-05-18T14:53:06Z</time>
      </trkpt>
      <trkpt lat="43.73008" lon="3.32231">
        <ele>172.3</ele>
        <time>2026-05-18T14:53:11Z</time>
      </trkpt>
      <trkpt lat="43.73013" lon="3.32227">
        <ele>171.5</ele>
        <time>2026-05-18T14:53:16Z</time>
      </trkpt>
      <trkpt lat="43.73017" lon="3.32221">
        <ele>170.9</ele>
        <time>2026-05-18T14:53:21Z</time>
      </trkpt>
      <trkpt lat="43.73017" lon="3.32216">
        <ele>170.7</ele>
        <time>2026-05-18T14:53:26Z</time>
      </trkpt>
      <trkpt lat="43.73014" lon="3.32211">
        <ele>171</ele>
        <time>2026-05-18T14:53:31Z</time>
      </trkpt>
      <trkpt lat="43.73012" lon="3.32205">
        <ele>171</ele>
        <time>2026-05-18T14:53:36Z</time>
      </trkpt>
      <trkpt lat="43.7301" lon="3.322">
        <ele>171.1</ele>
        <time>2026-05-18T14:53:41Z</time>
      </trkpt>
      <trkpt lat="43.73007" lon="3.3219">
        <ele>171.1</ele>
        <time>2026-05-18T14:53:46Z</time>
      </trkpt>
      <trkpt lat="43.73004" lon="3.32185">
        <ele>171.3</ele>
        <time>2026-05-18T14:53:51Z</time>
      </trkpt>
      <trkpt lat="43.73" lon="3.32176">
        <ele>171.3</ele>
        <time>2026-05-18T14:53:56Z</time>
      </trkpt>
      <trkpt lat="43.72996" lon="3.3217">
        <ele>172.7</ele>
        <time>2026-05-18T14:54:01Z</time>
      </trkpt>
      <trkpt lat="43.72992" lon="3.32164">
        <ele>174.1</ele>
        <time>2026-05-18T14:54:06Z</time>
      </trkpt>
      <trkpt lat="43.72991" lon="3.32157">
        <ele>173.9</ele>
        <time>2026-05-18T14:54:11Z</time>
      </trkpt>
      <trkpt lat="43.7299" lon="3.32147">
        <ele>173.5</ele>
        <time>2026-05-18T14:54:16Z</time>
      </trkpt>
      <trkpt lat="43.72989" lon="3.3214">
        <ele>173.3</ele>
        <time>2026-05-18T14:54:21Z</time>
      </trkpt>
      <trkpt lat="43.72989" lon="3.32132">
        <ele>172.6</ele>
        <time>2026-05-18T14:54:26Z</time>
      </trkpt>
      <trkpt lat="43.72991" lon="3.32123">
        <ele>171.1</ele>
        <time>2026-05-18T14:54:31Z</time>
      </trkpt>
      <trkpt lat="43.72992" lon="3.32116">
        <ele>170.2</ele>
        <time>2026-05-18T14:54:36Z</time>
      </trkpt>
      <trkpt lat="43.72993" lon="3.32107">
        <ele>169.1</ele>
        <time>2026-05-18T14:54:41Z</time>
      </trkpt>
      <trkpt lat="43.72995" lon="3.32096">
        <ele>167.6</ele>
        <time>2026-05-18T14:54:46Z</time>
      </trkpt>
      <trkpt lat="43.72997" lon="3.32088">
        <ele>166.3</ele>
        <time>2026-05-18T14:54:51Z</time>
      </trkpt>
      <trkpt lat="43.72999" lon="3.32079">
        <ele>165.4</ele>
        <time>2026-05-18T14:54:56Z</time>
      </trkpt>
      <trkpt lat="43.73" lon="3.32072">
        <ele>165.3</ele>
        <time>2026-05-18T14:55:01Z</time>
      </trkpt>
      <trkpt lat="43.73002" lon="3.32064">
        <ele>165.5</ele>
        <time>2026-05-18T14:55:06Z</time>
      </trkpt>
      <trkpt lat="43.73005" lon="3.32054">
        <ele>165.8</ele>
        <time>2026-05-18T14:55:11Z</time>
      </trkpt>
      <trkpt lat="43.73008" lon="3.32044">
        <ele>166</ele>
        <time>2026-05-18T14:55:16Z</time>
      </trkpt>
      <trkpt lat="43.73011" lon="3.32034">
        <ele>166.1</ele>
        <time>2026-05-18T14:55:21Z</time>
      </trkpt>
      <trkpt lat="43.73014" lon="3.32026">
        <ele>166.2</ele>
        <time>2026-05-18T14:55:26Z</time>
      </trkpt>
      <trkpt lat="43.73017" lon="3.32017">
        <ele>166.2</ele>
        <time>2026-05-18T14:55:31Z</time>
      </trkpt>
      <trkpt lat="43.73019" lon="3.32009">
        <ele>166.2</ele>
        <time>2026-05-18T14:55:36Z</time>
      </trkpt>
      <trkpt lat="43.73022" lon="3.32002">
        <ele>166.2</ele>
        <time>2026-05-18T14:55:41Z</time>
      </trkpt>
      <trkpt lat="43.73024" lon="3.31994">
        <ele>166.4</ele>
        <time>2026-05-18T14:55:46Z</time>
      </trkpt>
      <trkpt lat="43.73028" lon="3.31982">
        <ele>166.9</ele>
        <time>2026-05-18T14:55:51Z</time>
      </trkpt>
      <trkpt lat="43.73031" lon="3.31974">
        <ele>167.1</ele>
        <time>2026-05-18T14:55:56Z</time>
      </trkpt>
      <trkpt lat="43.73034" lon="3.31965">
        <ele>167.3</ele>
        <time>2026-05-18T14:56:01Z</time>
      </trkpt>
      <trkpt lat="43.73036" lon="3.31956">
        <ele>167.5</ele>
        <time>2026-05-18T14:56:06Z</time>
      </trkpt>
      <trkpt lat="43.73039" lon="3.31946">
        <ele>167.7</ele>
        <time>2026-05-18T14:56:11Z</time>
      </trkpt>
      <trkpt lat="43.73041" lon="3.31937">
        <ele>167.8</ele>
        <time>2026-05-18T14:56:16Z</time>
      </trkpt>
      <trkpt lat="43.73043" lon="3.31928">
        <ele>168</ele>
        <time>2026-05-18T14:56:21Z</time>
      </trkpt>
      <trkpt lat="43.73046" lon="3.31918">
        <ele>168</ele>
        <time>2026-05-18T14:56:26Z</time>
      </trkpt>
      <trkpt lat="43.73049" lon="3.31906">
        <ele>168</ele>
        <time>2026-05-18T14:56:31Z</time>
      </trkpt>
      <trkpt lat="43.73052" lon="3.31897">
        <ele>168</ele>
        <time>2026-05-18T14:56:36Z</time>
      </trkpt>
      <trkpt lat="43.73054" lon="3.31889">
        <ele>168</ele>
        <time>2026-05-18T14:56:41Z</time>
      </trkpt>
      <trkpt lat="43.73055" lon="3.31884">
        <ele>168</ele>
        <time>2026-05-18T14:56:46Z</time>
      </trkpt>
      <trkpt lat="43.73057" lon="3.3188">
        <ele>167.8</ele>
        <time>2026-05-18T14:56:51Z</time>
      </trkpt>
      <trkpt lat="43.73058" lon="3.31877">
        <ele>167.8</ele>
        <time>2026-05-18T14:56:56Z</time>
      </trkpt>
      <trkpt lat="43.73061" lon="3.3188">
        <ele>167.3</ele>
        <time>2026-05-18T14:57:01Z</time>
      </trkpt>
      <trkpt lat="43.73066" lon="3.31886">
        <ele>166.5</ele>
        <time>2026-05-18T14:57:06Z</time>
      </trkpt>
      <trkpt lat="43.7307" lon="3.31892">
        <ele>165.9</ele>
        <time>2026-05-18T14:57:11Z</time>
      </trkpt>
      <trkpt lat="43.73076" lon="3.31895">
        <ele>165.1</ele>
        <time>2026-05-18T14:57:16Z</time>
      </trkpt>
      <trkpt lat="43.7308" lon="3.31897">
        <ele>164.6</ele>
        <time>2026-05-18T14:57:21Z</time>
      </trkpt>
      <trkpt lat="43.73085" lon="3.319">
        <ele>164.4</ele>
        <time>2026-05-18T14:57:26Z</time>
      </trkpt>
      <trkpt lat="43.73087" lon="3.31902">
        <ele>164.5</ele>
        <time>2026-05-18T14:57:31Z</time>
      </trkpt>
      <trkpt lat="43.73089" lon="3.31902">
        <ele>164.7</ele>
        <time>2026-05-18T14:57:36Z</time>
      </trkpt>
      <trkpt lat="43.73091" lon="3.31905">
        <ele>164.9</ele>
        <time>2026-05-18T14:57:41Z</time>
      </trkpt>
      <trkpt lat="43.73092" lon="3.31907">
        <ele>164.9</ele>
        <time>2026-05-18T14:57:46Z</time>
      </trkpt>
      <trkpt lat="43.73092" lon="3.31907">
        <ele>164.9</ele>
        <time>2026-05-18T14:57:51Z</time>
      </trkpt>
      <trkpt lat="43.731" lon="3.31918">
        <ele>165.6</ele>
        <time>2026-05-18T14:57:56Z</time>
      </trkpt>
      <trkpt lat="43.73106" lon="3.31922">
        <ele>166.2</ele>
        <time>2026-05-18T14:58:01Z</time>
      </trkpt>
      <trkpt lat="43.73113" lon="3.31926">
        <ele>166.8</ele>
        <time>2026-05-18T14:58:06Z</time>
      </trkpt>
      <trkpt lat="43.73116" lon="3.31929">
        <ele>167.1</ele>
        <time>2026-05-18T14:58:11Z</time>
      </trkpt>
      <trkpt lat="43.73121" lon="3.31932">
        <ele>167.5</ele>
        <time>2026-05-18T14:58:16Z</time>
      </trkpt>
      <trkpt lat="43.73126" lon="3.31929">
        <ele>168</ele>
        <time>2026-05-18T14:58:21Z</time>
      </trkpt>
      <trkpt lat="43.73131" lon="3.31926">
        <ele>168.5</ele>
        <time>2026-05-18T14:58:26Z</time>
      </trkpt>
      <trkpt lat="43.73131" lon="3.31925">
        <ele>168.5</ele>
        <time>2026-05-18T14:58:31Z</time>
      </trkpt>
      <trkpt lat="43.73133" lon="3.31921">
        <ele>168.7</ele>
        <time>2026-05-18T14:58:36Z</time>
      </trkpt>
      <trkpt lat="43.73133" lon="3.3192">
        <ele>168.7</ele>
        <time>2026-05-18T14:58:41Z</time>
      </trkpt>
      <trkpt lat="43.73135" lon="3.31914">
        <ele>169</ele>
        <time>2026-05-18T14:58:46Z</time>
      </trkpt>
      <trkpt lat="43.73137" lon="3.31906">
        <ele>169.2</ele>
        <time>2026-05-18T14:58:51Z</time>
      </trkpt>
      <trkpt lat="43.7314" lon="3.31898">
        <ele>169.5</ele>
        <time>2026-05-18T14:58:56Z</time>
      </trkpt>
      <trkpt lat="43.73144" lon="3.31892">
        <ele>169.9</ele>
        <time>2026-05-18T14:59:01Z</time>
      </trkpt>
      <trkpt lat="43.73146" lon="3.31885">
        <ele>170.1</ele>
        <time>2026-05-18T14:59:06Z</time>
      </trkpt>
      <trkpt lat="43.73149" lon="3.3188">
        <ele>170.4</ele>
        <time>2026-05-18T14:59:11Z</time>
      </trkpt>
      <trkpt lat="43.73151" lon="3.31874">
        <ele>170.6</ele>
        <time>2026-05-18T14:59:16Z</time>
      </trkpt>
      <trkpt lat="43.73162" lon="3.31875">
        <ele>171.6</ele>
        <time>2026-05-18T14:59:21Z</time>
      </trkpt>
      <trkpt lat="43.73167" lon="3.31861">
        <ele>172</ele>
        <time>2026-05-18T14:59:26Z</time>
      </trkpt>
      <trkpt lat="43.73171" lon="3.31855">
        <ele>172.2</ele>
        <time>2026-05-18T14:59:31Z</time>
      </trkpt>
      <trkpt lat="43.73176" lon="3.3185">
        <ele>172.5</ele>
        <time>2026-05-18T14:59:36Z</time>
      </trkpt>
      <trkpt lat="43.73181" lon="3.31845">
        <ele>172.8</ele>
        <time>2026-05-18T14:59:41Z</time>
      </trkpt>
      <trkpt lat="43.73185" lon="3.3184">
        <ele>173.1</ele>
        <time>2026-05-18T14:59:46Z</time>
      </trkpt>
      <trkpt lat="43.73188" lon="3.31833">
        <ele>173.3</ele>
        <time>2026-05-18T14:59:51Z</time>
      </trkpt>
      <trkpt lat="43.73191" lon="3.31826">
        <ele>173.5</ele>
        <time>2026-05-18T14:59:56Z</time>
      </trkpt>
      <trkpt lat="43.73196" lon="3.3182">
        <ele>173.8</ele>
        <time>2026-05-18T15:00:01Z</time>
      </trkpt>
      <trkpt lat="43.73199" lon="3.31815">
        <ele>174</ele>
        <time>2026-05-18T15:00:06Z</time>
      </trkpt>
      <trkpt lat="43.732" lon="3.31811">
        <ele>174.1</ele>
        <time>2026-05-18T15:00:11Z</time>
      </trkpt>
      <trkpt lat="43.732" lon="3.31808">
        <ele>174.1</ele>
        <time>2026-05-18T15:00:16Z</time>
      </trkpt>
      <trkpt lat="43.73201" lon="3.31806">
        <ele>174.2</ele>
        <time>2026-05-18T15:00:21Z</time>
      </trkpt>
      <trkpt lat="43.73201" lon="3.31806">
        <ele>174.2</ele>
        <time>2026-05-18T15:00:26Z</time>
      </trkpt>
      <trkpt lat="43.73204" lon="3.31798">
        <ele>174.4</ele>
        <time>2026-05-18T15:00:31Z</time>
      </trkpt>
      <trkpt lat="43.73207" lon="3.31792">
        <ele>174.7</ele>
        <time>2026-05-18T15:00:36Z</time>
      </trkpt>
      <trkpt lat="43.73206" lon="3.31788">
        <ele>174.6</ele>
        <time>2026-05-18T15:00:41Z</time>
      </trkpt>
      <trkpt lat="43.73205" lon="3.31788">
        <ele>174.6</ele>
        <time>2026-05-18T15:00:46Z</time>
      </trkpt>
      <trkpt lat="43.73205" lon="3.31788">
        <ele>174.6</ele>
        <time>2026-05-18T15:00:51Z</time>
      </trkpt>
      <trkpt lat="43.732" lon="3.31789">
        <ele>174.2</ele>
        <time>2026-05-18T15:00:56Z</time>
      </trkpt>
      <trkpt lat="43.73192" lon="3.31788">
        <ele>173.7</ele>
        <time>2026-05-18T15:01:01Z</time>
      </trkpt>
      <trkpt lat="43.73184" lon="3.3178">
        <ele>173.2</ele>
        <time>2026-05-18T15:01:06Z</time>
      </trkpt>
      <trkpt lat="43.73177" lon="3.31774">
        <ele>172.7</ele>
        <time>2026-05-18T15:01:11Z</time>
      </trkpt>
      <trkpt lat="43.73171" lon="3.31768">
        <ele>172.3</ele>
        <time>2026-05-18T15:01:16Z</time>
      </trkpt>
      <trkpt lat="43.73167" lon="3.31764">
        <ele>172</ele>
        <time>2026-05-18T15:01:21Z</time>
      </trkpt>
      <trkpt lat="43.73165" lon="3.31759">
        <ele>171.9</ele>
        <time>2026-05-18T15:01:26Z</time>
      </trkpt>
      <trkpt lat="43.73158" lon="3.31756">
        <ele>171.6</ele>
        <time>2026-05-18T15:01:31Z</time>
      </trkpt>
      <trkpt lat="43.73154" lon="3.31759">
        <ele>171.3</ele>
        <time>2026-05-18T15:01:36Z</time>
      </trkpt>
      <trkpt lat="43.73154" lon="3.31762">
        <ele>171.3</ele>
        <time>2026-05-18T15:01:41Z</time>
      </trkpt>
      <trkpt lat="43.73154" lon="3.31762">
        <ele>171.3</ele>
        <time>2026-05-18T15:01:46Z</time>
      </trkpt>
      <trkpt lat="43.73154" lon="3.31762">
        <ele>171.3</ele>
        <time>2026-05-18T15:01:51Z</time>
      </trkpt>
      <trkpt lat="43.73154" lon="3.31762">
        <ele>171.3</ele>
        <time>2026-05-18T15:01:56Z</time>
      </trkpt>
      <trkpt lat="43.73154" lon="3.31762">
        <ele>171.3</ele>
        <time>2026-05-18T15:02:01Z</time>
      </trkpt>
      <trkpt lat="43.73154" lon="3.31762">
        <ele>171.3</ele>
        <time>2026-05-18T15:02:06Z</time>
      </trkpt>
      <trkpt lat="43.73159" lon="3.31752">
        <ele>171.6</ele>
        <time>2026-05-18T15:02:11Z</time>
      </trkpt>
      <trkpt lat="43.73155" lon="3.31745">
        <ele>171.4</ele>
        <time>2026-05-18T15:02:16Z</time>
      </trkpt>
      <trkpt lat="43.73152" lon="3.31738">
        <ele>171.2</ele>
        <time>2026-05-18T15:02:21Z</time>
      </trkpt>
      <trkpt lat="43.73149" lon="3.31732">
        <ele>170.9</ele>
        <time>2026-05-18T15:02:26Z</time>
      </trkpt>
      <trkpt lat="43.73143" lon="3.31724">
        <ele>170.6</ele>
        <time>2026-05-18T15:02:31Z</time>
      </trkpt>
      <trkpt lat="43.73139" lon="3.31717">
        <ele>170.3</ele>
        <time>2026-05-18T15:02:36Z</time>
      </trkpt>
      <trkpt lat="43.73143" lon="3.31708">
        <ele>170.4</ele>
        <time>2026-05-18T15:02:41Z</time>
      </trkpt>
      <trkpt lat="43.73146" lon="3.31699">
        <ele>170.4</ele>
        <time>2026-05-18T15:02:46Z</time>
      </trkpt>
      <trkpt lat="43.73151" lon="3.31696">
        <ele>170.6</ele>
        <time>2026-05-18T15:02:51Z</time>
      </trkpt>
      <trkpt lat="43.73156" lon="3.31693">
        <ele>170.8</ele>
        <time>2026-05-18T15:02:56Z</time>
      </trkpt>
      <trkpt lat="43.73161" lon="3.31691">
        <ele>171</ele>
        <time>2026-05-18T15:03:01Z</time>
      </trkpt>
      <trkpt lat="43.73164" lon="3.31689">
        <ele>171.1</ele>
        <time>2026-05-18T15:03:06Z</time>
      </trkpt>
      <trkpt lat="43.73168" lon="3.31684">
        <ele>171.3</ele>
        <time>2026-05-18T15:03:11Z</time>
      </trkpt>
      <trkpt lat="43.73174" lon="3.31682">
        <ele>171.6</ele>
        <time>2026-05-18T15:03:16Z</time>
      </trkpt>
      <trkpt lat="43.7318" lon="3.31682">
        <ele>172</ele>
        <time>2026-05-18T15:03:21Z</time>
      </trkpt>
      <trkpt lat="43.73187" lon="3.31678">
        <ele>172.4</ele>
        <time>2026-05-18T15:03:26Z</time>
      </trkpt>
      <trkpt lat="43.73191" lon="3.31673">
        <ele>172.6</ele>
        <time>2026-05-18T15:03:31Z</time>
      </trkpt>
      <trkpt lat="43.73196" lon="3.31664">
        <ele>172.7</ele>
        <time>2026-05-18T15:03:36Z</time>
      </trkpt>
      <trkpt lat="43.732" lon="3.31655">
        <ele>172.6</ele>
        <time>2026-05-18T15:03:41Z</time>
      </trkpt>
      <trkpt lat="43.73206" lon="3.3165">
        <ele>172.8</ele>
        <time>2026-05-18T15:03:46Z</time>
      </trkpt>
      <trkpt lat="43.73214" lon="3.31656">
        <ele>173.4</ele>
        <time>2026-05-18T15:03:51Z</time>
      </trkpt>
      <trkpt lat="43.73218" lon="3.31665">
        <ele>174</ele>
        <time>2026-05-18T15:03:56Z</time>
      </trkpt>
      <trkpt lat="43.73218" lon="3.31668">
        <ele>174.1</ele>
        <time>2026-05-18T15:04:01Z</time>
      </trkpt>
      <trkpt lat="43.73217" lon="3.31669">
        <ele>174.1</ele>
        <time>2026-05-18T15:04:06Z</time>
      </trkpt>
      <trkpt lat="43.73217" lon="3.31669">
        <ele>174.1</ele>
        <time>2026-05-18T15:04:11Z</time>
      </trkpt>
      <trkpt lat="43.73217" lon="3.31669">
        <ele>174.1</ele>
        <time>2026-05-18T15:04:16Z</time>
      </trkpt>
      <trkpt lat="43.73217" lon="3.31669">
        <ele>174.1</ele>
        <time>2026-05-18T15:04:21Z</time>
      </trkpt>
      <trkpt lat="43.73217" lon="3.31669">
        <ele>174.1</ele>
        <time>2026-05-18T15:04:26Z</time>
      </trkpt>
      <trkpt lat="43.73217" lon="3.31669">
        <ele>174.1</ele>
        <time>2026-05-18T15:04:31Z</time>
      </trkpt>
      <trkpt lat="43.73217" lon="3.31669">
        <ele>174.1</ele>
        <time>2026-05-18T15:04:36Z</time>
      </trkpt>
      <trkpt lat="43.73217" lon="3.31669">
        <ele>174.1</ele>
        <time>2026-05-18T15:04:41Z</time>
      </trkpt>
      <trkpt lat="43.73217" lon="3.31669">
        <ele>174.1</ele>
        <time>2026-05-18T15:04:46Z</time>
      </trkpt>
      <trkpt lat="43.73219" lon="3.31661">
        <ele>173.9</ele>
        <time>2026-05-18T15:04:51Z</time>
      </trkpt>
      <trkpt lat="43.73224" lon="3.31659">
        <ele>174.1</ele>
        <time>2026-05-18T15:04:56Z</time>
      </trkpt>
      <trkpt lat="43.7323" lon="3.31658">
        <ele>174.4</ele>
        <time>2026-05-18T15:05:01Z</time>
      </trkpt>
      <trkpt lat="43.73231" lon="3.31658">
        <ele>174.5</ele>
        <time>2026-05-18T15:05:06Z</time>
      </trkpt>
      <trkpt lat="43.73231" lon="3.31658">
        <ele>174.5</ele>
        <time>2026-05-18T15:05:11Z</time>
      </trkpt>
      <trkpt lat="43.73233" lon="3.31658">
        <ele>174.6</ele>
        <time>2026-05-18T15:05:16Z</time>
      </trkpt>
      <trkpt lat="43.73235" lon="3.31658">
        <ele>174.7</ele>
        <time>2026-05-18T15:05:21Z</time>
      </trkpt>
      <trkpt lat="43.73235" lon="3.31658">
        <ele>174.7</ele>
        <time>2026-05-18T15:05:26Z</time>
      </trkpt>
      <trkpt lat="43.73235" lon="3.31658">
        <ele>174.7</ele>
        <time>2026-05-18T15:05:31Z</time>
      </trkpt>
      <trkpt lat="43.73235" lon="3.31658">
        <ele>174.7</ele>
        <time>2026-05-18T15:05:36Z</time>
      </trkpt>
      <trkpt lat="43.73235" lon="3.31658">
        <ele>174.7</ele>
        <time>2026-05-18T15:05:41Z</time>
      </trkpt>
      <trkpt lat="43.73235" lon="3.31658">
        <ele>174.7</ele>
        <time>2026-05-18T15:05:46Z</time>
      </trkpt>
      <trkpt lat="43.73235" lon="3.31658">
        <ele>174.7</ele>
        <time>2026-05-18T15:05:51Z</time>
      </trkpt>
      <trkpt lat="43.73235" lon="3.31658">
        <ele>174.7</ele>
        <time>2026-05-18T15:05:56Z</time>
      </trkpt>
      <trkpt lat="43.73235" lon="3.31658">
        <ele>174.7</ele>
        <time>2026-05-18T15:06:01Z</time>
      </trkpt>
      <trkpt lat="43.73235" lon="3.31658">
        <ele>174.7</ele>
        <time>2026-05-18T15:06:06Z</time>
      </trkpt>
      <trkpt lat="43.73235" lon="3.31658">
        <ele>174.7</ele>
        <time>2026-05-18T15:06:11Z</time>
      </trkpt>
      <trkpt lat="43.73233" lon="3.31652">
        <ele>174.3</ele>
        <time>2026-05-18T15:06:16Z</time>
      </trkpt>
      <trkpt lat="43.73238" lon="3.31643">
        <ele>174.2</ele>
        <time>2026-05-18T15:06:21Z</time>
      </trkpt>
      <trkpt lat="43.73242" lon="3.31636">
        <ele>174.1</ele>
        <time>2026-05-18T15:06:26Z</time>
      </trkpt>
      <trkpt lat="43.73246" lon="3.31628">
        <ele>173.9</ele>
        <time>2026-05-18T15:06:31Z</time>
      </trkpt>
      <trkpt lat="43.73251" lon="3.3162">
        <ele>173.8</ele>
        <time>2026-05-18T15:06:36Z</time>
      </trkpt>
      <trkpt lat="43.73252" lon="3.31613">
        <ele>173.5</ele>
        <time>2026-05-18T15:06:41Z</time>
      </trkpt>
      <trkpt lat="43.73254" lon="3.31604">
        <ele>173.2</ele>
        <time>2026-05-18T15:06:46Z</time>
      </trkpt>
      <trkpt lat="43.73256" lon="3.31595">
        <ele>173</ele>
        <time>2026-05-18T15:06:51Z</time>
      </trkpt>
      <trkpt lat="43.73258" lon="3.31587">
        <ele>172.7</ele>
        <time>2026-05-18T15:06:56Z</time>
      </trkpt>
      <trkpt lat="43.73261" lon="3.31578">
        <ele>172.8</ele>
        <time>2026-05-18T15:07:01Z</time>
      </trkpt>
      <trkpt lat="43.73261" lon="3.3157">
        <ele>172.8</ele>
        <time>2026-05-18T15:07:06Z</time>
      </trkpt>
      <trkpt lat="43.73263" lon="3.31561">
        <ele>172.9</ele>
        <time>2026-05-18T15:07:11Z</time>
      </trkpt>
      <trkpt lat="43.73265" lon="3.31552">
        <ele>173</ele>
        <time>2026-05-18T15:07:16Z</time>
      </trkpt>
      <trkpt lat="43.73267" lon="3.31544">
        <ele>173.1</ele>
        <time>2026-05-18T15:07:21Z</time>
      </trkpt>
      <trkpt lat="43.73269" lon="3.31537">
        <ele>173.2</ele>
        <time>2026-05-18T15:07:26Z</time>
      </trkpt>
      <trkpt lat="43.73271" lon="3.31529">
        <ele>173.3</ele>
        <time>2026-05-18T15:07:31Z</time>
      </trkpt>
      <trkpt lat="43.73274" lon="3.31522">
        <ele>173.5</ele>
        <time>2026-05-18T15:07:36Z</time>
      </trkpt>
      <trkpt lat="43.73277" lon="3.31514">
        <ele>173.7</ele>
        <time>2026-05-18T15:07:41Z</time>
      </trkpt>
      <trkpt lat="43.73277" lon="3.31509">
        <ele>173.7</ele>
        <time>2026-05-18T15:07:46Z</time>
      </trkpt>
      <trkpt lat="43.7328" lon="3.31501">
        <ele>173.8</ele>
        <time>2026-05-18T15:07:51Z</time>
      </trkpt>
      <trkpt lat="43.73282" lon="3.31495">
        <ele>173.9</ele>
        <time>2026-05-18T15:07:56Z</time>
      </trkpt>
      <trkpt lat="43.73286" lon="3.31485">
        <ele>174.2</ele>
        <time>2026-05-18T15:08:01Z</time>
      </trkpt>
      <trkpt lat="43.7329" lon="3.31476">
        <ele>174.5</ele>
        <time>2026-05-18T15:08:06Z</time>
      </trkpt>
      <trkpt lat="43.73293" lon="3.31468">
        <ele>174.8</ele>
        <time>2026-05-18T15:08:11Z</time>
      </trkpt>
      <trkpt lat="43.73293" lon="3.31459">
        <ele>174.8</ele>
        <time>2026-05-18T15:08:16Z</time>
      </trkpt>
      <trkpt lat="43.73289" lon="3.31451">
        <ele>174.6</ele>
        <time>2026-05-18T15:08:21Z</time>
      </trkpt>
      <trkpt lat="43.73293" lon="3.3145">
        <ele>174.9</ele>
        <time>2026-05-18T15:08:26Z</time>
      </trkpt>
      <trkpt lat="43.733" lon="3.31451">
        <ele>175.4</ele>
        <time>2026-05-18T15:08:31Z</time>
      </trkpt>
      <trkpt lat="43.73302" lon="3.31439">
        <ele>175.6</ele>
        <time>2026-05-18T15:08:36Z</time>
      </trkpt>
      <trkpt lat="43.73299" lon="3.31432">
        <ele>175.4</ele>
        <time>2026-05-18T15:08:41Z</time>
      </trkpt>
      <trkpt lat="43.73296" lon="3.31424">
        <ele>175.3</ele>
        <time>2026-05-18T15:08:46Z</time>
      </trkpt>
      <trkpt lat="43.73297" lon="3.31416">
        <ele>175.4</ele>
        <time>2026-05-18T15:08:51Z</time>
      </trkpt>
      <trkpt lat="43.733" lon="3.31409">
        <ele>175.7</ele>
        <time>2026-05-18T15:08:56Z</time>
      </trkpt>
      <trkpt lat="43.73303" lon="3.31401">
        <ele>175.9</ele>
        <time>2026-05-18T15:09:01Z</time>
      </trkpt>
      <trkpt lat="43.73306" lon="3.31394">
        <ele>176.2</ele>
        <time>2026-05-18T15:09:06Z</time>
      </trkpt>
      <trkpt lat="43.73308" lon="3.3139">
        <ele>176.4</ele>
        <time>2026-05-18T15:09:11Z</time>
      </trkpt>
      <trkpt lat="43.73311" lon="3.31382">
        <ele>176.7</ele>
        <time>2026-05-18T15:09:16Z</time>
      </trkpt>
      <trkpt lat="43.73314" lon="3.31374">
        <ele>177</ele>
        <time>2026-05-18T15:09:21Z</time>
      </trkpt>
      <trkpt lat="43.73317" lon="3.31366">
        <ele>177.3</ele>
        <time>2026-05-18T15:09:26Z</time>
      </trkpt>
      <trkpt lat="43.7332" lon="3.3136">
        <ele>177.6</ele>
        <time>2026-05-18T15:09:31Z</time>
      </trkpt>
      <trkpt lat="43.73322" lon="3.31352">
        <ele>177.9</ele>
        <time>2026-05-18T15:09:36Z</time>
      </trkpt>
      <trkpt lat="43.73321" lon="3.31344">
        <ele>177.9</ele>
        <time>2026-05-18T15:09:41Z</time>
      </trkpt>
      <trkpt lat="43.73325" lon="3.31335">
        <ele>178.3</ele>
        <time>2026-05-18T15:09:46Z</time>
      </trkpt>
      <trkpt lat="43.7333" lon="3.31326">
        <ele>178.5</ele>
        <time>2026-05-18T15:09:51Z</time>
      </trkpt>
      <trkpt lat="43.73335" lon="3.31317">
        <ele>178.7</ele>
        <time>2026-05-18T15:09:56Z</time>
      </trkpt>
      <trkpt lat="43.73333" lon="3.31314">
        <ele>178.5</ele>
        <time>2026-05-18T15:10:01Z</time>
      </trkpt>
      <trkpt lat="43.7333" lon="3.31321">
        <ele>178.4</ele>
        <time>2026-05-18T15:10:06Z</time>
      </trkpt>
      <trkpt lat="43.73328" lon="3.31327">
        <ele>178.4</ele>
        <time>2026-05-18T15:10:11Z</time>
      </trkpt>
      <trkpt lat="43.73325" lon="3.31335">
        <ele>178.3</ele>
        <time>2026-05-18T15:10:16Z</time>
      </trkpt>
      <trkpt lat="43.73324" lon="3.31338">
        <ele>178.2</ele>
        <time>2026-05-18T15:10:21Z</time>
      </trkpt>
      <trkpt lat="43.73326" lon="3.31341">
        <ele>178.3</ele>
        <time>2026-05-18T15:10:26Z</time>
      </trkpt>
      <trkpt lat="43.7333" lon="3.31345">
        <ele>178.6</ele>
        <time>2026-05-18T15:10:31Z</time>
      </trkpt>
      <trkpt lat="43.73335" lon="3.3135">
        <ele>178.8</ele>
        <time>2026-05-18T15:10:36Z</time>
      </trkpt>
      <trkpt lat="43.7334" lon="3.31356">
        <ele>178.9</ele>
        <time>2026-05-18T15:10:41Z</time>
      </trkpt>
      <trkpt lat="43.73345" lon="3.31361">
        <ele>179</ele>
        <time>2026-05-18T15:10:46Z</time>
      </trkpt>
      <trkpt lat="43.73351" lon="3.31366">
        <ele>179.1</ele>
        <time>2026-05-18T15:10:51Z</time>
      </trkpt>
      <trkpt lat="43.73357" lon="3.31371">
        <ele>179.2</ele>
        <time>2026-05-18T15:10:56Z</time>
      </trkpt>
      <trkpt lat="43.73364" lon="3.31375">
        <ele>179.4</ele>
        <time>2026-05-18T15:11:01Z</time>
      </trkpt>
      <trkpt lat="43.73369" lon="3.31381">
        <ele>179.5</ele>
        <time>2026-05-18T15:11:06Z</time>
      </trkpt>
      <trkpt lat="43.73374" lon="3.31386">
        <ele>179.7</ele>
        <time>2026-05-18T15:11:11Z</time>
      </trkpt>
      <trkpt lat="43.7338" lon="3.31389">
        <ele>179.8</ele>
        <time>2026-05-18T15:11:16Z</time>
      </trkpt>
      <trkpt lat="43.73386" lon="3.31394">
        <ele>180</ele>
        <time>2026-05-18T15:11:21Z</time>
      </trkpt>
      <trkpt lat="43.73392" lon="3.314">
        <ele>180.2</ele>
        <time>2026-05-18T15:11:26Z</time>
      </trkpt>
      <trkpt lat="43.73397" lon="3.31405">
        <ele>180.3</ele>
        <time>2026-05-18T15:11:31Z</time>
      </trkpt>
      <trkpt lat="43.73402" lon="3.3141">
        <ele>180.5</ele>
        <time>2026-05-18T15:11:36Z</time>
      </trkpt>
      <trkpt lat="43.7341" lon="3.31415">
        <ele>180.8</ele>
        <time>2026-05-18T15:11:41Z</time>
      </trkpt>
      <trkpt lat="43.73414" lon="3.31413">
        <ele>180.9</ele>
        <time>2026-05-18T15:11:46Z</time>
      </trkpt>
      <trkpt lat="43.73419" lon="3.31408">
        <ele>181</ele>
        <time>2026-05-18T15:11:51Z</time>
      </trkpt>
      <trkpt lat="43.73424" lon="3.31401">
        <ele>181.1</ele>
        <time>2026-05-18T15:11:56Z</time>
      </trkpt>
      <trkpt lat="43.73429" lon="3.31395">
        <ele>181.3</ele>
        <time>2026-05-18T15:12:01Z</time>
      </trkpt>
      <trkpt lat="43.73433" lon="3.31392">
        <ele>181.4</ele>
        <time>2026-05-18T15:12:06Z</time>
      </trkpt>
      <trkpt lat="43.73438" lon="3.31386">
        <ele>181.7</ele>
        <time>2026-05-18T15:12:11Z</time>
      </trkpt>
      <trkpt lat="43.73441" lon="3.31383">
        <ele>181.8</ele>
        <time>2026-05-18T15:12:16Z</time>
      </trkpt>
      <trkpt lat="43.73446" lon="3.31385">
        <ele>181.9</ele>
        <time>2026-05-18T15:12:21Z</time>
      </trkpt>
      <trkpt lat="43.73449" lon="3.31385">
        <ele>182</ele>
        <time>2026-05-18T15:12:26Z</time>
      </trkpt>
    </trkseg>
  </trk>
</gpx>